<?xml version='1.0' encoding='UTF-8'?><gpx version="1.1" creator="JPX - https://github.com/jenetics/jpx" xmlns="http://www.topografix.com/GPX/1/1"><trk><trkseg><trkpt lat="43.1315072" lon="12.2380293"><ele>230.00000000000003</ele><time>2026-03-29T08:54:58.64Z</time></trkpt><trkpt lat="43.131461" lon="12.2380884"><ele>230.0</ele><time>2026-03-29T08:55:01.612Z</time></trkpt><trkpt lat="43.1314221" lon="12.2381768"><ele>230.0</ele><time>2026-03-29T08:55:05.625Z</time></trkpt><trkpt lat="43.1314632" lon="12.2382676"><ele>230.0</ele><time>2026-03-29T08:55:10.6Z</time></trkpt><trkpt lat="43.131546" lon="12.2382289"><ele>230.00000000000003</ele><time>2026-03-29T08:55:54.586Z</time></trkpt><trkpt lat="43.1315924" lon="12.23814"><ele>230.0</ele><time>2026-03-29T08:56:29.601Z</time></trkpt><trkpt lat="43.1316552" lon="12.2381051"><ele>230.50000000000003</ele><time>2026-03-29T08:56:31.601Z</time></trkpt><trkpt lat="43.1317277" lon="12.2380594"><ele>231.0</ele><time>2026-03-29T08:56:33.589Z</time></trkpt><trkpt lat="43.1318165" lon="12.2379971"><ele>231.5</ele><time>2026-03-29T08:56:35.58Z</time></trkpt><trkpt lat="43.1319124" lon="12.2379239"><ele>232.0</ele><time>2026-03-29T08:56:37.583Z</time></trkpt><trkpt lat="43.1319716" lon="12.237886"><ele>232.50000000000003</ele><time>2026-03-29T08:56:38.586Z</time></trkpt><trkpt lat="43.1320318" lon="12.2378515"><ele>233.0</ele><time>2026-03-29T08:56:39.576Z</time></trkpt><trkpt lat="43.132151" lon="12.2377788"><ele>233.0</ele><time>2026-03-29T08:56:41.577Z</time></trkpt><trkpt lat="43.1322114" lon="12.2377395"><ele>233.0</ele><time>2026-03-29T08:56:42.587Z</time></trkpt><trkpt lat="43.1322724" lon="12.2377003"><ele>233.0</ele><time>2026-03-29T08:56:43.592Z</time></trkpt><trkpt lat="43.13233" lon="12.2376539"><ele>233.0</ele><time>2026-03-29T08:56:44.575Z</time></trkpt><trkpt lat="43.1323962" lon="12.2376055"><ele>233.0</ele><time>2026-03-29T08:56:45.584Z</time></trkpt><trkpt lat="43.1324606" lon="12.2375545"><ele>233.0</ele><time>2026-03-29T08:56:46.575Z</time></trkpt><trkpt lat="43.1325395" lon="12.237488"><ele>233.0</ele><time>2026-03-29T08:56:47.596Z</time></trkpt><trkpt lat="43.1326198" lon="12.2374252"><ele>232.83333333333334</ele><time>2026-03-29T08:56:48.593Z</time></trkpt><trkpt lat="43.132697" lon="12.2373685"><ele>232.66666666666669</ele><time>2026-03-29T08:56:49.584Z</time></trkpt><trkpt lat="43.1327812" lon="12.2373159"><ele>232.5</ele><time>2026-03-29T08:56:50.6Z</time></trkpt><trkpt lat="43.1328651" lon="12.2372614"><ele>232.33333333333331</ele><time>2026-03-29T08:56:51.6Z</time></trkpt><trkpt lat="43.1329479" lon="12.2372076"><ele>232.16666666666666</ele><time>2026-03-29T08:56:52.624Z</time></trkpt><trkpt lat="43.1330174" lon="12.2371615"><ele>232.0</ele><time>2026-03-29T08:56:53.586Z</time></trkpt><trkpt lat="43.1330822" lon="12.2371135"><ele>231.8</ele><time>2026-03-29T08:56:54.604Z</time></trkpt><trkpt lat="43.1331896" lon="12.2370232"><ele>231.6</ele><time>2026-03-29T08:56:56.593Z</time></trkpt><trkpt lat="43.1332487" lon="12.2369798"><ele>231.40000000000003</ele><time>2026-03-29T08:56:57.585Z</time></trkpt><trkpt lat="43.1333039" lon="12.2369335"><ele>231.20000000000002</ele><time>2026-03-29T08:56:58.584Z</time></trkpt><trkpt lat="43.1334081" lon="12.2368535"><ele>231.0</ele><time>2026-03-29T08:57:00.599Z</time></trkpt><trkpt lat="43.1335048" lon="12.2368005"><ele>231.5</ele><time>2026-03-29T08:57:02.586Z</time></trkpt><trkpt lat="43.1336159" lon="12.2367485"><ele>232.0</ele><time>2026-03-29T08:57:04.59Z</time></trkpt><trkpt lat="43.1337211" lon="12.2367124"><ele>232.5</ele><time>2026-03-29T08:57:06.573Z</time></trkpt><trkpt lat="43.1338202" lon="12.2367281"><ele>233.0</ele><time>2026-03-29T08:57:08.584Z</time></trkpt><trkpt lat="43.1339334" lon="12.2368003"><ele>233.0</ele><time>2026-03-29T08:57:10.613Z</time></trkpt><trkpt lat="43.1340483" lon="12.2367992"><ele>233.0</ele><time>2026-03-29T08:57:12.592Z</time></trkpt><trkpt lat="43.1341137" lon="12.2367617"><ele>233.0</ele><time>2026-03-29T08:57:13.594Z</time></trkpt><trkpt lat="43.1341797" lon="12.2367161"><ele>233.0</ele><time>2026-03-29T08:57:14.606Z</time></trkpt><trkpt lat="43.1342377" lon="12.2366703"><ele>233.0</ele><time>2026-03-29T08:57:15.589Z</time></trkpt><trkpt lat="43.1343388" lon="12.2365624"><ele>232.4</ele><time>2026-03-29T08:57:17.615Z</time></trkpt><trkpt lat="43.1344266" lon="12.2364681"><ele>231.8</ele><time>2026-03-29T08:57:19.585Z</time></trkpt><trkpt lat="43.134529" lon="12.2363614"><ele>231.2</ele><time>2026-03-29T08:57:21.579Z</time></trkpt><trkpt lat="43.1345835" lon="12.2363003"><ele>230.6</ele><time>2026-03-29T08:57:22.59Z</time></trkpt><trkpt lat="43.1346934" lon="12.2362111"><ele>230.0</ele><time>2026-03-29T08:57:24.603Z</time></trkpt><trkpt lat="43.1347502" lon="12.2361674"><ele>230.00000000000003</ele><time>2026-03-29T08:57:25.577Z</time></trkpt><trkpt lat="43.1348067" lon="12.2361133"><ele>230.0</ele><time>2026-03-29T08:57:26.586Z</time></trkpt><trkpt lat="43.1348621" lon="12.2360614"><ele>230.0</ele><time>2026-03-29T08:57:27.587Z</time></trkpt><trkpt lat="43.1349204" lon="12.2360186"><ele>230.0</ele><time>2026-03-29T08:57:28.589Z</time></trkpt><trkpt lat="43.1350451" lon="12.2360207"><ele>230.00000000000003</ele><time>2026-03-29T08:57:30.607Z</time></trkpt><trkpt lat="43.1351183" lon="12.236066"><ele>230.0</ele><time>2026-03-29T08:57:31.577Z</time></trkpt><trkpt lat="43.1352025" lon="12.2361256"><ele>230.16666666666669</ele><time>2026-03-29T08:57:32.6Z</time></trkpt><trkpt lat="43.1352797" lon="12.2361905"><ele>230.33333333333334</ele><time>2026-03-29T08:57:33.588Z</time></trkpt><trkpt lat="43.1353575" lon="12.2362383"><ele>230.5</ele><time>2026-03-29T08:57:34.588Z</time></trkpt><trkpt lat="43.1354259" lon="12.2362877"><ele>230.66666666666669</ele><time>2026-03-29T08:57:35.594Z</time></trkpt><trkpt lat="43.1354888" lon="12.2363462"><ele>230.83333333333334</ele><time>2026-03-29T08:57:36.59Z</time></trkpt><trkpt lat="43.1355408" lon="12.2364042"><ele>231.0</ele><time>2026-03-29T08:57:37.593Z</time></trkpt><trkpt lat="43.1355957" lon="12.2364541"><ele>230.8</ele><time>2026-03-29T08:57:38.612Z</time></trkpt><trkpt lat="43.1356636" lon="12.2364908"><ele>230.60000000000002</ele><time>2026-03-29T08:57:39.63Z</time></trkpt><trkpt lat="43.1357971" lon="12.2365243"><ele>230.4</ele><time>2026-03-29T08:57:41.64Z</time></trkpt><trkpt lat="43.1359319" lon="12.2365815"><ele>230.2</ele><time>2026-03-29T08:57:43.608Z</time></trkpt><trkpt lat="43.1360097" lon="12.2366236"><ele>230.0</ele><time>2026-03-29T08:57:44.602Z</time></trkpt><trkpt lat="43.1360932" lon="12.2366697"><ele>230.0</ele><time>2026-03-29T08:57:45.626Z</time></trkpt><trkpt lat="43.1361863" lon="12.2367158"><ele>230.0</ele><time>2026-03-29T08:57:46.625Z</time></trkpt><trkpt lat="43.136288" lon="12.2367636"><ele>230.0</ele><time>2026-03-29T08:57:47.616Z</time></trkpt><trkpt lat="43.1363869" lon="12.236805"><ele>230.0</ele><time>2026-03-29T08:57:48.598Z</time></trkpt><trkpt lat="43.13648" lon="12.236857"><ele>230.0</ele><time>2026-03-29T08:57:49.605Z</time></trkpt><trkpt lat="43.1365736" lon="12.2369046"><ele>230.2</ele><time>2026-03-29T08:57:50.581Z</time></trkpt><trkpt lat="43.1366688" lon="12.2369545"><ele>230.4</ele><time>2026-03-29T08:57:51.579Z</time></trkpt><trkpt lat="43.1367607" lon="12.237004"><ele>230.60000000000002</ele><time>2026-03-29T08:57:52.591Z</time></trkpt><trkpt lat="43.1368589" lon="12.2370547"><ele>230.8</ele><time>2026-03-29T08:57:53.615Z</time></trkpt><trkpt lat="43.1369606" lon="12.2371044"><ele>231.0</ele><time>2026-03-29T08:57:54.592Z</time></trkpt><trkpt lat="43.1370622" lon="12.2371507"><ele>231.0</ele><time>2026-03-29T08:57:55.584Z</time></trkpt><trkpt lat="43.137168" lon="12.2372118"><ele>231.0</ele><time>2026-03-29T08:57:56.6Z</time></trkpt><trkpt lat="43.1372719" lon="12.2372702"><ele>231.0</ele><time>2026-03-29T08:57:57.598Z</time></trkpt><trkpt lat="43.1373801" lon="12.2373334"><ele>231.0</ele><time>2026-03-29T08:57:58.595Z</time></trkpt><trkpt lat="43.13749" lon="12.2373979"><ele>231.60000000000002</ele><time>2026-03-29T08:57:59.606Z</time></trkpt><trkpt lat="43.137592" lon="12.237453"><ele>232.20000000000002</ele><time>2026-03-29T08:58:00.592Z</time></trkpt><trkpt lat="43.1376876" lon="12.2375043"><ele>232.79999999999998</ele><time>2026-03-29T08:58:01.584Z</time></trkpt><trkpt lat="43.1377763" lon="12.2375585"><ele>233.39999999999998</ele><time>2026-03-29T08:58:02.583Z</time></trkpt><trkpt lat="43.1378657" lon="12.2376067"><ele>234.0</ele><time>2026-03-29T08:58:03.599Z</time></trkpt><trkpt lat="43.1379504" lon="12.2376558"><ele>234.0</ele><time>2026-03-29T08:58:04.583Z</time></trkpt><trkpt lat="43.1380377" lon="12.2377046"><ele>234.0</ele><time>2026-03-29T08:58:05.592Z</time></trkpt><trkpt lat="43.1381183" lon="12.2377514"><ele>234.0</ele><time>2026-03-29T08:58:06.577Z</time></trkpt><trkpt lat="43.138195" lon="12.2377927"><ele>234.0</ele><time>2026-03-29T08:58:07.594Z</time></trkpt><trkpt lat="43.1382549" lon="12.2378264"><ele>234.0</ele><time>2026-03-29T08:58:08.588Z</time></trkpt><trkpt lat="43.1383625" lon="12.2378923"><ele>234.0</ele><time>2026-03-29T08:58:10.577Z</time></trkpt><trkpt lat="43.1384341" lon="12.2379427"><ele>234.16666666666666</ele><time>2026-03-29T08:58:12.588Z</time></trkpt><trkpt lat="43.1385076" lon="12.2380024"><ele>234.33333333333331</ele><time>2026-03-29T08:58:15.595Z</time></trkpt><trkpt lat="43.1385683" lon="12.2380495"><ele>234.5</ele><time>2026-03-29T08:58:18.631Z</time></trkpt><trkpt lat="43.138649" lon="12.2380512"><ele>234.66666666666666</ele><time>2026-03-29T08:58:22.581Z</time></trkpt><trkpt lat="43.138718" lon="12.2379644"><ele>234.83333333333331</ele><time>2026-03-29T08:58:24.612Z</time></trkpt><trkpt lat="43.1387418" lon="12.2378764"><ele>235.0</ele><time>2026-03-29T08:58:25.598Z</time></trkpt><trkpt lat="43.1387623" lon="12.2377799"><ele>235.0</ele><time>2026-03-29T08:58:26.594Z</time></trkpt><trkpt lat="43.1387691" lon="12.2376584"><ele>235.0</ele><time>2026-03-29T08:58:27.584Z</time></trkpt><trkpt lat="43.1387952" lon="12.2375489"><ele>235.0</ele><time>2026-03-29T08:58:28.609Z</time></trkpt><trkpt lat="43.1388265" lon="12.2374189"><ele>235.0</ele><time>2026-03-29T08:58:29.64Z</time></trkpt><trkpt lat="43.1388597" lon="12.2372898"><ele>235.0</ele><time>2026-03-29T08:58:30.603Z</time></trkpt><trkpt lat="43.1388918" lon="12.2371471"><ele>235.0</ele><time>2026-03-29T08:58:31.597Z</time></trkpt><trkpt lat="43.1389297" lon="12.2370001"><ele>235.0</ele><time>2026-03-29T08:58:32.591Z</time></trkpt><trkpt lat="43.1389735" lon="12.2368246"><ele>235.0</ele><time>2026-03-29T08:58:33.602Z</time></trkpt><trkpt lat="43.1390254" lon="12.2366345"><ele>235.0</ele><time>2026-03-29T08:58:34.637Z</time></trkpt><trkpt lat="43.1390762" lon="12.2364646"><ele>235.0</ele><time>2026-03-29T08:58:35.595Z</time></trkpt><trkpt lat="43.1391353" lon="12.2362682"><ele>235.0</ele><time>2026-03-29T08:58:36.613Z</time></trkpt><trkpt lat="43.1391935" lon="12.2360832"><ele>235.0</ele><time>2026-03-29T08:58:37.592Z</time></trkpt><trkpt lat="43.139251" lon="12.2358983"><ele>235.0</ele><time>2026-03-29T08:58:38.607Z</time></trkpt><trkpt lat="43.1393037" lon="12.2356887"><ele>235.0</ele><time>2026-03-29T08:58:39.613Z</time></trkpt><trkpt lat="43.1393486" lon="12.2354804"><ele>235.0</ele><time>2026-03-29T08:58:40.593Z</time></trkpt><trkpt lat="43.1393951" lon="12.2352848"><ele>235.0</ele><time>2026-03-29T08:58:41.617Z</time></trkpt><trkpt lat="43.139434" lon="12.2351002"><ele>235.0</ele><time>2026-03-29T08:58:42.629Z</time></trkpt><trkpt lat="43.1394698" lon="12.234929"><ele>235.0</ele><time>2026-03-29T08:58:43.611Z</time></trkpt><trkpt lat="43.1395167" lon="12.2347434"><ele>235.0</ele><time>2026-03-29T08:58:44.589Z</time></trkpt><trkpt lat="43.1395649" lon="12.2345544"><ele>235.0</ele><time>2026-03-29T08:58:45.617Z</time></trkpt><trkpt lat="43.1396069" lon="12.2343758"><ele>235.0</ele><time>2026-03-29T08:58:46.604Z</time></trkpt><trkpt lat="43.1396407" lon="12.2341957"><ele>235.0</ele><time>2026-03-29T08:58:47.586Z</time></trkpt><trkpt lat="43.1396786" lon="12.2340181"><ele>235.0</ele><time>2026-03-29T08:58:48.584Z</time></trkpt><trkpt lat="43.1397159" lon="12.2338331"><ele>235.0</ele><time>2026-03-29T08:58:49.619Z</time></trkpt><trkpt lat="43.1397499" lon="12.2336556"><ele>235.0</ele><time>2026-03-29T08:58:50.602Z</time></trkpt><trkpt lat="43.139789" lon="12.2334757"><ele>235.0</ele><time>2026-03-29T08:58:51.573Z</time></trkpt><trkpt lat="43.139828" lon="12.2332827"><ele>235.0</ele><time>2026-03-29T08:58:52.616Z</time></trkpt><trkpt lat="43.1398623" lon="12.2331076"><ele>235.0</ele><time>2026-03-29T08:58:53.6Z</time></trkpt><trkpt lat="43.1399044" lon="12.2329424"><ele>235.0</ele><time>2026-03-29T08:58:54.605Z</time></trkpt><trkpt lat="43.1399431" lon="12.2327847"><ele>235.25</ele><time>2026-03-29T08:58:55.603Z</time></trkpt><trkpt lat="43.1399822" lon="12.232629"><ele>235.5</ele><time>2026-03-29T08:58:56.604Z</time></trkpt><trkpt lat="43.1400221" lon="12.2324821"><ele>235.75</ele><time>2026-03-29T08:58:57.58Z</time></trkpt><trkpt lat="43.1400584" lon="12.2323246"><ele>236.0</ele><time>2026-03-29T08:58:58.592Z</time></trkpt><trkpt lat="43.1400912" lon="12.2321797"><ele>236.0</ele><time>2026-03-29T08:58:59.571Z</time></trkpt><trkpt lat="43.1401277" lon="12.2320339"><ele>236.0</ele><time>2026-03-29T08:59:00.587Z</time></trkpt><trkpt lat="43.1401601" lon="12.2318855"><ele>236.0</ele><time>2026-03-29T08:59:01.578Z</time></trkpt><trkpt lat="43.1401885" lon="12.2317289"><ele>236.0</ele><time>2026-03-29T08:59:02.586Z</time></trkpt><trkpt lat="43.1402132" lon="12.2315752"><ele>235.75</ele><time>2026-03-29T08:59:03.6Z</time></trkpt><trkpt lat="43.1402376" lon="12.2314307"><ele>235.5</ele><time>2026-03-29T08:59:04.577Z</time></trkpt><trkpt lat="43.1402665" lon="12.2312744"><ele>235.25</ele><time>2026-03-29T08:59:05.586Z</time></trkpt><trkpt lat="43.1402967" lon="12.2311249"><ele>235.0</ele><time>2026-03-29T08:59:06.598Z</time></trkpt><trkpt lat="43.1403281" lon="12.2309694"><ele>235.0</ele><time>2026-03-29T08:59:07.589Z</time></trkpt><trkpt lat="43.1403605" lon="12.2308088"><ele>235.0</ele><time>2026-03-29T08:59:08.586Z</time></trkpt><trkpt lat="43.1403993" lon="12.230644"><ele>235.0</ele><time>2026-03-29T08:59:09.594Z</time></trkpt><trkpt lat="43.1404382" lon="12.2304891"><ele>235.0</ele><time>2026-03-29T08:59:10.596Z</time></trkpt><trkpt lat="43.14049" lon="12.2302978"><ele>235.0</ele><time>2026-03-29T08:59:11.578Z</time></trkpt><trkpt lat="43.1405496" lon="12.2300976"><ele>235.0</ele><time>2026-03-29T08:59:12.599Z</time></trkpt><trkpt lat="43.1406137" lon="12.2299119"><ele>235.0</ele><time>2026-03-29T08:59:13.577Z</time></trkpt><trkpt lat="43.1406798" lon="12.2297312"><ele>234.75</ele><time>2026-03-29T08:59:14.578Z</time></trkpt><trkpt lat="43.1407362" lon="12.2295627"><ele>234.5</ele><time>2026-03-29T08:59:15.571Z</time></trkpt><trkpt lat="43.1407877" lon="12.2294003"><ele>234.25</ele><time>2026-03-29T08:59:16.591Z</time></trkpt><trkpt lat="43.1408352" lon="12.2292478"><ele>234.0</ele><time>2026-03-29T08:59:17.603Z</time></trkpt><trkpt lat="43.1408817" lon="12.2291016"><ele>234.6</ele><time>2026-03-29T08:59:18.604Z</time></trkpt><trkpt lat="43.140925" lon="12.2289612"><ele>235.2</ele><time>2026-03-29T08:59:19.587Z</time></trkpt><trkpt lat="43.1409679" lon="12.2288159"><ele>235.79999999999998</ele><time>2026-03-29T08:59:20.58Z</time></trkpt><trkpt lat="43.1410069" lon="12.2286796"><ele>236.39999999999998</ele><time>2026-03-29T08:59:21.597Z</time></trkpt><trkpt lat="43.1410424" lon="12.2285494"><ele>237.0</ele><time>2026-03-29T08:59:22.582Z</time></trkpt><trkpt lat="43.1410745" lon="12.2284538"><ele>237.0</ele><time>2026-03-29T08:59:23.58Z</time></trkpt><trkpt lat="43.1411253" lon="12.2283457"><ele>237.0</ele><time>2026-03-29T08:59:25.583Z</time></trkpt><trkpt lat="43.1411808" lon="12.2282917"><ele>237.0</ele><time>2026-03-29T08:59:27.585Z</time></trkpt><trkpt lat="43.141266" lon="12.2282914"><ele>237.0</ele><time>2026-03-29T08:59:31.591Z</time></trkpt><trkpt lat="43.1413497" lon="12.2282913"><ele>237.0</ele><time>2026-03-29T08:59:33.587Z</time></trkpt><trkpt lat="43.1414532" lon="12.228328"><ele>237.0</ele><time>2026-03-29T08:59:35.599Z</time></trkpt><trkpt lat="43.141522" lon="12.2283598"><ele>236.75</ele><time>2026-03-29T08:59:36.611Z</time></trkpt><trkpt lat="43.1416114" lon="12.2283986"><ele>236.5</ele><time>2026-03-29T08:59:37.58Z</time></trkpt><trkpt lat="43.1417173" lon="12.2284536"><ele>236.25</ele><time>2026-03-29T08:59:38.593Z</time></trkpt><trkpt lat="43.1418535" lon="12.228522"><ele>236.0</ele><time>2026-03-29T08:59:39.63Z</time></trkpt><trkpt lat="43.1419916" lon="12.2285873"><ele>236.0</ele><time>2026-03-29T08:59:40.613Z</time></trkpt><trkpt lat="43.1422017" lon="12.2286988"><ele>236.0</ele><time>2026-03-29T08:59:41.981Z</time></trkpt><trkpt lat="43.1423494" lon="12.2287229"><ele>236.0</ele><time>2026-03-29T08:59:43.652Z</time></trkpt><trkpt lat="43.1424173" lon="12.2287376"><ele>236.0</ele><time>2026-03-29T08:59:44.657Z</time></trkpt><trkpt lat="43.1424973" lon="12.2288457"><ele>236.20000000000002</ele><time>2026-03-29T08:59:45.653Z</time></trkpt><trkpt lat="43.1425571" lon="12.2289829"><ele>236.40000000000003</ele><time>2026-03-29T08:59:46.665Z</time></trkpt><trkpt lat="43.1425793" lon="12.2291169"><ele>236.6</ele><time>2026-03-29T08:59:47.619Z</time></trkpt><trkpt lat="43.1425697" lon="12.2292546"><ele>236.8</ele><time>2026-03-29T08:59:48.602Z</time></trkpt><trkpt lat="43.142531" lon="12.229394"><ele>237.0</ele><time>2026-03-29T08:59:49.593Z</time></trkpt><trkpt lat="43.1424635" lon="12.2295193"><ele>237.0</ele><time>2026-03-29T08:59:50.581Z</time></trkpt><trkpt lat="43.1423708" lon="12.2296147"><ele>237.0</ele><time>2026-03-29T08:59:51.593Z</time></trkpt><trkpt lat="43.1422661" lon="12.229659"><ele>237.0</ele><time>2026-03-29T08:59:52.578Z</time></trkpt><trkpt lat="43.1421584" lon="12.2296522"><ele>237.0</ele><time>2026-03-29T08:59:53.604Z</time></trkpt><trkpt lat="43.1420574" lon="12.2295893"><ele>237.0</ele><time>2026-03-29T08:59:54.568Z</time></trkpt><trkpt lat="43.1419532" lon="12.2294651"><ele>237.0</ele><time>2026-03-29T08:59:55.576Z</time></trkpt><trkpt lat="43.1418841" lon="12.2293004"><ele>237.0</ele><time>2026-03-29T08:59:56.597Z</time></trkpt><trkpt lat="43.1418532" lon="12.2291049"><ele>237.0</ele><time>2026-03-29T08:59:57.627Z</time></trkpt><trkpt lat="43.1418704" lon="12.2289951"><ele>237.0</ele><time>2026-03-29T08:59:58.618Z</time></trkpt><trkpt lat="43.1419102" lon="12.228786"><ele>236.66666666666669</ele><time>2026-03-29T08:59:59.693Z</time></trkpt><trkpt lat="43.1419645" lon="12.2285841"><ele>236.33333333333334</ele><time>2026-03-29T09:00:00.617Z</time></trkpt><trkpt lat="43.1420667" lon="12.2282654"><ele>236.0</ele><time>2026-03-29T09:00:01.987Z</time></trkpt><trkpt lat="43.1420913" lon="12.2278875"><ele>236.66666666666669</ele><time>2026-03-29T09:00:03.638Z</time></trkpt><trkpt lat="43.142138" lon="12.2276112"><ele>237.33333333333331</ele><time>2026-03-29T09:00:04.637Z</time></trkpt><trkpt lat="43.142202" lon="12.2273235"><ele>238.0</ele><time>2026-03-29T09:00:05.63Z</time></trkpt><trkpt lat="43.1422836" lon="12.2270237"><ele>238.0</ele><time>2026-03-29T09:00:06.633Z</time></trkpt><trkpt lat="43.1423796" lon="12.2267187"><ele>238.0</ele><time>2026-03-29T09:00:07.64Z</time></trkpt><trkpt lat="43.1424856" lon="12.2264191"><ele>238.5</ele><time>2026-03-29T09:00:08.644Z</time></trkpt><trkpt lat="43.1426016" lon="12.2261203"><ele>239.0</ele><time>2026-03-29T09:00:09.646Z</time></trkpt><trkpt lat="43.1427283" lon="12.2258239"><ele>238.0</ele><time>2026-03-29T09:00:10.635Z</time></trkpt><trkpt lat="43.1428698" lon="12.2255315"><ele>237.0</ele><time>2026-03-29T09:00:11.634Z</time></trkpt><trkpt lat="43.1430221" lon="12.2252445"><ele>237.0</ele><time>2026-03-29T09:00:12.649Z</time></trkpt><trkpt lat="43.1431764" lon="12.2249738"><ele>237.0</ele><time>2026-03-29T09:00:13.638Z</time></trkpt><trkpt lat="43.143342" lon="12.2247085"><ele>239.0</ele><time>2026-03-29T09:00:14.631Z</time></trkpt><trkpt lat="43.1435231" lon="12.2244398"><ele>241.0</ele><time>2026-03-29T09:00:15.65Z</time></trkpt><trkpt lat="43.1437099" lon="12.2241851"><ele>241.0</ele><time>2026-03-29T09:00:16.633Z</time></trkpt><trkpt lat="43.1439214" lon="12.2239237"><ele>241.0</ele><time>2026-03-29T09:00:17.676Z</time></trkpt><trkpt lat="43.1441287" lon="12.2236894"><ele>242.0</ele><time>2026-03-29T09:00:18.639Z</time></trkpt><trkpt lat="43.1443635" lon="12.2234494"><ele>243.0</ele><time>2026-03-29T09:00:19.677Z</time></trkpt><trkpt lat="43.1445922" lon="12.2232366"><ele>242.5</ele><time>2026-03-29T09:00:20.646Z</time></trkpt><trkpt lat="43.1448353" lon="12.2230283"><ele>242.0</ele><time>2026-03-29T09:00:21.637Z</time></trkpt><trkpt lat="43.1450901" lon="12.22283"><ele>243.0</ele><time>2026-03-29T09:00:22.636Z</time></trkpt><trkpt lat="43.1453531" lon="12.2226457"><ele>244.0</ele><time>2026-03-29T09:00:23.642Z</time></trkpt><trkpt lat="43.1456205" lon="12.2224672"><ele>243.0</ele><time>2026-03-29T09:00:24.65Z</time></trkpt><trkpt lat="43.1458741" lon="12.2223028"><ele>242.0</ele><time>2026-03-29T09:00:25.621Z</time></trkpt><trkpt lat="43.1461367" lon="12.222138"><ele>242.0</ele><time>2026-03-29T09:00:26.637Z</time></trkpt><trkpt lat="43.1463916" lon="12.2219765"><ele>242.0</ele><time>2026-03-29T09:00:27.636Z</time></trkpt><trkpt lat="43.1466478" lon="12.2218092"><ele>243.0</ele><time>2026-03-29T09:00:28.65Z</time></trkpt><trkpt lat="43.146905" lon="12.2216398"><ele>244.0</ele><time>2026-03-29T09:00:29.666Z</time></trkpt><trkpt lat="43.1471635" lon="12.22147"><ele>244.0</ele><time>2026-03-29T09:00:30.685Z</time></trkpt><trkpt lat="43.147456" lon="12.2214619"><ele>244.0</ele><time>2026-03-29T09:00:31.631Z</time></trkpt><trkpt lat="43.1477575" lon="12.2214441"><ele>244.0</ele><time>2026-03-29T09:00:32.645Z</time></trkpt><trkpt lat="43.1480505" lon="12.221428"><ele>244.0</ele><time>2026-03-29T09:00:33.665Z</time></trkpt><trkpt lat="43.1482132" lon="12.221139"><ele>243.5</ele><time>2026-03-29T09:00:34.633Z</time></trkpt><trkpt lat="43.1483857" lon="12.2208487"><ele>243.0</ele><time>2026-03-29T09:00:35.661Z</time></trkpt><trkpt lat="43.1485512" lon="12.2205675"><ele>243.0</ele><time>2026-03-29T09:00:36.661Z</time></trkpt><trkpt lat="43.1487651" lon="12.2204299"><ele>243.0</ele><time>2026-03-29T09:00:37.637Z</time></trkpt><trkpt lat="43.1489837" lon="12.2202882"><ele>243.5</ele><time>2026-03-29T09:00:38.634Z</time></trkpt><trkpt lat="43.1492076" lon="12.220141"><ele>244.0</ele><time>2026-03-29T09:00:39.66Z</time></trkpt><trkpt lat="43.1494164" lon="12.2199961"><ele>244.0</ele><time>2026-03-29T09:00:40.619Z</time></trkpt><trkpt lat="43.1496385" lon="12.219821"><ele>244.0</ele><time>2026-03-29T09:00:41.652Z</time></trkpt><trkpt lat="43.1498472" lon="12.219632"><ele>245.0</ele><time>2026-03-29T09:00:42.646Z</time></trkpt><trkpt lat="43.1500539" lon="12.219433"><ele>246.0</ele><time>2026-03-29T09:00:43.642Z</time></trkpt><trkpt lat="43.15025" lon="12.2192127"><ele>246.5</ele><time>2026-03-29T09:00:44.634Z</time></trkpt><trkpt lat="43.1504398" lon="12.2189699"><ele>247.0</ele><time>2026-03-29T09:00:45.634Z</time></trkpt><trkpt lat="43.1506316" lon="12.2187063"><ele>246.5</ele><time>2026-03-29T09:00:46.669Z</time></trkpt><trkpt lat="43.150806" lon="12.2184353"><ele>246.0</ele><time>2026-03-29T09:00:47.657Z</time></trkpt><trkpt lat="43.1509712" lon="12.2181492"><ele>245.5</ele><time>2026-03-29T09:00:48.642Z</time></trkpt><trkpt lat="43.1511269" lon="12.2178358"><ele>245.0</ele><time>2026-03-29T09:00:49.653Z</time></trkpt><trkpt lat="43.1512677" lon="12.2175117"><ele>245.0</ele><time>2026-03-29T09:00:50.646Z</time></trkpt><trkpt lat="43.1513968" lon="12.2171685"><ele>245.0</ele><time>2026-03-29T09:00:51.654Z</time></trkpt><trkpt lat="43.1515102" lon="12.2168127"><ele>247.0</ele><time>2026-03-29T09:00:52.659Z</time></trkpt><trkpt lat="43.1516042" lon="12.2164489"><ele>249.0</ele><time>2026-03-29T09:00:53.648Z</time></trkpt><trkpt lat="43.1516821" lon="12.2160714"><ele>249.0</ele><time>2026-03-29T09:00:54.655Z</time></trkpt><trkpt lat="43.1517428" lon="12.2156938"><ele>249.0</ele><time>2026-03-29T09:00:55.644Z</time></trkpt><trkpt lat="43.1517841" lon="12.2153091"><ele>249.5</ele><time>2026-03-29T09:00:56.644Z</time></trkpt><trkpt lat="43.151806" lon="12.214923"><ele>250.0</ele><time>2026-03-29T09:00:57.638Z</time></trkpt><trkpt lat="43.1518091" lon="12.2145314"><ele>252.0</ele><time>2026-03-29T09:00:58.642Z</time></trkpt><trkpt lat="43.1517966" lon="12.2141496"><ele>254.0</ele><time>2026-03-29T09:00:59.642Z</time></trkpt><trkpt lat="43.1517738" lon="12.213782"><ele>257.0</ele><time>2026-03-29T09:01:00.641Z</time></trkpt><trkpt lat="43.1517405" lon="12.2134403"><ele>260.0</ele><time>2026-03-29T09:01:01.623Z</time></trkpt><trkpt lat="43.1517002" lon="12.2130894"><ele>265.5</ele><time>2026-03-29T09:01:02.681Z</time></trkpt><trkpt lat="43.151667" lon="12.2127716"><ele>271.0</ele><time>2026-03-29T09:01:03.643Z</time></trkpt><trkpt lat="43.1516382" lon="12.2124488"><ele>273.5</ele><time>2026-03-29T09:01:04.647Z</time></trkpt><trkpt lat="43.1516214" lon="12.2121307"><ele>276.0</ele><time>2026-03-29T09:01:05.637Z</time></trkpt><trkpt lat="43.1516177" lon="12.2118115"><ele>276.0</ele><time>2026-03-29T09:01:06.64Z</time></trkpt><trkpt lat="43.1516282" lon="12.2114951"><ele>276.0</ele><time>2026-03-29T09:01:07.638Z</time></trkpt><trkpt lat="43.1516524" lon="12.2111731"><ele>275.5</ele><time>2026-03-29T09:01:08.658Z</time></trkpt><trkpt lat="43.1516883" lon="12.2108629"><ele>275.0</ele><time>2026-03-29T09:01:09.642Z</time></trkpt><trkpt lat="43.1517454" lon="12.2105536"><ele>276.0</ele><time>2026-03-29T09:01:10.634Z</time></trkpt><trkpt lat="43.1518194" lon="12.2102393"><ele>277.0</ele><time>2026-03-29T09:01:11.657Z</time></trkpt><trkpt lat="43.1519063" lon="12.2099393"><ele>279.0</ele><time>2026-03-29T09:01:12.641Z</time></trkpt><trkpt lat="43.1520034" lon="12.2096264"><ele>281.0</ele><time>2026-03-29T09:01:13.668Z</time></trkpt><trkpt lat="43.1521059" lon="12.2093296"><ele>281.0</ele><time>2026-03-29T09:01:14.635Z</time></trkpt><trkpt lat="43.1522168" lon="12.2090126"><ele>281.0</ele><time>2026-03-29T09:01:15.653Z</time></trkpt><trkpt lat="43.1523244" lon="12.2087047"><ele>286.5</ele><time>2026-03-29T09:01:16.638Z</time></trkpt><trkpt lat="43.1524349" lon="12.2083788"><ele>292.0</ele><time>2026-03-29T09:01:17.647Z</time></trkpt><trkpt lat="43.1525491" lon="12.20806"><ele>292.5</ele><time>2026-03-29T09:01:18.634Z</time></trkpt><trkpt lat="43.1526677" lon="12.2077287"><ele>293.0</ele><time>2026-03-29T09:01:19.65Z</time></trkpt><trkpt lat="43.1527774" lon="12.207417"><ele>298.0</ele><time>2026-03-29T09:01:20.584Z</time></trkpt><trkpt lat="43.1528941" lon="12.2070756"><ele>303.0</ele><time>2026-03-29T09:01:21.583Z</time></trkpt><trkpt lat="43.1530134" lon="12.2067319"><ele>312.0</ele><time>2026-03-29T09:01:22.599Z</time></trkpt><trkpt lat="43.1531306" lon="12.2063927"><ele>321.0</ele><time>2026-03-29T09:01:23.57Z</time></trkpt><trkpt lat="43.1532435" lon="12.206015"><ele>330.5</ele><time>2026-03-29T09:01:24.636Z</time></trkpt><trkpt lat="43.1533992" lon="12.2055351"><ele>340.0</ele><time>2026-03-29T09:01:25.994Z</time></trkpt><trkpt lat="43.1535717" lon="12.2049166"><ele>348.5</ele><time>2026-03-29T09:01:27.629Z</time></trkpt><trkpt lat="43.1536782" lon="12.2045472"><ele>357.0</ele><time>2026-03-29T09:01:28.636Z</time></trkpt><trkpt lat="43.153788" lon="12.2041877"><ele>366.0</ele><time>2026-03-29T09:01:29.636Z</time></trkpt><trkpt lat="43.1538913" lon="12.2038234"><ele>375.0</ele><time>2026-03-29T09:01:30.633Z</time></trkpt><trkpt lat="43.1539822" lon="12.2034965"><ele>385.0</ele><time>2026-03-29T09:01:31.628Z</time></trkpt><trkpt lat="43.1540794" lon="12.2031632"><ele>395.0</ele><time>2026-03-29T09:01:32.608Z</time></trkpt><trkpt lat="43.1541882" lon="12.2028155"><ele>395.0</ele><time>2026-03-29T09:01:33.612Z</time></trkpt><trkpt lat="43.1542792" lon="12.2024717"><ele>395.0</ele><time>2026-03-29T09:01:34.616Z</time></trkpt><trkpt lat="43.1543753" lon="12.2021416"><ele>401.0</ele><time>2026-03-29T09:01:35.572Z</time></trkpt><trkpt lat="43.154458" lon="12.2018179"><ele>407.0</ele><time>2026-03-29T09:01:36.52Z</time></trkpt><trkpt lat="43.154538" lon="12.2014879"><ele>321.0</ele><time>2026-03-29T09:01:37.503Z</time></trkpt><trkpt lat="43.1532436" lon="12.2060571"><ele>287.0</ele><time>2026-03-29T09:01:38.484Z</time></trkpt><trkpt lat="43.1572382" lon="12.1949186"><ele>286.5</ele><time>2026-03-29T09:01:58.456Z</time></trkpt><trkpt lat="43.1573384" lon="12.1946176"><ele>286.0</ele><time>2026-03-29T09:01:59.456Z</time></trkpt><trkpt lat="43.1574365" lon="12.1943152"><ele>284.5</ele><time>2026-03-29T09:02:00.457Z</time></trkpt><trkpt lat="43.1575319" lon="12.1940167"><ele>283.0</ele><time>2026-03-29T09:02:01.456Z</time></trkpt><trkpt lat="43.1576572" lon="12.1937225"><ele>281.3333333333333</ele><time>2026-03-29T09:02:02.664Z</time></trkpt><trkpt lat="43.1577345" lon="12.1935608"><ele>279.6666666666667</ele><time>2026-03-29T09:02:03.67Z</time></trkpt><trkpt lat="43.1579053" lon="12.1932226"><ele>278.0</ele><time>2026-03-29T09:02:04.644Z</time></trkpt><trkpt lat="43.1580769" lon="12.1929113"><ele>277.0</ele><time>2026-03-29T09:02:05.586Z</time></trkpt><trkpt lat="43.1582313" lon="12.1926527"><ele>276.0</ele><time>2026-03-29T09:02:06.571Z</time></trkpt><trkpt lat="43.1584031" lon="12.1923921"><ele>274.5</ele><time>2026-03-29T09:02:07.592Z</time></trkpt><trkpt lat="43.1585707" lon="12.192142"><ele>273.0</ele><time>2026-03-29T09:02:08.583Z</time></trkpt><trkpt lat="43.1587456" lon="12.191881"><ele>273.0</ele><time>2026-03-29T09:02:09.595Z</time></trkpt><trkpt lat="43.1589254" lon="12.1916162"><ele>273.0</ele><time>2026-03-29T09:02:10.602Z</time></trkpt><trkpt lat="43.159109" lon="12.1913737"><ele>272.0</ele><time>2026-03-29T09:02:11.588Z</time></trkpt><trkpt lat="43.1593059" lon="12.191135"><ele>271.0</ele><time>2026-03-29T09:02:12.59Z</time></trkpt><trkpt lat="43.1595116" lon="12.1909036"><ele>271.0</ele><time>2026-03-29T09:02:13.587Z</time></trkpt><trkpt lat="43.1597317" lon="12.1906905"><ele>271.0</ele><time>2026-03-29T09:02:14.584Z</time></trkpt><trkpt lat="43.1599662" lon="12.1904996"><ele>269.5</ele><time>2026-03-29T09:02:15.586Z</time></trkpt><trkpt lat="43.1602061" lon="12.1903251"><ele>268.0</ele><time>2026-03-29T09:02:16.584Z</time></trkpt><trkpt lat="43.1604606" lon="12.1901624"><ele>270.5</ele><time>2026-03-29T09:02:17.619Z</time></trkpt><trkpt lat="43.1607018" lon="12.1900231"><ele>273.0</ele><time>2026-03-29T09:02:18.58Z</time></trkpt><trkpt lat="43.1609587" lon="12.1898947"><ele>269.0</ele><time>2026-03-29T09:02:19.594Z</time></trkpt><trkpt lat="43.1612181" lon="12.1897777"><ele>265.0</ele><time>2026-03-29T09:02:20.585Z</time></trkpt><trkpt lat="43.1614782" lon="12.1896792"><ele>265.0</ele><time>2026-03-29T09:02:21.575Z</time></trkpt><trkpt lat="43.1617417" lon="12.1896036"><ele>265.0</ele><time>2026-03-29T09:02:22.569Z</time></trkpt><trkpt lat="43.1620107" lon="12.1895366"><ele>265.0</ele><time>2026-03-29T09:02:23.586Z</time></trkpt><trkpt lat="43.1622832" lon="12.1894941"><ele>265.0</ele><time>2026-03-29T09:02:24.6Z</time></trkpt><trkpt lat="43.1625508" lon="12.1894655"><ele>265.0</ele><time>2026-03-29T09:02:25.591Z</time></trkpt><trkpt lat="43.1628196" lon="12.1894505"><ele>265.0</ele><time>2026-03-29T09:02:26.586Z</time></trkpt><trkpt lat="43.1630939" lon="12.1894332"><ele>265.5</ele><time>2026-03-29T09:02:27.58Z</time></trkpt><trkpt lat="43.1633744" lon="12.1894178"><ele>266.0</ele><time>2026-03-29T09:02:28.587Z</time></trkpt><trkpt lat="43.1636552" lon="12.1894019"><ele>266.0</ele><time>2026-03-29T09:02:29.597Z</time></trkpt><trkpt lat="43.1639298" lon="12.1893843"><ele>266.0</ele><time>2026-03-29T09:02:30.594Z</time></trkpt><trkpt lat="43.1642102" lon="12.1893677"><ele>265.0</ele><time>2026-03-29T09:02:31.615Z</time></trkpt><trkpt lat="43.1644669" lon="12.1893519"><ele>264.0</ele><time>2026-03-29T09:02:32.58Z</time></trkpt><trkpt lat="43.164732" lon="12.1893348"><ele>264.0</ele><time>2026-03-29T09:02:33.577Z</time></trkpt><trkpt lat="43.1649993" lon="12.189314"><ele>264.0</ele><time>2026-03-29T09:02:34.584Z</time></trkpt><trkpt lat="43.1652651" lon="12.1892936"><ele>264.0</ele><time>2026-03-29T09:02:35.596Z</time></trkpt><trkpt lat="43.1655243" lon="12.1892794"><ele>264.0</ele><time>2026-03-29T09:02:36.618Z</time></trkpt><trkpt lat="43.1657575" lon="12.189269"><ele>264.0</ele><time>2026-03-29T09:02:37.579Z</time></trkpt><trkpt lat="43.1659953" lon="12.1892573"><ele>264.0</ele><time>2026-03-29T09:02:38.596Z</time></trkpt><trkpt lat="43.1662206" lon="12.1892391"><ele>264.0</ele><time>2026-03-29T09:02:39.584Z</time></trkpt><trkpt lat="43.1664541" lon="12.1892266"><ele>264.0</ele><time>2026-03-29T09:02:40.6Z</time></trkpt><trkpt lat="43.1666813" lon="12.1892161"><ele>265.5</ele><time>2026-03-29T09:02:41.587Z</time></trkpt><trkpt lat="43.1669176" lon="12.1892086"><ele>267.0</ele><time>2026-03-29T09:02:42.576Z</time></trkpt><trkpt lat="43.1671592" lon="12.1891924"><ele>267.0</ele><time>2026-03-29T09:02:43.588Z</time></trkpt><trkpt lat="43.1673916" lon="12.1891687"><ele>267.0</ele><time>2026-03-29T09:02:44.579Z</time></trkpt><trkpt lat="43.1676328" lon="12.1891487"><ele>267.0</ele><time>2026-03-29T09:02:45.591Z</time></trkpt><trkpt lat="43.167869" lon="12.1891249"><ele>267.0</ele><time>2026-03-29T09:02:46.583Z</time></trkpt><trkpt lat="43.1681054" lon="12.189099"><ele>265.5</ele><time>2026-03-29T09:02:47.587Z</time></trkpt><trkpt lat="43.1683429" lon="12.1890648"><ele>264.0</ele><time>2026-03-29T09:02:48.581Z</time></trkpt><trkpt lat="43.1685983" lon="12.1890243"><ele>263.0</ele><time>2026-03-29T09:02:49.641Z</time></trkpt><trkpt lat="43.1688315" lon="12.1889818"><ele>262.0</ele><time>2026-03-29T09:02:50.582Z</time></trkpt><trkpt lat="43.1690824" lon="12.1889308"><ele>261.0</ele><time>2026-03-29T09:02:51.592Z</time></trkpt><trkpt lat="43.1693374" lon="12.1888723"><ele>260.0</ele><time>2026-03-29T09:02:52.588Z</time></trkpt><trkpt lat="43.1695988" lon="12.1888031"><ele>260.0</ele><time>2026-03-29T09:02:53.588Z</time></trkpt><trkpt lat="43.1698551" lon="12.1887295"><ele>260.0</ele><time>2026-03-29T09:02:54.583Z</time></trkpt><trkpt lat="43.1701128" lon="12.188646"><ele>260.5</ele><time>2026-03-29T09:02:55.584Z</time></trkpt><trkpt lat="43.1703714" lon="12.1885572"><ele>261.0</ele><time>2026-03-29T09:02:56.576Z</time></trkpt><trkpt lat="43.1706317" lon="12.188457"><ele>262.0</ele><time>2026-03-29T09:02:57.577Z</time></trkpt><trkpt lat="43.1708862" lon="12.1883494"><ele>263.0</ele><time>2026-03-29T09:02:58.569Z</time></trkpt><trkpt lat="43.171145" lon="12.1882327"><ele>262.0</ele><time>2026-03-29T09:02:59.574Z</time></trkpt><trkpt lat="43.1714022" lon="12.188103"><ele>261.0</ele><time>2026-03-29T09:03:00.582Z</time></trkpt><trkpt lat="43.1716552" lon="12.1879686"><ele>260.5</ele><time>2026-03-29T09:03:01.579Z</time></trkpt><trkpt lat="43.1719154" lon="12.1878192"><ele>260.0</ele><time>2026-03-29T09:03:02.617Z</time></trkpt><trkpt lat="43.1721563" lon="12.1876695"><ele>260.0</ele><time>2026-03-29T09:03:03.588Z</time></trkpt><trkpt lat="43.1724092" lon="12.1875048"><ele>260.0</ele><time>2026-03-29T09:03:04.595Z</time></trkpt><trkpt lat="43.1726604" lon="12.1873351"><ele>260.0</ele><time>2026-03-29T09:03:05.589Z</time></trkpt><trkpt lat="43.1729035" lon="12.1871612"><ele>260.0</ele><time>2026-03-29T09:03:06.582Z</time></trkpt><trkpt lat="43.1731516" lon="12.1869766"><ele>260.0</ele><time>2026-03-29T09:03:07.596Z</time></trkpt><trkpt lat="43.173396" lon="12.186782"><ele>260.0</ele><time>2026-03-29T09:03:08.611Z</time></trkpt><trkpt lat="43.1736189" lon="12.1865917"><ele>260.0</ele><time>2026-03-29T09:03:09.578Z</time></trkpt><trkpt lat="43.1738456" lon="12.1863906"><ele>260.0</ele><time>2026-03-29T09:03:10.581Z</time></trkpt><trkpt lat="43.1740697" lon="12.1861855"><ele>261.5</ele><time>2026-03-29T09:03:11.592Z</time></trkpt><trkpt lat="43.174284" lon="12.1859851"><ele>263.0</ele><time>2026-03-29T09:03:12.593Z</time></trkpt><trkpt lat="43.1744938" lon="12.1857882"><ele>262.5</ele><time>2026-03-29T09:03:13.584Z</time></trkpt><trkpt lat="43.1747038" lon="12.1855914"><ele>262.0</ele><time>2026-03-29T09:03:14.579Z</time></trkpt><trkpt lat="43.1749174" lon="12.185393"><ele>262.0</ele><time>2026-03-29T09:03:15.582Z</time></trkpt><trkpt lat="43.1751317" lon="12.1851961"><ele>262.0</ele><time>2026-03-29T09:03:16.583Z</time></trkpt><trkpt lat="43.1753511" lon="12.1849986"><ele>261.0</ele><time>2026-03-29T09:03:17.591Z</time></trkpt><trkpt lat="43.1755623" lon="12.1848042"><ele>260.0</ele><time>2026-03-29T09:03:18.579Z</time></trkpt><trkpt lat="43.1757749" lon="12.1846065"><ele>260.0</ele><time>2026-03-29T09:03:19.588Z</time></trkpt><trkpt lat="43.175983" lon="12.1844155"><ele>260.0</ele><time>2026-03-29T09:03:20.582Z</time></trkpt><trkpt lat="43.1761904" lon="12.1842292"><ele>260.0</ele><time>2026-03-29T09:03:21.583Z</time></trkpt><trkpt lat="43.1764074" lon="12.184035"><ele>260.0</ele><time>2026-03-29T09:03:22.608Z</time></trkpt><trkpt lat="43.1766199" lon="12.1838566"><ele>260.0</ele><time>2026-03-29T09:03:23.594Z</time></trkpt><trkpt lat="43.1768305" lon="12.1836708"><ele>260.0</ele><time>2026-03-29T09:03:24.596Z</time></trkpt><trkpt lat="43.1770399" lon="12.1834848"><ele>260.0</ele><time>2026-03-29T09:03:25.584Z</time></trkpt><trkpt lat="43.1772578" lon="12.1832888"><ele>260.0</ele><time>2026-03-29T09:03:26.587Z</time></trkpt><trkpt lat="43.1774742" lon="12.1830814"><ele>261.0</ele><time>2026-03-29T09:03:27.613Z</time></trkpt><trkpt lat="43.1776713" lon="12.1828866"><ele>262.0</ele><time>2026-03-29T09:03:28.585Z</time></trkpt><trkpt lat="43.1778683" lon="12.1826784"><ele>262.0</ele><time>2026-03-29T09:03:29.598Z</time></trkpt><trkpt lat="43.1780571" lon="12.182467"><ele>262.0</ele><time>2026-03-29T09:03:30.581Z</time></trkpt><trkpt lat="43.1782488" lon="12.1822408"><ele>262.5</ele><time>2026-03-29T09:03:31.595Z</time></trkpt><trkpt lat="43.1784355" lon="12.1820113"><ele>263.0</ele><time>2026-03-29T09:03:32.59Z</time></trkpt><trkpt lat="43.178622" lon="12.1817762"><ele>263.0</ele><time>2026-03-29T09:03:33.586Z</time></trkpt><trkpt lat="43.1788064" lon="12.1815383"><ele>263.0</ele><time>2026-03-29T09:03:34.58Z</time></trkpt><trkpt lat="43.1789915" lon="12.1812775"><ele>261.5</ele><time>2026-03-29T09:03:35.623Z</time></trkpt><trkpt lat="43.1791548" lon="12.1810259"><ele>260.0</ele><time>2026-03-29T09:03:36.596Z</time></trkpt><trkpt lat="43.1793158" lon="12.1807564"><ele>260.5</ele><time>2026-03-29T09:03:37.591Z</time></trkpt><trkpt lat="43.1794689" lon="12.1804802"><ele>261.0</ele><time>2026-03-29T09:03:38.58Z</time></trkpt><trkpt lat="43.1796361" lon="12.1801603"><ele>263.0</ele><time>2026-03-29T09:03:39.693Z</time></trkpt><trkpt lat="43.1799062" lon="12.1795807"><ele>263.0</ele><time>2026-03-29T09:03:41.605Z</time></trkpt><trkpt lat="43.1800404" lon="12.1792796"><ele>263.0</ele><time>2026-03-29T09:03:42.576Z</time></trkpt><trkpt lat="43.1801799" lon="12.178952"><ele>261.5</ele><time>2026-03-29T09:03:43.611Z</time></trkpt><trkpt lat="43.1802979" lon="12.1786402"><ele>260.0</ele><time>2026-03-29T09:03:44.572Z</time></trkpt><trkpt lat="43.1804112" lon="12.1783178"><ele>259.5</ele><time>2026-03-29T09:03:45.568Z</time></trkpt><trkpt lat="43.1805213" lon="12.177978"><ele>259.0</ele><time>2026-03-29T09:03:46.589Z</time></trkpt><trkpt lat="43.1806221" lon="12.177637"><ele>260.0</ele><time>2026-03-29T09:03:47.591Z</time></trkpt><trkpt lat="43.1807137" lon="12.1772842"><ele>261.0</ele><time>2026-03-29T09:03:48.608Z</time></trkpt><trkpt lat="43.1807924" lon="12.1769446"><ele>261.0</ele><time>2026-03-29T09:03:49.594Z</time></trkpt><trkpt lat="43.1808664" lon="12.1765967"><ele>261.0</ele><time>2026-03-29T09:03:50.58Z</time></trkpt><trkpt lat="43.180934" lon="12.1762425"><ele>262.0</ele><time>2026-03-29T09:03:51.582Z</time></trkpt><trkpt lat="43.180999" lon="12.1758882"><ele>263.0</ele><time>2026-03-29T09:03:52.576Z</time></trkpt><trkpt lat="43.181067" lon="12.1755202"><ele>263.0</ele><time>2026-03-29T09:03:53.607Z</time></trkpt><trkpt lat="43.1811308" lon="12.175166"><ele>263.0</ele><time>2026-03-29T09:03:54.593Z</time></trkpt><trkpt lat="43.1811972" lon="12.1748243"><ele>261.5</ele><time>2026-03-29T09:03:55.571Z</time></trkpt><trkpt lat="43.1812629" lon="12.1744663"><ele>260.0</ele><time>2026-03-29T09:03:56.6Z</time></trkpt><trkpt lat="43.1813256" lon="12.1741188"><ele>259.5</ele><time>2026-03-29T09:03:57.589Z</time></trkpt><trkpt lat="43.1813928" lon="12.1737559"><ele>259.0</ele><time>2026-03-29T09:03:58.613Z</time></trkpt><trkpt lat="43.1814617" lon="12.1734123"><ele>261.5</ele><time>2026-03-29T09:03:59.584Z</time></trkpt><trkpt lat="43.1815343" lon="12.1730507"><ele>264.0</ele><time>2026-03-29T09:04:00.592Z</time></trkpt><trkpt lat="43.1816055" lon="12.1726901"><ele>263.5</ele><time>2026-03-29T09:04:01.593Z</time></trkpt><trkpt lat="43.1816737" lon="12.1723322"><ele>263.0</ele><time>2026-03-29T09:04:02.586Z</time></trkpt><trkpt lat="43.1817451" lon="12.1719683"><ele>263.0</ele><time>2026-03-29T09:04:03.603Z</time></trkpt><trkpt lat="43.1818086" lon="12.1716175"><ele>263.0</ele><time>2026-03-29T09:04:04.585Z</time></trkpt><trkpt lat="43.181876" lon="12.1712489"><ele>263.0</ele><time>2026-03-29T09:04:05.606Z</time></trkpt><trkpt lat="43.1819423" lon="12.1708947"><ele>263.0</ele><time>2026-03-29T09:04:06.59Z</time></trkpt><trkpt lat="43.1820129" lon="12.1705382"><ele>263.5</ele><time>2026-03-29T09:04:07.586Z</time></trkpt><trkpt lat="43.1820817" lon="12.1701796"><ele>264.0</ele><time>2026-03-29T09:04:08.584Z</time></trkpt><trkpt lat="43.182152" lon="12.1698195"><ele>264.0</ele><time>2026-03-29T09:04:09.586Z</time></trkpt><trkpt lat="43.1822216" lon="12.1694455"><ele>264.0</ele><time>2026-03-29T09:04:10.621Z</time></trkpt><trkpt lat="43.1822855" lon="12.169097"><ele>264.0</ele><time>2026-03-29T09:04:11.585Z</time></trkpt><trkpt lat="43.1823506" lon="12.1687283"><ele>264.0</ele><time>2026-03-29T09:04:12.594Z</time></trkpt><trkpt lat="43.1824126" lon="12.1683665"><ele>264.0</ele><time>2026-03-29T09:04:13.588Z</time></trkpt><trkpt lat="43.1824778" lon="12.1680022"><ele>264.0</ele><time>2026-03-29T09:04:14.578Z</time></trkpt><trkpt lat="43.1825446" lon="12.1676293"><ele>263.5</ele><time>2026-03-29T09:04:15.581Z</time></trkpt><trkpt lat="43.1826188" lon="12.1672562"><ele>263.0</ele><time>2026-03-29T09:04:16.601Z</time></trkpt><trkpt lat="43.1826894" lon="12.1668916"><ele>264.0</ele><time>2026-03-29T09:04:17.592Z</time></trkpt><trkpt lat="43.1827587" lon="12.1665161"><ele>265.0</ele><time>2026-03-29T09:04:18.6Z</time></trkpt><trkpt lat="43.1828277" lon="12.1661535"><ele>265.0</ele><time>2026-03-29T09:04:19.579Z</time></trkpt><trkpt lat="43.1828997" lon="12.1657746"><ele>265.0</ele><time>2026-03-29T09:04:20.622Z</time></trkpt><trkpt lat="43.1829673" lon="12.1654199"><ele>264.5</ele><time>2026-03-29T09:04:21.596Z</time></trkpt><trkpt lat="43.1830351" lon="12.1650585"><ele>264.0</ele><time>2026-03-29T09:04:22.59Z</time></trkpt><trkpt lat="43.1831036" lon="12.1646957"><ele>263.5</ele><time>2026-03-29T09:04:23.593Z</time></trkpt><trkpt lat="43.1831755" lon="12.1643309"><ele>263.0</ele><time>2026-03-29T09:04:24.597Z</time></trkpt><trkpt lat="43.1832506" lon="12.1639578"><ele>264.5</ele><time>2026-03-29T09:04:25.623Z</time></trkpt><trkpt lat="43.1833229" lon="12.1636002"><ele>266.0</ele><time>2026-03-29T09:04:26.597Z</time></trkpt><trkpt lat="43.1833992" lon="12.1632377"><ele>266.5</ele><time>2026-03-29T09:04:27.577Z</time></trkpt><trkpt lat="43.1834833" lon="12.1628706"><ele>267.0</ele><time>2026-03-29T09:04:28.583Z</time></trkpt><trkpt lat="43.1835734" lon="12.1624946"><ele>266.0</ele><time>2026-03-29T09:04:29.594Z</time></trkpt><trkpt lat="43.183667" lon="12.1621277"><ele>265.0</ele><time>2026-03-29T09:04:30.591Z</time></trkpt><trkpt lat="43.1837631" lon="12.1617626"><ele>265.0</ele><time>2026-03-29T09:04:31.58Z</time></trkpt><trkpt lat="43.1838663" lon="12.1613824"><ele>265.0</ele><time>2026-03-29T09:04:32.624Z</time></trkpt><trkpt lat="43.183969" lon="12.1610365"><ele>264.5</ele><time>2026-03-29T09:04:33.595Z</time></trkpt><trkpt lat="43.1840757" lon="12.160684"><ele>264.0</ele><time>2026-03-29T09:04:34.597Z</time></trkpt><trkpt lat="43.1841811" lon="12.1603411"><ele>264.0</ele><time>2026-03-29T09:04:35.581Z</time></trkpt><trkpt lat="43.1842918" lon="12.1600004"><ele>264.0</ele><time>2026-03-29T09:04:36.587Z</time></trkpt><trkpt lat="43.1844038" lon="12.1596736"><ele>263.5</ele><time>2026-03-29T09:04:37.584Z</time></trkpt><trkpt lat="43.1845181" lon="12.1593622"><ele>263.0</ele><time>2026-03-29T09:04:38.581Z</time></trkpt><trkpt lat="43.1846395" lon="12.1590481"><ele>262.5</ele><time>2026-03-29T09:04:39.591Z</time></trkpt><trkpt lat="43.1847626" lon="12.1587412"><ele>262.0</ele><time>2026-03-29T09:04:40.577Z</time></trkpt><trkpt lat="43.1848992" lon="12.1584122"><ele>263.5</ele><time>2026-03-29T09:04:41.635Z</time></trkpt><trkpt lat="43.1850224" lon="12.1581187"><ele>265.0</ele><time>2026-03-29T09:04:42.581Z</time></trkpt><trkpt lat="43.1851595" lon="12.15781"><ele>265.0</ele><time>2026-03-29T09:04:43.588Z</time></trkpt><trkpt lat="43.1853016" lon="12.1575001"><ele>265.0</ele><time>2026-03-29T09:04:44.595Z</time></trkpt><trkpt lat="43.1854471" lon="12.1571885"><ele>263.5</ele><time>2026-03-29T09:04:45.609Z</time></trkpt><trkpt lat="43.1855874" lon="12.1568957"><ele>262.0</ele><time>2026-03-29T09:04:46.576Z</time></trkpt><trkpt lat="43.1857408" lon="12.1565823"><ele>264.5</ele><time>2026-03-29T09:04:47.614Z</time></trkpt><trkpt lat="43.1858928" lon="12.1562862"><ele>267.0</ele><time>2026-03-29T09:04:48.603Z</time></trkpt><trkpt lat="43.1860457" lon="12.1559873"><ele>267.0</ele><time>2026-03-29T09:04:49.597Z</time></trkpt><trkpt lat="43.1861951" lon="12.1556928"><ele>267.0</ele><time>2026-03-29T09:04:50.583Z</time></trkpt><trkpt lat="43.1863447" lon="12.1553952"><ele>267.0</ele><time>2026-03-29T09:04:51.586Z</time></trkpt><trkpt lat="43.1865024" lon="12.1550978"><ele>267.0</ele><time>2026-03-29T09:04:52.604Z</time></trkpt><trkpt lat="43.1866523" lon="12.1548125"><ele>270.5</ele><time>2026-03-29T09:04:53.587Z</time></trkpt><trkpt lat="43.1868067" lon="12.154502"><ele>274.0</ele><time>2026-03-29T09:04:54.632Z</time></trkpt><trkpt lat="43.1869458" lon="12.1542162"><ele>274.0</ele><time>2026-03-29T09:04:55.586Z</time></trkpt><trkpt lat="43.1870935" lon="12.1539179"><ele>274.0</ele><time>2026-03-29T09:04:56.587Z</time></trkpt><trkpt lat="43.1872372" lon="12.1536354"><ele>274.5</ele><time>2026-03-29T09:04:57.573Z</time></trkpt><trkpt lat="43.1873802" lon="12.1533405"><ele>275.0</ele><time>2026-03-29T09:04:58.594Z</time></trkpt><trkpt lat="43.1875199" lon="12.1530506"><ele>275.0</ele><time>2026-03-29T09:04:59.588Z</time></trkpt><trkpt lat="43.1876558" lon="12.1527563"><ele>275.0</ele><time>2026-03-29T09:05:00.589Z</time></trkpt><trkpt lat="43.1877957" lon="12.1524704"><ele>274.0</ele><time>2026-03-29T09:05:01.592Z</time></trkpt><trkpt lat="43.1879307" lon="12.1521917"><ele>273.0</ele><time>2026-03-29T09:05:02.578Z</time></trkpt><trkpt lat="43.1880799" lon="12.1518965"><ele>276.0</ele><time>2026-03-29T09:05:03.632Z</time></trkpt><trkpt lat="43.188212" lon="12.1516306"><ele>279.0</ele><time>2026-03-29T09:05:04.585Z</time></trkpt><trkpt lat="43.1883523" lon="12.1513456"><ele>280.0</ele><time>2026-03-29T09:05:05.588Z</time></trkpt><trkpt lat="43.1884904" lon="12.1510656"><ele>281.0</ele><time>2026-03-29T09:05:06.579Z</time></trkpt><trkpt lat="43.1886296" lon="12.1507737"><ele>281.0</ele><time>2026-03-29T09:05:07.583Z</time></trkpt><trkpt lat="43.188763" lon="12.1504775"><ele>281.0</ele><time>2026-03-29T09:05:08.585Z</time></trkpt><trkpt lat="43.1888947" lon="12.1501641"><ele>290.0</ele><time>2026-03-29T09:05:09.614Z</time></trkpt><trkpt lat="43.1890133" lon="12.1498722"><ele>299.0</ele><time>2026-03-29T09:05:10.581Z</time></trkpt><trkpt lat="43.1891388" lon="12.1495591"><ele>299.0</ele><time>2026-03-29T09:05:11.601Z</time></trkpt><trkpt lat="43.1892672" lon="12.1492476"><ele>299.0</ele><time>2026-03-29T09:05:12.625Z</time></trkpt><trkpt lat="43.1893913" lon="12.1489329"><ele>306.5</ele><time>2026-03-29T09:05:13.623Z</time></trkpt><trkpt lat="43.1895649" lon="12.1484926"><ele>314.0</ele><time>2026-03-29T09:05:14.975Z</time></trkpt><trkpt lat="43.1897687" lon="12.1480314"><ele>330.5</ele><time>2026-03-29T09:05:16.635Z</time></trkpt><trkpt lat="43.1898864" lon="12.1477241"><ele>347.0</ele><time>2026-03-29T09:05:17.637Z</time></trkpt><trkpt lat="43.1900031" lon="12.1474201"><ele>355.0</ele><time>2026-03-29T09:05:18.633Z</time></trkpt><trkpt lat="43.1901131" lon="12.1471104"><ele>363.0</ele><time>2026-03-29T09:05:19.639Z</time></trkpt><trkpt lat="43.1902127" lon="12.1468036"><ele>368.0</ele><time>2026-03-29T09:05:20.637Z</time></trkpt><trkpt lat="43.1903224" lon="12.1464865"><ele>373.0</ele><time>2026-03-29T09:05:21.622Z</time></trkpt><trkpt lat="43.1904365" lon="12.1461693"><ele>373.0</ele><time>2026-03-29T09:05:22.622Z</time></trkpt><trkpt lat="43.1905552" lon="12.1458511"><ele>373.0</ele><time>2026-03-29T09:05:23.611Z</time></trkpt><trkpt lat="43.1906626" lon="12.1455594"><ele>369.5</ele><time>2026-03-29T09:05:24.593Z</time></trkpt><trkpt lat="43.1907987" lon="12.1452317"><ele>366.0</ele><time>2026-03-29T09:05:25.546Z</time></trkpt><trkpt lat="43.1909384" lon="12.1449458"><ele>314.0</ele><time>2026-03-29T09:05:26.523Z</time></trkpt><trkpt lat="43.1893863" lon="12.1489934"><ele>293.0</ele><time>2026-03-29T09:05:27.492Z</time></trkpt><trkpt lat="43.1925197" lon="12.1412837"><ele>293.0</ele><time>2026-03-29T09:05:39.459Z</time></trkpt><trkpt lat="43.1926303" lon="12.1410041"><ele>293.0</ele><time>2026-03-29T09:05:40.459Z</time></trkpt><trkpt lat="43.1927446" lon="12.1407201"><ele>293.6666666666667</ele><time>2026-03-29T09:05:41.459Z</time></trkpt><trkpt lat="43.19286" lon="12.1404254"><ele>294.3333333333333</ele><time>2026-03-29T09:05:42.459Z</time></trkpt><trkpt lat="43.1928958" lon="12.1403217"><ele>295.0</ele><time>2026-03-29T09:05:43.647Z</time></trkpt><trkpt lat="43.1930363" lon="12.1399427"><ele>298.0</ele><time>2026-03-29T09:05:44.644Z</time></trkpt><trkpt lat="43.1931992" lon="12.1395063"><ele>301.0</ele><time>2026-03-29T09:05:45.663Z</time></trkpt><trkpt lat="43.193299" lon="12.139233"><ele>301.5</ele><time>2026-03-29T09:05:46.579Z</time></trkpt><trkpt lat="43.1934081" lon="12.138947"><ele>302.0</ele><time>2026-03-29T09:05:47.577Z</time></trkpt><trkpt lat="43.1935192" lon="12.1386599"><ele>302.0</ele><time>2026-03-29T09:05:48.582Z</time></trkpt><trkpt lat="43.1936334" lon="12.1383666"><ele>302.0</ele><time>2026-03-29T09:05:49.611Z</time></trkpt><trkpt lat="43.1937487" lon="12.138081"><ele>303.0</ele><time>2026-03-29T09:05:50.603Z</time></trkpt><trkpt lat="43.1938629" lon="12.1378018"><ele>304.0</ele><time>2026-03-29T09:05:51.589Z</time></trkpt><trkpt lat="43.1939766" lon="12.1375206"><ele>310.0</ele><time>2026-03-29T09:05:52.588Z</time></trkpt><trkpt lat="43.1940995" lon="12.1372288"><ele>316.0</ele><time>2026-03-29T09:05:53.62Z</time></trkpt><trkpt lat="43.1942563" lon="12.1368449"><ele>311.5</ele><time>2026-03-29T09:05:54.926Z</time></trkpt><trkpt lat="43.1944544" lon="12.1363528"><ele>307.0</ele><time>2026-03-29T09:05:56.648Z</time></trkpt><trkpt lat="43.1945994" lon="12.1360322"><ele>307.0</ele><time>2026-03-29T09:05:57.637Z</time></trkpt><trkpt lat="43.1947284" lon="12.1357206"><ele>307.0</ele><time>2026-03-29T09:05:58.64Z</time></trkpt><trkpt lat="43.1948479" lon="12.1354243"><ele>307.5</ele><time>2026-03-29T09:05:59.632Z</time></trkpt><trkpt lat="43.1949702" lon="12.1351241"><ele>308.0</ele><time>2026-03-29T09:06:00.639Z</time></trkpt><trkpt lat="43.1951118" lon="12.1347822"><ele>305.0</ele><time>2026-03-29T09:06:01.788Z</time></trkpt><trkpt lat="43.1953391" lon="12.1342449"><ele>304.5</ele><time>2026-03-29T09:06:03.6Z</time></trkpt><trkpt lat="43.1954655" lon="12.1339481"><ele>304.0</ele><time>2026-03-29T09:06:04.593Z</time></trkpt><trkpt lat="43.1955879" lon="12.1336548"><ele>308.0</ele><time>2026-03-29T09:06:05.576Z</time></trkpt><trkpt lat="43.1957142" lon="12.1333526"><ele>312.0</ele><time>2026-03-29T09:06:06.578Z</time></trkpt><trkpt lat="43.1958403" lon="12.1330459"><ele>312.0</ele><time>2026-03-29T09:06:07.584Z</time></trkpt><trkpt lat="43.1959688" lon="12.1327355"><ele>312.0</ele><time>2026-03-29T09:06:08.599Z</time></trkpt><trkpt lat="43.1960984" lon="12.1324116"><ele>309.5</ele><time>2026-03-29T09:06:09.625Z</time></trkpt><trkpt lat="43.1962201" lon="12.1321129"><ele>307.0</ele><time>2026-03-29T09:06:10.589Z</time></trkpt><trkpt lat="43.1963493" lon="12.1318086"><ele>307.5</ele><time>2026-03-29T09:06:11.584Z</time></trkpt><trkpt lat="43.1964707" lon="12.1315009"><ele>308.0</ele><time>2026-03-29T09:06:12.572Z</time></trkpt><trkpt lat="43.1965873" lon="12.1311826"><ele>309.5</ele><time>2026-03-29T09:06:13.581Z</time></trkpt><trkpt lat="43.1966972" lon="12.1308724"><ele>311.0</ele><time>2026-03-29T09:06:14.579Z</time></trkpt><trkpt lat="43.1968016" lon="12.1305575"><ele>311.0</ele><time>2026-03-29T09:06:15.599Z</time></trkpt><trkpt lat="43.1968982" lon="12.1302414"><ele>311.0</ele><time>2026-03-29T09:06:16.586Z</time></trkpt><trkpt lat="43.1969893" lon="12.1299103"><ele>310.5</ele><time>2026-03-29T09:06:17.588Z</time></trkpt><trkpt lat="43.1970728" lon="12.1295722"><ele>310.0</ele><time>2026-03-29T09:06:18.58Z</time></trkpt><trkpt lat="43.1971508" lon="12.1292191"><ele>310.5</ele><time>2026-03-29T09:06:19.576Z</time></trkpt><trkpt lat="43.1972236" lon="12.1288545"><ele>311.0</ele><time>2026-03-29T09:06:20.585Z</time></trkpt><trkpt lat="43.1972843" lon="12.1284785"><ele>310.0</ele><time>2026-03-29T09:06:21.605Z</time></trkpt><trkpt lat="43.1973277" lon="12.1281211"><ele>309.0</ele><time>2026-03-29T09:06:22.585Z</time></trkpt><trkpt lat="43.1973582" lon="12.1277348"><ele>305.5</ele><time>2026-03-29T09:06:23.639Z</time></trkpt><trkpt lat="43.1973782" lon="12.1273864"><ele>302.0</ele><time>2026-03-29T09:06:24.587Z</time></trkpt><trkpt lat="43.1973842" lon="12.1270107"><ele>302.0</ele><time>2026-03-29T09:06:25.598Z</time></trkpt><trkpt lat="43.1973783" lon="12.1266408"><ele>302.0</ele><time>2026-03-29T09:06:26.588Z</time></trkpt><trkpt lat="43.1973602" lon="12.1262726"><ele>305.0</ele><time>2026-03-29T09:06:27.584Z</time></trkpt><trkpt lat="43.1973323" lon="12.1258844"><ele>308.0</ele><time>2026-03-29T09:06:28.632Z</time></trkpt><trkpt lat="43.1972998" lon="12.1255476"><ele>308.0</ele><time>2026-03-29T09:06:29.58Z</time></trkpt><trkpt lat="43.1972642" lon="12.125188"><ele>308.0</ele><time>2026-03-29T09:06:30.584Z</time></trkpt><trkpt lat="43.1972314" lon="12.124831"><ele>308.5</ele><time>2026-03-29T09:06:31.586Z</time></trkpt><trkpt lat="43.1971978" lon="12.1244773"><ele>309.0</ele><time>2026-03-29T09:06:32.581Z</time></trkpt><trkpt lat="43.1971639" lon="12.1241103"><ele>312.0</ele><time>2026-03-29T09:06:33.597Z</time></trkpt><trkpt lat="43.1971296" lon="12.1237345"><ele>315.0</ele><time>2026-03-29T09:06:34.622Z</time></trkpt><trkpt lat="43.1970978" lon="12.1233533"><ele>318.5</ele><time>2026-03-29T09:06:35.625Z</time></trkpt><trkpt lat="43.1970557" lon="12.1228454"><ele>322.0</ele><time>2026-03-29T09:06:36.951Z</time></trkpt><trkpt lat="43.1970129" lon="12.1222493"><ele>321.0</ele><time>2026-03-29T09:06:38.64Z</time></trkpt><trkpt lat="43.1969876" lon="12.1219008"><ele>320.0</ele><time>2026-03-29T09:06:39.642Z</time></trkpt><trkpt lat="43.1969598" lon="12.1215492"><ele>320.0</ele><time>2026-03-29T09:06:40.631Z</time></trkpt><trkpt lat="43.1969347" lon="12.121196"><ele>320.0</ele><time>2026-03-29T09:06:41.646Z</time></trkpt><trkpt lat="43.1969082" lon="12.1208401"><ele>312.5</ele><time>2026-03-29T09:06:42.639Z</time></trkpt><trkpt lat="43.1968771" lon="12.1205085"><ele>305.0</ele><time>2026-03-29T09:06:43.643Z</time></trkpt><trkpt lat="43.1968514" lon="12.1201778"><ele>297.5</ele><time>2026-03-29T09:06:44.639Z</time></trkpt><trkpt lat="43.1968171" lon="12.1198259"><ele>290.0</ele><time>2026-03-29T09:06:45.62Z</time></trkpt><trkpt lat="43.1967726" lon="12.1194919"><ele>290.0</ele><time>2026-03-29T09:06:46.603Z</time></trkpt><trkpt lat="43.1967511" lon="12.119086"><ele>290.0</ele><time>2026-03-29T09:06:47.572Z</time></trkpt><trkpt lat="43.1967021" lon="12.1187318"><ele>285.0</ele><time>2026-03-29T09:06:48.589Z</time></trkpt><trkpt lat="43.1966591" lon="12.1183627"><ele>280.0</ele><time>2026-03-29T09:06:49.588Z</time></trkpt><trkpt lat="43.196607" lon="12.1179847"><ele>276.5</ele><time>2026-03-29T09:06:50.645Z</time></trkpt><trkpt lat="43.1965651" lon="12.1176461"><ele>273.0</ele><time>2026-03-29T09:06:51.648Z</time></trkpt><trkpt lat="43.1965355" lon="12.11731"><ele>271.5</ele><time>2026-03-29T09:06:52.651Z</time></trkpt><trkpt lat="43.196511" lon="12.1169866"><ele>270.0</ele><time>2026-03-29T09:06:53.634Z</time></trkpt><trkpt lat="43.1964818" lon="12.1166471"><ele>267.5</ele><time>2026-03-29T09:06:54.659Z</time></trkpt><trkpt lat="43.1964526" lon="12.1163226"><ele>265.0</ele><time>2026-03-29T09:06:55.645Z</time></trkpt><trkpt lat="43.1964247" lon="12.1160095"><ele>265.0</ele><time>2026-03-29T09:06:56.6Z</time></trkpt><trkpt lat="43.1963896" lon="12.1156848"><ele>265.0</ele><time>2026-03-29T09:06:57.586Z</time></trkpt><trkpt lat="43.1963516" lon="12.1153537"><ele>265.0</ele><time>2026-03-29T09:06:58.589Z</time></trkpt><trkpt lat="43.1963118" lon="12.1150117"><ele>265.0</ele><time>2026-03-29T09:06:59.606Z</time></trkpt><trkpt lat="43.1962747" lon="12.1146814"><ele>265.0</ele><time>2026-03-29T09:07:00.582Z</time></trkpt><trkpt lat="43.1962374" lon="12.1143269"><ele>265.0</ele><time>2026-03-29T09:07:01.609Z</time></trkpt><trkpt lat="43.1961983" lon="12.1139695"><ele>266.0</ele><time>2026-03-29T09:07:02.615Z</time></trkpt><trkpt lat="43.1961605" lon="12.1136169"><ele>267.0</ele><time>2026-03-29T09:07:03.595Z</time></trkpt><trkpt lat="43.1961227" lon="12.113261"><ele>266.0</ele><time>2026-03-29T09:07:04.58Z</time></trkpt><trkpt lat="43.1960888" lon="12.112889"><ele>265.0</ele><time>2026-03-29T09:07:05.596Z</time></trkpt><trkpt lat="43.1960552" lon="12.1125247"><ele>265.5</ele><time>2026-03-29T09:07:06.596Z</time></trkpt><trkpt lat="43.1960244" lon="12.1121621"><ele>266.0</ele><time>2026-03-29T09:07:07.595Z</time></trkpt><trkpt lat="43.1959904" lon="12.1117937"><ele>266.0</ele><time>2026-03-29T09:07:08.604Z</time></trkpt><trkpt lat="43.1959578" lon="12.1114343"><ele>266.0</ele><time>2026-03-29T09:07:09.588Z</time></trkpt><trkpt lat="43.1959227" lon="12.1110543"><ele>265.0</ele><time>2026-03-29T09:07:10.622Z</time></trkpt><trkpt lat="43.1958894" lon="12.1106962"><ele>264.0</ele><time>2026-03-29T09:07:11.594Z</time></trkpt><trkpt lat="43.1958556" lon="12.1103324"><ele>264.0</ele><time>2026-03-29T09:07:12.578Z</time></trkpt><trkpt lat="43.1958228" lon="12.1099478"><ele>264.0</ele><time>2026-03-29T09:07:13.605Z</time></trkpt><trkpt lat="43.1957919" lon="12.1095739"><ele>263.0</ele><time>2026-03-29T09:07:14.596Z</time></trkpt><trkpt lat="43.1957547" lon="12.1091853"><ele>262.0</ele><time>2026-03-29T09:07:15.607Z</time></trkpt><trkpt lat="43.19572" lon="12.1087988"><ele>262.0</ele><time>2026-03-29T09:07:16.611Z</time></trkpt><trkpt lat="43.1956844" lon="12.1084286"><ele>262.0</ele><time>2026-03-29T09:07:17.582Z</time></trkpt><trkpt lat="43.1956508" lon="12.1080543"><ele>262.5</ele><time>2026-03-29T09:07:18.582Z</time></trkpt><trkpt lat="43.1956166" lon="12.1076885"><ele>263.0</ele><time>2026-03-29T09:07:19.586Z</time></trkpt><trkpt lat="43.1955831" lon="12.1073213"><ele>263.0</ele><time>2026-03-29T09:07:20.593Z</time></trkpt><trkpt lat="43.1955476" lon="12.1069544"><ele>263.0</ele><time>2026-03-29T09:07:21.601Z</time></trkpt><trkpt lat="43.1955155" lon="12.106602"><ele>261.5</ele><time>2026-03-29T09:07:22.576Z</time></trkpt><trkpt lat="43.1954818" lon="12.1062201"><ele>260.0</ele><time>2026-03-29T09:07:23.594Z</time></trkpt><trkpt lat="43.1954503" lon="12.1058317"><ele>260.5</ele><time>2026-03-29T09:07:24.625Z</time></trkpt><trkpt lat="43.1954171" lon="12.1054682"><ele>261.0</ele><time>2026-03-29T09:07:25.577Z</time></trkpt><trkpt lat="43.195384" lon="12.1050836"><ele>260.5</ele><time>2026-03-29T09:07:26.595Z</time></trkpt><trkpt lat="43.195355" lon="12.1047083"><ele>260.0</ele><time>2026-03-29T09:07:27.582Z</time></trkpt><trkpt lat="43.195335" lon="12.1043209"><ele>259.5</ele><time>2026-03-29T09:07:28.589Z</time></trkpt><trkpt lat="43.1953175" lon="12.1039218"><ele>259.0</ele><time>2026-03-29T09:07:29.596Z</time></trkpt><trkpt lat="43.1953027" lon="12.103531"><ele>259.5</ele><time>2026-03-29T09:07:30.577Z</time></trkpt><trkpt lat="43.1952923" lon="12.1031336"><ele>260.0</ele><time>2026-03-29T09:07:31.579Z</time></trkpt><trkpt lat="43.1952883" lon="12.1027345"><ele>259.5</ele><time>2026-03-29T09:07:32.594Z</time></trkpt><trkpt lat="43.195293" lon="12.1023351"><ele>259.0</ele><time>2026-03-29T09:07:33.605Z</time></trkpt><trkpt lat="43.1953099" lon="12.1019418"><ele>259.0</ele><time>2026-03-29T09:07:34.589Z</time></trkpt><trkpt lat="43.1953302" lon="12.1015391"><ele>259.0</ele><time>2026-03-29T09:07:35.586Z</time></trkpt><trkpt lat="43.1953548" lon="12.1011411"><ele>259.0</ele><time>2026-03-29T09:07:36.598Z</time></trkpt><trkpt lat="43.1953847" lon="12.1007558"><ele>259.0</ele><time>2026-03-29T09:07:37.594Z</time></trkpt><trkpt lat="43.1954192" lon="12.1003742"><ele>259.5</ele><time>2026-03-29T09:07:38.585Z</time></trkpt><trkpt lat="43.195459" lon="12.0999961"><ele>260.0</ele><time>2026-03-29T09:07:39.575Z</time></trkpt><trkpt lat="43.1955085" lon="12.0996052"><ele>259.5</ele><time>2026-03-29T09:07:40.603Z</time></trkpt><trkpt lat="43.1955605" lon="12.0992286"><ele>259.0</ele><time>2026-03-29T09:07:41.59Z</time></trkpt><trkpt lat="43.1956155" lon="12.0988423"><ele>259.0</ele><time>2026-03-29T09:07:42.594Z</time></trkpt><trkpt lat="43.195671" lon="12.0984569"><ele>259.0</ele><time>2026-03-29T09:07:43.583Z</time></trkpt><trkpt lat="43.1957306" lon="12.0980618"><ele>259.0</ele><time>2026-03-29T09:07:44.6Z</time></trkpt><trkpt lat="43.195789" lon="12.0976831"><ele>259.0</ele><time>2026-03-29T09:07:45.583Z</time></trkpt><trkpt lat="43.1958461" lon="12.0972998"><ele>258.5</ele><time>2026-03-29T09:07:46.582Z</time></trkpt><trkpt lat="43.1959023" lon="12.0969144"><ele>258.0</ele><time>2026-03-29T09:07:47.589Z</time></trkpt><trkpt lat="43.1959569" lon="12.0965367"><ele>259.0</ele><time>2026-03-29T09:07:48.586Z</time></trkpt><trkpt lat="43.1960071" lon="12.09615"><ele>260.0</ele><time>2026-03-29T09:07:49.59Z</time></trkpt><trkpt lat="43.1960631" lon="12.0957669"><ele>260.0</ele><time>2026-03-29T09:07:50.602Z</time></trkpt><trkpt lat="43.1961155" lon="12.0953905"><ele>260.0</ele><time>2026-03-29T09:07:51.586Z</time></trkpt><trkpt lat="43.1961704" lon="12.0949983"><ele>260.0</ele><time>2026-03-29T09:07:52.609Z</time></trkpt><trkpt lat="43.1962232" lon="12.0946148"><ele>260.0</ele><time>2026-03-29T09:07:53.609Z</time></trkpt><trkpt lat="43.1962753" lon="12.0942409"><ele>259.5</ele><time>2026-03-29T09:07:54.593Z</time></trkpt><trkpt lat="43.1963306" lon="12.0938603"><ele>259.0</ele><time>2026-03-29T09:07:55.587Z</time></trkpt><trkpt lat="43.1963865" lon="12.093475"><ele>259.0</ele><time>2026-03-29T09:07:56.6Z</time></trkpt><trkpt lat="43.1964421" lon="12.0931011"><ele>259.0</ele><time>2026-03-29T09:07:57.595Z</time></trkpt><trkpt lat="43.196498" lon="12.0927103"><ele>260.0</ele><time>2026-03-29T09:07:58.618Z</time></trkpt><trkpt lat="43.1965539" lon="12.0923376"><ele>261.0</ele><time>2026-03-29T09:07:59.587Z</time></trkpt><trkpt lat="43.1966096" lon="12.0919529"><ele>261.5</ele><time>2026-03-29T09:08:00.599Z</time></trkpt><trkpt lat="43.1966589" lon="12.0915859"><ele>262.0</ele><time>2026-03-29T09:08:01.587Z</time></trkpt><trkpt lat="43.1967109" lon="12.0912171"><ele>262.0</ele><time>2026-03-29T09:08:02.604Z</time></trkpt><trkpt lat="43.1967581" lon="12.0908674"><ele>262.0</ele><time>2026-03-29T09:08:03.591Z</time></trkpt><trkpt lat="43.1968069" lon="12.0905227"><ele>261.5</ele><time>2026-03-29T09:08:04.601Z</time></trkpt><trkpt lat="43.1968532" lon="12.0901909"><ele>261.0</ele><time>2026-03-29T09:08:05.594Z</time></trkpt><trkpt lat="43.1969023" lon="12.0898611"><ele>260.5</ele><time>2026-03-29T09:08:06.599Z</time></trkpt><trkpt lat="43.1969516" lon="12.0895325"><ele>260.0</ele><time>2026-03-29T09:08:07.58Z</time></trkpt><trkpt lat="43.1970039" lon="12.0891939"><ele>260.0</ele><time>2026-03-29T09:08:08.61Z</time></trkpt><trkpt lat="43.1970546" lon="12.0888784"><ele>260.0</ele><time>2026-03-29T09:08:09.574Z</time></trkpt><trkpt lat="43.1971034" lon="12.0885507"><ele>259.5</ele><time>2026-03-29T09:08:10.581Z</time></trkpt><trkpt lat="43.1971522" lon="12.0882136"><ele>259.0</ele><time>2026-03-29T09:08:11.613Z</time></trkpt><trkpt lat="43.1971952" lon="12.0878872"><ele>259.0</ele><time>2026-03-29T09:08:12.609Z</time></trkpt><trkpt lat="43.1972447" lon="12.0875665"><ele>259.0</ele><time>2026-03-29T09:08:13.589Z</time></trkpt><trkpt lat="43.1972969" lon="12.0872412"><ele>259.5</ele><time>2026-03-29T09:08:14.588Z</time></trkpt><trkpt lat="43.197349" lon="12.08692"><ele>260.0</ele><time>2026-03-29T09:08:15.588Z</time></trkpt><trkpt lat="43.1974029" lon="12.0865755"><ele>260.5</ele><time>2026-03-29T09:08:16.643Z</time></trkpt><trkpt lat="43.19745" lon="12.0862729"><ele>261.0</ele><time>2026-03-29T09:08:17.576Z</time></trkpt><trkpt lat="43.1975004" lon="12.085943"><ele>261.5</ele><time>2026-03-29T09:08:18.592Z</time></trkpt><trkpt lat="43.1975489" lon="12.0856251"><ele>262.0</ele><time>2026-03-29T09:08:19.586Z</time></trkpt><trkpt lat="43.197594" lon="12.0852964"><ele>262.0</ele><time>2026-03-29T09:08:20.61Z</time></trkpt><trkpt lat="43.1976306" lon="12.0849861"><ele>262.0</ele><time>2026-03-29T09:08:21.591Z</time></trkpt><trkpt lat="43.1976588" lon="12.084671"><ele>262.0</ele><time>2026-03-29T09:08:22.601Z</time></trkpt><trkpt lat="43.1976825" lon="12.0843656"><ele>262.0</ele><time>2026-03-29T09:08:23.592Z</time></trkpt><trkpt lat="43.1976985" lon="12.0840501"><ele>261.3333333333333</ele><time>2026-03-29T09:08:24.626Z</time></trkpt><trkpt lat="43.1977031" lon="12.0837612"><ele>260.6666666666667</ele><time>2026-03-29T09:08:25.581Z</time></trkpt><trkpt lat="43.1977049" lon="12.0834542"><ele>260.0</ele><time>2026-03-29T09:08:26.579Z</time></trkpt><trkpt lat="43.1977037" lon="12.0831422"><ele>260.0</ele><time>2026-03-29T09:08:27.588Z</time></trkpt><trkpt lat="43.1976965" lon="12.0828397"><ele>260.0</ele><time>2026-03-29T09:08:28.588Z</time></trkpt><trkpt lat="43.1976823" lon="12.0825448"><ele>260.0</ele><time>2026-03-29T09:08:29.571Z</time></trkpt><trkpt lat="43.1976635" lon="12.0822365"><ele>260.0</ele><time>2026-03-29T09:08:30.595Z</time></trkpt><trkpt lat="43.1976412" lon="12.0819533"><ele>260.0</ele><time>2026-03-29T09:08:31.599Z</time></trkpt><trkpt lat="43.1976175" lon="12.0816629"><ele>260.0</ele><time>2026-03-29T09:08:32.602Z</time></trkpt><trkpt lat="43.1975964" lon="12.0813817"><ele>260.0</ele><time>2026-03-29T09:08:33.582Z</time></trkpt><trkpt lat="43.1975785" lon="12.0810949"><ele>260.0</ele><time>2026-03-29T09:08:34.582Z</time></trkpt><trkpt lat="43.1975591" lon="12.0808096"><ele>260.0</ele><time>2026-03-29T09:08:35.579Z</time></trkpt><trkpt lat="43.1975386" lon="12.0805306"><ele>260.0</ele><time>2026-03-29T09:08:36.582Z</time></trkpt><trkpt lat="43.197522" lon="12.0802634"><ele>260.0</ele><time>2026-03-29T09:08:37.587Z</time></trkpt><trkpt lat="43.1975009" lon="12.080001"><ele>260.0</ele><time>2026-03-29T09:08:38.623Z</time></trkpt><trkpt lat="43.1974876" lon="12.0797633"><ele>260.33333333333337</ele><time>2026-03-29T09:08:39.592Z</time></trkpt><trkpt lat="43.1974751" lon="12.0795324"><ele>260.6666666666667</ele><time>2026-03-29T09:08:40.589Z</time></trkpt><trkpt lat="43.1974678" lon="12.0793068"><ele>261.0</ele><time>2026-03-29T09:08:41.572Z</time></trkpt><trkpt lat="43.1974556" lon="12.0790842"><ele>261.25</ele><time>2026-03-29T09:08:42.586Z</time></trkpt><trkpt lat="43.1974373" lon="12.0788721"><ele>261.5</ele><time>2026-03-29T09:08:43.602Z</time></trkpt><trkpt lat="43.1974184" lon="12.0786847"><ele>261.75</ele><time>2026-03-29T09:08:44.581Z</time></trkpt><trkpt lat="43.1974071" lon="12.0784918"><ele>262.0</ele><time>2026-03-29T09:08:45.587Z</time></trkpt><trkpt lat="43.1974174" lon="12.0783114"><ele>262.2</ele><time>2026-03-29T09:08:46.597Z</time></trkpt><trkpt lat="43.1974398" lon="12.078166"><ele>262.4</ele><time>2026-03-29T09:08:47.594Z</time></trkpt><trkpt lat="43.1974773" lon="12.0780222"><ele>262.6</ele><time>2026-03-29T09:08:48.608Z</time></trkpt><trkpt lat="43.1975253" lon="12.0778833"><ele>262.8</ele><time>2026-03-29T09:08:49.626Z</time></trkpt><trkpt lat="43.19758" lon="12.0777406"><ele>263.0</ele><time>2026-03-29T09:08:50.639Z</time></trkpt><trkpt lat="43.1976413" lon="12.0775851"><ele>262.75</ele><time>2026-03-29T09:08:51.629Z</time></trkpt><trkpt lat="43.19771" lon="12.0774149"><ele>262.5</ele><time>2026-03-29T09:08:52.618Z</time></trkpt><trkpt lat="43.1977731" lon="12.0772749"><ele>262.25</ele><time>2026-03-29T09:08:53.591Z</time></trkpt><trkpt lat="43.1978289" lon="12.0771501"><ele>262.0</ele><time>2026-03-29T09:08:54.599Z</time></trkpt><trkpt lat="43.1978848" lon="12.0770333"><ele>262.0</ele><time>2026-03-29T09:08:55.629Z</time></trkpt><trkpt lat="43.1979335" lon="12.0769425"><ele>262.0</ele><time>2026-03-29T09:08:56.594Z</time></trkpt><trkpt lat="43.1979863" lon="12.0768541"><ele>262.0</ele><time>2026-03-29T09:08:57.594Z</time></trkpt><trkpt lat="43.1980595" lon="12.0767836"><ele>262.0</ele><time>2026-03-29T09:08:58.589Z</time></trkpt><trkpt lat="43.1981556" lon="12.0767278"><ele>262.0</ele><time>2026-03-29T09:08:59.596Z</time></trkpt><trkpt lat="43.1982781" lon="12.0766989"><ele>262.25</ele><time>2026-03-29T09:09:00.638Z</time></trkpt><trkpt lat="43.1984091" lon="12.0766966"><ele>262.5</ele><time>2026-03-29T09:09:01.576Z</time></trkpt><trkpt lat="43.1985642" lon="12.0767068"><ele>262.75</ele><time>2026-03-29T09:09:02.609Z</time></trkpt><trkpt lat="43.1987116" lon="12.0767227"><ele>263.0</ele><time>2026-03-29T09:09:03.637Z</time></trkpt><trkpt lat="43.1988485" lon="12.0767511"><ele>263.0</ele><time>2026-03-29T09:09:04.589Z</time></trkpt><trkpt lat="43.1989875" lon="12.0767874"><ele>263.0</ele><time>2026-03-29T09:09:05.633Z</time></trkpt><trkpt lat="43.1991379" lon="12.0768136"><ele>263.0</ele><time>2026-03-29T09:09:06.635Z</time></trkpt><trkpt lat="43.1992919" lon="12.0768363"><ele>263.0</ele><time>2026-03-29T09:09:07.629Z</time></trkpt><trkpt lat="43.1994261" lon="12.0768479"><ele>263.25</ele><time>2026-03-29T09:09:08.603Z</time></trkpt><trkpt lat="43.1995813" lon="12.0768643"><ele>263.5</ele><time>2026-03-29T09:09:09.626Z</time></trkpt><trkpt lat="43.1997325" lon="12.076887"><ele>263.75</ele><time>2026-03-29T09:09:10.606Z</time></trkpt><trkpt lat="43.1998671" lon="12.0768994"><ele>264.0</ele><time>2026-03-29T09:09:11.594Z</time></trkpt><trkpt lat="43.2000032" lon="12.0769156"><ele>264.0</ele><time>2026-03-29T09:09:12.596Z</time></trkpt><trkpt lat="43.2000679" lon="12.0768883"><ele>264.0</ele><time>2026-03-29T09:09:13.622Z</time></trkpt><trkpt lat="43.2002106" lon="12.076905"><ele>264.0</ele><time>2026-03-29T09:09:14.63Z</time></trkpt><trkpt lat="43.2003324" lon="12.0769152"><ele>264.0</ele><time>2026-03-29T09:09:15.582Z</time></trkpt><trkpt lat="43.2004589" lon="12.0769247"><ele>264.0</ele><time>2026-03-29T09:09:16.606Z</time></trkpt><trkpt lat="43.2005675" lon="12.0769326"><ele>264.0</ele><time>2026-03-29T09:09:17.588Z</time></trkpt><trkpt lat="43.2006743" lon="12.0769397"><ele>264.0</ele><time>2026-03-29T09:09:18.597Z</time></trkpt><trkpt lat="43.2007828" lon="12.0769518"><ele>264.0</ele><time>2026-03-29T09:09:19.595Z</time></trkpt><trkpt lat="43.2008853" lon="12.0769582"><ele>264.0</ele><time>2026-03-29T09:09:20.627Z</time></trkpt><trkpt lat="43.2009818" lon="12.0769632"><ele>264.0</ele><time>2026-03-29T09:09:21.632Z</time></trkpt><trkpt lat="43.2010805" lon="12.0769717"><ele>264.0</ele><time>2026-03-29T09:09:22.59Z</time></trkpt><trkpt lat="43.2011962" lon="12.0769849"><ele>264.0</ele><time>2026-03-29T09:09:23.59Z</time></trkpt><trkpt lat="43.2013148" lon="12.0769992"><ele>264.0</ele><time>2026-03-29T09:09:24.627Z</time></trkpt><trkpt lat="43.2014225" lon="12.0770056"><ele>264.0</ele><time>2026-03-29T09:09:25.632Z</time></trkpt><trkpt lat="43.2015218" lon="12.0770112"><ele>264.3333333333333</ele><time>2026-03-29T09:09:26.656Z</time></trkpt><trkpt lat="43.2016016" lon="12.0770122"><ele>264.6666666666667</ele><time>2026-03-29T09:09:27.653Z</time></trkpt><trkpt lat="43.201677" lon="12.0770128"><ele>265.0</ele><time>2026-03-29T09:09:28.633Z</time></trkpt><trkpt lat="43.2017573" lon="12.0770167"><ele>265.33333333333337</ele><time>2026-03-29T09:09:29.637Z</time></trkpt><trkpt lat="43.2018548" lon="12.0769967"><ele>265.6666666666667</ele><time>2026-03-29T09:09:31.62Z</time></trkpt><trkpt lat="43.2019461" lon="12.0769952"><ele>266.0</ele><time>2026-03-29T09:09:33.606Z</time></trkpt><trkpt lat="43.2020129" lon="12.0770068"><ele>266.0</ele><time>2026-03-29T09:09:35.592Z</time></trkpt><trkpt lat="43.2021007" lon="12.0770161"><ele>266.0</ele><time>2026-03-29T09:09:38.626Z</time></trkpt><trkpt lat="43.202173" lon="12.0770108"><ele>266.0</ele><time>2026-03-29T09:09:41.584Z</time></trkpt><trkpt lat="43.2022408" lon="12.0770218"><ele>266.0</ele><time>2026-03-29T09:10:02.626Z</time></trkpt><trkpt lat="43.2023732" lon="12.0770011"><ele>266.0</ele><time>2026-03-29T09:10:05.647Z</time></trkpt><trkpt lat="43.2024373" lon="12.0769931"><ele>266.0</ele><time>2026-03-29T09:10:06.601Z</time></trkpt><trkpt lat="43.2025103" lon="12.0769949"><ele>266.2</ele><time>2026-03-29T09:10:07.609Z</time></trkpt><trkpt lat="43.2025889" lon="12.0769967"><ele>266.40000000000003</ele><time>2026-03-29T09:10:08.584Z</time></trkpt><trkpt lat="43.2026673" lon="12.0769918"><ele>266.6</ele><time>2026-03-29T09:10:09.585Z</time></trkpt><trkpt lat="43.2027695" lon="12.076992"><ele>266.8</ele><time>2026-03-29T09:10:10.601Z</time></trkpt><trkpt lat="43.2028729" lon="12.0769902"><ele>267.0</ele><time>2026-03-29T09:10:11.633Z</time></trkpt><trkpt lat="43.2029619" lon="12.0769967"><ele>267.0</ele><time>2026-03-29T09:10:12.644Z</time></trkpt><trkpt lat="43.2030437" lon="12.0769962"><ele>267.0</ele><time>2026-03-29T09:10:13.63Z</time></trkpt><trkpt lat="43.2031398" lon="12.0770068"><ele>267.0</ele><time>2026-03-29T09:10:14.623Z</time></trkpt><trkpt lat="43.2032401" lon="12.0770165"><ele>267.0</ele><time>2026-03-29T09:10:15.625Z</time></trkpt><trkpt lat="43.2033602" lon="12.0770272"><ele>267.0</ele><time>2026-03-29T09:10:16.623Z</time></trkpt><trkpt lat="43.2034861" lon="12.0770383"><ele>267.0</ele><time>2026-03-29T09:10:17.632Z</time></trkpt><trkpt lat="43.2036151" lon="12.0770529"><ele>267.0</ele><time>2026-03-29T09:10:18.598Z</time></trkpt><trkpt lat="43.2037433" lon="12.0770731"><ele>267.0</ele><time>2026-03-29T09:10:19.594Z</time></trkpt><trkpt lat="43.2038752" lon="12.0770798"><ele>267.0</ele><time>2026-03-29T09:10:20.63Z</time></trkpt><trkpt lat="43.2040094" lon="12.0770872"><ele>267.0</ele><time>2026-03-29T09:10:21.635Z</time></trkpt><trkpt lat="43.2041425" lon="12.0770936"><ele>267.0</ele><time>2026-03-29T09:10:22.625Z</time></trkpt><trkpt lat="43.2042796" lon="12.0770989"><ele>267.0</ele><time>2026-03-29T09:10:23.659Z</time></trkpt><trkpt lat="43.2044223" lon="12.077117"><ele>267.0</ele><time>2026-03-29T09:10:24.641Z</time></trkpt><trkpt lat="43.2045827" lon="12.0771388"><ele>267.0</ele><time>2026-03-29T09:10:25.62Z</time></trkpt><trkpt lat="43.2047409" lon="12.077164"><ele>267.0</ele><time>2026-03-29T09:10:26.622Z</time></trkpt><trkpt lat="43.2049006" lon="12.0771905"><ele>267.0</ele><time>2026-03-29T09:10:27.626Z</time></trkpt><trkpt lat="43.2050644" lon="12.0772207"><ele>268.0</ele><time>2026-03-29T09:10:28.635Z</time></trkpt><trkpt lat="43.2052213" lon="12.0772461"><ele>269.0</ele><time>2026-03-29T09:10:29.587Z</time></trkpt><trkpt lat="43.2053824" lon="12.0772711"><ele>270.0</ele><time>2026-03-29T09:10:30.668Z</time></trkpt><trkpt lat="43.2055149" lon="12.0772938"><ele>270.0</ele><time>2026-03-29T09:10:31.633Z</time></trkpt><trkpt lat="43.2056368" lon="12.07731"><ele>270.0</ele><time>2026-03-29T09:10:32.584Z</time></trkpt><trkpt lat="43.205759" lon="12.0773267"><ele>270.0</ele><time>2026-03-29T09:10:33.591Z</time></trkpt><trkpt lat="43.2058901" lon="12.0773449"><ele>270.0</ele><time>2026-03-29T09:10:34.634Z</time></trkpt><trkpt lat="43.2060141" lon="12.0773625"><ele>270.25</ele><time>2026-03-29T09:10:35.638Z</time></trkpt><trkpt lat="43.2061424" lon="12.0773827"><ele>270.5</ele><time>2026-03-29T09:10:36.633Z</time></trkpt><trkpt lat="43.2062695" lon="12.0773962"><ele>270.75</ele><time>2026-03-29T09:10:37.585Z</time></trkpt><trkpt lat="43.2064191" lon="12.0774196"><ele>271.0</ele><time>2026-03-29T09:10:38.591Z</time></trkpt><trkpt lat="43.2065526" lon="12.0774247"><ele>271.25</ele><time>2026-03-29T09:10:39.598Z</time></trkpt><trkpt lat="43.2066905" lon="12.0774094"><ele>271.5</ele><time>2026-03-29T09:10:40.607Z</time></trkpt><trkpt lat="43.2068108" lon="12.0773598"><ele>271.75</ele><time>2026-03-29T09:10:41.606Z</time></trkpt><trkpt lat="43.206921" lon="12.0772631"><ele>272.0</ele><time>2026-03-29T09:10:42.588Z</time></trkpt><trkpt lat="43.2070211" lon="12.0771334"><ele>272.0</ele><time>2026-03-29T09:10:43.592Z</time></trkpt><trkpt lat="43.2070842" lon="12.0770007"><ele>272.0</ele><time>2026-03-29T09:10:44.585Z</time></trkpt><trkpt lat="43.2071313" lon="12.0768211"><ele>272.0</ele><time>2026-03-29T09:10:45.646Z</time></trkpt><trkpt lat="43.2071678" lon="12.0766352"><ele>272.0</ele><time>2026-03-29T09:10:46.628Z</time></trkpt><trkpt lat="43.2071979" lon="12.0764267"><ele>274.5</ele><time>2026-03-29T09:10:47.664Z</time></trkpt><trkpt lat="43.207465" lon="12.0765613"><ele>277.0</ele><time>2026-03-29T09:10:48.633Z</time></trkpt><trkpt lat="43.2074608" lon="12.0763121"><ele>277.0</ele><time>2026-03-29T09:10:49.64Z</time></trkpt><trkpt lat="43.2074917" lon="12.0761144"><ele>277.0</ele><time>2026-03-29T09:10:50.615Z</time></trkpt><trkpt lat="43.2075063" lon="12.075898"><ele>277.0</ele><time>2026-03-29T09:10:51.639Z</time></trkpt><trkpt lat="43.2075292" lon="12.075735"><ele>277.0</ele><time>2026-03-29T09:10:52.587Z</time></trkpt><trkpt lat="43.2075816" lon="12.0755736"><ele>277.0</ele><time>2026-03-29T09:10:53.662Z</time></trkpt><trkpt lat="43.2075494" lon="12.0753308"><ele>277.0</ele><time>2026-03-29T09:10:54.643Z</time></trkpt><trkpt lat="43.2074483" lon="12.0750689"><ele>277.0</ele><time>2026-03-29T09:10:55.962Z</time></trkpt><trkpt lat="43.2074755" lon="12.0745542"><ele>278.0</ele><time>2026-03-29T09:10:57.644Z</time></trkpt><trkpt lat="43.2074513" lon="12.0741268"><ele>279.0</ele><time>2026-03-29T09:10:58.655Z</time></trkpt><trkpt lat="43.2074165" lon="12.0737911"><ele>281.5</ele><time>2026-03-29T09:10:59.652Z</time></trkpt><trkpt lat="43.2073651" lon="12.0734475"><ele>284.0</ele><time>2026-03-29T09:11:00.631Z</time></trkpt><trkpt lat="43.2073401" lon="12.0731657"><ele>283.0</ele><time>2026-03-29T09:11:01.665Z</time></trkpt><trkpt lat="43.2073171" lon="12.0728706"><ele>282.0</ele><time>2026-03-29T09:11:02.625Z</time></trkpt><trkpt lat="43.2073035" lon="12.0726221"><ele>281.0</ele><time>2026-03-29T09:11:03.584Z</time></trkpt><trkpt lat="43.2073134" lon="12.0724269"><ele>284.0</ele><time>2026-03-29T09:11:04.637Z</time></trkpt><trkpt lat="43.2073542" lon="12.0723529"><ele>287.0</ele><time>2026-03-29T09:11:05.628Z</time></trkpt><trkpt lat="43.2073761" lon="12.0722311"><ele>290.0</ele><time>2026-03-29T09:11:06.681Z</time></trkpt><trkpt lat="43.2073949" lon="12.0721354"><ele>293.0</ele><time>2026-03-29T09:11:07.637Z</time></trkpt><trkpt lat="43.2074173" lon="12.0719987"><ele>296.0</ele><time>2026-03-29T09:11:08.585Z</time></trkpt><trkpt lat="43.2074339" lon="12.0718323"><ele>296.0</ele><time>2026-03-29T09:11:09.618Z</time></trkpt><trkpt lat="43.207443" lon="12.0716658"><ele>296.0</ele><time>2026-03-29T09:11:10.626Z</time></trkpt><trkpt lat="43.2074476" lon="12.0715032"><ele>296.0</ele><time>2026-03-29T09:11:11.601Z</time></trkpt><trkpt lat="43.2075427" lon="12.0714398"><ele>296.0</ele><time>2026-03-29T09:11:15.591Z</time></trkpt><trkpt lat="43.2077185" lon="12.0707989"><ele>294.40000000000003</ele><time>2026-03-29T09:11:16.587Z</time></trkpt><trkpt lat="43.2077952" lon="12.0707162"><ele>292.8</ele><time>2026-03-29T09:11:17.586Z</time></trkpt><trkpt lat="43.2078688" lon="12.0706361"><ele>291.20000000000005</ele><time>2026-03-29T09:11:18.587Z</time></trkpt><trkpt lat="43.2079455" lon="12.0705492"><ele>289.6</ele><time>2026-03-29T09:11:19.59Z</time></trkpt><trkpt lat="43.2080335" lon="12.0704742"><ele>288.0</ele><time>2026-03-29T09:11:20.623Z</time></trkpt><trkpt lat="43.2081169" lon="12.0704011"><ele>288.8</ele><time>2026-03-29T09:11:21.583Z</time></trkpt><trkpt lat="43.2082121" lon="12.0703362"><ele>289.6</ele><time>2026-03-29T09:11:22.663Z</time></trkpt><trkpt lat="43.2083071" lon="12.0703213"><ele>290.4</ele><time>2026-03-29T09:11:23.627Z</time></trkpt><trkpt lat="43.2084006" lon="12.0702974"><ele>291.2</ele><time>2026-03-29T09:11:24.597Z</time></trkpt><trkpt lat="43.2085037" lon="12.0702923"><ele>292.0</ele><time>2026-03-29T09:11:25.587Z</time></trkpt><trkpt lat="43.2086075" lon="12.0702907"><ele>292.0</ele><time>2026-03-29T09:11:26.594Z</time></trkpt><trkpt lat="43.2087013" lon="12.0703066"><ele>292.0</ele><time>2026-03-29T09:11:27.589Z</time></trkpt><trkpt lat="43.2087979" lon="12.0704236"><ele>292.0</ele><time>2026-03-29T09:11:30.595Z</time></trkpt><trkpt lat="43.2089548" lon="12.0708137"><ele>296.3333333333333</ele><time>2026-03-29T09:11:31.637Z</time></trkpt><trkpt lat="43.2090348" lon="12.071053"><ele>300.6666666666667</ele><time>2026-03-29T09:11:32.595Z</time></trkpt><trkpt lat="43.2091327" lon="12.0712873"><ele>305.0</ele><time>2026-03-29T09:11:33.634Z</time></trkpt><trkpt lat="43.2091982" lon="12.0715212"><ele>305.0</ele><time>2026-03-29T09:11:34.589Z</time></trkpt><trkpt lat="43.2091338" lon="12.0709329"><ele>305.0</ele><time>2026-03-29T09:11:35.588Z</time></trkpt><trkpt lat="43.2091339" lon="12.0710638"><ele>305.0</ele><time>2026-03-29T09:11:37.589Z</time></trkpt><trkpt lat="43.2091597" lon="12.071212"><ele>305.0</ele><time>2026-03-29T09:11:39.591Z</time></trkpt><trkpt lat="43.2091922" lon="12.071286"><ele>305.0</ele><time>2026-03-29T09:11:40.631Z</time></trkpt><trkpt lat="43.2092391" lon="12.0713521"><ele>305.0</ele><time>2026-03-29T09:11:41.59Z</time></trkpt><trkpt lat="43.2092922" lon="12.0713991"><ele>305.0</ele><time>2026-03-29T09:11:42.635Z</time></trkpt><trkpt lat="43.209352" lon="12.0714489"><ele>305.0</ele><time>2026-03-29T09:11:43.644Z</time></trkpt><trkpt lat="43.2093986" lon="12.0715164"><ele>305.0</ele><time>2026-03-29T09:11:44.651Z</time></trkpt><trkpt lat="43.2094445" lon="12.0716234"><ele>306.75</ele><time>2026-03-29T09:11:46.949Z</time></trkpt><trkpt lat="43.2094632" lon="12.071837"><ele>308.5</ele><time>2026-03-29T09:11:48.646Z</time></trkpt><trkpt lat="43.2095189" lon="12.0719237"><ele>310.25</ele><time>2026-03-29T09:11:49.65Z</time></trkpt><trkpt lat="43.209652" lon="12.0719336"><ele>312.0</ele><time>2026-03-29T09:11:51.644Z</time></trkpt><trkpt lat="43.2097308" lon="12.0719441"><ele>312.2</ele><time>2026-03-29T09:11:52.683Z</time></trkpt><trkpt lat="43.2098763" lon="12.0719643"><ele>312.4</ele><time>2026-03-29T09:11:54.658Z</time></trkpt><trkpt lat="43.2099524" lon="12.0719684"><ele>312.6</ele><time>2026-03-29T09:11:55.663Z</time></trkpt><trkpt lat="43.2100167" lon="12.0719585"><ele>312.8</ele><time>2026-03-29T09:11:56.658Z</time></trkpt><trkpt lat="43.2101186" lon="12.0719626"><ele>313.0</ele><time>2026-03-29T09:11:57.653Z</time></trkpt><trkpt lat="43.2102371" lon="12.0719546"><ele>313.0</ele><time>2026-03-29T09:11:58.643Z</time></trkpt><trkpt lat="43.2103808" lon="12.0719594"><ele>313.0</ele><time>2026-03-29T09:11:59.656Z</time></trkpt><trkpt lat="43.2105355" lon="12.0719638"><ele>313.0</ele><time>2026-03-29T09:12:00.654Z</time></trkpt><trkpt lat="43.2106655" lon="12.0719584"><ele>313.0</ele><time>2026-03-29T09:12:01.637Z</time></trkpt><trkpt lat="43.2107925" lon="12.0719477"><ele>314.2</ele><time>2026-03-29T09:12:02.677Z</time></trkpt><trkpt lat="43.2108963" lon="12.071964"><ele>315.4</ele><time>2026-03-29T09:12:03.649Z</time></trkpt><trkpt lat="43.2110039" lon="12.0720115"><ele>316.59999999999997</ele><time>2026-03-29T09:12:04.653Z</time></trkpt><trkpt lat="43.211075" lon="12.0720942"><ele>317.8</ele><time>2026-03-29T09:12:05.65Z</time></trkpt><trkpt lat="43.2111328" lon="12.0722019"><ele>319.0</ele><time>2026-03-29T09:12:06.644Z</time></trkpt><trkpt lat="43.2111765" lon="12.0723107"><ele>318.0</ele><time>2026-03-29T09:12:07.653Z</time></trkpt><trkpt lat="43.2112671" lon="12.072474"><ele>317.0</ele><time>2026-03-29T09:12:08.66Z</time></trkpt><trkpt lat="43.2113639" lon="12.0726341"><ele>316.0</ele><time>2026-03-29T09:12:09.644Z</time></trkpt><trkpt lat="43.2114613" lon="12.0728182"><ele>318.3333333333333</ele><time>2026-03-29T09:12:10.659Z</time></trkpt><trkpt lat="43.2115818" lon="12.0730019"><ele>320.6666666666667</ele><time>2026-03-29T09:12:11.649Z</time></trkpt><trkpt lat="43.2117076" lon="12.0731845"><ele>323.0</ele><time>2026-03-29T09:12:12.658Z</time></trkpt><trkpt lat="43.2118329" lon="12.0733434"><ele>323.0</ele><time>2026-03-29T09:12:13.662Z</time></trkpt><trkpt lat="43.2119951" lon="12.0735024"><ele>323.0</ele><time>2026-03-29T09:12:14.643Z</time></trkpt><trkpt lat="43.2122019" lon="12.0736632"><ele>323.0</ele><time>2026-03-29T09:12:15.632Z</time></trkpt><trkpt lat="43.2122284" lon="12.0738217"><ele>328.6666666666667</ele><time>2026-03-29T09:12:16.646Z</time></trkpt><trkpt lat="43.2123599" lon="12.0739113"><ele>334.3333333333333</ele><time>2026-03-29T09:12:17.647Z</time></trkpt><trkpt lat="43.2125084" lon="12.0739786"><ele>340.0</ele><time>2026-03-29T09:12:18.647Z</time></trkpt><trkpt lat="43.2126664" lon="12.0740222"><ele>340.0</ele><time>2026-03-29T09:12:19.645Z</time></trkpt><trkpt lat="43.2128292" lon="12.0740469"><ele>340.0</ele><time>2026-03-29T09:12:20.649Z</time></trkpt><trkpt lat="43.2130079" lon="12.0740526"><ele>340.0</ele><time>2026-03-29T09:12:21.665Z</time></trkpt><trkpt lat="43.2131922" lon="12.0740144"><ele>343.66666666666663</ele><time>2026-03-29T09:12:22.647Z</time></trkpt><trkpt lat="43.2133876" lon="12.0739643"><ele>347.3333333333333</ele><time>2026-03-29T09:12:23.658Z</time></trkpt><trkpt lat="43.2135831" lon="12.0739313"><ele>351.0</ele><time>2026-03-29T09:12:24.654Z</time></trkpt><trkpt lat="43.2137799" lon="12.0738967"><ele>352.6666666666667</ele><time>2026-03-29T09:12:25.648Z</time></trkpt><trkpt lat="43.213992" lon="12.0738667"><ele>354.33333333333337</ele><time>2026-03-29T09:12:26.708Z</time></trkpt><trkpt lat="43.2141826" lon="12.0738386"><ele>356.0</ele><time>2026-03-29T09:12:27.648Z</time></trkpt><trkpt lat="43.2143985" lon="12.0738109"><ele>356.0</ele><time>2026-03-29T09:12:28.655Z</time></trkpt><trkpt lat="43.2146142" lon="12.0737808"><ele>356.0</ele><time>2026-03-29T09:12:29.656Z</time></trkpt><trkpt lat="43.2148202" lon="12.0737496"><ele>356.0</ele><time>2026-03-29T09:12:30.645Z</time></trkpt><trkpt lat="43.2150259" lon="12.0737118"><ele>356.33333333333337</ele><time>2026-03-29T09:12:31.648Z</time></trkpt><trkpt lat="43.2152117" lon="12.07367"><ele>356.6666666666667</ele><time>2026-03-29T09:12:32.647Z</time></trkpt><trkpt lat="43.2153874" lon="12.0736094"><ele>357.0</ele><time>2026-03-29T09:12:33.651Z</time></trkpt><trkpt lat="43.2155727" lon="12.073543"><ele>357.0</ele><time>2026-03-29T09:12:34.67Z</time></trkpt><trkpt lat="43.2157524" lon="12.0734625"><ele>357.0</ele><time>2026-03-29T09:12:35.643Z</time></trkpt><trkpt lat="43.2159313" lon="12.0733728"><ele>357.0</ele><time>2026-03-29T09:12:36.637Z</time></trkpt><trkpt lat="43.2160904" lon="12.0732805"><ele>358.0</ele><time>2026-03-29T09:12:37.635Z</time></trkpt><trkpt lat="43.2162271" lon="12.0732252"><ele>359.0</ele><time>2026-03-29T09:12:38.649Z</time></trkpt><trkpt lat="43.2163045" lon="12.0732061"><ele>360.0</ele><time>2026-03-29T09:12:39.64Z</time></trkpt><trkpt lat="43.2164671" lon="12.073233"><ele>361.0</ele><time>2026-03-29T09:12:41.639Z</time></trkpt><trkpt lat="43.2172981" lon="12.073501"><ele>366.66666666666663</ele><time>2026-03-29T09:12:43.64Z</time></trkpt><trkpt lat="43.217469" lon="12.073589"><ele>372.3333333333333</ele><time>2026-03-29T09:12:44.645Z</time></trkpt><trkpt lat="43.2176225" lon="12.0736925"><ele>378.0</ele><time>2026-03-29T09:12:45.639Z</time></trkpt><trkpt lat="43.2177402" lon="12.0738758"><ele>378.0</ele><time>2026-03-29T09:12:46.648Z</time></trkpt><trkpt lat="43.2178656" lon="12.0740679"><ele>378.0</ele><time>2026-03-29T09:12:47.656Z</time></trkpt><trkpt lat="43.2179902" lon="12.0742499"><ele>378.0</ele><time>2026-03-29T09:12:48.652Z</time></trkpt><trkpt lat="43.2181572" lon="12.0744573"><ele>382.5</ele><time>2026-03-29T09:12:49.652Z</time></trkpt><trkpt lat="43.2183576" lon="12.0746416"><ele>387.0</ele><time>2026-03-29T09:12:50.649Z</time></trkpt><trkpt lat="43.2185461" lon="12.0748242"><ele>381.5</ele><time>2026-03-29T09:12:51.66Z</time></trkpt><trkpt lat="43.2187425" lon="12.0750007"><ele>376.0</ele><time>2026-03-29T09:12:52.649Z</time></trkpt><trkpt lat="43.2189429" lon="12.0751769"><ele>383.0</ele><time>2026-03-29T09:12:53.672Z</time></trkpt><trkpt lat="43.2191258" lon="12.0753393"><ele>390.0</ele><time>2026-03-29T09:12:54.671Z</time></trkpt><trkpt lat="43.2192901" lon="12.0754882"><ele>397.0</ele><time>2026-03-29T09:12:55.662Z</time></trkpt><trkpt lat="43.2194386" lon="12.0756241"><ele>397.0</ele><time>2026-03-29T09:12:56.649Z</time></trkpt><trkpt lat="43.2195847" lon="12.0757517"><ele>397.0</ele><time>2026-03-29T09:12:57.651Z</time></trkpt><trkpt lat="43.2197148" lon="12.075883"><ele>397.0</ele><time>2026-03-29T09:12:58.652Z</time></trkpt><trkpt lat="43.2198116" lon="12.0759994"><ele>396.5</ele><time>2026-03-29T09:12:59.645Z</time></trkpt><trkpt lat="43.2198747" lon="12.0761439"><ele>396.0</ele><time>2026-03-29T09:13:00.674Z</time></trkpt><trkpt lat="43.2198964" lon="12.076312"><ele>395.5</ele><time>2026-03-29T09:13:01.648Z</time></trkpt><trkpt lat="43.2198972" lon="12.0764808"><ele>395.0</ele><time>2026-03-29T09:13:02.668Z</time></trkpt><trkpt lat="43.2199065" lon="12.0766215"><ele>395.0</ele><time>2026-03-29T09:13:03.633Z</time></trkpt><trkpt lat="43.2199657" lon="12.0767211"><ele>395.0</ele><time>2026-03-29T09:13:04.656Z</time></trkpt><trkpt lat="43.2200369" lon="12.0767921"><ele>395.0</ele><time>2026-03-29T09:13:05.659Z</time></trkpt><trkpt lat="43.2201405" lon="12.0768273"><ele>395.0</ele><time>2026-03-29T09:13:06.649Z</time></trkpt><trkpt lat="43.2202734" lon="12.0768343"><ele>395.0</ele><time>2026-03-29T09:13:07.677Z</time></trkpt><trkpt lat="43.2204171" lon="12.0768283"><ele>395.0</ele><time>2026-03-29T09:13:08.65Z</time></trkpt><trkpt lat="43.2205809" lon="12.0768295"><ele>395.0</ele><time>2026-03-29T09:13:09.659Z</time></trkpt><trkpt lat="43.2207461" lon="12.0768373"><ele>395.0</ele><time>2026-03-29T09:13:10.641Z</time></trkpt><trkpt lat="43.2209223" lon="12.0768752"><ele>399.25</ele><time>2026-03-29T09:13:11.668Z</time></trkpt><trkpt lat="43.2210667" lon="12.076921"><ele>403.5</ele><time>2026-03-29T09:13:12.634Z</time></trkpt><trkpt lat="43.2212091" lon="12.0769933"><ele>407.75</ele><time>2026-03-29T09:13:13.647Z</time></trkpt><trkpt lat="43.2213281" lon="12.0770892"><ele>412.0</ele><time>2026-03-29T09:13:14.646Z</time></trkpt><trkpt lat="43.2214171" lon="12.077214"><ele>412.0</ele><time>2026-03-29T09:13:15.643Z</time></trkpt><trkpt lat="43.2214719" lon="12.0773862"><ele>412.0</ele><time>2026-03-29T09:13:16.643Z</time></trkpt><trkpt lat="43.2214981" lon="12.0775867"><ele>412.0</ele><time>2026-03-29T09:13:17.652Z</time></trkpt><trkpt lat="43.221507" lon="12.0777719"><ele>412.0</ele><time>2026-03-29T09:13:18.639Z</time></trkpt><trkpt lat="43.2214873" lon="12.0779023"><ele>410.0</ele><time>2026-03-29T09:13:19.665Z</time></trkpt><trkpt lat="43.221441" lon="12.0780071"><ele>408.0</ele><time>2026-03-29T09:13:20.666Z</time></trkpt><trkpt lat="43.2213588" lon="12.078074"><ele>406.0</ele><time>2026-03-29T09:13:21.649Z</time></trkpt><trkpt lat="43.2212625" lon="12.0781041"><ele>404.0</ele><time>2026-03-29T09:13:22.673Z</time></trkpt><trkpt lat="43.2211733" lon="12.0781541"><ele>402.0</ele><time>2026-03-29T09:13:23.645Z</time></trkpt><trkpt lat="43.2211102" lon="12.078229"><ele>404.0</ele><time>2026-03-29T09:13:24.642Z</time></trkpt><trkpt lat="43.2210701" lon="12.078336"><ele>406.0</ele><time>2026-03-29T09:13:25.642Z</time></trkpt><trkpt lat="43.2210641" lon="12.0784691"><ele>408.0</ele><time>2026-03-29T09:13:26.643Z</time></trkpt><trkpt lat="43.221083" lon="12.0786243"><ele>410.0</ele><time>2026-03-29T09:13:27.674Z</time></trkpt><trkpt lat="43.2210784" lon="12.0787725"><ele>412.0</ele><time>2026-03-29T09:13:28.65Z</time></trkpt><trkpt lat="43.2210582" lon="12.078925"><ele>412.0</ele><time>2026-03-29T09:13:29.658Z</time></trkpt><trkpt lat="43.22097" lon="12.0790655"><ele>412.0</ele><time>2026-03-29T09:13:30.661Z</time></trkpt><trkpt lat="43.2208671" lon="12.0792195"><ele>412.0</ele><time>2026-03-29T09:13:31.654Z</time></trkpt><trkpt lat="43.2207604" lon="12.0794024"><ele>411.0</ele><time>2026-03-29T09:13:32.641Z</time></trkpt><trkpt lat="43.2206454" lon="12.0795855"><ele>410.0</ele><time>2026-03-29T09:13:33.663Z</time></trkpt><trkpt lat="43.2205174" lon="12.079743"><ele>409.0</ele><time>2026-03-29T09:13:34.668Z</time></trkpt><trkpt lat="43.2204005" lon="12.0798747"><ele>413.0</ele><time>2026-03-29T09:13:35.661Z</time></trkpt><trkpt lat="43.220282" lon="12.0799882"><ele>417.0</ele><time>2026-03-29T09:13:36.68Z</time></trkpt><trkpt lat="43.2201822" lon="12.0800931"><ele>421.0</ele><time>2026-03-29T09:13:37.65Z</time></trkpt><trkpt lat="43.2201045" lon="12.0802104"><ele>425.0</ele><time>2026-03-29T09:13:38.651Z</time></trkpt><trkpt lat="43.2200562" lon="12.0803504"><ele>425.0</ele><time>2026-03-29T09:13:39.662Z</time></trkpt><trkpt lat="43.2200401" lon="12.0805003"><ele>425.0</ele><time>2026-03-29T09:13:40.638Z</time></trkpt><trkpt lat="43.2200563" lon="12.0806588"><ele>425.0</ele><time>2026-03-29T09:13:41.656Z</time></trkpt><trkpt lat="43.2201016" lon="12.0807858"><ele>425.0</ele><time>2026-03-29T09:13:42.66Z</time></trkpt><trkpt lat="43.2201604" lon="12.0809555"><ele>427.25</ele><time>2026-03-29T09:13:43.663Z</time></trkpt><trkpt lat="43.2201931" lon="12.0811407"><ele>429.5</ele><time>2026-03-29T09:13:44.634Z</time></trkpt><trkpt lat="43.2202113" lon="12.0813183"><ele>431.75</ele><time>2026-03-29T09:13:45.651Z</time></trkpt><trkpt lat="43.2201919" lon="12.0814983"><ele>434.0</ele><time>2026-03-29T09:13:46.657Z</time></trkpt><trkpt lat="43.2201333" lon="12.0816251"><ele>432.75</ele><time>2026-03-29T09:13:47.646Z</time></trkpt><trkpt lat="43.2200329" lon="12.081762"><ele>431.5</ele><time>2026-03-29T09:13:48.695Z</time></trkpt><trkpt lat="43.2199121" lon="12.0818876"><ele>430.25</ele><time>2026-03-29T09:13:49.655Z</time></trkpt><trkpt lat="43.2198011" lon="12.082001"><ele>429.0</ele><time>2026-03-29T09:13:50.643Z</time></trkpt><trkpt lat="43.2196972" lon="12.0821071"><ele>429.0</ele><time>2026-03-29T09:13:51.644Z</time></trkpt><trkpt lat="43.2196031" lon="12.0822085"><ele>429.0</ele><time>2026-03-29T09:13:52.649Z</time></trkpt><trkpt lat="43.219536" lon="12.0823309"><ele>429.0</ele><time>2026-03-29T09:13:53.651Z</time></trkpt><trkpt lat="43.2195099" lon="12.0824611"><ele>429.0</ele><time>2026-03-29T09:13:54.665Z</time></trkpt><trkpt lat="43.2195182" lon="12.0826029"><ele>429.0</ele><time>2026-03-29T09:13:55.663Z</time></trkpt><trkpt lat="43.2195555" lon="12.082767"><ele>432.0</ele><time>2026-03-29T09:13:56.649Z</time></trkpt><trkpt lat="43.2196223" lon="12.0829568"><ele>435.0</ele><time>2026-03-29T09:13:57.659Z</time></trkpt><trkpt lat="43.2196995" lon="12.0831754"><ele>438.0</ele><time>2026-03-29T09:13:58.666Z</time></trkpt><trkpt lat="43.2197777" lon="12.0833669"><ele>443.33333333333337</ele><time>2026-03-29T09:13:59.67Z</time></trkpt><trkpt lat="43.219881" lon="12.0836097"><ele>448.6666666666667</ele><time>2026-03-29T09:14:00.674Z</time></trkpt><trkpt lat="43.2199851" lon="12.0838764"><ele>454.0</ele><time>2026-03-29T09:14:01.678Z</time></trkpt><trkpt lat="43.2200994" lon="12.0841284"><ele>454.0</ele><time>2026-03-29T09:14:02.649Z</time></trkpt><trkpt lat="43.2202305" lon="12.0843713"><ele>454.0</ele><time>2026-03-29T09:14:03.655Z</time></trkpt><trkpt lat="43.2203776" lon="12.08461"><ele>454.0</ele><time>2026-03-29T09:14:04.695Z</time></trkpt><trkpt lat="43.2205158" lon="12.0848067"><ele>457.6666666666667</ele><time>2026-03-29T09:14:05.663Z</time></trkpt><trkpt lat="43.2206619" lon="12.084975"><ele>461.33333333333337</ele><time>2026-03-29T09:14:06.649Z</time></trkpt><trkpt lat="43.2208025" lon="12.085146"><ele>465.0</ele><time>2026-03-29T09:14:07.647Z</time></trkpt><trkpt lat="43.2209443" lon="12.0852953"><ele>465.0</ele><time>2026-03-29T09:14:08.649Z</time></trkpt><trkpt lat="43.2210916" lon="12.0854261"><ele>465.0</ele><time>2026-03-29T09:14:09.652Z</time></trkpt><trkpt lat="43.2212644" lon="12.085513"><ele>465.0</ele><time>2026-03-29T09:14:10.651Z</time></trkpt><trkpt lat="43.2214419" lon="12.0856151"><ele>464.66666666666663</ele><time>2026-03-29T09:14:11.657Z</time></trkpt><trkpt lat="43.2216329" lon="12.085705"><ele>464.3333333333333</ele><time>2026-03-29T09:14:12.65Z</time></trkpt><trkpt lat="43.221792" lon="12.0858613"><ele>464.0</ele><time>2026-03-29T09:14:13.652Z</time></trkpt><trkpt lat="43.2219997" lon="12.0860331"><ele>464.0</ele><time>2026-03-29T09:14:14.661Z</time></trkpt><trkpt lat="43.222178" lon="12.0861624"><ele>464.0</ele><time>2026-03-29T09:14:15.65Z</time></trkpt><trkpt lat="43.2222213" lon="12.0862474"><ele>464.0</ele><time>2026-03-29T09:14:17.65Z</time></trkpt><trkpt lat="43.2222461" lon="12.0863926"><ele>464.0</ele><time>2026-03-29T09:14:19.644Z</time></trkpt><trkpt lat="43.2230555" lon="12.0865073"><ele>472.66666666666663</ele><time>2026-03-29T09:14:20.591Z</time></trkpt><trkpt lat="43.2231743" lon="12.0866209"><ele>481.33333333333337</ele><time>2026-03-29T09:14:21.586Z</time></trkpt><trkpt lat="43.2232688" lon="12.0867818"><ele>490.0</ele><time>2026-03-29T09:14:22.592Z</time></trkpt><trkpt lat="43.2233601" lon="12.0869887"><ele>490.0</ele><time>2026-03-29T09:14:23.626Z</time></trkpt><trkpt lat="43.2234529" lon="12.0872323"><ele>490.0</ele><time>2026-03-29T09:14:24.625Z</time></trkpt><trkpt lat="43.2235526" lon="12.0874846"><ele>490.0</ele><time>2026-03-29T09:14:25.626Z</time></trkpt><trkpt lat="43.2236798" lon="12.0877301"><ele>491.33333333333337</ele><time>2026-03-29T09:14:26.635Z</time></trkpt><trkpt lat="43.2238296" lon="12.08796"><ele>492.66666666666663</ele><time>2026-03-29T09:14:27.626Z</time></trkpt><trkpt lat="43.2239892" lon="12.0881394"><ele>494.0</ele><time>2026-03-29T09:14:28.613Z</time></trkpt><trkpt lat="43.2241266" lon="12.088332"><ele>494.0</ele><time>2026-03-29T09:14:29.634Z</time></trkpt><trkpt lat="43.2242467" lon="12.0885146"><ele>494.0</ele><time>2026-03-29T09:14:30.606Z</time></trkpt><trkpt lat="43.2243444" lon="12.088668"><ele>494.0</ele><time>2026-03-29T09:14:31.603Z</time></trkpt><trkpt lat="43.2244196" lon="12.0888208"><ele>494.0</ele><time>2026-03-29T09:14:32.601Z</time></trkpt><trkpt lat="43.2244435" lon="12.0889981"><ele>494.0</ele><time>2026-03-29T09:14:33.637Z</time></trkpt><trkpt lat="43.2244042" lon="12.089126"><ele>494.0</ele><time>2026-03-29T09:14:34.591Z</time></trkpt><trkpt lat="43.2243379" lon="12.0892546"><ele>494.0</ele><time>2026-03-29T09:14:35.597Z</time></trkpt><trkpt lat="43.2242361" lon="12.0893863"><ele>494.5</ele><time>2026-03-29T09:14:36.585Z</time></trkpt><trkpt lat="43.2241122" lon="12.0894756"><ele>495.0</ele><time>2026-03-29T09:14:37.615Z</time></trkpt><trkpt lat="43.2240055" lon="12.0895591"><ele>495.5</ele><time>2026-03-29T09:14:38.624Z</time></trkpt><trkpt lat="43.2239176" lon="12.0896696"><ele>496.0</ele><time>2026-03-29T09:14:39.587Z</time></trkpt><trkpt lat="43.2238673" lon="12.0897953"><ele>494.8</ele><time>2026-03-29T09:14:40.593Z</time></trkpt><trkpt lat="43.2238567" lon="12.0899247"><ele>493.6</ele><time>2026-03-29T09:14:41.601Z</time></trkpt><trkpt lat="43.223864" lon="12.0900351"><ele>492.4</ele><time>2026-03-29T09:14:42.629Z</time></trkpt><trkpt lat="43.2239021" lon="12.0901237"><ele>491.2</ele><time>2026-03-29T09:14:43.636Z</time></trkpt><trkpt lat="43.2240194" lon="12.0902228"><ele>490.0</ele><time>2026-03-29T09:14:44.632Z</time></trkpt><trkpt lat="43.2242041" lon="12.0903333"><ele>494.0</ele><time>2026-03-29T09:14:45.613Z</time></trkpt><trkpt lat="43.2243522" lon="12.0904418"><ele>498.0</ele><time>2026-03-29T09:14:46.604Z</time></trkpt><trkpt lat="43.224467" lon="12.090595"><ele>502.0</ele><time>2026-03-29T09:14:47.614Z</time></trkpt><trkpt lat="43.2244643" lon="12.0907219"><ele>506.0</ele><time>2026-03-29T09:14:48.588Z</time></trkpt><trkpt lat="43.2244611" lon="12.0908466"><ele>505.25</ele><time>2026-03-29T09:14:49.589Z</time></trkpt><trkpt lat="43.2243978" lon="12.0909298"><ele>504.5</ele><time>2026-03-29T09:14:50.583Z</time></trkpt><trkpt lat="43.2242796" lon="12.0910269"><ele>503.75</ele><time>2026-03-29T09:14:51.636Z</time></trkpt><trkpt lat="43.2240932" lon="12.0911213"><ele>503.0</ele><time>2026-03-29T09:14:52.62Z</time></trkpt><trkpt lat="43.2238683" lon="12.0911763"><ele>503.0</ele><time>2026-03-29T09:14:53.661Z</time></trkpt><trkpt lat="43.2237055" lon="12.0912914"><ele>503.0</ele><time>2026-03-29T09:14:54.637Z</time></trkpt><trkpt lat="43.2235636" lon="12.0914272"><ele>503.0</ele><time>2026-03-29T09:14:55.596Z</time></trkpt><trkpt lat="43.22348" lon="12.0915942"><ele>505.25</ele><time>2026-03-29T09:14:56.644Z</time></trkpt><trkpt lat="43.2234081" lon="12.0917615"><ele>507.5</ele><time>2026-03-29T09:14:57.601Z</time></trkpt><trkpt lat="43.2233099" lon="12.0919336"><ele>509.75</ele><time>2026-03-29T09:14:58.624Z</time></trkpt><trkpt lat="43.2232648" lon="12.0921267"><ele>512.0</ele><time>2026-03-29T09:14:59.626Z</time></trkpt><trkpt lat="43.2233042" lon="12.0923693"><ele>513.5</ele><time>2026-03-29T09:15:00.616Z</time></trkpt><trkpt lat="43.2234035" lon="12.0926328"><ele>515.0</ele><time>2026-03-29T09:15:01.645Z</time></trkpt><trkpt lat="43.2235327" lon="12.0929077"><ele>515.0</ele><time>2026-03-29T09:15:02.592Z</time></trkpt><trkpt lat="43.2236839" lon="12.0932383"><ele>515.0</ele><time>2026-03-29T09:15:03.601Z</time></trkpt><trkpt lat="43.2237979" lon="12.0935435"><ele>514.0</ele><time>2026-03-29T09:15:04.582Z</time></trkpt><trkpt lat="43.22393" lon="12.093867"><ele>513.0</ele><time>2026-03-29T09:15:05.608Z</time></trkpt><trkpt lat="43.2241059" lon="12.0941879"><ele>519.5</ele><time>2026-03-29T09:15:06.596Z</time></trkpt><trkpt lat="43.2242184" lon="12.0944792"><ele>526.0</ele><time>2026-03-29T09:15:07.595Z</time></trkpt><trkpt lat="43.2243186" lon="12.0947386"><ele>525.0</ele><time>2026-03-29T09:15:08.593Z</time></trkpt><trkpt lat="43.2243988" lon="12.094945"><ele>524.0</ele><time>2026-03-29T09:15:09.627Z</time></trkpt><trkpt lat="43.2244859" lon="12.0951109"><ele>523.0</ele><time>2026-03-29T09:15:10.653Z</time></trkpt><trkpt lat="43.2245929" lon="12.0952367"><ele>523.0</ele><time>2026-03-29T09:15:11.59Z</time></trkpt><trkpt lat="43.224737" lon="12.0953551"><ele>523.0</ele><time>2026-03-29T09:15:12.616Z</time></trkpt><trkpt lat="43.2249131" lon="12.095478"><ele>523.0</ele><time>2026-03-29T09:15:13.589Z</time></trkpt><trkpt lat="43.2251106" lon="12.0956186"><ele>524.5</ele><time>2026-03-29T09:15:14.594Z</time></trkpt><trkpt lat="43.2253152" lon="12.0957711"><ele>526.0</ele><time>2026-03-29T09:15:15.611Z</time></trkpt><trkpt lat="43.2255386" lon="12.0958877"><ele>534.0</ele><time>2026-03-29T09:15:16.644Z</time></trkpt><trkpt lat="43.2257591" lon="12.0959811"><ele>542.0</ele><time>2026-03-29T09:15:17.644Z</time></trkpt><trkpt lat="43.2259725" lon="12.0960524"><ele>542.0</ele><time>2026-03-29T09:15:18.592Z</time></trkpt><trkpt lat="43.2261717" lon="12.0961238"><ele>542.0</ele><time>2026-03-29T09:15:19.614Z</time></trkpt><trkpt lat="43.2263415" lon="12.0961891"><ele>542.0</ele><time>2026-03-29T09:15:20.59Z</time></trkpt><trkpt lat="43.2264909" lon="12.0962549"><ele>544.0</ele><time>2026-03-29T09:15:21.597Z</time></trkpt><trkpt lat="43.2266513" lon="12.0963028"><ele>546.0</ele><time>2026-03-29T09:15:22.63Z</time></trkpt><trkpt lat="43.226851" lon="12.0962853"><ele>548.0</ele><time>2026-03-29T09:15:23.643Z</time></trkpt><trkpt lat="43.2270667" lon="12.0962277"><ele>548.0</ele><time>2026-03-29T09:15:24.638Z</time></trkpt><trkpt lat="43.2272848" lon="12.0961421"><ele>548.0</ele><time>2026-03-29T09:15:25.652Z</time></trkpt><trkpt lat="43.2275152" lon="12.0960476"><ele>549.6666666666666</ele><time>2026-03-29T09:15:26.644Z</time></trkpt><trkpt lat="43.2277301" lon="12.0959882"><ele>551.3333333333334</ele><time>2026-03-29T09:15:27.601Z</time></trkpt><trkpt lat="43.2279571" lon="12.0959521"><ele>553.0</ele><time>2026-03-29T09:15:28.609Z</time></trkpt><trkpt lat="43.2281886" lon="12.0959464"><ele>558.5</ele><time>2026-03-29T09:15:29.594Z</time></trkpt><trkpt lat="43.228431" lon="12.0959727"><ele>564.0</ele><time>2026-03-29T09:15:30.641Z</time></trkpt><trkpt lat="43.2286441" lon="12.0960339"><ele>564.0</ele><time>2026-03-29T09:15:31.632Z</time></trkpt><trkpt lat="43.2288637" lon="12.0961145"><ele>564.0</ele><time>2026-03-29T09:15:32.663Z</time></trkpt><trkpt lat="43.2290836" lon="12.096232"><ele>567.6666666666666</ele><time>2026-03-29T09:15:33.642Z</time></trkpt><trkpt lat="43.2292867" lon="12.0963607"><ele>571.3333333333333</ele><time>2026-03-29T09:15:34.646Z</time></trkpt><trkpt lat="43.2294822" lon="12.0964881"><ele>575.0</ele><time>2026-03-29T09:15:35.644Z</time></trkpt><trkpt lat="43.2296648" lon="12.0965803"><ele>572.0</ele><time>2026-03-29T09:15:36.646Z</time></trkpt><trkpt lat="43.2298662" lon="12.0966368"><ele>569.0</ele><time>2026-03-29T09:15:37.626Z</time></trkpt><trkpt lat="43.2300611" lon="12.0966555"><ele>566.0</ele><time>2026-03-29T09:15:38.59Z</time></trkpt><trkpt lat="43.2302743" lon="12.0966854"><ele>566.0</ele><time>2026-03-29T09:15:39.639Z</time></trkpt><trkpt lat="43.2304432" lon="12.0966797"><ele>566.0</ele><time>2026-03-29T09:15:40.598Z</time></trkpt><trkpt lat="43.2305939" lon="12.0966925"><ele>566.0</ele><time>2026-03-29T09:15:41.636Z</time></trkpt><trkpt lat="43.2306763" lon="12.0967231"><ele>566.0</ele><time>2026-03-29T09:15:42.595Z</time></trkpt><trkpt lat="43.2307725" lon="12.096786"><ele>567.75</ele><time>2026-03-29T09:15:43.595Z</time></trkpt><trkpt lat="43.2308373" lon="12.0968887"><ele>569.5</ele><time>2026-03-29T09:15:44.595Z</time></trkpt><trkpt lat="43.2308845" lon="12.0970465"><ele>571.25</ele><time>2026-03-29T09:15:45.592Z</time></trkpt><trkpt lat="43.2308679" lon="12.0972305"><ele>573.0</ele><time>2026-03-29T09:15:46.59Z</time></trkpt><trkpt lat="43.2308553" lon="12.0974556"><ele>573.0</ele><time>2026-03-29T09:15:47.611Z</time></trkpt><trkpt lat="43.2308262" lon="12.0976948"><ele>573.0</ele><time>2026-03-29T09:15:48.592Z</time></trkpt><trkpt lat="43.2307575" lon="12.0979503"><ele>573.0</ele><time>2026-03-29T09:15:49.587Z</time></trkpt><trkpt lat="43.2306986" lon="12.0981494"><ele>572.5</ele><time>2026-03-29T09:15:50.587Z</time></trkpt><trkpt lat="43.2306553" lon="12.0983299"><ele>572.0</ele><time>2026-03-29T09:15:51.586Z</time></trkpt><trkpt lat="43.2306383" lon="12.0984912"><ele>571.5</ele><time>2026-03-29T09:15:52.578Z</time></trkpt><trkpt lat="43.2306585" lon="12.0986285"><ele>571.0</ele><time>2026-03-29T09:15:53.594Z</time></trkpt><trkpt lat="43.2307232" lon="12.0987382"><ele>571.0</ele><time>2026-03-29T09:15:54.606Z</time></trkpt><trkpt lat="43.2308612" lon="12.098834"><ele>571.0</ele><time>2026-03-29T09:15:55.598Z</time></trkpt><trkpt lat="43.2310397" lon="12.0988336"><ele>571.0</ele><time>2026-03-29T09:15:56.643Z</time></trkpt><trkpt lat="43.2312555" lon="12.0987698"><ele>571.0</ele><time>2026-03-29T09:15:57.636Z</time></trkpt><trkpt lat="43.2314571" lon="12.0987229"><ele>571.0</ele><time>2026-03-29T09:15:58.614Z</time></trkpt><trkpt lat="43.2316261" lon="12.0987353"><ele>571.0</ele><time>2026-03-29T09:15:59.588Z</time></trkpt><trkpt lat="43.2317343" lon="12.0988073"><ele>572.0</ele><time>2026-03-29T09:16:00.592Z</time></trkpt><trkpt lat="43.2318032" lon="12.0989306"><ele>573.0</ele><time>2026-03-29T09:16:01.615Z</time></trkpt><trkpt lat="43.2318074" lon="12.099079"><ele>574.0</ele><time>2026-03-29T09:16:02.604Z</time></trkpt><trkpt lat="43.2317771" lon="12.0992394"><ele>575.0</ele><time>2026-03-29T09:16:03.59Z</time></trkpt><trkpt lat="43.2316657" lon="12.0993834"><ele>575.0</ele><time>2026-03-29T09:16:04.668Z</time></trkpt><trkpt lat="43.2315191" lon="12.0994861"><ele>575.0</ele><time>2026-03-29T09:16:05.641Z</time></trkpt><trkpt lat="43.2313795" lon="12.0995629"><ele>575.0</ele><time>2026-03-29T09:16:06.594Z</time></trkpt><trkpt lat="43.2312558" lon="12.0996669"><ele>573.6</ele><time>2026-03-29T09:16:07.592Z</time></trkpt><trkpt lat="43.2311667" lon="12.0997964"><ele>572.2</ele><time>2026-03-29T09:16:08.589Z</time></trkpt><trkpt lat="43.2311154" lon="12.0999298"><ele>570.8</ele><time>2026-03-29T09:16:09.611Z</time></trkpt><trkpt lat="43.2310998" lon="12.1000709"><ele>569.4</ele><time>2026-03-29T09:16:10.599Z</time></trkpt><trkpt lat="43.2310775" lon="12.1001735"><ele>568.0</ele><time>2026-03-29T09:16:11.592Z</time></trkpt><trkpt lat="43.2311113" lon="12.100285"><ele>567.6666666666667</ele><time>2026-03-29T09:16:12.629Z</time></trkpt><trkpt lat="43.2312247" lon="12.1003956"><ele>567.3333333333334</ele><time>2026-03-29T09:16:13.607Z</time></trkpt><trkpt lat="43.2314" lon="12.1005283"><ele>567.0</ele><time>2026-03-29T09:16:14.592Z</time></trkpt><trkpt lat="43.2315943" lon="12.1006617"><ele>569.6666666666666</ele><time>2026-03-29T09:16:15.601Z</time></trkpt><trkpt lat="43.2317886" lon="12.1007992"><ele>572.3333333333333</ele><time>2026-03-29T09:16:16.614Z</time></trkpt><trkpt lat="43.2319694" lon="12.1009414"><ele>575.0</ele><time>2026-03-29T09:16:17.595Z</time></trkpt><trkpt lat="43.2321272" lon="12.1011052"><ele>575.0</ele><time>2026-03-29T09:16:18.597Z</time></trkpt><trkpt lat="43.2322376" lon="12.1012734"><ele>575.0</ele><time>2026-03-29T09:16:19.59Z</time></trkpt><trkpt lat="43.2322982" lon="12.1014555"><ele>575.0</ele><time>2026-03-29T09:16:20.584Z</time></trkpt><trkpt lat="43.2323318" lon="12.1016666"><ele>580.3333333333333</ele><time>2026-03-29T09:16:21.592Z</time></trkpt><trkpt lat="43.2323375" lon="12.1019147"><ele>585.6666666666666</ele><time>2026-03-29T09:16:22.594Z</time></trkpt><trkpt lat="43.2323305" lon="12.1021558"><ele>591.0</ele><time>2026-03-29T09:16:23.632Z</time></trkpt><trkpt lat="43.2323204" lon="12.1023502"><ele>591.25</ele><time>2026-03-29T09:16:24.597Z</time></trkpt><trkpt lat="43.2323509" lon="12.1025114"><ele>591.5</ele><time>2026-03-29T09:16:25.605Z</time></trkpt><trkpt lat="43.2323986" lon="12.1026484"><ele>591.75</ele><time>2026-03-29T09:16:26.602Z</time></trkpt><trkpt lat="43.2324588" lon="12.1027731"><ele>592.0</ele><time>2026-03-29T09:16:27.596Z</time></trkpt><trkpt lat="43.2325491" lon="12.102893"><ele>592.0</ele><time>2026-03-29T09:16:28.594Z</time></trkpt><trkpt lat="43.2326871" lon="12.103001"><ele>592.0</ele><time>2026-03-29T09:16:29.598Z</time></trkpt><trkpt lat="43.2328534" lon="12.1031063"><ele>592.0</ele><time>2026-03-29T09:16:30.645Z</time></trkpt><trkpt lat="43.2330468" lon="12.1031503"><ele>594.0</ele><time>2026-03-29T09:16:31.603Z</time></trkpt><trkpt lat="43.233296" lon="12.1031592"><ele>596.0</ele><time>2026-03-29T09:16:32.636Z</time></trkpt><trkpt lat="43.2334695" lon="12.103209"><ele>598.0</ele><time>2026-03-29T09:16:33.655Z</time></trkpt><trkpt lat="43.2335859" lon="12.103298"><ele>598.0</ele><time>2026-03-29T09:16:34.613Z</time></trkpt><trkpt lat="43.2336484" lon="12.1034481"><ele>598.0</ele><time>2026-03-29T09:16:35.626Z</time></trkpt><trkpt lat="43.233664" lon="12.1036765"><ele>598.0</ele><time>2026-03-29T09:16:36.638Z</time></trkpt><trkpt lat="43.2336131" lon="12.1039529"><ele>597.75</ele><time>2026-03-29T09:16:37.637Z</time></trkpt><trkpt lat="43.2335804" lon="12.1041871"><ele>597.5</ele><time>2026-03-29T09:16:38.644Z</time></trkpt><trkpt lat="43.2335928" lon="12.1043774"><ele>597.25</ele><time>2026-03-29T09:16:39.593Z</time></trkpt><trkpt lat="43.2336319" lon="12.1045519"><ele>597.0</ele><time>2026-03-29T09:16:40.59Z</time></trkpt><trkpt lat="43.2336978" lon="12.1047146"><ele>597.0</ele><time>2026-03-29T09:16:41.609Z</time></trkpt><trkpt lat="43.2337725" lon="12.1048455"><ele>597.0</ele><time>2026-03-29T09:16:42.611Z</time></trkpt><trkpt lat="43.2338604" lon="12.1049394"><ele>597.0</ele><time>2026-03-29T09:16:43.592Z</time></trkpt><trkpt lat="43.2340158" lon="12.1050184"><ele>597.0</ele><time>2026-03-29T09:16:44.67Z</time></trkpt><trkpt lat="43.2341846" lon="12.1050934"><ele>599.0</ele><time>2026-03-29T09:16:45.607Z</time></trkpt><trkpt lat="43.2343989" lon="12.10518"><ele>601.0</ele><time>2026-03-29T09:16:46.646Z</time></trkpt><trkpt lat="43.2345302" lon="12.105298"><ele>603.0</ele><time>2026-03-29T09:16:47.591Z</time></trkpt><trkpt lat="43.2345798" lon="12.1054462"><ele>603.0</ele><time>2026-03-29T09:16:48.61Z</time></trkpt><trkpt lat="43.2345843" lon="12.1056287"><ele>603.0</ele><time>2026-03-29T09:16:49.598Z</time></trkpt><trkpt lat="43.2345385" lon="12.1058738"><ele>603.0</ele><time>2026-03-29T09:16:50.648Z</time></trkpt><trkpt lat="43.2344935" lon="12.1060761"><ele>601.5</ele><time>2026-03-29T09:16:51.599Z</time></trkpt><trkpt lat="43.2344185" lon="12.1062842"><ele>600.0</ele><time>2026-03-29T09:16:52.599Z</time></trkpt><trkpt lat="43.2343805" lon="12.1064318"><ele>598.5</ele><time>2026-03-29T09:16:53.599Z</time></trkpt><trkpt lat="43.2343791" lon="12.1065664"><ele>597.0</ele><time>2026-03-29T09:16:54.601Z</time></trkpt><trkpt lat="43.2343812" lon="12.106674"><ele>597.0</ele><time>2026-03-29T09:16:55.579Z</time></trkpt><trkpt lat="43.2344181" lon="12.1067517"><ele>597.0</ele><time>2026-03-29T09:16:56.642Z</time></trkpt><trkpt lat="43.2344883" lon="12.1068302"><ele>597.0</ele><time>2026-03-29T09:16:57.642Z</time></trkpt><trkpt lat="43.234595" lon="12.1069121"><ele>597.0</ele><time>2026-03-29T09:16:58.618Z</time></trkpt><trkpt lat="43.2347525" lon="12.1069722"><ele>597.0</ele><time>2026-03-29T09:16:59.64Z</time></trkpt><trkpt lat="43.2349502" lon="12.1070411"><ele>599.0</ele><time>2026-03-29T09:17:00.604Z</time></trkpt><trkpt lat="43.2350533" lon="12.1071249"><ele>601.0</ele><time>2026-03-29T09:17:01.626Z</time></trkpt><trkpt lat="43.2351113" lon="12.1072435"><ele>603.0</ele><time>2026-03-29T09:17:02.597Z</time></trkpt><trkpt lat="43.235147" lon="12.1074274"><ele>605.0</ele><time>2026-03-29T09:17:03.66Z</time></trkpt><trkpt lat="43.23513" lon="12.1076398"><ele>605.0</ele><time>2026-03-29T09:17:04.629Z</time></trkpt><trkpt lat="43.2351119" lon="12.1078484"><ele>605.0</ele><time>2026-03-29T09:17:05.59Z</time></trkpt><trkpt lat="43.2350784" lon="12.1080415"><ele>605.0</ele><time>2026-03-29T09:17:06.635Z</time></trkpt><trkpt lat="43.2350382" lon="12.1082067"><ele>605.0</ele><time>2026-03-29T09:17:07.653Z</time></trkpt><trkpt lat="43.2349976" lon="12.1083273"><ele>604.8</ele><time>2026-03-29T09:17:08.614Z</time></trkpt><trkpt lat="43.2349571" lon="12.1084547"><ele>604.6</ele><time>2026-03-29T09:17:09.595Z</time></trkpt><trkpt lat="43.234966" lon="12.1085615"><ele>604.4</ele><time>2026-03-29T09:17:10.593Z</time></trkpt><trkpt lat="43.2349832" lon="12.1086475"><ele>604.2</ele><time>2026-03-29T09:17:11.622Z</time></trkpt><trkpt lat="43.235118" lon="12.1086989"><ele>604.0</ele><time>2026-03-29T09:17:13.606Z</time></trkpt><trkpt lat="43.2352161" lon="12.1087638"><ele>604.0</ele><time>2026-03-29T09:17:14.621Z</time></trkpt><trkpt lat="43.2353104" lon="12.1087624"><ele>604.0</ele><time>2026-03-29T09:17:15.641Z</time></trkpt><trkpt lat="43.2353961" lon="12.1087816"><ele>604.0</ele><time>2026-03-29T09:17:16.661Z</time></trkpt><trkpt lat="43.2354841" lon="12.1086559"><ele>604.0</ele><time>2026-03-29T09:17:17.585Z</time></trkpt><trkpt lat="43.235653" lon="12.1083666"><ele>599.0</ele><time>2026-03-29T09:17:18.622Z</time></trkpt><trkpt lat="43.2358211" lon="12.1081733"><ele>594.0</ele><time>2026-03-29T09:17:19.953Z</time></trkpt><trkpt lat="43.2362495" lon="12.1075723"><ele>594.3333333333334</ele><time>2026-03-29T09:17:21.667Z</time></trkpt><trkpt lat="43.2364011" lon="12.1073881"><ele>594.6666666666667</ele><time>2026-03-29T09:17:22.657Z</time></trkpt><trkpt lat="43.2365309" lon="12.1071767"><ele>595.0</ele><time>2026-03-29T09:17:23.665Z</time></trkpt><trkpt lat="43.2366415" lon="12.1069866"><ele>595.0</ele><time>2026-03-29T09:17:24.66Z</time></trkpt><trkpt lat="43.2367381" lon="12.1067902"><ele>595.0</ele><time>2026-03-29T09:17:25.661Z</time></trkpt><trkpt lat="43.2368304" lon="12.1065936"><ele>595.0</ele><time>2026-03-29T09:17:26.702Z</time></trkpt><trkpt lat="43.2369194" lon="12.1064382"><ele>592.6666666666667</ele><time>2026-03-29T09:17:27.657Z</time></trkpt><trkpt lat="43.237022" lon="12.1062705"><ele>590.3333333333334</ele><time>2026-03-29T09:17:28.659Z</time></trkpt><trkpt lat="43.2371491" lon="12.1060774"><ele>588.0</ele><time>2026-03-29T09:17:29.658Z</time></trkpt><trkpt lat="43.23728" lon="12.1059641"><ele>587.25</ele><time>2026-03-29T09:17:30.654Z</time></trkpt><trkpt lat="43.2373961" lon="12.1059013"><ele>586.5</ele><time>2026-03-29T09:17:31.606Z</time></trkpt><trkpt lat="43.2375294" lon="12.1058607"><ele>585.75</ele><time>2026-03-29T09:17:32.594Z</time></trkpt><trkpt lat="43.2376748" lon="12.105826"><ele>585.0</ele><time>2026-03-29T09:17:33.589Z</time></trkpt><trkpt lat="43.2378281" lon="12.1057586"><ele>586.0</ele><time>2026-03-29T09:17:34.592Z</time></trkpt><trkpt lat="43.2379961" lon="12.1056413"><ele>587.0</ele><time>2026-03-29T09:17:35.615Z</time></trkpt><trkpt lat="43.2381576" lon="12.1055149"><ele>588.0</ele><time>2026-03-29T09:17:36.598Z</time></trkpt><trkpt lat="43.238326" lon="12.1053824"><ele>583.0</ele><time>2026-03-29T09:17:37.624Z</time></trkpt><trkpt lat="43.2384956" lon="12.1053047"><ele>578.0</ele><time>2026-03-29T09:17:38.624Z</time></trkpt><trkpt lat="43.2386718" lon="12.1052613"><ele>573.0</ele><time>2026-03-29T09:17:39.645Z</time></trkpt><trkpt lat="43.2388499" lon="12.1052575"><ele>570.3333333333334</ele><time>2026-03-29T09:17:40.604Z</time></trkpt><trkpt lat="43.2390497" lon="12.1052649"><ele>567.6666666666667</ele><time>2026-03-29T09:17:41.588Z</time></trkpt><trkpt lat="43.2392518" lon="12.105278"><ele>565.0</ele><time>2026-03-29T09:17:42.59Z</time></trkpt><trkpt lat="43.2394611" lon="12.1053015"><ele>565.0</ele><time>2026-03-29T09:17:43.592Z</time></trkpt><trkpt lat="43.2396583" lon="12.105342"><ele>565.0</ele><time>2026-03-29T09:17:44.59Z</time></trkpt><trkpt lat="43.2398553" lon="12.1053965"><ele>565.0</ele><time>2026-03-29T09:17:45.631Z</time></trkpt><trkpt lat="43.2400203" lon="12.1054196"><ele>562.6666666666667</ele><time>2026-03-29T09:17:46.595Z</time></trkpt><trkpt lat="43.2401913" lon="12.1054386"><ele>560.3333333333334</ele><time>2026-03-29T09:17:47.61Z</time></trkpt><trkpt lat="43.2403602" lon="12.1054644"><ele>558.0</ele><time>2026-03-29T09:17:48.6Z</time></trkpt><trkpt lat="43.2405098" lon="12.1054117"><ele>556.25</ele><time>2026-03-29T09:17:49.627Z</time></trkpt><trkpt lat="43.2406489" lon="12.1053398"><ele>554.5</ele><time>2026-03-29T09:17:50.605Z</time></trkpt><trkpt lat="43.2407798" lon="12.1052706"><ele>552.75</ele><time>2026-03-29T09:17:51.593Z</time></trkpt><trkpt lat="43.2409139" lon="12.1052385"><ele>551.0</ele><time>2026-03-29T09:17:52.617Z</time></trkpt><trkpt lat="43.2410563" lon="12.1052607"><ele>551.0</ele><time>2026-03-29T09:17:53.596Z</time></trkpt><trkpt lat="43.2411986" lon="12.1052771"><ele>551.0</ele><time>2026-03-29T09:17:54.605Z</time></trkpt><trkpt lat="43.2413445" lon="12.1052805"><ele>551.0</ele><time>2026-03-29T09:17:55.603Z</time></trkpt><trkpt lat="43.2414893" lon="12.1052684"><ele>551.0</ele><time>2026-03-29T09:17:56.591Z</time></trkpt><trkpt lat="43.2415943" lon="12.1052029"><ele>551.25</ele><time>2026-03-29T09:17:57.596Z</time></trkpt><trkpt lat="43.2416978" lon="12.1051211"><ele>551.5</ele><time>2026-03-29T09:17:58.605Z</time></trkpt><trkpt lat="43.2417888" lon="12.1049889"><ele>551.75</ele><time>2026-03-29T09:17:59.645Z</time></trkpt><trkpt lat="43.2418608" lon="12.1048606"><ele>552.0</ele><time>2026-03-29T09:18:00.59Z</time></trkpt><trkpt lat="43.2419405" lon="12.1048354"><ele>552.0</ele><time>2026-03-29T09:18:01.589Z</time></trkpt><trkpt lat="43.2420495" lon="12.1048731"><ele>552.0</ele><time>2026-03-29T09:18:02.633Z</time></trkpt><trkpt lat="43.2421893" lon="12.104948"><ele>552.0</ele><time>2026-03-29T09:18:03.637Z</time></trkpt><trkpt lat="43.2423368" lon="12.1050886"><ele>552.0</ele><time>2026-03-29T09:18:04.663Z</time></trkpt><trkpt lat="43.2424331" lon="12.1053646"><ele>551.3333333333334</ele><time>2026-03-29T09:18:05.628Z</time></trkpt><trkpt lat="43.2425258" lon="12.1056447"><ele>550.6666666666667</ele><time>2026-03-29T09:18:06.638Z</time></trkpt><trkpt lat="43.2425793" lon="12.1059355"><ele>550.0</ele><time>2026-03-29T09:18:07.64Z</time></trkpt><trkpt lat="43.2426515" lon="12.1061912"><ele>550.0</ele><time>2026-03-29T09:18:08.637Z</time></trkpt><trkpt lat="43.2427446" lon="12.1064334"><ele>550.0</ele><time>2026-03-29T09:18:09.654Z</time></trkpt><trkpt lat="43.2428358" lon="12.1066582"><ele>550.0</ele><time>2026-03-29T09:18:10.655Z</time></trkpt><trkpt lat="43.2429524" lon="12.106948"><ele>548.6666666666667</ele><time>2026-03-29T09:18:11.972Z</time></trkpt><trkpt lat="43.2431132" lon="12.1072186"><ele>547.3333333333334</ele><time>2026-03-29T09:18:13.647Z</time></trkpt><trkpt lat="43.2432069" lon="12.1073793"><ele>546.0</ele><time>2026-03-29T09:18:14.648Z</time></trkpt><trkpt lat="43.2432939" lon="12.1075412"><ele>546.0</ele><time>2026-03-29T09:18:15.667Z</time></trkpt><trkpt lat="43.24338" lon="12.1077001"><ele>546.0</ele><time>2026-03-29T09:18:16.656Z</time></trkpt><trkpt lat="43.2434712" lon="12.1078637"><ele>546.0</ele><time>2026-03-29T09:18:17.654Z</time></trkpt><trkpt lat="43.2435635" lon="12.1080186"><ele>546.0</ele><time>2026-03-29T09:18:18.633Z</time></trkpt><trkpt lat="43.2436611" lon="12.1081843"><ele>538.6666666666666</ele><time>2026-03-29T09:18:19.644Z</time></trkpt><trkpt lat="43.243761" lon="12.1083409"><ele>531.3333333333333</ele><time>2026-03-29T09:18:20.632Z</time></trkpt><trkpt lat="43.2438651" lon="12.1084821"><ele>524.0</ele><time>2026-03-29T09:18:21.624Z</time></trkpt><trkpt lat="43.2439796" lon="12.1086324"><ele>524.0</ele><time>2026-03-29T09:18:22.628Z</time></trkpt><trkpt lat="43.2440946" lon="12.1087649"><ele>524.0</ele><time>2026-03-29T09:18:23.633Z</time></trkpt><trkpt lat="43.244198" lon="12.1089085"><ele>524.0</ele><time>2026-03-29T09:18:24.648Z</time></trkpt><trkpt lat="43.2442756" lon="12.1090318"><ele>524.0</ele><time>2026-03-29T09:18:25.65Z</time></trkpt><trkpt lat="43.2443424" lon="12.1091615"><ele>528.6</ele><time>2026-03-29T09:18:26.653Z</time></trkpt><trkpt lat="43.2443825" lon="12.109311"><ele>533.2</ele><time>2026-03-29T09:18:27.645Z</time></trkpt><trkpt lat="43.2443946" lon="12.1094561"><ele>537.8000000000001</ele><time>2026-03-29T09:18:28.591Z</time></trkpt><trkpt lat="43.2444159" lon="12.1096213"><ele>542.4</ele><time>2026-03-29T09:18:29.634Z</time></trkpt><trkpt lat="43.2444182" lon="12.1097372"><ele>547.0</ele><time>2026-03-29T09:18:30.642Z</time></trkpt><trkpt lat="43.2444312" lon="12.1098325"><ele>549.2</ele><time>2026-03-29T09:18:31.596Z</time></trkpt><trkpt lat="43.244439" lon="12.1099185"><ele>551.4000000000001</ele><time>2026-03-29T09:18:32.6Z</time></trkpt><trkpt lat="43.2444889" lon="12.1099738"><ele>553.5999999999999</ele><time>2026-03-29T09:18:33.64Z</time></trkpt><trkpt lat="43.2445664" lon="12.1099971"><ele>555.8</ele><time>2026-03-29T09:18:34.631Z</time></trkpt><trkpt lat="43.2447184" lon="12.109974"><ele>558.0</ele><time>2026-03-29T09:18:35.598Z</time></trkpt><trkpt lat="43.244845" lon="12.1099217"><ele>551.5</ele><time>2026-03-29T09:18:36.604Z</time></trkpt><trkpt lat="43.2449971" lon="12.1098757"><ele>545.0</ele><time>2026-03-29T09:18:37.592Z</time></trkpt><trkpt lat="43.2451201" lon="12.1098752"><ele>538.5</ele><time>2026-03-29T09:18:38.598Z</time></trkpt><trkpt lat="43.2452176" lon="12.1099719"><ele>532.0</ele><time>2026-03-29T09:18:39.6Z</time></trkpt><trkpt lat="43.2453068" lon="12.1100939"><ele>532.0</ele><time>2026-03-29T09:18:40.635Z</time></trkpt><trkpt lat="43.245356" lon="12.1102398"><ele>532.0</ele><time>2026-03-29T09:18:41.589Z</time></trkpt><trkpt lat="43.2453825" lon="12.1103776"><ele>532.0</ele><time>2026-03-29T09:18:42.605Z</time></trkpt><trkpt lat="43.245474" lon="12.110435"><ele>532.0</ele><time>2026-03-29T09:18:44.636Z</time></trkpt><trkpt lat="43.2456154" lon="12.1104473"><ele>528.6666666666667</ele><time>2026-03-29T09:18:45.632Z</time></trkpt><trkpt lat="43.2457837" lon="12.1104106"><ele>525.3333333333334</ele><time>2026-03-29T09:18:46.621Z</time></trkpt><trkpt lat="43.245986" lon="12.1102951"><ele>522.0</ele><time>2026-03-29T09:18:47.591Z</time></trkpt><trkpt lat="43.2461483" lon="12.1102231"><ele>522.0</ele><time>2026-03-29T09:18:48.619Z</time></trkpt><trkpt lat="43.2462705" lon="12.1101795"><ele>522.0</ele><time>2026-03-29T09:18:49.586Z</time></trkpt><trkpt lat="43.2464092" lon="12.1102263"><ele>522.0</ele><time>2026-03-29T09:18:50.598Z</time></trkpt><trkpt lat="43.2465251" lon="12.1103283"><ele>522.0</ele><time>2026-03-29T09:18:51.636Z</time></trkpt><trkpt lat="43.2466469" lon="12.110471"><ele>523.3333333333334</ele><time>2026-03-29T09:18:52.635Z</time></trkpt><trkpt lat="43.2467883" lon="12.1105971"><ele>524.6666666666667</ele><time>2026-03-29T09:18:53.659Z</time></trkpt><trkpt lat="43.2469487" lon="12.1107547"><ele>526.0</ele><time>2026-03-29T09:18:54.641Z</time></trkpt><trkpt lat="43.2470919" lon="12.1108935"><ele>526.0</ele><time>2026-03-29T09:18:55.625Z</time></trkpt><trkpt lat="43.247238" lon="12.1110512"><ele>526.0</ele><time>2026-03-29T09:18:56.635Z</time></trkpt><trkpt lat="43.2473789" lon="12.1112341"><ele>526.0</ele><time>2026-03-29T09:18:57.622Z</time></trkpt><trkpt lat="43.2475294" lon="12.1114137"><ele>524.6666666666667</ele><time>2026-03-29T09:18:58.613Z</time></trkpt><trkpt lat="43.2476765" lon="12.1115807"><ele>523.3333333333334</ele><time>2026-03-29T09:18:59.634Z</time></trkpt><trkpt lat="43.2478066" lon="12.1117491"><ele>522.0</ele><time>2026-03-29T09:19:00.644Z</time></trkpt><trkpt lat="43.2479057" lon="12.1119235"><ele>522.0</ele><time>2026-03-29T09:19:01.634Z</time></trkpt><trkpt lat="43.2479865" lon="12.1121021"><ele>522.0</ele><time>2026-03-29T09:19:02.631Z</time></trkpt><trkpt lat="43.2480598" lon="12.11226"><ele>522.0</ele><time>2026-03-29T09:19:03.628Z</time></trkpt><trkpt lat="43.2481492" lon="12.112427"><ele>522.0</ele><time>2026-03-29T09:19:04.657Z</time></trkpt><trkpt lat="43.2482647" lon="12.1125466"><ele>517.6666666666666</ele><time>2026-03-29T09:19:05.645Z</time></trkpt><trkpt lat="43.2483976" lon="12.1126384"><ele>513.3333333333333</ele><time>2026-03-29T09:19:06.676Z</time></trkpt><trkpt lat="43.2485331" lon="12.1127244"><ele>509.0</ele><time>2026-03-29T09:19:07.604Z</time></trkpt><trkpt lat="43.2486806" lon="12.1128548"><ele>509.0</ele><time>2026-03-29T09:19:08.647Z</time></trkpt><trkpt lat="43.24879" lon="12.1130191"><ele>509.0</ele><time>2026-03-29T09:19:09.632Z</time></trkpt><trkpt lat="43.2488638" lon="12.1131864"><ele>509.0</ele><time>2026-03-29T09:19:10.595Z</time></trkpt><trkpt lat="43.2489277" lon="12.1133751"><ele>502.3333333333333</ele><time>2026-03-29T09:19:11.586Z</time></trkpt><trkpt lat="43.2489871" lon="12.1135912"><ele>495.66666666666663</ele><time>2026-03-29T09:19:12.627Z</time></trkpt><trkpt lat="43.2490265" lon="12.113848"><ele>489.0</ele><time>2026-03-29T09:19:13.634Z</time></trkpt><trkpt lat="43.2490457" lon="12.1141059"><ele>489.0</ele><time>2026-03-29T09:19:14.669Z</time></trkpt><trkpt lat="43.2490601" lon="12.1143217"><ele>489.0</ele><time>2026-03-29T09:19:15.588Z</time></trkpt><trkpt lat="43.2490685" lon="12.1145319"><ele>489.0</ele><time>2026-03-29T09:19:16.593Z</time></trkpt><trkpt lat="43.2490698" lon="12.1147473"><ele>486.75</ele><time>2026-03-29T09:19:17.608Z</time></trkpt><trkpt lat="43.2490662" lon="12.1149413"><ele>484.5</ele><time>2026-03-29T09:19:18.615Z</time></trkpt><trkpt lat="43.2490549" lon="12.1151178"><ele>482.25</ele><time>2026-03-29T09:19:19.588Z</time></trkpt><trkpt lat="43.2489893" lon="12.1153103"><ele>480.0</ele><time>2026-03-29T09:19:20.666Z</time></trkpt><trkpt lat="43.2488917" lon="12.1155097"><ele>484.33333333333337</ele><time>2026-03-29T09:19:21.64Z</time></trkpt><trkpt lat="43.2487485" lon="12.1157063"><ele>488.6666666666667</ele><time>2026-03-29T09:19:22.65Z</time></trkpt><trkpt lat="43.248585" lon="12.1158971"><ele>493.0</ele><time>2026-03-29T09:19:23.632Z</time></trkpt><trkpt lat="43.2484566" lon="12.1160657"><ele>493.0</ele><time>2026-03-29T09:19:24.619Z</time></trkpt><trkpt lat="43.2483183" lon="12.1162068"><ele>493.0</ele><time>2026-03-29T09:19:25.609Z</time></trkpt><trkpt lat="43.2482256" lon="12.1163829"><ele>493.0</ele><time>2026-03-29T09:19:26.596Z</time></trkpt><trkpt lat="43.2481996" lon="12.1165889"><ele>489.75</ele><time>2026-03-29T09:19:27.594Z</time></trkpt><trkpt lat="43.2481842" lon="12.1167807"><ele>486.5</ele><time>2026-03-29T09:19:28.596Z</time></trkpt><trkpt lat="43.2481386" lon="12.116945"><ele>483.25</ele><time>2026-03-29T09:19:29.654Z</time></trkpt><trkpt lat="43.2480903" lon="12.1170552"><ele>480.0</ele><time>2026-03-29T09:19:30.595Z</time></trkpt><trkpt lat="43.2480328" lon="12.1171862"><ele>483.25</ele><time>2026-03-29T09:19:31.633Z</time></trkpt><trkpt lat="43.2479275" lon="12.1172999"><ele>486.5</ele><time>2026-03-29T09:19:32.644Z</time></trkpt><trkpt lat="43.2478259" lon="12.1174425"><ele>489.75</ele><time>2026-03-29T09:19:33.649Z</time></trkpt><trkpt lat="43.2477381" lon="12.1175912"><ele>493.0</ele><time>2026-03-29T09:19:34.652Z</time></trkpt><trkpt lat="43.2476525" lon="12.1177758"><ele>493.0</ele><time>2026-03-29T09:19:35.655Z</time></trkpt><trkpt lat="43.2476065" lon="12.1179753"><ele>493.0</ele><time>2026-03-29T09:19:36.632Z</time></trkpt><trkpt lat="43.2475877" lon="12.1181823"><ele>493.0</ele><time>2026-03-29T09:19:37.647Z</time></trkpt><trkpt lat="43.2476103" lon="12.1183725"><ele>493.0</ele><time>2026-03-29T09:19:38.594Z</time></trkpt><trkpt lat="43.2476769" lon="12.1185736"><ele>490.75</ele><time>2026-03-29T09:19:39.585Z</time></trkpt><trkpt lat="43.247713" lon="12.1187623"><ele>488.5</ele><time>2026-03-29T09:19:40.599Z</time></trkpt><trkpt lat="43.2477271" lon="12.1189211"><ele>486.25</ele><time>2026-03-29T09:19:41.601Z</time></trkpt><trkpt lat="43.2477106" lon="12.1190647"><ele>484.0</ele><time>2026-03-29T09:19:42.626Z</time></trkpt><trkpt lat="43.2476433" lon="12.1191542"><ele>481.6</ele><time>2026-03-29T09:19:43.593Z</time></trkpt><trkpt lat="43.2475749" lon="12.1192338"><ele>479.2</ele><time>2026-03-29T09:19:44.605Z</time></trkpt><trkpt lat="43.2475017" lon="12.1193199"><ele>476.80000000000007</ele><time>2026-03-29T09:19:45.664Z</time></trkpt><trkpt lat="43.2474194" lon="12.1193966"><ele>474.40000000000003</ele><time>2026-03-29T09:19:46.62Z</time></trkpt><trkpt lat="43.2473537" lon="12.1195112"><ele>472.0</ele><time>2026-03-29T09:19:47.607Z</time></trkpt><trkpt lat="43.2473091" lon="12.1196189"><ele>470.25</ele><time>2026-03-29T09:19:48.657Z</time></trkpt><trkpt lat="43.2472776" lon="12.1198133"><ele>468.5</ele><time>2026-03-29T09:19:50.596Z</time></trkpt><trkpt lat="43.2472462" lon="12.1200107"><ele>466.75</ele><time>2026-03-29T09:19:51.649Z</time></trkpt><trkpt lat="43.2473236" lon="12.1201967"><ele>465.0</ele><time>2026-03-29T09:19:52.636Z</time></trkpt><trkpt lat="43.2473972" lon="12.1204011"><ele>465.0</ele><time>2026-03-29T09:19:53.653Z</time></trkpt><trkpt lat="43.247521" lon="12.1206074"><ele>465.0</ele><time>2026-03-29T09:19:54.659Z</time></trkpt><trkpt lat="43.2476447" lon="12.1208195"><ele>465.0</ele><time>2026-03-29T09:19:55.616Z</time></trkpt><trkpt lat="43.2477944" lon="12.1210434"><ele>464.33333333333337</ele><time>2026-03-29T09:19:56.612Z</time></trkpt><trkpt lat="43.2479008" lon="12.1212701"><ele>463.6666666666667</ele><time>2026-03-29T09:19:57.604Z</time></trkpt><trkpt lat="43.2479287" lon="12.1214599"><ele>463.0</ele><time>2026-03-29T09:19:58.631Z</time></trkpt><trkpt lat="43.2479265" lon="12.1216666"><ele>463.0</ele><time>2026-03-29T09:19:59.635Z</time></trkpt><trkpt lat="43.247875" lon="12.1218865"><ele>463.0</ele><time>2026-03-29T09:20:00.597Z</time></trkpt><trkpt lat="43.2478113" lon="12.122104"><ele>463.0</ele><time>2026-03-29T09:20:01.627Z</time></trkpt><trkpt lat="43.2477619" lon="12.1223137"><ele>461.5</ele><time>2026-03-29T09:20:02.601Z</time></trkpt><trkpt lat="43.2477324" lon="12.1225137"><ele>460.0</ele><time>2026-03-29T09:20:03.589Z</time></trkpt><trkpt lat="43.2476939" lon="12.1227173"><ele>458.5</ele><time>2026-03-29T09:20:04.587Z</time></trkpt><trkpt lat="43.2476474" lon="12.1229013"><ele>457.0</ele><time>2026-03-29T09:20:05.598Z</time></trkpt><trkpt lat="43.2476001" lon="12.1230723"><ele>453.75</ele><time>2026-03-29T09:20:06.596Z</time></trkpt><trkpt lat="43.2475699" lon="12.1232424"><ele>450.5</ele><time>2026-03-29T09:20:07.585Z</time></trkpt><trkpt lat="43.247558" lon="12.123417"><ele>447.25</ele><time>2026-03-29T09:20:08.606Z</time></trkpt><trkpt lat="43.247527" lon="12.1235703"><ele>444.0</ele><time>2026-03-29T09:20:09.613Z</time></trkpt><trkpt lat="43.2474712" lon="12.1237044"><ele>444.0</ele><time>2026-03-29T09:20:10.621Z</time></trkpt><trkpt lat="43.2473864" lon="12.1238001"><ele>444.0</ele><time>2026-03-29T09:20:11.615Z</time></trkpt><trkpt lat="43.2472792" lon="12.1238846"><ele>444.0</ele><time>2026-03-29T09:20:12.609Z</time></trkpt><trkpt lat="43.2471404" lon="12.1239333"><ele>444.0</ele><time>2026-03-29T09:20:13.595Z</time></trkpt><trkpt lat="43.2470261" lon="12.1239966"><ele>443.0</ele><time>2026-03-29T09:20:14.594Z</time></trkpt><trkpt lat="43.2469117" lon="12.1240581"><ele>442.0</ele><time>2026-03-29T09:20:15.603Z</time></trkpt><trkpt lat="43.2467935" lon="12.124115"><ele>441.0</ele><time>2026-03-29T09:20:16.604Z</time></trkpt><trkpt lat="43.2467136" lon="12.1242349"><ele>440.0</ele><time>2026-03-29T09:20:17.598Z</time></trkpt><trkpt lat="43.2466461" lon="12.1243969"><ele>440.0</ele><time>2026-03-29T09:20:18.667Z</time></trkpt><trkpt lat="43.2466221" lon="12.1245781"><ele>440.0</ele><time>2026-03-29T09:20:19.633Z</time></trkpt><trkpt lat="43.2465959" lon="12.1247757"><ele>440.0</ele><time>2026-03-29T09:20:20.64Z</time></trkpt><trkpt lat="43.2465521" lon="12.1249701"><ele>440.0</ele><time>2026-03-29T09:20:21.632Z</time></trkpt><trkpt lat="43.2464842" lon="12.1251411"><ele>441.5</ele><time>2026-03-29T09:20:22.629Z</time></trkpt><trkpt lat="43.2463948" lon="12.1252823"><ele>443.0</ele><time>2026-03-29T09:20:23.591Z</time></trkpt><trkpt lat="43.2463115" lon="12.1254258"><ele>444.5</ele><time>2026-03-29T09:20:24.594Z</time></trkpt><trkpt lat="43.2462598" lon="12.1255605"><ele>446.0</ele><time>2026-03-29T09:20:25.609Z</time></trkpt><trkpt lat="43.246234" lon="12.125704"><ele>445.0</ele><time>2026-03-29T09:20:26.644Z</time></trkpt><trkpt lat="43.2462571" lon="12.1258697"><ele>444.0</ele><time>2026-03-29T09:20:27.643Z</time></trkpt><trkpt lat="43.246325" lon="12.1260729"><ele>443.0</ele><time>2026-03-29T09:20:28.615Z</time></trkpt><trkpt lat="43.2463774" lon="12.1262778"><ele>442.0</ele><time>2026-03-29T09:20:29.602Z</time></trkpt><trkpt lat="43.2464141" lon="12.1264817"><ele>441.25</ele><time>2026-03-29T09:20:30.586Z</time></trkpt><trkpt lat="43.2464075" lon="12.1266829"><ele>440.5</ele><time>2026-03-29T09:20:31.644Z</time></trkpt><trkpt lat="43.2463596" lon="12.1268406"><ele>439.75</ele><time>2026-03-29T09:20:32.609Z</time></trkpt><trkpt lat="43.2462668" lon="12.1270467"><ele>439.0</ele><time>2026-03-29T09:20:33.634Z</time></trkpt><trkpt lat="43.2461759" lon="12.12722"><ele>435.6666666666667</ele><time>2026-03-29T09:20:34.616Z</time></trkpt><trkpt lat="43.2460923" lon="12.127396"><ele>432.33333333333337</ele><time>2026-03-29T09:20:35.657Z</time></trkpt><trkpt lat="43.2460328" lon="12.1275713"><ele>429.0</ele><time>2026-03-29T09:20:36.615Z</time></trkpt><trkpt lat="43.2459967" lon="12.1277804"><ele>429.0</ele><time>2026-03-29T09:20:37.636Z</time></trkpt><trkpt lat="43.2459764" lon="12.1279938"><ele>429.0</ele><time>2026-03-29T09:20:38.649Z</time></trkpt><trkpt lat="43.2459994" lon="12.1282269"><ele>429.0</ele><time>2026-03-29T09:20:39.651Z</time></trkpt><trkpt lat="43.2460775" lon="12.1285082"><ele>426.33333333333337</ele><time>2026-03-29T09:20:40.639Z</time></trkpt><trkpt lat="43.2461369" lon="12.1287817"><ele>423.6666666666667</ele><time>2026-03-29T09:20:41.613Z</time></trkpt><trkpt lat="43.2461701" lon="12.1290555"><ele>421.0</ele><time>2026-03-29T09:20:42.605Z</time></trkpt><trkpt lat="43.2461592" lon="12.1292957"><ele>419.4</ele><time>2026-03-29T09:20:43.593Z</time></trkpt><trkpt lat="43.2461341" lon="12.129516"><ele>417.8</ele><time>2026-03-29T09:20:44.635Z</time></trkpt><trkpt lat="43.2461154" lon="12.1296667"><ele>416.2</ele><time>2026-03-29T09:20:45.599Z</time></trkpt><trkpt lat="43.246087" lon="12.1297744"><ele>414.59999999999997</ele><time>2026-03-29T09:20:46.599Z</time></trkpt><trkpt lat="43.2460733" lon="12.1298836"><ele>413.0</ele><time>2026-03-29T09:20:47.596Z</time></trkpt><trkpt lat="43.2460935" lon="12.1299684"><ele>410.75</ele><time>2026-03-29T09:20:48.603Z</time></trkpt><trkpt lat="43.2462484" lon="12.1300277"><ele>408.5</ele><time>2026-03-29T09:20:50.636Z</time></trkpt><trkpt lat="43.2463421" lon="12.1300305"><ele>406.25</ele><time>2026-03-29T09:20:51.61Z</time></trkpt><trkpt lat="43.2464904" lon="12.1299793"><ele>404.0</ele><time>2026-03-29T09:20:52.612Z</time></trkpt><trkpt lat="43.2466425" lon="12.1299238"><ele>403.66666666666663</ele><time>2026-03-29T09:20:53.631Z</time></trkpt><trkpt lat="43.2467722" lon="12.1298205"><ele>403.33333333333337</ele><time>2026-03-29T09:20:54.593Z</time></trkpt><trkpt lat="43.2469005" lon="12.129693"><ele>403.0</ele><time>2026-03-29T09:20:55.646Z</time></trkpt><trkpt lat="43.2470302" lon="12.1295506"><ele>403.0</ele><time>2026-03-29T09:20:56.605Z</time></trkpt><trkpt lat="43.2471534" lon="12.1294563"><ele>403.0</ele><time>2026-03-29T09:20:57.619Z</time></trkpt><trkpt lat="43.2473217" lon="12.1293277"><ele>403.0</ele><time>2026-03-29T09:20:58.939Z</time></trkpt><trkpt lat="43.2476581" lon="12.1294135"><ele>400.75</ele><time>2026-03-29T09:21:00.681Z</time></trkpt><trkpt lat="43.2477748" lon="12.1293858"><ele>398.5</ele><time>2026-03-29T09:21:01.657Z</time></trkpt><trkpt lat="43.2479285" lon="12.1293109"><ele>396.25</ele><time>2026-03-29T09:21:02.659Z</time></trkpt><trkpt lat="43.248048" lon="12.1291549"><ele>394.0</ele><time>2026-03-29T09:21:03.653Z</time></trkpt><trkpt lat="43.2481979" lon="12.1290087"><ele>392.6666666666667</ele><time>2026-03-29T09:21:04.668Z</time></trkpt><trkpt lat="43.2483097" lon="12.1288772"><ele>391.33333333333337</ele><time>2026-03-29T09:21:05.667Z</time></trkpt><trkpt lat="43.2484296" lon="12.128763"><ele>390.0</ele><time>2026-03-29T09:21:06.659Z</time></trkpt><trkpt lat="43.2485687" lon="12.1286502"><ele>390.0</ele><time>2026-03-29T09:21:07.675Z</time></trkpt><trkpt lat="43.2486717" lon="12.1285256"><ele>390.0</ele><time>2026-03-29T09:21:08.591Z</time></trkpt><trkpt lat="43.2487699" lon="12.1284155"><ele>390.0</ele><time>2026-03-29T09:21:09.63Z</time></trkpt><trkpt lat="43.2488323" lon="12.1283264"><ele>390.0</ele><time>2026-03-29T09:21:10.597Z</time></trkpt><trkpt lat="43.2488898" lon="12.128266"><ele>390.0</ele><time>2026-03-29T09:21:11.618Z</time></trkpt><trkpt lat="43.2489275" lon="12.1283727"><ele>390.0</ele><time>2026-03-29T09:21:14.645Z</time></trkpt><trkpt lat="43.2489393" lon="12.1284777"><ele>390.0</ele><time>2026-03-29T09:21:15.596Z</time></trkpt><trkpt lat="43.2489052" lon="12.1287645"><ele>390.0</ele><time>2026-03-29T09:21:16.596Z</time></trkpt><trkpt lat="43.2488474" lon="12.1290603"><ele>387.75</ele><time>2026-03-29T09:21:17.599Z</time></trkpt><trkpt lat="43.2488345" lon="12.1292051"><ele>385.5</ele><time>2026-03-29T09:21:18.6Z</time></trkpt><trkpt lat="43.2487806" lon="12.1293773"><ele>383.25</ele><time>2026-03-29T09:21:19.608Z</time></trkpt><trkpt lat="43.2487577" lon="12.1295232"><ele>381.0</ele><time>2026-03-29T09:21:20.616Z</time></trkpt><trkpt lat="43.2487304" lon="12.1296717"><ele>381.0</ele><time>2026-03-29T09:21:21.608Z</time></trkpt><trkpt lat="43.2487027" lon="12.1298613"><ele>381.0</ele><time>2026-03-29T09:21:22.933Z</time></trkpt><trkpt lat="43.24896" lon="12.1295784"><ele>378.8</ele><time>2026-03-29T09:21:24.656Z</time></trkpt><trkpt lat="43.2490323" lon="12.1294626"><ele>376.6</ele><time>2026-03-29T09:21:25.659Z</time></trkpt><trkpt lat="43.2491218" lon="12.1293836"><ele>374.4</ele><time>2026-03-29T09:21:26.675Z</time></trkpt><trkpt lat="43.2492099" lon="12.129356"><ele>372.2</ele><time>2026-03-29T09:21:27.658Z</time></trkpt><trkpt lat="43.2493068" lon="12.1293866"><ele>370.0</ele><time>2026-03-29T09:21:28.657Z</time></trkpt><trkpt lat="43.249423" lon="12.1294645"><ele>370.0</ele><time>2026-03-29T09:21:29.656Z</time></trkpt><trkpt lat="43.2494888" lon="12.12956"><ele>370.0</ele><time>2026-03-29T09:21:30.664Z</time></trkpt><trkpt lat="43.249542" lon="12.1297662"><ele>370.0</ele><time>2026-03-29T09:21:31.672Z</time></trkpt><trkpt lat="43.2495909" lon="12.1299481"><ele>370.0</ele><time>2026-03-29T09:21:32.657Z</time></trkpt><trkpt lat="43.2495833" lon="12.1301405"><ele>368.5</ele><time>2026-03-29T09:21:33.681Z</time></trkpt><trkpt lat="43.2495437" lon="12.1303311"><ele>367.0</ele><time>2026-03-29T09:21:34.682Z</time></trkpt><trkpt lat="43.2494651" lon="12.1304752"><ele>365.5</ele><time>2026-03-29T09:21:35.668Z</time></trkpt><trkpt lat="43.2493908" lon="12.1306193"><ele>364.0</ele><time>2026-03-29T09:21:36.65Z</time></trkpt><trkpt lat="43.2493153" lon="12.130746"><ele>362.2</ele><time>2026-03-29T09:21:37.657Z</time></trkpt><trkpt lat="43.2492505" lon="12.1308649"><ele>360.4</ele><time>2026-03-29T09:21:38.659Z</time></trkpt><trkpt lat="43.2492006" lon="12.1309745"><ele>358.6</ele><time>2026-03-29T09:21:39.659Z</time></trkpt><trkpt lat="43.2491763" lon="12.1310846"><ele>356.8</ele><time>2026-03-29T09:21:40.663Z</time></trkpt><trkpt lat="43.2492003" lon="12.1311712"><ele>355.0</ele><time>2026-03-29T09:21:41.663Z</time></trkpt><trkpt lat="43.2493009" lon="12.1312418"><ele>355.0</ele><time>2026-03-29T09:21:43.655Z</time></trkpt><trkpt lat="43.2494008" lon="12.1312241"><ele>355.0</ele><time>2026-03-29T09:21:44.65Z</time></trkpt><trkpt lat="43.2495256" lon="12.131169"><ele>355.0</ele><time>2026-03-29T09:21:45.669Z</time></trkpt><trkpt lat="43.2496119" lon="12.1310548"><ele>355.0</ele><time>2026-03-29T09:21:46.66Z</time></trkpt><trkpt lat="43.2497209" lon="12.1310102"><ele>352.5</ele><time>2026-03-29T09:21:47.641Z</time></trkpt><trkpt lat="43.2498453" lon="12.1309781"><ele>350.0</ele><time>2026-03-29T09:21:48.682Z</time></trkpt><trkpt lat="43.2499657" lon="12.1309861"><ele>347.5</ele><time>2026-03-29T09:21:49.655Z</time></trkpt><trkpt lat="43.2501183" lon="12.1310222"><ele>345.0</ele><time>2026-03-29T09:21:50.666Z</time></trkpt><trkpt lat="43.2502645" lon="12.1310231"><ele>345.0</ele><time>2026-03-29T09:21:51.661Z</time></trkpt><trkpt lat="43.2504302" lon="12.1310127"><ele>345.0</ele><time>2026-03-29T09:21:52.667Z</time></trkpt><trkpt lat="43.2506092" lon="12.1309722"><ele>345.0</ele><time>2026-03-29T09:21:53.651Z</time></trkpt><trkpt lat="43.2507853" lon="12.1309124"><ele>344.0</ele><time>2026-03-29T09:21:54.671Z</time></trkpt><trkpt lat="43.250895" lon="12.1308317"><ele>343.0</ele><time>2026-03-29T09:21:55.657Z</time></trkpt><trkpt lat="43.2510027" lon="12.1307384"><ele>342.0</ele><time>2026-03-29T09:21:56.676Z</time></trkpt><trkpt lat="43.2510888" lon="12.1306835"><ele>341.0</ele><time>2026-03-29T09:21:57.67Z</time></trkpt><trkpt lat="43.2511692" lon="12.1306358"><ele>340.0</ele><time>2026-03-29T09:21:58.681Z</time></trkpt><trkpt lat="43.251227" lon="12.1305977"><ele>340.0</ele><time>2026-03-29T09:21:59.653Z</time></trkpt><trkpt lat="43.2513201" lon="12.1305978"><ele>340.0</ele><time>2026-03-29T09:22:01.668Z</time></trkpt><trkpt lat="43.2513231" lon="12.1307382"><ele>340.0</ele><time>2026-03-29T09:22:03.687Z</time></trkpt><trkpt lat="43.2512952" lon="12.1308236"><ele>340.0</ele><time>2026-03-29T09:22:04.644Z</time></trkpt><trkpt lat="43.2512347" lon="12.1309271"><ele>340.0</ele><time>2026-03-29T09:22:05.602Z</time></trkpt><trkpt lat="43.2511368" lon="12.1310382"><ele>339.4</ele><time>2026-03-29T09:22:06.594Z</time></trkpt><trkpt lat="43.251048" lon="12.131154"><ele>338.8</ele><time>2026-03-29T09:22:07.62Z</time></trkpt><trkpt lat="43.2509844" lon="12.1312816"><ele>338.20000000000005</ele><time>2026-03-29T09:22:08.64Z</time></trkpt><trkpt lat="43.2509753" lon="12.1313753"><ele>337.6</ele><time>2026-03-29T09:22:09.599Z</time></trkpt><trkpt lat="43.2509961" lon="12.131497"><ele>337.0</ele><time>2026-03-29T09:22:11.614Z</time></trkpt><trkpt lat="43.251054" lon="12.1315374"><ele>337.0</ele><time>2026-03-29T09:22:12.637Z</time></trkpt><trkpt lat="43.2511446" lon="12.1315131"><ele>337.0</ele><time>2026-03-29T09:22:13.596Z</time></trkpt><trkpt lat="43.2512944" lon="12.1315311"><ele>337.0</ele><time>2026-03-29T09:22:14.626Z</time></trkpt><trkpt lat="43.2514588" lon="12.1315742"><ele>337.0</ele><time>2026-03-29T09:22:15.639Z</time></trkpt><trkpt lat="43.2516526" lon="12.1316183"><ele>334.0</ele><time>2026-03-29T09:22:16.636Z</time></trkpt><trkpt lat="43.2518185" lon="12.1316596"><ele>331.0</ele><time>2026-03-29T09:22:17.621Z</time></trkpt><trkpt lat="43.2519386" lon="12.1317008"><ele>328.0</ele><time>2026-03-29T09:22:18.609Z</time></trkpt><trkpt lat="43.2520409" lon="12.131774"><ele>325.0</ele><time>2026-03-29T09:22:19.602Z</time></trkpt><trkpt lat="43.2521404" lon="12.1319077"><ele>325.0</ele><time>2026-03-29T09:22:20.626Z</time></trkpt><trkpt lat="43.2522511" lon="12.1320693"><ele>325.0</ele><time>2026-03-29T09:22:21.594Z</time></trkpt><trkpt lat="43.2523267" lon="12.1322564"><ele>325.0</ele><time>2026-03-29T09:22:22.633Z</time></trkpt><trkpt lat="43.2523852" lon="12.1324191"><ele>321.5</ele><time>2026-03-29T09:22:23.604Z</time></trkpt><trkpt lat="43.252402" lon="12.1326116"><ele>318.0</ele><time>2026-03-29T09:22:24.617Z</time></trkpt><trkpt lat="43.2523945" lon="12.1328064"><ele>314.5</ele><time>2026-03-29T09:22:25.616Z</time></trkpt><trkpt lat="43.2523493" lon="12.1329791"><ele>311.0</ele><time>2026-03-29T09:22:26.596Z</time></trkpt><trkpt lat="43.2522991" lon="12.133167"><ele>316.33333333333337</ele><time>2026-03-29T09:22:27.61Z</time></trkpt><trkpt lat="43.2521939" lon="12.1333643"><ele>321.6666666666667</ele><time>2026-03-29T09:22:28.637Z</time></trkpt><trkpt lat="43.2520646" lon="12.1335256"><ele>327.0</ele><time>2026-03-29T09:22:29.628Z</time></trkpt><trkpt lat="43.2518783" lon="12.1337187"><ele>327.0</ele><time>2026-03-29T09:22:30.644Z</time></trkpt><trkpt lat="43.2517173" lon="12.1338693"><ele>327.0</ele><time>2026-03-29T09:22:31.604Z</time></trkpt><trkpt lat="43.2516061" lon="12.1340408"><ele>327.0</ele><time>2026-03-29T09:22:32.635Z</time></trkpt><trkpt lat="43.2514935" lon="12.1342197"><ele>328.6666666666667</ele><time>2026-03-29T09:22:33.612Z</time></trkpt><trkpt lat="43.2513821" lon="12.1343878"><ele>330.33333333333337</ele><time>2026-03-29T09:22:34.612Z</time></trkpt><trkpt lat="43.251265" lon="12.1345267"><ele>332.0</ele><time>2026-03-29T09:22:35.602Z</time></trkpt><trkpt lat="43.251133" lon="12.134682"><ele>332.0</ele><time>2026-03-29T09:22:36.637Z</time></trkpt><trkpt lat="43.2510231" lon="12.1348537"><ele>332.0</ele><time>2026-03-29T09:22:37.595Z</time></trkpt><trkpt lat="43.2509196" lon="12.1350807"><ele>332.0</ele><time>2026-03-29T09:22:38.6Z</time></trkpt><trkpt lat="43.2508236" lon="12.1353463"><ele>329.33333333333337</ele><time>2026-03-29T09:22:39.608Z</time></trkpt><trkpt lat="43.2507612" lon="12.135606"><ele>326.6666666666667</ele><time>2026-03-29T09:22:40.59Z</time></trkpt><trkpt lat="43.2506809" lon="12.135876"><ele>324.0</ele><time>2026-03-29T09:22:41.644Z</time></trkpt><trkpt lat="43.2506156" lon="12.1361162"><ele>324.0</ele><time>2026-03-29T09:22:42.604Z</time></trkpt><trkpt lat="43.250543" lon="12.1363508"><ele>324.0</ele><time>2026-03-29T09:22:43.604Z</time></trkpt><trkpt lat="43.2504528" lon="12.1365654"><ele>324.0</ele><time>2026-03-29T09:22:44.606Z</time></trkpt><trkpt lat="43.2503557" lon="12.1367703"><ele>319.3333333333333</ele><time>2026-03-29T09:22:45.615Z</time></trkpt><trkpt lat="43.2502436" lon="12.1369528"><ele>314.66666666666663</ele><time>2026-03-29T09:22:46.625Z</time></trkpt><trkpt lat="43.2501258" lon="12.1371162"><ele>310.0</ele><time>2026-03-29T09:22:47.608Z</time></trkpt><trkpt lat="43.2500172" lon="12.1373019"><ele>308.75</ele><time>2026-03-29T09:22:48.64Z</time></trkpt><trkpt lat="43.2499415" lon="12.1374591"><ele>307.5</ele><time>2026-03-29T09:22:49.6Z</time></trkpt><trkpt lat="43.2498831" lon="12.1376209"><ele>306.25</ele><time>2026-03-29T09:22:50.603Z</time></trkpt><trkpt lat="43.2498382" lon="12.1377712"><ele>305.0</ele><time>2026-03-29T09:22:51.587Z</time></trkpt><trkpt lat="43.2498031" lon="12.1379265"><ele>309.2</ele><time>2026-03-29T09:22:52.603Z</time></trkpt><trkpt lat="43.2497589" lon="12.1380802"><ele>313.4</ele><time>2026-03-29T09:22:53.616Z</time></trkpt><trkpt lat="43.2497189" lon="12.1382196"><ele>317.6</ele><time>2026-03-29T09:22:54.617Z</time></trkpt><trkpt lat="43.2496777" lon="12.1383618"><ele>321.8</ele><time>2026-03-29T09:22:55.632Z</time></trkpt><trkpt lat="43.2496431" lon="12.1384878"><ele>326.0</ele><time>2026-03-29T09:22:56.616Z</time></trkpt><trkpt lat="43.2496119" lon="12.1386005"><ele>326.0</ele><time>2026-03-29T09:22:57.601Z</time></trkpt><trkpt lat="43.2495974" lon="12.1387115"><ele>326.0</ele><time>2026-03-29T09:22:58.605Z</time></trkpt><trkpt lat="43.249604" lon="12.1388092"><ele>326.0</ele><time>2026-03-29T09:22:59.609Z</time></trkpt><trkpt lat="43.2497019" lon="12.1389044"><ele>326.0</ele><time>2026-03-29T09:23:01.608Z</time></trkpt><trkpt lat="43.2498176" lon="12.1389193"><ele>326.0</ele><time>2026-03-29T09:23:02.627Z</time></trkpt><trkpt lat="43.2499314" lon="12.13892"><ele>317.33333333333337</ele><time>2026-03-29T09:23:03.604Z</time></trkpt><trkpt lat="43.2501193" lon="12.138928"><ele>308.6666666666667</ele><time>2026-03-29T09:23:04.594Z</time></trkpt><trkpt lat="43.2503636" lon="12.1389488"><ele>300.0</ele><time>2026-03-29T09:23:05.604Z</time></trkpt><trkpt lat="43.2505945" lon="12.1389711"><ele>299.3333333333333</ele><time>2026-03-29T09:23:06.617Z</time></trkpt><trkpt lat="43.2508132" lon="12.1390014"><ele>298.66666666666663</ele><time>2026-03-29T09:23:07.611Z</time></trkpt><trkpt lat="43.2510241" lon="12.1390204"><ele>298.0</ele><time>2026-03-29T09:23:08.61Z</time></trkpt><trkpt lat="43.2512254" lon="12.1390506"><ele>298.0</ele><time>2026-03-29T09:23:09.616Z</time></trkpt><trkpt lat="43.2514147" lon="12.1390742"><ele>298.0</ele><time>2026-03-29T09:23:10.598Z</time></trkpt><trkpt lat="43.2515976" lon="12.139092"><ele>298.0</ele><time>2026-03-29T09:23:11.602Z</time></trkpt><trkpt lat="43.251773" lon="12.1391035"><ele>298.3333333333333</ele><time>2026-03-29T09:23:12.602Z</time></trkpt><trkpt lat="43.2519454" lon="12.1391171"><ele>298.6666666666667</ele><time>2026-03-29T09:23:13.605Z</time></trkpt><trkpt lat="43.2521277" lon="12.1391362"><ele>299.0</ele><time>2026-03-29T09:23:14.621Z</time></trkpt><trkpt lat="43.2523014" lon="12.1391617"><ele>299.33333333333337</ele><time>2026-03-29T09:23:15.594Z</time></trkpt><trkpt lat="43.2524844" lon="12.1391859"><ele>299.6666666666667</ele><time>2026-03-29T09:23:16.621Z</time></trkpt><trkpt lat="43.2526497" lon="12.1392135"><ele>300.0</ele><time>2026-03-29T09:23:17.598Z</time></trkpt><trkpt lat="43.2528193" lon="12.1392366"><ele>300.0</ele><time>2026-03-29T09:23:18.603Z</time></trkpt><trkpt lat="43.2529605" lon="12.1392496"><ele>300.0</ele><time>2026-03-29T09:23:19.604Z</time></trkpt><trkpt lat="43.2530895" lon="12.1392619"><ele>300.0</ele><time>2026-03-29T09:23:20.604Z</time></trkpt><trkpt lat="43.2531903" lon="12.1392723"><ele>300.0</ele><time>2026-03-29T09:23:21.607Z</time></trkpt><trkpt lat="43.2532788" lon="12.1392855"><ele>300.3333333333333</ele><time>2026-03-29T09:23:22.618Z</time></trkpt><trkpt lat="43.2533574" lon="12.1392883"><ele>300.6666666666667</ele><time>2026-03-29T09:23:23.597Z</time></trkpt><trkpt lat="43.2534633" lon="12.1392999"><ele>301.0</ele><time>2026-03-29T09:23:25.607Z</time></trkpt><trkpt lat="43.2535364" lon="12.1393094"><ele>301.33333333333337</ele><time>2026-03-29T09:23:28.614Z</time></trkpt><trkpt lat="43.2536008" lon="12.1393046"><ele>301.6666666666667</ele><time>2026-03-29T09:23:30.603Z</time></trkpt><trkpt lat="43.2537156" lon="12.1393094"><ele>302.0</ele><time>2026-03-29T09:23:32.59Z</time></trkpt><trkpt lat="43.2538091" lon="12.1393309"><ele>302.0</ele><time>2026-03-29T09:23:33.609Z</time></trkpt><trkpt lat="43.2539303" lon="12.139368"><ele>302.0</ele><time>2026-03-29T09:23:34.612Z</time></trkpt><trkpt lat="43.2540753" lon="12.1393853"><ele>302.0</ele><time>2026-03-29T09:23:35.593Z</time></trkpt><trkpt lat="43.2542322" lon="12.1394059"><ele>302.0</ele><time>2026-03-29T09:23:36.598Z</time></trkpt><trkpt lat="43.2543852" lon="12.1394122"><ele>302.25</ele><time>2026-03-29T09:23:37.605Z</time></trkpt><trkpt lat="43.2545262" lon="12.1394172"><ele>302.5</ele><time>2026-03-29T09:23:38.597Z</time></trkpt><trkpt lat="43.2546692" lon="12.1394196"><ele>302.75</ele><time>2026-03-29T09:23:39.613Z</time></trkpt><trkpt lat="43.2547874" lon="12.1394331"><ele>303.0</ele><time>2026-03-29T09:23:40.601Z</time></trkpt><trkpt lat="43.2548906" lon="12.139448"><ele>303.2</ele><time>2026-03-29T09:23:41.648Z</time></trkpt><trkpt lat="43.2550039" lon="12.1394549"><ele>303.4</ele><time>2026-03-29T09:23:43.611Z</time></trkpt><trkpt lat="43.2550547" lon="12.1395243"><ele>303.59999999999997</ele><time>2026-03-29T09:23:48.611Z</time></trkpt><trkpt lat="43.2552346" lon="12.1394784"><ele>303.8</ele><time>2026-03-29T09:23:52.604Z</time></trkpt><trkpt lat="43.2552987" lon="12.1394149"><ele>304.0</ele><time>2026-03-29T09:23:53.603Z</time></trkpt><trkpt lat="43.255364" lon="12.1393296"><ele>304.0</ele><time>2026-03-29T09:23:54.594Z</time></trkpt><trkpt lat="43.2554229" lon="12.139245"><ele>304.0</ele><time>2026-03-29T09:23:55.629Z</time></trkpt><trkpt lat="43.2554716" lon="12.1391368"><ele>304.0</ele><time>2026-03-29T09:23:56.637Z</time></trkpt><trkpt lat="43.2555255" lon="12.1390157"><ele>304.0</ele><time>2026-03-29T09:23:57.653Z</time></trkpt><trkpt lat="43.2555293" lon="12.1388916"><ele>304.0</ele><time>2026-03-29T09:23:58.604Z</time></trkpt><trkpt lat="43.2555413" lon="12.1387321"><ele>303.5</ele><time>2026-03-29T09:23:59.624Z</time></trkpt><trkpt lat="43.2555521" lon="12.1385648"><ele>303.0</ele><time>2026-03-29T09:24:00.624Z</time></trkpt><trkpt lat="43.2555527" lon="12.1383735"><ele>302.5</ele><time>2026-03-29T09:24:01.616Z</time></trkpt><trkpt lat="43.2555627" lon="12.1381751"><ele>302.0</ele><time>2026-03-29T09:24:02.603Z</time></trkpt><trkpt lat="43.2555894" lon="12.1379847"><ele>302.0</ele><time>2026-03-29T09:24:03.601Z</time></trkpt><trkpt lat="43.2556168" lon="12.1377973"><ele>302.0</ele><time>2026-03-29T09:24:04.605Z</time></trkpt><trkpt lat="43.2556278" lon="12.1375942"><ele>302.0</ele><time>2026-03-29T09:24:05.616Z</time></trkpt><trkpt lat="43.2556328" lon="12.1374103"><ele>302.0</ele><time>2026-03-29T09:24:06.644Z</time></trkpt><trkpt lat="43.2556304" lon="12.1371901"><ele>304.0</ele><time>2026-03-29T09:24:07.606Z</time></trkpt><trkpt lat="43.2556286" lon="12.136947"><ele>306.0</ele><time>2026-03-29T09:24:08.607Z</time></trkpt><trkpt lat="43.255626" lon="12.1367444"><ele>308.0</ele><time>2026-03-29T09:24:09.6Z</time></trkpt><trkpt lat="43.2556216" lon="12.1365372"><ele>308.75</ele><time>2026-03-29T09:24:10.618Z</time></trkpt><trkpt lat="43.2556308" lon="12.1363327"><ele>309.5</ele><time>2026-03-29T09:24:11.6Z</time></trkpt><trkpt lat="43.2556543" lon="12.1361229"><ele>310.25</ele><time>2026-03-29T09:24:12.618Z</time></trkpt><trkpt lat="43.2556535" lon="12.1359352"><ele>311.0</ele><time>2026-03-29T09:24:13.609Z</time></trkpt><trkpt lat="43.2556596" lon="12.1357229"><ele>311.0</ele><time>2026-03-29T09:24:14.645Z</time></trkpt><trkpt lat="43.2556664" lon="12.1355277"><ele>311.0</ele><time>2026-03-29T09:24:15.595Z</time></trkpt><trkpt lat="43.2556866" lon="12.1353288"><ele>311.0</ele><time>2026-03-29T09:24:16.623Z</time></trkpt><trkpt lat="43.2556848" lon="12.1351367"><ele>311.0</ele><time>2026-03-29T09:24:17.602Z</time></trkpt><trkpt lat="43.2556919" lon="12.1349382"><ele>311.0</ele><time>2026-03-29T09:24:18.614Z</time></trkpt><trkpt lat="43.2556985" lon="12.1347356"><ele>311.0</ele><time>2026-03-29T09:24:19.599Z</time></trkpt><trkpt lat="43.255699" lon="12.1345106"><ele>311.0</ele><time>2026-03-29T09:24:20.601Z</time></trkpt><trkpt lat="43.2557027" lon="12.1342236"><ele>310.0</ele><time>2026-03-29T09:24:21.915Z</time></trkpt><trkpt lat="43.2556766" lon="12.133761"><ele>309.0</ele><time>2026-03-29T09:24:23.666Z</time></trkpt><trkpt lat="43.2556705" lon="12.1335142"><ele>309.0</ele><time>2026-03-29T09:24:24.661Z</time></trkpt><trkpt lat="43.2556646" lon="12.1332607"><ele>309.0</ele><time>2026-03-29T09:24:25.662Z</time></trkpt><trkpt lat="43.2556657" lon="12.1330018"><ele>309.0</ele><time>2026-03-29T09:24:26.654Z</time></trkpt><trkpt lat="43.2556644" lon="12.1327333"><ele>307.6666666666667</ele><time>2026-03-29T09:24:27.66Z</time></trkpt><trkpt lat="43.2556593" lon="12.1324558"><ele>306.33333333333337</ele><time>2026-03-29T09:24:28.664Z</time></trkpt><trkpt lat="43.2556568" lon="12.1321684"><ele>305.0</ele><time>2026-03-29T09:24:29.658Z</time></trkpt><trkpt lat="43.2556599" lon="12.1318697"><ele>304.6666666666667</ele><time>2026-03-29T09:24:30.679Z</time></trkpt><trkpt lat="43.2556628" lon="12.1315797"><ele>304.3333333333333</ele><time>2026-03-29T09:24:31.656Z</time></trkpt><trkpt lat="43.2556618" lon="12.131261"><ele>304.0</ele><time>2026-03-29T09:24:32.688Z</time></trkpt><trkpt lat="43.2556609" lon="12.1309391"><ele>306.5</ele><time>2026-03-29T09:24:33.675Z</time></trkpt><trkpt lat="43.2556579" lon="12.1306084"><ele>309.0</ele><time>2026-03-29T09:24:34.678Z</time></trkpt><trkpt lat="43.2556545" lon="12.1302804"><ele>309.0</ele><time>2026-03-29T09:24:35.657Z</time></trkpt><trkpt lat="43.2556509" lon="12.1299382"><ele>309.0</ele><time>2026-03-29T09:24:36.672Z</time></trkpt><trkpt lat="43.2556495" lon="12.1296084"><ele>309.5</ele><time>2026-03-29T09:24:37.674Z</time></trkpt><trkpt lat="43.2556482" lon="12.12929"><ele>310.0</ele><time>2026-03-29T09:24:38.662Z</time></trkpt><trkpt lat="43.2556519" lon="12.1289684"><ele>310.5</ele><time>2026-03-29T09:24:39.668Z</time></trkpt><trkpt lat="43.2556692" lon="12.1286655"><ele>311.0</ele><time>2026-03-29T09:24:40.612Z</time></trkpt><trkpt lat="43.2556992" lon="12.1283365"><ele>313.0</ele><time>2026-03-29T09:24:41.634Z</time></trkpt><trkpt lat="43.2557458" lon="12.1280357"><ele>315.0</ele><time>2026-03-29T09:24:42.605Z</time></trkpt><trkpt lat="43.2557925" lon="12.1277303"><ele>315.0</ele><time>2026-03-29T09:24:43.603Z</time></trkpt><trkpt lat="43.2558334" lon="12.1274335"><ele>315.0</ele><time>2026-03-29T09:24:44.595Z</time></trkpt><trkpt lat="43.2558744" lon="12.1271177"><ele>314.5</ele><time>2026-03-29T09:24:45.594Z</time></trkpt><trkpt lat="43.2559251" lon="12.1267729"><ele>314.0</ele><time>2026-03-29T09:24:46.618Z</time></trkpt><trkpt lat="43.2559722" lon="12.1264384"><ele>312.5</ele><time>2026-03-29T09:24:47.601Z</time></trkpt><trkpt lat="43.256015" lon="12.1261133"><ele>311.0</ele><time>2026-03-29T09:24:48.603Z</time></trkpt><trkpt lat="43.2560567" lon="12.1257884"><ele>312.0</ele><time>2026-03-29T09:24:49.638Z</time></trkpt><trkpt lat="43.2560905" lon="12.1254897"><ele>313.0</ele><time>2026-03-29T09:24:50.6Z</time></trkpt><trkpt lat="43.2561242" lon="12.1251946"><ele>314.0</ele><time>2026-03-29T09:24:51.613Z</time></trkpt><trkpt lat="43.256157" lon="12.1249016"><ele>314.33333333333337</ele><time>2026-03-29T09:24:52.622Z</time></trkpt><trkpt lat="43.2561888" lon="12.1246412"><ele>314.6666666666667</ele><time>2026-03-29T09:24:53.608Z</time></trkpt><trkpt lat="43.2562119" lon="12.1243998"><ele>315.0</ele><time>2026-03-29T09:24:54.599Z</time></trkpt><trkpt lat="43.2562102" lon="12.1241749"><ele>315.75</ele><time>2026-03-29T09:24:55.635Z</time></trkpt><trkpt lat="43.2561679" lon="12.1240489"><ele>316.5</ele><time>2026-03-29T09:24:56.613Z</time></trkpt><trkpt lat="43.2561018" lon="12.1238721"><ele>317.25</ele><time>2026-03-29T09:24:57.609Z</time></trkpt><trkpt lat="43.2560186" lon="12.1237219"><ele>318.0</ele><time>2026-03-29T09:24:58.624Z</time></trkpt><trkpt lat="43.2559386" lon="12.1235466"><ele>318.0</ele><time>2026-03-29T09:24:59.614Z</time></trkpt><trkpt lat="43.2558885" lon="12.1233308"><ele>318.0</ele><time>2026-03-29T09:25:00.606Z</time></trkpt><trkpt lat="43.2558481" lon="12.1230984"><ele>318.0</ele><time>2026-03-29T09:25:01.599Z</time></trkpt><trkpt lat="43.2558399" lon="12.122854"><ele>318.3333333333333</ele><time>2026-03-29T09:25:02.602Z</time></trkpt><trkpt lat="43.2558408" lon="12.1225644"><ele>318.66666666666663</ele><time>2026-03-29T09:25:03.605Z</time></trkpt><trkpt lat="43.2558454" lon="12.1222533"><ele>319.0</ele><time>2026-03-29T09:25:04.656Z</time></trkpt><trkpt lat="43.2558396" lon="12.1219655"><ele>319.5</ele><time>2026-03-29T09:25:05.621Z</time></trkpt><trkpt lat="43.2558412" lon="12.1216413"><ele>320.0</ele><time>2026-03-29T09:25:06.624Z</time></trkpt><trkpt lat="43.2558465" lon="12.1213394"><ele>321.0</ele><time>2026-03-29T09:25:07.604Z</time></trkpt><trkpt lat="43.255847" lon="12.1210495"><ele>322.0</ele><time>2026-03-29T09:25:08.606Z</time></trkpt><trkpt lat="43.2558411" lon="12.1207795"><ele>323.0</ele><time>2026-03-29T09:25:09.612Z</time></trkpt><trkpt lat="43.2558061" lon="12.1205211"><ele>325.6666666666667</ele><time>2026-03-29T09:25:10.616Z</time></trkpt><trkpt lat="43.255748" lon="12.1202533"><ele>328.3333333333333</ele><time>2026-03-29T09:25:11.612Z</time></trkpt><trkpt lat="43.2556724" lon="12.119991"><ele>331.0</ele><time>2026-03-29T09:25:12.614Z</time></trkpt><trkpt lat="43.2555846" lon="12.1197353"><ele>332.0</ele><time>2026-03-29T09:25:13.633Z</time></trkpt><trkpt lat="43.255504" lon="12.1194819"><ele>333.0</ele><time>2026-03-29T09:25:14.612Z</time></trkpt><trkpt lat="43.2554155" lon="12.1192166"><ele>334.0</ele><time>2026-03-29T09:25:15.614Z</time></trkpt><trkpt lat="43.2553154" lon="12.1189609"><ele>337.0</ele><time>2026-03-29T09:25:16.618Z</time></trkpt><trkpt lat="43.2552211" lon="12.1186979"><ele>340.0</ele><time>2026-03-29T09:25:17.603Z</time></trkpt><trkpt lat="43.2551327" lon="12.1184319"><ele>343.0</ele><time>2026-03-29T09:25:18.607Z</time></trkpt><trkpt lat="43.2550348" lon="12.1181536"><ele>346.0</ele><time>2026-03-29T09:25:19.615Z</time></trkpt><trkpt lat="43.2549594" lon="12.1178955"><ele>349.0</ele><time>2026-03-29T09:25:20.602Z</time></trkpt><trkpt lat="43.2548884" lon="12.1176393"><ele>352.0</ele><time>2026-03-29T09:25:21.619Z</time></trkpt><trkpt lat="43.2548305" lon="12.1174057"><ele>354.0</ele><time>2026-03-29T09:25:22.603Z</time></trkpt><trkpt lat="43.2547893" lon="12.117175"><ele>356.0</ele><time>2026-03-29T09:25:23.616Z</time></trkpt><trkpt lat="43.2547772" lon="12.1169401"><ele>358.0</ele><time>2026-03-29T09:25:24.604Z</time></trkpt><trkpt lat="43.2548037" lon="12.1167293"><ele>360.3333333333333</ele><time>2026-03-29T09:25:25.619Z</time></trkpt><trkpt lat="43.2548504" lon="12.1164747"><ele>362.6666666666667</ele><time>2026-03-29T09:25:26.603Z</time></trkpt><trkpt lat="43.2549197" lon="12.1162025"><ele>365.0</ele><time>2026-03-29T09:25:27.605Z</time></trkpt><trkpt lat="43.2549955" lon="12.1159214"><ele>368.0</ele><time>2026-03-29T09:25:28.639Z</time></trkpt><trkpt lat="43.2550621" lon="12.1156642"><ele>371.0</ele><time>2026-03-29T09:25:29.615Z</time></trkpt><trkpt lat="43.2551223" lon="12.1154002"><ele>374.0</ele><time>2026-03-29T09:25:30.623Z</time></trkpt><trkpt lat="43.2551723" lon="12.1151236"><ele>375.6666666666667</ele><time>2026-03-29T09:25:31.605Z</time></trkpt><trkpt lat="43.2552059" lon="12.1148348"><ele>377.3333333333333</ele><time>2026-03-29T09:25:32.602Z</time></trkpt><trkpt lat="43.2552177" lon="12.11453"><ele>379.0</ele><time>2026-03-29T09:25:33.607Z</time></trkpt><trkpt lat="43.2552105" lon="12.1142126"><ele>382.0</ele><time>2026-03-29T09:25:34.608Z</time></trkpt><trkpt lat="43.2551913" lon="12.113888"><ele>385.0</ele><time>2026-03-29T09:25:35.604Z</time></trkpt><trkpt lat="43.2551712" lon="12.1135677"><ele>390.5</ele><time>2026-03-29T09:25:36.61Z</time></trkpt><trkpt lat="43.2551516" lon="12.1132377"><ele>396.0</ele><time>2026-03-29T09:25:37.611Z</time></trkpt><trkpt lat="43.2551309" lon="12.1129183"><ele>396.0</ele><time>2026-03-29T09:25:38.6Z</time></trkpt><trkpt lat="43.2551086" lon="12.1126038"><ele>396.0</ele><time>2026-03-29T09:25:39.619Z</time></trkpt><trkpt lat="43.2550896" lon="12.1123113"><ele>396.0</ele><time>2026-03-29T09:25:40.608Z</time></trkpt><trkpt lat="43.2550808" lon="12.111999"><ele>400.0</ele><time>2026-03-29T09:25:41.637Z</time></trkpt><trkpt lat="43.2550893" lon="12.1117422"><ele>404.0</ele><time>2026-03-29T09:25:42.596Z</time></trkpt><trkpt lat="43.2551182" lon="12.1114291"><ele>408.0</ele><time>2026-03-29T09:25:43.605Z</time></trkpt><trkpt lat="43.2551622" lon="12.111112"><ele>411.0</ele><time>2026-03-29T09:25:44.609Z</time></trkpt><trkpt lat="43.2552334" lon="12.1107966"><ele>414.0</ele><time>2026-03-29T09:25:45.621Z</time></trkpt><trkpt lat="43.2553194" lon="12.1104802"><ele>420.5</ele><time>2026-03-29T09:25:46.629Z</time></trkpt><trkpt lat="43.2554059" lon="12.1101904"><ele>427.0</ele><time>2026-03-29T09:25:47.631Z</time></trkpt><trkpt lat="43.2554982" lon="12.1099136"><ele>424.6666666666667</ele><time>2026-03-29T09:25:48.6Z</time></trkpt><trkpt lat="43.2555907" lon="12.109641"><ele>422.33333333333337</ele><time>2026-03-29T09:25:49.623Z</time></trkpt><trkpt lat="43.2556718" lon="12.1094005"><ele>420.0</ele><time>2026-03-29T09:25:50.614Z</time></trkpt><trkpt lat="43.2557507" lon="12.1091774"><ele>422.75</ele><time>2026-03-29T09:25:51.621Z</time></trkpt><trkpt lat="43.2558183" lon="12.1089801"><ele>425.5</ele><time>2026-03-29T09:25:52.639Z</time></trkpt><trkpt lat="43.2558686" lon="12.1088126"><ele>428.25</ele><time>2026-03-29T09:25:53.607Z</time></trkpt><trkpt lat="43.255887" lon="12.1086565"><ele>431.0</ele><time>2026-03-29T09:25:54.601Z</time></trkpt><trkpt lat="43.25588" lon="12.1085121"><ele>431.0</ele><time>2026-03-29T09:25:55.602Z</time></trkpt><trkpt lat="43.2558492" lon="12.1083928"><ele>431.0</ele><time>2026-03-29T09:25:56.599Z</time></trkpt><trkpt lat="43.2557997" lon="12.108288"><ele>431.0</ele><time>2026-03-29T09:25:57.599Z</time></trkpt><trkpt lat="43.2557275" lon="12.1082153"><ele>431.0</ele><time>2026-03-29T09:25:58.604Z</time></trkpt><trkpt lat="43.2556225" lon="12.1081706"><ele>431.0</ele><time>2026-03-29T09:25:59.618Z</time></trkpt><trkpt lat="43.2555354" lon="12.1081827"><ele>435.8</ele><time>2026-03-29T09:26:00.644Z</time></trkpt><trkpt lat="43.2554533" lon="12.1082503"><ele>440.6</ele><time>2026-03-29T09:26:01.641Z</time></trkpt><trkpt lat="43.2553818" lon="12.1083651"><ele>445.4</ele><time>2026-03-29T09:26:02.65Z</time></trkpt><trkpt lat="43.2553347" lon="12.1085011"><ele>450.2</ele><time>2026-03-29T09:26:03.669Z</time></trkpt><trkpt lat="43.2552974" lon="12.1086617"><ele>455.0</ele><time>2026-03-29T09:26:04.658Z</time></trkpt><trkpt lat="43.2552643" lon="12.1088678"><ele>450.3333333333333</ele><time>2026-03-29T09:26:05.668Z</time></trkpt><trkpt lat="43.2552301" lon="12.1090839"><ele>445.66666666666663</ele><time>2026-03-29T09:26:06.631Z</time></trkpt><trkpt lat="43.25518" lon="12.1092515"><ele>441.0</ele><time>2026-03-29T09:26:07.621Z</time></trkpt><trkpt lat="43.2551021" lon="12.1094382"><ele>441.0</ele><time>2026-03-29T09:26:08.625Z</time></trkpt><trkpt lat="43.2550004" lon="12.1096206"><ele>441.0</ele><time>2026-03-29T09:26:09.604Z</time></trkpt><trkpt lat="43.2548663" lon="12.1098313"><ele>441.0</ele><time>2026-03-29T09:26:10.669Z</time></trkpt><trkpt lat="43.2547407" lon="12.1099957"><ele>447.66666666666663</ele><time>2026-03-29T09:26:11.613Z</time></trkpt><trkpt lat="43.2546048" lon="12.1101824"><ele>454.3333333333333</ele><time>2026-03-29T09:26:12.612Z</time></trkpt><trkpt lat="43.2544475" lon="12.1103871"><ele>461.0</ele><time>2026-03-29T09:26:13.619Z</time></trkpt><trkpt lat="43.2542949" lon="12.1105934"><ele>463.0</ele><time>2026-03-29T09:26:14.606Z</time></trkpt><trkpt lat="43.2541513" lon="12.1107813"><ele>465.0</ele><time>2026-03-29T09:26:15.601Z</time></trkpt><trkpt lat="43.2540172" lon="12.1109587"><ele>467.0</ele><time>2026-03-29T09:26:16.634Z</time></trkpt><trkpt lat="43.2538873" lon="12.1111174"><ele>467.0</ele><time>2026-03-29T09:26:17.604Z</time></trkpt><trkpt lat="43.253761" lon="12.1112629"><ele>467.0</ele><time>2026-03-29T09:26:18.619Z</time></trkpt><trkpt lat="43.2536469" lon="12.1113631"><ele>467.0</ele><time>2026-03-29T09:26:19.612Z</time></trkpt><trkpt lat="43.2535122" lon="12.1114214"><ele>467.0</ele><time>2026-03-29T09:26:20.607Z</time></trkpt><trkpt lat="43.253401" lon="12.1114307"><ele>467.0</ele><time>2026-03-29T09:26:21.618Z</time></trkpt><trkpt lat="43.2532767" lon="12.1114012"><ele>467.0</ele><time>2026-03-29T09:26:22.595Z</time></trkpt><trkpt lat="43.2531647" lon="12.1113388"><ele>467.0</ele><time>2026-03-29T09:26:23.599Z</time></trkpt><trkpt lat="43.2530517" lon="12.1112519"><ele>467.0</ele><time>2026-03-29T09:26:24.606Z</time></trkpt><trkpt lat="43.2529319" lon="12.1111858"><ele>467.0</ele><time>2026-03-29T09:26:25.651Z</time></trkpt><trkpt lat="43.2528051" lon="12.1111557"><ele>467.0</ele><time>2026-03-29T09:26:26.61Z</time></trkpt><trkpt lat="43.2526504" lon="12.1111436"><ele>467.0</ele><time>2026-03-29T09:26:27.66Z</time></trkpt><trkpt lat="43.2525125" lon="12.1111557"><ele>467.0</ele><time>2026-03-29T09:26:28.637Z</time></trkpt><trkpt lat="43.2523584" lon="12.1111985"><ele>469.0</ele><time>2026-03-29T09:26:29.646Z</time></trkpt><trkpt lat="43.2521858" lon="12.1112171"><ele>471.0</ele><time>2026-03-29T09:26:30.644Z</time></trkpt><trkpt lat="43.252017" lon="12.1111951"><ele>473.0</ele><time>2026-03-29T09:26:31.657Z</time></trkpt><trkpt lat="43.2518267" lon="12.1111034"><ele>473.0</ele><time>2026-03-29T09:26:32.616Z</time></trkpt><trkpt lat="43.2515924" lon="12.1109949"><ele>473.0</ele><time>2026-03-29T09:26:33.607Z</time></trkpt><trkpt lat="43.2513841" lon="12.1108842"><ele>482.3333333333333</ele><time>2026-03-29T09:26:34.614Z</time></trkpt><trkpt lat="43.2511502" lon="12.1107189"><ele>491.66666666666663</ele><time>2026-03-29T09:26:35.607Z</time></trkpt><trkpt lat="43.251069" lon="12.1105714"><ele>501.0</ele><time>2026-03-29T09:26:36.612Z</time></trkpt><trkpt lat="43.2508993" lon="12.1103938"><ele>501.0</ele><time>2026-03-29T09:26:37.605Z</time></trkpt><trkpt lat="43.2507175" lon="12.110172"><ele>501.0</ele><time>2026-03-29T09:26:38.611Z</time></trkpt><trkpt lat="43.2505441" lon="12.1099218"><ele>502.0</ele><time>2026-03-29T09:26:39.611Z</time></trkpt><trkpt lat="43.2504075" lon="12.1096677"><ele>503.0</ele><time>2026-03-29T09:26:40.602Z</time></trkpt><trkpt lat="43.2502848" lon="12.1094546"><ele>504.0</ele><time>2026-03-29T09:26:41.628Z</time></trkpt><trkpt lat="43.2501611" lon="12.1092948"><ele>504.0</ele><time>2026-03-29T09:26:42.617Z</time></trkpt><trkpt lat="43.250011" lon="12.1091732"><ele>504.0</ele><time>2026-03-29T09:26:43.649Z</time></trkpt><trkpt lat="43.249848" lon="12.1090825"><ele>504.0</ele><time>2026-03-29T09:26:44.666Z</time></trkpt><trkpt lat="43.2496902" lon="12.1090117"><ele>509.33333333333337</ele><time>2026-03-29T09:26:45.64Z</time></trkpt><trkpt lat="43.2495263" lon="12.1089591"><ele>514.6666666666667</ele><time>2026-03-29T09:26:46.627Z</time></trkpt><trkpt lat="43.2493722" lon="12.1089114"><ele>520.0</ele><time>2026-03-29T09:26:47.602Z</time></trkpt><trkpt lat="43.2492133" lon="12.1088681"><ele>520.0</ele><time>2026-03-29T09:26:48.611Z</time></trkpt><trkpt lat="43.2490538" lon="12.1088154"><ele>520.0</ele><time>2026-03-29T09:26:49.611Z</time></trkpt><trkpt lat="43.2489171" lon="12.1087575"><ele>520.0</ele><time>2026-03-29T09:26:50.611Z</time></trkpt><trkpt lat="43.248777" lon="12.1086513"><ele>519.25</ele><time>2026-03-29T09:26:51.619Z</time></trkpt><trkpt lat="43.2486919" lon="12.1084999"><ele>518.5</ele><time>2026-03-29T09:26:52.619Z</time></trkpt><trkpt lat="43.2486435" lon="12.1083198"><ele>517.75</ele><time>2026-03-29T09:26:53.602Z</time></trkpt><trkpt lat="43.2486173" lon="12.1080991"><ele>517.0</ele><time>2026-03-29T09:26:54.646Z</time></trkpt><trkpt lat="43.2485989" lon="12.1079081"><ele>517.0</ele><time>2026-03-29T09:26:55.605Z</time></trkpt><trkpt lat="43.2485555" lon="12.1077367"><ele>517.0</ele><time>2026-03-29T09:26:56.623Z</time></trkpt><trkpt lat="43.2484979" lon="12.1075791"><ele>517.0</ele><time>2026-03-29T09:26:57.605Z</time></trkpt><trkpt lat="43.2484161" lon="12.1074368"><ele>517.0</ele><time>2026-03-29T09:26:58.637Z</time></trkpt><trkpt lat="43.2483236" lon="12.1073174"><ele>523.25</ele><time>2026-03-29T09:26:59.607Z</time></trkpt><trkpt lat="43.2482244" lon="12.1072187"><ele>529.5</ele><time>2026-03-29T09:27:00.603Z</time></trkpt><trkpt lat="43.2481067" lon="12.1071337"><ele>535.75</ele><time>2026-03-29T09:27:01.656Z</time></trkpt><trkpt lat="43.2479995" lon="12.107097"><ele>542.0</ele><time>2026-03-29T09:27:02.652Z</time></trkpt><trkpt lat="43.2478888" lon="12.1070949"><ele>542.0</ele><time>2026-03-29T09:27:03.672Z</time></trkpt><trkpt lat="43.247734" lon="12.1071181"><ele>542.0</ele><time>2026-03-29T09:27:04.611Z</time></trkpt><trkpt lat="43.2473719" lon="12.1072282"><ele>541.0</ele><time>2026-03-29T09:27:05.612Z</time></trkpt><trkpt lat="43.2472542" lon="12.1073626"><ele>540.0</ele><time>2026-03-29T09:27:06.605Z</time></trkpt><trkpt lat="43.2471348" lon="12.1074945"><ele>539.0</ele><time>2026-03-29T09:27:07.614Z</time></trkpt><trkpt lat="43.2470403" lon="12.1075545"><ele>538.0</ele><time>2026-03-29T09:27:08.604Z</time></trkpt><trkpt lat="43.2468957" lon="12.1076867"><ele>538.0</ele><time>2026-03-29T09:27:09.596Z</time></trkpt><trkpt lat="43.2467907" lon="12.1077076"><ele>538.0</ele><time>2026-03-29T09:27:10.602Z</time></trkpt><trkpt lat="43.246713" lon="12.1076346"><ele>538.0</ele><time>2026-03-29T09:27:11.604Z</time></trkpt><trkpt lat="43.2466391" lon="12.1074399"><ele>538.0</ele><time>2026-03-29T09:27:12.593Z</time></trkpt><trkpt lat="43.2465759" lon="12.1072222"><ele>538.0</ele><time>2026-03-29T09:27:13.669Z</time></trkpt><trkpt lat="43.2465555" lon="12.1069977"><ele>538.0</ele><time>2026-03-29T09:27:14.622Z</time></trkpt><trkpt lat="43.2465626" lon="12.1067066"><ele>538.0</ele><time>2026-03-29T09:27:15.616Z</time></trkpt><trkpt lat="43.2465413" lon="12.1065386"><ele>543.0</ele><time>2026-03-29T09:27:16.622Z</time></trkpt><trkpt lat="43.2465035" lon="12.1063935"><ele>548.0</ele><time>2026-03-29T09:27:17.631Z</time></trkpt><trkpt lat="43.2464299" lon="12.1063138"><ele>553.0</ele><time>2026-03-29T09:27:18.64Z</time></trkpt><trkpt lat="43.2463078" lon="12.1062996"><ele>558.0</ele><time>2026-03-29T09:27:19.651Z</time></trkpt><trkpt lat="43.246202" lon="12.1063068"><ele>563.0</ele><time>2026-03-29T09:27:20.616Z</time></trkpt><trkpt lat="43.2460722" lon="12.1064345"><ele>555.6666666666666</ele><time>2026-03-29T09:27:21.627Z</time></trkpt><trkpt lat="43.2459315" lon="12.1066569"><ele>548.3333333333334</ele><time>2026-03-29T09:27:22.602Z</time></trkpt><trkpt lat="43.2458007" lon="12.1068585"><ele>541.0</ele><time>2026-03-29T09:27:23.604Z</time></trkpt><trkpt lat="43.2456683" lon="12.1070189"><ele>541.25</ele><time>2026-03-29T09:27:24.621Z</time></trkpt><trkpt lat="43.2455432" lon="12.1071558"><ele>541.5</ele><time>2026-03-29T09:27:25.609Z</time></trkpt><trkpt lat="43.2454523" lon="12.107238"><ele>541.75</ele><time>2026-03-29T09:27:26.626Z</time></trkpt><trkpt lat="43.245348" lon="12.1072748"><ele>542.0</ele><time>2026-03-29T09:27:27.63Z</time></trkpt><trkpt lat="43.2452132" lon="12.1072223"><ele>542.0</ele><time>2026-03-29T09:27:28.613Z</time></trkpt><trkpt lat="43.2450756" lon="12.1071972"><ele>542.0</ele><time>2026-03-29T09:27:29.602Z</time></trkpt><trkpt lat="43.2449783" lon="12.1070885"><ele>542.0</ele><time>2026-03-29T09:27:30.616Z</time></trkpt><trkpt lat="43.2448755" lon="12.1070073"><ele>542.0</ele><time>2026-03-29T09:27:31.611Z</time></trkpt><trkpt lat="43.2447592" lon="12.1068827"><ele>539.5</ele><time>2026-03-29T09:27:32.611Z</time></trkpt><trkpt lat="43.2446259" lon="12.1066605"><ele>537.0</ele><time>2026-03-29T09:27:33.616Z</time></trkpt><trkpt lat="43.2444358" lon="12.1064553"><ele>537.0</ele><time>2026-03-29T09:27:34.659Z</time></trkpt><trkpt lat="43.2443537" lon="12.1062592"><ele>537.0</ele><time>2026-03-29T09:27:35.638Z</time></trkpt><trkpt lat="43.2441926" lon="12.1060173"><ele>537.0</ele><time>2026-03-29T09:27:36.967Z</time></trkpt><trkpt lat="43.2442146" lon="12.1054629"><ele>543.6666666666666</ele><time>2026-03-29T09:27:38.659Z</time></trkpt><trkpt lat="43.2441787" lon="12.1051873"><ele>550.3333333333333</ele><time>2026-03-29T09:27:39.669Z</time></trkpt><trkpt lat="43.2441698" lon="12.1048587"><ele>557.0</ele><time>2026-03-29T09:27:40.664Z</time></trkpt><trkpt lat="43.2441394" lon="12.1045014"><ele>561.3333333333333</ele><time>2026-03-29T09:27:41.666Z</time></trkpt><trkpt lat="43.2441263" lon="12.1041845"><ele>565.6666666666666</ele><time>2026-03-29T09:27:42.68Z</time></trkpt><trkpt lat="43.2441022" lon="12.1039015"><ele>570.0</ele><time>2026-03-29T09:27:43.657Z</time></trkpt><trkpt lat="43.2440892" lon="12.1035054"><ele>571.0</ele><time>2026-03-29T09:27:44.654Z</time></trkpt><trkpt lat="43.244107" lon="12.1032629"><ele>572.0</ele><time>2026-03-29T09:27:45.668Z</time></trkpt><trkpt lat="43.2441082" lon="12.1030032"><ele>573.0</ele><time>2026-03-29T09:27:46.665Z</time></trkpt><trkpt lat="43.2441108" lon="12.1027206"><ele>574.6666666666666</ele><time>2026-03-29T09:27:47.634Z</time></trkpt><trkpt lat="43.24412" lon="12.1024393"><ele>576.3333333333333</ele><time>2026-03-29T09:27:48.612Z</time></trkpt><trkpt lat="43.2441093" lon="12.1021339"><ele>578.0</ele><time>2026-03-29T09:27:49.608Z</time></trkpt><trkpt lat="43.2440991" lon="12.1018408"><ele>572.5</ele><time>2026-03-29T09:27:50.612Z</time></trkpt><trkpt lat="43.2440969" lon="12.1015068"><ele>567.0</ele><time>2026-03-29T09:27:51.927Z</time></trkpt><trkpt lat="43.2442349" lon="12.1012046"><ele>567.0</ele><time>2026-03-29T09:27:53.662Z</time></trkpt><trkpt lat="43.244371" lon="12.1010928"><ele>567.0</ele><time>2026-03-29T09:27:54.68Z</time></trkpt><trkpt lat="43.2445154" lon="12.1009743"><ele>567.0</ele><time>2026-03-29T09:27:55.669Z</time></trkpt><trkpt lat="43.2446496" lon="12.100872"><ele>567.0</ele><time>2026-03-29T09:27:56.666Z</time></trkpt><trkpt lat="43.2447625" lon="12.1007592"><ele>567.0</ele><time>2026-03-29T09:27:57.686Z</time></trkpt><trkpt lat="43.2448329" lon="12.1006176"><ele>567.0</ele><time>2026-03-29T09:27:58.686Z</time></trkpt><trkpt lat="43.2448724" lon="12.1004629"><ele>567.0</ele><time>2026-03-29T09:27:59.659Z</time></trkpt><trkpt lat="43.244905" lon="12.1003176"><ele>569.0</ele><time>2026-03-29T09:28:00.665Z</time></trkpt><trkpt lat="43.2448694" lon="12.1001251"><ele>571.0</ele><time>2026-03-29T09:28:01.677Z</time></trkpt><trkpt lat="43.2448155" lon="12.0999198"><ele>573.0</ele><time>2026-03-29T09:28:02.671Z</time></trkpt><trkpt lat="43.2447801" lon="12.0997167"><ele>573.0</ele><time>2026-03-29T09:28:03.664Z</time></trkpt><trkpt lat="43.2447601" lon="12.0995186"><ele>573.0</ele><time>2026-03-29T09:28:04.673Z</time></trkpt><trkpt lat="43.2447623" lon="12.0993349"><ele>573.0</ele><time>2026-03-29T09:28:05.657Z</time></trkpt><trkpt lat="43.2447725" lon="12.0991443"><ele>573.0</ele><time>2026-03-29T09:28:06.659Z</time></trkpt><trkpt lat="43.2448343" lon="12.0989713"><ele>576.0</ele><time>2026-03-29T09:28:07.664Z</time></trkpt><trkpt lat="43.2449515" lon="12.0988664"><ele>579.0</ele><time>2026-03-29T09:28:08.685Z</time></trkpt><trkpt lat="43.2450748" lon="12.0987704"><ele>582.0</ele><time>2026-03-29T09:28:09.679Z</time></trkpt><trkpt lat="43.2452277" lon="12.0987307"><ele>585.0</ele><time>2026-03-29T09:28:10.661Z</time></trkpt><trkpt lat="43.245392" lon="12.0986953"><ele>585.0</ele><time>2026-03-29T09:28:11.671Z</time></trkpt><trkpt lat="43.2455707" lon="12.0986755"><ele>585.0</ele><time>2026-03-29T09:28:12.669Z</time></trkpt><trkpt lat="43.2457429" lon="12.0986703"><ele>585.0</ele><time>2026-03-29T09:28:13.678Z</time></trkpt><trkpt lat="43.2458892" lon="12.0986554"><ele>587.25</ele><time>2026-03-29T09:28:14.666Z</time></trkpt><trkpt lat="43.246004" lon="12.0986017"><ele>589.5</ele><time>2026-03-29T09:28:15.669Z</time></trkpt><trkpt lat="43.2461241" lon="12.0985396"><ele>591.75</ele><time>2026-03-29T09:28:16.666Z</time></trkpt><trkpt lat="43.2462158" lon="12.0984111"><ele>594.0</ele><time>2026-03-29T09:28:17.663Z</time></trkpt><trkpt lat="43.2463087" lon="12.0982368"><ele>594.0</ele><time>2026-03-29T09:28:18.675Z</time></trkpt><trkpt lat="43.2463874" lon="12.0980368"><ele>594.0</ele><time>2026-03-29T09:28:19.658Z</time></trkpt><trkpt lat="43.2464523" lon="12.0977991"><ele>594.0</ele><time>2026-03-29T09:28:20.612Z</time></trkpt><trkpt lat="43.246527" lon="12.0975703"><ele>596.0</ele><time>2026-03-29T09:28:21.651Z</time></trkpt><trkpt lat="43.246605" lon="12.097366"><ele>598.0</ele><time>2026-03-29T09:28:22.614Z</time></trkpt><trkpt lat="43.2466899" lon="12.0971946"><ele>600.0</ele><time>2026-03-29T09:28:23.61Z</time></trkpt><trkpt lat="43.2467691" lon="12.0971048"><ele>602.0</ele><time>2026-03-29T09:28:24.609Z</time></trkpt><trkpt lat="43.2468507" lon="12.0970505"><ele>602.0</ele><time>2026-03-29T09:28:25.646Z</time></trkpt><trkpt lat="43.2469494" lon="12.0970619"><ele>602.0</ele><time>2026-03-29T09:28:26.614Z</time></trkpt><trkpt lat="43.2470746" lon="12.097126"><ele>602.0</ele><time>2026-03-29T09:28:27.611Z</time></trkpt><trkpt lat="43.247211" lon="12.0972533"><ele>602.0</ele><time>2026-03-29T09:28:28.645Z</time></trkpt><trkpt lat="43.2473578" lon="12.0974009"><ele>606.4</ele><time>2026-03-29T09:28:29.626Z</time></trkpt><trkpt lat="43.2474724" lon="12.0974466"><ele>610.8000000000001</ele><time>2026-03-29T09:28:30.618Z</time></trkpt><trkpt lat="43.247529" lon="12.0973986"><ele>615.2</ele><time>2026-03-29T09:28:31.599Z</time></trkpt><trkpt lat="43.2475675" lon="12.097275"><ele>619.6</ele><time>2026-03-29T09:28:32.604Z</time></trkpt><trkpt lat="43.2476041" lon="12.0970948"><ele>624.0</ele><time>2026-03-29T09:28:33.623Z</time></trkpt><trkpt lat="43.2476218" lon="12.0968909"><ele>624.0</ele><time>2026-03-29T09:28:34.608Z</time></trkpt><trkpt lat="43.2476601" lon="12.0966319"><ele>624.0</ele><time>2026-03-29T09:28:35.623Z</time></trkpt><trkpt lat="43.2477414" lon="12.0963563"><ele>624.0</ele><time>2026-03-29T09:28:36.613Z</time></trkpt><trkpt lat="43.2478702" lon="12.0961593"><ele>626.0</ele><time>2026-03-29T09:28:37.656Z</time></trkpt><trkpt lat="43.2480205" lon="12.096004"><ele>628.0</ele><time>2026-03-29T09:28:38.614Z</time></trkpt><trkpt lat="43.2482334" lon="12.0958721"><ele>630.0</ele><time>2026-03-29T09:28:39.647Z</time></trkpt><trkpt lat="43.2484688" lon="12.0957696"><ele>628.3333333333334</ele><time>2026-03-29T09:28:40.649Z</time></trkpt><trkpt lat="43.2486574" lon="12.095691"><ele>626.6666666666667</ele><time>2026-03-29T09:28:41.653Z</time></trkpt><trkpt lat="43.2488248" lon="12.0956337"><ele>625.0</ele><time>2026-03-29T09:28:42.654Z</time></trkpt><trkpt lat="43.2489823" lon="12.0955797"><ele>628.0</ele><time>2026-03-29T09:28:43.612Z</time></trkpt><trkpt lat="43.2491093" lon="12.0955122"><ele>631.0</ele><time>2026-03-29T09:28:44.622Z</time></trkpt><trkpt lat="43.2491979" lon="12.0954329"><ele>634.0</ele><time>2026-03-29T09:28:45.616Z</time></trkpt><trkpt lat="43.2492578" lon="12.0953221"><ele>637.0</ele><time>2026-03-29T09:28:46.607Z</time></trkpt><trkpt lat="43.2492934" lon="12.0951896"><ele>640.0</ele><time>2026-03-29T09:28:47.626Z</time></trkpt><trkpt lat="43.249288" lon="12.0950461"><ele>642.0</ele><time>2026-03-29T09:28:48.609Z</time></trkpt><trkpt lat="43.2492395" lon="12.0948792"><ele>644.0</ele><time>2026-03-29T09:28:49.607Z</time></trkpt><trkpt lat="43.2491495" lon="12.0946835"><ele>646.0</ele><time>2026-03-29T09:28:50.652Z</time></trkpt><trkpt lat="43.2490357" lon="12.0945273"><ele>643.6666666666667</ele><time>2026-03-29T09:28:51.62Z</time></trkpt><trkpt lat="43.2489254" lon="12.0943319"><ele>641.3333333333334</ele><time>2026-03-29T09:28:52.614Z</time></trkpt><trkpt lat="43.2488837" lon="12.0941387"><ele>639.0</ele><time>2026-03-29T09:28:53.615Z</time></trkpt><trkpt lat="43.24889" lon="12.0939618"><ele>639.0</ele><time>2026-03-29T09:28:54.616Z</time></trkpt><trkpt lat="43.2488952" lon="12.0938099"><ele>639.0</ele><time>2026-03-29T09:28:55.6Z</time></trkpt><trkpt lat="43.2489223" lon="12.0936045"><ele>639.0</ele><time>2026-03-29T09:28:56.624Z</time></trkpt><trkpt lat="43.249005" lon="12.093352"><ele>639.3333333333334</ele><time>2026-03-29T09:28:57.615Z</time></trkpt><trkpt lat="43.2491164" lon="12.0930712"><ele>639.6666666666667</ele><time>2026-03-29T09:28:58.616Z</time></trkpt><trkpt lat="43.2492161" lon="12.0928384"><ele>640.0</ele><time>2026-03-29T09:28:59.609Z</time></trkpt><trkpt lat="43.2492721" lon="12.0926449"><ele>640.0</ele><time>2026-03-29T09:29:00.603Z</time></trkpt><trkpt lat="43.2492886" lon="12.0924735"><ele>640.0</ele><time>2026-03-29T09:29:01.647Z</time></trkpt><trkpt lat="43.2492594" lon="12.0923543"><ele>640.0</ele><time>2026-03-29T09:29:02.596Z</time></trkpt><trkpt lat="43.2492071" lon="12.0922245"><ele>640.0</ele><time>2026-03-29T09:29:03.613Z</time></trkpt><trkpt lat="43.2490806" lon="12.0921286"><ele>637.0</ele><time>2026-03-29T09:29:04.656Z</time></trkpt><trkpt lat="43.2488989" lon="12.0920884"><ele>634.0</ele><time>2026-03-29T09:29:05.609Z</time></trkpt><trkpt lat="43.2487027" lon="12.0921119"><ele>631.0</ele><time>2026-03-29T09:29:06.611Z</time></trkpt><trkpt lat="43.2484738" lon="12.092158"><ele>631.0</ele><time>2026-03-29T09:29:07.618Z</time></trkpt><trkpt lat="43.2482524" lon="12.0922112"><ele>631.0</ele><time>2026-03-29T09:29:08.664Z</time></trkpt><trkpt lat="43.2480519" lon="12.0922594"><ele>631.0</ele><time>2026-03-29T09:29:09.618Z</time></trkpt><trkpt lat="43.2478703" lon="12.0922856"><ele>629.75</ele><time>2026-03-29T09:29:10.666Z</time></trkpt><trkpt lat="43.2477176" lon="12.0923059"><ele>628.5</ele><time>2026-03-29T09:29:11.615Z</time></trkpt><trkpt lat="43.2475748" lon="12.0922918"><ele>627.25</ele><time>2026-03-29T09:29:12.611Z</time></trkpt><trkpt lat="43.2474372" lon="12.0922543"><ele>626.0</ele><time>2026-03-29T09:29:13.63Z</time></trkpt><trkpt lat="43.2473243" lon="12.0921845"><ele>625.5</ele><time>2026-03-29T09:29:14.6Z</time></trkpt><trkpt lat="43.2472365" lon="12.0920887"><ele>625.0</ele><time>2026-03-29T09:29:15.627Z</time></trkpt><trkpt lat="43.2471702" lon="12.0919626"><ele>624.5</ele><time>2026-03-29T09:29:16.598Z</time></trkpt><trkpt lat="43.2471505" lon="12.0918235"><ele>624.0</ele><time>2026-03-29T09:29:17.606Z</time></trkpt><trkpt lat="43.2472089" lon="12.0916632"><ele>618.0</ele><time>2026-03-29T09:29:18.607Z</time></trkpt><trkpt lat="43.247391" lon="12.091452"><ele>612.0</ele><time>2026-03-29T09:29:19.621Z</time></trkpt><trkpt lat="43.247579" lon="12.0912516"><ele>612.0</ele><time>2026-03-29T09:29:20.622Z</time></trkpt><trkpt lat="43.2477676" lon="12.0911794"><ele>612.0</ele><time>2026-03-29T09:29:21.623Z</time></trkpt><trkpt lat="43.2479343" lon="12.0911342"><ele>612.0</ele><time>2026-03-29T09:29:22.625Z</time></trkpt><trkpt lat="43.2481099" lon="12.0910751"><ele>615.0</ele><time>2026-03-29T09:29:23.651Z</time></trkpt><trkpt lat="43.2483071" lon="12.0910275"><ele>618.0</ele><time>2026-03-29T09:29:24.611Z</time></trkpt><trkpt lat="43.2484441" lon="12.0909427"><ele>621.0</ele><time>2026-03-29T09:29:25.603Z</time></trkpt><trkpt lat="43.2485447" lon="12.090806"><ele>617.75</ele><time>2026-03-29T09:29:26.618Z</time></trkpt><trkpt lat="43.2486195" lon="12.0906372"><ele>614.5</ele><time>2026-03-29T09:29:27.616Z</time></trkpt><trkpt lat="43.2486716" lon="12.0904459"><ele>611.25</ele><time>2026-03-29T09:29:28.633Z</time></trkpt><trkpt lat="43.2486753" lon="12.0902392"><ele>608.0</ele><time>2026-03-29T09:29:29.603Z</time></trkpt><trkpt lat="43.24866" lon="12.0900112"><ele>603.0</ele><time>2026-03-29T09:29:30.598Z</time></trkpt><trkpt lat="43.248662" lon="12.0897609"><ele>598.0</ele><time>2026-03-29T09:29:31.618Z</time></trkpt><trkpt lat="43.2486857" lon="12.0895493"><ele>593.0</ele><time>2026-03-29T09:29:32.632Z</time></trkpt><trkpt lat="43.2487364" lon="12.0894002"><ele>593.0</ele><time>2026-03-29T09:29:33.611Z</time></trkpt><trkpt lat="43.2487851" lon="12.0892597"><ele>593.0</ele><time>2026-03-29T09:29:34.603Z</time></trkpt><trkpt lat="43.2488791" lon="12.089168"><ele>593.0</ele><time>2026-03-29T09:29:35.639Z</time></trkpt><trkpt lat="43.2490142" lon="12.0891143"><ele>593.0</ele><time>2026-03-29T09:29:36.608Z</time></trkpt><trkpt lat="43.2492731" lon="12.0891219"><ele>595.5</ele><time>2026-03-29T09:29:37.673Z</time></trkpt><trkpt lat="43.2495411" lon="12.089171"><ele>598.0</ele><time>2026-03-29T09:29:38.605Z</time></trkpt><trkpt lat="43.2497592" lon="12.0892214"><ele>597.3333333333334</ele><time>2026-03-29T09:29:39.618Z</time></trkpt><trkpt lat="43.2499337" lon="12.0892895"><ele>596.6666666666666</ele><time>2026-03-29T09:29:40.611Z</time></trkpt><trkpt lat="43.2500817" lon="12.0893852"><ele>596.0</ele><time>2026-03-29T09:29:41.614Z</time></trkpt><trkpt lat="43.2502133" lon="12.0895009"><ele>596.0</ele><time>2026-03-29T09:29:42.647Z</time></trkpt><trkpt lat="43.2503215" lon="12.0896137"><ele>596.0</ele><time>2026-03-29T09:29:43.613Z</time></trkpt><trkpt lat="43.2504303" lon="12.0897325"><ele>596.0</ele><time>2026-03-29T09:29:44.648Z</time></trkpt><trkpt lat="43.2505027" lon="12.0898109"><ele>596.0</ele><time>2026-03-29T09:29:45.6Z</time></trkpt><trkpt lat="43.2505944" lon="12.0898372"><ele>593.5</ele><time>2026-03-29T09:29:46.617Z</time></trkpt><trkpt lat="43.2507093" lon="12.0898236"><ele>591.0</ele><time>2026-03-29T09:29:47.63Z</time></trkpt><trkpt lat="43.2508392" lon="12.0897976"><ele>588.5</ele><time>2026-03-29T09:29:48.604Z</time></trkpt><trkpt lat="43.2509249" lon="12.0897091"><ele>586.0</ele><time>2026-03-29T09:29:49.633Z</time></trkpt><trkpt lat="43.2509507" lon="12.0895277"><ele>586.0</ele><time>2026-03-29T09:29:50.618Z</time></trkpt><trkpt lat="43.2509598" lon="12.0893271"><ele>586.0</ele><time>2026-03-29T09:29:51.632Z</time></trkpt><trkpt lat="43.2508861" lon="12.0891386"><ele>586.0</ele><time>2026-03-29T09:29:52.62Z</time></trkpt><trkpt lat="43.2507734" lon="12.088959"><ele>582.0</ele><time>2026-03-29T09:29:53.613Z</time></trkpt><trkpt lat="43.2506481" lon="12.0888463"><ele>578.0</ele><time>2026-03-29T09:29:54.652Z</time></trkpt><trkpt lat="43.2504507" lon="12.088754"><ele>574.0</ele><time>2026-03-29T09:29:55.66Z</time></trkpt><trkpt lat="43.250235" lon="12.0886767"><ele>574.0</ele><time>2026-03-29T09:29:56.675Z</time></trkpt><trkpt lat="43.2499824" lon="12.0886221"><ele>574.0</ele><time>2026-03-29T09:29:57.623Z</time></trkpt><trkpt lat="43.2497615" lon="12.0885443"><ele>575.3333333333334</ele><time>2026-03-29T09:29:58.646Z</time></trkpt><trkpt lat="43.2495628" lon="12.0884635"><ele>576.6666666666666</ele><time>2026-03-29T09:29:59.644Z</time></trkpt><trkpt lat="43.2493871" lon="12.0883855"><ele>578.0</ele><time>2026-03-29T09:30:00.619Z</time></trkpt><trkpt lat="43.2491979" lon="12.0883077"><ele>571.0</ele><time>2026-03-29T09:30:01.643Z</time></trkpt><trkpt lat="43.2490015" lon="12.0882115"><ele>564.0</ele><time>2026-03-29T09:30:02.651Z</time></trkpt><trkpt lat="43.248817" lon="12.0881205"><ele>557.0</ele><time>2026-03-29T09:30:03.683Z</time></trkpt><trkpt lat="43.2486617" lon="12.0880462"><ele>557.0</ele><time>2026-03-29T09:30:04.619Z</time></trkpt><trkpt lat="43.2485025" lon="12.0879741"><ele>557.0</ele><time>2026-03-29T09:30:05.617Z</time></trkpt><trkpt lat="43.2483502" lon="12.0879122"><ele>557.0</ele><time>2026-03-29T09:30:06.612Z</time></trkpt><trkpt lat="43.2482032" lon="12.0878812"><ele>555.0</ele><time>2026-03-29T09:30:07.603Z</time></trkpt><trkpt lat="43.2480637" lon="12.0878804"><ele>553.0</ele><time>2026-03-29T09:30:08.616Z</time></trkpt><trkpt lat="43.2479195" lon="12.0879025"><ele>551.0</ele><time>2026-03-29T09:30:09.609Z</time></trkpt><trkpt lat="43.2477935" lon="12.0879633"><ele>549.0</ele><time>2026-03-29T09:30:10.614Z</time></trkpt><trkpt lat="43.2477132" lon="12.0880843"><ele>549.0</ele><time>2026-03-29T09:30:11.611Z</time></trkpt><trkpt lat="43.2476411" lon="12.0881646"><ele>549.0</ele><time>2026-03-29T09:30:12.62Z</time></trkpt><trkpt lat="43.2475752" lon="12.0881946"><ele>549.0</ele><time>2026-03-29T09:30:13.609Z</time></trkpt><trkpt lat="43.2474848" lon="12.0881297"><ele>549.0</ele><time>2026-03-29T09:30:15.63Z</time></trkpt><trkpt lat="43.2474911" lon="12.0879942"><ele>549.0</ele><time>2026-03-29T09:30:16.608Z</time></trkpt><trkpt lat="43.247493" lon="12.0877753"><ele>549.0</ele><time>2026-03-29T09:30:17.615Z</time></trkpt><trkpt lat="43.2475568" lon="12.0875537"><ele>549.0</ele><time>2026-03-29T09:30:18.617Z</time></trkpt><trkpt lat="43.2476791" lon="12.0874059"><ele>549.0</ele><time>2026-03-29T09:30:19.677Z</time></trkpt><trkpt lat="43.2477983" lon="12.0873303"><ele>545.0</ele><time>2026-03-29T09:30:20.659Z</time></trkpt><trkpt lat="43.2479546" lon="12.0872563"><ele>541.0</ele><time>2026-03-29T09:30:21.658Z</time></trkpt><trkpt lat="43.248191" lon="12.0871848"><ele>537.0</ele><time>2026-03-29T09:30:22.649Z</time></trkpt><trkpt lat="43.2484301" lon="12.0871272"><ele>536.0</ele><time>2026-03-29T09:30:23.606Z</time></trkpt><trkpt lat="43.2487251" lon="12.0871119"><ele>535.0</ele><time>2026-03-29T09:30:24.651Z</time></trkpt><trkpt lat="43.2489934" lon="12.087094"><ele>534.6666666666667</ele><time>2026-03-29T09:30:25.647Z</time></trkpt><trkpt lat="43.2491908" lon="12.087062"><ele>534.3333333333334</ele><time>2026-03-29T09:30:26.627Z</time></trkpt><trkpt lat="43.2493606" lon="12.0870068"><ele>534.0</ele><time>2026-03-29T09:30:27.642Z</time></trkpt><trkpt lat="43.2495223" lon="12.0869727"><ele>534.0</ele><time>2026-03-29T09:30:28.604Z</time></trkpt><trkpt lat="43.2496975" lon="12.0869641"><ele>534.0</ele><time>2026-03-29T09:30:29.609Z</time></trkpt><trkpt lat="43.249875" lon="12.0869813"><ele>534.0</ele><time>2026-03-29T09:30:30.63Z</time></trkpt><trkpt lat="43.2500684" lon="12.0870308"><ele>531.3333333333334</ele><time>2026-03-29T09:30:31.622Z</time></trkpt><trkpt lat="43.2502753" lon="12.0870823"><ele>528.6666666666667</ele><time>2026-03-29T09:30:32.624Z</time></trkpt><trkpt lat="43.2504825" lon="12.0871184"><ele>526.0</ele><time>2026-03-29T09:30:33.606Z</time></trkpt><trkpt lat="43.2506736" lon="12.087132"><ele>522.6666666666667</ele><time>2026-03-29T09:30:34.635Z</time></trkpt><trkpt lat="43.2508356" lon="12.0871456"><ele>519.3333333333334</ele><time>2026-03-29T09:30:35.616Z</time></trkpt><trkpt lat="43.2509922" lon="12.0871678"><ele>516.0</ele><time>2026-03-29T09:30:36.605Z</time></trkpt><trkpt lat="43.2511497" lon="12.0871881"><ele>516.0</ele><time>2026-03-29T09:30:37.62Z</time></trkpt><trkpt lat="43.251316" lon="12.0871993"><ele>516.0</ele><time>2026-03-29T09:30:38.618Z</time></trkpt><trkpt lat="43.2514954" lon="12.0872081"><ele>516.0</ele><time>2026-03-29T09:30:39.625Z</time></trkpt><trkpt lat="43.2516608" lon="12.0871547"><ele>516.0</ele><time>2026-03-29T09:30:40.61Z</time></trkpt><trkpt lat="43.2518126" lon="12.0871023"><ele>516.0</ele><time>2026-03-29T09:30:41.609Z</time></trkpt><trkpt lat="43.2519386" lon="12.086972"><ele>516.0</ele><time>2026-03-29T09:30:42.622Z</time></trkpt><trkpt lat="43.2520388" lon="12.0868364"><ele>516.0</ele><time>2026-03-29T09:30:43.606Z</time></trkpt><trkpt lat="43.2521361" lon="12.086672"><ele>516.0</ele><time>2026-03-29T09:30:44.634Z</time></trkpt><trkpt lat="43.2522045" lon="12.0864975"><ele>516.0</ele><time>2026-03-29T09:30:45.611Z</time></trkpt><trkpt lat="43.2522475" lon="12.0862907"><ele>516.6666666666666</ele><time>2026-03-29T09:30:46.62Z</time></trkpt><trkpt lat="43.2522773" lon="12.0860509"><ele>517.3333333333333</ele><time>2026-03-29T09:30:47.61Z</time></trkpt><trkpt lat="43.2522983" lon="12.0857827"><ele>518.0</ele><time>2026-03-29T09:30:48.61Z</time></trkpt><trkpt lat="43.2523125" lon="12.0855234"><ele>518.3333333333333</ele><time>2026-03-29T09:30:49.616Z</time></trkpt><trkpt lat="43.2523159" lon="12.085275"><ele>518.6666666666666</ele><time>2026-03-29T09:30:50.624Z</time></trkpt><trkpt lat="43.2522926" lon="12.0850545"><ele>519.0</ele><time>2026-03-29T09:30:51.614Z</time></trkpt><trkpt lat="43.2522321" lon="12.0848242"><ele>508.0</ele><time>2026-03-29T09:30:52.646Z</time></trkpt><trkpt lat="43.2521471" lon="12.084598"><ele>497.0</ele><time>2026-03-29T09:30:53.613Z</time></trkpt><trkpt lat="43.2520725" lon="12.0843476"><ele>486.0</ele><time>2026-03-29T09:30:54.608Z</time></trkpt><trkpt lat="43.2520287" lon="12.0840816"><ele>482.33333333333337</ele><time>2026-03-29T09:30:55.613Z</time></trkpt><trkpt lat="43.2520238" lon="12.0838268"><ele>478.6666666666667</ele><time>2026-03-29T09:30:56.61Z</time></trkpt><trkpt lat="43.2520515" lon="12.0835838"><ele>475.0</ele><time>2026-03-29T09:30:57.601Z</time></trkpt><trkpt lat="43.2521068" lon="12.0833678"><ele>478.0</ele><time>2026-03-29T09:30:58.622Z</time></trkpt><trkpt lat="43.2521667" lon="12.0831741"><ele>481.0</ele><time>2026-03-29T09:30:59.6Z</time></trkpt><trkpt lat="43.2522654" lon="12.0829884"><ele>484.0</ele><time>2026-03-29T09:31:00.619Z</time></trkpt><trkpt lat="43.252406" lon="12.0828234"><ele>484.0</ele><time>2026-03-29T09:31:01.63Z</time></trkpt><trkpt lat="43.2525773" lon="12.0826536"><ele>484.0</ele><time>2026-03-29T09:31:02.616Z</time></trkpt><trkpt lat="43.2527341" lon="12.0824589"><ele>484.0</ele><time>2026-03-29T09:31:03.64Z</time></trkpt><trkpt lat="43.2528055" lon="12.0822661"><ele>480.33333333333337</ele><time>2026-03-29T09:31:04.602Z</time></trkpt><trkpt lat="43.252873" lon="12.0820453"><ele>476.66666666666663</ele><time>2026-03-29T09:31:05.621Z</time></trkpt><trkpt lat="43.2529071" lon="12.0818277"><ele>473.0</ele><time>2026-03-29T09:31:06.615Z</time></trkpt><trkpt lat="43.2529211" lon="12.0816308"><ele>471.75</ele><time>2026-03-29T09:31:07.608Z</time></trkpt><trkpt lat="43.2529408" lon="12.0814343"><ele>470.5</ele><time>2026-03-29T09:31:08.619Z</time></trkpt><trkpt lat="43.2529825" lon="12.0812445"><ele>469.25</ele><time>2026-03-29T09:31:09.621Z</time></trkpt><trkpt lat="43.2530447" lon="12.0810631"><ele>468.0</ele><time>2026-03-29T09:31:10.622Z</time></trkpt><trkpt lat="43.2531338" lon="12.0809"><ele>464.66666666666663</ele><time>2026-03-29T09:31:11.613Z</time></trkpt><trkpt lat="43.2532784" lon="12.0807595"><ele>461.3333333333333</ele><time>2026-03-29T09:31:12.615Z</time></trkpt><trkpt lat="43.253451" lon="12.0806416"><ele>458.0</ele><time>2026-03-29T09:31:13.61Z</time></trkpt><trkpt lat="43.2536358" lon="12.0805351"><ele>458.0</ele><time>2026-03-29T09:31:14.606Z</time></trkpt><trkpt lat="43.253785" lon="12.0804213"><ele>458.0</ele><time>2026-03-29T09:31:15.601Z</time></trkpt><trkpt lat="43.2539245" lon="12.0802952"><ele>458.0</ele><time>2026-03-29T09:31:16.607Z</time></trkpt><trkpt lat="43.2540375" lon="12.0801594"><ele>458.66666666666663</ele><time>2026-03-29T09:31:17.612Z</time></trkpt><trkpt lat="43.2541491" lon="12.0800019"><ele>459.33333333333337</ele><time>2026-03-29T09:31:18.626Z</time></trkpt><trkpt lat="43.2542598" lon="12.0798368"><ele>460.0</ele><time>2026-03-29T09:31:19.615Z</time></trkpt><trkpt lat="43.2543402" lon="12.079614"><ele>460.0</ele><time>2026-03-29T09:31:20.62Z</time></trkpt><trkpt lat="43.2543954" lon="12.0793711"><ele>460.0</ele><time>2026-03-29T09:31:21.608Z</time></trkpt><trkpt lat="43.254416" lon="12.0791315"><ele>460.0</ele><time>2026-03-29T09:31:22.623Z</time></trkpt><trkpt lat="43.2544213" lon="12.0788709"><ele>457.0</ele><time>2026-03-29T09:31:23.614Z</time></trkpt><trkpt lat="43.2544216" lon="12.0786422"><ele>454.0</ele><time>2026-03-29T09:31:24.616Z</time></trkpt><trkpt lat="43.254429" lon="12.0784251"><ele>451.0</ele><time>2026-03-29T09:31:25.609Z</time></trkpt><trkpt lat="43.2544527" lon="12.0782129"><ele>449.0</ele><time>2026-03-29T09:31:26.612Z</time></trkpt><trkpt lat="43.2544882" lon="12.0780078"><ele>447.0</ele><time>2026-03-29T09:31:27.618Z</time></trkpt><trkpt lat="43.2545338" lon="12.0778181"><ele>445.0</ele><time>2026-03-29T09:31:28.638Z</time></trkpt><trkpt lat="43.2545893" lon="12.0776632"><ele>443.0</ele><time>2026-03-29T09:31:29.605Z</time></trkpt><trkpt lat="43.2546681" lon="12.0775493"><ele>443.0</ele><time>2026-03-29T09:31:30.637Z</time></trkpt><trkpt lat="43.2547471" lon="12.077454"><ele>442.99999999999994</ele><time>2026-03-29T09:31:31.65Z</time></trkpt><trkpt lat="43.2548482" lon="12.0774115"><ele>442.99999999999994</ele><time>2026-03-29T09:31:32.618Z</time></trkpt><trkpt lat="43.2549672" lon="12.0773664"><ele>443.0</ele><time>2026-03-29T09:31:33.619Z</time></trkpt><trkpt lat="43.2550631" lon="12.0772916"><ele>443.0</ele><time>2026-03-29T09:31:34.616Z</time></trkpt><trkpt lat="43.2551124" lon="12.0771701"><ele>445.0</ele><time>2026-03-29T09:31:35.618Z</time></trkpt><trkpt lat="43.2551442" lon="12.0770106"><ele>447.0</ele><time>2026-03-29T09:31:36.624Z</time></trkpt><trkpt lat="43.2551633" lon="12.0768214"><ele>449.0</ele><time>2026-03-29T09:31:37.607Z</time></trkpt><trkpt lat="43.2551303" lon="12.0765447"><ele>443.0</ele><time>2026-03-29T09:31:38.618Z</time></trkpt><trkpt lat="43.2550807" lon="12.076196"><ele>437.0</ele><time>2026-03-29T09:31:39.625Z</time></trkpt><trkpt lat="43.2550716" lon="12.0759286"><ele>434.0</ele><time>2026-03-29T09:31:40.634Z</time></trkpt><trkpt lat="43.2550847" lon="12.0756905"><ele>431.0</ele><time>2026-03-29T09:31:41.611Z</time></trkpt><trkpt lat="43.2551013" lon="12.075472"><ele>428.0</ele><time>2026-03-29T09:31:42.611Z</time></trkpt><trkpt lat="43.2551131" lon="12.0752482"><ele>428.0</ele><time>2026-03-29T09:31:43.619Z</time></trkpt><trkpt lat="43.255113" lon="12.0750333"><ele>428.0</ele><time>2026-03-29T09:31:44.607Z</time></trkpt><trkpt lat="43.2551087" lon="12.0748132"><ele>428.0</ele><time>2026-03-29T09:31:45.604Z</time></trkpt><trkpt lat="43.2551098" lon="12.074596"><ele>425.75</ele><time>2026-03-29T09:31:46.607Z</time></trkpt><trkpt lat="43.2550932" lon="12.0744179"><ele>423.5</ele><time>2026-03-29T09:31:47.613Z</time></trkpt><trkpt lat="43.2550702" lon="12.0742623"><ele>421.25</ele><time>2026-03-29T09:31:48.618Z</time></trkpt><trkpt lat="43.2550649" lon="12.0741072"><ele>419.0</ele><time>2026-03-29T09:31:49.61Z</time></trkpt><trkpt lat="43.2550766" lon="12.0739545"><ele>414.5</ele><time>2026-03-29T09:31:50.635Z</time></trkpt><trkpt lat="43.2551167" lon="12.0738074"><ele>410.0</ele><time>2026-03-29T09:31:51.62Z</time></trkpt><trkpt lat="43.2552115" lon="12.0736684"><ele>405.5</ele><time>2026-03-29T09:31:52.614Z</time></trkpt><trkpt lat="43.2553645" lon="12.0735709"><ele>401.0</ele><time>2026-03-29T09:31:53.629Z</time></trkpt><trkpt lat="43.2555684" lon="12.073538"><ele>404.0</ele><time>2026-03-29T09:31:54.628Z</time></trkpt><trkpt lat="43.2557256" lon="12.0734882"><ele>407.0</ele><time>2026-03-29T09:31:55.625Z</time></trkpt><trkpt lat="43.2558592" lon="12.0734352"><ele>410.0</ele><time>2026-03-29T09:31:56.614Z</time></trkpt><trkpt lat="43.2559688" lon="12.0733693"><ele>413.0</ele><time>2026-03-29T09:31:57.608Z</time></trkpt><trkpt lat="43.2560628" lon="12.0732874"><ele>410.2</ele><time>2026-03-29T09:31:58.611Z</time></trkpt><trkpt lat="43.2561205" lon="12.0731771"><ele>407.4</ele><time>2026-03-29T09:31:59.61Z</time></trkpt><trkpt lat="43.2561646" lon="12.0730438"><ele>404.59999999999997</ele><time>2026-03-29T09:32:00.644Z</time></trkpt><trkpt lat="43.2561925" lon="12.0729089"><ele>401.79999999999995</ele><time>2026-03-29T09:32:01.612Z</time></trkpt><trkpt lat="43.2561942" lon="12.0727364"><ele>399.0</ele><time>2026-03-29T09:32:02.608Z</time></trkpt><trkpt lat="43.2562039" lon="12.0725457"><ele>397.0</ele><time>2026-03-29T09:32:03.611Z</time></trkpt><trkpt lat="43.2562405" lon="12.0723793"><ele>395.0</ele><time>2026-03-29T09:32:04.626Z</time></trkpt><trkpt lat="43.2562979" lon="12.0722444"><ele>393.0</ele><time>2026-03-29T09:32:05.617Z</time></trkpt><trkpt lat="43.2563839" lon="12.0721329"><ele>391.0</ele><time>2026-03-29T09:32:06.626Z</time></trkpt><trkpt lat="43.256482" lon="12.0720951"><ele>391.0</ele><time>2026-03-29T09:32:07.617Z</time></trkpt><trkpt lat="43.2566318" lon="12.0721463"><ele>391.0</ele><time>2026-03-29T09:32:08.63Z</time></trkpt><trkpt lat="43.2568104" lon="12.0722731"><ele>391.0</ele><time>2026-03-29T09:32:09.602Z</time></trkpt><trkpt lat="43.2569603" lon="12.0724154"><ele>394.75</ele><time>2026-03-29T09:32:10.616Z</time></trkpt><trkpt lat="43.2570697" lon="12.0725599"><ele>398.5</ele><time>2026-03-29T09:32:11.619Z</time></trkpt><trkpt lat="43.2571232" lon="12.0726807"><ele>402.25</ele><time>2026-03-29T09:32:12.602Z</time></trkpt><trkpt lat="43.257157" lon="12.0728161"><ele>406.0</ele><time>2026-03-29T09:32:13.607Z</time></trkpt><trkpt lat="43.2571675" lon="12.0729815"><ele>401.75</ele><time>2026-03-29T09:32:14.633Z</time></trkpt><trkpt lat="43.2572981" lon="12.073036"><ele>397.5</ele><time>2026-03-29T09:32:16.629Z</time></trkpt><trkpt lat="43.2573792" lon="12.072998"><ele>393.25</ele><time>2026-03-29T09:32:17.648Z</time></trkpt><trkpt lat="43.2574359" lon="12.0728708"><ele>389.0</ele><time>2026-03-29T09:32:18.616Z</time></trkpt><trkpt lat="43.2574983" lon="12.0727313"><ele>389.0</ele><time>2026-03-29T09:32:19.688Z</time></trkpt><trkpt lat="43.2574362" lon="12.0725546"><ele>389.0</ele><time>2026-03-29T09:32:20.61Z</time></trkpt><trkpt lat="43.2573507" lon="12.0722696"><ele>389.0</ele><time>2026-03-29T09:32:21.61Z</time></trkpt><trkpt lat="43.2572635" lon="12.072027"><ele>389.66666666666663</ele><time>2026-03-29T09:32:22.617Z</time></trkpt><trkpt lat="43.2571811" lon="12.0717661"><ele>390.33333333333337</ele><time>2026-03-29T09:32:23.613Z</time></trkpt><trkpt lat="43.257121" lon="12.071552"><ele>391.0</ele><time>2026-03-29T09:32:24.647Z</time></trkpt><trkpt lat="43.2570488" lon="12.0713522"><ele>387.0</ele><time>2026-03-29T09:32:25.623Z</time></trkpt><trkpt lat="43.2569893" lon="12.0711639"><ele>383.0</ele><time>2026-03-29T09:32:26.609Z</time></trkpt><trkpt lat="43.2569125" lon="12.0709883"><ele>379.0</ele><time>2026-03-29T09:32:27.616Z</time></trkpt><trkpt lat="43.2568389" lon="12.0708424"><ele>375.0</ele><time>2026-03-29T09:32:28.609Z</time></trkpt><trkpt lat="43.2567592" lon="12.0707102"><ele>370.0</ele><time>2026-03-29T09:32:29.617Z</time></trkpt><trkpt lat="43.2566643" lon="12.0706347"><ele>365.0</ele><time>2026-03-29T09:32:30.613Z</time></trkpt><trkpt lat="43.2565618" lon="12.070565"><ele>360.0</ele><time>2026-03-29T09:32:31.616Z</time></trkpt><trkpt lat="43.2564331" lon="12.0705568"><ele>355.0</ele><time>2026-03-29T09:32:32.617Z</time></trkpt><trkpt lat="43.2563374" lon="12.0705289"><ele>355.0</ele><time>2026-03-29T09:32:33.606Z</time></trkpt><trkpt lat="43.2562096" lon="12.070554"><ele>355.0</ele><time>2026-03-29T09:32:34.654Z</time></trkpt><trkpt lat="43.2561031" lon="12.0707123"><ele>355.0</ele><time>2026-03-29T09:32:35.625Z</time></trkpt><trkpt lat="43.2559918" lon="12.0709072"><ele>359.0</ele><time>2026-03-29T09:32:36.605Z</time></trkpt><trkpt lat="43.2558803" lon="12.0710855"><ele>363.0</ele><time>2026-03-29T09:32:37.648Z</time></trkpt><trkpt lat="43.2557922" lon="12.0712427"><ele>367.0</ele><time>2026-03-29T09:32:38.619Z</time></trkpt><trkpt lat="43.2556755" lon="12.0713405"><ele>363.25</ele><time>2026-03-29T09:32:39.638Z</time></trkpt><trkpt lat="43.2555311" lon="12.0713839"><ele>359.5</ele><time>2026-03-29T09:32:40.601Z</time></trkpt><trkpt lat="43.2553857" lon="12.071379"><ele>355.75</ele><time>2026-03-29T09:32:41.635Z</time></trkpt><trkpt lat="43.2552651" lon="12.0713824"><ele>352.0</ele><time>2026-03-29T09:32:42.611Z</time></trkpt><trkpt lat="43.2551353" lon="12.0714204"><ele>352.0</ele><time>2026-03-29T09:32:43.602Z</time></trkpt><trkpt lat="43.2550041" lon="12.0715151"><ele>352.0</ele><time>2026-03-29T09:32:44.621Z</time></trkpt><trkpt lat="43.2548965" lon="12.0716524"><ele>352.0</ele><time>2026-03-29T09:32:45.61Z</time></trkpt><trkpt lat="43.254835" lon="12.0718153"><ele>352.0</ele><time>2026-03-29T09:32:46.622Z</time></trkpt><trkpt lat="43.2548194" lon="12.0719949"><ele>353.75</ele><time>2026-03-29T09:32:47.628Z</time></trkpt><trkpt lat="43.2547966" lon="12.0721643"><ele>355.5</ele><time>2026-03-29T09:32:48.617Z</time></trkpt><trkpt lat="43.2547563" lon="12.0723439"><ele>357.25</ele><time>2026-03-29T09:32:49.605Z</time></trkpt><trkpt lat="43.2546437" lon="12.0724662"><ele>359.0</ele><time>2026-03-29T09:32:50.629Z</time></trkpt><trkpt lat="43.2545197" lon="12.072578"><ele>359.0</ele><time>2026-03-29T09:32:51.609Z</time></trkpt><trkpt lat="43.2543897" lon="12.0726989"><ele>359.0</ele><time>2026-03-29T09:32:52.63Z</time></trkpt><trkpt lat="43.2542414" lon="12.0727646"><ele>359.0</ele><time>2026-03-29T09:32:53.608Z</time></trkpt><trkpt lat="43.254085" lon="12.0728272"><ele>354.75</ele><time>2026-03-29T09:32:54.615Z</time></trkpt><trkpt lat="43.2539242" lon="12.0728764"><ele>350.5</ele><time>2026-03-29T09:32:55.613Z</time></trkpt><trkpt lat="43.2537885" lon="12.0729469"><ele>346.25</ele><time>2026-03-29T09:32:56.624Z</time></trkpt><trkpt lat="43.2536806" lon="12.0730314"><ele>342.0</ele><time>2026-03-29T09:32:57.63Z</time></trkpt><trkpt lat="43.2535654" lon="12.0730637"><ele>342.0</ele><time>2026-03-29T09:32:58.623Z</time></trkpt><trkpt lat="43.2534656" lon="12.0730782"><ele>342.0</ele><time>2026-03-29T09:32:59.633Z</time></trkpt><trkpt lat="43.2533747" lon="12.0730234"><ele>342.0</ele><time>2026-03-29T09:33:01.619Z</time></trkpt><trkpt lat="43.2533951" lon="12.0729173"><ele>342.0</ele><time>2026-03-29T09:33:03.619Z</time></trkpt><trkpt lat="43.2534163" lon="12.0728072"><ele>342.0</ele><time>2026-03-29T09:33:04.62Z</time></trkpt><trkpt lat="43.2534247" lon="12.0726584"><ele>342.0</ele><time>2026-03-29T09:33:05.632Z</time></trkpt><trkpt lat="43.2534475" lon="12.072526"><ele>342.0</ele><time>2026-03-29T09:33:06.601Z</time></trkpt><trkpt lat="43.2534763" lon="12.0723471"><ele>342.0</ele><time>2026-03-29T09:33:07.91Z</time></trkpt><trkpt lat="43.2539702" lon="12.0716241"><ele>338.6666666666667</ele><time>2026-03-29T09:33:09.664Z</time></trkpt><trkpt lat="43.2541236" lon="12.0714644"><ele>335.33333333333337</ele><time>2026-03-29T09:33:10.68Z</time></trkpt><trkpt lat="43.2542599" lon="12.0712831"><ele>332.0</ele><time>2026-03-29T09:33:11.693Z</time></trkpt><trkpt lat="43.2543542" lon="12.0710786"><ele>332.0</ele><time>2026-03-29T09:33:12.664Z</time></trkpt><trkpt lat="43.2544457" lon="12.0708362"><ele>332.0</ele><time>2026-03-29T09:33:13.729Z</time></trkpt><trkpt lat="43.2545299" lon="12.0706223"><ele>332.0</ele><time>2026-03-29T09:33:14.672Z</time></trkpt><trkpt lat="43.2546189" lon="12.0704029"><ele>331.6666666666667</ele><time>2026-03-29T09:33:15.674Z</time></trkpt><trkpt lat="43.2547015" lon="12.0702011"><ele>331.3333333333333</ele><time>2026-03-29T09:33:16.615Z</time></trkpt><trkpt lat="43.2547865" lon="12.0699915"><ele>331.0</ele><time>2026-03-29T09:33:17.609Z</time></trkpt><trkpt lat="43.2548523" lon="12.0697723"><ele>331.0</ele><time>2026-03-29T09:33:18.618Z</time></trkpt><trkpt lat="43.2548886" lon="12.0695379"><ele>331.0</ele><time>2026-03-29T09:33:19.603Z</time></trkpt><trkpt lat="43.2548977" lon="12.0692627"><ele>331.0</ele><time>2026-03-29T09:33:20.655Z</time></trkpt><trkpt lat="43.2548821" lon="12.0689998"><ele>328.3333333333333</ele><time>2026-03-29T09:33:21.615Z</time></trkpt><trkpt lat="43.2548572" lon="12.0687143"><ele>325.6666666666667</ele><time>2026-03-29T09:33:22.613Z</time></trkpt><trkpt lat="43.2548327" lon="12.0684373"><ele>323.0</ele><time>2026-03-29T09:33:23.633Z</time></trkpt><trkpt lat="43.2548163" lon="12.0681936"><ele>321.0</ele><time>2026-03-29T09:33:24.612Z</time></trkpt><trkpt lat="43.254791" lon="12.067948"><ele>319.0</ele><time>2026-03-29T09:33:25.624Z</time></trkpt><trkpt lat="43.2547465" lon="12.067718"><ele>317.0</ele><time>2026-03-29T09:33:26.635Z</time></trkpt><trkpt lat="43.254699" lon="12.0674936"><ele>314.6666666666667</ele><time>2026-03-29T09:33:27.621Z</time></trkpt><trkpt lat="43.2546513" lon="12.0672625"><ele>312.3333333333333</ele><time>2026-03-29T09:33:28.636Z</time></trkpt><trkpt lat="43.2546181" lon="12.0670435"><ele>310.0</ele><time>2026-03-29T09:33:29.612Z</time></trkpt><trkpt lat="43.2545833" lon="12.0668233"><ele>310.0</ele><time>2026-03-29T09:33:30.631Z</time></trkpt><trkpt lat="43.2545485" lon="12.0666276"><ele>310.0</ele><time>2026-03-29T09:33:31.621Z</time></trkpt><trkpt lat="43.2545145" lon="12.0664325"><ele>310.0</ele><time>2026-03-29T09:33:32.611Z</time></trkpt><trkpt lat="43.2544839" lon="12.0662279"><ele>310.0</ele><time>2026-03-29T09:33:33.626Z</time></trkpt><trkpt lat="43.2544561" lon="12.0660462"><ele>310.0</ele><time>2026-03-29T09:33:34.603Z</time></trkpt><trkpt lat="43.2544303" lon="12.0658486"><ele>310.0</ele><time>2026-03-29T09:33:35.668Z</time></trkpt><trkpt lat="43.2544075" lon="12.0656802"><ele>310.0</ele><time>2026-03-29T09:33:36.624Z</time></trkpt><trkpt lat="43.2543868" lon="12.0655236"><ele>310.0</ele><time>2026-03-29T09:33:37.627Z</time></trkpt><trkpt lat="43.254381" lon="12.0653755"><ele>309.4</ele><time>2026-03-29T09:33:38.61Z</time></trkpt><trkpt lat="43.2543735" lon="12.0652236"><ele>308.8</ele><time>2026-03-29T09:33:39.617Z</time></trkpt><trkpt lat="43.2543619" lon="12.0650834"><ele>308.2</ele><time>2026-03-29T09:33:40.605Z</time></trkpt><trkpt lat="43.2543546" lon="12.0649407"><ele>307.6</ele><time>2026-03-29T09:33:41.63Z</time></trkpt><trkpt lat="43.2543488" lon="12.0647841"><ele>307.0</ele><time>2026-03-29T09:33:42.621Z</time></trkpt><trkpt lat="43.25434" lon="12.0645998"><ele>306.5</ele><time>2026-03-29T09:33:43.617Z</time></trkpt><trkpt lat="43.2543315" lon="12.0644083"><ele>306.0</ele><time>2026-03-29T09:33:44.613Z</time></trkpt><trkpt lat="43.2543197" lon="12.0642129"><ele>305.5</ele><time>2026-03-29T09:33:45.616Z</time></trkpt><trkpt lat="43.254312" lon="12.0640121"><ele>305.0</ele><time>2026-03-29T09:33:46.625Z</time></trkpt><trkpt lat="43.2543073" lon="12.0638151"><ele>304.75</ele><time>2026-03-29T09:33:47.605Z</time></trkpt><trkpt lat="43.2543034" lon="12.0636248"><ele>304.5</ele><time>2026-03-29T09:33:48.618Z</time></trkpt><trkpt lat="43.2542941" lon="12.0634382"><ele>304.25</ele><time>2026-03-29T09:33:49.624Z</time></trkpt><trkpt lat="43.2542908" lon="12.063257"><ele>304.0</ele><time>2026-03-29T09:33:50.609Z</time></trkpt><trkpt lat="43.2542866" lon="12.0630736"><ele>303.75</ele><time>2026-03-29T09:33:51.642Z</time></trkpt><trkpt lat="43.2542839" lon="12.0629002"><ele>303.5</ele><time>2026-03-29T09:33:52.617Z</time></trkpt><trkpt lat="43.254284" lon="12.0627181"><ele>303.25</ele><time>2026-03-29T09:33:53.637Z</time></trkpt><trkpt lat="43.2542882" lon="12.0625398"><ele>303.0</ele><time>2026-03-29T09:33:54.63Z</time></trkpt><trkpt lat="43.2542917" lon="12.0623636"><ele>302.75</ele><time>2026-03-29T09:33:55.62Z</time></trkpt><trkpt lat="43.254293" lon="12.0621753"><ele>302.5</ele><time>2026-03-29T09:33:56.637Z</time></trkpt><trkpt lat="43.2542974" lon="12.0619928"><ele>302.25</ele><time>2026-03-29T09:33:57.613Z</time></trkpt><trkpt lat="43.2543034" lon="12.0617941"><ele>302.0</ele><time>2026-03-29T09:33:58.625Z</time></trkpt><trkpt lat="43.2543107" lon="12.0616054"><ele>301.75</ele><time>2026-03-29T09:33:59.618Z</time></trkpt><trkpt lat="43.2543174" lon="12.0614119"><ele>301.5</ele><time>2026-03-29T09:34:00.617Z</time></trkpt><trkpt lat="43.2543228" lon="12.061216"><ele>301.25</ele><time>2026-03-29T09:34:01.619Z</time></trkpt><trkpt lat="43.2543304" lon="12.0610232"><ele>301.0</ele><time>2026-03-29T09:34:02.611Z</time></trkpt><trkpt lat="43.2543423" lon="12.0608374"><ele>300.0</ele><time>2026-03-29T09:34:03.621Z</time></trkpt><trkpt lat="43.2543532" lon="12.0606526"><ele>299.0</ele><time>2026-03-29T09:34:04.635Z</time></trkpt><trkpt lat="43.2543607" lon="12.0604753"><ele>298.0</ele><time>2026-03-29T09:34:05.616Z</time></trkpt><trkpt lat="43.2543794" lon="12.0602663"><ele>297.0</ele><time>2026-03-29T09:34:06.676Z</time></trkpt><trkpt lat="43.2543978" lon="12.0600647"><ele>296.3333333333333</ele><time>2026-03-29T09:34:07.637Z</time></trkpt><trkpt lat="43.2544148" lon="12.0598445"><ele>295.66666666666663</ele><time>2026-03-29T09:34:08.664Z</time></trkpt><trkpt lat="43.2544303" lon="12.0596266"><ele>295.0</ele><time>2026-03-29T09:34:09.603Z</time></trkpt><trkpt lat="43.2544457" lon="12.0594102"><ele>295.0</ele><time>2026-03-29T09:34:10.623Z</time></trkpt><trkpt lat="43.2544599" lon="12.0591879"><ele>295.0</ele><time>2026-03-29T09:34:11.625Z</time></trkpt><trkpt lat="43.2544777" lon="12.0589681"><ele>295.0</ele><time>2026-03-29T09:34:12.617Z</time></trkpt><trkpt lat="43.2544965" lon="12.0587442"><ele>293.66666666666663</ele><time>2026-03-29T09:34:13.618Z</time></trkpt><trkpt lat="43.2545202" lon="12.058516"><ele>292.3333333333333</ele><time>2026-03-29T09:34:14.647Z</time></trkpt><trkpt lat="43.2545418" lon="12.0583058"><ele>291.0</ele><time>2026-03-29T09:34:15.619Z</time></trkpt><trkpt lat="43.254554" lon="12.0580886"><ele>290.3333333333333</ele><time>2026-03-29T09:34:16.621Z</time></trkpt><trkpt lat="43.2545587" lon="12.0578635"><ele>289.66666666666663</ele><time>2026-03-29T09:34:17.619Z</time></trkpt><trkpt lat="43.2545637" lon="12.0576373"><ele>289.0</ele><time>2026-03-29T09:34:18.614Z</time></trkpt><trkpt lat="43.2545646" lon="12.0573953"><ele>289.0</ele><time>2026-03-29T09:34:19.637Z</time></trkpt><trkpt lat="43.254554" lon="12.0571572"><ele>289.0</ele><time>2026-03-29T09:34:20.614Z</time></trkpt><trkpt lat="43.2545335" lon="12.056904"><ele>289.0</ele><time>2026-03-29T09:34:21.62Z</time></trkpt><trkpt lat="43.2545081" lon="12.0566424"><ele>289.0</ele><time>2026-03-29T09:34:22.617Z</time></trkpt><trkpt lat="43.2544825" lon="12.056377"><ele>289.0</ele><time>2026-03-29T09:34:23.624Z</time></trkpt><trkpt lat="43.2544561" lon="12.0561044"><ele>289.0</ele><time>2026-03-29T09:34:24.614Z</time></trkpt><trkpt lat="43.254432" lon="12.0558126"><ele>289.5</ele><time>2026-03-29T09:34:25.618Z</time></trkpt><trkpt lat="43.2544117" lon="12.0555058"><ele>290.0</ele><time>2026-03-29T09:34:26.613Z</time></trkpt><trkpt lat="43.2543956" lon="12.0551889"><ele>289.6666666666667</ele><time>2026-03-29T09:34:27.645Z</time></trkpt><trkpt lat="43.2543811" lon="12.0548846"><ele>289.3333333333333</ele><time>2026-03-29T09:34:28.626Z</time></trkpt><trkpt lat="43.2543592" lon="12.0545835"><ele>289.0</ele><time>2026-03-29T09:34:29.614Z</time></trkpt><trkpt lat="43.2543339" lon="12.0542552"><ele>289.0</ele><time>2026-03-29T09:34:30.614Z</time></trkpt><trkpt lat="43.25431" lon="12.0539092"><ele>289.0</ele><time>2026-03-29T09:34:31.614Z</time></trkpt><trkpt lat="43.2542871" lon="12.0535606"><ele>288.5</ele><time>2026-03-29T09:34:32.617Z</time></trkpt><trkpt lat="43.2542575" lon="12.0532266"><ele>288.0</ele><time>2026-03-29T09:34:33.622Z</time></trkpt><trkpt lat="43.2542328" lon="12.0528826"><ele>288.0</ele><time>2026-03-29T09:34:34.626Z</time></trkpt><trkpt lat="43.2541945" lon="12.0525554"><ele>288.0</ele><time>2026-03-29T09:34:35.623Z</time></trkpt><trkpt lat="43.2541549" lon="12.0522269"><ele>288.0</ele><time>2026-03-29T09:34:36.627Z</time></trkpt><trkpt lat="43.2541155" lon="12.0519164"><ele>288.0</ele><time>2026-03-29T09:34:37.623Z</time></trkpt><trkpt lat="43.2540769" lon="12.0516274"><ele>288.0</ele><time>2026-03-29T09:34:38.622Z</time></trkpt><trkpt lat="43.2540379" lon="12.0513385"><ele>287.0</ele><time>2026-03-29T09:34:39.635Z</time></trkpt><trkpt lat="43.2540003" lon="12.051073"><ele>286.0</ele><time>2026-03-29T09:34:40.62Z</time></trkpt><trkpt lat="43.2539685" lon="12.0508174"><ele>285.0</ele><time>2026-03-29T09:34:41.642Z</time></trkpt><trkpt lat="43.2539444" lon="12.0505728"><ele>285.0</ele><time>2026-03-29T09:34:42.621Z</time></trkpt><trkpt lat="43.2539215" lon="12.0503271"><ele>285.0</ele><time>2026-03-29T09:34:43.616Z</time></trkpt><trkpt lat="43.2538902" lon="12.0500792"><ele>285.0</ele><time>2026-03-29T09:34:44.623Z</time></trkpt><trkpt lat="43.2538557" lon="12.0498238"><ele>285.3333333333333</ele><time>2026-03-29T09:34:45.638Z</time></trkpt><trkpt lat="43.2538234" lon="12.0495686"><ele>285.66666666666663</ele><time>2026-03-29T09:34:46.628Z</time></trkpt><trkpt lat="43.25379" lon="12.0492966"><ele>286.0</ele><time>2026-03-29T09:34:47.63Z</time></trkpt><trkpt lat="43.2537553" lon="12.0490182"><ele>285.3333333333333</ele><time>2026-03-29T09:34:48.614Z</time></trkpt><trkpt lat="43.2537271" lon="12.0487377"><ele>284.6666666666667</ele><time>2026-03-29T09:34:49.62Z</time></trkpt><trkpt lat="43.2537071" lon="12.0484759"><ele>284.0</ele><time>2026-03-29T09:34:50.621Z</time></trkpt><trkpt lat="43.2536774" lon="12.0481922"><ele>284.0</ele><time>2026-03-29T09:34:51.629Z</time></trkpt><trkpt lat="43.2536387" lon="12.0479068"><ele>284.0</ele><time>2026-03-29T09:34:52.657Z</time></trkpt><trkpt lat="43.2536042" lon="12.047635"><ele>284.0</ele><time>2026-03-29T09:34:53.627Z</time></trkpt><trkpt lat="43.2535671" lon="12.0473665"><ele>284.0</ele><time>2026-03-29T09:34:54.612Z</time></trkpt><trkpt lat="43.2535307" lon="12.0470881"><ele>284.0</ele><time>2026-03-29T09:34:55.622Z</time></trkpt><trkpt lat="43.2534887" lon="12.0468212"><ele>284.0</ele><time>2026-03-29T09:34:56.604Z</time></trkpt><trkpt lat="43.2534514" lon="12.0465454"><ele>283.6666666666667</ele><time>2026-03-29T09:34:57.629Z</time></trkpt><trkpt lat="43.2534194" lon="12.0462812"><ele>283.3333333333333</ele><time>2026-03-29T09:34:58.607Z</time></trkpt><trkpt lat="43.2533837" lon="12.0460155"><ele>283.0</ele><time>2026-03-29T09:34:59.648Z</time></trkpt><trkpt lat="43.2533477" lon="12.0457678"><ele>282.3333333333333</ele><time>2026-03-29T09:35:00.622Z</time></trkpt><trkpt lat="43.2533169" lon="12.0454972"><ele>281.6666666666667</ele><time>2026-03-29T09:35:01.63Z</time></trkpt><trkpt lat="43.2532848" lon="12.0452341"><ele>281.0</ele><time>2026-03-29T09:35:02.602Z</time></trkpt><trkpt lat="43.2532523" lon="12.044944"><ele>280.5</ele><time>2026-03-29T09:35:03.611Z</time></trkpt><trkpt lat="43.2532217" lon="12.0446328"><ele>280.0</ele><time>2026-03-29T09:35:04.655Z</time></trkpt><trkpt lat="43.2531876" lon="12.0443225"><ele>278.5</ele><time>2026-03-29T09:35:05.631Z</time></trkpt><trkpt lat="43.2531485" lon="12.0440167"><ele>277.0</ele><time>2026-03-29T09:35:06.601Z</time></trkpt><trkpt lat="43.2531226" lon="12.0436978"><ele>277.0</ele><time>2026-03-29T09:35:07.607Z</time></trkpt><trkpt lat="43.2531066" lon="12.0433667"><ele>277.0</ele><time>2026-03-29T09:35:08.615Z</time></trkpt><trkpt lat="43.2530983" lon="12.0430223"><ele>276.0</ele><time>2026-03-29T09:35:09.626Z</time></trkpt><trkpt lat="43.253098" lon="12.0426851"><ele>275.0</ele><time>2026-03-29T09:35:10.614Z</time></trkpt><trkpt lat="43.2530939" lon="12.0423463"><ele>275.0</ele><time>2026-03-29T09:35:11.658Z</time></trkpt><trkpt lat="43.2531015" lon="12.0420384"><ele>275.0</ele><time>2026-03-29T09:35:12.611Z</time></trkpt><trkpt lat="43.2530952" lon="12.0417428"><ele>275.0</ele><time>2026-03-29T09:35:13.622Z</time></trkpt><trkpt lat="43.253085" lon="12.0414657"><ele>275.6666666666667</ele><time>2026-03-29T09:35:14.614Z</time></trkpt><trkpt lat="43.2530644" lon="12.0411979"><ele>276.3333333333333</ele><time>2026-03-29T09:35:15.627Z</time></trkpt><trkpt lat="43.2530309" lon="12.0409465"><ele>277.0</ele><time>2026-03-29T09:35:16.62Z</time></trkpt><trkpt lat="43.2529778" lon="12.0406906"><ele>277.0</ele><time>2026-03-29T09:35:17.614Z</time></trkpt><trkpt lat="43.2529216" lon="12.0404389"><ele>277.0</ele><time>2026-03-29T09:35:18.616Z</time></trkpt><trkpt lat="43.252866" lon="12.0401774"><ele>277.0</ele><time>2026-03-29T09:35:19.632Z</time></trkpt><trkpt lat="43.2528063" lon="12.0399337"><ele>277.66666666666663</ele><time>2026-03-29T09:35:20.612Z</time></trkpt><trkpt lat="43.2527461" lon="12.0397063"><ele>278.3333333333333</ele><time>2026-03-29T09:35:21.614Z</time></trkpt><trkpt lat="43.2526898" lon="12.0394698"><ele>279.0</ele><time>2026-03-29T09:35:22.621Z</time></trkpt><trkpt lat="43.2526252" lon="12.0392295"><ele>279.3333333333333</ele><time>2026-03-29T09:35:23.644Z</time></trkpt><trkpt lat="43.2525795" lon="12.0390015"><ele>279.66666666666663</ele><time>2026-03-29T09:35:24.622Z</time></trkpt><trkpt lat="43.2525366" lon="12.0387738"><ele>280.0</ele><time>2026-03-29T09:35:25.624Z</time></trkpt><trkpt lat="43.2524942" lon="12.0385861"><ele>280.0</ele><time>2026-03-29T09:35:26.62Z</time></trkpt><trkpt lat="43.2524582" lon="12.038414"><ele>280.0</ele><time>2026-03-29T09:35:27.625Z</time></trkpt><trkpt lat="43.2524359" lon="12.0382749"><ele>280.0</ele><time>2026-03-29T09:35:28.636Z</time></trkpt><trkpt lat="43.2524259" lon="12.0381474"><ele>280.0</ele><time>2026-03-29T09:35:29.619Z</time></trkpt><trkpt lat="43.2524186" lon="12.0380116"><ele>280.0</ele><time>2026-03-29T09:35:30.636Z</time></trkpt><trkpt lat="43.2524388" lon="12.0378618"><ele>280.0</ele><time>2026-03-29T09:35:31.62Z</time></trkpt><trkpt lat="43.2524714" lon="12.037686"><ele>280.0</ele><time>2026-03-29T09:35:32.618Z</time></trkpt><trkpt lat="43.2524987" lon="12.0375082"><ele>280.0</ele><time>2026-03-29T09:35:33.624Z</time></trkpt><trkpt lat="43.2525328" lon="12.0373361"><ele>280.0</ele><time>2026-03-29T09:35:34.626Z</time></trkpt><trkpt lat="43.2525554" lon="12.0371978"><ele>280.2</ele><time>2026-03-29T09:35:35.624Z</time></trkpt><trkpt lat="43.2525797" lon="12.0370632"><ele>280.4</ele><time>2026-03-29T09:35:36.622Z</time></trkpt><trkpt lat="43.2526084" lon="12.0369324"><ele>280.6</ele><time>2026-03-29T09:35:37.628Z</time></trkpt><trkpt lat="43.252629" lon="12.0368131"><ele>280.8</ele><time>2026-03-29T09:35:38.613Z</time></trkpt><trkpt lat="43.2526483" lon="12.0366923"><ele>281.0</ele><time>2026-03-29T09:35:39.618Z</time></trkpt><trkpt lat="43.2526753" lon="12.0365717"><ele>281.40000000000003</ele><time>2026-03-29T09:35:40.654Z</time></trkpt><trkpt lat="43.2526974" lon="12.0364186"><ele>281.8</ele><time>2026-03-29T09:35:41.64Z</time></trkpt><trkpt lat="43.2527091" lon="12.0362851"><ele>282.20000000000005</ele><time>2026-03-29T09:35:42.646Z</time></trkpt><trkpt lat="43.2527244" lon="12.0361482"><ele>282.6</ele><time>2026-03-29T09:35:43.634Z</time></trkpt><trkpt lat="43.2527418" lon="12.036011"><ele>283.0</ele><time>2026-03-29T09:35:44.615Z</time></trkpt><trkpt lat="43.2527587" lon="12.0358535"><ele>282.6</ele><time>2026-03-29T09:35:45.622Z</time></trkpt><trkpt lat="43.2527704" lon="12.0356934"><ele>282.20000000000005</ele><time>2026-03-29T09:35:46.638Z</time></trkpt><trkpt lat="43.2527935" lon="12.0355376"><ele>281.8</ele><time>2026-03-29T09:35:47.642Z</time></trkpt><trkpt lat="43.252813" lon="12.0353937"><ele>281.40000000000003</ele><time>2026-03-29T09:35:48.629Z</time></trkpt><trkpt lat="43.2528352" lon="12.0352592"><ele>281.0</ele><time>2026-03-29T09:35:49.615Z</time></trkpt><trkpt lat="43.2528587" lon="12.0351363"><ele>281.0</ele><time>2026-03-29T09:35:50.619Z</time></trkpt><trkpt lat="43.2528787" lon="12.035022"><ele>281.0</ele><time>2026-03-29T09:35:51.618Z</time></trkpt><trkpt lat="43.2528889" lon="12.0349099"><ele>281.0</ele><time>2026-03-29T09:35:52.61Z</time></trkpt><trkpt lat="43.2528987" lon="12.0347837"><ele>281.0</ele><time>2026-03-29T09:35:53.607Z</time></trkpt><trkpt lat="43.2528985" lon="12.0346393"><ele>281.0</ele><time>2026-03-29T09:35:54.629Z</time></trkpt><trkpt lat="43.2529082" lon="12.0344657"><ele>280.0</ele><time>2026-03-29T09:35:55.621Z</time></trkpt><trkpt lat="43.2529279" lon="12.0342699"><ele>279.0</ele><time>2026-03-29T09:35:56.627Z</time></trkpt><trkpt lat="43.2529511" lon="12.0340672"><ele>278.0</ele><time>2026-03-29T09:35:57.609Z</time></trkpt><trkpt lat="43.2529719" lon="12.0338371"><ele>277.33333333333337</ele><time>2026-03-29T09:35:58.616Z</time></trkpt><trkpt lat="43.2529963" lon="12.0335896"><ele>276.6666666666667</ele><time>2026-03-29T09:35:59.626Z</time></trkpt><trkpt lat="43.2530163" lon="12.0333389"><ele>276.0</ele><time>2026-03-29T09:36:00.625Z</time></trkpt><trkpt lat="43.2530286" lon="12.03308"><ele>275.3333333333333</ele><time>2026-03-29T09:36:01.67Z</time></trkpt><trkpt lat="43.2530356" lon="12.0328282"><ele>274.66666666666663</ele><time>2026-03-29T09:36:02.613Z</time></trkpt><trkpt lat="43.2530447" lon="12.0325428"><ele>274.0</ele><time>2026-03-29T09:36:03.631Z</time></trkpt><trkpt lat="43.2530571" lon="12.0322714"><ele>273.66666666666663</ele><time>2026-03-29T09:36:04.625Z</time></trkpt><trkpt lat="43.2530677" lon="12.0320143"><ele>273.3333333333333</ele><time>2026-03-29T09:36:05.612Z</time></trkpt><trkpt lat="43.2530799" lon="12.031746"><ele>273.0</ele><time>2026-03-29T09:36:06.667Z</time></trkpt><trkpt lat="43.2530907" lon="12.0315083"><ele>273.0</ele><time>2026-03-29T09:36:07.618Z</time></trkpt><trkpt lat="43.2531027" lon="12.0312622"><ele>273.0</ele><time>2026-03-29T09:36:08.625Z</time></trkpt><trkpt lat="43.2531159" lon="12.0310287"><ele>273.0</ele><time>2026-03-29T09:36:09.62Z</time></trkpt><trkpt lat="43.2531291" lon="12.0307947"><ele>275.3333333333333</ele><time>2026-03-29T09:36:10.625Z</time></trkpt><trkpt lat="43.2531495" lon="12.0305674"><ele>277.66666666666663</ele><time>2026-03-29T09:36:11.628Z</time></trkpt><trkpt lat="43.2531867" lon="12.0303425"><ele>280.0</ele><time>2026-03-29T09:36:12.63Z</time></trkpt><trkpt lat="43.2532475" lon="12.0301235"><ele>279.66666666666663</ele><time>2026-03-29T09:36:13.616Z</time></trkpt><trkpt lat="43.2533267" lon="12.0299101"><ele>279.3333333333333</ele><time>2026-03-29T09:36:14.623Z</time></trkpt><trkpt lat="43.2534141" lon="12.0296993"><ele>279.0</ele><time>2026-03-29T09:36:15.619Z</time></trkpt><trkpt lat="43.2535006" lon="12.0294998"><ele>279.0</ele><time>2026-03-29T09:36:16.609Z</time></trkpt><trkpt lat="43.2535943" lon="12.0292944"><ele>279.0</ele><time>2026-03-29T09:36:17.651Z</time></trkpt><trkpt lat="43.2536801" lon="12.029112"><ele>279.0</ele><time>2026-03-29T09:36:18.621Z</time></trkpt><trkpt lat="43.2537651" lon="12.0289149"><ele>279.0</ele><time>2026-03-29T09:36:19.614Z</time></trkpt><trkpt lat="43.2538375" lon="12.0287203"><ele>279.0</ele><time>2026-03-29T09:36:20.607Z</time></trkpt><trkpt lat="43.2538962" lon="12.0285249"><ele>279.0</ele><time>2026-03-29T09:36:21.63Z</time></trkpt><trkpt lat="43.2539663" lon="12.028337"><ele>279.6666666666667</ele><time>2026-03-29T09:36:22.619Z</time></trkpt><trkpt lat="43.2540484" lon="12.0281447"><ele>280.33333333333337</ele><time>2026-03-29T09:36:23.628Z</time></trkpt><trkpt lat="43.2541215" lon="12.0279554"><ele>281.0</ele><time>2026-03-29T09:36:24.634Z</time></trkpt><trkpt lat="43.2541989" lon="12.0277655"><ele>281.0</ele><time>2026-03-29T09:36:25.619Z</time></trkpt><trkpt lat="43.2542771" lon="12.0275816"><ele>281.0</ele><time>2026-03-29T09:36:26.607Z</time></trkpt><trkpt lat="43.2543589" lon="12.0273888"><ele>281.0</ele><time>2026-03-29T09:36:27.628Z</time></trkpt><trkpt lat="43.2544406" lon="12.0272038"><ele>281.0</ele><time>2026-03-29T09:36:28.624Z</time></trkpt><trkpt lat="43.2545165" lon="12.0270256"><ele>281.0</ele><time>2026-03-29T09:36:29.616Z</time></trkpt><trkpt lat="43.2545765" lon="12.0268432"><ele>281.0</ele><time>2026-03-29T09:36:30.656Z</time></trkpt><trkpt lat="43.2546326" lon="12.0266918"><ele>281.0</ele><time>2026-03-29T09:36:31.611Z</time></trkpt><trkpt lat="43.2546956" lon="12.0265418"><ele>281.0</ele><time>2026-03-29T09:36:32.619Z</time></trkpt><trkpt lat="43.2547634" lon="12.0263778"><ele>281.0</ele><time>2026-03-29T09:36:33.619Z</time></trkpt><trkpt lat="43.2548408" lon="12.0262012"><ele>281.0</ele><time>2026-03-29T09:36:34.617Z</time></trkpt><trkpt lat="43.2549066" lon="12.026012"><ele>281.0</ele><time>2026-03-29T09:36:35.621Z</time></trkpt><trkpt lat="43.2549713" lon="12.0258155"><ele>280.33333333333337</ele><time>2026-03-29T09:36:36.624Z</time></trkpt><trkpt lat="43.2550288" lon="12.0256062"><ele>279.6666666666667</ele><time>2026-03-29T09:36:37.635Z</time></trkpt><trkpt lat="43.2550638" lon="12.0253935"><ele>279.0</ele><time>2026-03-29T09:36:38.618Z</time></trkpt><trkpt lat="43.2551021" lon="12.0251795"><ele>279.0</ele><time>2026-03-29T09:36:39.642Z</time></trkpt><trkpt lat="43.255145" lon="12.0249829"><ele>279.0</ele><time>2026-03-29T09:36:40.618Z</time></trkpt><trkpt lat="43.2551877" lon="12.0247945"><ele>279.0</ele><time>2026-03-29T09:36:41.62Z</time></trkpt><trkpt lat="43.2552254" lon="12.0246151"><ele>279.0</ele><time>2026-03-29T09:36:42.63Z</time></trkpt><trkpt lat="43.2552729" lon="12.0244477"><ele>279.0</ele><time>2026-03-29T09:36:43.617Z</time></trkpt><trkpt lat="43.2553395" lon="12.0242754"><ele>279.0</ele><time>2026-03-29T09:36:44.633Z</time></trkpt><trkpt lat="43.255423" lon="12.0241267"><ele>279.0</ele><time>2026-03-29T09:36:45.628Z</time></trkpt><trkpt lat="43.2555083" lon="12.0239912"><ele>279.0</ele><time>2026-03-29T09:36:46.616Z</time></trkpt><trkpt lat="43.2556015" lon="12.0238531"><ele>279.75</ele><time>2026-03-29T09:36:47.635Z</time></trkpt><trkpt lat="43.2556987" lon="12.0237237"><ele>280.5</ele><time>2026-03-29T09:36:48.636Z</time></trkpt><trkpt lat="43.2557789" lon="12.0235823"><ele>281.25</ele><time>2026-03-29T09:36:49.712Z</time></trkpt><trkpt lat="43.2558418" lon="12.0234566"><ele>282.0</ele><time>2026-03-29T09:36:50.667Z</time></trkpt><trkpt lat="43.2559047" lon="12.0233293"><ele>281.2</ele><time>2026-03-29T09:36:51.628Z</time></trkpt><trkpt lat="43.2559733" lon="12.0232072"><ele>280.4</ele><time>2026-03-29T09:36:52.621Z</time></trkpt><trkpt lat="43.2560461" lon="12.0231495"><ele>279.6</ele><time>2026-03-29T09:36:53.616Z</time></trkpt><trkpt lat="43.2560963" lon="12.0230283"><ele>278.8</ele><time>2026-03-29T09:36:54.637Z</time></trkpt><trkpt lat="43.2561547" lon="12.0229163"><ele>278.0</ele><time>2026-03-29T09:36:55.613Z</time></trkpt><trkpt lat="43.2562147" lon="12.0228059"><ele>278.0</ele><time>2026-03-29T09:36:56.628Z</time></trkpt><trkpt lat="43.2562588" lon="12.0226865"><ele>278.0</ele><time>2026-03-29T09:36:57.631Z</time></trkpt><trkpt lat="43.256332" lon="12.0225811"><ele>278.0</ele><time>2026-03-29T09:36:58.626Z</time></trkpt><trkpt lat="43.2563774" lon="12.0224759"><ele>278.0</ele><time>2026-03-29T09:36:59.608Z</time></trkpt><trkpt lat="43.2564331" lon="12.0223664"><ele>278.0</ele><time>2026-03-29T09:37:00.618Z</time></trkpt><trkpt lat="43.2564747" lon="12.0222339"><ele>278.1666666666667</ele><time>2026-03-29T09:37:01.636Z</time></trkpt><trkpt lat="43.2565191" lon="12.0221323"><ele>278.33333333333337</ele><time>2026-03-29T09:37:02.63Z</time></trkpt><trkpt lat="43.2565544" lon="12.0220419"><ele>278.5</ele><time>2026-03-29T09:37:03.623Z</time></trkpt><trkpt lat="43.2566088" lon="12.0219553"><ele>278.6666666666667</ele><time>2026-03-29T09:37:04.619Z</time></trkpt><trkpt lat="43.2566608" lon="12.0217966"><ele>278.8333333333333</ele><time>2026-03-29T09:37:06.615Z</time></trkpt><trkpt lat="43.2566874" lon="12.0217127"><ele>279.0</ele><time>2026-03-29T09:37:07.621Z</time></trkpt><trkpt lat="43.2567529" lon="12.0215677"><ele>279.0</ele><time>2026-03-29T09:37:09.658Z</time></trkpt><trkpt lat="43.2568167" lon="12.0214554"><ele>279.0</ele><time>2026-03-29T09:37:11.613Z</time></trkpt><trkpt lat="43.2568783" lon="12.0213632"><ele>279.0</ele><time>2026-03-29T09:37:13.617Z</time></trkpt><trkpt lat="43.2569391" lon="12.0212723"><ele>279.0</ele><time>2026-03-29T09:37:15.61Z</time></trkpt><trkpt lat="43.2570035" lon="12.0211919"><ele>279.0</ele><time>2026-03-29T09:37:17.627Z</time></trkpt><trkpt lat="43.2570793" lon="12.0211289"><ele>279.0</ele><time>2026-03-29T09:37:19.607Z</time></trkpt><trkpt lat="43.2571432" lon="12.0210839"><ele>279.0</ele><time>2026-03-29T09:37:21.62Z</time></trkpt><trkpt lat="43.2572469" lon="12.0209927"><ele>279.0</ele><time>2026-03-29T09:37:27.644Z</time></trkpt><trkpt lat="43.2572947" lon="12.0209337"><ele>279.0</ele><time>2026-03-29T09:37:55.624Z</time></trkpt><trkpt lat="43.2573299" lon="12.0208606"><ele>279.0</ele><time>2026-03-29T09:37:59.619Z</time></trkpt><trkpt lat="43.2573813" lon="12.0207677"><ele>279.0</ele><time>2026-03-29T09:38:04.618Z</time></trkpt><trkpt lat="43.2574654" lon="12.0206384"><ele>279.6666666666667</ele><time>2026-03-29T09:38:06.62Z</time></trkpt><trkpt lat="43.2575155" lon="12.0205782"><ele>280.3333333333333</ele><time>2026-03-29T09:38:07.629Z</time></trkpt><trkpt lat="43.2575727" lon="12.0205055"><ele>281.0</ele><time>2026-03-29T09:38:08.657Z</time></trkpt><trkpt lat="43.2576391" lon="12.0204284"><ele>281.66666666666663</ele><time>2026-03-29T09:38:09.63Z</time></trkpt><trkpt lat="43.2577135" lon="12.0203456"><ele>282.3333333333333</ele><time>2026-03-29T09:38:10.625Z</time></trkpt><trkpt lat="43.2577809" lon="12.0202647"><ele>283.0</ele><time>2026-03-29T09:38:11.622Z</time></trkpt><trkpt lat="43.2578538" lon="12.020179"><ele>283.0</ele><time>2026-03-29T09:38:12.65Z</time></trkpt><trkpt lat="43.2579173" lon="12.0200939"><ele>283.0</ele><time>2026-03-29T09:38:13.611Z</time></trkpt><trkpt lat="43.2579937" lon="12.0199918"><ele>283.0</ele><time>2026-03-29T09:38:14.629Z</time></trkpt><trkpt lat="43.2580607" lon="12.0198933"><ele>283.0</ele><time>2026-03-29T09:38:15.649Z</time></trkpt><trkpt lat="43.2581372" lon="12.0197859"><ele>283.0</ele><time>2026-03-29T09:38:16.662Z</time></trkpt><trkpt lat="43.2582131" lon="12.0196677"><ele>282.6</ele><time>2026-03-29T09:38:17.658Z</time></trkpt><trkpt lat="43.2582952" lon="12.0195518"><ele>282.20000000000005</ele><time>2026-03-29T09:38:18.696Z</time></trkpt><trkpt lat="43.2583788" lon="12.0194388"><ele>281.8</ele><time>2026-03-29T09:38:19.655Z</time></trkpt><trkpt lat="43.2584442" lon="12.0193392"><ele>281.40000000000003</ele><time>2026-03-29T09:38:20.681Z</time></trkpt><trkpt lat="43.2585236" lon="12.0192275"><ele>281.0</ele><time>2026-03-29T09:38:21.664Z</time></trkpt><trkpt lat="43.2586041" lon="12.0190994"><ele>281.0</ele><time>2026-03-29T09:38:22.608Z</time></trkpt><trkpt lat="43.2585952" lon="12.0190025"><ele>281.0</ele><time>2026-03-29T09:38:26.627Z</time></trkpt><trkpt lat="43.2586583" lon="12.0188893"><ele>281.0</ele><time>2026-03-29T09:38:27.63Z</time></trkpt><trkpt lat="43.2587362" lon="12.0187517"><ele>281.0</ele><time>2026-03-29T09:38:28.652Z</time></trkpt><trkpt lat="43.2592912" lon="12.0181539"><ele>282.33333333333337</ele><time>2026-03-29T09:38:29.654Z</time></trkpt><trkpt lat="43.2593966" lon="12.0180071"><ele>283.6666666666667</ele><time>2026-03-29T09:38:30.663Z</time></trkpt><trkpt lat="43.2595076" lon="12.017871"><ele>285.0</ele><time>2026-03-29T09:38:31.654Z</time></trkpt><trkpt lat="43.2596234" lon="12.0177366"><ele>285.0</ele><time>2026-03-29T09:38:32.613Z</time></trkpt><trkpt lat="43.2597377" lon="12.0175937"><ele>285.0</ele><time>2026-03-29T09:38:33.615Z</time></trkpt><trkpt lat="43.2598637" lon="12.0174294"><ele>285.0</ele><time>2026-03-29T09:38:34.659Z</time></trkpt><trkpt lat="43.2599747" lon="12.0172701"><ele>284.6666666666667</ele><time>2026-03-29T09:38:35.613Z</time></trkpt><trkpt lat="43.2601178" lon="12.017083"><ele>284.33333333333337</ele><time>2026-03-29T09:38:36.691Z</time></trkpt><trkpt lat="43.2602558" lon="12.0169152"><ele>284.0</ele><time>2026-03-29T09:38:37.653Z</time></trkpt><trkpt lat="43.2603878" lon="12.0167564"><ele>284.6666666666667</ele><time>2026-03-29T09:38:38.629Z</time></trkpt><trkpt lat="43.260516" lon="12.0165905"><ele>285.3333333333333</ele><time>2026-03-29T09:38:39.617Z</time></trkpt><trkpt lat="43.2606557" lon="12.0164075"><ele>286.0</ele><time>2026-03-29T09:38:40.629Z</time></trkpt><trkpt lat="43.2607888" lon="12.0162294"><ele>286.0</ele><time>2026-03-29T09:38:41.615Z</time></trkpt><trkpt lat="43.2609221" lon="12.0160519"><ele>286.0</ele><time>2026-03-29T09:38:42.615Z</time></trkpt><trkpt lat="43.2610501" lon="12.0158746"><ele>286.0</ele><time>2026-03-29T09:38:43.614Z</time></trkpt><trkpt lat="43.2611773" lon="12.0156934"><ele>285.3333333333333</ele><time>2026-03-29T09:38:44.623Z</time></trkpt><trkpt lat="43.2613135" lon="12.0155085"><ele>284.6666666666667</ele><time>2026-03-29T09:38:45.669Z</time></trkpt><trkpt lat="43.2614389" lon="12.0153474"><ele>284.0</ele><time>2026-03-29T09:38:46.623Z</time></trkpt><trkpt lat="43.261579" lon="12.0151689"><ele>283.6666666666667</ele><time>2026-03-29T09:38:47.688Z</time></trkpt><trkpt lat="43.2617103" lon="12.0150022"><ele>283.3333333333333</ele><time>2026-03-29T09:38:48.625Z</time></trkpt><trkpt lat="43.2618535" lon="12.0147957"><ele>283.0</ele><time>2026-03-29T09:38:49.671Z</time></trkpt><trkpt lat="43.2619834" lon="12.0145977"><ele>283.66666666666663</ele><time>2026-03-29T09:38:50.659Z</time></trkpt><trkpt lat="43.2621204" lon="12.014409"><ele>284.3333333333333</ele><time>2026-03-29T09:38:51.663Z</time></trkpt><trkpt lat="43.2622528" lon="12.0142295"><ele>285.0</ele><time>2026-03-29T09:38:52.648Z</time></trkpt><trkpt lat="43.2623817" lon="12.0140592"><ele>285.0</ele><time>2026-03-29T09:38:53.617Z</time></trkpt><trkpt lat="43.2625054" lon="12.0138776"><ele>285.0</ele><time>2026-03-29T09:38:54.611Z</time></trkpt><trkpt lat="43.2626169" lon="12.0136701"><ele>285.0</ele><time>2026-03-29T09:38:55.612Z</time></trkpt><trkpt lat="43.2627265" lon="12.0134407"><ele>284.6666666666667</ele><time>2026-03-29T09:38:56.633Z</time></trkpt><trkpt lat="43.2628058" lon="12.0131983"><ele>284.33333333333337</ele><time>2026-03-29T09:38:57.615Z</time></trkpt><trkpt lat="43.2628363" lon="12.012941"><ele>284.0</ele><time>2026-03-29T09:38:58.641Z</time></trkpt><trkpt lat="43.262843" lon="12.0126702"><ele>283.0</ele><time>2026-03-29T09:38:59.635Z</time></trkpt><trkpt lat="43.2628467" lon="12.0123498"><ele>282.0</ele><time>2026-03-29T09:39:00.649Z</time></trkpt><trkpt lat="43.2628284" lon="12.0120172"><ele>282.0</ele><time>2026-03-29T09:39:01.642Z</time></trkpt><trkpt lat="43.2627721" lon="12.0116694"><ele>282.0</ele><time>2026-03-29T09:39:02.624Z</time></trkpt><trkpt lat="43.2627431" lon="12.0112977"><ele>281.0</ele><time>2026-03-29T09:39:03.628Z</time></trkpt><trkpt lat="43.2626963" lon="12.0109557"><ele>280.0</ele><time>2026-03-29T09:39:04.615Z</time></trkpt><trkpt lat="43.2626518" lon="12.0106092"><ele>280.0</ele><time>2026-03-29T09:39:05.629Z</time></trkpt><trkpt lat="43.2626171" lon="12.010272"><ele>280.0</ele><time>2026-03-29T09:39:06.619Z</time></trkpt><trkpt lat="43.2625952" lon="12.00997"><ele>280.0</ele><time>2026-03-29T09:39:07.623Z</time></trkpt><trkpt lat="43.262584" lon="12.0096863"><ele>280.0</ele><time>2026-03-29T09:39:08.62Z</time></trkpt><trkpt lat="43.2625632" lon="12.0093946"><ele>280.0</ele><time>2026-03-29T09:39:09.624Z</time></trkpt><trkpt lat="43.2625409" lon="12.0091243"><ele>280.0</ele><time>2026-03-29T09:39:10.629Z</time></trkpt><trkpt lat="43.2625075" lon="12.0088767"><ele>280.0</ele><time>2026-03-29T09:39:11.629Z</time></trkpt><trkpt lat="43.2624688" lon="12.0086747"><ele>280.0</ele><time>2026-03-29T09:39:12.629Z</time></trkpt><trkpt lat="43.2624348" lon="12.0084688"><ele>279.0</ele><time>2026-03-29T09:39:13.613Z</time></trkpt><trkpt lat="43.2623863" lon="12.008239"><ele>278.0</ele><time>2026-03-29T09:39:14.611Z</time></trkpt><trkpt lat="43.262325" lon="12.0080053"><ele>277.0</ele><time>2026-03-29T09:39:15.617Z</time></trkpt><trkpt lat="43.2622625" lon="12.0077673"><ele>276.66666666666663</ele><time>2026-03-29T09:39:16.617Z</time></trkpt><trkpt lat="43.2621988" lon="12.0075198"><ele>276.3333333333333</ele><time>2026-03-29T09:39:17.622Z</time></trkpt><trkpt lat="43.2621369" lon="12.0072554"><ele>276.0</ele><time>2026-03-29T09:39:18.623Z</time></trkpt><trkpt lat="43.2620805" lon="12.0069858"><ele>276.3333333333333</ele><time>2026-03-29T09:39:19.625Z</time></trkpt><trkpt lat="43.2620251" lon="12.0067164"><ele>276.66666666666663</ele><time>2026-03-29T09:39:20.612Z</time></trkpt><trkpt lat="43.2619688" lon="12.0064401"><ele>277.0</ele><time>2026-03-29T09:39:21.617Z</time></trkpt><trkpt lat="43.2619115" lon="12.0061609"><ele>277.0</ele><time>2026-03-29T09:39:22.64Z</time></trkpt><trkpt lat="43.261862" lon="12.0058904"><ele>277.0</ele><time>2026-03-29T09:39:23.653Z</time></trkpt><trkpt lat="43.2618215" lon="12.0056379"><ele>277.0</ele><time>2026-03-29T09:39:24.65Z</time></trkpt><trkpt lat="43.2617802" lon="12.0054071"><ele>278.66666666666663</ele><time>2026-03-29T09:39:25.632Z</time></trkpt><trkpt lat="43.2617298" lon="12.0051917"><ele>280.3333333333333</ele><time>2026-03-29T09:39:26.623Z</time></trkpt><trkpt lat="43.261659" lon="12.0049907"><ele>282.0</ele><time>2026-03-29T09:39:27.613Z</time></trkpt><trkpt lat="43.2615721" lon="12.0047971"><ele>281.75</ele><time>2026-03-29T09:39:28.634Z</time></trkpt><trkpt lat="43.261489" lon="12.0046525"><ele>281.5</ele><time>2026-03-29T09:39:30.626Z</time></trkpt><trkpt lat="43.2614106" lon="12.0045175"><ele>281.25</ele><time>2026-03-29T09:39:31.64Z</time></trkpt><trkpt lat="43.261314" lon="12.0044025"><ele>281.0</ele><time>2026-03-29T09:39:32.633Z</time></trkpt><trkpt lat="43.2611955" lon="12.0042735"><ele>285.0</ele><time>2026-03-29T09:39:33.618Z</time></trkpt><trkpt lat="43.2609971" lon="12.0040864"><ele>289.0</ele><time>2026-03-29T09:39:34.636Z</time></trkpt><trkpt lat="43.2608146" lon="12.0039279"><ele>289.0</ele><time>2026-03-29T09:39:35.627Z</time></trkpt><trkpt lat="43.2606813" lon="12.0037948"><ele>289.0</ele><time>2026-03-29T09:39:36.631Z</time></trkpt><trkpt lat="43.2606391" lon="12.0037027"><ele>289.0</ele><time>2026-03-29T09:39:38.618Z</time></trkpt><trkpt lat="43.2605512" lon="12.003428"><ele>287.3333333333333</ele><time>2026-03-29T09:39:40.615Z</time></trkpt><trkpt lat="43.2605023" lon="12.0031778"><ele>285.6666666666667</ele><time>2026-03-29T09:39:41.664Z</time></trkpt><trkpt lat="43.2604679" lon="12.002932"><ele>284.0</ele><time>2026-03-29T09:39:42.667Z</time></trkpt><trkpt lat="43.2604574" lon="12.0027324"><ele>284.0</ele><time>2026-03-29T09:39:43.623Z</time></trkpt><trkpt lat="43.2604552" lon="12.0025318"><ele>284.0</ele><time>2026-03-29T09:39:44.613Z</time></trkpt><trkpt lat="43.2604604" lon="12.0023477"><ele>284.0</ele><time>2026-03-29T09:39:45.63Z</time></trkpt><trkpt lat="43.2604722" lon="12.0022438"><ele>284.0</ele><time>2026-03-29T09:39:48.687Z</time></trkpt><trkpt lat="43.2604741" lon="12.0020808"><ele>283.0</ele><time>2026-03-29T09:39:50.65Z</time></trkpt><trkpt lat="43.2605886" lon="12.0012485"><ele>284.5</ele><time>2026-03-29T09:39:51.624Z</time></trkpt><trkpt lat="43.2606198" lon="12.0010774"><ele>286.0</ele><time>2026-03-29T09:39:52.617Z</time></trkpt><trkpt lat="43.2606427" lon="12.0008958"><ele>287.5</ele><time>2026-03-29T09:39:53.631Z</time></trkpt><trkpt lat="43.2606713" lon="12.0007"><ele>289.0</ele><time>2026-03-29T09:39:54.658Z</time></trkpt><trkpt lat="43.2606942" lon="12.0005381"><ele>289.0</ele><time>2026-03-29T09:39:55.633Z</time></trkpt><trkpt lat="43.2607371" lon="12.0003857"><ele>289.0</ele><time>2026-03-29T09:39:56.645Z</time></trkpt><trkpt lat="43.2607926" lon="12.0002511"><ele>289.0</ele><time>2026-03-29T09:39:57.617Z</time></trkpt><trkpt lat="43.2608693" lon="12.0001233"><ele>289.0</ele><time>2026-03-29T09:39:58.626Z</time></trkpt><trkpt lat="43.2609509" lon="11.9999792"><ele>289.0</ele><time>2026-03-29T09:39:59.651Z</time></trkpt><trkpt lat="43.2610411" lon="11.9998291"><ele>289.0</ele><time>2026-03-29T09:40:00.628Z</time></trkpt><trkpt lat="43.2611221" lon="11.9996661"><ele>289.0</ele><time>2026-03-29T09:40:01.654Z</time></trkpt><trkpt lat="43.2611993" lon="11.9994999"><ele>289.0</ele><time>2026-03-29T09:40:02.624Z</time></trkpt><trkpt lat="43.2612383" lon="11.9992993"><ele>288.5</ele><time>2026-03-29T09:40:03.633Z</time></trkpt><trkpt lat="43.2613006" lon="11.9991392"><ele>288.0</ele><time>2026-03-29T09:40:04.633Z</time></trkpt><trkpt lat="43.2613601" lon="11.9989857"><ele>287.5</ele><time>2026-03-29T09:40:05.636Z</time></trkpt><trkpt lat="43.2614354" lon="11.9988452"><ele>287.0</ele><time>2026-03-29T09:40:06.627Z</time></trkpt><trkpt lat="43.261528" lon="11.9986991"><ele>289.6666666666667</ele><time>2026-03-29T09:40:07.643Z</time></trkpt><trkpt lat="43.2616495" lon="11.9985807"><ele>292.3333333333333</ele><time>2026-03-29T09:40:08.632Z</time></trkpt><trkpt lat="43.2617691" lon="11.9984223"><ele>295.0</ele><time>2026-03-29T09:40:09.717Z</time></trkpt><trkpt lat="43.2619813" lon="11.9980889"><ele>295.0</ele><time>2026-03-29T09:40:11.616Z</time></trkpt><trkpt lat="43.2620854" lon="11.9978742"><ele>295.0</ele><time>2026-03-29T09:40:12.649Z</time></trkpt><trkpt lat="43.2621764" lon="11.9976712"><ele>295.0</ele><time>2026-03-29T09:40:13.617Z</time></trkpt><trkpt lat="43.2622569" lon="11.9974919"><ele>297.5</ele><time>2026-03-29T09:40:14.646Z</time></trkpt><trkpt lat="43.262365" lon="11.9973741"><ele>300.0</ele><time>2026-03-29T09:40:16.628Z</time></trkpt><trkpt lat="43.2624562" lon="11.9973046"><ele>302.5</ele><time>2026-03-29T09:40:17.654Z</time></trkpt><trkpt lat="43.2625812" lon="11.9971863"><ele>305.0</ele><time>2026-03-29T09:40:18.656Z</time></trkpt><trkpt lat="43.2627486" lon="11.9970574"><ele>305.0</ele><time>2026-03-29T09:40:19.677Z</time></trkpt><trkpt lat="43.2629208" lon="11.9969007"><ele>305.0</ele><time>2026-03-29T09:40:20.622Z</time></trkpt><trkpt lat="43.2631144" lon="11.9967416"><ele>305.0</ele><time>2026-03-29T09:40:21.652Z</time></trkpt><trkpt lat="43.2632937" lon="11.9966037"><ele>306.33333333333337</ele><time>2026-03-29T09:40:22.624Z</time></trkpt><trkpt lat="43.2634235" lon="11.9965052"><ele>307.6666666666667</ele><time>2026-03-29T09:40:23.666Z</time></trkpt><trkpt lat="43.2635866" lon="11.996438"><ele>309.0</ele><time>2026-03-29T09:40:24.659Z</time></trkpt><trkpt lat="43.2637603" lon="11.996392"><ele>309.0</ele><time>2026-03-29T09:40:25.659Z</time></trkpt><trkpt lat="43.2639357" lon="11.9963596"><ele>309.0</ele><time>2026-03-29T09:40:26.669Z</time></trkpt><trkpt lat="43.2641034" lon="11.9963316"><ele>309.0</ele><time>2026-03-29T09:40:27.636Z</time></trkpt><trkpt lat="43.2642832" lon="11.9962974"><ele>311.0</ele><time>2026-03-29T09:40:28.665Z</time></trkpt><trkpt lat="43.26437" lon="11.9962655"><ele>313.0</ele><time>2026-03-29T09:40:29.622Z</time></trkpt><trkpt lat="43.264536" lon="11.9962246"><ele>315.0</ele><time>2026-03-29T09:40:30.634Z</time></trkpt><trkpt lat="43.2647096" lon="11.996161"><ele>317.0</ele><time>2026-03-29T09:40:31.634Z</time></trkpt><trkpt lat="43.2648991" lon="11.9960799"><ele>316.5</ele><time>2026-03-29T09:40:32.617Z</time></trkpt><trkpt lat="43.265118" lon="11.9959707"><ele>316.0</ele><time>2026-03-29T09:40:33.633Z</time></trkpt><trkpt lat="43.2653282" lon="11.9958355"><ele>316.0</ele><time>2026-03-29T09:40:34.652Z</time></trkpt><trkpt lat="43.2655161" lon="11.9956774"><ele>316.0</ele><time>2026-03-29T09:40:35.634Z</time></trkpt><trkpt lat="43.2657151" lon="11.9955124"><ele>320.66666666666663</ele><time>2026-03-29T09:40:36.636Z</time></trkpt><trkpt lat="43.2658928" lon="11.99535"><ele>325.3333333333333</ele><time>2026-03-29T09:40:37.633Z</time></trkpt><trkpt lat="43.2660516" lon="11.9951789"><ele>330.0</ele><time>2026-03-29T09:40:38.621Z</time></trkpt><trkpt lat="43.2662027" lon="11.9950094"><ele>332.0</ele><time>2026-03-29T09:40:39.618Z</time></trkpt><trkpt lat="43.2663389" lon="11.9948496"><ele>334.0</ele><time>2026-03-29T09:40:40.638Z</time></trkpt><trkpt lat="43.2664737" lon="11.9946829"><ele>336.0</ele><time>2026-03-29T09:40:41.618Z</time></trkpt><trkpt lat="43.2666147" lon="11.9945158"><ele>336.0</ele><time>2026-03-29T09:40:42.611Z</time></trkpt><trkpt lat="43.2667607" lon="11.9943424"><ele>336.0</ele><time>2026-03-29T09:40:43.634Z</time></trkpt><trkpt lat="43.2669043" lon="11.99418"><ele>336.0</ele><time>2026-03-29T09:40:44.628Z</time></trkpt><trkpt lat="43.2670315" lon="11.9940076"><ele>335.0</ele><time>2026-03-29T09:40:45.63Z</time></trkpt><trkpt lat="43.2671275" lon="11.9939397"><ele>334.0</ele><time>2026-03-29T09:40:48.633Z</time></trkpt><trkpt lat="43.2679832" lon="11.9931829"><ele>338.66666666666663</ele><time>2026-03-29T09:40:51.617Z</time></trkpt><trkpt lat="43.2681278" lon="11.9930275"><ele>343.3333333333333</ele><time>2026-03-29T09:40:52.619Z</time></trkpt><trkpt lat="43.2682475" lon="11.9928559"><ele>348.0</ele><time>2026-03-29T09:40:53.615Z</time></trkpt><trkpt lat="43.2683427" lon="11.9926779"><ele>348.0</ele><time>2026-03-29T09:40:54.63Z</time></trkpt><trkpt lat="43.2684274" lon="11.9925292"><ele>348.0</ele><time>2026-03-29T09:40:55.626Z</time></trkpt><trkpt lat="43.2685292" lon="11.9924551"><ele>348.0</ele><time>2026-03-29T09:40:56.618Z</time></trkpt><trkpt lat="43.268596" lon="11.992371"><ele>348.0</ele><time>2026-03-29T09:40:57.636Z</time></trkpt><trkpt lat="43.2686426" lon="11.992266"><ele>348.0</ele><time>2026-03-29T09:40:58.625Z</time></trkpt><trkpt lat="43.2686727" lon="11.9921605"><ele>347.0</ele><time>2026-03-29T09:40:59.622Z</time></trkpt><trkpt lat="43.2687208" lon="11.9921023"><ele>346.0</ele><time>2026-03-29T09:41:00.639Z</time></trkpt><trkpt lat="43.2687728" lon="11.9920326"><ele>345.0</ele><time>2026-03-29T09:41:01.621Z</time></trkpt><trkpt lat="43.2688707" lon="11.9919771"><ele>344.0</ele><time>2026-03-29T09:41:03.62Z</time></trkpt><trkpt lat="43.2689679" lon="11.9919247"><ele>343.0</ele><time>2026-03-29T09:41:05.64Z</time></trkpt><trkpt lat="43.2690257" lon="11.9919622"><ele>342.0</ele><time>2026-03-29T09:41:09.66Z</time></trkpt><trkpt lat="43.2691252" lon="11.9920217"><ele>345.0</ele><time>2026-03-29T09:41:11.626Z</time></trkpt><trkpt lat="43.2692153" lon="11.9920696"><ele>348.0</ele><time>2026-03-29T09:41:12.618Z</time></trkpt><trkpt lat="43.269359" lon="11.9920042"><ele>351.0</ele><time>2026-03-29T09:41:14.615Z</time></trkpt><trkpt lat="43.2694317" lon="11.9919421"><ele>354.0</ele><time>2026-03-29T09:41:15.628Z</time></trkpt><trkpt lat="43.2694992" lon="11.9918349"><ele>357.0</ele><time>2026-03-29T09:41:16.615Z</time></trkpt><trkpt lat="43.2695529" lon="11.9916873"><ele>354.25</ele><time>2026-03-29T09:41:17.621Z</time></trkpt><trkpt lat="43.2695511" lon="11.9915253"><ele>351.5</ele><time>2026-03-29T09:41:18.638Z</time></trkpt><trkpt lat="43.269521" lon="11.9913358"><ele>348.75</ele><time>2026-03-29T09:41:19.648Z</time></trkpt><trkpt lat="43.2694501" lon="11.9911484"><ele>346.0</ele><time>2026-03-29T09:41:20.667Z</time></trkpt><trkpt lat="43.2693925" lon="11.9909697"><ele>345.66666666666663</ele><time>2026-03-29T09:41:21.627Z</time></trkpt><trkpt lat="43.269352" lon="11.9907546"><ele>345.3333333333333</ele><time>2026-03-29T09:41:22.66Z</time></trkpt><trkpt lat="43.2692773" lon="11.9905253"><ele>345.0</ele><time>2026-03-29T09:41:23.655Z</time></trkpt><trkpt lat="43.2692143" lon="11.9903"><ele>345.0</ele><time>2026-03-29T09:41:24.625Z</time></trkpt><trkpt lat="43.2691247" lon="11.9900732"><ele>345.0</ele><time>2026-03-29T09:41:25.663Z</time></trkpt><trkpt lat="43.2690541" lon="11.9898636"><ele>345.0</ele><time>2026-03-29T09:41:26.632Z</time></trkpt><trkpt lat="43.2690168" lon="11.9897373"><ele>346.0</ele><time>2026-03-29T09:41:27.653Z</time></trkpt><trkpt lat="43.2689655" lon="11.9895814"><ele>347.0</ele><time>2026-03-29T09:41:28.621Z</time></trkpt><trkpt lat="43.2695232" lon="11.989052"><ele>347.0</ele><time>2026-03-29T09:41:29.618Z</time></trkpt><trkpt lat="43.2695853" lon="11.9888335"><ele>347.0</ele><time>2026-03-29T09:41:30.65Z</time></trkpt><trkpt lat="43.2696533" lon="11.9886468"><ele>347.0</ele><time>2026-03-29T09:41:31.627Z</time></trkpt><trkpt lat="43.2697454" lon="11.9884479"><ele>354.0</ele><time>2026-03-29T09:41:32.634Z</time></trkpt><trkpt lat="43.2698692" lon="11.9882636"><ele>361.0</ele><time>2026-03-29T09:41:33.621Z</time></trkpt><trkpt lat="43.269982" lon="11.9881062"><ele>368.0</ele><time>2026-03-29T09:41:34.636Z</time></trkpt><trkpt lat="43.2701632" lon="11.9879004"><ele>368.0</ele><time>2026-03-29T09:41:35.665Z</time></trkpt><trkpt lat="43.2703156" lon="11.987683"><ele>368.0</ele><time>2026-03-29T09:41:36.644Z</time></trkpt><trkpt lat="43.2704669" lon="11.9874514"><ele>368.0</ele><time>2026-03-29T09:41:37.654Z</time></trkpt><trkpt lat="43.2705936" lon="11.9872222"><ele>371.25</ele><time>2026-03-29T09:41:38.63Z</time></trkpt><trkpt lat="43.2707367" lon="11.9871778"><ele>374.5</ele><time>2026-03-29T09:41:40.67Z</time></trkpt><trkpt lat="43.2708587" lon="11.9871167"><ele>377.75</ele><time>2026-03-29T09:41:41.638Z</time></trkpt><trkpt lat="43.2709985" lon="11.9870797"><ele>381.0</ele><time>2026-03-29T09:41:42.639Z</time></trkpt><trkpt lat="43.2711484" lon="11.9870657"><ele>381.0</ele><time>2026-03-29T09:41:43.649Z</time></trkpt><trkpt lat="43.2713107" lon="11.9870542"><ele>381.0</ele><time>2026-03-29T09:41:44.623Z</time></trkpt><trkpt lat="43.2715155" lon="11.9870271"><ele>381.0</ele><time>2026-03-29T09:41:45.625Z</time></trkpt><trkpt lat="43.2717528" lon="11.9869865"><ele>376.5</ele><time>2026-03-29T09:41:46.615Z</time></trkpt><trkpt lat="43.2720778" lon="11.9868812"><ele>372.0</ele><time>2026-03-29T09:41:47.636Z</time></trkpt><trkpt lat="43.2712508" lon="11.9863494"><ele>372.0</ele><time>2026-03-29T09:41:48.677Z</time></trkpt><trkpt lat="43.2711448" lon="11.9861769"><ele>372.0</ele><time>2026-03-29T09:41:49.65Z</time></trkpt><trkpt lat="43.2709577" lon="11.9859911"><ele>372.0</ele><time>2026-03-29T09:41:50.624Z</time></trkpt><trkpt lat="43.2707357" lon="11.9857982"><ele>369.6666666666667</ele><time>2026-03-29T09:41:51.657Z</time></trkpt><trkpt lat="43.2705426" lon="11.9856079"><ele>367.33333333333337</ele><time>2026-03-29T09:41:52.65Z</time></trkpt><trkpt lat="43.2703988" lon="11.9854371"><ele>365.0</ele><time>2026-03-29T09:41:53.646Z</time></trkpt><trkpt lat="43.2702734" lon="11.9852806"><ele>365.0</ele><time>2026-03-29T09:41:54.625Z</time></trkpt><trkpt lat="43.270175" lon="11.9851509"><ele>365.0</ele><time>2026-03-29T09:41:55.622Z</time></trkpt><trkpt lat="43.2700964" lon="11.9850275"><ele>365.0</ele><time>2026-03-29T09:41:56.622Z</time></trkpt><trkpt lat="43.2700372" lon="11.9849292"><ele>365.0</ele><time>2026-03-29T09:41:57.619Z</time></trkpt><trkpt lat="43.269983" lon="11.9848571"><ele>365.0</ele><time>2026-03-29T09:41:58.634Z</time></trkpt><trkpt lat="43.2699147" lon="11.9847076"><ele>363.4</ele><time>2026-03-29T09:42:00.624Z</time></trkpt><trkpt lat="43.2698727" lon="11.9846252"><ele>361.8</ele><time>2026-03-29T09:42:01.671Z</time></trkpt><trkpt lat="43.2698124" lon="11.9845389"><ele>360.20000000000005</ele><time>2026-03-29T09:42:02.625Z</time></trkpt><trkpt lat="43.269739" lon="11.9844345"><ele>358.6</ele><time>2026-03-29T09:42:03.659Z</time></trkpt><trkpt lat="43.269671" lon="11.9843254"><ele>357.0</ele><time>2026-03-29T09:42:04.668Z</time></trkpt><trkpt lat="43.2696106" lon="11.9842232"><ele>358.40000000000003</ele><time>2026-03-29T09:42:05.667Z</time></trkpt><trkpt lat="43.2695552" lon="11.9841337"><ele>359.8</ele><time>2026-03-29T09:42:06.679Z</time></trkpt><trkpt lat="43.269511" lon="11.9840616"><ele>361.2</ele><time>2026-03-29T09:42:07.667Z</time></trkpt><trkpt lat="43.2694592" lon="11.9839116"><ele>362.6</ele><time>2026-03-29T09:42:09.613Z</time></trkpt><trkpt lat="43.2694206" lon="11.9837791"><ele>364.0</ele><time>2026-03-29T09:42:11.634Z</time></trkpt><trkpt lat="43.2693719" lon="11.9836799"><ele>364.0</ele><time>2026-03-29T09:42:13.64Z</time></trkpt><trkpt lat="43.2693149" lon="11.9835846"><ele>364.0</ele><time>2026-03-29T09:42:15.626Z</time></trkpt><trkpt lat="43.2692842" lon="11.9834939"><ele>364.0</ele><time>2026-03-29T09:42:16.616Z</time></trkpt><trkpt lat="43.2692398" lon="11.9833812"><ele>364.0</ele><time>2026-03-29T09:42:17.627Z</time></trkpt><trkpt lat="43.2692055" lon="11.9832524"><ele>364.0</ele><time>2026-03-29T09:42:18.632Z</time></trkpt><trkpt lat="43.2691819" lon="11.9830984"><ele>364.25</ele><time>2026-03-29T09:42:19.654Z</time></trkpt><trkpt lat="43.2691766" lon="11.9829448"><ele>364.5</ele><time>2026-03-29T09:42:20.62Z</time></trkpt><trkpt lat="43.2691911" lon="11.9827841"><ele>364.75</ele><time>2026-03-29T09:42:21.624Z</time></trkpt><trkpt lat="43.269247" lon="11.9826122"><ele>365.0</ele><time>2026-03-29T09:42:22.619Z</time></trkpt><trkpt lat="43.2693461" lon="11.9824334"><ele>365.0</ele><time>2026-03-29T09:42:23.635Z</time></trkpt><trkpt lat="43.2694392" lon="11.9822623"><ele>365.0</ele><time>2026-03-29T09:42:24.632Z</time></trkpt><trkpt lat="43.2695232" lon="11.9821021"><ele>365.0</ele><time>2026-03-29T09:42:25.63Z</time></trkpt><trkpt lat="43.2695848" lon="11.9819569"><ele>365.0</ele><time>2026-03-29T09:42:26.637Z</time></trkpt><trkpt lat="43.2696418" lon="11.9818244"><ele>365.0</ele><time>2026-03-29T09:42:27.636Z</time></trkpt><trkpt lat="43.2697088" lon="11.9817019"><ele>365.0</ele><time>2026-03-29T09:42:28.624Z</time></trkpt><trkpt lat="43.2697841" lon="11.9815882"><ele>365.0</ele><time>2026-03-29T09:42:29.631Z</time></trkpt><trkpt lat="43.2698685" lon="11.9814973"><ele>365.0</ele><time>2026-03-29T09:42:30.626Z</time></trkpt><trkpt lat="43.2699575" lon="11.9814158"><ele>365.0</ele><time>2026-03-29T09:42:31.613Z</time></trkpt><trkpt lat="43.2700531" lon="11.9813267"><ele>365.4</ele><time>2026-03-29T09:42:32.636Z</time></trkpt><trkpt lat="43.2701438" lon="11.9812504"><ele>365.8</ele><time>2026-03-29T09:42:33.633Z</time></trkpt><trkpt lat="43.2702277" lon="11.9811761"><ele>366.20000000000005</ele><time>2026-03-29T09:42:34.623Z</time></trkpt><trkpt lat="43.2703121" lon="11.9811038"><ele>366.6</ele><time>2026-03-29T09:42:35.642Z</time></trkpt><trkpt lat="43.2703961" lon="11.981027"><ele>367.0</ele><time>2026-03-29T09:42:36.625Z</time></trkpt><trkpt lat="43.2704858" lon="11.9809359"><ele>366.75</ele><time>2026-03-29T09:42:37.632Z</time></trkpt><trkpt lat="43.2705705" lon="11.9808308"><ele>366.5</ele><time>2026-03-29T09:42:38.654Z</time></trkpt><trkpt lat="43.2706541" lon="11.9806958"><ele>366.25</ele><time>2026-03-29T09:42:39.625Z</time></trkpt><trkpt lat="43.2707277" lon="11.9805325"><ele>366.0</ele><time>2026-03-29T09:42:40.649Z</time></trkpt><trkpt lat="43.2707875" lon="11.9803639"><ele>366.0</ele><time>2026-03-29T09:42:41.629Z</time></trkpt><trkpt lat="43.2708498" lon="11.9801956"><ele>366.0</ele><time>2026-03-29T09:42:42.631Z</time></trkpt><trkpt lat="43.2709081" lon="11.9800257"><ele>366.0</ele><time>2026-03-29T09:42:43.641Z</time></trkpt><trkpt lat="43.2709764" lon="11.9798812"><ele>366.0</ele><time>2026-03-29T09:42:44.624Z</time></trkpt><trkpt lat="43.2710664" lon="11.9797443"><ele>364.5</ele><time>2026-03-29T09:42:45.629Z</time></trkpt><trkpt lat="43.2711755" lon="11.9796245"><ele>363.0</ele><time>2026-03-29T09:42:46.641Z</time></trkpt><trkpt lat="43.2712884" lon="11.9795463"><ele>361.5</ele><time>2026-03-29T09:42:47.62Z</time></trkpt><trkpt lat="43.2714256" lon="11.9795152"><ele>360.0</ele><time>2026-03-29T09:42:48.626Z</time></trkpt><trkpt lat="43.2715548" lon="11.9794946"><ele>360.0</ele><time>2026-03-29T09:42:49.636Z</time></trkpt><trkpt lat="43.2716863" lon="11.9795012"><ele>360.0</ele><time>2026-03-29T09:42:50.642Z</time></trkpt><trkpt lat="43.2718194" lon="11.9795172"><ele>360.0</ele><time>2026-03-29T09:42:51.626Z</time></trkpt><trkpt lat="43.2719383" lon="11.9795038"><ele>360.0</ele><time>2026-03-29T09:42:52.642Z</time></trkpt><trkpt lat="43.2720345" lon="11.9794828"><ele>360.0</ele><time>2026-03-29T09:42:53.633Z</time></trkpt><trkpt lat="43.2721017" lon="11.9794499"><ele>360.0</ele><time>2026-03-29T09:42:54.64Z</time></trkpt><trkpt lat="43.2721375" lon="11.979368"><ele>360.0</ele><time>2026-03-29T09:42:55.625Z</time></trkpt><trkpt lat="43.272168" lon="11.9792521"><ele>360.0</ele><time>2026-03-29T09:42:56.661Z</time></trkpt><trkpt lat="43.2721457" lon="11.9791062"><ele>360.0</ele><time>2026-03-29T09:42:57.676Z</time></trkpt><trkpt lat="43.2720668" lon="11.9789538"><ele>354.0</ele><time>2026-03-29T09:42:58.653Z</time></trkpt><trkpt lat="43.2719596" lon="11.9787428"><ele>348.0</ele><time>2026-03-29T09:42:59.644Z</time></trkpt><trkpt lat="43.2718972" lon="11.9785276"><ele>342.0</ele><time>2026-03-29T09:43:00.632Z</time></trkpt><trkpt lat="43.2719055" lon="11.9783424"><ele>338.6666666666667</ele><time>2026-03-29T09:43:01.63Z</time></trkpt><trkpt lat="43.2719386" lon="11.9781338"><ele>335.33333333333337</ele><time>2026-03-29T09:43:02.621Z</time></trkpt><trkpt lat="43.2720018" lon="11.9779431"><ele>332.0</ele><time>2026-03-29T09:43:03.627Z</time></trkpt><trkpt lat="43.2720884" lon="11.9777584"><ele>332.0</ele><time>2026-03-29T09:43:04.64Z</time></trkpt><trkpt lat="43.2721897" lon="11.9775921"><ele>332.0</ele><time>2026-03-29T09:43:05.621Z</time></trkpt><trkpt lat="43.2723052" lon="11.9774424"><ele>332.0</ele><time>2026-03-29T09:43:06.628Z</time></trkpt><trkpt lat="43.2724349" lon="11.9773161"><ele>333.6666666666667</ele><time>2026-03-29T09:43:07.615Z</time></trkpt><trkpt lat="43.2725794" lon="11.9771829"><ele>335.3333333333333</ele><time>2026-03-29T09:43:08.647Z</time></trkpt><trkpt lat="43.2727085" lon="11.9770435"><ele>337.0</ele><time>2026-03-29T09:43:09.617Z</time></trkpt><trkpt lat="43.2728174" lon="11.9768732"><ele>337.0</ele><time>2026-03-29T09:43:10.644Z</time></trkpt><trkpt lat="43.2729072" lon="11.9767032"><ele>337.0</ele><time>2026-03-29T09:43:11.626Z</time></trkpt><trkpt lat="43.2729812" lon="11.9765128"><ele>337.0</ele><time>2026-03-29T09:43:12.625Z</time></trkpt><trkpt lat="43.2730359" lon="11.9763087"><ele>337.66666666666663</ele><time>2026-03-29T09:43:13.639Z</time></trkpt><trkpt lat="43.2731218" lon="11.9761242"><ele>338.3333333333333</ele><time>2026-03-29T09:43:14.623Z</time></trkpt><trkpt lat="43.2732267" lon="11.9759722"><ele>339.0</ele><time>2026-03-29T09:43:15.645Z</time></trkpt><trkpt lat="43.2733369" lon="11.9758418"><ele>336.0</ele><time>2026-03-29T09:43:16.62Z</time></trkpt><trkpt lat="43.2734602" lon="11.9757465"><ele>333.0</ele><time>2026-03-29T09:43:17.671Z</time></trkpt><trkpt lat="43.2735963" lon="11.975718"><ele>330.0</ele><time>2026-03-29T09:43:18.613Z</time></trkpt><trkpt lat="43.2737489" lon="11.9757105"><ele>327.0</ele><time>2026-03-29T09:43:19.623Z</time></trkpt><trkpt lat="43.2739027" lon="11.9757047"><ele>326.0</ele><time>2026-03-29T09:43:20.613Z</time></trkpt><trkpt lat="43.2740716" lon="11.9756898"><ele>325.0</ele><time>2026-03-29T09:43:21.617Z</time></trkpt><trkpt lat="43.2742313" lon="11.9756643"><ele>324.0</ele><time>2026-03-29T09:43:22.614Z</time></trkpt><trkpt lat="43.2743965" lon="11.9756401"><ele>324.0</ele><time>2026-03-29T09:43:23.625Z</time></trkpt><trkpt lat="43.2745683" lon="11.9756257"><ele>324.0</ele><time>2026-03-29T09:43:24.616Z</time></trkpt><trkpt lat="43.2747676" lon="11.975609"><ele>324.0</ele><time>2026-03-29T09:43:25.656Z</time></trkpt><trkpt lat="43.274986" lon="11.9756109"><ele>322.6666666666667</ele><time>2026-03-29T09:43:26.654Z</time></trkpt><trkpt lat="43.2751952" lon="11.9756219"><ele>321.33333333333337</ele><time>2026-03-29T09:43:27.627Z</time></trkpt><trkpt lat="43.2753913" lon="11.9756175"><ele>320.0</ele><time>2026-03-29T09:43:28.633Z</time></trkpt><trkpt lat="43.2755647" lon="11.9756034"><ele>318.6666666666667</ele><time>2026-03-29T09:43:29.611Z</time></trkpt><trkpt lat="43.2757458" lon="11.9755976"><ele>317.3333333333333</ele><time>2026-03-29T09:43:30.653Z</time></trkpt><trkpt lat="43.2759014" lon="11.9756007"><ele>316.0</ele><time>2026-03-29T09:43:31.637Z</time></trkpt><trkpt lat="43.2760378" lon="11.9756255"><ele>316.0</ele><time>2026-03-29T09:43:32.632Z</time></trkpt><trkpt lat="43.2761361" lon="11.9756636"><ele>316.0</ele><time>2026-03-29T09:43:33.629Z</time></trkpt><trkpt lat="43.2762353" lon="11.9757193"><ele>316.0</ele><time>2026-03-29T09:43:34.648Z</time></trkpt><trkpt lat="43.2763305" lon="11.9757827"><ele>316.0</ele><time>2026-03-29T09:43:35.611Z</time></trkpt><trkpt lat="43.276429" lon="11.9758662"><ele>316.0</ele><time>2026-03-29T09:43:36.642Z</time></trkpt><trkpt lat="43.2765121" lon="11.9759326"><ele>315.3333333333333</ele><time>2026-03-29T09:43:37.635Z</time></trkpt><trkpt lat="43.2765414" lon="11.9761088"><ele>314.6666666666667</ele><time>2026-03-29T09:43:38.623Z</time></trkpt><trkpt lat="43.2765469" lon="11.9763325"><ele>314.0</ele><time>2026-03-29T09:43:39.632Z</time></trkpt><trkpt lat="43.2765448" lon="11.9765489"><ele>314.0</ele><time>2026-03-29T09:43:40.621Z</time></trkpt><trkpt lat="43.2765601" lon="11.976712"><ele>314.0</ele><time>2026-03-29T09:43:41.625Z</time></trkpt><trkpt lat="43.2765967" lon="11.9767883"><ele>314.0</ele><time>2026-03-29T09:43:42.624Z</time></trkpt><trkpt lat="43.2767491" lon="11.976745"><ele>314.0</ele><time>2026-03-29T09:43:44.623Z</time></trkpt><trkpt lat="43.2768524" lon="11.976625"><ele>314.0</ele><time>2026-03-29T09:43:45.63Z</time></trkpt><trkpt lat="43.276946" lon="11.9765041"><ele>314.0</ele><time>2026-03-29T09:43:46.639Z</time></trkpt><trkpt lat="43.2770165" lon="11.9763256"><ele>314.0</ele><time>2026-03-29T09:43:47.616Z</time></trkpt><trkpt lat="43.2770806" lon="11.9761161"><ele>314.0</ele><time>2026-03-29T09:43:48.654Z</time></trkpt><trkpt lat="43.277144" lon="11.975877"><ele>314.6666666666667</ele><time>2026-03-29T09:43:49.669Z</time></trkpt><trkpt lat="43.2772024" lon="11.9756756"><ele>315.3333333333333</ele><time>2026-03-29T09:43:50.623Z</time></trkpt><trkpt lat="43.2772594" lon="11.9754551"><ele>316.0</ele><time>2026-03-29T09:43:51.691Z</time></trkpt><trkpt lat="43.2773092" lon="11.9752639"><ele>316.0</ele><time>2026-03-29T09:43:52.622Z</time></trkpt><trkpt lat="43.2773713" lon="11.9750581"><ele>316.0</ele><time>2026-03-29T09:43:53.645Z</time></trkpt><trkpt lat="43.2774115" lon="11.9748888"><ele>316.0</ele><time>2026-03-29T09:43:54.627Z</time></trkpt><trkpt lat="43.2774477" lon="11.9746761"><ele>313.0</ele><time>2026-03-29T09:43:55.626Z</time></trkpt><trkpt lat="43.2774986" lon="11.9744537"><ele>310.0</ele><time>2026-03-29T09:43:56.621Z</time></trkpt><trkpt lat="43.2775558" lon="11.9741751"><ele>307.0</ele><time>2026-03-29T09:43:57.649Z</time></trkpt><trkpt lat="43.2776318" lon="11.9739676"><ele>302.66666666666663</ele><time>2026-03-29T09:43:58.646Z</time></trkpt><trkpt lat="43.2777409" lon="11.973845"><ele>298.3333333333333</ele><time>2026-03-29T09:43:59.665Z</time></trkpt><trkpt lat="43.2778851" lon="11.9737324"><ele>294.0</ele><time>2026-03-29T09:44:00.632Z</time></trkpt><trkpt lat="43.2780762" lon="11.9736557"><ele>295.3333333333333</ele><time>2026-03-29T09:44:01.615Z</time></trkpt><trkpt lat="43.2782876" lon="11.9735775"><ele>296.66666666666663</ele><time>2026-03-29T09:44:02.617Z</time></trkpt><trkpt lat="43.2784597" lon="11.9734743"><ele>298.0</ele><time>2026-03-29T09:44:03.623Z</time></trkpt><trkpt lat="43.2786099" lon="11.9733638"><ele>295.0</ele><time>2026-03-29T09:44:04.629Z</time></trkpt><trkpt lat="43.2787562" lon="11.9732374"><ele>292.0</ele><time>2026-03-29T09:44:05.674Z</time></trkpt><trkpt lat="43.2789469" lon="11.9730956"><ele>289.0</ele><time>2026-03-29T09:44:06.998Z</time></trkpt><trkpt lat="43.2791997" lon="11.973"><ele>289.0</ele><time>2026-03-29T09:44:08.687Z</time></trkpt><trkpt lat="43.2793384" lon="11.9729591"><ele>289.0</ele><time>2026-03-29T09:44:09.683Z</time></trkpt><trkpt lat="43.2795085" lon="11.9729701"><ele>289.0</ele><time>2026-03-29T09:44:10.703Z</time></trkpt><trkpt lat="43.2796643" lon="11.9729964"><ele>287.3333333333333</ele><time>2026-03-29T09:44:11.669Z</time></trkpt><trkpt lat="43.2798325" lon="11.9730419"><ele>285.6666666666667</ele><time>2026-03-29T09:44:12.703Z</time></trkpt><trkpt lat="43.2799924" lon="11.9730977"><ele>284.0</ele><time>2026-03-29T09:44:13.674Z</time></trkpt><trkpt lat="43.2801644" lon="11.9731644"><ele>284.0</ele><time>2026-03-29T09:44:14.693Z</time></trkpt><trkpt lat="43.280318" lon="11.9732211"><ele>284.0</ele><time>2026-03-29T09:44:15.683Z</time></trkpt><trkpt lat="43.2804706" lon="11.9732746"><ele>284.0</ele><time>2026-03-29T09:44:16.668Z</time></trkpt><trkpt lat="43.2806187" lon="11.9733252"><ele>284.25</ele><time>2026-03-29T09:44:17.665Z</time></trkpt><trkpt lat="43.2807564" lon="11.9733763"><ele>284.5</ele><time>2026-03-29T09:44:18.682Z</time></trkpt><trkpt lat="43.2808822" lon="11.9734253"><ele>284.75</ele><time>2026-03-29T09:44:19.676Z</time></trkpt><trkpt lat="43.2809966" lon="11.9734586"><ele>285.0</ele><time>2026-03-29T09:44:20.675Z</time></trkpt><trkpt lat="43.2810985" lon="11.9734703"><ele>285.0</ele><time>2026-03-29T09:44:21.672Z</time></trkpt><trkpt lat="43.2811837" lon="11.9734661"><ele>285.0</ele><time>2026-03-29T09:44:22.675Z</time></trkpt><trkpt lat="43.2812518" lon="11.973449"><ele>285.0</ele><time>2026-03-29T09:44:23.684Z</time></trkpt><trkpt lat="43.2813494" lon="11.9733718"><ele>285.0</ele><time>2026-03-29T09:44:25.683Z</time></trkpt><trkpt lat="43.281399" lon="11.9732852"><ele>285.0</ele><time>2026-03-29T09:44:26.684Z</time></trkpt><trkpt lat="43.2814518" lon="11.9731679"><ele>285.0</ele><time>2026-03-29T09:44:27.689Z</time></trkpt><trkpt lat="43.2815138" lon="11.9730401"><ele>281.0</ele><time>2026-03-29T09:44:28.68Z</time></trkpt><trkpt lat="43.2815743" lon="11.972883"><ele>277.0</ele><time>2026-03-29T09:44:29.697Z</time></trkpt><trkpt lat="43.2816383" lon="11.9727037"><ele>273.0</ele><time>2026-03-29T09:44:30.693Z</time></trkpt><trkpt lat="43.281704" lon="11.9725128"><ele>269.0</ele><time>2026-03-29T09:44:31.676Z</time></trkpt><trkpt lat="43.2817737" lon="11.9723107"><ele>268.6666666666667</ele><time>2026-03-29T09:44:32.687Z</time></trkpt><trkpt lat="43.2818473" lon="11.9721022"><ele>268.3333333333333</ele><time>2026-03-29T09:44:33.677Z</time></trkpt><trkpt lat="43.2819279" lon="11.9718767"><ele>268.0</ele><time>2026-03-29T09:44:34.705Z</time></trkpt><trkpt lat="43.2820041" lon="11.9716729"><ele>268.0</ele><time>2026-03-29T09:44:35.693Z</time></trkpt><trkpt lat="43.2820685" lon="11.9714897"><ele>268.0</ele><time>2026-03-29T09:44:36.67Z</time></trkpt><trkpt lat="43.282113" lon="11.9713194"><ele>268.0</ele><time>2026-03-29T09:44:37.686Z</time></trkpt><trkpt lat="43.28213" lon="11.9711606"><ele>268.0</ele><time>2026-03-29T09:44:38.69Z</time></trkpt><trkpt lat="43.2821181" lon="11.9710098"><ele>268.0</ele><time>2026-03-29T09:44:39.685Z</time></trkpt><trkpt lat="43.2820792" lon="11.9708765"><ele>268.0</ele><time>2026-03-29T09:44:40.722Z</time></trkpt><trkpt lat="43.2820257" lon="11.970769"><ele>268.0</ele><time>2026-03-29T09:44:41.681Z</time></trkpt><trkpt lat="43.2819591" lon="11.9706734"><ele>268.0</ele><time>2026-03-29T09:44:42.671Z</time></trkpt><trkpt lat="43.2819009" lon="11.9705703"><ele>268.0</ele><time>2026-03-29T09:44:43.689Z</time></trkpt><trkpt lat="43.2818688" lon="11.9704669"><ele>267.8</ele><time>2026-03-29T09:44:44.681Z</time></trkpt><trkpt lat="43.2818719" lon="11.9703517"><ele>267.6</ele><time>2026-03-29T09:44:45.697Z</time></trkpt><trkpt lat="43.2819079" lon="11.9702569"><ele>267.4</ele><time>2026-03-29T09:44:46.679Z</time></trkpt><trkpt lat="43.281977" lon="11.9701733"><ele>267.2</ele><time>2026-03-29T09:44:47.684Z</time></trkpt><trkpt lat="43.282072" lon="11.9700938"><ele>267.0</ele><time>2026-03-29T09:44:48.703Z</time></trkpt><trkpt lat="43.2821811" lon="11.970006"><ele>267.0</ele><time>2026-03-29T09:44:49.689Z</time></trkpt><trkpt lat="43.2822986" lon="11.9699065"><ele>267.0</ele><time>2026-03-29T09:44:50.715Z</time></trkpt><trkpt lat="43.2824174" lon="11.9698044"><ele>267.0</ele><time>2026-03-29T09:44:51.692Z</time></trkpt><trkpt lat="43.2825456" lon="11.9696811"><ele>267.0</ele><time>2026-03-29T09:44:52.679Z</time></trkpt><trkpt lat="43.2826736" lon="11.9695234"><ele>267.0</ele><time>2026-03-29T09:44:53.678Z</time></trkpt><trkpt lat="43.2827909" lon="11.9693357"><ele>267.0</ele><time>2026-03-29T09:44:54.671Z</time></trkpt><trkpt lat="43.2829148" lon="11.9691235"><ele>267.0</ele><time>2026-03-29T09:44:55.683Z</time></trkpt><trkpt lat="43.2830837" lon="11.9686441"><ele>266.6666666666667</ele><time>2026-03-29T09:44:57.732Z</time></trkpt><trkpt lat="43.2831606" lon="11.9684072"><ele>266.33333333333337</ele><time>2026-03-29T09:44:58.679Z</time></trkpt><trkpt lat="43.2832415" lon="11.9681634"><ele>266.0</ele><time>2026-03-29T09:44:59.692Z</time></trkpt><trkpt lat="43.2833184" lon="11.9679347"><ele>266.0</ele><time>2026-03-29T09:45:00.668Z</time></trkpt><trkpt lat="43.2833965" lon="11.9677081"><ele>266.0</ele><time>2026-03-29T09:45:01.674Z</time></trkpt><trkpt lat="43.2834728" lon="11.9674868"><ele>266.0</ele><time>2026-03-29T09:45:02.69Z</time></trkpt><trkpt lat="43.283544" lon="11.9672759"><ele>265.33333333333337</ele><time>2026-03-29T09:45:03.695Z</time></trkpt><trkpt lat="43.2836131" lon="11.9670783"><ele>264.6666666666667</ele><time>2026-03-29T09:45:04.679Z</time></trkpt><trkpt lat="43.2836851" lon="11.9668801"><ele>264.0</ele><time>2026-03-29T09:45:05.721Z</time></trkpt><trkpt lat="43.2837477" lon="11.9666999"><ele>264.0</ele><time>2026-03-29T09:45:06.69Z</time></trkpt><trkpt lat="43.2838097" lon="11.9665201"><ele>264.0</ele><time>2026-03-29T09:45:07.687Z</time></trkpt><trkpt lat="43.2838709" lon="11.966342"><ele>264.0</ele><time>2026-03-29T09:45:08.699Z</time></trkpt><trkpt lat="43.2839273" lon="11.9661746"><ele>264.0</ele><time>2026-03-29T09:45:09.675Z</time></trkpt><trkpt lat="43.2839856" lon="11.9659987"><ele>264.0</ele><time>2026-03-29T09:45:10.719Z</time></trkpt><trkpt lat="43.2840388" lon="11.9658381"><ele>264.0</ele><time>2026-03-29T09:45:11.683Z</time></trkpt><trkpt lat="43.2840937" lon="11.9656753"><ele>264.0</ele><time>2026-03-29T09:45:12.698Z</time></trkpt><trkpt lat="43.2841459" lon="11.9655243"><ele>264.0</ele><time>2026-03-29T09:45:13.684Z</time></trkpt><trkpt lat="43.2841977" lon="11.9653735"><ele>264.0</ele><time>2026-03-29T09:45:14.696Z</time></trkpt><trkpt lat="43.2842483" lon="11.9652262"><ele>264.0</ele><time>2026-03-29T09:45:15.71Z</time></trkpt><trkpt lat="43.2842975" lon="11.9650865"><ele>264.0</ele><time>2026-03-29T09:45:16.693Z</time></trkpt><trkpt lat="43.2843466" lon="11.9649448"><ele>264.0</ele><time>2026-03-29T09:45:17.719Z</time></trkpt><trkpt lat="43.284394" lon="11.9648125"><ele>263.8</ele><time>2026-03-29T09:45:18.694Z</time></trkpt><trkpt lat="43.2844416" lon="11.9646824"><ele>263.59999999999997</ele><time>2026-03-29T09:45:19.676Z</time></trkpt><trkpt lat="43.2844899" lon="11.9645511"><ele>263.4</ele><time>2026-03-29T09:45:20.681Z</time></trkpt><trkpt lat="43.2845359" lon="11.9644194"><ele>263.2</ele><time>2026-03-29T09:45:21.687Z</time></trkpt><trkpt lat="43.2845842" lon="11.9642849"><ele>263.0</ele><time>2026-03-29T09:45:22.721Z</time></trkpt><trkpt lat="43.284631" lon="11.9641538"><ele>263.0</ele><time>2026-03-29T09:45:23.689Z</time></trkpt><trkpt lat="43.2846789" lon="11.9640167"><ele>263.0</ele><time>2026-03-29T09:45:24.678Z</time></trkpt><trkpt lat="43.284727" lon="11.9638747"><ele>263.0</ele><time>2026-03-29T09:45:25.672Z</time></trkpt><trkpt lat="43.2847751" lon="11.9637386"><ele>263.0</ele><time>2026-03-29T09:45:26.623Z</time></trkpt><trkpt lat="43.2848263" lon="11.9636035"><ele>263.0</ele><time>2026-03-29T09:45:27.617Z</time></trkpt><trkpt lat="43.2848675" lon="11.9634581"><ele>262.75</ele><time>2026-03-29T09:45:28.622Z</time></trkpt><trkpt lat="43.2849231" lon="11.9632883"><ele>262.5</ele><time>2026-03-29T09:45:29.62Z</time></trkpt><trkpt lat="43.2849892" lon="11.963121"><ele>262.25</ele><time>2026-03-29T09:45:30.63Z</time></trkpt><trkpt lat="43.2850599" lon="11.9629442"><ele>262.0</ele><time>2026-03-29T09:45:31.629Z</time></trkpt><trkpt lat="43.2851369" lon="11.9627665"><ele>262.0</ele><time>2026-03-29T09:45:32.626Z</time></trkpt><trkpt lat="43.2852026" lon="11.9626032"><ele>262.0</ele><time>2026-03-29T09:45:33.627Z</time></trkpt><trkpt lat="43.2852644" lon="11.9624413"><ele>262.0</ele><time>2026-03-29T09:45:34.627Z</time></trkpt><trkpt lat="43.2853304" lon="11.962286"><ele>262.0</ele><time>2026-03-29T09:45:35.625Z</time></trkpt><trkpt lat="43.2853996" lon="11.9621083"><ele>262.0</ele><time>2026-03-29T09:45:36.649Z</time></trkpt><trkpt lat="43.2854589" lon="11.9619572"><ele>262.0</ele><time>2026-03-29T09:45:37.627Z</time></trkpt><trkpt lat="43.2855139" lon="11.9617955"><ele>262.0</ele><time>2026-03-29T09:45:38.618Z</time></trkpt><trkpt lat="43.2855682" lon="11.961657"><ele>262.0</ele><time>2026-03-29T09:45:39.638Z</time></trkpt><trkpt lat="43.2856273" lon="11.9614985"><ele>262.0</ele><time>2026-03-29T09:45:40.648Z</time></trkpt><trkpt lat="43.2856897" lon="11.961327"><ele>262.0</ele><time>2026-03-29T09:45:41.628Z</time></trkpt><trkpt lat="43.285764" lon="11.9611279"><ele>262.0</ele><time>2026-03-29T09:45:42.655Z</time></trkpt><trkpt lat="43.2858355" lon="11.9609201"><ele>262.0</ele><time>2026-03-29T09:45:43.634Z</time></trkpt><trkpt lat="43.2858975" lon="11.9607158"><ele>262.0</ele><time>2026-03-29T09:45:44.631Z</time></trkpt><trkpt lat="43.285962" lon="11.9605166"><ele>262.0</ele><time>2026-03-29T09:45:45.626Z</time></trkpt><trkpt lat="43.2860305" lon="11.9603109"><ele>262.0</ele><time>2026-03-29T09:45:46.631Z</time></trkpt><trkpt lat="43.2861024" lon="11.9600966"><ele>262.0</ele><time>2026-03-29T09:45:47.63Z</time></trkpt><trkpt lat="43.2861705" lon="11.9598816"><ele>262.0</ele><time>2026-03-29T09:45:48.622Z</time></trkpt><trkpt lat="43.2862343" lon="11.9596745"><ele>261.66666666666663</ele><time>2026-03-29T09:45:49.619Z</time></trkpt><trkpt lat="43.2862966" lon="11.9594799"><ele>261.3333333333333</ele><time>2026-03-29T09:45:50.628Z</time></trkpt><trkpt lat="43.2863577" lon="11.9592791"><ele>261.0</ele><time>2026-03-29T09:45:51.653Z</time></trkpt><trkpt lat="43.2864155" lon="11.9590942"><ele>261.0</ele><time>2026-03-29T09:45:52.629Z</time></trkpt><trkpt lat="43.2864737" lon="11.9589276"><ele>261.0</ele><time>2026-03-29T09:45:53.648Z</time></trkpt><trkpt lat="43.2865395" lon="11.9587525"><ele>261.0</ele><time>2026-03-29T09:45:54.628Z</time></trkpt><trkpt lat="43.2866167" lon="11.9585702"><ele>261.0</ele><time>2026-03-29T09:45:55.638Z</time></trkpt><trkpt lat="43.2866843" lon="11.958363"><ele>261.0</ele><time>2026-03-29T09:45:56.626Z</time></trkpt><trkpt lat="43.2867657" lon="11.9581321"><ele>261.0</ele><time>2026-03-29T09:45:57.636Z</time></trkpt><trkpt lat="43.2868539" lon="11.9578903"><ele>261.0</ele><time>2026-03-29T09:45:58.641Z</time></trkpt><trkpt lat="43.2869478" lon="11.957631"><ele>260.3333333333333</ele><time>2026-03-29T09:45:59.629Z</time></trkpt><trkpt lat="43.2870451" lon="11.9573631"><ele>259.66666666666663</ele><time>2026-03-29T09:46:00.615Z</time></trkpt><trkpt lat="43.2871429" lon="11.9570896"><ele>259.0</ele><time>2026-03-29T09:46:01.615Z</time></trkpt><trkpt lat="43.2872374" lon="11.9568135"><ele>259.66666666666663</ele><time>2026-03-29T09:46:02.63Z</time></trkpt><trkpt lat="43.2873217" lon="11.9565308"><ele>260.3333333333333</ele><time>2026-03-29T09:46:03.637Z</time></trkpt><trkpt lat="43.2874078" lon="11.9562436"><ele>261.0</ele><time>2026-03-29T09:46:04.633Z</time></trkpt><trkpt lat="43.2874979" lon="11.9559526"><ele>260.0</ele><time>2026-03-29T09:46:05.633Z</time></trkpt><trkpt lat="43.2875684" lon="11.955665"><ele>259.0</ele><time>2026-03-29T09:46:06.617Z</time></trkpt><trkpt lat="43.2876089" lon="11.9553806"><ele>258.0</ele><time>2026-03-29T09:46:07.638Z</time></trkpt><trkpt lat="43.2876393" lon="11.9550658"><ele>258.5</ele><time>2026-03-29T09:46:08.626Z</time></trkpt><trkpt lat="43.2876498" lon="11.9547064"><ele>259.0</ele><time>2026-03-29T09:46:09.667Z</time></trkpt><trkpt lat="43.2876495" lon="11.9543659"><ele>261.5</ele><time>2026-03-29T09:46:10.636Z</time></trkpt><trkpt lat="43.2876443" lon="11.9540047"><ele>264.0</ele><time>2026-03-29T09:46:11.641Z</time></trkpt><trkpt lat="43.2876446" lon="11.9536611"><ele>262.5</ele><time>2026-03-29T09:46:12.627Z</time></trkpt><trkpt lat="43.2876477" lon="11.95331"><ele>261.0</ele><time>2026-03-29T09:46:13.632Z</time></trkpt><trkpt lat="43.2876511" lon="11.9529666"><ele>261.0</ele><time>2026-03-29T09:46:14.619Z</time></trkpt><trkpt lat="43.2876522" lon="11.9526387"><ele>261.0</ele><time>2026-03-29T09:46:15.617Z</time></trkpt><trkpt lat="43.2876575" lon="11.9522989"><ele>261.5</ele><time>2026-03-29T09:46:16.632Z</time></trkpt><trkpt lat="43.2876625" lon="11.9519709"><ele>262.0</ele><time>2026-03-29T09:46:17.634Z</time></trkpt><trkpt lat="43.2876691" lon="11.9516692"><ele>262.5</ele><time>2026-03-29T09:46:18.632Z</time></trkpt><trkpt lat="43.2876722" lon="11.9513486"><ele>263.0</ele><time>2026-03-29T09:46:19.647Z</time></trkpt><trkpt lat="43.2876697" lon="11.9510506"><ele>263.6666666666667</ele><time>2026-03-29T09:46:20.619Z</time></trkpt><trkpt lat="43.287668" lon="11.9507701"><ele>264.3333333333333</ele><time>2026-03-29T09:46:21.629Z</time></trkpt><trkpt lat="43.2876666" lon="11.9505016"><ele>265.0</ele><time>2026-03-29T09:46:22.634Z</time></trkpt><trkpt lat="43.2876706" lon="11.950247"><ele>264.66666666666663</ele><time>2026-03-29T09:46:23.627Z</time></trkpt><trkpt lat="43.2876738" lon="11.949996"><ele>264.3333333333333</ele><time>2026-03-29T09:46:24.646Z</time></trkpt><trkpt lat="43.2876794" lon="11.9497525"><ele>264.0</ele><time>2026-03-29T09:46:25.618Z</time></trkpt><trkpt lat="43.2876865" lon="11.949497"><ele>264.0</ele><time>2026-03-29T09:46:26.627Z</time></trkpt><trkpt lat="43.287696" lon="11.9492365"><ele>264.0</ele><time>2026-03-29T09:46:27.628Z</time></trkpt><trkpt lat="43.2877172" lon="11.949"><ele>264.0</ele><time>2026-03-29T09:46:28.621Z</time></trkpt><trkpt lat="43.2877579" lon="11.9487659"><ele>264.0</ele><time>2026-03-29T09:46:29.652Z</time></trkpt><trkpt lat="43.2878175" lon="11.9485815"><ele>264.0</ele><time>2026-03-29T09:46:30.639Z</time></trkpt><trkpt lat="43.287892" lon="11.9484343"><ele>264.0</ele><time>2026-03-29T09:46:31.635Z</time></trkpt><trkpt lat="43.2879801" lon="11.9483221"><ele>264.0</ele><time>2026-03-29T09:46:32.632Z</time></trkpt><trkpt lat="43.2881046" lon="11.9482077"><ele>264.0</ele><time>2026-03-29T09:46:33.62Z</time></trkpt><trkpt lat="43.2882195" lon="11.9481266"><ele>264.0</ele><time>2026-03-29T09:46:34.636Z</time></trkpt><trkpt lat="43.2883571" lon="11.9480654"><ele>264.0</ele><time>2026-03-29T09:46:35.638Z</time></trkpt><trkpt lat="43.288598" lon="11.9479825"><ele>264.0</ele><time>2026-03-29T09:46:36.621Z</time></trkpt><trkpt lat="43.2888491" lon="11.947946"><ele>264.0</ele><time>2026-03-29T09:46:37.632Z</time></trkpt><trkpt lat="43.2890673" lon="11.9479278"><ele>263.3333333333333</ele><time>2026-03-29T09:46:38.629Z</time></trkpt><trkpt lat="43.2892865" lon="11.9479189"><ele>262.66666666666663</ele><time>2026-03-29T09:46:39.628Z</time></trkpt><trkpt lat="43.2895004" lon="11.947919"><ele>262.0</ele><time>2026-03-29T09:46:40.627Z</time></trkpt><trkpt lat="43.2897057" lon="11.9479198"><ele>262.66666666666663</ele><time>2026-03-29T09:46:41.635Z</time></trkpt><trkpt lat="43.2899065" lon="11.9479225"><ele>263.3333333333333</ele><time>2026-03-29T09:46:42.611Z</time></trkpt><trkpt lat="43.2901194" lon="11.9479256"><ele>264.0</ele><time>2026-03-29T09:46:43.643Z</time></trkpt><trkpt lat="43.290319" lon="11.9479306"><ele>264.0</ele><time>2026-03-29T09:46:44.631Z</time></trkpt><trkpt lat="43.2905158" lon="11.9479391"><ele>264.0</ele><time>2026-03-29T09:46:45.635Z</time></trkpt><trkpt lat="43.2907027" lon="11.9479467"><ele>264.0</ele><time>2026-03-29T09:46:46.633Z</time></trkpt><trkpt lat="43.2908854" lon="11.9479516"><ele>264.3333333333333</ele><time>2026-03-29T09:46:47.645Z</time></trkpt><trkpt lat="43.2910633" lon="11.9479514"><ele>264.66666666666663</ele><time>2026-03-29T09:46:48.658Z</time></trkpt><trkpt lat="43.2912279" lon="11.9479446"><ele>265.0</ele><time>2026-03-29T09:46:49.633Z</time></trkpt><trkpt lat="43.2913434" lon="11.9479049"><ele>264.0</ele><time>2026-03-29T09:46:50.639Z</time></trkpt><trkpt lat="43.2915046" lon="11.9478315"><ele>263.0</ele><time>2026-03-29T09:46:51.629Z</time></trkpt><trkpt lat="43.2916672" lon="11.9477087"><ele>262.0</ele><time>2026-03-29T09:46:52.627Z</time></trkpt><trkpt lat="43.2918173" lon="11.9475378"><ele>262.0</ele><time>2026-03-29T09:46:53.654Z</time></trkpt><trkpt lat="43.2919631" lon="11.9473501"><ele>262.0</ele><time>2026-03-29T09:46:54.647Z</time></trkpt><trkpt lat="43.2921083" lon="11.9471264"><ele>262.0</ele><time>2026-03-29T09:46:55.629Z</time></trkpt><trkpt lat="43.2922487" lon="11.946919"><ele>261.5</ele><time>2026-03-29T09:46:56.641Z</time></trkpt><trkpt lat="43.2924107" lon="11.9467063"><ele>261.0</ele><time>2026-03-29T09:46:57.66Z</time></trkpt><trkpt lat="43.2925661" lon="11.94648"><ele>261.0</ele><time>2026-03-29T09:46:58.647Z</time></trkpt><trkpt lat="43.2927173" lon="11.946258"><ele>261.0</ele><time>2026-03-29T09:46:59.624Z</time></trkpt><trkpt lat="43.2928691" lon="11.9460231"><ele>260.6666666666667</ele><time>2026-03-29T09:47:00.645Z</time></trkpt><trkpt lat="43.2930099" lon="11.945818"><ele>260.33333333333337</ele><time>2026-03-29T09:47:01.636Z</time></trkpt><trkpt lat="43.2931537" lon="11.9456153"><ele>260.0</ele><time>2026-03-29T09:47:02.63Z</time></trkpt><trkpt lat="43.2932871" lon="11.9454127"><ele>260.0</ele><time>2026-03-29T09:47:03.641Z</time></trkpt><trkpt lat="43.293416" lon="11.9451893"><ele>260.0</ele><time>2026-03-29T09:47:04.631Z</time></trkpt><trkpt lat="43.2935469" lon="11.9449611"><ele>260.0</ele><time>2026-03-29T09:47:05.63Z</time></trkpt><trkpt lat="43.2936779" lon="11.9447211"><ele>260.0</ele><time>2026-03-29T09:47:06.633Z</time></trkpt><trkpt lat="43.2938236" lon="11.9444825"><ele>260.0</ele><time>2026-03-29T09:47:07.657Z</time></trkpt><trkpt lat="43.2939559" lon="11.9442341"><ele>259.0</ele><time>2026-03-29T09:47:08.621Z</time></trkpt><trkpt lat="43.2941003" lon="11.9439773"><ele>258.0</ele><time>2026-03-29T09:47:09.63Z</time></trkpt><trkpt lat="43.2942463" lon="11.9437392"><ele>258.0</ele><time>2026-03-29T09:47:10.631Z</time></trkpt><trkpt lat="43.2943954" lon="11.9434965"><ele>258.0</ele><time>2026-03-29T09:47:11.641Z</time></trkpt><trkpt lat="43.2945486" lon="11.943245"><ele>257.3333333333333</ele><time>2026-03-29T09:47:12.664Z</time></trkpt><trkpt lat="43.2946919" lon="11.9430178"><ele>256.66666666666663</ele><time>2026-03-29T09:47:13.627Z</time></trkpt><trkpt lat="43.2948408" lon="11.9427948"><ele>256.0</ele><time>2026-03-29T09:47:14.624Z</time></trkpt><trkpt lat="43.2949919" lon="11.9425753"><ele>254.5</ele><time>2026-03-29T09:47:15.628Z</time></trkpt><trkpt lat="43.2951496" lon="11.9423405"><ele>253.0</ele><time>2026-03-29T09:47:16.647Z</time></trkpt><trkpt lat="43.2952975" lon="11.9421148"><ele>253.0</ele><time>2026-03-29T09:47:17.637Z</time></trkpt><trkpt lat="43.295435" lon="11.9419206"><ele>253.0</ele><time>2026-03-29T09:47:18.626Z</time></trkpt><trkpt lat="43.2955766" lon="11.9417156"><ele>253.0</ele><time>2026-03-29T09:47:19.634Z</time></trkpt><trkpt lat="43.2957136" lon="11.9415161"><ele>254.0</ele><time>2026-03-29T09:47:20.631Z</time></trkpt><trkpt lat="43.2958407" lon="11.9413273"><ele>255.0</ele><time>2026-03-29T09:47:21.631Z</time></trkpt><trkpt lat="43.2959598" lon="11.9411429"><ele>256.0</ele><time>2026-03-29T09:47:22.635Z</time></trkpt><trkpt lat="43.2960791" lon="11.9409616"><ele>256.0</ele><time>2026-03-29T09:47:23.647Z</time></trkpt><trkpt lat="43.2961795" lon="11.9408085"><ele>256.0</ele><time>2026-03-29T09:47:24.636Z</time></trkpt><trkpt lat="43.2962818" lon="11.9406666"><ele>256.0</ele><time>2026-03-29T09:47:25.649Z</time></trkpt><trkpt lat="43.2963758" lon="11.9405333"><ele>256.0</ele><time>2026-03-29T09:47:26.631Z</time></trkpt><trkpt lat="43.2964644" lon="11.9404099"><ele>256.5</ele><time>2026-03-29T09:47:27.635Z</time></trkpt><trkpt lat="43.2965525" lon="11.9402833"><ele>257.0</ele><time>2026-03-29T09:47:28.631Z</time></trkpt><trkpt lat="43.2966363" lon="11.9401676"><ele>257.5</ele><time>2026-03-29T09:47:29.646Z</time></trkpt><trkpt lat="43.2967212" lon="11.94008"><ele>258.0</ele><time>2026-03-29T09:47:30.627Z</time></trkpt><trkpt lat="43.296831" lon="11.9399845"><ele>258.0</ele><time>2026-03-29T09:47:31.636Z</time></trkpt><trkpt lat="43.2969198" lon="11.9398719"><ele>258.0</ele><time>2026-03-29T09:47:32.633Z</time></trkpt><trkpt lat="43.2970128" lon="11.939747"><ele>258.0</ele><time>2026-03-29T09:47:33.625Z</time></trkpt><trkpt lat="43.2971168" lon="11.9396121"><ele>258.0</ele><time>2026-03-29T09:47:34.649Z</time></trkpt><trkpt lat="43.2972156" lon="11.9395172"><ele>259.0</ele><time>2026-03-29T09:47:35.632Z</time></trkpt><trkpt lat="43.2973362" lon="11.9394482"><ele>260.0</ele><time>2026-03-29T09:47:36.645Z</time></trkpt><trkpt lat="43.2974849" lon="11.9393793"><ele>261.0</ele><time>2026-03-29T09:47:37.64Z</time></trkpt><trkpt lat="43.2976453" lon="11.9392956"><ele>260.3333333333333</ele><time>2026-03-29T09:47:38.619Z</time></trkpt><trkpt lat="43.2978345" lon="11.9392062"><ele>259.66666666666663</ele><time>2026-03-29T09:47:39.621Z</time></trkpt><trkpt lat="43.2980369" lon="11.9390997"><ele>259.0</ele><time>2026-03-29T09:47:40.622Z</time></trkpt><trkpt lat="43.2982493" lon="11.9389769"><ele>261.0</ele><time>2026-03-29T09:47:41.632Z</time></trkpt><trkpt lat="43.2984525" lon="11.938826"><ele>263.0</ele><time>2026-03-29T09:47:42.635Z</time></trkpt><trkpt lat="43.2986309" lon="11.9386572"><ele>265.0</ele><time>2026-03-29T09:47:43.633Z</time></trkpt><trkpt lat="43.2986385" lon="11.9384266"><ele>265.66666666666663</ele><time>2026-03-29T09:47:44.65Z</time></trkpt><trkpt lat="43.298791" lon="11.9382299"><ele>266.3333333333333</ele><time>2026-03-29T09:47:45.624Z</time></trkpt><trkpt lat="43.2989421" lon="11.9380237"><ele>267.0</ele><time>2026-03-29T09:47:46.613Z</time></trkpt><trkpt lat="43.2990881" lon="11.9378006"><ele>267.0</ele><time>2026-03-29T09:47:47.622Z</time></trkpt><trkpt lat="43.2992317" lon="11.9375633"><ele>267.0</ele><time>2026-03-29T09:47:48.636Z</time></trkpt><trkpt lat="43.2993554" lon="11.9373041"><ele>266.0</ele><time>2026-03-29T09:47:49.638Z</time></trkpt><trkpt lat="43.2994679" lon="11.9370458"><ele>265.0</ele><time>2026-03-29T09:47:50.624Z</time></trkpt><trkpt lat="43.299583" lon="11.9367953"><ele>264.0</ele><time>2026-03-29T09:47:51.627Z</time></trkpt><trkpt lat="43.2997069" lon="11.9365425"><ele>264.6666666666667</ele><time>2026-03-29T09:47:52.643Z</time></trkpt><trkpt lat="43.2998355" lon="11.936299"><ele>265.33333333333337</ele><time>2026-03-29T09:47:53.647Z</time></trkpt><trkpt lat="43.2999597" lon="11.9360514"><ele>266.0</ele><time>2026-03-29T09:47:54.628Z</time></trkpt><trkpt lat="43.3000965" lon="11.9357952"><ele>266.0</ele><time>2026-03-29T09:47:55.68Z</time></trkpt><trkpt lat="43.3002443" lon="11.9355712"><ele>266.0</ele><time>2026-03-29T09:47:56.682Z</time></trkpt><trkpt lat="43.300385" lon="11.9353582"><ele>266.0</ele><time>2026-03-29T09:47:57.637Z</time></trkpt><trkpt lat="43.3005259" lon="11.9351526"><ele>266.33333333333337</ele><time>2026-03-29T09:47:58.628Z</time></trkpt><trkpt lat="43.3006645" lon="11.9349444"><ele>266.6666666666667</ele><time>2026-03-29T09:47:59.624Z</time></trkpt><trkpt lat="43.3008155" lon="11.934735"><ele>267.0</ele><time>2026-03-29T09:48:00.643Z</time></trkpt><trkpt lat="43.3009817" lon="11.9345006"><ele>267.0</ele><time>2026-03-29T09:48:01.656Z</time></trkpt><trkpt lat="43.3011475" lon="11.9342801"><ele>267.0</ele><time>2026-03-29T09:48:02.635Z</time></trkpt><trkpt lat="43.3013271" lon="11.9340483"><ele>267.3333333333333</ele><time>2026-03-29T09:48:03.655Z</time></trkpt><trkpt lat="43.301491" lon="11.933844"><ele>267.66666666666663</ele><time>2026-03-29T09:48:04.622Z</time></trkpt><trkpt lat="43.3016605" lon="11.9336415"><ele>268.0</ele><time>2026-03-29T09:48:05.626Z</time></trkpt><trkpt lat="43.3018195" lon="11.9334536"><ele>269.0</ele><time>2026-03-29T09:48:06.63Z</time></trkpt><trkpt lat="43.3019759" lon="11.9332698"><ele>270.0</ele><time>2026-03-29T09:48:07.637Z</time></trkpt><trkpt lat="43.3021236" lon="11.9330992"><ele>271.0</ele><time>2026-03-29T09:48:08.624Z</time></trkpt><trkpt lat="43.3022731" lon="11.9329171"><ele>271.0</ele><time>2026-03-29T09:48:09.662Z</time></trkpt><trkpt lat="43.3024226" lon="11.9327808"><ele>271.0</ele><time>2026-03-29T09:48:10.623Z</time></trkpt><trkpt lat="43.3025729" lon="11.9326583"><ele>271.0</ele><time>2026-03-29T09:48:11.63Z</time></trkpt><trkpt lat="43.3027307" lon="11.9325198"><ele>268.0</ele><time>2026-03-29T09:48:12.618Z</time></trkpt><trkpt lat="43.3029257" lon="11.9323532"><ele>265.0</ele><time>2026-03-29T09:48:13.635Z</time></trkpt><trkpt lat="43.3031341" lon="11.9321862"><ele>265.0</ele><time>2026-03-29T09:48:14.625Z</time></trkpt><trkpt lat="43.303349" lon="11.93201"><ele>265.0</ele><time>2026-03-29T09:48:15.622Z</time></trkpt><trkpt lat="43.3035735" lon="11.93181"><ele>264.0</ele><time>2026-03-29T09:48:16.625Z</time></trkpt><trkpt lat="43.3038052" lon="11.9316099"><ele>263.0</ele><time>2026-03-29T09:48:17.635Z</time></trkpt><trkpt lat="43.3040229" lon="11.9314046"><ele>263.0</ele><time>2026-03-29T09:48:18.644Z</time></trkpt><trkpt lat="43.3042417" lon="11.9311877"><ele>263.0</ele><time>2026-03-29T09:48:19.647Z</time></trkpt><trkpt lat="43.304456" lon="11.930979"><ele>263.0</ele><time>2026-03-29T09:48:20.65Z</time></trkpt><trkpt lat="43.304653" lon="11.9307866"><ele>263.0</ele><time>2026-03-29T09:48:21.63Z</time></trkpt><trkpt lat="43.3048511" lon="11.930605"><ele>263.0</ele><time>2026-03-29T09:48:22.649Z</time></trkpt><trkpt lat="43.3050341" lon="11.9304354"><ele>263.0</ele><time>2026-03-29T09:48:23.643Z</time></trkpt><trkpt lat="43.3052218" lon="11.9302707"><ele>263.0</ele><time>2026-03-29T09:48:24.649Z</time></trkpt><trkpt lat="43.305413" lon="11.9301047"><ele>262.0</ele><time>2026-03-29T09:48:25.678Z</time></trkpt><trkpt lat="43.3055914" lon="11.9299478"><ele>261.0</ele><time>2026-03-29T09:48:26.644Z</time></trkpt><trkpt lat="43.3057645" lon="11.9297966"><ele>260.0</ele><time>2026-03-29T09:48:27.628Z</time></trkpt><trkpt lat="43.305919" lon="11.9296607"><ele>260.0</ele><time>2026-03-29T09:48:28.623Z</time></trkpt><trkpt lat="43.306078" lon="11.9295237"><ele>260.0</ele><time>2026-03-29T09:48:29.64Z</time></trkpt><trkpt lat="43.3062284" lon="11.9293818"><ele>260.0</ele><time>2026-03-29T09:48:30.625Z</time></trkpt><trkpt lat="43.3064005" lon="11.9292282"><ele>261.33333333333337</ele><time>2026-03-29T09:48:31.625Z</time></trkpt><trkpt lat="43.3065812" lon="11.929082"><ele>262.6666666666667</ele><time>2026-03-29T09:48:32.634Z</time></trkpt><trkpt lat="43.3067594" lon="11.9289393"><ele>264.0</ele><time>2026-03-29T09:48:33.626Z</time></trkpt><trkpt lat="43.3069166" lon="11.9288099"><ele>264.0</ele><time>2026-03-29T09:48:34.621Z</time></trkpt><trkpt lat="43.307072" lon="11.9286851"><ele>264.0</ele><time>2026-03-29T09:48:35.645Z</time></trkpt><trkpt lat="43.3072207" lon="11.9285619"><ele>264.0</ele><time>2026-03-29T09:48:36.642Z</time></trkpt><trkpt lat="43.3073594" lon="11.9284371"><ele>264.0</ele><time>2026-03-29T09:48:37.66Z</time></trkpt><trkpt lat="43.3075054" lon="11.9283105"><ele>264.0</ele><time>2026-03-29T09:48:38.631Z</time></trkpt><trkpt lat="43.3076619" lon="11.9281766"><ele>264.0</ele><time>2026-03-29T09:48:39.638Z</time></trkpt><trkpt lat="43.3078118" lon="11.9280494"><ele>264.0</ele><time>2026-03-29T09:48:40.623Z</time></trkpt><trkpt lat="43.3079913" lon="11.9278967"><ele>264.0</ele><time>2026-03-29T09:48:41.633Z</time></trkpt><trkpt lat="43.3081866" lon="11.9277255"><ele>264.0</ele><time>2026-03-29T09:48:42.742Z</time></trkpt><trkpt lat="43.3083864" lon="11.9275612"><ele>263.3333333333333</ele><time>2026-03-29T09:48:44.668Z</time></trkpt><trkpt lat="43.3085597" lon="11.9274369"><ele>262.66666666666663</ele><time>2026-03-29T09:48:45.636Z</time></trkpt><trkpt lat="43.3086819" lon="11.9273293"><ele>262.0</ele><time>2026-03-29T09:48:46.638Z</time></trkpt><trkpt lat="43.3088838" lon="11.927172"><ele>268.0</ele><time>2026-03-29T09:48:47.63Z</time></trkpt><trkpt lat="43.3093333" lon="11.926804"><ele>266.66666666666663</ele><time>2026-03-29T09:48:49.638Z</time></trkpt><trkpt lat="43.30953" lon="11.9266442"><ele>265.3333333333333</ele><time>2026-03-29T09:48:50.636Z</time></trkpt><trkpt lat="43.3096008" lon="11.926578"><ele>264.0</ele><time>2026-03-29T09:48:52.663Z</time></trkpt><trkpt lat="43.3097393" lon="11.9265135"><ele>273.0</ele><time>2026-03-29T09:48:53.639Z</time></trkpt><trkpt lat="43.3104935" lon="11.92597"><ele>271.3333333333333</ele><time>2026-03-29T09:48:55.628Z</time></trkpt><trkpt lat="43.3106893" lon="11.9258819"><ele>269.66666666666663</ele><time>2026-03-29T09:48:56.641Z</time></trkpt><trkpt lat="43.3108798" lon="11.9257847"><ele>268.0</ele><time>2026-03-29T09:48:57.644Z</time></trkpt><trkpt lat="43.3110664" lon="11.9256874"><ele>268.0</ele><time>2026-03-29T09:48:58.64Z</time></trkpt><trkpt lat="43.3112583" lon="11.9255772"><ele>268.0</ele><time>2026-03-29T09:48:59.675Z</time></trkpt><trkpt lat="43.3114373" lon="11.9254723"><ele>268.0</ele><time>2026-03-29T09:49:00.627Z</time></trkpt><trkpt lat="43.3116258" lon="11.9253632"><ele>267.66666666666663</ele><time>2026-03-29T09:49:01.638Z</time></trkpt><trkpt lat="43.3118079" lon="11.9252536"><ele>267.3333333333333</ele><time>2026-03-29T09:49:02.637Z</time></trkpt><trkpt lat="43.3119787" lon="11.9251516"><ele>267.0</ele><time>2026-03-29T09:49:03.625Z</time></trkpt><trkpt lat="43.312157" lon="11.9250599"><ele>268.0</ele><time>2026-03-29T09:49:04.65Z</time></trkpt><trkpt lat="43.3123253" lon="11.9249854"><ele>269.0</ele><time>2026-03-29T09:49:05.627Z</time></trkpt><trkpt lat="43.3124897" lon="11.9249119"><ele>270.0</ele><time>2026-03-29T09:49:06.62Z</time></trkpt><trkpt lat="43.312665" lon="11.9248365"><ele>270.0</ele><time>2026-03-29T09:49:07.629Z</time></trkpt><trkpt lat="43.3128392" lon="11.9247644"><ele>270.0</ele><time>2026-03-29T09:49:08.628Z</time></trkpt><trkpt lat="43.3130152" lon="11.9246876"><ele>270.0</ele><time>2026-03-29T09:49:09.632Z</time></trkpt><trkpt lat="43.3131911" lon="11.9246046"><ele>269.6666666666667</ele><time>2026-03-29T09:49:10.629Z</time></trkpt><trkpt lat="43.3133674" lon="11.9245256"><ele>269.33333333333337</ele><time>2026-03-29T09:49:11.633Z</time></trkpt><trkpt lat="43.3135328" lon="11.9244471"><ele>269.0</ele><time>2026-03-29T09:49:12.641Z</time></trkpt><trkpt lat="43.3136874" lon="11.9243661"><ele>269.0</ele><time>2026-03-29T09:49:13.631Z</time></trkpt><trkpt lat="43.3138385" lon="11.924301"><ele>269.0</ele><time>2026-03-29T09:49:14.642Z</time></trkpt><trkpt lat="43.3139745" lon="11.9242378"><ele>269.0</ele><time>2026-03-29T09:49:15.636Z</time></trkpt><trkpt lat="43.3141085" lon="11.9241808"><ele>269.0</ele><time>2026-03-29T09:49:16.632Z</time></trkpt><trkpt lat="43.3142432" lon="11.9241212"><ele>268.25</ele><time>2026-03-29T09:49:17.635Z</time></trkpt><trkpt lat="43.3143824" lon="11.9240803"><ele>267.5</ele><time>2026-03-29T09:49:18.643Z</time></trkpt><trkpt lat="43.3145203" lon="11.9240551"><ele>266.75</ele><time>2026-03-29T09:49:19.635Z</time></trkpt><trkpt lat="43.3146728" lon="11.9240441"><ele>266.0</ele><time>2026-03-29T09:49:20.639Z</time></trkpt><trkpt lat="43.3148309" lon="11.9240412"><ele>266.0</ele><time>2026-03-29T09:49:21.665Z</time></trkpt><trkpt lat="43.3149806" lon="11.9240314"><ele>266.0</ele><time>2026-03-29T09:49:22.638Z</time></trkpt><trkpt lat="43.3151263" lon="11.924014"><ele>266.0</ele><time>2026-03-29T09:49:23.629Z</time></trkpt><trkpt lat="43.3152738" lon="11.9239775"><ele>266.0</ele><time>2026-03-29T09:49:24.643Z</time></trkpt><trkpt lat="43.3154189" lon="11.9239209"><ele>266.0</ele><time>2026-03-29T09:49:25.627Z</time></trkpt><trkpt lat="43.3155596" lon="11.9238541"><ele>266.0</ele><time>2026-03-29T09:49:26.674Z</time></trkpt><trkpt lat="43.3156954" lon="11.9237648"><ele>266.0</ele><time>2026-03-29T09:49:27.638Z</time></trkpt><trkpt lat="43.315855" lon="11.923668"><ele>265.6666666666667</ele><time>2026-03-29T09:49:28.644Z</time></trkpt><trkpt lat="43.3160198" lon="11.9235504"><ele>265.3333333333333</ele><time>2026-03-29T09:49:29.646Z</time></trkpt><trkpt lat="43.316189" lon="11.9234537"><ele>265.0</ele><time>2026-03-29T09:49:30.633Z</time></trkpt><trkpt lat="43.3163477" lon="11.9233589"><ele>264.3333333333333</ele><time>2026-03-29T09:49:31.675Z</time></trkpt><trkpt lat="43.3164971" lon="11.9232855"><ele>263.6666666666667</ele><time>2026-03-29T09:49:32.647Z</time></trkpt><trkpt lat="43.3166347" lon="11.9232077"><ele>263.0</ele><time>2026-03-29T09:49:33.626Z</time></trkpt><trkpt lat="43.3167754" lon="11.9231418"><ele>263.0</ele><time>2026-03-29T09:49:34.631Z</time></trkpt><trkpt lat="43.3169209" lon="11.9230656"><ele>263.0</ele><time>2026-03-29T09:49:35.62Z</time></trkpt><trkpt lat="43.3170773" lon="11.9229833"><ele>263.0</ele><time>2026-03-29T09:49:36.649Z</time></trkpt><trkpt lat="43.3172306" lon="11.9229098"><ele>263.6666666666667</ele><time>2026-03-29T09:49:37.633Z</time></trkpt><trkpt lat="43.3173937" lon="11.9228329"><ele>264.3333333333333</ele><time>2026-03-29T09:49:38.662Z</time></trkpt><trkpt lat="43.3175378" lon="11.9227573"><ele>265.0</ele><time>2026-03-29T09:49:39.659Z</time></trkpt><trkpt lat="43.3176992" lon="11.9226853"><ele>265.0</ele><time>2026-03-29T09:49:40.643Z</time></trkpt><trkpt lat="43.3178721" lon="11.9226112"><ele>265.0</ele><time>2026-03-29T09:49:41.651Z</time></trkpt><trkpt lat="43.318042" lon="11.9225359"><ele>265.0</ele><time>2026-03-29T09:49:42.628Z</time></trkpt><trkpt lat="43.3182167" lon="11.9224552"><ele>263.0</ele><time>2026-03-29T09:49:43.649Z</time></trkpt><trkpt lat="43.3183745" lon="11.9223616"><ele>261.0</ele><time>2026-03-29T09:49:44.632Z</time></trkpt><trkpt lat="43.3185544" lon="11.9222628"><ele>259.0</ele><time>2026-03-29T09:49:45.629Z</time></trkpt><trkpt lat="43.3187308" lon="11.9222048"><ele>259.66666666666663</ele><time>2026-03-29T09:49:46.621Z</time></trkpt><trkpt lat="43.3189147" lon="11.9221332"><ele>260.3333333333333</ele><time>2026-03-29T09:49:47.63Z</time></trkpt><trkpt lat="43.3190971" lon="11.9220751"><ele>261.0</ele><time>2026-03-29T09:49:48.623Z</time></trkpt><trkpt lat="43.3192923" lon="11.9219778"><ele>261.0</ele><time>2026-03-29T09:49:49.633Z</time></trkpt><trkpt lat="43.3194622" lon="11.9218814"><ele>261.0</ele><time>2026-03-29T09:49:50.639Z</time></trkpt><trkpt lat="43.3196187" lon="11.9218295"><ele>261.0</ele><time>2026-03-29T09:49:51.636Z</time></trkpt><trkpt lat="43.3197873" lon="11.9218042"><ele>260.0</ele><time>2026-03-29T09:49:52.652Z</time></trkpt><trkpt lat="43.3199127" lon="11.9217946"><ele>259.0</ele><time>2026-03-29T09:49:53.628Z</time></trkpt><trkpt lat="43.3200884" lon="11.9217864"><ele>258.0</ele><time>2026-03-29T09:49:54.618Z</time></trkpt><trkpt lat="43.3202756" lon="11.9217729"><ele>258.0</ele><time>2026-03-29T09:49:55.65Z</time></trkpt><trkpt lat="43.320394" lon="11.9217583"><ele>258.0</ele><time>2026-03-29T09:49:56.627Z</time></trkpt><trkpt lat="43.3205512" lon="11.9217559"><ele>258.0</ele><time>2026-03-29T09:49:57.647Z</time></trkpt><trkpt lat="43.3207287" lon="11.9217561"><ele>257.3333333333333</ele><time>2026-03-29T09:49:58.634Z</time></trkpt><trkpt lat="43.3209117" lon="11.9217711"><ele>256.66666666666663</ele><time>2026-03-29T09:49:59.63Z</time></trkpt><trkpt lat="43.3211492" lon="11.9218011"><ele>256.0</ele><time>2026-03-29T09:50:00.63Z</time></trkpt><trkpt lat="43.3216849" lon="11.9219273"><ele>256.0</ele><time>2026-03-29T09:50:01.648Z</time></trkpt><trkpt lat="43.3218878" lon="11.9219389"><ele>256.0</ele><time>2026-03-29T09:50:02.644Z</time></trkpt><trkpt lat="43.3220867" lon="11.9219472"><ele>256.0</ele><time>2026-03-29T09:50:03.639Z</time></trkpt><trkpt lat="43.3222863" lon="11.9219519"><ele>255.66666666666666</ele><time>2026-03-29T09:50:04.654Z</time></trkpt><trkpt lat="43.3224805" lon="11.9219547"><ele>255.33333333333331</ele><time>2026-03-29T09:50:05.617Z</time></trkpt><trkpt lat="43.3226867" lon="11.921965"><ele>255.0</ele><time>2026-03-29T09:50:06.667Z</time></trkpt><trkpt lat="43.3228701" lon="11.9219799"><ele>255.0</ele><time>2026-03-29T09:50:07.63Z</time></trkpt><trkpt lat="43.3230609" lon="11.9219948"><ele>255.0</ele><time>2026-03-29T09:50:08.624Z</time></trkpt><trkpt lat="43.3232522" lon="11.9220052"><ele>255.0</ele><time>2026-03-29T09:50:09.647Z</time></trkpt><trkpt lat="43.3234344" lon="11.9220113"><ele>254.66666666666669</ele><time>2026-03-29T09:50:10.622Z</time></trkpt><trkpt lat="43.3236214" lon="11.9220183"><ele>254.33333333333334</ele><time>2026-03-29T09:50:11.646Z</time></trkpt><trkpt lat="43.3238019" lon="11.9220253"><ele>254.0</ele><time>2026-03-29T09:50:12.634Z</time></trkpt><trkpt lat="43.3239891" lon="11.9220341"><ele>254.0</ele><time>2026-03-29T09:50:13.656Z</time></trkpt><trkpt lat="43.3241714" lon="11.9220388"><ele>254.0</ele><time>2026-03-29T09:50:14.633Z</time></trkpt><trkpt lat="43.324366" lon="11.9220446"><ele>254.0</ele><time>2026-03-29T09:50:15.649Z</time></trkpt><trkpt lat="43.3245528" lon="11.9220486"><ele>254.0</ele><time>2026-03-29T09:50:16.634Z</time></trkpt><trkpt lat="43.3247469" lon="11.9220621"><ele>254.0</ele><time>2026-03-29T09:50:17.64Z</time></trkpt><trkpt lat="43.3249369" lon="11.9220733"><ele>254.0</ele><time>2026-03-29T09:50:18.623Z</time></trkpt><trkpt lat="43.3251292" lon="11.9220794"><ele>254.0</ele><time>2026-03-29T09:50:19.636Z</time></trkpt><trkpt lat="43.3253153" lon="11.9220825"><ele>254.0</ele><time>2026-03-29T09:50:20.626Z</time></trkpt><trkpt lat="43.3255036" lon="11.9220823"><ele>254.0</ele><time>2026-03-29T09:50:21.631Z</time></trkpt><trkpt lat="43.3256903" lon="11.9220862"><ele>254.66666666666669</ele><time>2026-03-29T09:50:22.645Z</time></trkpt><trkpt lat="43.3258626" lon="11.9220918"><ele>255.33333333333331</ele><time>2026-03-29T09:50:23.631Z</time></trkpt><trkpt lat="43.3260227" lon="11.9220994"><ele>256.0</ele><time>2026-03-29T09:50:24.63Z</time></trkpt><trkpt lat="43.3261699" lon="11.9221119"><ele>256.0</ele><time>2026-03-29T09:50:25.637Z</time></trkpt><trkpt lat="43.3263099" lon="11.9221205"><ele>256.0</ele><time>2026-03-29T09:50:26.67Z</time></trkpt><trkpt lat="43.3264404" lon="11.9221274"><ele>256.0</ele><time>2026-03-29T09:50:27.624Z</time></trkpt><trkpt lat="43.3265715" lon="11.9221321"><ele>256.0</ele><time>2026-03-29T09:50:28.636Z</time></trkpt><trkpt lat="43.3266871" lon="11.9221399"><ele>256.0</ele><time>2026-03-29T09:50:29.618Z</time></trkpt><trkpt lat="43.3268042" lon="11.922157"><ele>256.0</ele><time>2026-03-29T09:50:30.631Z</time></trkpt><trkpt lat="43.3269254" lon="11.9221691"><ele>256.0</ele><time>2026-03-29T09:50:31.633Z</time></trkpt><trkpt lat="43.3270404" lon="11.9221874"><ele>256.0</ele><time>2026-03-29T09:50:32.627Z</time></trkpt><trkpt lat="43.3271633" lon="11.9221986"><ele>256.0</ele><time>2026-03-29T09:50:33.654Z</time></trkpt><trkpt lat="43.3272835" lon="11.922205"><ele>256.0</ele><time>2026-03-29T09:50:34.64Z</time></trkpt><trkpt lat="43.3274048" lon="11.9222037"><ele>256.0</ele><time>2026-03-29T09:50:35.626Z</time></trkpt><trkpt lat="43.327527" lon="11.9222026"><ele>256.0</ele><time>2026-03-29T09:50:36.633Z</time></trkpt><trkpt lat="43.3276549" lon="11.9222078"><ele>256.0</ele><time>2026-03-29T09:50:37.625Z</time></trkpt><trkpt lat="43.3277971" lon="11.9222195"><ele>256.0</ele><time>2026-03-29T09:50:38.662Z</time></trkpt><trkpt lat="43.3279347" lon="11.9222292"><ele>256.0</ele><time>2026-03-29T09:50:39.633Z</time></trkpt><trkpt lat="43.328082" lon="11.9222379"><ele>256.0</ele><time>2026-03-29T09:50:40.635Z</time></trkpt><trkpt lat="43.3282399" lon="11.9222489"><ele>256.3333333333333</ele><time>2026-03-29T09:50:41.64Z</time></trkpt><trkpt lat="43.3284161" lon="11.9222653"><ele>256.6666666666667</ele><time>2026-03-29T09:50:42.632Z</time></trkpt><trkpt lat="43.3286049" lon="11.922285"><ele>257.0</ele><time>2026-03-29T09:50:43.658Z</time></trkpt><trkpt lat="43.3287957" lon="11.9223014"><ele>256.6666666666667</ele><time>2026-03-29T09:50:44.637Z</time></trkpt><trkpt lat="43.3289976" lon="11.9223194"><ele>256.3333333333333</ele><time>2026-03-29T09:50:45.633Z</time></trkpt><trkpt lat="43.3292079" lon="11.9223308"><ele>256.0</ele><time>2026-03-29T09:50:46.641Z</time></trkpt><trkpt lat="43.3294117" lon="11.9223356"><ele>256.0</ele><time>2026-03-29T09:50:47.628Z</time></trkpt><trkpt lat="43.3296227" lon="11.9223323"><ele>256.0</ele><time>2026-03-29T09:50:48.655Z</time></trkpt><trkpt lat="43.3298203" lon="11.9223415"><ele>256.0</ele><time>2026-03-29T09:50:49.635Z</time></trkpt><trkpt lat="43.33" lon="11.9223587"><ele>255.66666666666666</ele><time>2026-03-29T09:50:50.632Z</time></trkpt><trkpt lat="43.330178" lon="11.922383"><ele>255.33333333333331</ele><time>2026-03-29T09:50:51.625Z</time></trkpt><trkpt lat="43.3303479" lon="11.9224028"><ele>255.0</ele><time>2026-03-29T09:50:52.628Z</time></trkpt><trkpt lat="43.3305054" lon="11.9224185"><ele>255.25</ele><time>2026-03-29T09:50:53.642Z</time></trkpt><trkpt lat="43.3306553" lon="11.9224276"><ele>255.5</ele><time>2026-03-29T09:50:54.639Z</time></trkpt><trkpt lat="43.3307928" lon="11.9224373"><ele>255.75</ele><time>2026-03-29T09:50:55.642Z</time></trkpt><trkpt lat="43.3309289" lon="11.9224371"><ele>256.0</ele><time>2026-03-29T09:50:56.633Z</time></trkpt><trkpt lat="43.3310722" lon="11.9224399"><ele>256.0</ele><time>2026-03-29T09:50:57.634Z</time></trkpt><trkpt lat="43.331228" lon="11.9224438"><ele>256.0</ele><time>2026-03-29T09:50:58.636Z</time></trkpt><trkpt lat="43.3313765" lon="11.9224533"><ele>256.0</ele><time>2026-03-29T09:50:59.631Z</time></trkpt><trkpt lat="43.3315383" lon="11.9224681"><ele>255.66666666666666</ele><time>2026-03-29T09:51:00.657Z</time></trkpt><trkpt lat="43.3316986" lon="11.9224924"><ele>255.33333333333331</ele><time>2026-03-29T09:51:01.628Z</time></trkpt><trkpt lat="43.3318586" lon="11.9225217"><ele>255.0</ele><time>2026-03-29T09:51:02.632Z</time></trkpt><trkpt lat="43.332013" lon="11.9225574"><ele>255.0</ele><time>2026-03-29T09:51:03.62Z</time></trkpt><trkpt lat="43.3321643" lon="11.9226014"><ele>255.0</ele><time>2026-03-29T09:51:04.638Z</time></trkpt><trkpt lat="43.332306" lon="11.9226429"><ele>255.0</ele><time>2026-03-29T09:51:05.631Z</time></trkpt><trkpt lat="43.3324437" lon="11.9226815"><ele>255.0</ele><time>2026-03-29T09:51:06.639Z</time></trkpt><trkpt lat="43.3325762" lon="11.9227136"><ele>255.0</ele><time>2026-03-29T09:51:07.629Z</time></trkpt><trkpt lat="43.3327124" lon="11.9227485"><ele>255.0</ele><time>2026-03-29T09:51:08.629Z</time></trkpt><trkpt lat="43.3328497" lon="11.9227858"><ele>255.0</ele><time>2026-03-29T09:51:09.633Z</time></trkpt><trkpt lat="43.3329789" lon="11.9228119"><ele>255.0</ele><time>2026-03-29T09:51:10.636Z</time></trkpt><trkpt lat="43.3331042" lon="11.9228358"><ele>255.2</ele><time>2026-03-29T09:51:11.658Z</time></trkpt><trkpt lat="43.3332112" lon="11.9228586"><ele>255.4</ele><time>2026-03-29T09:51:12.622Z</time></trkpt><trkpt lat="43.3333208" lon="11.9228817"><ele>255.60000000000002</ele><time>2026-03-29T09:51:13.641Z</time></trkpt><trkpt lat="43.3334202" lon="11.9229111"><ele>255.8</ele><time>2026-03-29T09:51:14.637Z</time></trkpt><trkpt lat="43.3335064" lon="11.9229403"><ele>256.0</ele><time>2026-03-29T09:51:15.63Z</time></trkpt><trkpt lat="43.3336009" lon="11.9229694"><ele>255.99999999999997</ele><time>2026-03-29T09:51:16.645Z</time></trkpt><trkpt lat="43.3336879" lon="11.9229899"><ele>256.0</ele><time>2026-03-29T09:51:17.64Z</time></trkpt><trkpt lat="43.3337783" lon="11.9230143"><ele>256.0</ele><time>2026-03-29T09:51:18.682Z</time></trkpt><trkpt lat="43.3338582" lon="11.9230343"><ele>256.0</ele><time>2026-03-29T09:51:19.619Z</time></trkpt><trkpt lat="43.3339464" lon="11.9230596"><ele>255.99999999999997</ele><time>2026-03-29T09:51:20.628Z</time></trkpt><trkpt lat="43.334021" lon="11.9230823"><ele>256.0</ele><time>2026-03-29T09:51:21.637Z</time></trkpt><trkpt lat="43.3340928" lon="11.9231047"><ele>256.16666666666663</ele><time>2026-03-29T09:51:22.636Z</time></trkpt><trkpt lat="43.3341551" lon="11.9231204"><ele>256.3333333333333</ele><time>2026-03-29T09:51:23.653Z</time></trkpt><trkpt lat="43.3342492" lon="11.9231421"><ele>256.5</ele><time>2026-03-29T09:51:25.676Z</time></trkpt><trkpt lat="43.3343174" lon="11.9231626"><ele>256.6666666666667</ele><time>2026-03-29T09:51:27.642Z</time></trkpt><trkpt lat="43.3344077" lon="11.9231821"><ele>256.83333333333337</ele><time>2026-03-29T09:51:30.637Z</time></trkpt><trkpt lat="43.334475" lon="11.9231957"><ele>257.0</ele><time>2026-03-29T09:51:33.632Z</time></trkpt><trkpt lat="43.3345417" lon="11.9232248"><ele>257.0</ele><time>2026-03-29T09:52:12.634Z</time></trkpt><trkpt lat="43.3346288" lon="11.9232342"><ele>257.0</ele><time>2026-03-29T09:52:14.645Z</time></trkpt><trkpt lat="43.3346938" lon="11.9232445"><ele>257.0</ele><time>2026-03-29T09:52:15.638Z</time></trkpt><trkpt lat="43.3347692" lon="11.9232683"><ele>257.0</ele><time>2026-03-29T09:52:16.653Z</time></trkpt><trkpt lat="43.3348493" lon="11.9232869"><ele>257.0</ele><time>2026-03-29T09:52:17.628Z</time></trkpt><trkpt lat="43.334936" lon="11.9233086"><ele>257.0</ele><time>2026-03-29T09:52:18.627Z</time></trkpt><trkpt lat="43.3350351" lon="11.9233357"><ele>256.8</ele><time>2026-03-29T09:52:19.631Z</time></trkpt><trkpt lat="43.3351381" lon="11.9233648"><ele>256.6</ele><time>2026-03-29T09:52:20.639Z</time></trkpt><trkpt lat="43.3352343" lon="11.9233896"><ele>256.40000000000003</ele><time>2026-03-29T09:52:21.644Z</time></trkpt><trkpt lat="43.3353365" lon="11.9234188"><ele>256.2</ele><time>2026-03-29T09:52:22.653Z</time></trkpt><trkpt lat="43.3354434" lon="11.9234486"><ele>256.0</ele><time>2026-03-29T09:52:23.651Z</time></trkpt><trkpt lat="43.3355437" lon="11.9234786"><ele>255.25</ele><time>2026-03-29T09:52:24.63Z</time></trkpt><trkpt lat="43.335662" lon="11.9235088"><ele>254.5</ele><time>2026-03-29T09:52:25.653Z</time></trkpt><trkpt lat="43.3357866" lon="11.9235405"><ele>253.75</ele><time>2026-03-29T09:52:26.63Z</time></trkpt><trkpt lat="43.3359209" lon="11.9235794"><ele>253.0</ele><time>2026-03-29T09:52:27.649Z</time></trkpt><trkpt lat="43.3360541" lon="11.9236159"><ele>253.0</ele><time>2026-03-29T09:52:28.639Z</time></trkpt><trkpt lat="43.3361873" lon="11.923639"><ele>253.0</ele><time>2026-03-29T09:52:29.64Z</time></trkpt><trkpt lat="43.3363193" lon="11.9236509"><ele>253.0</ele><time>2026-03-29T09:52:30.634Z</time></trkpt><trkpt lat="43.3364499" lon="11.9236463"><ele>253.0</ele><time>2026-03-29T09:52:31.637Z</time></trkpt><trkpt lat="43.3365704" lon="11.9236063"><ele>253.25</ele><time>2026-03-29T09:52:32.637Z</time></trkpt><trkpt lat="43.3367017" lon="11.9235495"><ele>253.5</ele><time>2026-03-29T09:52:33.633Z</time></trkpt><trkpt lat="43.3368429" lon="11.9234788"><ele>253.75</ele><time>2026-03-29T09:52:34.631Z</time></trkpt><trkpt lat="43.3369764" lon="11.9233865"><ele>254.0</ele><time>2026-03-29T09:52:35.629Z</time></trkpt><trkpt lat="43.3370999" lon="11.9232896"><ele>254.39999999999998</ele><time>2026-03-29T09:52:36.644Z</time></trkpt><trkpt lat="43.3371994" lon="11.9231934"><ele>254.79999999999998</ele><time>2026-03-29T09:52:37.63Z</time></trkpt><trkpt lat="43.3372981" lon="11.9230964"><ele>255.20000000000002</ele><time>2026-03-29T09:52:38.643Z</time></trkpt><trkpt lat="43.3373828" lon="11.9230045"><ele>255.60000000000002</ele><time>2026-03-29T09:52:39.635Z</time></trkpt><trkpt lat="43.3374449" lon="11.9229098"><ele>256.0</ele><time>2026-03-29T09:52:40.644Z</time></trkpt><trkpt lat="43.3375218" lon="11.9228131"><ele>256.6</ele><time>2026-03-29T09:52:41.64Z</time></trkpt><trkpt lat="43.3375899" lon="11.9227084"><ele>257.20000000000005</ele><time>2026-03-29T09:52:42.633Z</time></trkpt><trkpt lat="43.3376604" lon="11.9225896"><ele>257.79999999999995</ele><time>2026-03-29T09:52:43.637Z</time></trkpt><trkpt lat="43.337736" lon="11.9224756"><ele>258.4</ele><time>2026-03-29T09:52:44.635Z</time></trkpt><trkpt lat="43.3378181" lon="11.9223522"><ele>259.0</ele><time>2026-03-29T09:52:45.656Z</time></trkpt><trkpt lat="43.3379112" lon="11.9222289"><ele>259.0</ele><time>2026-03-29T09:52:46.652Z</time></trkpt><trkpt lat="43.3380132" lon="11.9220832"><ele>259.0</ele><time>2026-03-29T09:52:47.634Z</time></trkpt><trkpt lat="43.3381219" lon="11.9219283"><ele>259.0</ele><time>2026-03-29T09:52:48.642Z</time></trkpt><trkpt lat="43.3382342" lon="11.9217612"><ele>260.4</ele><time>2026-03-29T09:52:49.634Z</time></trkpt><trkpt lat="43.338349" lon="11.9215868"><ele>261.79999999999995</ele><time>2026-03-29T09:52:50.657Z</time></trkpt><trkpt lat="43.3384023" lon="11.9215367"><ele>263.20000000000005</ele><time>2026-03-29T09:52:52.636Z</time></trkpt><trkpt lat="43.3384757" lon="11.9214667"><ele>264.6</ele><time>2026-03-29T09:52:53.651Z</time></trkpt><trkpt lat="43.3385693" lon="11.9213785"><ele>266.0</ele><time>2026-03-29T09:52:54.632Z</time></trkpt><trkpt lat="43.3386946" lon="11.9212563"><ele>270.0</ele><time>2026-03-29T09:52:55.673Z</time></trkpt><trkpt lat="43.3389518" lon="11.9206375"><ele>270.0</ele><time>2026-03-29T09:52:56.64Z</time></trkpt><trkpt lat="43.3390328" lon="11.9205202"><ele>270.0</ele><time>2026-03-29T09:52:57.625Z</time></trkpt><trkpt lat="43.3391181" lon="11.9203817"><ele>270.0</ele><time>2026-03-29T09:52:58.642Z</time></trkpt><trkpt lat="43.3391925" lon="11.9202437"><ele>270.0</ele><time>2026-03-29T09:52:59.632Z</time></trkpt><trkpt lat="43.3392811" lon="11.9200944"><ele>268.0</ele><time>2026-03-29T09:53:00.636Z</time></trkpt><trkpt lat="43.3393779" lon="11.9199519"><ele>266.0</ele><time>2026-03-29T09:53:01.647Z</time></trkpt><trkpt lat="43.3394632" lon="11.9198124"><ele>264.0</ele><time>2026-03-29T09:53:02.617Z</time></trkpt><trkpt lat="43.3395415" lon="11.9196791"><ele>262.0</ele><time>2026-03-29T09:53:03.645Z</time></trkpt><trkpt lat="43.3396232" lon="11.9195537"><ele>262.0</ele><time>2026-03-29T09:53:04.63Z</time></trkpt><trkpt lat="43.3397089" lon="11.9194216"><ele>262.0</ele><time>2026-03-29T09:53:05.669Z</time></trkpt><trkpt lat="43.3397931" lon="11.9192959"><ele>262.0</ele><time>2026-03-29T09:53:06.631Z</time></trkpt><trkpt lat="43.3398863" lon="11.9191595"><ele>262.0</ele><time>2026-03-29T09:53:07.644Z</time></trkpt><trkpt lat="43.3399784" lon="11.9190167"><ele>262.3333333333333</ele><time>2026-03-29T09:53:08.63Z</time></trkpt><trkpt lat="43.3400752" lon="11.91886"><ele>262.6666666666667</ele><time>2026-03-29T09:53:09.64Z</time></trkpt><trkpt lat="43.3401726" lon="11.9187079"><ele>263.0</ele><time>2026-03-29T09:53:10.632Z</time></trkpt><trkpt lat="43.340276" lon="11.9185535"><ele>262.33333333333337</ele><time>2026-03-29T09:53:11.641Z</time></trkpt><trkpt lat="43.3403849" lon="11.9183942"><ele>261.6666666666667</ele><time>2026-03-29T09:53:12.634Z</time></trkpt><trkpt lat="43.3404911" lon="11.9182283"><ele>261.0</ele><time>2026-03-29T09:53:13.64Z</time></trkpt><trkpt lat="43.3405973" lon="11.9180598"><ele>261.0</ele><time>2026-03-29T09:53:14.634Z</time></trkpt><trkpt lat="43.3407021" lon="11.9179003"><ele>261.0</ele><time>2026-03-29T09:53:15.657Z</time></trkpt><trkpt lat="43.3407962" lon="11.9177522"><ele>261.0</ele><time>2026-03-29T09:53:16.633Z</time></trkpt><trkpt lat="43.3408936" lon="11.9176057"><ele>261.0</ele><time>2026-03-29T09:53:17.63Z</time></trkpt><trkpt lat="43.3409938" lon="11.9174607"><ele>261.0</ele><time>2026-03-29T09:53:18.639Z</time></trkpt><trkpt lat="43.3411033" lon="11.9173017"><ele>261.0</ele><time>2026-03-29T09:53:19.646Z</time></trkpt><trkpt lat="43.3412103" lon="11.9171396"><ele>261.0</ele><time>2026-03-29T09:53:20.635Z</time></trkpt><trkpt lat="43.3413151" lon="11.9169727"><ele>262.0</ele><time>2026-03-29T09:53:21.623Z</time></trkpt><trkpt lat="43.3414101" lon="11.9168116"><ele>263.0</ele><time>2026-03-29T09:53:22.63Z</time></trkpt><trkpt lat="43.341509" lon="11.9166649"><ele>264.0</ele><time>2026-03-29T09:53:23.618Z</time></trkpt><trkpt lat="43.3416002" lon="11.9165195"><ele>265.0</ele><time>2026-03-29T09:53:24.628Z</time></trkpt><trkpt lat="43.3416881" lon="11.9163881"><ele>265.0</ele><time>2026-03-29T09:53:25.633Z</time></trkpt><trkpt lat="43.3417587" lon="11.9162661"><ele>265.0</ele><time>2026-03-29T09:53:26.633Z</time></trkpt><trkpt lat="43.341823" lon="11.9161633"><ele>265.0</ele><time>2026-03-29T09:53:27.648Z</time></trkpt><trkpt lat="43.3418946" lon="11.916072"><ele>265.0</ele><time>2026-03-29T09:53:28.63Z</time></trkpt><trkpt lat="43.3419572" lon="11.9159813"><ele>265.0</ele><time>2026-03-29T09:53:29.627Z</time></trkpt><trkpt lat="43.3420112" lon="11.9159009"><ele>264.8333333333333</ele><time>2026-03-29T09:53:30.631Z</time></trkpt><trkpt lat="43.3420554" lon="11.9158349"><ele>264.66666666666663</ele><time>2026-03-29T09:53:31.645Z</time></trkpt><trkpt lat="43.3421335" lon="11.9157325"><ele>264.5</ele><time>2026-03-29T09:53:33.631Z</time></trkpt><trkpt lat="43.3422016" lon="11.9156354"><ele>264.3333333333333</ele><time>2026-03-29T09:53:35.644Z</time></trkpt><trkpt lat="43.3422654" lon="11.9155671"><ele>264.1666666666667</ele><time>2026-03-29T09:53:37.624Z</time></trkpt><trkpt lat="43.3423343" lon="11.9155202"><ele>264.0</ele><time>2026-03-29T09:53:39.628Z</time></trkpt><trkpt lat="43.3424005" lon="11.9154301"><ele>264.3333333333333</ele><time>2026-03-29T09:53:41.632Z</time></trkpt><trkpt lat="43.3424301" lon="11.9153456"><ele>264.6666666666667</ele><time>2026-03-29T09:53:42.651Z</time></trkpt><trkpt lat="43.3424513" lon="11.9152474"><ele>265.0</ele><time>2026-03-29T09:53:43.634Z</time></trkpt><trkpt lat="43.3424834" lon="11.9151371"><ele>265.33333333333337</ele><time>2026-03-29T09:53:44.636Z</time></trkpt><trkpt lat="43.342542" lon="11.9150213"><ele>265.6666666666667</ele><time>2026-03-29T09:53:45.638Z</time></trkpt><trkpt lat="43.3426154" lon="11.9149171"><ele>266.0</ele><time>2026-03-29T09:53:46.649Z</time></trkpt><trkpt lat="43.3426856" lon="11.9148293"><ele>266.0</ele><time>2026-03-29T09:53:47.642Z</time></trkpt><trkpt lat="43.3427433" lon="11.9147618"><ele>266.0</ele><time>2026-03-29T09:53:48.645Z</time></trkpt><trkpt lat="43.3427927" lon="11.9146991"><ele>266.0</ele><time>2026-03-29T09:53:49.624Z</time></trkpt><trkpt lat="43.3428391" lon="11.9146372"><ele>266.0</ele><time>2026-03-29T09:53:50.633Z</time></trkpt><trkpt lat="43.3428937" lon="11.9145698"><ele>266.0</ele><time>2026-03-29T09:53:51.651Z</time></trkpt><trkpt lat="43.3429506" lon="11.9144887"><ele>266.0</ele><time>2026-03-29T09:53:52.645Z</time></trkpt><trkpt lat="43.3430172" lon="11.9143888"><ele>266.2</ele><time>2026-03-29T09:53:53.69Z</time></trkpt><trkpt lat="43.343076" lon="11.9142787"><ele>266.40000000000003</ele><time>2026-03-29T09:53:54.643Z</time></trkpt><trkpt lat="43.3431354" lon="11.9141711"><ele>266.6</ele><time>2026-03-29T09:53:55.636Z</time></trkpt><trkpt lat="43.3432025" lon="11.9140618"><ele>266.8</ele><time>2026-03-29T09:53:56.635Z</time></trkpt><trkpt lat="43.3432728" lon="11.9139493"><ele>267.0</ele><time>2026-03-29T09:53:57.637Z</time></trkpt><trkpt lat="43.3433474" lon="11.9138376"><ele>267.0</ele><time>2026-03-29T09:53:58.643Z</time></trkpt><trkpt lat="43.343427" lon="11.913725"><ele>267.0</ele><time>2026-03-29T09:53:59.636Z</time></trkpt><trkpt lat="43.3435087" lon="11.9135926"><ele>267.0</ele><time>2026-03-29T09:54:00.637Z</time></trkpt><trkpt lat="43.3435986" lon="11.913458"><ele>267.0</ele><time>2026-03-29T09:54:01.63Z</time></trkpt><trkpt lat="43.3436974" lon="11.9133162"><ele>267.25</ele><time>2026-03-29T09:54:02.638Z</time></trkpt><trkpt lat="43.3437891" lon="11.9131699"><ele>267.5</ele><time>2026-03-29T09:54:03.636Z</time></trkpt><trkpt lat="43.343892" lon="11.9130306"><ele>267.75</ele><time>2026-03-29T09:54:04.65Z</time></trkpt><trkpt lat="43.3440102" lon="11.9129021"><ele>268.0</ele><time>2026-03-29T09:54:05.646Z</time></trkpt><trkpt lat="43.3441585" lon="11.9127758"><ele>268.0</ele><time>2026-03-29T09:54:06.635Z</time></trkpt><trkpt lat="43.3443094" lon="11.9126414"><ele>268.0</ele><time>2026-03-29T09:54:07.631Z</time></trkpt><trkpt lat="43.3445101" lon="11.9125466"><ele>268.0</ele><time>2026-03-29T09:54:08.637Z</time></trkpt><trkpt lat="43.3447252" lon="11.9124683"><ele>269.3333333333333</ele><time>2026-03-29T09:54:09.634Z</time></trkpt><trkpt lat="43.3449512" lon="11.9124259"><ele>270.6666666666667</ele><time>2026-03-29T09:54:10.624Z</time></trkpt><trkpt lat="43.3451464" lon="11.9123853"><ele>272.0</ele><time>2026-03-29T09:54:11.644Z</time></trkpt><trkpt lat="43.3453424" lon="11.9123275"><ele>272.0</ele><time>2026-03-29T09:54:12.624Z</time></trkpt><trkpt lat="43.3455396" lon="11.9122602"><ele>272.0</ele><time>2026-03-29T09:54:13.654Z</time></trkpt><trkpt lat="43.3457261" lon="11.9122053"><ele>272.0</ele><time>2026-03-29T09:54:14.637Z</time></trkpt><trkpt lat="43.345899" lon="11.9121357"><ele>273.0</ele><time>2026-03-29T09:54:15.65Z</time></trkpt><trkpt lat="43.3460503" lon="11.9120753"><ele>274.0</ele><time>2026-03-29T09:54:16.65Z</time></trkpt><trkpt lat="43.3461637" lon="11.9120325"><ele>275.0</ele><time>2026-03-29T09:54:17.636Z</time></trkpt><trkpt lat="43.346266" lon="11.9120023"><ele>276.0</ele><time>2026-03-29T09:54:18.636Z</time></trkpt><trkpt lat="43.3463792" lon="11.9119693"><ele>278.40000000000003</ele><time>2026-03-29T09:54:19.648Z</time></trkpt><trkpt lat="43.3465013" lon="11.9119342"><ele>280.8</ele><time>2026-03-29T09:54:20.694Z</time></trkpt><trkpt lat="43.3465909" lon="11.9119069"><ele>283.20000000000005</ele><time>2026-03-29T09:54:21.643Z</time></trkpt><trkpt lat="43.3466773" lon="11.9118816"><ele>285.6</ele><time>2026-03-29T09:54:22.631Z</time></trkpt><trkpt lat="43.3467882" lon="11.9118547"><ele>288.0</ele><time>2026-03-29T09:54:23.643Z</time></trkpt><trkpt lat="43.3469152" lon="11.9117983"><ele>288.0</ele><time>2026-03-29T09:54:25.642Z</time></trkpt><trkpt lat="43.3470288" lon="11.911763"><ele>288.0</ele><time>2026-03-29T09:54:26.636Z</time></trkpt><trkpt lat="43.3471597" lon="11.9117186"><ele>288.0</ele><time>2026-03-29T09:54:27.668Z</time></trkpt><trkpt lat="43.3472954" lon="11.9116638"><ele>288.0</ele><time>2026-03-29T09:54:28.633Z</time></trkpt><trkpt lat="43.3474311" lon="11.9116039"><ele>286.0</ele><time>2026-03-29T09:54:29.636Z</time></trkpt><trkpt lat="43.3475577" lon="11.9115473"><ele>284.0</ele><time>2026-03-29T09:54:30.635Z</time></trkpt><trkpt lat="43.3476878" lon="11.911497"><ele>282.0</ele><time>2026-03-29T09:54:31.647Z</time></trkpt><trkpt lat="43.3478119" lon="11.9114391"><ele>280.0</ele><time>2026-03-29T09:54:32.627Z</time></trkpt><trkpt lat="43.3479382" lon="11.9113805"><ele>280.5</ele><time>2026-03-29T09:54:33.649Z</time></trkpt><trkpt lat="43.3480644" lon="11.9113094"><ele>281.0</ele><time>2026-03-29T09:54:34.645Z</time></trkpt><trkpt lat="43.3481711" lon="11.9112272"><ele>281.5</ele><time>2026-03-29T09:54:35.641Z</time></trkpt><trkpt lat="43.3483071" lon="11.911123"><ele>282.0</ele><time>2026-03-29T09:54:36.662Z</time></trkpt><trkpt lat="43.3484477" lon="11.9110047"><ele>280.6666666666667</ele><time>2026-03-29T09:54:37.647Z</time></trkpt><trkpt lat="43.3485903" lon="11.9108579"><ele>279.33333333333337</ele><time>2026-03-29T09:54:38.644Z</time></trkpt><trkpt lat="43.3487264" lon="11.9106904"><ele>278.0</ele><time>2026-03-29T09:54:39.646Z</time></trkpt><trkpt lat="43.3488494" lon="11.9105193"><ele>278.0</ele><time>2026-03-29T09:54:40.654Z</time></trkpt><trkpt lat="43.3489534" lon="11.9103578"><ele>278.0</ele><time>2026-03-29T09:54:41.638Z</time></trkpt><trkpt lat="43.3490532" lon="11.9101988"><ele>278.0</ele><time>2026-03-29T09:54:42.636Z</time></trkpt><trkpt lat="43.3491468" lon="11.9100499"><ele>278.0</ele><time>2026-03-29T09:54:43.634Z</time></trkpt><trkpt lat="43.3492387" lon="11.9099062"><ele>278.0</ele><time>2026-03-29T09:54:44.641Z</time></trkpt><trkpt lat="43.3493242" lon="11.9097749"><ele>278.0</ele><time>2026-03-29T09:54:45.639Z</time></trkpt><trkpt lat="43.3494081" lon="11.9096413"><ele>278.0</ele><time>2026-03-29T09:54:46.671Z</time></trkpt><trkpt lat="43.3494777" lon="11.9095267"><ele>278.0</ele><time>2026-03-29T09:54:47.63Z</time></trkpt><trkpt lat="43.3495472" lon="11.9094227"><ele>278.0</ele><time>2026-03-29T09:54:48.639Z</time></trkpt><trkpt lat="43.3496058" lon="11.90933"><ele>278.0</ele><time>2026-03-29T09:54:49.648Z</time></trkpt><trkpt lat="43.3496536" lon="11.9092507"><ele>278.0</ele><time>2026-03-29T09:54:50.669Z</time></trkpt><trkpt lat="43.3497225" lon="11.9091425"><ele>278.0</ele><time>2026-03-29T09:54:52.635Z</time></trkpt><trkpt lat="43.3497832" lon="11.9090733"><ele>278.0</ele><time>2026-03-29T09:54:54.642Z</time></trkpt><trkpt lat="43.349871" lon="11.9090032"><ele>278.0</ele><time>2026-03-29T09:54:56.629Z</time></trkpt><trkpt lat="43.3499126" lon="11.908934"><ele>278.0</ele><time>2026-03-29T09:54:57.655Z</time></trkpt><trkpt lat="43.349984" lon="11.9087007"><ele>278.0</ele><time>2026-03-29T09:55:00.637Z</time></trkpt><trkpt lat="43.3500534" lon="11.9085824"><ele>278.0</ele><time>2026-03-29T09:55:01.643Z</time></trkpt><trkpt lat="43.3501355" lon="11.9084424"><ele>278.0</ele><time>2026-03-29T09:55:02.651Z</time></trkpt><trkpt lat="43.3501902" lon="11.9083417"><ele>278.0</ele><time>2026-03-29T09:55:03.642Z</time></trkpt><trkpt lat="43.3502641" lon="11.9082007"><ele>278.0</ele><time>2026-03-29T09:55:04.656Z</time></trkpt><trkpt lat="43.3503338" lon="11.9080605"><ele>278.0</ele><time>2026-03-29T09:55:05.639Z</time></trkpt><trkpt lat="43.3504262" lon="11.9078827"><ele>278.0</ele><time>2026-03-29T09:55:07.63Z</time></trkpt><trkpt lat="43.3505018" lon="11.9077371"><ele>278.0</ele><time>2026-03-29T09:55:08.639Z</time></trkpt><trkpt lat="43.3505965" lon="11.9075641"><ele>278.0</ele><time>2026-03-29T09:55:09.659Z</time></trkpt><trkpt lat="43.3507081" lon="11.9073783"><ele>278.0</ele><time>2026-03-29T09:55:10.636Z</time></trkpt><trkpt lat="43.3508485" lon="11.9071625"><ele>278.0</ele><time>2026-03-29T09:55:11.627Z</time></trkpt><trkpt lat="43.3509582" lon="11.9069928"><ele>278.0</ele><time>2026-03-29T09:55:12.633Z</time></trkpt><trkpt lat="43.3510532" lon="11.9068617"><ele>278.0</ele><time>2026-03-29T09:55:13.651Z</time></trkpt><trkpt lat="43.3511312" lon="11.9067589"><ele>278.0</ele><time>2026-03-29T09:55:14.642Z</time></trkpt><trkpt lat="43.3512002" lon="11.9066671"><ele>278.0</ele><time>2026-03-29T09:55:15.67Z</time></trkpt><trkpt lat="43.3512521" lon="11.9065962"><ele>278.0</ele><time>2026-03-29T09:55:16.634Z</time></trkpt><trkpt lat="43.3513056" lon="11.906527"><ele>278.0</ele><time>2026-03-29T09:55:17.631Z</time></trkpt><trkpt lat="43.3513497" lon="11.9064638"><ele>278.0</ele><time>2026-03-29T09:55:18.647Z</time></trkpt><trkpt lat="43.3514249" lon="11.906379"><ele>278.5</ele><time>2026-03-29T09:55:19.64Z</time></trkpt><trkpt lat="43.3515071" lon="11.9062711"><ele>279.0</ele><time>2026-03-29T09:55:20.658Z</time></trkpt><trkpt lat="43.3515866" lon="11.9061614"><ele>279.5</ele><time>2026-03-29T09:55:21.632Z</time></trkpt><trkpt lat="43.3516787" lon="11.9060351"><ele>280.0</ele><time>2026-03-29T09:55:22.637Z</time></trkpt><trkpt lat="43.3517735" lon="11.905896"><ele>280.0</ele><time>2026-03-29T09:55:23.651Z</time></trkpt><trkpt lat="43.3518655" lon="11.9057579"><ele>280.0</ele><time>2026-03-29T09:55:24.663Z</time></trkpt><trkpt lat="43.3519557" lon="11.9056124"><ele>280.0</ele><time>2026-03-29T09:55:25.66Z</time></trkpt><trkpt lat="43.3520435" lon="11.9054687"><ele>280.0</ele><time>2026-03-29T09:55:26.642Z</time></trkpt><trkpt lat="43.3521376" lon="11.9053108"><ele>280.25</ele><time>2026-03-29T09:55:27.673Z</time></trkpt><trkpt lat="43.3522268" lon="11.9051647"><ele>280.5</ele><time>2026-03-29T09:55:28.632Z</time></trkpt><trkpt lat="43.3523258" lon="11.9050127"><ele>280.75</ele><time>2026-03-29T09:55:29.667Z</time></trkpt><trkpt lat="43.3524203" lon="11.9048614"><ele>281.0</ele><time>2026-03-29T09:55:30.651Z</time></trkpt><trkpt lat="43.3525189" lon="11.9047068"><ele>281.0</ele><time>2026-03-29T09:55:31.642Z</time></trkpt><trkpt lat="43.3526198" lon="11.9045569"><ele>281.0</ele><time>2026-03-29T09:55:32.624Z</time></trkpt><trkpt lat="43.352729" lon="11.9043939"><ele>281.0</ele><time>2026-03-29T09:55:33.635Z</time></trkpt><trkpt lat="43.3528358" lon="11.9042276"><ele>280.5</ele><time>2026-03-29T09:55:34.642Z</time></trkpt><trkpt lat="43.3529436" lon="11.9040647"><ele>280.0</ele><time>2026-03-29T09:55:35.659Z</time></trkpt><trkpt lat="43.3530426" lon="11.9039163"><ele>279.5</ele><time>2026-03-29T09:55:36.654Z</time></trkpt><trkpt lat="43.3531352" lon="11.9037746"><ele>279.0</ele><time>2026-03-29T09:55:37.63Z</time></trkpt><trkpt lat="43.3532308" lon="11.9036287"><ele>279.5</ele><time>2026-03-29T09:55:38.642Z</time></trkpt><trkpt lat="43.3533232" lon="11.9034914"><ele>280.0</ele><time>2026-03-29T09:55:39.644Z</time></trkpt><trkpt lat="43.3534129" lon="11.9033536"><ele>280.5</ele><time>2026-03-29T09:55:40.695Z</time></trkpt><trkpt lat="43.3534936" lon="11.9032294"><ele>281.0</ele><time>2026-03-29T09:55:41.639Z</time></trkpt><trkpt lat="43.3535802" lon="11.9031002"><ele>281.0</ele><time>2026-03-29T09:55:42.66Z</time></trkpt><trkpt lat="43.3536606" lon="11.9029714"><ele>281.0</ele><time>2026-03-29T09:55:43.628Z</time></trkpt><trkpt lat="43.3537507" lon="11.9028386"><ele>281.0</ele><time>2026-03-29T09:55:44.646Z</time></trkpt><trkpt lat="43.3538422" lon="11.9027136"><ele>281.0</ele><time>2026-03-29T09:55:45.641Z</time></trkpt><trkpt lat="43.3539359" lon="11.9025796"><ele>281.75</ele><time>2026-03-29T09:55:46.642Z</time></trkpt><trkpt lat="43.3540353" lon="11.9024511"><ele>282.5</ele><time>2026-03-29T09:55:47.643Z</time></trkpt><trkpt lat="43.3541387" lon="11.9023201"><ele>283.25</ele><time>2026-03-29T09:55:48.641Z</time></trkpt><trkpt lat="43.3542395" lon="11.9021952"><ele>284.0</ele><time>2026-03-29T09:55:49.668Z</time></trkpt><trkpt lat="43.3543393" lon="11.902069"><ele>284.0</ele><time>2026-03-29T09:55:50.621Z</time></trkpt><trkpt lat="43.3544422" lon="11.9019369"><ele>284.0</ele><time>2026-03-29T09:55:51.637Z</time></trkpt><trkpt lat="43.3545461" lon="11.9018071"><ele>284.0</ele><time>2026-03-29T09:55:52.629Z</time></trkpt><trkpt lat="43.3546504" lon="11.9016789"><ele>284.0</ele><time>2026-03-29T09:55:53.623Z</time></trkpt><trkpt lat="43.3547566" lon="11.9015471"><ele>283.5</ele><time>2026-03-29T09:55:54.634Z</time></trkpt><trkpt lat="43.3548652" lon="11.9014163"><ele>283.0</ele><time>2026-03-29T09:55:55.624Z</time></trkpt><trkpt lat="43.3549754" lon="11.9012806"><ele>282.5</ele><time>2026-03-29T09:55:56.649Z</time></trkpt><trkpt lat="43.3550825" lon="11.9011411"><ele>282.0</ele><time>2026-03-29T09:55:57.65Z</time></trkpt><trkpt lat="43.3552056" lon="11.9009967"><ele>281.6666666666667</ele><time>2026-03-29T09:55:58.652Z</time></trkpt><trkpt lat="43.3553253" lon="11.9008248"><ele>281.33333333333337</ele><time>2026-03-29T09:55:59.635Z</time></trkpt><trkpt lat="43.3554499" lon="11.9006555"><ele>281.0</ele><time>2026-03-29T09:56:00.649Z</time></trkpt><trkpt lat="43.3555671" lon="11.9004966"><ele>281.0</ele><time>2026-03-29T09:56:01.645Z</time></trkpt><trkpt lat="43.3557068" lon="11.9003288"><ele>281.0</ele><time>2026-03-29T09:56:02.646Z</time></trkpt><trkpt lat="43.3558307" lon="11.9001897"><ele>281.0</ele><time>2026-03-29T09:56:03.637Z</time></trkpt><trkpt lat="43.3559773" lon="11.9000237"><ele>280.6666666666667</ele><time>2026-03-29T09:56:04.635Z</time></trkpt><trkpt lat="43.3561333" lon="11.899862"><ele>280.3333333333333</ele><time>2026-03-29T09:56:05.636Z</time></trkpt><trkpt lat="43.3562877" lon="11.8996906"><ele>280.0</ele><time>2026-03-29T09:56:06.663Z</time></trkpt><trkpt lat="43.3564378" lon="11.8995222"><ele>279.3333333333333</ele><time>2026-03-29T09:56:07.647Z</time></trkpt><trkpt lat="43.3565824" lon="11.8993532"><ele>278.6666666666667</ele><time>2026-03-29T09:56:08.641Z</time></trkpt><trkpt lat="43.3567259" lon="11.8991899"><ele>278.0</ele><time>2026-03-29T09:56:09.647Z</time></trkpt><trkpt lat="43.3568651" lon="11.899029"><ele>278.0</ele><time>2026-03-29T09:56:10.643Z</time></trkpt><trkpt lat="43.3569958" lon="11.8988775"><ele>278.0</ele><time>2026-03-29T09:56:11.652Z</time></trkpt><trkpt lat="43.3571243" lon="11.8987226"><ele>278.0</ele><time>2026-03-29T09:56:12.647Z</time></trkpt><trkpt lat="43.3572553" lon="11.8985677"><ele>278.33333333333337</ele><time>2026-03-29T09:56:13.638Z</time></trkpt><trkpt lat="43.3573868" lon="11.8984064"><ele>278.6666666666667</ele><time>2026-03-29T09:56:14.656Z</time></trkpt><trkpt lat="43.3575184" lon="11.8982357"><ele>279.0</ele><time>2026-03-29T09:56:15.651Z</time></trkpt><trkpt lat="43.3576447" lon="11.8980723"><ele>279.0</ele><time>2026-03-29T09:56:16.645Z</time></trkpt><trkpt lat="43.3577441" lon="11.8979552"><ele>279.0</ele><time>2026-03-29T09:56:17.635Z</time></trkpt><trkpt lat="43.3578671" lon="11.8978186"><ele>279.0</ele><time>2026-03-29T09:56:18.645Z</time></trkpt><trkpt lat="43.3580046" lon="11.8976724"><ele>279.0</ele><time>2026-03-29T09:56:19.639Z</time></trkpt><trkpt lat="43.3581458" lon="11.897525"><ele>279.0</ele><time>2026-03-29T09:56:20.638Z</time></trkpt><trkpt lat="43.3583049" lon="11.8973544"><ele>279.0</ele><time>2026-03-29T09:56:21.649Z</time></trkpt><trkpt lat="43.3584529" lon="11.8972002"><ele>279.0</ele><time>2026-03-29T09:56:22.635Z</time></trkpt><trkpt lat="43.3585941" lon="11.8970503"><ele>279.0</ele><time>2026-03-29T09:56:23.668Z</time></trkpt><trkpt lat="43.3587264" lon="11.8969159"><ele>279.0</ele><time>2026-03-29T09:56:24.637Z</time></trkpt><trkpt lat="43.3588412" lon="11.8967817"><ele>279.3333333333333</ele><time>2026-03-29T09:56:25.631Z</time></trkpt><trkpt lat="43.3589802" lon="11.8966366"><ele>279.66666666666663</ele><time>2026-03-29T09:56:26.666Z</time></trkpt><trkpt lat="43.3591113" lon="11.8964998"><ele>280.0</ele><time>2026-03-29T09:56:27.642Z</time></trkpt><trkpt lat="43.3592453" lon="11.8963583"><ele>280.0</ele><time>2026-03-29T09:56:28.666Z</time></trkpt><trkpt lat="43.3593699" lon="11.896221"><ele>280.0</ele><time>2026-03-29T09:56:29.644Z</time></trkpt><trkpt lat="43.3595031" lon="11.8960828"><ele>280.0</ele><time>2026-03-29T09:56:30.633Z</time></trkpt><trkpt lat="43.3596439" lon="11.8959383"><ele>280.0</ele><time>2026-03-29T09:56:31.635Z</time></trkpt><trkpt lat="43.3597936" lon="11.8957958"><ele>280.0</ele><time>2026-03-29T09:56:32.639Z</time></trkpt><trkpt lat="43.3599305" lon="11.8956127"><ele>280.0</ele><time>2026-03-29T09:56:33.656Z</time></trkpt><trkpt lat="43.360049" lon="11.8954521"><ele>280.0</ele><time>2026-03-29T09:56:34.633Z</time></trkpt><trkpt lat="43.3601811" lon="11.8952866"><ele>280.0</ele><time>2026-03-29T09:56:35.633Z</time></trkpt><trkpt lat="43.3603127" lon="11.8951283"><ele>280.0</ele><time>2026-03-29T09:56:36.633Z</time></trkpt><trkpt lat="43.3603914" lon="11.8950461"><ele>280.66666666666663</ele><time>2026-03-29T09:56:37.638Z</time></trkpt><trkpt lat="43.3605042" lon="11.894906"><ele>281.3333333333333</ele><time>2026-03-29T09:56:38.641Z</time></trkpt><trkpt lat="43.3606232" lon="11.8947597"><ele>282.0</ele><time>2026-03-29T09:56:39.629Z</time></trkpt><trkpt lat="43.3607435" lon="11.8946126"><ele>283.6666666666667</ele><time>2026-03-29T09:56:40.631Z</time></trkpt><trkpt lat="43.3608892" lon="11.8944472"><ele>285.33333333333337</ele><time>2026-03-29T09:56:41.637Z</time></trkpt><trkpt lat="43.3610233" lon="11.8942876"><ele>287.0</ele><time>2026-03-29T09:56:42.654Z</time></trkpt><trkpt lat="43.361183" lon="11.8941224"><ele>287.33333333333337</ele><time>2026-03-29T09:56:43.662Z</time></trkpt><trkpt lat="43.3613565" lon="11.8939516"><ele>287.6666666666667</ele><time>2026-03-29T09:56:44.654Z</time></trkpt><trkpt lat="43.3615328" lon="11.8937913"><ele>288.0</ele><time>2026-03-29T09:56:45.646Z</time></trkpt><trkpt lat="43.3617075" lon="11.8936403"><ele>288.6666666666667</ele><time>2026-03-29T09:56:46.648Z</time></trkpt><trkpt lat="43.361863" lon="11.8935021"><ele>289.33333333333337</ele><time>2026-03-29T09:56:47.628Z</time></trkpt><trkpt lat="43.3619984" lon="11.8933658"><ele>290.0</ele><time>2026-03-29T09:56:48.621Z</time></trkpt><trkpt lat="43.362135" lon="11.8932249"><ele>291.33333333333337</ele><time>2026-03-29T09:56:49.642Z</time></trkpt><trkpt lat="43.3622642" lon="11.8930877"><ele>292.6666666666667</ele><time>2026-03-29T09:56:50.626Z</time></trkpt><trkpt lat="43.36242" lon="11.8929569"><ele>294.0</ele><time>2026-03-29T09:56:51.646Z</time></trkpt><trkpt lat="43.362553" lon="11.8928189"><ele>294.0</ele><time>2026-03-29T09:56:52.636Z</time></trkpt><trkpt lat="43.3626761" lon="11.8926709"><ele>294.0</ele><time>2026-03-29T09:56:53.625Z</time></trkpt><trkpt lat="43.3628025" lon="11.8925016"><ele>294.0</ele><time>2026-03-29T09:56:54.668Z</time></trkpt><trkpt lat="43.3628974" lon="11.8923382"><ele>294.25</ele><time>2026-03-29T09:56:55.643Z</time></trkpt><trkpt lat="43.3629894" lon="11.8921688"><ele>294.5</ele><time>2026-03-29T09:56:56.685Z</time></trkpt><trkpt lat="43.3630672" lon="11.8920115"><ele>294.75</ele><time>2026-03-29T09:56:57.643Z</time></trkpt><trkpt lat="43.3631359" lon="11.8918509"><ele>295.0</ele><time>2026-03-29T09:56:58.642Z</time></trkpt><trkpt lat="43.3632038" lon="11.8916933"><ele>295.0</ele><time>2026-03-29T09:56:59.639Z</time></trkpt><trkpt lat="43.3632678" lon="11.8915432"><ele>295.0</ele><time>2026-03-29T09:57:00.637Z</time></trkpt><trkpt lat="43.3633366" lon="11.8913977"><ele>295.0</ele><time>2026-03-29T09:57:01.649Z</time></trkpt><trkpt lat="43.3634071" lon="11.8912627"><ele>295.0</ele><time>2026-03-29T09:57:02.628Z</time></trkpt><trkpt lat="43.3634885" lon="11.8911256"><ele>295.0</ele><time>2026-03-29T09:57:03.657Z</time></trkpt><trkpt lat="43.3635704" lon="11.8910029"><ele>295.0</ele><time>2026-03-29T09:57:04.63Z</time></trkpt><trkpt lat="43.3636577" lon="11.8908704"><ele>295.0</ele><time>2026-03-29T09:57:05.63Z</time></trkpt><trkpt lat="43.3637512" lon="11.8907337"><ele>295.0</ele><time>2026-03-29T09:57:06.647Z</time></trkpt><trkpt lat="43.3638563" lon="11.8905994"><ele>294.5</ele><time>2026-03-29T09:57:07.637Z</time></trkpt><trkpt lat="43.363963" lon="11.8904678"><ele>294.0</ele><time>2026-03-29T09:57:08.637Z</time></trkpt><trkpt lat="43.3640727" lon="11.8903387"><ele>293.5</ele><time>2026-03-29T09:57:09.646Z</time></trkpt><trkpt lat="43.3641949" lon="11.8902063"><ele>293.0</ele><time>2026-03-29T09:57:10.697Z</time></trkpt><trkpt lat="43.3643122" lon="11.8900741"><ele>292.33333333333337</ele><time>2026-03-29T09:57:11.633Z</time></trkpt><trkpt lat="43.364438" lon="11.8899303"><ele>291.6666666666667</ele><time>2026-03-29T09:57:12.636Z</time></trkpt><trkpt lat="43.3645651" lon="11.889785"><ele>291.0</ele><time>2026-03-29T09:57:13.63Z</time></trkpt><trkpt lat="43.3646938" lon="11.8896395"><ele>291.3333333333333</ele><time>2026-03-29T09:57:14.623Z</time></trkpt><trkpt lat="43.364827" lon="11.8894821"><ele>291.66666666666663</ele><time>2026-03-29T09:57:15.652Z</time></trkpt><trkpt lat="43.3649139" lon="11.8893478"><ele>292.0</ele><time>2026-03-29T09:57:16.639Z</time></trkpt><trkpt lat="43.3650192" lon="11.8891688"><ele>292.0</ele><time>2026-03-29T09:57:17.623Z</time></trkpt><trkpt lat="43.3651206" lon="11.8889598"><ele>292.0</ele><time>2026-03-29T09:57:18.647Z</time></trkpt><trkpt lat="43.3651767" lon="11.8887637"><ele>292.0</ele><time>2026-03-29T09:57:19.637Z</time></trkpt><trkpt lat="43.3652334" lon="11.8885291"><ele>291.3333333333333</ele><time>2026-03-29T09:57:20.65Z</time></trkpt><trkpt lat="43.3652722" lon="11.8883055"><ele>290.6666666666667</ele><time>2026-03-29T09:57:21.652Z</time></trkpt><trkpt lat="43.3653098" lon="11.8880972"><ele>290.0</ele><time>2026-03-29T09:57:22.638Z</time></trkpt><trkpt lat="43.3653577" lon="11.887883"><ele>290.0</ele><time>2026-03-29T09:57:23.657Z</time></trkpt><trkpt lat="43.3654355" lon="11.8876877"><ele>290.0</ele><time>2026-03-29T09:57:24.657Z</time></trkpt><trkpt lat="43.3655216" lon="11.8874976"><ele>290.0</ele><time>2026-03-29T09:57:25.633Z</time></trkpt><trkpt lat="43.3656067" lon="11.8872997"><ele>289.33333333333337</ele><time>2026-03-29T09:57:26.636Z</time></trkpt><trkpt lat="43.3656854" lon="11.8870878"><ele>288.6666666666667</ele><time>2026-03-29T09:57:27.647Z</time></trkpt><trkpt lat="43.365732" lon="11.8868839"><ele>288.0</ele><time>2026-03-29T09:57:28.625Z</time></trkpt><trkpt lat="43.3657721" lon="11.8866564"><ele>288.0</ele><time>2026-03-29T09:57:29.637Z</time></trkpt><trkpt lat="43.3658054" lon="11.8864455"><ele>288.0</ele><time>2026-03-29T09:57:30.624Z</time></trkpt><trkpt lat="43.3658393" lon="11.8862194"><ele>288.0</ele><time>2026-03-29T09:57:31.666Z</time></trkpt><trkpt lat="43.3658692" lon="11.8859948"><ele>287.6666666666667</ele><time>2026-03-29T09:57:32.632Z</time></trkpt><trkpt lat="43.3658792" lon="11.8858212"><ele>287.33333333333337</ele><time>2026-03-29T09:57:33.631Z</time></trkpt><trkpt lat="43.3658862" lon="11.8856015"><ele>287.0</ele><time>2026-03-29T09:57:34.639Z</time></trkpt><trkpt lat="43.3658947" lon="11.8853598"><ele>287.0</ele><time>2026-03-29T09:57:35.634Z</time></trkpt><trkpt lat="43.3658969" lon="11.8850978"><ele>287.0</ele><time>2026-03-29T09:57:36.684Z</time></trkpt><trkpt lat="43.3659099" lon="11.8848333"><ele>287.0</ele><time>2026-03-29T09:57:37.646Z</time></trkpt><trkpt lat="43.3659475" lon="11.8845532"><ele>286.0</ele><time>2026-03-29T09:57:38.664Z</time></trkpt><trkpt lat="43.3660107" lon="11.8843225"><ele>285.0</ele><time>2026-03-29T09:57:39.656Z</time></trkpt><trkpt lat="43.3661031" lon="11.884076"><ele>284.0</ele><time>2026-03-29T09:57:40.676Z</time></trkpt><trkpt lat="43.3662123" lon="11.8838439"><ele>283.33333333333337</ele><time>2026-03-29T09:57:41.647Z</time></trkpt><trkpt lat="43.366331" lon="11.8836039"><ele>282.6666666666667</ele><time>2026-03-29T09:57:42.629Z</time></trkpt><trkpt lat="43.3664674" lon="11.8833579"><ele>282.0</ele><time>2026-03-29T09:57:43.642Z</time></trkpt><trkpt lat="43.3666032" lon="11.8831154"><ele>280.6666666666667</ele><time>2026-03-29T09:57:44.658Z</time></trkpt><trkpt lat="43.3667399" lon="11.8828786"><ele>279.33333333333337</ele><time>2026-03-29T09:57:45.656Z</time></trkpt><trkpt lat="43.3668815" lon="11.8826394"><ele>278.0</ele><time>2026-03-29T09:57:46.638Z</time></trkpt><trkpt lat="43.3670272" lon="11.8823867"><ele>278.33333333333337</ele><time>2026-03-29T09:57:47.688Z</time></trkpt><trkpt lat="43.3671581" lon="11.8821599"><ele>278.6666666666667</ele><time>2026-03-29T09:57:48.64Z</time></trkpt><trkpt lat="43.3672998" lon="11.8819279"><ele>279.0</ele><time>2026-03-29T09:57:49.635Z</time></trkpt><trkpt lat="43.3674496" lon="11.8816877"><ele>279.0</ele><time>2026-03-29T09:57:50.653Z</time></trkpt><trkpt lat="43.3675961" lon="11.8814579"><ele>279.0</ele><time>2026-03-29T09:57:51.627Z</time></trkpt><trkpt lat="43.3677609" lon="11.88122"><ele>279.0</ele><time>2026-03-29T09:57:52.637Z</time></trkpt><trkpt lat="43.3679237" lon="11.8809817"><ele>279.0</ele><time>2026-03-29T09:57:53.636Z</time></trkpt><trkpt lat="43.368082" lon="11.880737"><ele>279.0</ele><time>2026-03-29T09:57:54.631Z</time></trkpt><trkpt lat="43.368236" lon="11.8804912"><ele>279.0</ele><time>2026-03-29T09:57:55.63Z</time></trkpt><trkpt lat="43.3683868" lon="11.8802498"><ele>278.3333333333333</ele><time>2026-03-29T09:57:56.638Z</time></trkpt><trkpt lat="43.3685309" lon="11.8800014"><ele>277.66666666666663</ele><time>2026-03-29T09:57:57.672Z</time></trkpt><trkpt lat="43.3686579" lon="11.8797811"><ele>277.0</ele><time>2026-03-29T09:57:58.624Z</time></trkpt><trkpt lat="43.3687928" lon="11.8795587"><ele>277.0</ele><time>2026-03-29T09:57:59.657Z</time></trkpt><trkpt lat="43.3689196" lon="11.8793453"><ele>277.0</ele><time>2026-03-29T09:58:00.651Z</time></trkpt><trkpt lat="43.3690412" lon="11.8791277"><ele>277.0</ele><time>2026-03-29T09:58:01.646Z</time></trkpt><trkpt lat="43.3691575" lon="11.8789182"><ele>277.0</ele><time>2026-03-29T09:58:02.636Z</time></trkpt><trkpt lat="43.3692745" lon="11.8787017"><ele>277.0</ele><time>2026-03-29T09:58:03.649Z</time></trkpt><trkpt lat="43.3693836" lon="11.8784921"><ele>277.0</ele><time>2026-03-29T09:58:04.645Z</time></trkpt><trkpt lat="43.36949" lon="11.8782829"><ele>276.3333333333333</ele><time>2026-03-29T09:58:05.635Z</time></trkpt><trkpt lat="43.3695974" lon="11.8780765"><ele>275.6666666666667</ele><time>2026-03-29T09:58:06.645Z</time></trkpt><trkpt lat="43.3696999" lon="11.8778856"><ele>275.0</ele><time>2026-03-29T09:58:07.64Z</time></trkpt><trkpt lat="43.3697988" lon="11.8777073"><ele>276.6666666666667</ele><time>2026-03-29T09:58:08.629Z</time></trkpt><trkpt lat="43.3698995" lon="11.8775273"><ele>278.3333333333333</ele><time>2026-03-29T09:58:09.653Z</time></trkpt><trkpt lat="43.3699921" lon="11.8773625"><ele>280.0</ele><time>2026-03-29T09:58:10.654Z</time></trkpt><trkpt lat="43.3700828" lon="11.8772089"><ele>280.0</ele><time>2026-03-29T09:58:11.65Z</time></trkpt><trkpt lat="43.3701722" lon="11.8770586"><ele>280.0</ele><time>2026-03-29T09:58:12.643Z</time></trkpt><trkpt lat="43.3702599" lon="11.8769145"><ele>280.0</ele><time>2026-03-29T09:58:13.634Z</time></trkpt><trkpt lat="43.3703435" lon="11.8767689"><ele>280.0</ele><time>2026-03-29T09:58:14.646Z</time></trkpt><trkpt lat="43.370418" lon="11.8766326"><ele>279.75</ele><time>2026-03-29T09:58:15.64Z</time></trkpt><trkpt lat="43.3704949" lon="11.8765032"><ele>279.5</ele><time>2026-03-29T09:58:16.631Z</time></trkpt><trkpt lat="43.3705714" lon="11.8763751"><ele>279.25</ele><time>2026-03-29T09:58:17.665Z</time></trkpt><trkpt lat="43.3706459" lon="11.8762485"><ele>279.0</ele><time>2026-03-29T09:58:18.653Z</time></trkpt><trkpt lat="43.37072" lon="11.8761053"><ele>279.75</ele><time>2026-03-29T09:58:19.647Z</time></trkpt><trkpt lat="43.370804" lon="11.8759493"><ele>280.5</ele><time>2026-03-29T09:58:20.639Z</time></trkpt><trkpt lat="43.3708736" lon="11.8758085"><ele>281.25</ele><time>2026-03-29T09:58:21.632Z</time></trkpt><trkpt lat="43.3709721" lon="11.8756194"><ele>282.0</ele><time>2026-03-29T09:58:22.645Z</time></trkpt><trkpt lat="43.3710821" lon="11.875432"><ele>282.0</ele><time>2026-03-29T09:58:23.663Z</time></trkpt><trkpt lat="43.3711728" lon="11.8752701"><ele>282.0</ele><time>2026-03-29T09:58:24.635Z</time></trkpt><trkpt lat="43.3712758" lon="11.8750886"><ele>282.0</ele><time>2026-03-29T09:58:25.659Z</time></trkpt><trkpt lat="43.3713656" lon="11.8749152"><ele>282.25</ele><time>2026-03-29T09:58:26.642Z</time></trkpt><trkpt lat="43.3714486" lon="11.8747534"><ele>282.5</ele><time>2026-03-29T09:58:27.637Z</time></trkpt><trkpt lat="43.3715389" lon="11.8745882"><ele>282.75</ele><time>2026-03-29T09:58:28.649Z</time></trkpt><trkpt lat="43.3716283" lon="11.8744257"><ele>283.0</ele><time>2026-03-29T09:58:29.64Z</time></trkpt><trkpt lat="43.3717009" lon="11.8742189"><ele>282.5</ele><time>2026-03-29T09:58:31.644Z</time></trkpt><trkpt lat="43.371744" lon="11.8740939"><ele>282.0</ele><time>2026-03-29T09:58:32.653Z</time></trkpt><trkpt lat="43.3717997" lon="11.8739458"><ele>281.5</ele><time>2026-03-29T09:58:33.625Z</time></trkpt><trkpt lat="43.3718646" lon="11.8737813"><ele>281.0</ele><time>2026-03-29T09:58:34.653Z</time></trkpt><trkpt lat="43.3719385" lon="11.8736014"><ele>281.0</ele><time>2026-03-29T09:58:35.652Z</time></trkpt><trkpt lat="43.3720643" lon="11.8733646"><ele>281.0</ele><time>2026-03-29T09:58:37.643Z</time></trkpt><trkpt lat="43.3725356" lon="11.8727022"><ele>281.33333333333337</ele><time>2026-03-29T09:58:38.641Z</time></trkpt><trkpt lat="43.3726389" lon="11.8725094"><ele>281.6666666666667</ele><time>2026-03-29T09:58:39.651Z</time></trkpt><trkpt lat="43.3727478" lon="11.8723044"><ele>282.0</ele><time>2026-03-29T09:58:40.698Z</time></trkpt><trkpt lat="43.3728517" lon="11.8721048"><ele>282.0</ele><time>2026-03-29T09:58:41.649Z</time></trkpt><trkpt lat="43.3729638" lon="11.8719084"><ele>282.0</ele><time>2026-03-29T09:58:42.643Z</time></trkpt><trkpt lat="43.3730691" lon="11.8717071"><ele>282.0</ele><time>2026-03-29T09:58:43.643Z</time></trkpt><trkpt lat="43.3731752" lon="11.8715055"><ele>282.3333333333333</ele><time>2026-03-29T09:58:44.66Z</time></trkpt><trkpt lat="43.3732819" lon="11.8713093"><ele>282.66666666666663</ele><time>2026-03-29T09:58:45.653Z</time></trkpt><trkpt lat="43.3733986" lon="11.8711153"><ele>283.0</ele><time>2026-03-29T09:58:46.642Z</time></trkpt><trkpt lat="43.3735117" lon="11.8709384"><ele>283.0</ele><time>2026-03-29T09:58:47.68Z</time></trkpt><trkpt lat="43.3736162" lon="11.8707877"><ele>283.0</ele><time>2026-03-29T09:58:48.638Z</time></trkpt><trkpt lat="43.3737235" lon="11.8706381"><ele>283.0</ele><time>2026-03-29T09:58:49.643Z</time></trkpt><trkpt lat="43.3738416" lon="11.8705075"><ele>283.0</ele><time>2026-03-29T09:58:50.64Z</time></trkpt><trkpt lat="43.3739591" lon="11.8703788"><ele>283.0</ele><time>2026-03-29T09:58:51.643Z</time></trkpt><trkpt lat="43.3740713" lon="11.8702347"><ele>283.0</ele><time>2026-03-29T09:58:52.633Z</time></trkpt><trkpt lat="43.3741804" lon="11.8700929"><ele>283.0</ele><time>2026-03-29T09:58:53.643Z</time></trkpt><trkpt lat="43.3742838" lon="11.8699511"><ele>283.0</ele><time>2026-03-29T09:58:54.652Z</time></trkpt><trkpt lat="43.3743863" lon="11.8698153"><ele>283.0</ele><time>2026-03-29T09:58:55.644Z</time></trkpt><trkpt lat="43.3744869" lon="11.8696812"><ele>283.0</ele><time>2026-03-29T09:58:56.67Z</time></trkpt><trkpt lat="43.3745832" lon="11.8695531"><ele>283.0</ele><time>2026-03-29T09:58:57.649Z</time></trkpt><trkpt lat="43.3746829" lon="11.869423"><ele>283.0</ele><time>2026-03-29T09:58:58.636Z</time></trkpt><trkpt lat="43.3747803" lon="11.8693091"><ele>283.0</ele><time>2026-03-29T09:58:59.646Z</time></trkpt><trkpt lat="43.3748719" lon="11.8691973"><ele>283.0</ele><time>2026-03-29T09:59:00.632Z</time></trkpt><trkpt lat="43.3749694" lon="11.8690938"><ele>283.2</ele><time>2026-03-29T09:59:01.66Z</time></trkpt><trkpt lat="43.3750521" lon="11.8689987"><ele>283.4</ele><time>2026-03-29T09:59:02.63Z</time></trkpt><trkpt lat="43.3751236" lon="11.8689005"><ele>283.59999999999997</ele><time>2026-03-29T09:59:03.642Z</time></trkpt><trkpt lat="43.375195" lon="11.8687835"><ele>283.8</ele><time>2026-03-29T09:59:04.639Z</time></trkpt><trkpt lat="43.3752655" lon="11.8686778"><ele>284.0</ele><time>2026-03-29T09:59:05.669Z</time></trkpt><trkpt lat="43.3753514" lon="11.8685735"><ele>284.0</ele><time>2026-03-29T09:59:06.657Z</time></trkpt><trkpt lat="43.3754511" lon="11.8684686"><ele>284.0</ele><time>2026-03-29T09:59:07.661Z</time></trkpt><trkpt lat="43.3755431" lon="11.868365"><ele>284.0</ele><time>2026-03-29T09:59:08.653Z</time></trkpt><trkpt lat="43.3756315" lon="11.8682607"><ele>284.0</ele><time>2026-03-29T09:59:09.653Z</time></trkpt><trkpt lat="43.375717" lon="11.8681616"><ele>284.0</ele><time>2026-03-29T09:59:10.642Z</time></trkpt><trkpt lat="43.3757982" lon="11.8680618"><ele>284.0</ele><time>2026-03-29T09:59:11.659Z</time></trkpt><trkpt lat="43.3758655" lon="11.8679693"><ele>284.0</ele><time>2026-03-29T09:59:12.648Z</time></trkpt><trkpt lat="43.3759263" lon="11.8678794"><ele>284.0</ele><time>2026-03-29T09:59:13.635Z</time></trkpt><trkpt lat="43.3759959" lon="11.8677882"><ele>284.0</ele><time>2026-03-29T09:59:14.639Z</time></trkpt><trkpt lat="43.3760748" lon="11.8676925"><ele>283.75</ele><time>2026-03-29T09:59:15.637Z</time></trkpt><trkpt lat="43.3761477" lon="11.8675934"><ele>283.5</ele><time>2026-03-29T09:59:16.64Z</time></trkpt><trkpt lat="43.3762315" lon="11.8674807"><ele>283.25</ele><time>2026-03-29T09:59:17.68Z</time></trkpt><trkpt lat="43.3763212" lon="11.8673763"><ele>283.0</ele><time>2026-03-29T09:59:18.632Z</time></trkpt><trkpt lat="43.3764176" lon="11.8672651"><ele>282.8</ele><time>2026-03-29T09:59:19.644Z</time></trkpt><trkpt lat="43.3765021" lon="11.8671694"><ele>282.6</ele><time>2026-03-29T09:59:20.643Z</time></trkpt><trkpt lat="43.3765878" lon="11.8670737"><ele>282.4</ele><time>2026-03-29T09:59:21.652Z</time></trkpt><trkpt lat="43.3766732" lon="11.8669765"><ele>282.2</ele><time>2026-03-29T09:59:22.635Z</time></trkpt><trkpt lat="43.3767664" lon="11.8668792"><ele>282.0</ele><time>2026-03-29T09:59:23.644Z</time></trkpt><trkpt lat="43.3768524" lon="11.8667706"><ele>282.0</ele><time>2026-03-29T09:59:24.638Z</time></trkpt><trkpt lat="43.3769506" lon="11.8666431"><ele>282.0</ele><time>2026-03-29T09:59:25.648Z</time></trkpt><trkpt lat="43.3770456" lon="11.8665261"><ele>282.0</ele><time>2026-03-29T09:59:26.632Z</time></trkpt><trkpt lat="43.3771402" lon="11.8664106"><ele>282.0</ele><time>2026-03-29T09:59:27.647Z</time></trkpt><trkpt lat="43.3772324" lon="11.8662902"><ele>282.0</ele><time>2026-03-29T09:59:28.641Z</time></trkpt><trkpt lat="43.3773274" lon="11.8661729"><ele>282.0</ele><time>2026-03-29T09:59:29.651Z</time></trkpt><trkpt lat="43.3774129" lon="11.8660619"><ele>282.0</ele><time>2026-03-29T09:59:30.633Z</time></trkpt><trkpt lat="43.3774933" lon="11.8659568"><ele>282.0</ele><time>2026-03-29T09:59:31.641Z</time></trkpt><trkpt lat="43.377564" lon="11.8658637"><ele>282.0</ele><time>2026-03-29T09:59:32.636Z</time></trkpt><trkpt lat="43.3776341" lon="11.8657838"><ele>282.0</ele><time>2026-03-29T09:59:33.644Z</time></trkpt><trkpt lat="43.3776907" lon="11.8657252"><ele>282.0</ele><time>2026-03-29T09:59:34.658Z</time></trkpt><trkpt lat="43.3778031" lon="11.8656485"><ele>282.0</ele><time>2026-03-29T09:59:36.654Z</time></trkpt><trkpt lat="43.3778728" lon="11.8656402"><ele>282.0</ele><time>2026-03-29T09:59:37.635Z</time></trkpt><trkpt lat="43.3779593" lon="11.8656384"><ele>282.0</ele><time>2026-03-29T09:59:38.645Z</time></trkpt><trkpt lat="43.3780303" lon="11.8656109"><ele>282.1666666666667</ele><time>2026-03-29T09:59:39.642Z</time></trkpt><trkpt lat="43.3780919" lon="11.8655578"><ele>282.3333333333333</ele><time>2026-03-29T09:59:40.64Z</time></trkpt><trkpt lat="43.378143" lon="11.8654116"><ele>282.5</ele><time>2026-03-29T09:59:42.648Z</time></trkpt><trkpt lat="43.3781341" lon="11.865314"><ele>282.66666666666663</ele><time>2026-03-29T09:59:43.642Z</time></trkpt><trkpt lat="43.3781008" lon="11.8652164"><ele>282.8333333333333</ele><time>2026-03-29T09:59:44.645Z</time></trkpt><trkpt lat="43.3780272" lon="11.8651263"><ele>283.0</ele><time>2026-03-29T09:59:45.635Z</time></trkpt><trkpt lat="43.3779181" lon="11.8650755"><ele>282.2</ele><time>2026-03-29T09:59:46.636Z</time></trkpt><trkpt lat="43.3778072" lon="11.8650542"><ele>281.4</ele><time>2026-03-29T09:59:47.641Z</time></trkpt><trkpt lat="43.3777193" lon="11.8650321"><ele>280.59999999999997</ele><time>2026-03-29T09:59:48.639Z</time></trkpt><trkpt lat="43.3776082" lon="11.8649823"><ele>279.8</ele><time>2026-03-29T09:59:49.681Z</time></trkpt><trkpt lat="43.37751" lon="11.8648885"><ele>279.0</ele><time>2026-03-29T09:59:50.67Z</time></trkpt><trkpt lat="43.3774084" lon="11.8647653"><ele>279.0</ele><time>2026-03-29T09:59:51.646Z</time></trkpt><trkpt lat="43.3773037" lon="11.8645781"><ele>279.0</ele><time>2026-03-29T09:59:52.643Z</time></trkpt><trkpt lat="43.377201" lon="11.864409"><ele>279.0</ele><time>2026-03-29T09:59:53.657Z</time></trkpt><trkpt lat="43.3770805" lon="11.8642339"><ele>278.3333333333333</ele><time>2026-03-29T09:59:54.654Z</time></trkpt><trkpt lat="43.3769857" lon="11.86408"><ele>277.66666666666663</ele><time>2026-03-29T09:59:55.65Z</time></trkpt><trkpt lat="43.3768569" lon="11.8638975"><ele>277.0</ele><time>2026-03-29T09:59:56.653Z</time></trkpt><trkpt lat="43.3767283" lon="11.8637175"><ele>277.0</ele><time>2026-03-29T09:59:57.646Z</time></trkpt><trkpt lat="43.3765935" lon="11.8635357"><ele>277.0</ele><time>2026-03-29T09:59:58.628Z</time></trkpt><trkpt lat="43.3764561" lon="11.863345"><ele>277.0</ele><time>2026-03-29T09:59:59.683Z</time></trkpt><trkpt lat="43.3763415" lon="11.86318"><ele>276.3333333333333</ele><time>2026-03-29T10:00:00.633Z</time></trkpt><trkpt lat="43.3762088" lon="11.8629957"><ele>275.6666666666667</ele><time>2026-03-29T10:00:01.639Z</time></trkpt><trkpt lat="43.376077" lon="11.8628024"><ele>275.0</ele><time>2026-03-29T10:00:02.629Z</time></trkpt><trkpt lat="43.3759406" lon="11.862608"><ele>274.33333333333337</ele><time>2026-03-29T10:00:03.639Z</time></trkpt><trkpt lat="43.3758052" lon="11.8624147"><ele>273.6666666666667</ele><time>2026-03-29T10:00:04.635Z</time></trkpt><trkpt lat="43.3756688" lon="11.862217"><ele>273.0</ele><time>2026-03-29T10:00:05.633Z</time></trkpt><trkpt lat="43.3755179" lon="11.8620132"><ele>273.0</ele><time>2026-03-29T10:00:06.654Z</time></trkpt><trkpt lat="43.3753698" lon="11.8618242"><ele>273.0</ele><time>2026-03-29T10:00:07.65Z</time></trkpt><trkpt lat="43.3752293" lon="11.8616397"><ele>273.0</ele><time>2026-03-29T10:00:08.642Z</time></trkpt><trkpt lat="43.3750892" lon="11.8614521"><ele>273.0</ele><time>2026-03-29T10:00:09.628Z</time></trkpt><trkpt lat="43.3749562" lon="11.8612719"><ele>273.0</ele><time>2026-03-29T10:00:10.633Z</time></trkpt><trkpt lat="43.3748506" lon="11.8611177"><ele>273.0</ele><time>2026-03-29T10:00:11.635Z</time></trkpt><trkpt lat="43.3747647" lon="11.8609908"><ele>272.6</ele><time>2026-03-29T10:00:12.664Z</time></trkpt><trkpt lat="43.3746913" lon="11.8608937"><ele>272.20000000000005</ele><time>2026-03-29T10:00:13.63Z</time></trkpt><trkpt lat="43.3746142" lon="11.8607961"><ele>271.8</ele><time>2026-03-29T10:00:14.637Z</time></trkpt><trkpt lat="43.3745322" lon="11.8606826"><ele>271.40000000000003</ele><time>2026-03-29T10:00:15.639Z</time></trkpt><trkpt lat="43.3744524" lon="11.8605707"><ele>271.0</ele><time>2026-03-29T10:00:16.648Z</time></trkpt><trkpt lat="43.3743682" lon="11.8604579"><ele>270.75</ele><time>2026-03-29T10:00:17.643Z</time></trkpt><trkpt lat="43.3742892" lon="11.8603405"><ele>270.5</ele><time>2026-03-29T10:00:18.638Z</time></trkpt><trkpt lat="43.3742056" lon="11.8602003"><ele>270.25</ele><time>2026-03-29T10:00:19.649Z</time></trkpt><trkpt lat="43.3741217" lon="11.8600499"><ele>270.0</ele><time>2026-03-29T10:00:20.643Z</time></trkpt><trkpt lat="43.3740289" lon="11.8598876"><ele>270.0</ele><time>2026-03-29T10:00:21.704Z</time></trkpt><trkpt lat="43.3739473" lon="11.8597227"><ele>270.0</ele><time>2026-03-29T10:00:22.661Z</time></trkpt><trkpt lat="43.3738603" lon="11.8595404"><ele>270.0</ele><time>2026-03-29T10:00:23.639Z</time></trkpt><trkpt lat="43.373763" lon="11.8593506"><ele>269.6666666666667</ele><time>2026-03-29T10:00:24.643Z</time></trkpt><trkpt lat="43.3736623" lon="11.85914"><ele>269.33333333333337</ele><time>2026-03-29T10:00:25.641Z</time></trkpt><trkpt lat="43.373555" lon="11.8589243"><ele>269.0</ele><time>2026-03-29T10:00:26.655Z</time></trkpt><trkpt lat="43.373442" lon="11.8587129"><ele>269.0</ele><time>2026-03-29T10:00:27.648Z</time></trkpt><trkpt lat="43.3733251" lon="11.8584891"><ele>269.0</ele><time>2026-03-29T10:00:28.669Z</time></trkpt><trkpt lat="43.3732077" lon="11.858263"><ele>269.0</ele><time>2026-03-29T10:00:29.657Z</time></trkpt><trkpt lat="43.3730981" lon="11.8580395"><ele>268.0</ele><time>2026-03-29T10:00:30.63Z</time></trkpt><trkpt lat="43.3729851" lon="11.8578154"><ele>267.0</ele><time>2026-03-29T10:00:31.663Z</time></trkpt><trkpt lat="43.372883" lon="11.8576047"><ele>266.0</ele><time>2026-03-29T10:00:32.64Z</time></trkpt><trkpt lat="43.3727826" lon="11.8573851"><ele>264.6666666666667</ele><time>2026-03-29T10:00:33.697Z</time></trkpt><trkpt lat="43.372696" lon="11.8572041"><ele>263.3333333333333</ele><time>2026-03-29T10:00:34.646Z</time></trkpt><trkpt lat="43.3725977" lon="11.857013"><ele>262.0</ele><time>2026-03-29T10:00:35.653Z</time></trkpt><trkpt lat="43.3725012" lon="11.8568219"><ele>262.66666666666663</ele><time>2026-03-29T10:00:36.659Z</time></trkpt><trkpt lat="43.3724017" lon="11.8566333"><ele>263.3333333333333</ele><time>2026-03-29T10:00:37.646Z</time></trkpt><trkpt lat="43.3722953" lon="11.8564336"><ele>264.0</ele><time>2026-03-29T10:00:38.654Z</time></trkpt><trkpt lat="43.372195" lon="11.856229"><ele>263.3333333333333</ele><time>2026-03-29T10:00:39.651Z</time></trkpt><trkpt lat="43.372088" lon="11.8560102"><ele>262.66666666666663</ele><time>2026-03-29T10:00:40.668Z</time></trkpt><trkpt lat="43.3719877" lon="11.8558013"><ele>262.0</ele><time>2026-03-29T10:00:41.637Z</time></trkpt><trkpt lat="43.3718849" lon="11.8555911"><ele>262.0</ele><time>2026-03-29T10:00:42.658Z</time></trkpt><trkpt lat="43.3717915" lon="11.8553859"><ele>262.0</ele><time>2026-03-29T10:00:43.638Z</time></trkpt><trkpt lat="43.3716908" lon="11.8551798"><ele>262.0</ele><time>2026-03-29T10:00:44.652Z</time></trkpt><trkpt lat="43.3715959" lon="11.8549757"><ele>261.3333333333333</ele><time>2026-03-29T10:00:45.653Z</time></trkpt><trkpt lat="43.3715002" lon="11.8547713"><ele>260.6666666666667</ele><time>2026-03-29T10:00:46.643Z</time></trkpt><trkpt lat="43.3713966" lon="11.8545768"><ele>260.0</ele><time>2026-03-29T10:00:47.634Z</time></trkpt><trkpt lat="43.3712884" lon="11.8543757"><ele>260.0</ele><time>2026-03-29T10:00:48.637Z</time></trkpt><trkpt lat="43.3711762" lon="11.8541601"><ele>260.0</ele><time>2026-03-29T10:00:49.684Z</time></trkpt><trkpt lat="43.371072" lon="11.8539518"><ele>260.0</ele><time>2026-03-29T10:00:50.692Z</time></trkpt><trkpt lat="43.3709375" lon="11.8536876"><ele>259.33333333333337</ele><time>2026-03-29T10:00:51.998Z</time></trkpt><trkpt lat="43.3707912" lon="11.8533616"><ele>258.6666666666667</ele><time>2026-03-29T10:00:53.696Z</time></trkpt><trkpt lat="43.3706981" lon="11.8531723"><ele>258.0</ele><time>2026-03-29T10:00:54.697Z</time></trkpt><trkpt lat="43.3705887" lon="11.8530109"><ele>258.3333333333333</ele><time>2026-03-29T10:00:55.698Z</time></trkpt><trkpt lat="43.3704686" lon="11.8528551"><ele>258.66666666666663</ele><time>2026-03-29T10:00:56.741Z</time></trkpt><trkpt lat="43.3703519" lon="11.8527328"><ele>259.0</ele><time>2026-03-29T10:00:57.684Z</time></trkpt><trkpt lat="43.3702128" lon="11.8526393"><ele>258.3333333333333</ele><time>2026-03-29T10:00:58.656Z</time></trkpt><trkpt lat="43.3700609" lon="11.8525606"><ele>257.6666666666667</ele><time>2026-03-29T10:00:59.64Z</time></trkpt><trkpt lat="43.3698888" lon="11.8525312"><ele>257.0</ele><time>2026-03-29T10:01:00.652Z</time></trkpt><trkpt lat="43.3696937" lon="11.8525434"><ele>257.0</ele><time>2026-03-29T10:01:01.644Z</time></trkpt><trkpt lat="43.3695032" lon="11.8525536"><ele>257.0</ele><time>2026-03-29T10:01:02.636Z</time></trkpt><trkpt lat="43.369282" lon="11.8525965"><ele>257.0</ele><time>2026-03-29T10:01:03.682Z</time></trkpt><trkpt lat="43.3690713" lon="11.8526392"><ele>256.6666666666667</ele><time>2026-03-29T10:01:04.638Z</time></trkpt><trkpt lat="43.3688584" lon="11.8526614"><ele>256.3333333333333</ele><time>2026-03-29T10:01:05.632Z</time></trkpt><trkpt lat="43.3686421" lon="11.8526684"><ele>256.0</ele><time>2026-03-29T10:01:06.657Z</time></trkpt><trkpt lat="43.3684298" lon="11.8526684"><ele>256.0</ele><time>2026-03-29T10:01:07.644Z</time></trkpt><trkpt lat="43.368208" lon="11.8526666"><ele>256.0</ele><time>2026-03-29T10:01:08.653Z</time></trkpt><trkpt lat="43.3679985" lon="11.8526729"><ele>256.0</ele><time>2026-03-29T10:01:09.658Z</time></trkpt><trkpt lat="43.3677944" lon="11.8526856"><ele>256.66666666666663</ele><time>2026-03-29T10:01:10.667Z</time></trkpt><trkpt lat="43.3676068" lon="11.852696"><ele>257.3333333333333</ele><time>2026-03-29T10:01:11.641Z</time></trkpt><trkpt lat="43.3674213" lon="11.8527049"><ele>258.0</ele><time>2026-03-29T10:01:12.646Z</time></trkpt><trkpt lat="43.3672456" lon="11.8527168"><ele>257.6666666666667</ele><time>2026-03-29T10:01:13.651Z</time></trkpt><trkpt lat="43.3670808" lon="11.8527204"><ele>257.33333333333337</ele><time>2026-03-29T10:01:14.646Z</time></trkpt><trkpt lat="43.3669264" lon="11.8527155"><ele>257.0</ele><time>2026-03-29T10:01:15.658Z</time></trkpt><trkpt lat="43.3667787" lon="11.8526987"><ele>257.0</ele><time>2026-03-29T10:01:16.642Z</time></trkpt><trkpt lat="43.366624" lon="11.8526557"><ele>257.0</ele><time>2026-03-29T10:01:17.646Z</time></trkpt><trkpt lat="43.3664735" lon="11.8525738"><ele>257.0</ele><time>2026-03-29T10:01:18.645Z</time></trkpt><trkpt lat="43.3663372" lon="11.8524595"><ele>256.33333333333337</ele><time>2026-03-29T10:01:19.634Z</time></trkpt><trkpt lat="43.3661967" lon="11.8522862"><ele>255.66666666666669</ele><time>2026-03-29T10:01:20.688Z</time></trkpt><trkpt lat="43.3660102" lon="11.8520928"><ele>255.0</ele><time>2026-03-29T10:01:22.006Z</time></trkpt><trkpt lat="43.3658288" lon="11.8516601"><ele>254.66666666666669</ele><time>2026-03-29T10:01:23.731Z</time></trkpt><trkpt lat="43.3657049" lon="11.8514672"><ele>254.33333333333334</ele><time>2026-03-29T10:01:24.691Z</time></trkpt><trkpt lat="43.3655805" lon="11.8512684"><ele>254.0</ele><time>2026-03-29T10:01:25.697Z</time></trkpt><trkpt lat="43.365457" lon="11.8510766"><ele>253.33333333333334</ele><time>2026-03-29T10:01:26.7Z</time></trkpt><trkpt lat="43.365341" lon="11.8508991"><ele>252.66666666666669</ele><time>2026-03-29T10:01:27.639Z</time></trkpt><trkpt lat="43.3652209" lon="11.8507144"><ele>252.0</ele><time>2026-03-29T10:01:28.647Z</time></trkpt><trkpt lat="43.3651012" lon="11.8505282"><ele>252.0</ele><time>2026-03-29T10:01:29.648Z</time></trkpt><trkpt lat="43.3649769" lon="11.8503369"><ele>252.0</ele><time>2026-03-29T10:01:30.688Z</time></trkpt><trkpt lat="43.3648568" lon="11.8501507"><ele>252.0</ele><time>2026-03-29T10:01:31.665Z</time></trkpt><trkpt lat="43.3647376" lon="11.8499631"><ele>251.66666666666669</ele><time>2026-03-29T10:01:32.647Z</time></trkpt><trkpt lat="43.3646121" lon="11.8497725"><ele>251.33333333333334</ele><time>2026-03-29T10:01:33.644Z</time></trkpt><trkpt lat="43.3644858" lon="11.8495871"><ele>251.0</ele><time>2026-03-29T10:01:34.644Z</time></trkpt><trkpt lat="43.3643591" lon="11.8493984"><ele>250.66666666666669</ele><time>2026-03-29T10:01:35.656Z</time></trkpt><trkpt lat="43.3642366" lon="11.8492223"><ele>250.33333333333331</ele><time>2026-03-29T10:01:36.647Z</time></trkpt><trkpt lat="43.364115" lon="11.849037"><ele>250.0</ele><time>2026-03-29T10:01:37.675Z</time></trkpt><trkpt lat="43.3639991" lon="11.848854"><ele>250.0</ele><time>2026-03-29T10:01:38.655Z</time></trkpt><trkpt lat="43.3638777" lon="11.8486719"><ele>250.0</ele><time>2026-03-29T10:01:39.641Z</time></trkpt><trkpt lat="43.3637517" lon="11.8484854"><ele>250.0</ele><time>2026-03-29T10:01:40.646Z</time></trkpt><trkpt lat="43.3636277" lon="11.8483007"><ele>249.66666666666666</ele><time>2026-03-29T10:01:41.635Z</time></trkpt><trkpt lat="43.3635035" lon="11.8481027"><ele>249.33333333333331</ele><time>2026-03-29T10:01:42.684Z</time></trkpt><trkpt lat="43.3633915" lon="11.8479275"><ele>249.0</ele><time>2026-03-29T10:01:43.656Z</time></trkpt><trkpt lat="43.3632768" lon="11.8477504"><ele>249.0</ele><time>2026-03-29T10:01:44.636Z</time></trkpt><trkpt lat="43.3631558" lon="11.8475742"><ele>249.0</ele><time>2026-03-29T10:01:45.645Z</time></trkpt><trkpt lat="43.3630291" lon="11.8473933"><ele>249.0</ele><time>2026-03-29T10:01:46.648Z</time></trkpt><trkpt lat="43.3629026" lon="11.8472086"><ele>248.66666666666669</ele><time>2026-03-29T10:01:47.653Z</time></trkpt><trkpt lat="43.3627816" lon="11.8470207"><ele>248.33333333333334</ele><time>2026-03-29T10:01:48.675Z</time></trkpt><trkpt lat="43.3626625" lon="11.8468351"><ele>248.0</ele><time>2026-03-29T10:01:49.647Z</time></trkpt><trkpt lat="43.3625378" lon="11.8466406"><ele>248.0</ele><time>2026-03-29T10:01:50.647Z</time></trkpt><trkpt lat="43.3624075" lon="11.8464395"><ele>248.0</ele><time>2026-03-29T10:01:51.648Z</time></trkpt><trkpt lat="43.3622748" lon="11.8462379"><ele>248.0</ele><time>2026-03-29T10:01:52.642Z</time></trkpt><trkpt lat="43.3621345" lon="11.8460338"><ele>248.0</ele><time>2026-03-29T10:01:53.662Z</time></trkpt><trkpt lat="43.3619938" lon="11.8458255"><ele>248.0</ele><time>2026-03-29T10:01:54.666Z</time></trkpt><trkpt lat="43.3618482" lon="11.8456111"><ele>248.0</ele><time>2026-03-29T10:01:55.686Z</time></trkpt><trkpt lat="43.361713" lon="11.8453969"><ele>248.0</ele><time>2026-03-29T10:01:56.656Z</time></trkpt><trkpt lat="43.3615775" lon="11.8451843"><ele>248.0</ele><time>2026-03-29T10:01:57.65Z</time></trkpt><trkpt lat="43.3614371" lon="11.8449728"><ele>248.0</ele><time>2026-03-29T10:01:58.658Z</time></trkpt><trkpt lat="43.3613012" lon="11.8447697"><ele>248.0</ele><time>2026-03-29T10:01:59.641Z</time></trkpt><trkpt lat="43.3611593" lon="11.8445589"><ele>248.0</ele><time>2026-03-29T10:02:00.655Z</time></trkpt><trkpt lat="43.3610152" lon="11.8443478"><ele>248.0</ele><time>2026-03-29T10:02:01.655Z</time></trkpt><trkpt lat="43.3608839" lon="11.8441442"><ele>248.33333333333334</ele><time>2026-03-29T10:02:02.637Z</time></trkpt><trkpt lat="43.3607439" lon="11.8439365"><ele>248.66666666666669</ele><time>2026-03-29T10:02:03.662Z</time></trkpt><trkpt lat="43.3606197" lon="11.8437374"><ele>249.0</ele><time>2026-03-29T10:02:04.631Z</time></trkpt><trkpt lat="43.3604869" lon="11.8435289"><ele>248.66666666666669</ele><time>2026-03-29T10:02:05.653Z</time></trkpt><trkpt lat="43.3603578" lon="11.843324"><ele>248.33333333333334</ele><time>2026-03-29T10:02:06.654Z</time></trkpt><trkpt lat="43.3602263" lon="11.8431252"><ele>248.0</ele><time>2026-03-29T10:02:07.652Z</time></trkpt><trkpt lat="43.3600933" lon="11.8429215"><ele>248.0</ele><time>2026-03-29T10:02:08.643Z</time></trkpt><trkpt lat="43.35996" lon="11.8427134"><ele>248.0</ele><time>2026-03-29T10:02:09.65Z</time></trkpt><trkpt lat="43.3598198" lon="11.8424892"><ele>248.0</ele><time>2026-03-29T10:02:10.697Z</time></trkpt><trkpt lat="43.3597022" lon="11.8422775"><ele>247.66666666666669</ele><time>2026-03-29T10:02:11.642Z</time></trkpt><trkpt lat="43.3595896" lon="11.8420439"><ele>247.33333333333331</ele><time>2026-03-29T10:02:12.644Z</time></trkpt><trkpt lat="43.3594888" lon="11.841798"><ele>247.0</ele><time>2026-03-29T10:02:13.661Z</time></trkpt><trkpt lat="43.3593983" lon="11.8415527"><ele>246.33333333333331</ele><time>2026-03-29T10:02:14.63Z</time></trkpt><trkpt lat="43.3593048" lon="11.8412874"><ele>245.66666666666669</ele><time>2026-03-29T10:02:15.683Z</time></trkpt><trkpt lat="43.3592212" lon="11.8410521"><ele>245.0</ele><time>2026-03-29T10:02:16.643Z</time></trkpt><trkpt lat="43.3591386" lon="11.8408239"><ele>244.66666666666669</ele><time>2026-03-29T10:02:17.643Z</time></trkpt><trkpt lat="43.3590527" lon="11.8406052"><ele>244.33333333333331</ele><time>2026-03-29T10:02:18.648Z</time></trkpt><trkpt lat="43.3589722" lon="11.8403967"><ele>244.0</ele><time>2026-03-29T10:02:19.643Z</time></trkpt><trkpt lat="43.3588854" lon="11.8402007"><ele>244.66666666666666</ele><time>2026-03-29T10:02:20.655Z</time></trkpt><trkpt lat="43.358791" lon="11.8400258"><ele>245.33333333333331</ele><time>2026-03-29T10:02:21.648Z</time></trkpt><trkpt lat="43.3586714" lon="11.8398691"><ele>246.0</ele><time>2026-03-29T10:02:22.673Z</time></trkpt><trkpt lat="43.3585414" lon="11.8397419"><ele>246.0</ele><time>2026-03-29T10:02:23.653Z</time></trkpt><trkpt lat="43.3583975" lon="11.8396324"><ele>246.0</ele><time>2026-03-29T10:02:24.673Z</time></trkpt><trkpt lat="43.3582324" lon="11.8395675"><ele>246.0</ele><time>2026-03-29T10:02:25.654Z</time></trkpt><trkpt lat="43.3580478" lon="11.8395238"><ele>246.66666666666669</ele><time>2026-03-29T10:02:26.637Z</time></trkpt><trkpt lat="43.3578761" lon="11.8394925"><ele>247.33333333333334</ele><time>2026-03-29T10:02:27.636Z</time></trkpt><trkpt lat="43.3577026" lon="11.8394792"><ele>248.0</ele><time>2026-03-29T10:02:28.646Z</time></trkpt><trkpt lat="43.3575279" lon="11.8395207"><ele>248.0</ele><time>2026-03-29T10:02:29.659Z</time></trkpt><trkpt lat="43.3573672" lon="11.8395831"><ele>248.0</ele><time>2026-03-29T10:02:30.637Z</time></trkpt><trkpt lat="43.3572212" lon="11.8396846"><ele>248.0</ele><time>2026-03-29T10:02:31.654Z</time></trkpt><trkpt lat="43.3570983" lon="11.8398032"><ele>248.33333333333334</ele><time>2026-03-29T10:02:32.641Z</time></trkpt><trkpt lat="43.3569527" lon="11.8399416"><ele>248.66666666666669</ele><time>2026-03-29T10:02:33.644Z</time></trkpt><trkpt lat="43.3568059" lon="11.8400616"><ele>249.0</ele><time>2026-03-29T10:02:34.671Z</time></trkpt><trkpt lat="43.3566504" lon="11.840149"><ele>249.33333333333331</ele><time>2026-03-29T10:02:35.664Z</time></trkpt><trkpt lat="43.3564886" lon="11.8401955"><ele>249.66666666666666</ele><time>2026-03-29T10:02:36.656Z</time></trkpt><trkpt lat="43.3563203" lon="11.8402237"><ele>250.0</ele><time>2026-03-29T10:02:37.648Z</time></trkpt><trkpt lat="43.3561306" lon="11.8402084"><ele>250.33333333333331</ele><time>2026-03-29T10:02:38.656Z</time></trkpt><trkpt lat="43.3559545" lon="11.8401788"><ele>250.66666666666669</ele><time>2026-03-29T10:02:39.663Z</time></trkpt><trkpt lat="43.3557864" lon="11.8401324"><ele>251.0</ele><time>2026-03-29T10:02:40.634Z</time></trkpt><trkpt lat="43.3556066" lon="11.8400742"><ele>250.0</ele><time>2026-03-29T10:02:41.653Z</time></trkpt><trkpt lat="43.3554273" lon="11.8399963"><ele>249.0</ele><time>2026-03-29T10:02:42.653Z</time></trkpt><trkpt lat="43.3552642" lon="11.8399332"><ele>248.0</ele><time>2026-03-29T10:02:43.639Z</time></trkpt><trkpt lat="43.3550903" lon="11.8398682"><ele>248.0</ele><time>2026-03-29T10:02:44.676Z</time></trkpt><trkpt lat="43.3549286" lon="11.8398146"><ele>248.0</ele><time>2026-03-29T10:02:45.64Z</time></trkpt><trkpt lat="43.3547658" lon="11.8397633"><ele>248.0</ele><time>2026-03-29T10:02:46.652Z</time></trkpt><trkpt lat="43.3546136" lon="11.8397139"><ele>248.75</ele><time>2026-03-29T10:02:47.649Z</time></trkpt><trkpt lat="43.3544701" lon="11.8396695"><ele>249.5</ele><time>2026-03-29T10:02:48.643Z</time></trkpt><trkpt lat="43.3543298" lon="11.8396214"><ele>250.25</ele><time>2026-03-29T10:02:49.659Z</time></trkpt><trkpt lat="43.3541908" lon="11.8395737"><ele>251.0</ele><time>2026-03-29T10:02:50.65Z</time></trkpt><trkpt lat="43.3540545" lon="11.8395132"><ele>251.0</ele><time>2026-03-29T10:02:51.665Z</time></trkpt><trkpt lat="43.3539318" lon="11.8394287"><ele>251.0</ele><time>2026-03-29T10:02:52.643Z</time></trkpt><trkpt lat="43.3538073" lon="11.8393161"><ele>251.0</ele><time>2026-03-29T10:02:53.646Z</time></trkpt><trkpt lat="43.3536844" lon="11.8391776"><ele>251.0</ele><time>2026-03-29T10:02:54.642Z</time></trkpt><trkpt lat="43.3535426" lon="11.8389818"><ele>250.33333333333334</ele><time>2026-03-29T10:02:55.657Z</time></trkpt><trkpt lat="43.3534516" lon="11.8387657"><ele>249.66666666666669</ele><time>2026-03-29T10:02:56.653Z</time></trkpt><trkpt lat="43.3533793" lon="11.838513"><ele>249.0</ele><time>2026-03-29T10:02:57.638Z</time></trkpt><trkpt lat="43.3533366" lon="11.8382606"><ele>248.0</ele><time>2026-03-29T10:02:58.635Z</time></trkpt><trkpt lat="43.3533138" lon="11.8380104"><ele>247.0</ele><time>2026-03-29T10:02:59.664Z</time></trkpt><trkpt lat="43.3532996" lon="11.8377804"><ele>246.0</ele><time>2026-03-29T10:03:00.639Z</time></trkpt><trkpt lat="43.3532899" lon="11.8375175"><ele>245.66666666666669</ele><time>2026-03-29T10:03:01.654Z</time></trkpt><trkpt lat="43.3532786" lon="11.8372437"><ele>245.33333333333334</ele><time>2026-03-29T10:03:02.64Z</time></trkpt><trkpt lat="43.3532579" lon="11.8369617"><ele>245.0</ele><time>2026-03-29T10:03:03.638Z</time></trkpt><trkpt lat="43.3532309" lon="11.8366828"><ele>244.66666666666669</ele><time>2026-03-29T10:03:04.644Z</time></trkpt><trkpt lat="43.3531974" lon="11.836401"><ele>244.33333333333331</ele><time>2026-03-29T10:03:05.645Z</time></trkpt><trkpt lat="43.3531673" lon="11.8361073"><ele>244.0</ele><time>2026-03-29T10:03:06.651Z</time></trkpt><trkpt lat="43.3531387" lon="11.8358066"><ele>244.0</ele><time>2026-03-29T10:03:07.647Z</time></trkpt><trkpt lat="43.3531053" lon="11.8354896"><ele>244.0</ele><time>2026-03-29T10:03:08.642Z</time></trkpt><trkpt lat="43.3530693" lon="11.8351521"><ele>244.0</ele><time>2026-03-29T10:03:09.675Z</time></trkpt><trkpt lat="43.3530338" lon="11.8348174"><ele>244.0</ele><time>2026-03-29T10:03:10.649Z</time></trkpt><trkpt lat="43.3530041" lon="11.8344674"><ele>243.5</ele><time>2026-03-29T10:03:11.658Z</time></trkpt><trkpt lat="43.3529726" lon="11.8341069"><ele>243.0</ele><time>2026-03-29T10:03:12.667Z</time></trkpt><trkpt lat="43.3529403" lon="11.8337439"><ele>243.5</ele><time>2026-03-29T10:03:13.639Z</time></trkpt><trkpt lat="43.352907" lon="11.8333666"><ele>244.0</ele><time>2026-03-29T10:03:14.647Z</time></trkpt><trkpt lat="43.3528652" lon="11.8329824"><ele>243.0</ele><time>2026-03-29T10:03:15.651Z</time></trkpt><trkpt lat="43.3528226" lon="11.8325942"><ele>242.0</ele><time>2026-03-29T10:03:16.648Z</time></trkpt><trkpt lat="43.3527854" lon="11.8322088"><ele>241.5</ele><time>2026-03-29T10:03:17.643Z</time></trkpt><trkpt lat="43.3527437" lon="11.8318051"><ele>241.0</ele><time>2026-03-29T10:03:18.646Z</time></trkpt><trkpt lat="43.352708" lon="11.831403"><ele>241.0</ele><time>2026-03-29T10:03:19.641Z</time></trkpt><trkpt lat="43.35267" lon="11.8309913"><ele>241.0</ele><time>2026-03-29T10:03:20.674Z</time></trkpt><trkpt lat="43.3526302" lon="11.8306032"><ele>241.5</ele><time>2026-03-29T10:03:21.643Z</time></trkpt><trkpt lat="43.3525913" lon="11.830212"><ele>242.0</ele><time>2026-03-29T10:03:22.64Z</time></trkpt><trkpt lat="43.3525485" lon="11.8298134"><ele>242.0</ele><time>2026-03-29T10:03:23.663Z</time></trkpt><trkpt lat="43.3525175" lon="11.8294424"><ele>242.0</ele><time>2026-03-29T10:03:24.656Z</time></trkpt><trkpt lat="43.3524903" lon="11.8290769"><ele>242.0</ele><time>2026-03-29T10:03:25.669Z</time></trkpt><trkpt lat="43.3524584" lon="11.8287467"><ele>242.0</ele><time>2026-03-29T10:03:26.658Z</time></trkpt><trkpt lat="43.3524284" lon="11.8284259"><ele>242.0</ele><time>2026-03-29T10:03:27.647Z</time></trkpt><trkpt lat="43.3523973" lon="11.8281192"><ele>242.0</ele><time>2026-03-29T10:03:28.642Z</time></trkpt><trkpt lat="43.3523675" lon="11.8278308"><ele>242.0</ele><time>2026-03-29T10:03:29.643Z</time></trkpt><trkpt lat="43.3523368" lon="11.8275352"><ele>242.0</ele><time>2026-03-29T10:03:30.681Z</time></trkpt><trkpt lat="43.3523112" lon="11.8272738"><ele>242.0</ele><time>2026-03-29T10:03:31.655Z</time></trkpt><trkpt lat="43.3522887" lon="11.8270122"><ele>242.0</ele><time>2026-03-29T10:03:32.655Z</time></trkpt><trkpt lat="43.3522684" lon="11.8267491"><ele>241.66666666666669</ele><time>2026-03-29T10:03:33.656Z</time></trkpt><trkpt lat="43.3522447" lon="11.8264911"><ele>241.33333333333331</ele><time>2026-03-29T10:03:34.672Z</time></trkpt><trkpt lat="43.3522207" lon="11.8262462"><ele>241.0</ele><time>2026-03-29T10:03:35.648Z</time></trkpt><trkpt lat="43.3521942" lon="11.8259827"><ele>242.0</ele><time>2026-03-29T10:03:36.673Z</time></trkpt><trkpt lat="43.3521687" lon="11.8257322"><ele>243.0</ele><time>2026-03-29T10:03:37.641Z</time></trkpt><trkpt lat="43.3521423" lon="11.8254654"><ele>244.0</ele><time>2026-03-29T10:03:38.64Z</time></trkpt><trkpt lat="43.3521128" lon="11.8251913"><ele>244.0</ele><time>2026-03-29T10:03:39.65Z</time></trkpt><trkpt lat="43.3520894" lon="11.8249218"><ele>244.0</ele><time>2026-03-29T10:03:40.653Z</time></trkpt><trkpt lat="43.3520646" lon="11.8246581"><ele>244.0</ele><time>2026-03-29T10:03:41.646Z</time></trkpt><trkpt lat="43.352037" lon="11.8243959"><ele>243.33333333333331</ele><time>2026-03-29T10:03:42.666Z</time></trkpt><trkpt lat="43.3520128" lon="11.824146"><ele>242.66666666666669</ele><time>2026-03-29T10:03:43.647Z</time></trkpt><trkpt lat="43.3519848" lon="11.8238901"><ele>242.0</ele><time>2026-03-29T10:03:44.653Z</time></trkpt><trkpt lat="43.3519644" lon="11.8236341"><ele>242.33333333333334</ele><time>2026-03-29T10:03:45.644Z</time></trkpt><trkpt lat="43.3519428" lon="11.8233742"><ele>242.66666666666669</ele><time>2026-03-29T10:03:46.641Z</time></trkpt><trkpt lat="43.3519191" lon="11.8230996"><ele>243.0</ele><time>2026-03-29T10:03:47.651Z</time></trkpt><trkpt lat="43.3518889" lon="11.8228125"><ele>244.0</ele><time>2026-03-29T10:03:48.649Z</time></trkpt><trkpt lat="43.3518532" lon="11.8224943"><ele>245.0</ele><time>2026-03-29T10:03:49.669Z</time></trkpt><trkpt lat="43.3518228" lon="11.8221763"><ele>245.0</ele><time>2026-03-29T10:03:50.646Z</time></trkpt><trkpt lat="43.3517932" lon="11.8218589"><ele>245.0</ele><time>2026-03-29T10:03:51.638Z</time></trkpt><trkpt lat="43.3517642" lon="11.8215341"><ele>245.0</ele><time>2026-03-29T10:03:52.654Z</time></trkpt><trkpt lat="43.3517367" lon="11.8212057"><ele>245.0</ele><time>2026-03-29T10:03:53.648Z</time></trkpt><trkpt lat="43.3517061" lon="11.8208691"><ele>244.5</ele><time>2026-03-29T10:03:54.648Z</time></trkpt><trkpt lat="43.3516621" lon="11.8205145"><ele>244.0</ele><time>2026-03-29T10:03:55.661Z</time></trkpt><trkpt lat="43.3516199" lon="11.820153"><ele>243.5</ele><time>2026-03-29T10:03:56.637Z</time></trkpt><trkpt lat="43.3515773" lon="11.8197599"><ele>243.0</ele><time>2026-03-29T10:03:57.664Z</time></trkpt><trkpt lat="43.3515315" lon="11.8193675"><ele>243.5</ele><time>2026-03-29T10:03:58.669Z</time></trkpt><trkpt lat="43.3514899" lon="11.8189833"><ele>244.0</ele><time>2026-03-29T10:03:59.658Z</time></trkpt><trkpt lat="43.3514559" lon="11.8186211"><ele>245.0</ele><time>2026-03-29T10:04:00.671Z</time></trkpt><trkpt lat="43.351433" lon="11.8182907"><ele>246.0</ele><time>2026-03-29T10:04:01.647Z</time></trkpt><trkpt lat="43.3514142" lon="11.8179675"><ele>246.0</ele><time>2026-03-29T10:04:02.656Z</time></trkpt><trkpt lat="43.3513934" lon="11.8176627"><ele>246.0</ele><time>2026-03-29T10:04:03.645Z</time></trkpt><trkpt lat="43.351368" lon="11.8173521"><ele>245.66666666666669</ele><time>2026-03-29T10:04:04.656Z</time></trkpt><trkpt lat="43.3513414" lon="11.8170633"><ele>245.33333333333334</ele><time>2026-03-29T10:04:05.649Z</time></trkpt><trkpt lat="43.3513164" lon="11.8167891"><ele>245.0</ele><time>2026-03-29T10:04:06.642Z</time></trkpt><trkpt lat="43.3512901" lon="11.8165173"><ele>245.0</ele><time>2026-03-29T10:04:07.636Z</time></trkpt><trkpt lat="43.3512657" lon="11.8162484"><ele>245.0</ele><time>2026-03-29T10:04:08.647Z</time></trkpt><trkpt lat="43.3512366" lon="11.8159861"><ele>245.0</ele><time>2026-03-29T10:04:09.648Z</time></trkpt><trkpt lat="43.3512099" lon="11.815732"><ele>245.0</ele><time>2026-03-29T10:04:10.673Z</time></trkpt><trkpt lat="43.3511856" lon="11.8155022"><ele>245.0</ele><time>2026-03-29T10:04:11.641Z</time></trkpt><trkpt lat="43.3511642" lon="11.815277"><ele>245.0</ele><time>2026-03-29T10:04:12.644Z</time></trkpt><trkpt lat="43.3511394" lon="11.8150558"><ele>245.0</ele><time>2026-03-29T10:04:13.649Z</time></trkpt><trkpt lat="43.3511239" lon="11.8148517"><ele>245.0</ele><time>2026-03-29T10:04:14.662Z</time></trkpt><trkpt lat="43.3511106" lon="11.814671"><ele>245.0</ele><time>2026-03-29T10:04:15.65Z</time></trkpt><trkpt lat="43.351096" lon="11.8144989"><ele>245.0</ele><time>2026-03-29T10:04:16.677Z</time></trkpt><trkpt lat="43.3510857" lon="11.8143495"><ele>245.25</ele><time>2026-03-29T10:04:17.641Z</time></trkpt><trkpt lat="43.3510693" lon="11.8141839"><ele>245.5</ele><time>2026-03-29T10:04:18.651Z</time></trkpt><trkpt lat="43.3510507" lon="11.8140216"><ele>245.75</ele><time>2026-03-29T10:04:19.655Z</time></trkpt><trkpt lat="43.3510307" lon="11.8138587"><ele>246.0</ele><time>2026-03-29T10:04:20.64Z</time></trkpt><trkpt lat="43.3510112" lon="11.8136947"><ele>246.0</ele><time>2026-03-29T10:04:21.64Z</time></trkpt><trkpt lat="43.3509948" lon="11.8135289"><ele>246.0</ele><time>2026-03-29T10:04:22.641Z</time></trkpt><trkpt lat="43.3509824" lon="11.8133651"><ele>246.0</ele><time>2026-03-29T10:04:23.64Z</time></trkpt><trkpt lat="43.3509728" lon="11.8132003"><ele>246.0</ele><time>2026-03-29T10:04:24.632Z</time></trkpt><trkpt lat="43.3509622" lon="11.8130398"><ele>246.4</ele><time>2026-03-29T10:04:25.649Z</time></trkpt><trkpt lat="43.3509493" lon="11.8128859"><ele>246.8</ele><time>2026-03-29T10:04:26.635Z</time></trkpt><trkpt lat="43.3509288" lon="11.8127448"><ele>247.20000000000002</ele><time>2026-03-29T10:04:27.647Z</time></trkpt><trkpt lat="43.3509123" lon="11.8125961"><ele>247.60000000000002</ele><time>2026-03-29T10:04:28.642Z</time></trkpt><trkpt lat="43.3508983" lon="11.8124421"><ele>248.0</ele><time>2026-03-29T10:04:29.65Z</time></trkpt><trkpt lat="43.3508851" lon="11.8123026"><ele>248.16666666666669</ele><time>2026-03-29T10:04:30.657Z</time></trkpt><trkpt lat="43.3508726" lon="11.8121724"><ele>248.33333333333334</ele><time>2026-03-29T10:04:31.655Z</time></trkpt><trkpt lat="43.3508613" lon="11.8120548"><ele>248.5</ele><time>2026-03-29T10:04:32.648Z</time></trkpt><trkpt lat="43.3508509" lon="11.811946"><ele>248.66666666666669</ele><time>2026-03-29T10:04:33.663Z</time></trkpt><trkpt lat="43.3508408" lon="11.8118515"><ele>248.83333333333334</ele><time>2026-03-29T10:04:34.65Z</time></trkpt><trkpt lat="43.3508311" lon="11.8117607"><ele>249.0</ele><time>2026-03-29T10:04:35.651Z</time></trkpt><trkpt lat="43.3508231" lon="11.8116687"><ele>249.14285714285714</ele><time>2026-03-29T10:04:36.654Z</time></trkpt><trkpt lat="43.3508136" lon="11.811578"><ele>249.28571428571428</ele><time>2026-03-29T10:04:37.644Z</time></trkpt><trkpt lat="43.3508019" lon="11.8114847"><ele>249.42857142857142</ele><time>2026-03-29T10:04:38.642Z</time></trkpt><trkpt lat="43.3507928" lon="11.8113817"><ele>249.57142857142856</ele><time>2026-03-29T10:04:39.645Z</time></trkpt><trkpt lat="43.3507905" lon="11.8112812"><ele>249.71428571428572</ele><time>2026-03-29T10:04:40.65Z</time></trkpt><trkpt lat="43.3508079" lon="11.8111729"><ele>249.85714285714283</ele><time>2026-03-29T10:04:41.635Z</time></trkpt><trkpt lat="43.3508453" lon="11.8110973"><ele>250.0</ele><time>2026-03-29T10:04:42.639Z</time></trkpt><trkpt lat="43.3509092" lon="11.811033"><ele>250.0</ele><time>2026-03-29T10:04:43.666Z</time></trkpt><trkpt lat="43.3509682" lon="11.8109952"><ele>250.0</ele><time>2026-03-29T10:04:44.644Z</time></trkpt><trkpt lat="43.3510526" lon="11.8109707"><ele>250.0</ele><time>2026-03-29T10:04:45.715Z</time></trkpt><trkpt lat="43.3511584" lon="11.8109293"><ele>250.0</ele><time>2026-03-29T10:04:46.665Z</time></trkpt><trkpt lat="43.3513339" lon="11.8108813"><ele>250.0</ele><time>2026-03-29T10:04:47.663Z</time></trkpt><trkpt lat="43.3515217" lon="11.8108356"><ele>250.0</ele><time>2026-03-29T10:04:48.654Z</time></trkpt><trkpt lat="43.3516947" lon="11.8107864"><ele>250.0</ele><time>2026-03-29T10:04:49.654Z</time></trkpt><trkpt lat="43.351907" lon="11.8107335"><ele>250.0</ele><time>2026-03-29T10:04:50.668Z</time></trkpt><trkpt lat="43.3521054" lon="11.8106936"><ele>249.0</ele><time>2026-03-29T10:04:51.686Z</time></trkpt><trkpt lat="43.3522756" lon="11.8106762"><ele>248.0</ele><time>2026-03-29T10:04:52.652Z</time></trkpt><trkpt lat="43.3524659" lon="11.8106432"><ele>247.0</ele><time>2026-03-29T10:04:53.671Z</time></trkpt><trkpt lat="43.3526151" lon="11.8106083"><ele>247.0</ele><time>2026-03-29T10:04:54.635Z</time></trkpt><trkpt lat="43.3527711" lon="11.8105796"><ele>247.0</ele><time>2026-03-29T10:04:55.67Z</time></trkpt><trkpt lat="43.3529151" lon="11.8105464"><ele>247.0</ele><time>2026-03-29T10:04:56.656Z</time></trkpt><trkpt lat="43.3530493" lon="11.8105099"><ele>247.0</ele><time>2026-03-29T10:04:57.64Z</time></trkpt><trkpt lat="43.3531814" lon="11.8104737"><ele>247.25</ele><time>2026-03-29T10:04:58.652Z</time></trkpt><trkpt lat="43.3533262" lon="11.8104393"><ele>247.5</ele><time>2026-03-29T10:04:59.666Z</time></trkpt><trkpt lat="43.35346" lon="11.8104086"><ele>247.75</ele><time>2026-03-29T10:05:00.676Z</time></trkpt><trkpt lat="43.3535802" lon="11.8103851"><ele>248.0</ele><time>2026-03-29T10:05:01.646Z</time></trkpt><trkpt lat="43.3537178" lon="11.8103611"><ele>248.0</ele><time>2026-03-29T10:05:02.66Z</time></trkpt><trkpt lat="43.3538583" lon="11.8103312"><ele>248.0</ele><time>2026-03-29T10:05:03.661Z</time></trkpt><trkpt lat="43.3540046" lon="11.8103014"><ele>248.0</ele><time>2026-03-29T10:05:04.645Z</time></trkpt><trkpt lat="43.3541528" lon="11.8102747"><ele>248.0</ele><time>2026-03-29T10:05:05.647Z</time></trkpt><trkpt lat="43.3543029" lon="11.8102452"><ele>248.66666666666669</ele><time>2026-03-29T10:05:06.658Z</time></trkpt><trkpt lat="43.3544521" lon="11.8102109"><ele>249.33333333333331</ele><time>2026-03-29T10:05:07.65Z</time></trkpt><trkpt lat="43.3546061" lon="11.8101763"><ele>250.0</ele><time>2026-03-29T10:05:08.651Z</time></trkpt><trkpt lat="43.3547589" lon="11.8101404"><ele>250.66666666666666</ele><time>2026-03-29T10:05:09.647Z</time></trkpt><trkpt lat="43.3549124" lon="11.8100965"><ele>251.33333333333331</ele><time>2026-03-29T10:05:10.645Z</time></trkpt><trkpt lat="43.3550644" lon="11.8100511"><ele>252.0</ele><time>2026-03-29T10:05:11.65Z</time></trkpt><trkpt lat="43.3552068" lon="11.8099971"><ele>252.0</ele><time>2026-03-29T10:05:12.689Z</time></trkpt><trkpt lat="43.3553151" lon="11.8099442"><ele>252.0</ele><time>2026-03-29T10:05:13.671Z</time></trkpt><trkpt lat="43.3554031" lon="11.8098982"><ele>252.0</ele><time>2026-03-29T10:05:14.649Z</time></trkpt><trkpt lat="43.3554763" lon="11.8098549"><ele>252.0</ele><time>2026-03-29T10:05:15.656Z</time></trkpt><trkpt lat="43.3555375" lon="11.8098142"><ele>252.0</ele><time>2026-03-29T10:05:16.669Z</time></trkpt><trkpt lat="43.3556416" lon="11.8097373"><ele>251.39999999999998</ele><time>2026-03-29T10:05:18.658Z</time></trkpt><trkpt lat="43.3557656" lon="11.8096555"><ele>250.79999999999998</ele><time>2026-03-29T10:05:20.652Z</time></trkpt><trkpt lat="43.3558349" lon="11.8096116"><ele>250.2</ele><time>2026-03-29T10:05:21.643Z</time></trkpt><trkpt lat="43.3559169" lon="11.8095618"><ele>249.6</ele><time>2026-03-29T10:05:22.67Z</time></trkpt><trkpt lat="43.3560079" lon="11.8095058"><ele>249.0</ele><time>2026-03-29T10:05:23.653Z</time></trkpt><trkpt lat="43.3561019" lon="11.8094455"><ele>249.0</ele><time>2026-03-29T10:05:24.644Z</time></trkpt><trkpt lat="43.3562016" lon="11.8093776"><ele>249.0</ele><time>2026-03-29T10:05:25.651Z</time></trkpt><trkpt lat="43.3563109" lon="11.8093069"><ele>249.0</ele><time>2026-03-29T10:05:26.65Z</time></trkpt><trkpt lat="43.356431" lon="11.8092277"><ele>249.0</ele><time>2026-03-29T10:05:27.661Z</time></trkpt><trkpt lat="43.3565615" lon="11.8091511"><ele>249.25</ele><time>2026-03-29T10:05:28.657Z</time></trkpt><trkpt lat="43.356696" lon="11.8090735"><ele>249.5</ele><time>2026-03-29T10:05:29.675Z</time></trkpt><trkpt lat="43.3568294" lon="11.808995"><ele>249.75</ele><time>2026-03-29T10:05:30.649Z</time></trkpt><trkpt lat="43.3569644" lon="11.8089115"><ele>250.0</ele><time>2026-03-29T10:05:31.65Z</time></trkpt><trkpt lat="43.3570999" lon="11.8088229"><ele>249.33333333333331</ele><time>2026-03-29T10:05:32.653Z</time></trkpt><trkpt lat="43.3572376" lon="11.8087414"><ele>248.66666666666669</ele><time>2026-03-29T10:05:33.647Z</time></trkpt><trkpt lat="43.3573774" lon="11.8086498"><ele>248.0</ele><time>2026-03-29T10:05:34.661Z</time></trkpt><trkpt lat="43.3575134" lon="11.8085702"><ele>248.66666666666669</ele><time>2026-03-29T10:05:35.65Z</time></trkpt><trkpt lat="43.357652" lon="11.8084839"><ele>249.33333333333331</ele><time>2026-03-29T10:05:36.656Z</time></trkpt><trkpt lat="43.3577911" lon="11.808414"><ele>250.0</ele><time>2026-03-29T10:05:37.666Z</time></trkpt><trkpt lat="43.3579484" lon="11.8083334"><ele>250.0</ele><time>2026-03-29T10:05:38.652Z</time></trkpt><trkpt lat="43.3581265" lon="11.8082496"><ele>250.0</ele><time>2026-03-29T10:05:39.675Z</time></trkpt><trkpt lat="43.3582889" lon="11.8081715"><ele>250.0</ele><time>2026-03-29T10:05:40.646Z</time></trkpt><trkpt lat="43.3584735" lon="11.8080855"><ele>250.0</ele><time>2026-03-29T10:05:41.682Z</time></trkpt><trkpt lat="43.3586551" lon="11.8080007"><ele>250.0</ele><time>2026-03-29T10:05:42.678Z</time></trkpt><trkpt lat="43.3587916" lon="11.807918"><ele>250.0</ele><time>2026-03-29T10:05:44.651Z</time></trkpt><trkpt lat="43.3589494" lon="11.8078321"><ele>249.66666666666666</ele><time>2026-03-29T10:05:45.644Z</time></trkpt><trkpt lat="43.3590501" lon="11.8077781"><ele>249.33333333333331</ele><time>2026-03-29T10:05:47.648Z</time></trkpt><trkpt lat="43.3591618" lon="11.8077303"><ele>249.0</ele><time>2026-03-29T10:05:48.653Z</time></trkpt><trkpt lat="43.3599344" lon="11.8076546"><ele>249.0</ele><time>2026-03-29T10:05:49.643Z</time></trkpt><trkpt lat="43.3601316" lon="11.8076285"><ele>249.0</ele><time>2026-03-29T10:05:50.643Z</time></trkpt><trkpt lat="43.3603265" lon="11.8076083"><ele>249.0</ele><time>2026-03-29T10:05:51.655Z</time></trkpt><trkpt lat="43.3605251" lon="11.8075798"><ele>248.33333333333331</ele><time>2026-03-29T10:05:52.674Z</time></trkpt><trkpt lat="43.3607131" lon="11.807554"><ele>247.66666666666666</ele><time>2026-03-29T10:05:53.675Z</time></trkpt><trkpt lat="43.360889" lon="11.8075307"><ele>247.0</ele><time>2026-03-29T10:05:54.674Z</time></trkpt><trkpt lat="43.3610532" lon="11.8075029"><ele>247.0</ele><time>2026-03-29T10:05:55.639Z</time></trkpt><trkpt lat="43.361226" lon="11.8074764"><ele>247.0</ele><time>2026-03-29T10:05:56.639Z</time></trkpt><trkpt lat="43.3613996" lon="11.807455"><ele>247.0</ele><time>2026-03-29T10:05:57.657Z</time></trkpt><trkpt lat="43.3615598" lon="11.807433"><ele>248.0</ele><time>2026-03-29T10:05:58.646Z</time></trkpt><trkpt lat="43.3617312" lon="11.8074113"><ele>249.0</ele><time>2026-03-29T10:05:59.648Z</time></trkpt><trkpt lat="43.3619033" lon="11.8073896"><ele>250.0</ele><time>2026-03-29T10:06:00.665Z</time></trkpt><trkpt lat="43.3620688" lon="11.8073697"><ele>249.33333333333331</ele><time>2026-03-29T10:06:01.636Z</time></trkpt><trkpt lat="43.3622309" lon="11.80735"><ele>248.66666666666669</ele><time>2026-03-29T10:06:02.653Z</time></trkpt><trkpt lat="43.3623946" lon="11.8073282"><ele>248.0</ele><time>2026-03-29T10:06:03.656Z</time></trkpt><trkpt lat="43.3625559" lon="11.8073062"><ele>248.0</ele><time>2026-03-29T10:06:04.651Z</time></trkpt><trkpt lat="43.3627124" lon="11.8072769"><ele>248.0</ele><time>2026-03-29T10:06:05.637Z</time></trkpt><trkpt lat="43.3628832" lon="11.8072443"><ele>248.0</ele><time>2026-03-29T10:06:06.65Z</time></trkpt><trkpt lat="43.3630568" lon="11.8072177"><ele>248.33333333333334</ele><time>2026-03-29T10:06:07.648Z</time></trkpt><trkpt lat="43.3632331" lon="11.8071911"><ele>248.66666666666669</ele><time>2026-03-29T10:06:08.646Z</time></trkpt><trkpt lat="43.3634024" lon="11.8071713"><ele>249.0</ele><time>2026-03-29T10:06:09.655Z</time></trkpt><trkpt lat="43.3635649" lon="11.807154"><ele>249.0</ele><time>2026-03-29T10:06:10.649Z</time></trkpt><trkpt lat="43.3637376" lon="11.8071299"><ele>249.0</ele><time>2026-03-29T10:06:11.698Z</time></trkpt><trkpt lat="43.3638986" lon="11.8071076"><ele>249.0</ele><time>2026-03-29T10:06:12.643Z</time></trkpt><trkpt lat="43.3640712" lon="11.8070835"><ele>249.66666666666669</ele><time>2026-03-29T10:06:13.664Z</time></trkpt><trkpt lat="43.3642412" lon="11.8070588"><ele>250.33333333333334</ele><time>2026-03-29T10:06:14.662Z</time></trkpt><trkpt lat="43.364422" lon="11.8070435"><ele>251.0</ele><time>2026-03-29T10:06:15.651Z</time></trkpt><trkpt lat="43.3645994" lon="11.8070368"><ele>251.0</ele><time>2026-03-29T10:06:16.669Z</time></trkpt><trkpt lat="43.3647597" lon="11.8070489"><ele>251.0</ele><time>2026-03-29T10:06:17.65Z</time></trkpt><trkpt lat="43.3648884" lon="11.8070712"><ele>251.0</ele><time>2026-03-29T10:06:18.639Z</time></trkpt><trkpt lat="43.36503" lon="11.8070954"><ele>251.0</ele><time>2026-03-29T10:06:19.646Z</time></trkpt><trkpt lat="43.365177" lon="11.8071255"><ele>251.0</ele><time>2026-03-29T10:06:20.649Z</time></trkpt><trkpt lat="43.3653184" lon="11.8071522"><ele>251.0</ele><time>2026-03-29T10:06:21.647Z</time></trkpt><trkpt lat="43.3654468" lon="11.8071944"><ele>251.0</ele><time>2026-03-29T10:06:22.647Z</time></trkpt><trkpt lat="43.3655676" lon="11.8072042"><ele>251.0</ele><time>2026-03-29T10:06:23.643Z</time></trkpt><trkpt lat="43.3656894" lon="11.8072344"><ele>251.0</ele><time>2026-03-29T10:06:24.643Z</time></trkpt><trkpt lat="43.3658045" lon="11.8072616"><ele>251.00000000000003</ele><time>2026-03-29T10:06:25.652Z</time></trkpt><trkpt lat="43.3659167" lon="11.8072873"><ele>251.00000000000003</ele><time>2026-03-29T10:06:26.652Z</time></trkpt><trkpt lat="43.3660129" lon="11.8073074"><ele>251.0</ele><time>2026-03-29T10:06:27.644Z</time></trkpt><trkpt lat="43.3661025" lon="11.8073254"><ele>251.0</ele><time>2026-03-29T10:06:28.655Z</time></trkpt><trkpt lat="43.3661784" lon="11.8073372"><ele>251.00000000000003</ele><time>2026-03-29T10:06:29.667Z</time></trkpt><trkpt lat="43.3662652" lon="11.807355"><ele>251.0</ele><time>2026-03-29T10:06:30.644Z</time></trkpt><trkpt lat="43.366352" lon="11.8073708"><ele>251.0</ele><time>2026-03-29T10:06:31.701Z</time></trkpt><trkpt lat="43.3664177" lon="11.8073799"><ele>251.0</ele><time>2026-03-29T10:06:32.663Z</time></trkpt><trkpt lat="43.3664865" lon="11.8073928"><ele>251.00000000000003</ele><time>2026-03-29T10:06:33.637Z</time></trkpt><trkpt lat="43.3665749" lon="11.8074188"><ele>251.0</ele><time>2026-03-29T10:06:35.655Z</time></trkpt><trkpt lat="43.3666422" lon="11.8074422"><ele>250.83333333333334</ele><time>2026-03-29T10:06:38.644Z</time></trkpt><trkpt lat="43.3666739" lon="11.8073361"><ele>250.66666666666669</ele><time>2026-03-29T10:06:42.685Z</time></trkpt><trkpt lat="43.3666737" lon="11.8072215"><ele>250.5</ele><time>2026-03-29T10:06:43.638Z</time></trkpt><trkpt lat="43.3666739" lon="11.807126"><ele>250.33333333333331</ele><time>2026-03-29T10:06:44.647Z</time></trkpt><trkpt lat="43.3666747" lon="11.8070154"><ele>250.16666666666666</ele><time>2026-03-29T10:06:45.639Z</time></trkpt><trkpt lat="43.3666705" lon="11.8068912"><ele>250.0</ele><time>2026-03-29T10:06:46.653Z</time></trkpt><trkpt lat="43.3666655" lon="11.8067607"><ele>250.5</ele><time>2026-03-29T10:06:47.644Z</time></trkpt><trkpt lat="43.366651" lon="11.8065993"><ele>251.0</ele><time>2026-03-29T10:06:48.651Z</time></trkpt><trkpt lat="43.3666379" lon="11.8064252"><ele>251.5</ele><time>2026-03-29T10:06:49.648Z</time></trkpt><trkpt lat="43.3666179" lon="11.8062113"><ele>252.0</ele><time>2026-03-29T10:06:50.65Z</time></trkpt><trkpt lat="43.3666019" lon="11.8060257"><ele>252.0</ele><time>2026-03-29T10:06:51.639Z</time></trkpt><trkpt lat="43.366587" lon="11.8058238"><ele>252.0</ele><time>2026-03-29T10:06:52.649Z</time></trkpt><trkpt lat="43.3665798" lon="11.8056324"><ele>252.0</ele><time>2026-03-29T10:06:53.653Z</time></trkpt><trkpt lat="43.3665777" lon="11.8054509"><ele>252.0</ele><time>2026-03-29T10:06:54.652Z</time></trkpt><trkpt lat="43.3665813" lon="11.8052664"><ele>252.0</ele><time>2026-03-29T10:06:55.665Z</time></trkpt><trkpt lat="43.3665859" lon="11.8050916"><ele>252.0</ele><time>2026-03-29T10:06:56.654Z</time></trkpt><trkpt lat="43.3665902" lon="11.8049223"><ele>252.0</ele><time>2026-03-29T10:06:57.658Z</time></trkpt><trkpt lat="43.3666061" lon="11.8047445"><ele>252.0</ele><time>2026-03-29T10:06:58.676Z</time></trkpt><trkpt lat="43.3666442" lon="11.804583"><ele>252.0</ele><time>2026-03-29T10:06:59.645Z</time></trkpt><trkpt lat="43.3667017" lon="11.804412"><ele>252.0</ele><time>2026-03-29T10:07:00.678Z</time></trkpt><trkpt lat="43.3667519" lon="11.8042615"><ele>252.0</ele><time>2026-03-29T10:07:01.646Z</time></trkpt><trkpt lat="43.3667905" lon="11.8041081"><ele>252.0</ele><time>2026-03-29T10:07:02.64Z</time></trkpt><trkpt lat="43.3668117" lon="11.803945"><ele>252.25</ele><time>2026-03-29T10:07:03.636Z</time></trkpt><trkpt lat="43.3668127" lon="11.8037731"><ele>252.5</ele><time>2026-03-29T10:07:04.667Z</time></trkpt><trkpt lat="43.3668059" lon="11.8036006"><ele>252.75</ele><time>2026-03-29T10:07:05.651Z</time></trkpt><trkpt lat="43.3668124" lon="11.8034194"><ele>253.0</ele><time>2026-03-29T10:07:06.641Z</time></trkpt><trkpt lat="43.3668496" lon="11.8032232"><ele>253.25</ele><time>2026-03-29T10:07:07.657Z</time></trkpt><trkpt lat="43.3668996" lon="11.8030592"><ele>253.5</ele><time>2026-03-29T10:07:08.671Z</time></trkpt><trkpt lat="43.3669612" lon="11.8028833"><ele>253.75</ele><time>2026-03-29T10:07:09.651Z</time></trkpt><trkpt lat="43.3670244" lon="11.8027067"><ele>254.0</ele><time>2026-03-29T10:07:10.659Z</time></trkpt><trkpt lat="43.3670972" lon="11.8025488"><ele>254.75</ele><time>2026-03-29T10:07:11.667Z</time></trkpt><trkpt lat="43.3671769" lon="11.802387"><ele>255.5</ele><time>2026-03-29T10:07:12.653Z</time></trkpt><trkpt lat="43.3672584" lon="11.802221"><ele>256.25</ele><time>2026-03-29T10:07:13.641Z</time></trkpt><trkpt lat="43.3673391" lon="11.8020452"><ele>257.0</ele><time>2026-03-29T10:07:14.646Z</time></trkpt><trkpt lat="43.3674035" lon="11.8018684"><ele>256.0</ele><time>2026-03-29T10:07:15.644Z</time></trkpt><trkpt lat="43.3674386" lon="11.8016632"><ele>255.0</ele><time>2026-03-29T10:07:16.643Z</time></trkpt><trkpt lat="43.3674851" lon="11.80141"><ele>254.0</ele><time>2026-03-29T10:07:17.641Z</time></trkpt><trkpt lat="43.3675099" lon="11.8011463"><ele>254.33333333333334</ele><time>2026-03-29T10:07:18.652Z</time></trkpt><trkpt lat="43.3675306" lon="11.8008982"><ele>254.66666666666669</ele><time>2026-03-29T10:07:19.638Z</time></trkpt><trkpt lat="43.3675575" lon="11.8006466"><ele>255.0</ele><time>2026-03-29T10:07:20.657Z</time></trkpt><trkpt lat="43.3675612" lon="11.8004234"><ele>255.0</ele><time>2026-03-29T10:07:21.657Z</time></trkpt><trkpt lat="43.3675629" lon="11.8002052"><ele>255.0</ele><time>2026-03-29T10:07:22.647Z</time></trkpt><trkpt lat="43.36755" lon="11.8000082"><ele>255.0</ele><time>2026-03-29T10:07:23.661Z</time></trkpt><trkpt lat="43.3675228" lon="11.799818"><ele>255.0</ele><time>2026-03-29T10:07:24.648Z</time></trkpt><trkpt lat="43.3674863" lon="11.7996343"><ele>255.25</ele><time>2026-03-29T10:07:25.645Z</time></trkpt><trkpt lat="43.3674508" lon="11.799456"><ele>255.5</ele><time>2026-03-29T10:07:26.652Z</time></trkpt><trkpt lat="43.3674448" lon="11.7992825"><ele>255.75</ele><time>2026-03-29T10:07:27.664Z</time></trkpt><trkpt lat="43.3674875" lon="11.7991027"><ele>256.0</ele><time>2026-03-29T10:07:28.645Z</time></trkpt><trkpt lat="43.3675539" lon="11.7989832"><ele>256.0</ele><time>2026-03-29T10:07:29.641Z</time></trkpt><trkpt lat="43.3676623" lon="11.7988788"><ele>256.0</ele><time>2026-03-29T10:07:30.66Z</time></trkpt><trkpt lat="43.3677856" lon="11.7988145"><ele>256.0</ele><time>2026-03-29T10:07:31.646Z</time></trkpt><trkpt lat="43.367916" lon="11.7987574"><ele>256.0</ele><time>2026-03-29T10:07:32.695Z</time></trkpt><trkpt lat="43.3680354" lon="11.7986944"><ele>256.0</ele><time>2026-03-29T10:07:33.648Z</time></trkpt><trkpt lat="43.3681337" lon="11.7986286"><ele>256.0</ele><time>2026-03-29T10:07:34.645Z</time></trkpt><trkpt lat="43.3682367" lon="11.7985098"><ele>256.0</ele><time>2026-03-29T10:07:35.652Z</time></trkpt><trkpt lat="43.3683367" lon="11.7983521"><ele>256.0</ele><time>2026-03-29T10:07:36.66Z</time></trkpt><trkpt lat="43.3684216" lon="11.7981615"><ele>257.0</ele><time>2026-03-29T10:07:37.656Z</time></trkpt><trkpt lat="43.3685183" lon="11.7979763"><ele>258.0</ele><time>2026-03-29T10:07:38.651Z</time></trkpt><trkpt lat="43.3686491" lon="11.7978096"><ele>259.0</ele><time>2026-03-29T10:07:39.664Z</time></trkpt><trkpt lat="43.368786" lon="11.7976553"><ele>262.0</ele><time>2026-03-29T10:07:40.638Z</time></trkpt><trkpt lat="43.3689346" lon="11.7975091"><ele>265.0</ele><time>2026-03-29T10:07:41.657Z</time></trkpt><trkpt lat="43.3690701" lon="11.7973809"><ele>268.0</ele><time>2026-03-29T10:07:42.65Z</time></trkpt><trkpt lat="43.3691968" lon="11.7972614"><ele>268.0</ele><time>2026-03-29T10:07:43.659Z</time></trkpt><trkpt lat="43.3693114" lon="11.7971538"><ele>268.0</ele><time>2026-03-29T10:07:44.705Z</time></trkpt><trkpt lat="43.3694065" lon="11.7970641"><ele>268.0</ele><time>2026-03-29T10:07:45.649Z</time></trkpt><trkpt lat="43.3694769" lon="11.7969567"><ele>268.0</ele><time>2026-03-29T10:07:46.699Z</time></trkpt><trkpt lat="43.3695056" lon="11.7968512"><ele>268.0</ele><time>2026-03-29T10:07:47.653Z</time></trkpt><trkpt lat="43.3695181" lon="11.7967654"><ele>269.0</ele><time>2026-03-29T10:07:48.65Z</time></trkpt><trkpt lat="43.3695005" lon="11.7966351"><ele>270.0</ele><time>2026-03-29T10:07:49.65Z</time></trkpt><trkpt lat="43.3694779" lon="11.796479"><ele>271.0</ele><time>2026-03-29T10:07:50.662Z</time></trkpt><trkpt lat="43.369432" lon="11.7962996"><ele>272.0</ele><time>2026-03-29T10:07:51.654Z</time></trkpt><trkpt lat="43.3693723" lon="11.7960655"><ele>272.6666666666667</ele><time>2026-03-29T10:07:52.669Z</time></trkpt><trkpt lat="43.3693041" lon="11.7957913"><ele>273.3333333333333</ele><time>2026-03-29T10:07:53.651Z</time></trkpt><trkpt lat="43.3692436" lon="11.7955281"><ele>274.0</ele><time>2026-03-29T10:07:54.649Z</time></trkpt><trkpt lat="43.3691879" lon="11.7952722"><ele>274.3333333333333</ele><time>2026-03-29T10:07:55.641Z</time></trkpt><trkpt lat="43.3691521" lon="11.7950251"><ele>274.6666666666667</ele><time>2026-03-29T10:07:56.648Z</time></trkpt><trkpt lat="43.3691346" lon="11.7947896"><ele>275.0</ele><time>2026-03-29T10:07:57.647Z</time></trkpt><trkpt lat="43.3691275" lon="11.7945587"><ele>275.0</ele><time>2026-03-29T10:07:58.668Z</time></trkpt><trkpt lat="43.369124" lon="11.7943351"><ele>275.0</ele><time>2026-03-29T10:07:59.661Z</time></trkpt><trkpt lat="43.3691269" lon="11.7941028"><ele>275.0</ele><time>2026-03-29T10:08:00.652Z</time></trkpt><trkpt lat="43.3691273" lon="11.793868"><ele>275.0</ele><time>2026-03-29T10:08:01.64Z</time></trkpt><trkpt lat="43.3691226" lon="11.7936325"><ele>275.0</ele><time>2026-03-29T10:08:02.658Z</time></trkpt><trkpt lat="43.3691216" lon="11.793395"><ele>275.0</ele><time>2026-03-29T10:08:03.651Z</time></trkpt><trkpt lat="43.3691216" lon="11.7931532"><ele>275.33333333333337</ele><time>2026-03-29T10:08:04.664Z</time></trkpt><trkpt lat="43.3691209" lon="11.7929285"><ele>275.6666666666667</ele><time>2026-03-29T10:08:05.662Z</time></trkpt><trkpt lat="43.36912" lon="11.7927204"><ele>276.0</ele><time>2026-03-29T10:08:06.668Z</time></trkpt><trkpt lat="43.3691145" lon="11.7925182"><ele>276.0</ele><time>2026-03-29T10:08:07.682Z</time></trkpt><trkpt lat="43.3691108" lon="11.7923315"><ele>276.0</ele><time>2026-03-29T10:08:08.652Z</time></trkpt><trkpt lat="43.3691132" lon="11.7921327"><ele>276.0</ele><time>2026-03-29T10:08:09.647Z</time></trkpt><trkpt lat="43.3691133" lon="11.7919377"><ele>276.0</ele><time>2026-03-29T10:08:10.649Z</time></trkpt><trkpt lat="43.3691137" lon="11.7917217"><ele>276.0</ele><time>2026-03-29T10:08:11.679Z</time></trkpt><trkpt lat="43.3691155" lon="11.7915138"><ele>276.0</ele><time>2026-03-29T10:08:12.664Z</time></trkpt><trkpt lat="43.3691221" lon="11.7913036"><ele>276.0</ele><time>2026-03-29T10:08:13.673Z</time></trkpt><trkpt lat="43.3691311" lon="11.7910861"><ele>276.3333333333333</ele><time>2026-03-29T10:08:14.673Z</time></trkpt><trkpt lat="43.3691398" lon="11.7908682"><ele>276.66666666666663</ele><time>2026-03-29T10:08:15.673Z</time></trkpt><trkpt lat="43.3691337" lon="11.7906615"><ele>277.0</ele><time>2026-03-29T10:08:16.646Z</time></trkpt><trkpt lat="43.3691372" lon="11.7904586"><ele>277.0</ele><time>2026-03-29T10:08:17.652Z</time></trkpt><trkpt lat="43.3691576" lon="11.7902348"><ele>277.0</ele><time>2026-03-29T10:08:18.665Z</time></trkpt><trkpt lat="43.369194" lon="11.7899913"><ele>277.0</ele><time>2026-03-29T10:08:19.652Z</time></trkpt><trkpt lat="43.3692376" lon="11.7897205"><ele>277.0</ele><time>2026-03-29T10:08:20.663Z</time></trkpt><trkpt lat="43.3692846" lon="11.7894478"><ele>277.0</ele><time>2026-03-29T10:08:21.65Z</time></trkpt><trkpt lat="43.3693352" lon="11.7891783"><ele>277.0</ele><time>2026-03-29T10:08:22.653Z</time></trkpt><trkpt lat="43.3693885" lon="11.7889109"><ele>277.0</ele><time>2026-03-29T10:08:23.655Z</time></trkpt><trkpt lat="43.3694485" lon="11.7886471"><ele>277.0</ele><time>2026-03-29T10:08:24.647Z</time></trkpt><trkpt lat="43.3695179" lon="11.7883829"><ele>277.0</ele><time>2026-03-29T10:08:25.674Z</time></trkpt><trkpt lat="43.3696038" lon="11.7881216"><ele>277.0</ele><time>2026-03-29T10:08:26.674Z</time></trkpt><trkpt lat="43.3696967" lon="11.7878738"><ele>277.0</ele><time>2026-03-29T10:08:27.665Z</time></trkpt><trkpt lat="43.3697978" lon="11.7876355"><ele>277.0</ele><time>2026-03-29T10:08:28.676Z</time></trkpt><trkpt lat="43.3699124" lon="11.7874368"><ele>277.0</ele><time>2026-03-29T10:08:29.674Z</time></trkpt><trkpt lat="43.3700303" lon="11.7872663"><ele>277.0</ele><time>2026-03-29T10:08:30.655Z</time></trkpt><trkpt lat="43.3701545" lon="11.7871163"><ele>277.0</ele><time>2026-03-29T10:08:31.639Z</time></trkpt><trkpt lat="43.3703074" lon="11.7870013"><ele>277.0</ele><time>2026-03-29T10:08:32.647Z</time></trkpt><trkpt lat="43.3704594" lon="11.786916"><ele>277.0</ele><time>2026-03-29T10:08:33.657Z</time></trkpt><trkpt lat="43.370625" lon="11.7868481"><ele>277.0</ele><time>2026-03-29T10:08:34.651Z</time></trkpt><trkpt lat="43.3708158" lon="11.7868128"><ele>277.0</ele><time>2026-03-29T10:08:35.662Z</time></trkpt><trkpt lat="43.3710427" lon="11.7868158"><ele>277.0</ele><time>2026-03-29T10:08:36.644Z</time></trkpt><trkpt lat="43.3712624" lon="11.7868386"><ele>277.0</ele><time>2026-03-29T10:08:37.654Z</time></trkpt><trkpt lat="43.3714775" lon="11.786873"><ele>277.3333333333333</ele><time>2026-03-29T10:08:38.641Z</time></trkpt><trkpt lat="43.3716901" lon="11.7869046"><ele>277.6666666666667</ele><time>2026-03-29T10:08:39.661Z</time></trkpt><trkpt lat="43.3719091" lon="11.7869404"><ele>278.0</ele><time>2026-03-29T10:08:40.647Z</time></trkpt><trkpt lat="43.3721163" lon="11.7869755"><ele>277.5</ele><time>2026-03-29T10:08:41.675Z</time></trkpt><trkpt lat="43.3722886" lon="11.7870013"><ele>277.0</ele><time>2026-03-29T10:08:42.667Z</time></trkpt><trkpt lat="43.3724296" lon="11.7870218"><ele>276.5</ele><time>2026-03-29T10:08:43.651Z</time></trkpt><trkpt lat="43.3725606" lon="11.7870409"><ele>276.0</ele><time>2026-03-29T10:08:44.649Z</time></trkpt><trkpt lat="43.3726795" lon="11.7870634"><ele>276.0</ele><time>2026-03-29T10:08:45.652Z</time></trkpt><trkpt lat="43.3727927" lon="11.7870878"><ele>276.0</ele><time>2026-03-29T10:08:46.666Z</time></trkpt><trkpt lat="43.3728945" lon="11.787104"><ele>276.0</ele><time>2026-03-29T10:08:47.634Z</time></trkpt><trkpt lat="43.3729941" lon="11.787119"><ele>276.0</ele><time>2026-03-29T10:08:48.651Z</time></trkpt><trkpt lat="43.3730869" lon="11.7871301"><ele>276.0</ele><time>2026-03-29T10:08:49.66Z</time></trkpt><trkpt lat="43.3731807" lon="11.7871424"><ele>275.75</ele><time>2026-03-29T10:08:50.667Z</time></trkpt><trkpt lat="43.37328" lon="11.787154"><ele>275.5</ele><time>2026-03-29T10:08:51.674Z</time></trkpt><trkpt lat="43.3733824" lon="11.7871701"><ele>275.25</ele><time>2026-03-29T10:08:52.655Z</time></trkpt><trkpt lat="43.3734985" lon="11.7871935"><ele>275.0</ele><time>2026-03-29T10:08:53.642Z</time></trkpt><trkpt lat="43.3736287" lon="11.7872082"><ele>275.0</ele><time>2026-03-29T10:08:54.644Z</time></trkpt><trkpt lat="43.3737593" lon="11.7872312"><ele>275.0</ele><time>2026-03-29T10:08:55.649Z</time></trkpt><trkpt lat="43.3738966" lon="11.7872549"><ele>275.0</ele><time>2026-03-29T10:08:56.642Z</time></trkpt><trkpt lat="43.3740469" lon="11.7872737"><ele>275.0</ele><time>2026-03-29T10:08:57.675Z</time></trkpt><trkpt lat="43.3742015" lon="11.7872919"><ele>275.0</ele><time>2026-03-29T10:08:58.65Z</time></trkpt><trkpt lat="43.3743589" lon="11.787315"><ele>275.0</ele><time>2026-03-29T10:08:59.665Z</time></trkpt><trkpt lat="43.3745091" lon="11.7873263"><ele>275.0</ele><time>2026-03-29T10:09:00.657Z</time></trkpt><trkpt lat="43.3746457" lon="11.7873183"><ele>275.0</ele><time>2026-03-29T10:09:01.653Z</time></trkpt><trkpt lat="43.3747927" lon="11.7872791"><ele>275.0</ele><time>2026-03-29T10:09:02.645Z</time></trkpt><trkpt lat="43.3749188" lon="11.7871995"><ele>275.0</ele><time>2026-03-29T10:09:03.664Z</time></trkpt><trkpt lat="43.3750378" lon="11.787089"><ele>275.0</ele><time>2026-03-29T10:09:04.646Z</time></trkpt><trkpt lat="43.3751427" lon="11.7869612"><ele>275.0</ele><time>2026-03-29T10:09:05.643Z</time></trkpt><trkpt lat="43.3752673" lon="11.7867993"><ele>275.5</ele><time>2026-03-29T10:09:06.658Z</time></trkpt><trkpt lat="43.3754082" lon="11.7866238"><ele>276.0</ele><time>2026-03-29T10:09:07.65Z</time></trkpt><trkpt lat="43.3756711" lon="11.7862937"><ele>275.6666666666667</ele><time>2026-03-29T10:09:09.692Z</time></trkpt><trkpt lat="43.3757951" lon="11.786135"><ele>275.33333333333337</ele><time>2026-03-29T10:09:10.65Z</time></trkpt><trkpt lat="43.3759261" lon="11.7859746"><ele>275.0</ele><time>2026-03-29T10:09:11.652Z</time></trkpt><trkpt lat="43.3760634" lon="11.7858165"><ele>275.0</ele><time>2026-03-29T10:09:12.654Z</time></trkpt><trkpt lat="43.3761781" lon="11.7856797"><ele>275.0</ele><time>2026-03-29T10:09:13.678Z</time></trkpt><trkpt lat="43.3762923" lon="11.7855564"><ele>275.0</ele><time>2026-03-29T10:09:14.662Z</time></trkpt><trkpt lat="43.3764074" lon="11.7854208"><ele>275.0</ele><time>2026-03-29T10:09:15.676Z</time></trkpt><trkpt lat="43.3763366" lon="11.785486"><ele>275.6666666666667</ele><time>2026-03-29T10:09:16.654Z</time></trkpt><trkpt lat="43.3763785" lon="11.7854189"><ele>276.3333333333333</ele><time>2026-03-29T10:09:18.695Z</time></trkpt><trkpt lat="43.3764759" lon="11.7852912"><ele>277.0</ele><time>2026-03-29T10:09:19.673Z</time></trkpt><trkpt lat="43.3769689" lon="11.784523"><ele>276.66666666666663</ele><time>2026-03-29T10:09:20.652Z</time></trkpt><trkpt lat="43.3770452" lon="11.7843131"><ele>276.3333333333333</ele><time>2026-03-29T10:09:21.644Z</time></trkpt><trkpt lat="43.3771151" lon="11.7840917"><ele>276.0</ele><time>2026-03-29T10:09:22.646Z</time></trkpt><trkpt lat="43.3771826" lon="11.7838741"><ele>275.3333333333333</ele><time>2026-03-29T10:09:23.643Z</time></trkpt><trkpt lat="43.3772588" lon="11.7836408"><ele>274.66666666666663</ele><time>2026-03-29T10:09:24.657Z</time></trkpt><trkpt lat="43.3773353" lon="11.7833983"><ele>274.0</ele><time>2026-03-29T10:09:25.66Z</time></trkpt><trkpt lat="43.3774193" lon="11.7831524"><ele>273.0</ele><time>2026-03-29T10:09:26.661Z</time></trkpt><trkpt lat="43.3775117" lon="11.782907"><ele>272.0</ele><time>2026-03-29T10:09:27.653Z</time></trkpt><trkpt lat="43.3776062" lon="11.7826303"><ele>271.0</ele><time>2026-03-29T10:09:28.657Z</time></trkpt><trkpt lat="43.3777" lon="11.7823455"><ele>270.0</ele><time>2026-03-29T10:09:29.651Z</time></trkpt><trkpt lat="43.3777922" lon="11.7820536"><ele>269.0</ele><time>2026-03-29T10:09:30.655Z</time></trkpt><trkpt lat="43.3778831" lon="11.7817714"><ele>268.5</ele><time>2026-03-29T10:09:31.643Z</time></trkpt><trkpt lat="43.3779849" lon="11.7814773"><ele>268.0</ele><time>2026-03-29T10:09:32.648Z</time></trkpt><trkpt lat="43.378082" lon="11.7811949"><ele>267.3333333333333</ele><time>2026-03-29T10:09:33.643Z</time></trkpt><trkpt lat="43.3781784" lon="11.7809178"><ele>266.6666666666667</ele><time>2026-03-29T10:09:34.65Z</time></trkpt><trkpt lat="43.3782697" lon="11.7806459"><ele>266.0</ele><time>2026-03-29T10:09:35.655Z</time></trkpt><trkpt lat="43.3783573" lon="11.7803843"><ele>266.6666666666667</ele><time>2026-03-29T10:09:36.658Z</time></trkpt><trkpt lat="43.3784364" lon="11.7801378"><ele>267.3333333333333</ele><time>2026-03-29T10:09:37.664Z</time></trkpt><trkpt lat="43.3785102" lon="11.7799078"><ele>268.0</ele><time>2026-03-29T10:09:38.64Z</time></trkpt><trkpt lat="43.378585" lon="11.7796787"><ele>268.0</ele><time>2026-03-29T10:09:39.651Z</time></trkpt><trkpt lat="43.378662" lon="11.7794623"><ele>268.0</ele><time>2026-03-29T10:09:40.652Z</time></trkpt><trkpt lat="43.3787356" lon="11.7792459"><ele>268.0</ele><time>2026-03-29T10:09:41.652Z</time></trkpt><trkpt lat="43.3788133" lon="11.7790302"><ele>269.0</ele><time>2026-03-29T10:09:42.661Z</time></trkpt><trkpt lat="43.3788847" lon="11.7788137"><ele>270.0</ele><time>2026-03-29T10:09:43.646Z</time></trkpt><trkpt lat="43.3789634" lon="11.7785822"><ele>271.0</ele><time>2026-03-29T10:09:44.664Z</time></trkpt><trkpt lat="43.3790361" lon="11.7783744"><ele>272.0</ele><time>2026-03-29T10:09:45.646Z</time></trkpt><trkpt lat="43.3791051" lon="11.7781605"><ele>273.0</ele><time>2026-03-29T10:09:46.648Z</time></trkpt><trkpt lat="43.3791785" lon="11.7779335"><ele>274.0</ele><time>2026-03-29T10:09:47.67Z</time></trkpt><trkpt lat="43.3792604" lon="11.7777043"><ele>274.66666666666663</ele><time>2026-03-29T10:09:48.657Z</time></trkpt><trkpt lat="43.3793427" lon="11.7774518"><ele>275.3333333333333</ele><time>2026-03-29T10:09:49.668Z</time></trkpt><trkpt lat="43.3794239" lon="11.7771922"><ele>276.0</ele><time>2026-03-29T10:09:50.657Z</time></trkpt><trkpt lat="43.3795105" lon="11.7769229"><ele>276.3333333333333</ele><time>2026-03-29T10:09:51.658Z</time></trkpt><trkpt lat="43.3796012" lon="11.7766565"><ele>276.66666666666663</ele><time>2026-03-29T10:09:52.651Z</time></trkpt><trkpt lat="43.3796802" lon="11.7764016"><ele>277.0</ele><time>2026-03-29T10:09:53.652Z</time></trkpt><trkpt lat="43.3797602" lon="11.7761545"><ele>277.0</ele><time>2026-03-29T10:09:54.65Z</time></trkpt><trkpt lat="43.3798415" lon="11.7759091"><ele>277.0</ele><time>2026-03-29T10:09:55.654Z</time></trkpt><trkpt lat="43.3799187" lon="11.7756675"><ele>277.0</ele><time>2026-03-29T10:09:56.666Z</time></trkpt><trkpt lat="43.3799957" lon="11.7754401"><ele>277.0</ele><time>2026-03-29T10:09:57.64Z</time></trkpt><trkpt lat="43.3800714" lon="11.7752105"><ele>277.0</ele><time>2026-03-29T10:09:58.638Z</time></trkpt><trkpt lat="43.3801432" lon="11.774987"><ele>277.0</ele><time>2026-03-29T10:09:59.645Z</time></trkpt><trkpt lat="43.380209" lon="11.7747808"><ele>277.3333333333333</ele><time>2026-03-29T10:10:00.65Z</time></trkpt><trkpt lat="43.380272" lon="11.7745798"><ele>277.6666666666667</ele><time>2026-03-29T10:10:01.667Z</time></trkpt><trkpt lat="43.3803319" lon="11.774386"><ele>278.0</ele><time>2026-03-29T10:10:02.651Z</time></trkpt><trkpt lat="43.3803911" lon="11.7741992"><ele>278.25</ele><time>2026-03-29T10:10:03.674Z</time></trkpt><trkpt lat="43.3804444" lon="11.7740317"><ele>278.5</ele><time>2026-03-29T10:10:04.662Z</time></trkpt><trkpt lat="43.3804977" lon="11.7738753"><ele>278.75</ele><time>2026-03-29T10:10:05.65Z</time></trkpt><trkpt lat="43.3805531" lon="11.7737234"><ele>279.0</ele><time>2026-03-29T10:10:06.648Z</time></trkpt><trkpt lat="43.3805998" lon="11.7735772"><ele>279.2</ele><time>2026-03-29T10:10:07.654Z</time></trkpt><trkpt lat="43.3806346" lon="11.7734573"><ele>279.4</ele><time>2026-03-29T10:10:08.678Z</time></trkpt><trkpt lat="43.3806757" lon="11.773382"><ele>279.6</ele><time>2026-03-29T10:10:09.658Z</time></trkpt><trkpt lat="43.3807499" lon="11.7732869"><ele>279.8</ele><time>2026-03-29T10:10:11.646Z</time></trkpt><trkpt lat="43.3808075" lon="11.7731969"><ele>280.0</ele><time>2026-03-29T10:10:13.646Z</time></trkpt><trkpt lat="43.3808361" lon="11.7730365"><ele>280.0</ele><time>2026-03-29T10:10:15.659Z</time></trkpt><trkpt lat="43.3808518" lon="11.7729159"><ele>280.0</ele><time>2026-03-29T10:10:16.647Z</time></trkpt><trkpt lat="43.3808791" lon="11.7727704"><ele>280.0</ele><time>2026-03-29T10:10:17.657Z</time></trkpt><trkpt lat="43.3809323" lon="11.7726172"><ele>280.0</ele><time>2026-03-29T10:10:18.683Z</time></trkpt><trkpt lat="43.3810008" lon="11.7724546"><ele>280.3333333333333</ele><time>2026-03-29T10:10:19.672Z</time></trkpt><trkpt lat="43.3810832" lon="11.7722876"><ele>280.6666666666667</ele><time>2026-03-29T10:10:20.686Z</time></trkpt><trkpt lat="43.3811652" lon="11.772111"><ele>281.0</ele><time>2026-03-29T10:10:21.657Z</time></trkpt><trkpt lat="43.381247" lon="11.7719132"><ele>280.6666666666667</ele><time>2026-03-29T10:10:22.653Z</time></trkpt><trkpt lat="43.3813316" lon="11.7717001"><ele>280.3333333333333</ele><time>2026-03-29T10:10:23.654Z</time></trkpt><trkpt lat="43.381422" lon="11.7714674"><ele>280.0</ele><time>2026-03-29T10:10:24.655Z</time></trkpt><trkpt lat="43.3815248" lon="11.7712121"><ele>279.3333333333333</ele><time>2026-03-29T10:10:25.671Z</time></trkpt><trkpt lat="43.3816331" lon="11.7709457"><ele>278.6666666666667</ele><time>2026-03-29T10:10:26.665Z</time></trkpt><trkpt lat="43.3817411" lon="11.7706811"><ele>278.0</ele><time>2026-03-29T10:10:27.673Z</time></trkpt><trkpt lat="43.3818539" lon="11.7704053"><ele>277.6666666666667</ele><time>2026-03-29T10:10:28.651Z</time></trkpt><trkpt lat="43.3819711" lon="11.7701369"><ele>277.3333333333333</ele><time>2026-03-29T10:10:29.652Z</time></trkpt><trkpt lat="43.38208" lon="11.7698775"><ele>277.0</ele><time>2026-03-29T10:10:30.65Z</time></trkpt><trkpt lat="43.3821845" lon="11.7696295"><ele>277.66666666666663</ele><time>2026-03-29T10:10:31.651Z</time></trkpt><trkpt lat="43.3822947" lon="11.7693994"><ele>278.3333333333333</ele><time>2026-03-29T10:10:32.663Z</time></trkpt><trkpt lat="43.382419" lon="11.7691913"><ele>279.0</ele><time>2026-03-29T10:10:33.669Z</time></trkpt><trkpt lat="43.3825656" lon="11.7690021"><ele>279.0</ele><time>2026-03-29T10:10:34.653Z</time></trkpt><trkpt lat="43.3827568" lon="11.7688309"><ele>279.0</ele><time>2026-03-29T10:10:35.679Z</time></trkpt><trkpt lat="43.3829619" lon="11.7686487"><ele>280.5</ele><time>2026-03-29T10:10:36.661Z</time></trkpt><trkpt lat="43.3831759" lon="11.7684536"><ele>282.0</ele><time>2026-03-29T10:10:37.65Z</time></trkpt><trkpt lat="43.3833905" lon="11.7682469"><ele>282.0</ele><time>2026-03-29T10:10:38.653Z</time></trkpt><trkpt lat="43.3836005" lon="11.768043"><ele>282.0</ele><time>2026-03-29T10:10:39.657Z</time></trkpt><trkpt lat="43.3838138" lon="11.7678302"><ele>281.0</ele><time>2026-03-29T10:10:40.661Z</time></trkpt><trkpt lat="43.3840295" lon="11.7676122"><ele>280.0</ele><time>2026-03-29T10:10:41.654Z</time></trkpt><trkpt lat="43.3842471" lon="11.7673879"><ele>280.0</ele><time>2026-03-29T10:10:42.652Z</time></trkpt><trkpt lat="43.3844651" lon="11.767164"><ele>280.0</ele><time>2026-03-29T10:10:43.666Z</time></trkpt><trkpt lat="43.3846783" lon="11.7669425"><ele>279.5</ele><time>2026-03-29T10:10:44.671Z</time></trkpt><trkpt lat="43.3848793" lon="11.7667241"><ele>279.0</ele><time>2026-03-29T10:10:45.661Z</time></trkpt><trkpt lat="43.3850728" lon="11.7665205"><ele>279.0</ele><time>2026-03-29T10:10:46.667Z</time></trkpt><trkpt lat="43.3852545" lon="11.7663255"><ele>279.0</ele><time>2026-03-29T10:10:47.648Z</time></trkpt><trkpt lat="43.3854406" lon="11.7661289"><ele>279.0</ele><time>2026-03-29T10:10:48.67Z</time></trkpt><trkpt lat="43.385614" lon="11.7659435"><ele>279.0</ele><time>2026-03-29T10:10:49.66Z</time></trkpt><trkpt lat="43.3857837" lon="11.7657659"><ele>279.0</ele><time>2026-03-29T10:10:50.66Z</time></trkpt><trkpt lat="43.38595" lon="11.7655924"><ele>279.0</ele><time>2026-03-29T10:10:51.643Z</time></trkpt><trkpt lat="43.3861152" lon="11.7654105"><ele>279.0</ele><time>2026-03-29T10:10:52.668Z</time></trkpt><trkpt lat="43.3862751" lon="11.7652236"><ele>279.0</ele><time>2026-03-29T10:10:53.646Z</time></trkpt><trkpt lat="43.3864445" lon="11.7650048"><ele>279.5</ele><time>2026-03-29T10:10:54.675Z</time></trkpt><trkpt lat="43.3866004" lon="11.7647785"><ele>280.0</ele><time>2026-03-29T10:10:55.657Z</time></trkpt><trkpt lat="43.3867559" lon="11.7645255"><ele>280.0</ele><time>2026-03-29T10:10:56.641Z</time></trkpt><trkpt lat="43.3869158" lon="11.7642456"><ele>280.0</ele><time>2026-03-29T10:10:57.651Z</time></trkpt><trkpt lat="43.3870846" lon="11.7639539"><ele>279.0</ele><time>2026-03-29T10:10:58.664Z</time></trkpt><trkpt lat="43.3872579" lon="11.7636745"><ele>278.0</ele><time>2026-03-29T10:10:59.68Z</time></trkpt><trkpt lat="43.3874277" lon="11.7634191"><ele>278.0</ele><time>2026-03-29T10:11:00.654Z</time></trkpt><trkpt lat="43.387594" lon="11.7631727"><ele>278.0</ele><time>2026-03-29T10:11:01.664Z</time></trkpt><trkpt lat="43.3877601" lon="11.762935"><ele>278.0</ele><time>2026-03-29T10:11:02.658Z</time></trkpt><trkpt lat="43.3879185" lon="11.7626949"><ele>278.0</ele><time>2026-03-29T10:11:03.653Z</time></trkpt><trkpt lat="43.3880768" lon="11.7624402"><ele>277.0</ele><time>2026-03-29T10:11:04.694Z</time></trkpt><trkpt lat="43.3882203" lon="11.7622046"><ele>276.0</ele><time>2026-03-29T10:11:05.647Z</time></trkpt><trkpt lat="43.3883856" lon="11.7619363"><ele>276.5</ele><time>2026-03-29T10:11:06.655Z</time></trkpt><trkpt lat="43.388546" lon="11.7616798"><ele>277.0</ele><time>2026-03-29T10:11:07.663Z</time></trkpt><trkpt lat="43.3887057" lon="11.7614303"><ele>277.0</ele><time>2026-03-29T10:11:08.671Z</time></trkpt><trkpt lat="43.3888591" lon="11.7611921"><ele>277.0</ele><time>2026-03-29T10:11:09.668Z</time></trkpt><trkpt lat="43.3890097" lon="11.7609557"><ele>278.0</ele><time>2026-03-29T10:11:10.669Z</time></trkpt><trkpt lat="43.3891479" lon="11.7607421"><ele>279.0</ele><time>2026-03-29T10:11:11.646Z</time></trkpt><trkpt lat="43.3892836" lon="11.760533"><ele>280.0</ele><time>2026-03-29T10:11:12.65Z</time></trkpt><trkpt lat="43.3893997" lon="11.7603532"><ele>280.0</ele><time>2026-03-29T10:11:13.656Z</time></trkpt><trkpt lat="43.3895028" lon="11.7602052"><ele>280.0</ele><time>2026-03-29T10:11:14.662Z</time></trkpt><trkpt lat="43.3895895" lon="11.7600795"><ele>280.0</ele><time>2026-03-29T10:11:15.661Z</time></trkpt><trkpt lat="43.3896657" lon="11.759964"><ele>280.0</ele><time>2026-03-29T10:11:16.66Z</time></trkpt><trkpt lat="43.3897357" lon="11.7598585"><ele>280.0</ele><time>2026-03-29T10:11:17.664Z</time></trkpt><trkpt lat="43.3897977" lon="11.7597707"><ele>280.0</ele><time>2026-03-29T10:11:18.672Z</time></trkpt><trkpt lat="43.3898575" lon="11.759657"><ele>280.0</ele><time>2026-03-29T10:11:20.645Z</time></trkpt><trkpt lat="43.3899192" lon="11.7595597"><ele>280.0</ele><time>2026-03-29T10:11:22.645Z</time></trkpt><trkpt lat="43.3899714" lon="11.7594713"><ele>280.0</ele><time>2026-03-29T10:11:24.654Z</time></trkpt><trkpt lat="43.3899794" lon="11.7593705"><ele>280.0</ele><time>2026-03-29T10:11:26.647Z</time></trkpt><trkpt lat="43.3899547" lon="11.7592907"><ele>280.4</ele><time>2026-03-29T10:11:27.654Z</time></trkpt><trkpt lat="43.3899212" lon="11.7591908"><ele>280.8</ele><time>2026-03-29T10:11:28.661Z</time></trkpt><trkpt lat="43.3898755" lon="11.7590829"><ele>281.2</ele><time>2026-03-29T10:11:29.657Z</time></trkpt><trkpt lat="43.3898256" lon="11.7589627"><ele>281.6</ele><time>2026-03-29T10:11:30.667Z</time></trkpt><trkpt lat="43.3897697" lon="11.7588389"><ele>282.0</ele><time>2026-03-29T10:11:31.654Z</time></trkpt><trkpt lat="43.389691" lon="11.7586893"><ele>282.5</ele><time>2026-03-29T10:11:32.65Z</time></trkpt><trkpt lat="43.389609" lon="11.7585286"><ele>283.0</ele><time>2026-03-29T10:11:33.662Z</time></trkpt><trkpt lat="43.3895338" lon="11.7583673"><ele>283.5</ele><time>2026-03-29T10:11:34.657Z</time></trkpt><trkpt lat="43.3894507" lon="11.7581836"><ele>284.0</ele><time>2026-03-29T10:11:35.664Z</time></trkpt><trkpt lat="43.389361" lon="11.7580044"><ele>284.0</ele><time>2026-03-29T10:11:36.662Z</time></trkpt><trkpt lat="43.3892733" lon="11.7578276"><ele>284.0</ele><time>2026-03-29T10:11:37.647Z</time></trkpt><trkpt lat="43.3891822" lon="11.7576372"><ele>284.0</ele><time>2026-03-29T10:11:38.657Z</time></trkpt><trkpt lat="43.3891083" lon="11.7574447"><ele>284.0</ele><time>2026-03-29T10:11:39.646Z</time></trkpt><trkpt lat="43.3890583" lon="11.7572423"><ele>284.0</ele><time>2026-03-29T10:11:40.648Z</time></trkpt><trkpt lat="43.3890367" lon="11.7570116"><ele>284.0</ele><time>2026-03-29T10:11:41.676Z</time></trkpt><trkpt lat="43.3890463" lon="11.7567789"><ele>284.33333333333337</ele><time>2026-03-29T10:11:42.655Z</time></trkpt><trkpt lat="43.3890656" lon="11.7565537"><ele>284.6666666666667</ele><time>2026-03-29T10:11:43.668Z</time></trkpt><trkpt lat="43.3890845" lon="11.7563453"><ele>285.0</ele><time>2026-03-29T10:11:44.648Z</time></trkpt><trkpt lat="43.3890899" lon="11.7561458"><ele>285.0</ele><time>2026-03-29T10:11:45.661Z</time></trkpt><trkpt lat="43.3890974" lon="11.7559617"><ele>285.0</ele><time>2026-03-29T10:11:46.652Z</time></trkpt><trkpt lat="43.3891186" lon="11.7557956"><ele>285.0</ele><time>2026-03-29T10:11:47.663Z</time></trkpt><trkpt lat="43.3891624" lon="11.7556567"><ele>285.0</ele><time>2026-03-29T10:11:48.668Z</time></trkpt><trkpt lat="43.3892361" lon="11.7555486"><ele>285.0</ele><time>2026-03-29T10:11:49.661Z</time></trkpt><trkpt lat="43.3893308" lon="11.7554763"><ele>285.0</ele><time>2026-03-29T10:11:50.658Z</time></trkpt><trkpt lat="43.3894483" lon="11.7554403"><ele>285.0</ele><time>2026-03-29T10:11:51.659Z</time></trkpt><trkpt lat="43.3895954" lon="11.7554469"><ele>285.0</ele><time>2026-03-29T10:11:52.647Z</time></trkpt><trkpt lat="43.3897673" lon="11.7554987"><ele>284.3333333333333</ele><time>2026-03-29T10:11:53.652Z</time></trkpt><trkpt lat="43.3899752" lon="11.7555751"><ele>283.66666666666663</ele><time>2026-03-29T10:11:54.653Z</time></trkpt><trkpt lat="43.3901853" lon="11.7556566"><ele>283.0</ele><time>2026-03-29T10:11:55.654Z</time></trkpt><trkpt lat="43.3903803" lon="11.7557079"><ele>283.66666666666663</ele><time>2026-03-29T10:11:56.654Z</time></trkpt><trkpt lat="43.3905827" lon="11.7557665"><ele>284.3333333333333</ele><time>2026-03-29T10:11:57.654Z</time></trkpt><trkpt lat="43.3908005" lon="11.7558173"><ele>285.0</ele><time>2026-03-29T10:11:58.664Z</time></trkpt><trkpt lat="43.3910132" lon="11.7558578"><ele>285.0</ele><time>2026-03-29T10:11:59.662Z</time></trkpt><trkpt lat="43.3912291" lon="11.7559033"><ele>285.0</ele><time>2026-03-29T10:12:00.644Z</time></trkpt><trkpt lat="43.3914532" lon="11.7559598"><ele>285.0</ele><time>2026-03-29T10:12:01.656Z</time></trkpt><trkpt lat="43.3916709" lon="11.7560155"><ele>285.0</ele><time>2026-03-29T10:12:02.65Z</time></trkpt><trkpt lat="43.3918923" lon="11.7560709"><ele>285.0</ele><time>2026-03-29T10:12:03.659Z</time></trkpt><trkpt lat="43.3921018" lon="11.7561146"><ele>285.0</ele><time>2026-03-29T10:12:04.651Z</time></trkpt><trkpt lat="43.3923108" lon="11.7561549"><ele>284.6666666666667</ele><time>2026-03-29T10:12:05.646Z</time></trkpt><trkpt lat="43.3925193" lon="11.7562099"><ele>284.33333333333337</ele><time>2026-03-29T10:12:06.666Z</time></trkpt><trkpt lat="43.392724" lon="11.7562639"><ele>284.0</ele><time>2026-03-29T10:12:07.67Z</time></trkpt><trkpt lat="43.3929168" lon="11.7563123"><ele>284.33333333333337</ele><time>2026-03-29T10:12:08.656Z</time></trkpt><trkpt lat="43.3931081" lon="11.7563513"><ele>284.6666666666667</ele><time>2026-03-29T10:12:09.653Z</time></trkpt><trkpt lat="43.3933042" lon="11.7563666"><ele>285.0</ele><time>2026-03-29T10:12:10.652Z</time></trkpt><trkpt lat="43.3934975" lon="11.7563614"><ele>285.0</ele><time>2026-03-29T10:12:11.652Z</time></trkpt><trkpt lat="43.393688" lon="11.7563205"><ele>285.0</ele><time>2026-03-29T10:12:12.648Z</time></trkpt><trkpt lat="43.3938844" lon="11.756245"><ele>285.0</ele><time>2026-03-29T10:12:13.663Z</time></trkpt><trkpt lat="43.3940675" lon="11.7561295"><ele>285.0</ele><time>2026-03-29T10:12:14.641Z</time></trkpt><trkpt lat="43.3942481" lon="11.7559779"><ele>285.0</ele><time>2026-03-29T10:12:15.669Z</time></trkpt><trkpt lat="43.3944254" lon="11.7558109"><ele>285.0</ele><time>2026-03-29T10:12:16.652Z</time></trkpt><trkpt lat="43.3946124" lon="11.7556355"><ele>285.0</ele><time>2026-03-29T10:12:17.651Z</time></trkpt><trkpt lat="43.3947997" lon="11.7554673"><ele>285.0</ele><time>2026-03-29T10:12:18.66Z</time></trkpt><trkpt lat="43.3949889" lon="11.7553057"><ele>285.0</ele><time>2026-03-29T10:12:19.658Z</time></trkpt><trkpt lat="43.395183" lon="11.7551476"><ele>285.0</ele><time>2026-03-29T10:12:20.665Z</time></trkpt><trkpt lat="43.3953756" lon="11.7549949"><ele>285.0</ele><time>2026-03-29T10:12:21.664Z</time></trkpt><trkpt lat="43.395575" lon="11.7548364"><ele>285.0</ele><time>2026-03-29T10:12:22.659Z</time></trkpt><trkpt lat="43.3957694" lon="11.7546836"><ele>285.0</ele><time>2026-03-29T10:12:23.64Z</time></trkpt><trkpt lat="43.39597" lon="11.7545294"><ele>285.0</ele><time>2026-03-29T10:12:24.656Z</time></trkpt><trkpt lat="43.3961792" lon="11.7543607"><ele>285.0</ele><time>2026-03-29T10:12:25.657Z</time></trkpt><trkpt lat="43.3963904" lon="11.7541844"><ele>285.0</ele><time>2026-03-29T10:12:26.661Z</time></trkpt><trkpt lat="43.396609" lon="11.7539988"><ele>285.0</ele><time>2026-03-29T10:12:27.668Z</time></trkpt><trkpt lat="43.3968308" lon="11.7538046"><ele>285.0</ele><time>2026-03-29T10:12:28.666Z</time></trkpt><trkpt lat="43.3970493" lon="11.7536225"><ele>285.0</ele><time>2026-03-29T10:12:29.646Z</time></trkpt><trkpt lat="43.3972754" lon="11.7534312"><ele>282.0</ele><time>2026-03-29T10:12:30.671Z</time></trkpt><trkpt lat="43.397506" lon="11.7532423"><ele>279.0</ele><time>2026-03-29T10:12:31.655Z</time></trkpt><trkpt lat="43.3977305" lon="11.7530557"><ele>279.0</ele><time>2026-03-29T10:12:32.641Z</time></trkpt><trkpt lat="43.3979689" lon="11.7528668"><ele>279.0</ele><time>2026-03-29T10:12:33.661Z</time></trkpt><trkpt lat="43.3982052" lon="11.7526714"><ele>282.0</ele><time>2026-03-29T10:12:34.668Z</time></trkpt><trkpt lat="43.398435" lon="11.7524832"><ele>285.0</ele><time>2026-03-29T10:12:35.664Z</time></trkpt><trkpt lat="43.3986556" lon="11.7523057"><ele>285.0</ele><time>2026-03-29T10:12:36.651Z</time></trkpt><trkpt lat="43.3988727" lon="11.752132"><ele>285.0</ele><time>2026-03-29T10:12:37.657Z</time></trkpt><trkpt lat="43.3990829" lon="11.7519769"><ele>285.0</ele><time>2026-03-29T10:12:38.656Z</time></trkpt><trkpt lat="43.3993078" lon="11.7518327"><ele>285.0</ele><time>2026-03-29T10:12:39.665Z</time></trkpt><trkpt lat="43.3995379" lon="11.7517077"><ele>285.0</ele><time>2026-03-29T10:12:40.657Z</time></trkpt><trkpt lat="43.3997827" lon="11.7515886"><ele>285.0</ele><time>2026-03-29T10:12:41.658Z</time></trkpt><trkpt lat="43.4000404" lon="11.751468"><ele>285.0</ele><time>2026-03-29T10:12:42.655Z</time></trkpt><trkpt lat="43.4002969" lon="11.7513467"><ele>285.0</ele><time>2026-03-29T10:12:43.653Z</time></trkpt><trkpt lat="43.4005636" lon="11.7512271"><ele>285.0</ele><time>2026-03-29T10:12:44.661Z</time></trkpt><trkpt lat="43.4008311" lon="11.7511095"><ele>285.0</ele><time>2026-03-29T10:12:45.659Z</time></trkpt><trkpt lat="43.4011015" lon="11.7509844"><ele>288.0</ele><time>2026-03-29T10:12:46.677Z</time></trkpt><trkpt lat="43.401363" lon="11.7508645"><ele>291.0</ele><time>2026-03-29T10:12:47.659Z</time></trkpt><trkpt lat="43.4016175" lon="11.7507459"><ele>291.0</ele><time>2026-03-29T10:12:48.654Z</time></trkpt><trkpt lat="43.4018581" lon="11.7506297"><ele>291.0</ele><time>2026-03-29T10:12:49.648Z</time></trkpt><trkpt lat="43.4020943" lon="11.7505168"><ele>291.5</ele><time>2026-03-29T10:12:50.658Z</time></trkpt><trkpt lat="43.402316" lon="11.7504106"><ele>292.0</ele><time>2026-03-29T10:12:51.64Z</time></trkpt><trkpt lat="43.4025471" lon="11.7503037"><ele>292.0</ele><time>2026-03-29T10:12:52.672Z</time></trkpt><trkpt lat="43.4027765" lon="11.7502115"><ele>292.0</ele><time>2026-03-29T10:12:53.656Z</time></trkpt><trkpt lat="43.4030159" lon="11.7501353"><ele>292.5</ele><time>2026-03-29T10:12:54.652Z</time></trkpt><trkpt lat="43.4032666" lon="11.7500641"><ele>293.0</ele><time>2026-03-29T10:12:55.664Z</time></trkpt><trkpt lat="43.4035273" lon="11.7499899"><ele>293.0</ele><time>2026-03-29T10:12:56.665Z</time></trkpt><trkpt lat="43.4037841" lon="11.7499064"><ele>293.0</ele><time>2026-03-29T10:12:57.658Z</time></trkpt><trkpt lat="43.4040472" lon="11.7498258"><ele>294.0</ele><time>2026-03-29T10:12:58.686Z</time></trkpt><trkpt lat="43.4042812" lon="11.7497465"><ele>295.0</ele><time>2026-03-29T10:12:59.654Z</time></trkpt><trkpt lat="43.4045134" lon="11.7496677"><ele>296.0</ele><time>2026-03-29T10:13:00.648Z</time></trkpt><trkpt lat="43.4047383" lon="11.7495947"><ele>297.0</ele><time>2026-03-29T10:13:01.655Z</time></trkpt><trkpt lat="43.4049688" lon="11.7495322"><ele>297.0</ele><time>2026-03-29T10:13:02.657Z</time></trkpt><trkpt lat="43.4052112" lon="11.7494864"><ele>297.0</ele><time>2026-03-29T10:13:03.667Z</time></trkpt><trkpt lat="43.4054371" lon="11.7494807"><ele>298.0</ele><time>2026-03-29T10:13:04.655Z</time></trkpt><trkpt lat="43.4056602" lon="11.7494982"><ele>299.0</ele><time>2026-03-29T10:13:05.648Z</time></trkpt><trkpt lat="43.4058838" lon="11.7495292"><ele>300.0</ele><time>2026-03-29T10:13:06.644Z</time></trkpt><trkpt lat="43.4061106" lon="11.7495598"><ele>301.3333333333333</ele><time>2026-03-29T10:13:07.659Z</time></trkpt><trkpt lat="43.4063319" lon="11.7495898"><ele>302.66666666666663</ele><time>2026-03-29T10:13:08.652Z</time></trkpt><trkpt lat="43.4065453" lon="11.7496331"><ele>304.0</ele><time>2026-03-29T10:13:09.655Z</time></trkpt><trkpt lat="43.4067455" lon="11.7496894"><ele>304.0</ele><time>2026-03-29T10:13:10.652Z</time></trkpt><trkpt lat="43.4069555" lon="11.7497829"><ele>304.0</ele><time>2026-03-29T10:13:11.665Z</time></trkpt><trkpt lat="43.4071382" lon="11.7498911"><ele>304.0</ele><time>2026-03-29T10:13:12.667Z</time></trkpt><trkpt lat="43.4072833" lon="11.7499708"><ele>304.75</ele><time>2026-03-29T10:13:13.655Z</time></trkpt><trkpt lat="43.4074234" lon="11.7500257"><ele>305.5</ele><time>2026-03-29T10:13:14.659Z</time></trkpt><trkpt lat="43.4075726" lon="11.7500498"><ele>306.25</ele><time>2026-03-29T10:13:15.7Z</time></trkpt><trkpt lat="43.4077161" lon="11.7500193"><ele>307.0</ele><time>2026-03-29T10:13:16.694Z</time></trkpt><trkpt lat="43.4078298" lon="11.7499552"><ele>307.0</ele><time>2026-03-29T10:13:17.694Z</time></trkpt><trkpt lat="43.4079925" lon="11.7498643"><ele>307.0</ele><time>2026-03-29T10:13:18.659Z</time></trkpt><trkpt lat="43.4081773" lon="11.7497389"><ele>307.0</ele><time>2026-03-29T10:13:19.697Z</time></trkpt><trkpt lat="43.4083294" lon="11.7496284"><ele>307.66666666666663</ele><time>2026-03-29T10:13:20.668Z</time></trkpt><trkpt lat="43.4084859" lon="11.749519"><ele>308.3333333333333</ele><time>2026-03-29T10:13:21.664Z</time></trkpt><trkpt lat="43.4086188" lon="11.7494392"><ele>309.0</ele><time>2026-03-29T10:13:22.656Z</time></trkpt><trkpt lat="43.4087435" lon="11.7493495"><ele>309.4</ele><time>2026-03-29T10:13:23.654Z</time></trkpt><trkpt lat="43.4088508" lon="11.7492658"><ele>309.79999999999995</ele><time>2026-03-29T10:13:24.657Z</time></trkpt><trkpt lat="43.4089448" lon="11.7491839"><ele>310.20000000000005</ele><time>2026-03-29T10:13:25.663Z</time></trkpt><trkpt lat="43.4090284" lon="11.7491139"><ele>310.6</ele><time>2026-03-29T10:13:26.658Z</time></trkpt><trkpt lat="43.4091072" lon="11.7490548"><ele>311.0</ele><time>2026-03-29T10:13:27.66Z</time></trkpt><trkpt lat="43.4091775" lon="11.7490109"><ele>311.0</ele><time>2026-03-29T10:13:28.653Z</time></trkpt><trkpt lat="43.409251" lon="11.7489619"><ele>311.0</ele><time>2026-03-29T10:13:29.663Z</time></trkpt><trkpt lat="43.4093141" lon="11.7489251"><ele>311.0</ele><time>2026-03-29T10:13:30.645Z</time></trkpt><trkpt lat="43.4093758" lon="11.7488968"><ele>311.0</ele><time>2026-03-29T10:13:31.647Z</time></trkpt><trkpt lat="43.4094836" lon="11.7488755"><ele>311.0</ele><time>2026-03-29T10:13:33.661Z</time></trkpt><trkpt lat="43.4095718" lon="11.7488274"><ele>311.0</ele><time>2026-03-29T10:13:35.669Z</time></trkpt><trkpt lat="43.4095843" lon="11.748665"><ele>311.0</ele><time>2026-03-29T10:13:38.674Z</time></trkpt><trkpt lat="43.4095839" lon="11.7485749"><ele>311.0</ele><time>2026-03-29T10:13:39.662Z</time></trkpt><trkpt lat="43.409574" lon="11.7484546"><ele>311.0</ele><time>2026-03-29T10:13:40.669Z</time></trkpt><trkpt lat="43.4095688" lon="11.7482955"><ele>311.0</ele><time>2026-03-29T10:13:41.648Z</time></trkpt><trkpt lat="43.4095775" lon="11.7481194"><ele>311.0</ele><time>2026-03-29T10:13:42.655Z</time></trkpt><trkpt lat="43.4095904" lon="11.7479034"><ele>312.6666666666667</ele><time>2026-03-29T10:13:43.661Z</time></trkpt><trkpt lat="43.4096036" lon="11.7476431"><ele>314.3333333333333</ele><time>2026-03-29T10:13:44.657Z</time></trkpt><trkpt lat="43.4096225" lon="11.7474152"><ele>316.0</ele><time>2026-03-29T10:13:45.651Z</time></trkpt><trkpt lat="43.4096513" lon="11.7471762"><ele>318.3333333333333</ele><time>2026-03-29T10:13:46.654Z</time></trkpt><trkpt lat="43.4096853" lon="11.7469186"><ele>320.6666666666667</ele><time>2026-03-29T10:13:47.666Z</time></trkpt><trkpt lat="43.4097289" lon="11.7466926"><ele>323.0</ele><time>2026-03-29T10:13:48.655Z</time></trkpt><trkpt lat="43.4097656" lon="11.7464776"><ele>324.0</ele><time>2026-03-29T10:13:49.661Z</time></trkpt><trkpt lat="43.4097976" lon="11.7462835"><ele>325.0</ele><time>2026-03-29T10:13:50.686Z</time></trkpt><trkpt lat="43.4098305" lon="11.746114"><ele>326.0</ele><time>2026-03-29T10:13:51.652Z</time></trkpt><trkpt lat="43.4098622" lon="11.7459448"><ele>327.0</ele><time>2026-03-29T10:13:52.652Z</time></trkpt><trkpt lat="43.4098928" lon="11.7457713"><ele>327.5</ele><time>2026-03-29T10:13:53.659Z</time></trkpt><trkpt lat="43.4099262" lon="11.7455883"><ele>328.0</ele><time>2026-03-29T10:13:54.664Z</time></trkpt><trkpt lat="43.4099598" lon="11.7453986"><ele>328.5</ele><time>2026-03-29T10:13:55.665Z</time></trkpt><trkpt lat="43.4099922" lon="11.7452047"><ele>329.0</ele><time>2026-03-29T10:13:56.66Z</time></trkpt><trkpt lat="43.4100249" lon="11.7450024"><ele>329.75</ele><time>2026-03-29T10:13:57.655Z</time></trkpt><trkpt lat="43.4100552" lon="11.7448052"><ele>330.5</ele><time>2026-03-29T10:13:58.647Z</time></trkpt><trkpt lat="43.4100828" lon="11.744612"><ele>331.25</ele><time>2026-03-29T10:13:59.669Z</time></trkpt><trkpt lat="43.4101116" lon="11.7444182"><ele>332.0</ele><time>2026-03-29T10:14:00.663Z</time></trkpt><trkpt lat="43.4101399" lon="11.7442199"><ele>333.33333333333337</ele><time>2026-03-29T10:14:01.654Z</time></trkpt><trkpt lat="43.4101692" lon="11.744026"><ele>334.6666666666667</ele><time>2026-03-29T10:14:02.644Z</time></trkpt><trkpt lat="43.4102317" lon="11.7437889"><ele>336.0</ele><time>2026-03-29T10:14:03.662Z</time></trkpt><trkpt lat="43.4103069" lon="11.7435531"><ele>334.0</ele><time>2026-03-29T10:14:04.667Z</time></trkpt><trkpt lat="43.4103897" lon="11.7433283"><ele>332.0</ele><time>2026-03-29T10:14:05.657Z</time></trkpt><trkpt lat="43.4104741" lon="11.7431084"><ele>330.0</ele><time>2026-03-29T10:14:06.654Z</time></trkpt><trkpt lat="43.410553" lon="11.7429206"><ele>333.6666666666667</ele><time>2026-03-29T10:14:07.651Z</time></trkpt><trkpt lat="43.4106461" lon="11.7427224"><ele>337.33333333333337</ele><time>2026-03-29T10:14:08.692Z</time></trkpt><trkpt lat="43.4107525" lon="11.742523"><ele>341.0</ele><time>2026-03-29T10:14:09.648Z</time></trkpt><trkpt lat="43.4108722" lon="11.7423107"><ele>341.0</ele><time>2026-03-29T10:14:10.662Z</time></trkpt><trkpt lat="43.4110017" lon="11.7420832"><ele>341.0</ele><time>2026-03-29T10:14:11.678Z</time></trkpt><trkpt lat="43.4111374" lon="11.7418448"><ele>341.0</ele><time>2026-03-29T10:14:12.661Z</time></trkpt><trkpt lat="43.4112809" lon="11.7415784"><ele>339.33333333333337</ele><time>2026-03-29T10:14:13.717Z</time></trkpt><trkpt lat="43.4114118" lon="11.7413478"><ele>337.6666666666667</ele><time>2026-03-29T10:14:14.663Z</time></trkpt><trkpt lat="43.4115527" lon="11.7411028"><ele>336.0</ele><time>2026-03-29T10:14:15.666Z</time></trkpt><trkpt lat="43.4116941" lon="11.7408491"><ele>336.0</ele><time>2026-03-29T10:14:16.66Z</time></trkpt><trkpt lat="43.4118507" lon="11.7405781"><ele>336.0</ele><time>2026-03-29T10:14:17.695Z</time></trkpt><trkpt lat="43.4119906" lon="11.7403302"><ele>336.5</ele><time>2026-03-29T10:14:18.661Z</time></trkpt><trkpt lat="43.4121288" lon="11.7400809"><ele>337.0</ele><time>2026-03-29T10:14:19.657Z</time></trkpt><trkpt lat="43.4122626" lon="11.7398349"><ele>337.0</ele><time>2026-03-29T10:14:20.645Z</time></trkpt><trkpt lat="43.4124016" lon="11.7395893"><ele>337.0</ele><time>2026-03-29T10:14:21.652Z</time></trkpt><trkpt lat="43.4125363" lon="11.7393651"><ele>337.0</ele><time>2026-03-29T10:14:22.661Z</time></trkpt><trkpt lat="43.4126847" lon="11.7391482"><ele>334.5</ele><time>2026-03-29T10:14:23.645Z</time></trkpt><trkpt lat="43.4128483" lon="11.7389313"><ele>332.0</ele><time>2026-03-29T10:14:24.651Z</time></trkpt><trkpt lat="43.413011" lon="11.7387125"><ele>329.33333333333337</ele><time>2026-03-29T10:14:25.677Z</time></trkpt><trkpt lat="43.4131704" lon="11.7385071"><ele>326.6666666666667</ele><time>2026-03-29T10:14:26.66Z</time></trkpt><trkpt lat="43.4133346" lon="11.738299"><ele>324.0</ele><time>2026-03-29T10:14:27.675Z</time></trkpt><trkpt lat="43.4134967" lon="11.7380922"><ele>324.0</ele><time>2026-03-29T10:14:28.681Z</time></trkpt><trkpt lat="43.4136538" lon="11.7378896"><ele>324.0</ele><time>2026-03-29T10:14:29.647Z</time></trkpt><trkpt lat="43.4138242" lon="11.7376787"><ele>324.0</ele><time>2026-03-29T10:14:30.664Z</time></trkpt><trkpt lat="43.4139982" lon="11.7374737"><ele>324.5</ele><time>2026-03-29T10:14:31.66Z</time></trkpt><trkpt lat="43.4141875" lon="11.7372717"><ele>325.0</ele><time>2026-03-29T10:14:32.66Z</time></trkpt><trkpt lat="43.4143853" lon="11.7370821"><ele>325.0</ele><time>2026-03-29T10:14:33.68Z</time></trkpt><trkpt lat="43.4145741" lon="11.7369091"><ele>325.0</ele><time>2026-03-29T10:14:34.658Z</time></trkpt><trkpt lat="43.4147748" lon="11.7367422"><ele>323.5</ele><time>2026-03-29T10:14:35.652Z</time></trkpt><trkpt lat="43.4149632" lon="11.7365741"><ele>322.0</ele><time>2026-03-29T10:14:36.662Z</time></trkpt><trkpt lat="43.4151569" lon="11.7363947"><ele>322.0</ele><time>2026-03-29T10:14:37.652Z</time></trkpt><trkpt lat="43.4153515" lon="11.7362199"><ele>322.0</ele><time>2026-03-29T10:14:38.667Z</time></trkpt><trkpt lat="43.4155362" lon="11.7360603"><ele>321.66666666666663</ele><time>2026-03-29T10:14:39.675Z</time></trkpt><trkpt lat="43.4157019" lon="11.7359073"><ele>321.3333333333333</ele><time>2026-03-29T10:14:40.675Z</time></trkpt><trkpt lat="43.4158378" lon="11.7357668"><ele>321.0</ele><time>2026-03-29T10:14:41.653Z</time></trkpt><trkpt lat="43.4159729" lon="11.735608"><ele>321.0</ele><time>2026-03-29T10:14:42.673Z</time></trkpt><trkpt lat="43.41606" lon="11.7354441"><ele>321.0</ele><time>2026-03-29T10:14:43.666Z</time></trkpt><trkpt lat="43.4161132" lon="11.735268"><ele>321.0</ele><time>2026-03-29T10:14:44.681Z</time></trkpt><trkpt lat="43.4161353" lon="11.7350989"><ele>321.0</ele><time>2026-03-29T10:14:45.668Z</time></trkpt><trkpt lat="43.4161434" lon="11.7349087"><ele>321.75</ele><time>2026-03-29T10:14:46.651Z</time></trkpt><trkpt lat="43.4161338" lon="11.7346949"><ele>322.5</ele><time>2026-03-29T10:14:47.718Z</time></trkpt><trkpt lat="43.4161236" lon="11.7345109"><ele>323.25</ele><time>2026-03-29T10:14:48.645Z</time></trkpt><trkpt lat="43.4161312" lon="11.7343386"><ele>324.0</ele><time>2026-03-29T10:14:49.657Z</time></trkpt><trkpt lat="43.4161724" lon="11.7341712"><ele>325.5</ele><time>2026-03-29T10:14:50.666Z</time></trkpt><trkpt lat="43.4162327" lon="11.7340427"><ele>327.0</ele><time>2026-03-29T10:14:51.66Z</time></trkpt><trkpt lat="43.4163136" lon="11.7339382"><ele>328.5</ele><time>2026-03-29T10:14:52.673Z</time></trkpt><trkpt lat="43.4164405" lon="11.7338106"><ele>330.0</ele><time>2026-03-29T10:14:53.661Z</time></trkpt><trkpt lat="43.4165712" lon="11.7337169"><ele>332.0</ele><time>2026-03-29T10:14:54.648Z</time></trkpt><trkpt lat="43.4167206" lon="11.7336256"><ele>334.0</ele><time>2026-03-29T10:14:55.659Z</time></trkpt><trkpt lat="43.4169062" lon="11.7335185"><ele>336.0</ele><time>2026-03-29T10:14:56.653Z</time></trkpt><trkpt lat="43.4170773" lon="11.733418"><ele>337.6666666666667</ele><time>2026-03-29T10:14:57.653Z</time></trkpt><trkpt lat="43.4172483" lon="11.7333156"><ele>339.33333333333337</ele><time>2026-03-29T10:14:58.656Z</time></trkpt><trkpt lat="43.4174201" lon="11.7332176"><ele>341.0</ele><time>2026-03-29T10:14:59.652Z</time></trkpt><trkpt lat="43.4175791" lon="11.7331274"><ele>341.0</ele><time>2026-03-29T10:15:00.665Z</time></trkpt><trkpt lat="43.4177326" lon="11.7330267"><ele>341.0</ele><time>2026-03-29T10:15:01.654Z</time></trkpt><trkpt lat="43.4178412" lon="11.7329218"><ele>341.0</ele><time>2026-03-29T10:15:02.668Z</time></trkpt><trkpt lat="43.4179408" lon="11.7327618"><ele>346.33333333333337</ele><time>2026-03-29T10:15:03.676Z</time></trkpt><trkpt lat="43.4180134" lon="11.7325775"><ele>351.6666666666667</ele><time>2026-03-29T10:15:04.661Z</time></trkpt><trkpt lat="43.4180348" lon="11.7323598"><ele>357.0</ele><time>2026-03-29T10:15:05.663Z</time></trkpt><trkpt lat="43.4180125" lon="11.7321248"><ele>355.0</ele><time>2026-03-29T10:15:06.66Z</time></trkpt><trkpt lat="43.4179525" lon="11.7319031"><ele>353.0</ele><time>2026-03-29T10:15:07.665Z</time></trkpt><trkpt lat="43.4178737" lon="11.7316885"><ele>351.0</ele><time>2026-03-29T10:15:08.662Z</time></trkpt><trkpt lat="43.4177817" lon="11.731482"><ele>351.0</ele><time>2026-03-29T10:15:09.663Z</time></trkpt><trkpt lat="43.4177165" lon="11.7312753"><ele>351.0</ele><time>2026-03-29T10:15:10.649Z</time></trkpt><trkpt lat="43.4176857" lon="11.7310569"><ele>351.0</ele><time>2026-03-29T10:15:11.656Z</time></trkpt><trkpt lat="43.4176828" lon="11.7308439"><ele>352.6666666666667</ele><time>2026-03-29T10:15:12.657Z</time></trkpt><trkpt lat="43.4177026" lon="11.7306316"><ele>354.33333333333337</ele><time>2026-03-29T10:15:13.663Z</time></trkpt><trkpt lat="43.4177482" lon="11.7304227"><ele>356.0</ele><time>2026-03-29T10:15:14.663Z</time></trkpt><trkpt lat="43.4178199" lon="11.7302259"><ele>358.5</ele><time>2026-03-29T10:15:15.642Z</time></trkpt><trkpt lat="43.4179099" lon="11.7300635"><ele>361.0</ele><time>2026-03-29T10:15:16.662Z</time></trkpt><trkpt lat="43.4180066" lon="11.7299327"><ele>363.5</ele><time>2026-03-29T10:15:17.661Z</time></trkpt><trkpt lat="43.4181302" lon="11.7297869"><ele>366.0</ele><time>2026-03-29T10:15:18.663Z</time></trkpt><trkpt lat="43.4182825" lon="11.7296448"><ele>369.0</ele><time>2026-03-29T10:15:19.682Z</time></trkpt><trkpt lat="43.4184381" lon="11.7294855"><ele>372.0</ele><time>2026-03-29T10:15:20.651Z</time></trkpt><trkpt lat="43.4185453" lon="11.7293011"><ele>375.0</ele><time>2026-03-29T10:15:21.659Z</time></trkpt><trkpt lat="43.4185614" lon="11.7291353"><ele>376.0</ele><time>2026-03-29T10:15:22.656Z</time></trkpt><trkpt lat="43.4185446" lon="11.7289225"><ele>377.0</ele><time>2026-03-29T10:15:23.72Z</time></trkpt><trkpt lat="43.4184862" lon="11.728768"><ele>378.0</ele><time>2026-03-29T10:15:24.672Z</time></trkpt><trkpt lat="43.4183748" lon="11.7286146"><ele>379.0</ele><time>2026-03-29T10:15:25.666Z</time></trkpt><trkpt lat="43.418233" lon="11.7285211"><ele>380.0</ele><time>2026-03-29T10:15:26.659Z</time></trkpt><trkpt lat="43.4180823" lon="11.7285235"><ele>381.0</ele><time>2026-03-29T10:15:27.709Z</time></trkpt><trkpt lat="43.4179201" lon="11.728587"><ele>382.0</ele><time>2026-03-29T10:15:28.661Z</time></trkpt><trkpt lat="43.4177597" lon="11.7287363"><ele>382.0</ele><time>2026-03-29T10:15:29.722Z</time></trkpt><trkpt lat="43.4176242" lon="11.7289396"><ele>382.0</ele><time>2026-03-29T10:15:30.707Z</time></trkpt><trkpt lat="43.4174914" lon="11.7291254"><ele>382.0</ele><time>2026-03-29T10:15:31.655Z</time></trkpt><trkpt lat="43.4173488" lon="11.7292577"><ele>382.0</ele><time>2026-03-29T10:15:32.702Z</time></trkpt><trkpt lat="43.4172132" lon="11.7292767"><ele>382.0</ele><time>2026-03-29T10:15:34.665Z</time></trkpt><trkpt lat="43.4171361" lon="11.7292317"><ele>382.0</ele><time>2026-03-29T10:15:35.663Z</time></trkpt><trkpt lat="43.41702" lon="11.729099"><ele>382.0</ele><time>2026-03-29T10:15:36.673Z</time></trkpt><trkpt lat="43.4169921" lon="11.7289443"><ele>382.5</ele><time>2026-03-29T10:15:37.652Z</time></trkpt><trkpt lat="43.417018" lon="11.7288008"><ele>383.0</ele><time>2026-03-29T10:15:38.657Z</time></trkpt><trkpt lat="43.4170871" lon="11.7286572"><ele>383.5</ele><time>2026-03-29T10:15:39.705Z</time></trkpt><trkpt lat="43.417214" lon="11.7285262"><ele>384.0</ele><time>2026-03-29T10:15:40.732Z</time></trkpt><trkpt lat="43.4173733" lon="11.7284101"><ele>389.0</ele><time>2026-03-29T10:15:41.709Z</time></trkpt><trkpt lat="43.4175333" lon="11.7282964"><ele>394.0</ele><time>2026-03-29T10:15:42.653Z</time></trkpt><trkpt lat="43.4177098" lon="11.7281608"><ele>399.0</ele><time>2026-03-29T10:15:43.688Z</time></trkpt><trkpt lat="43.4178816" lon="11.7280111"><ele>396.0</ele><time>2026-03-29T10:15:44.704Z</time></trkpt><trkpt lat="43.418019" lon="11.7278952"><ele>393.0</ele><time>2026-03-29T10:15:45.655Z</time></trkpt><trkpt lat="43.4182091" lon="11.7278294"><ele>390.0</ele><time>2026-03-29T10:15:46.666Z</time></trkpt><trkpt lat="43.4184055" lon="11.7278029"><ele>390.0</ele><time>2026-03-29T10:15:47.647Z</time></trkpt><trkpt lat="43.418596" lon="11.7278238"><ele>390.0</ele><time>2026-03-29T10:15:48.646Z</time></trkpt><trkpt lat="43.4187743" lon="11.7278635"><ele>390.0</ele><time>2026-03-29T10:15:49.664Z</time></trkpt><trkpt lat="43.4189607" lon="11.7279389"><ele>394.0</ele><time>2026-03-29T10:15:50.651Z</time></trkpt><trkpt lat="43.4191122" lon="11.7280555"><ele>398.0</ele><time>2026-03-29T10:15:51.671Z</time></trkpt><trkpt lat="43.4192406" lon="11.7282192"><ele>402.0</ele><time>2026-03-29T10:15:52.665Z</time></trkpt><trkpt lat="43.4193684" lon="11.7284574"><ele>399.5</ele><time>2026-03-29T10:15:53.653Z</time></trkpt><trkpt lat="43.419489" lon="11.7287584"><ele>397.0</ele><time>2026-03-29T10:15:54.67Z</time></trkpt><trkpt lat="43.4196167" lon="11.7290883"><ele>403.0</ele><time>2026-03-29T10:15:55.662Z</time></trkpt><trkpt lat="43.4197587" lon="11.729427"><ele>409.0</ele><time>2026-03-29T10:15:56.707Z</time></trkpt><trkpt lat="43.4198721" lon="11.7297085"><ele>409.0</ele><time>2026-03-29T10:15:57.657Z</time></trkpt><trkpt lat="43.4199676" lon="11.7299584"><ele>409.0</ele><time>2026-03-29T10:15:58.67Z</time></trkpt><trkpt lat="43.4200232" lon="11.7301187"><ele>409.0</ele><time>2026-03-29T10:15:59.651Z</time></trkpt><trkpt lat="43.4200266" lon="11.7302772"><ele>409.0</ele><time>2026-03-29T10:16:01.662Z</time></trkpt><trkpt lat="43.420115" lon="11.7304014"><ele>409.25</ele><time>2026-03-29T10:16:02.659Z</time></trkpt><trkpt lat="43.4202312" lon="11.7304886"><ele>409.5</ele><time>2026-03-29T10:16:03.685Z</time></trkpt><trkpt lat="43.4203619" lon="11.7305302"><ele>409.75</ele><time>2026-03-29T10:16:04.668Z</time></trkpt><trkpt lat="43.4205031" lon="11.7305227"><ele>410.0</ele><time>2026-03-29T10:16:05.64Z</time></trkpt><trkpt lat="43.4206616" lon="11.7304558"><ele>410.0</ele><time>2026-03-29T10:16:06.651Z</time></trkpt><trkpt lat="43.4208132" lon="11.7303449"><ele>410.0</ele><time>2026-03-29T10:16:07.667Z</time></trkpt><trkpt lat="43.4209624" lon="11.7302201"><ele>410.0</ele><time>2026-03-29T10:16:08.67Z</time></trkpt><trkpt lat="43.421123" lon="11.7300749"><ele>413.3333333333333</ele><time>2026-03-29T10:16:09.65Z</time></trkpt><trkpt lat="43.4212762" lon="11.7299497"><ele>416.66666666666663</ele><time>2026-03-29T10:16:10.664Z</time></trkpt><trkpt lat="43.4214081" lon="11.7298495"><ele>420.0</ele><time>2026-03-29T10:16:11.65Z</time></trkpt><trkpt lat="43.4215263" lon="11.7297741"><ele>420.4</ele><time>2026-03-29T10:16:12.663Z</time></trkpt><trkpt lat="43.4216288" lon="11.7297088"><ele>420.8</ele><time>2026-03-29T10:16:13.645Z</time></trkpt><trkpt lat="43.4217218" lon="11.7296509"><ele>421.20000000000005</ele><time>2026-03-29T10:16:14.659Z</time></trkpt><trkpt lat="43.4218089" lon="11.7296004"><ele>421.6</ele><time>2026-03-29T10:16:15.663Z</time></trkpt><trkpt lat="43.421888" lon="11.729553"><ele>422.0</ele><time>2026-03-29T10:16:16.667Z</time></trkpt><trkpt lat="43.421967" lon="11.7295003"><ele>421.99999999999994</ele><time>2026-03-29T10:16:17.658Z</time></trkpt><trkpt lat="43.422043" lon="11.7294457"><ele>422.0</ele><time>2026-03-29T10:16:18.672Z</time></trkpt><trkpt lat="43.4221122" lon="11.7293775"><ele>422.0</ele><time>2026-03-29T10:16:19.658Z</time></trkpt><trkpt lat="43.4221723" lon="11.7292853"><ele>422.0</ele><time>2026-03-29T10:16:20.664Z</time></trkpt><trkpt lat="43.4221877" lon="11.7291834"><ele>421.99999999999994</ele><time>2026-03-29T10:16:21.683Z</time></trkpt><trkpt lat="43.4221768" lon="11.7290537"><ele>422.0</ele><time>2026-03-29T10:16:22.669Z</time></trkpt><trkpt lat="43.4221386" lon="11.7288872"><ele>423.66666666666663</ele><time>2026-03-29T10:16:23.672Z</time></trkpt><trkpt lat="43.4220711" lon="11.7287131"><ele>425.33333333333337</ele><time>2026-03-29T10:16:24.66Z</time></trkpt><trkpt lat="43.4219615" lon="11.7285418"><ele>427.0</ele><time>2026-03-29T10:16:25.667Z</time></trkpt><trkpt lat="43.4218384" lon="11.728348"><ele>427.0</ele><time>2026-03-29T10:16:26.663Z</time></trkpt><trkpt lat="43.4217429" lon="11.7281491"><ele>427.0</ele><time>2026-03-29T10:16:27.653Z</time></trkpt><trkpt lat="43.4216543" lon="11.7279512"><ele>427.0</ele><time>2026-03-29T10:16:28.653Z</time></trkpt><trkpt lat="43.4215683" lon="11.7277404"><ele>425.5</ele><time>2026-03-29T10:16:29.651Z</time></trkpt><trkpt lat="43.4214847" lon="11.727545"><ele>424.0</ele><time>2026-03-29T10:16:30.694Z</time></trkpt><trkpt lat="43.4214387" lon="11.7273632"><ele>422.5</ele><time>2026-03-29T10:16:31.7Z</time></trkpt><trkpt lat="43.4214521" lon="11.7272478"><ele>421.0</ele><time>2026-03-29T10:16:33.668Z</time></trkpt><trkpt lat="43.4215691" lon="11.7270579"><ele>421.0</ele><time>2026-03-29T10:16:35.671Z</time></trkpt><trkpt lat="43.4216509" lon="11.7270728"><ele>421.0</ele><time>2026-03-29T10:16:37.674Z</time></trkpt><trkpt lat="43.4216893" lon="11.7271939"><ele>421.0</ele><time>2026-03-29T10:16:39.718Z</time></trkpt><trkpt lat="43.4214766" lon="11.7267616"><ele>421.0</ele><time>2026-03-29T10:16:40.7Z</time></trkpt><trkpt lat="43.4214573" lon="11.7269003"><ele>421.0</ele><time>2026-03-29T10:16:41.706Z</time></trkpt><trkpt lat="43.4214369" lon="11.7271208"><ele>421.0</ele><time>2026-03-29T10:16:42.694Z</time></trkpt><trkpt lat="43.4213984" lon="11.7273569"><ele>421.0</ele><time>2026-03-29T10:16:43.695Z</time></trkpt><trkpt lat="43.421454" lon="11.7275628"><ele>421.0</ele><time>2026-03-29T10:16:44.708Z</time></trkpt><trkpt lat="43.4215341" lon="11.7276537"><ele>421.0</ele><time>2026-03-29T10:16:45.7Z</time></trkpt><trkpt lat="43.4216922" lon="11.7277473"><ele>421.0</ele><time>2026-03-29T10:16:46.663Z</time></trkpt><trkpt lat="43.422" lon="11.7278688"><ele>419.0</ele><time>2026-03-29T10:16:47.736Z</time></trkpt><trkpt lat="43.4223271" lon="11.7280034"><ele>417.0</ele><time>2026-03-29T10:16:48.665Z</time></trkpt><trkpt lat="43.4225186" lon="11.727944"><ele>417.0</ele><time>2026-03-29T10:16:49.653Z</time></trkpt><trkpt lat="43.4226037" lon="11.7277776"><ele>417.0</ele><time>2026-03-29T10:16:50.661Z</time></trkpt><trkpt lat="43.4226483" lon="11.7275687"><ele>417.0</ele><time>2026-03-29T10:16:51.657Z</time></trkpt><trkpt lat="43.4227432" lon="11.7273528"><ele>413.33333333333337</ele><time>2026-03-29T10:16:52.665Z</time></trkpt><trkpt lat="43.4228346" lon="11.7271238"><ele>409.6666666666667</ele><time>2026-03-29T10:16:53.67Z</time></trkpt><trkpt lat="43.4229523" lon="11.726964"><ele>406.0</ele><time>2026-03-29T10:16:54.655Z</time></trkpt><trkpt lat="43.4230876" lon="11.7268076"><ele>401.33333333333337</ele><time>2026-03-29T10:16:55.685Z</time></trkpt><trkpt lat="43.4232545" lon="11.7266751"><ele>396.66666666666663</ele><time>2026-03-29T10:16:56.649Z</time></trkpt><trkpt lat="43.4234271" lon="11.7265649"><ele>392.0</ele><time>2026-03-29T10:16:57.653Z</time></trkpt><trkpt lat="43.4236143" lon="11.7264904"><ele>392.0</ele><time>2026-03-29T10:16:58.665Z</time></trkpt><trkpt lat="43.4238074" lon="11.7264623"><ele>392.0</ele><time>2026-03-29T10:16:59.676Z</time></trkpt><trkpt lat="43.4239971" lon="11.726469"><ele>392.0</ele><time>2026-03-29T10:17:00.666Z</time></trkpt><trkpt lat="43.4241843" lon="11.7265023"><ele>391.5</ele><time>2026-03-29T10:17:01.649Z</time></trkpt><trkpt lat="43.4243519" lon="11.7265263"><ele>391.0</ele><time>2026-03-29T10:17:02.661Z</time></trkpt><trkpt lat="43.4245003" lon="11.72653"><ele>390.5</ele><time>2026-03-29T10:17:03.667Z</time></trkpt><trkpt lat="43.4246112" lon="11.7264975"><ele>390.0</ele><time>2026-03-29T10:17:04.667Z</time></trkpt><trkpt lat="43.424702" lon="11.7264317"><ele>390.0</ele><time>2026-03-29T10:17:05.676Z</time></trkpt><trkpt lat="43.4247688" lon="11.7263203"><ele>390.0</ele><time>2026-03-29T10:17:06.677Z</time></trkpt><trkpt lat="43.4248197" lon="11.7261954"><ele>390.0</ele><time>2026-03-29T10:17:07.657Z</time></trkpt><trkpt lat="43.4248519" lon="11.7260724"><ele>390.0</ele><time>2026-03-29T10:17:08.653Z</time></trkpt><trkpt lat="43.4248336" lon="11.7259488"><ele>390.0</ele><time>2026-03-29T10:17:09.679Z</time></trkpt><trkpt lat="43.4248084" lon="11.7258445"><ele>390.0</ele><time>2026-03-29T10:17:10.701Z</time></trkpt><trkpt lat="43.4247028" lon="11.7257252"><ele>390.0</ele><time>2026-03-29T10:17:11.723Z</time></trkpt><trkpt lat="43.4245736" lon="11.725622"><ele>390.0</ele><time>2026-03-29T10:17:12.749Z</time></trkpt><trkpt lat="43.4244134" lon="11.7255398"><ele>388.0</ele><time>2026-03-29T10:17:13.693Z</time></trkpt><trkpt lat="43.4242695" lon="11.725483"><ele>386.0</ele><time>2026-03-29T10:17:14.665Z</time></trkpt><trkpt lat="43.4240896" lon="11.7253905"><ele>384.0</ele><time>2026-03-29T10:17:15.662Z</time></trkpt><trkpt lat="43.4238815" lon="11.7252826"><ele>383.0</ele><time>2026-03-29T10:17:16.683Z</time></trkpt><trkpt lat="43.4236952" lon="11.7251895"><ele>382.0</ele><time>2026-03-29T10:17:17.694Z</time></trkpt><trkpt lat="43.4234967" lon="11.7250992"><ele>381.0</ele><time>2026-03-29T10:17:18.698Z</time></trkpt><trkpt lat="43.4233148" lon="11.7250349"><ele>381.0</ele><time>2026-03-29T10:17:19.656Z</time></trkpt><trkpt lat="43.423111" lon="11.7249716"><ele>381.0</ele><time>2026-03-29T10:17:20.65Z</time></trkpt><trkpt lat="43.4229325" lon="11.7249135"><ele>381.0</ele><time>2026-03-29T10:17:21.654Z</time></trkpt><trkpt lat="43.4227682" lon="11.7248365"><ele>380.0</ele><time>2026-03-29T10:17:22.661Z</time></trkpt><trkpt lat="43.4226169" lon="11.7247469"><ele>379.0</ele><time>2026-03-29T10:17:23.663Z</time></trkpt><trkpt lat="43.4224789" lon="11.7246456"><ele>378.0</ele><time>2026-03-29T10:17:24.691Z</time></trkpt><trkpt lat="43.4223728" lon="11.7245301"><ele>377.0</ele><time>2026-03-29T10:17:25.666Z</time></trkpt><trkpt lat="43.4222906" lon="11.7243726"><ele>376.0</ele><time>2026-03-29T10:17:26.665Z</time></trkpt><trkpt lat="43.4222483" lon="11.7241715"><ele>375.0</ele><time>2026-03-29T10:17:27.661Z</time></trkpt><trkpt lat="43.4222294" lon="11.7239312"><ele>375.0</ele><time>2026-03-29T10:17:28.662Z</time></trkpt><trkpt lat="43.4222415" lon="11.7236436"><ele>375.0</ele><time>2026-03-29T10:17:29.659Z</time></trkpt><trkpt lat="43.4222709" lon="11.7233042"><ele>372.5</ele><time>2026-03-29T10:17:30.662Z</time></trkpt><trkpt lat="43.4223114" lon="11.7229414"><ele>370.0</ele><time>2026-03-29T10:17:31.646Z</time></trkpt><trkpt lat="43.4223461" lon="11.7225595"><ele>368.0</ele><time>2026-03-29T10:17:32.653Z</time></trkpt><trkpt lat="43.4223897" lon="11.7221793"><ele>366.0</ele><time>2026-03-29T10:17:33.653Z</time></trkpt><trkpt lat="43.4224174" lon="11.7218424"><ele>365.6666666666667</ele><time>2026-03-29T10:17:34.666Z</time></trkpt><trkpt lat="43.4224318" lon="11.7215145"><ele>365.33333333333337</ele><time>2026-03-29T10:17:35.694Z</time></trkpt><trkpt lat="43.4224258" lon="11.7212362"><ele>365.0</ele><time>2026-03-29T10:17:36.662Z</time></trkpt><trkpt lat="43.4224005" lon="11.720954"><ele>365.33333333333337</ele><time>2026-03-29T10:17:37.67Z</time></trkpt><trkpt lat="43.4223681" lon="11.720698"><ele>365.6666666666667</ele><time>2026-03-29T10:17:38.657Z</time></trkpt><trkpt lat="43.4223493" lon="11.7204031"><ele>366.0</ele><time>2026-03-29T10:17:39.667Z</time></trkpt><trkpt lat="43.4223427" lon="11.720109"><ele>366.0</ele><time>2026-03-29T10:17:40.653Z</time></trkpt><trkpt lat="43.4223625" lon="11.7198093"><ele>366.0</ele><time>2026-03-29T10:17:41.66Z</time></trkpt><trkpt lat="43.4223989" lon="11.7195253"><ele>366.0</ele><time>2026-03-29T10:17:42.653Z</time></trkpt><trkpt lat="43.4224394" lon="11.7192496"><ele>363.3333333333333</ele><time>2026-03-29T10:17:43.673Z</time></trkpt><trkpt lat="43.4225063" lon="11.7189943"><ele>360.66666666666663</ele><time>2026-03-29T10:17:44.666Z</time></trkpt><trkpt lat="43.4225855" lon="11.7187672"><ele>358.0</ele><time>2026-03-29T10:17:45.658Z</time></trkpt><trkpt lat="43.422667" lon="11.7185404"><ele>355.66666666666663</ele><time>2026-03-29T10:17:46.668Z</time></trkpt><trkpt lat="43.4227286" lon="11.7183082"><ele>353.3333333333333</ele><time>2026-03-29T10:17:47.68Z</time></trkpt><trkpt lat="43.4227568" lon="11.7180942"><ele>351.0</ele><time>2026-03-29T10:17:48.656Z</time></trkpt><trkpt lat="43.4227576" lon="11.7178502"><ele>350.3333333333333</ele><time>2026-03-29T10:17:49.682Z</time></trkpt><trkpt lat="43.4227223" lon="11.7176245"><ele>349.66666666666663</ele><time>2026-03-29T10:17:50.667Z</time></trkpt><trkpt lat="43.4226445" lon="11.7173975"><ele>349.0</ele><time>2026-03-29T10:17:51.663Z</time></trkpt><trkpt lat="43.4225346" lon="11.7171519"><ele>350.3333333333333</ele><time>2026-03-29T10:17:52.693Z</time></trkpt><trkpt lat="43.4224084" lon="11.716899"><ele>351.6666666666667</ele><time>2026-03-29T10:17:53.702Z</time></trkpt><trkpt lat="43.4222821" lon="11.7166536"><ele>353.0</ele><time>2026-03-29T10:17:54.672Z</time></trkpt><trkpt lat="43.4221539" lon="11.7164018"><ele>350.33333333333337</ele><time>2026-03-29T10:17:55.686Z</time></trkpt><trkpt lat="43.4220304" lon="11.7161648"><ele>347.6666666666667</ele><time>2026-03-29T10:17:56.677Z</time></trkpt><trkpt lat="43.4219196" lon="11.7159617"><ele>345.0</ele><time>2026-03-29T10:17:57.648Z</time></trkpt><trkpt lat="43.421809" lon="11.7157648"><ele>344.6666666666667</ele><time>2026-03-29T10:17:58.672Z</time></trkpt><trkpt lat="43.4217172" lon="11.7155802"><ele>344.33333333333337</ele><time>2026-03-29T10:17:59.668Z</time></trkpt><trkpt lat="43.4216394" lon="11.7153834"><ele>344.0</ele><time>2026-03-29T10:18:00.667Z</time></trkpt><trkpt lat="43.4216023" lon="11.715155"><ele>344.0</ele><time>2026-03-29T10:18:01.682Z</time></trkpt><trkpt lat="43.4215836" lon="11.7149258"><ele>344.0</ele><time>2026-03-29T10:18:02.659Z</time></trkpt><trkpt lat="43.421613" lon="11.7146707"><ele>344.0</ele><time>2026-03-29T10:18:03.66Z</time></trkpt><trkpt lat="43.4216681" lon="11.7144349"><ele>343.33333333333337</ele><time>2026-03-29T10:18:04.671Z</time></trkpt><trkpt lat="43.4217603" lon="11.7142548"><ele>342.6666666666667</ele><time>2026-03-29T10:18:05.653Z</time></trkpt><trkpt lat="43.4218965" lon="11.7140345"><ele>342.0</ele><time>2026-03-29T10:18:06.664Z</time></trkpt><trkpt lat="43.4220471" lon="11.7138027"><ele>343.5</ele><time>2026-03-29T10:18:07.661Z</time></trkpt><trkpt lat="43.4221957" lon="11.7135555"><ele>345.0</ele><time>2026-03-29T10:18:08.66Z</time></trkpt><trkpt lat="43.4223361" lon="11.7133109"><ele>345.0</ele><time>2026-03-29T10:18:09.65Z</time></trkpt><trkpt lat="43.4224685" lon="11.7130729"><ele>345.0</ele><time>2026-03-29T10:18:10.66Z</time></trkpt><trkpt lat="43.4225649" lon="11.712846"><ele>345.0</ele><time>2026-03-29T10:18:11.677Z</time></trkpt><trkpt lat="43.4226313" lon="11.7126135"><ele>344.6666666666667</ele><time>2026-03-29T10:18:12.662Z</time></trkpt><trkpt lat="43.4226686" lon="11.7123464"><ele>344.33333333333337</ele><time>2026-03-29T10:18:13.715Z</time></trkpt><trkpt lat="43.4226769" lon="11.7120573"><ele>344.0</ele><time>2026-03-29T10:18:14.663Z</time></trkpt><trkpt lat="43.4226589" lon="11.7117693"><ele>344.0</ele><time>2026-03-29T10:18:15.662Z</time></trkpt><trkpt lat="43.4226378" lon="11.711471"><ele>344.0</ele><time>2026-03-29T10:18:16.652Z</time></trkpt><trkpt lat="43.4226157" lon="11.7111475"><ele>342.0</ele><time>2026-03-29T10:18:17.671Z</time></trkpt><trkpt lat="43.4226228" lon="11.7107953"><ele>340.0</ele><time>2026-03-29T10:18:18.658Z</time></trkpt><trkpt lat="43.4226579" lon="11.7104213"><ele>338.5</ele><time>2026-03-29T10:18:19.667Z</time></trkpt><trkpt lat="43.4227027" lon="11.7100464"><ele>337.0</ele><time>2026-03-29T10:18:20.669Z</time></trkpt><trkpt lat="43.4227537" lon="11.7096555"><ele>335.5</ele><time>2026-03-29T10:18:21.665Z</time></trkpt><trkpt lat="43.4228113" lon="11.7092679"><ele>334.0</ele><time>2026-03-29T10:18:22.668Z</time></trkpt><trkpt lat="43.4228758" lon="11.7088907"><ele>331.5</ele><time>2026-03-29T10:18:23.662Z</time></trkpt><trkpt lat="43.4229477" lon="11.7085206"><ele>329.0</ele><time>2026-03-29T10:18:24.648Z</time></trkpt><trkpt lat="43.4230176" lon="11.7081683"><ele>332.0</ele><time>2026-03-29T10:18:25.662Z</time></trkpt><trkpt lat="43.4230863" lon="11.707834"><ele>335.0</ele><time>2026-03-29T10:18:26.673Z</time></trkpt><trkpt lat="43.4231558" lon="11.7075319"><ele>335.0</ele><time>2026-03-29T10:18:27.657Z</time></trkpt><trkpt lat="43.4232181" lon="11.7072277"><ele>335.0</ele><time>2026-03-29T10:18:28.683Z</time></trkpt><trkpt lat="43.4232693" lon="11.7069482"><ele>335.0</ele><time>2026-03-29T10:18:29.654Z</time></trkpt><trkpt lat="43.4233109" lon="11.7066528"><ele>333.6666666666667</ele><time>2026-03-29T10:18:30.662Z</time></trkpt><trkpt lat="43.4233249" lon="11.7063659"><ele>332.3333333333333</ele><time>2026-03-29T10:18:31.667Z</time></trkpt><trkpt lat="43.4233257" lon="11.7060847"><ele>331.0</ele><time>2026-03-29T10:18:32.668Z</time></trkpt><trkpt lat="43.423308" lon="11.7058058"><ele>331.0</ele><time>2026-03-29T10:18:33.667Z</time></trkpt><trkpt lat="43.4232982" lon="11.705513"><ele>331.0</ele><time>2026-03-29T10:18:34.661Z</time></trkpt><trkpt lat="43.4233037" lon="11.705194"><ele>331.0</ele><time>2026-03-29T10:18:35.668Z</time></trkpt><trkpt lat="43.4233378" lon="11.7048483"><ele>330.5</ele><time>2026-03-29T10:18:36.658Z</time></trkpt><trkpt lat="43.423388" lon="11.7044982"><ele>330.0</ele><time>2026-03-29T10:18:37.686Z</time></trkpt><trkpt lat="43.423437" lon="11.7041768"><ele>328.5</ele><time>2026-03-29T10:18:38.668Z</time></trkpt><trkpt lat="43.4234789" lon="11.7038659"><ele>327.0</ele><time>2026-03-29T10:18:39.668Z</time></trkpt><trkpt lat="43.4235174" lon="11.7035666"><ele>326.6666666666667</ele><time>2026-03-29T10:18:40.674Z</time></trkpt><trkpt lat="43.423551" lon="11.703288"><ele>326.33333333333337</ele><time>2026-03-29T10:18:41.66Z</time></trkpt><trkpt lat="43.4235816" lon="11.7030173"><ele>326.0</ele><time>2026-03-29T10:18:42.652Z</time></trkpt><trkpt lat="43.4235961" lon="11.7027368"><ele>325.33333333333337</ele><time>2026-03-29T10:18:43.685Z</time></trkpt><trkpt lat="43.4235881" lon="11.7024706"><ele>324.6666666666667</ele><time>2026-03-29T10:18:44.656Z</time></trkpt><trkpt lat="43.4235451" lon="11.7022002"><ele>324.0</ele><time>2026-03-29T10:18:45.659Z</time></trkpt><trkpt lat="43.423479" lon="11.7019455"><ele>324.3333333333333</ele><time>2026-03-29T10:18:46.647Z</time></trkpt><trkpt lat="43.4234056" lon="11.7016938"><ele>324.66666666666663</ele><time>2026-03-29T10:18:47.655Z</time></trkpt><trkpt lat="43.4233342" lon="11.70146"><ele>325.0</ele><time>2026-03-29T10:18:48.662Z</time></trkpt><trkpt lat="43.4232816" lon="11.7011984"><ele>324.0</ele><time>2026-03-29T10:18:49.702Z</time></trkpt><trkpt lat="43.4232573" lon="11.7009393"><ele>323.0</ele><time>2026-03-29T10:18:50.658Z</time></trkpt><trkpt lat="43.4232515" lon="11.7006364"><ele>322.0</ele><time>2026-03-29T10:18:51.659Z</time></trkpt><trkpt lat="43.4232809" lon="11.700278"><ele>321.5</ele><time>2026-03-29T10:18:52.67Z</time></trkpt><trkpt lat="43.4233127" lon="11.6998902"><ele>321.0</ele><time>2026-03-29T10:18:53.7Z</time></trkpt><trkpt lat="43.4233369" lon="11.6995036"><ele>320.0</ele><time>2026-03-29T10:18:54.708Z</time></trkpt><trkpt lat="43.4233392" lon="11.69916"><ele>319.0</ele><time>2026-03-29T10:18:55.672Z</time></trkpt><trkpt lat="43.4233352" lon="11.6988084"><ele>319.5</ele><time>2026-03-29T10:18:56.681Z</time></trkpt><trkpt lat="43.4233318" lon="11.6984719"><ele>320.0</ele><time>2026-03-29T10:18:57.659Z</time></trkpt><trkpt lat="43.4233311" lon="11.6981673"><ele>320.0</ele><time>2026-03-29T10:18:58.659Z</time></trkpt><trkpt lat="43.4233243" lon="11.697875"><ele>320.0</ele><time>2026-03-29T10:18:59.665Z</time></trkpt><trkpt lat="43.4233105" lon="11.6975926"><ele>320.0</ele><time>2026-03-29T10:19:00.659Z</time></trkpt><trkpt lat="43.4232772" lon="11.6973033"><ele>320.0</ele><time>2026-03-29T10:19:01.666Z</time></trkpt><trkpt lat="43.4232282" lon="11.6970188"><ele>320.0</ele><time>2026-03-29T10:19:02.656Z</time></trkpt><trkpt lat="43.4231711" lon="11.6967344"><ele>320.0</ele><time>2026-03-29T10:19:03.679Z</time></trkpt><trkpt lat="43.4231197" lon="11.6964656"><ele>320.0</ele><time>2026-03-29T10:19:04.664Z</time></trkpt><trkpt lat="43.4230745" lon="11.6961959"><ele>320.0</ele><time>2026-03-29T10:19:05.679Z</time></trkpt><trkpt lat="43.423047" lon="11.6959498"><ele>320.0</ele><time>2026-03-29T10:19:06.652Z</time></trkpt><trkpt lat="43.4230485" lon="11.6956845"><ele>319.33333333333337</ele><time>2026-03-29T10:19:07.666Z</time></trkpt><trkpt lat="43.4230866" lon="11.6953945"><ele>318.6666666666667</ele><time>2026-03-29T10:19:08.663Z</time></trkpt><trkpt lat="43.4231388" lon="11.6950868"><ele>318.0</ele><time>2026-03-29T10:19:09.664Z</time></trkpt><trkpt lat="43.4232474" lon="11.6947393"><ele>313.5</ele><time>2026-03-29T10:19:10.666Z</time></trkpt><trkpt lat="43.4233581" lon="11.6943986"><ele>309.0</ele><time>2026-03-29T10:19:11.702Z</time></trkpt><trkpt lat="43.4234359" lon="11.6941163"><ele>309.0</ele><time>2026-03-29T10:19:12.67Z</time></trkpt><trkpt lat="43.4235036" lon="11.6938436"><ele>309.0</ele><time>2026-03-29T10:19:13.653Z</time></trkpt><trkpt lat="43.423578" lon="11.6935887"><ele>309.0</ele><time>2026-03-29T10:19:14.667Z</time></trkpt><trkpt lat="43.4236688" lon="11.6933536"><ele>308.6666666666667</ele><time>2026-03-29T10:19:15.665Z</time></trkpt><trkpt lat="43.4237983" lon="11.6931222"><ele>308.33333333333337</ele><time>2026-03-29T10:19:16.702Z</time></trkpt><trkpt lat="43.4239502" lon="11.6929059"><ele>308.0</ele><time>2026-03-29T10:19:17.664Z</time></trkpt><trkpt lat="43.4241243" lon="11.6926758"><ele>308.0</ele><time>2026-03-29T10:19:18.674Z</time></trkpt><trkpt lat="43.4242689" lon="11.6924524"><ele>308.0</ele><time>2026-03-29T10:19:19.689Z</time></trkpt><trkpt lat="43.4243793" lon="11.6922303"><ele>308.0</ele><time>2026-03-29T10:19:20.668Z</time></trkpt><trkpt lat="43.4244747" lon="11.6919835"><ele>307.0</ele><time>2026-03-29T10:19:21.672Z</time></trkpt><trkpt lat="43.424549" lon="11.6917303"><ele>306.0</ele><time>2026-03-29T10:19:22.664Z</time></trkpt><trkpt lat="43.4246215" lon="11.6914872"><ele>305.0</ele><time>2026-03-29T10:19:23.66Z</time></trkpt><trkpt lat="43.4246979" lon="11.6912551"><ele>306.33333333333337</ele><time>2026-03-29T10:19:24.658Z</time></trkpt><trkpt lat="43.4247636" lon="11.691037"><ele>307.6666666666667</ele><time>2026-03-29T10:19:25.657Z</time></trkpt><trkpt lat="43.4248006" lon="11.6908171"><ele>309.0</ele><time>2026-03-29T10:19:26.66Z</time></trkpt><trkpt lat="43.4248051" lon="11.6905873"><ele>309.0</ele><time>2026-03-29T10:19:27.676Z</time></trkpt><trkpt lat="43.4247757" lon="11.690359"><ele>309.0</ele><time>2026-03-29T10:19:28.663Z</time></trkpt><trkpt lat="43.4247082" lon="11.6901309"><ele>309.0</ele><time>2026-03-29T10:19:29.675Z</time></trkpt><trkpt lat="43.4246176" lon="11.6899138"><ele>307.6666666666667</ele><time>2026-03-29T10:19:30.661Z</time></trkpt><trkpt lat="43.4245081" lon="11.6896993"><ele>306.33333333333337</ele><time>2026-03-29T10:19:31.68Z</time></trkpt><trkpt lat="43.4244184" lon="11.689476"><ele>305.0</ele><time>2026-03-29T10:19:32.659Z</time></trkpt><trkpt lat="43.4243632" lon="11.6892411"><ele>304.33333333333337</ele><time>2026-03-29T10:19:33.663Z</time></trkpt><trkpt lat="43.424352" lon="11.6889938"><ele>303.6666666666667</ele><time>2026-03-29T10:19:34.679Z</time></trkpt><trkpt lat="43.4243603" lon="11.6887555"><ele>303.0</ele><time>2026-03-29T10:19:35.65Z</time></trkpt><trkpt lat="43.4243918" lon="11.6884987"><ele>302.3333333333333</ele><time>2026-03-29T10:19:36.7Z</time></trkpt><trkpt lat="43.424458" lon="11.688271"><ele>301.66666666666663</ele><time>2026-03-29T10:19:37.659Z</time></trkpt><trkpt lat="43.4245562" lon="11.6879888"><ele>301.0</ele><time>2026-03-29T10:19:38.689Z</time></trkpt><trkpt lat="43.4245942" lon="11.6877359"><ele>300.66666666666663</ele><time>2026-03-29T10:19:39.691Z</time></trkpt><trkpt lat="43.4246004" lon="11.6874901"><ele>300.3333333333333</ele><time>2026-03-29T10:19:40.668Z</time></trkpt><trkpt lat="43.4245709" lon="11.6872185"><ele>300.0</ele><time>2026-03-29T10:19:41.684Z</time></trkpt><trkpt lat="43.4244838" lon="11.6869272"><ele>300.0</ele><time>2026-03-29T10:19:42.674Z</time></trkpt><trkpt lat="43.4243929" lon="11.6866322"><ele>300.0</ele><time>2026-03-29T10:19:43.661Z</time></trkpt><trkpt lat="43.4242777" lon="11.6863159"><ele>300.0</ele><time>2026-03-29T10:19:44.666Z</time></trkpt><trkpt lat="43.4241665" lon="11.68598"><ele>300.0</ele><time>2026-03-29T10:19:45.668Z</time></trkpt><trkpt lat="43.4240696" lon="11.6856578"><ele>300.0</ele><time>2026-03-29T10:19:46.668Z</time></trkpt><trkpt lat="43.4239652" lon="11.6853361"><ele>300.0</ele><time>2026-03-29T10:19:47.657Z</time></trkpt><trkpt lat="43.4238615" lon="11.685015"><ele>298.3333333333333</ele><time>2026-03-29T10:19:48.693Z</time></trkpt><trkpt lat="43.4237754" lon="11.684726"><ele>296.66666666666663</ele><time>2026-03-29T10:19:49.67Z</time></trkpt><trkpt lat="43.4236957" lon="11.6844497"><ele>295.0</ele><time>2026-03-29T10:19:50.668Z</time></trkpt><trkpt lat="43.4236279" lon="11.6841761"><ele>294.3333333333333</ele><time>2026-03-29T10:19:51.671Z</time></trkpt><trkpt lat="43.4235886" lon="11.6839067"><ele>293.6666666666667</ele><time>2026-03-29T10:19:52.667Z</time></trkpt><trkpt lat="43.4235767" lon="11.683622"><ele>293.0</ele><time>2026-03-29T10:19:53.678Z</time></trkpt><trkpt lat="43.4235685" lon="11.6833457"><ele>293.0</ele><time>2026-03-29T10:19:54.664Z</time></trkpt><trkpt lat="43.423542" lon="11.6830687"><ele>293.0</ele><time>2026-03-29T10:19:55.662Z</time></trkpt><trkpt lat="43.4234811" lon="11.6827859"><ele>293.0</ele><time>2026-03-29T10:19:56.672Z</time></trkpt><trkpt lat="43.4233847" lon="11.6825013"><ele>293.0</ele><time>2026-03-29T10:19:57.679Z</time></trkpt><trkpt lat="43.423272" lon="11.6822075"><ele>293.0</ele><time>2026-03-29T10:19:58.695Z</time></trkpt><trkpt lat="43.4231551" lon="11.6819419"><ele>292.0</ele><time>2026-03-29T10:19:59.658Z</time></trkpt><trkpt lat="43.4230225" lon="11.6816726"><ele>291.0</ele><time>2026-03-29T10:20:00.664Z</time></trkpt><trkpt lat="43.4228983" lon="11.6814222"><ele>291.0</ele><time>2026-03-29T10:20:01.649Z</time></trkpt><trkpt lat="43.4227739" lon="11.6811682"><ele>291.0</ele><time>2026-03-29T10:20:02.648Z</time></trkpt><trkpt lat="43.4226457" lon="11.6809379"><ele>291.0</ele><time>2026-03-29T10:20:03.659Z</time></trkpt><trkpt lat="43.4225208" lon="11.6806972"><ele>291.0</ele><time>2026-03-29T10:20:04.66Z</time></trkpt><trkpt lat="43.4223824" lon="11.6804716"><ele>291.0</ele><time>2026-03-29T10:20:05.678Z</time></trkpt><trkpt lat="43.422257" lon="11.6802416"><ele>291.0</ele><time>2026-03-29T10:20:06.668Z</time></trkpt><trkpt lat="43.4221306" lon="11.6800329"><ele>290.0</ele><time>2026-03-29T10:20:07.669Z</time></trkpt><trkpt lat="43.4220338" lon="11.6798289"><ele>289.0</ele><time>2026-03-29T10:20:08.666Z</time></trkpt><trkpt lat="43.4219511" lon="11.6796114"><ele>288.0</ele><time>2026-03-29T10:20:09.657Z</time></trkpt><trkpt lat="43.4218872" lon="11.6793744"><ele>288.0</ele><time>2026-03-29T10:20:10.669Z</time></trkpt><trkpt lat="43.4218565" lon="11.6790778"><ele>288.0</ele><time>2026-03-29T10:20:11.677Z</time></trkpt><trkpt lat="43.4218538" lon="11.6787569"><ele>287.5</ele><time>2026-03-29T10:20:12.658Z</time></trkpt><trkpt lat="43.4218723" lon="11.6784203"><ele>287.0</ele><time>2026-03-29T10:20:13.675Z</time></trkpt><trkpt lat="43.4218834" lon="11.6781004"><ele>287.0</ele><time>2026-03-29T10:20:14.668Z</time></trkpt><trkpt lat="43.4218843" lon="11.6777934"><ele>287.0</ele><time>2026-03-29T10:20:15.661Z</time></trkpt><trkpt lat="43.4218839" lon="11.6774494"><ele>286.0</ele><time>2026-03-29T10:20:16.688Z</time></trkpt><trkpt lat="43.4218675" lon="11.677125"><ele>285.0</ele><time>2026-03-29T10:20:17.68Z</time></trkpt><trkpt lat="43.4218276" lon="11.6767991"><ele>284.0</ele><time>2026-03-29T10:20:18.692Z</time></trkpt><trkpt lat="43.4217847" lon="11.6764905"><ele>283.0</ele><time>2026-03-29T10:20:19.664Z</time></trkpt><trkpt lat="43.4217415" lon="11.676179"><ele>284.5</ele><time>2026-03-29T10:20:20.663Z</time></trkpt><trkpt lat="43.4217014" lon="11.6758616"><ele>286.0</ele><time>2026-03-29T10:20:21.67Z</time></trkpt><trkpt lat="43.4216612" lon="11.6755529"><ele>286.0</ele><time>2026-03-29T10:20:22.664Z</time></trkpt><trkpt lat="43.4216237" lon="11.6752208"><ele>286.0</ele><time>2026-03-29T10:20:23.67Z</time></trkpt><trkpt lat="43.4215798" lon="11.6748971"><ele>286.0</ele><time>2026-03-29T10:20:24.673Z</time></trkpt><trkpt lat="43.4215273" lon="11.6745847"><ele>286.0</ele><time>2026-03-29T10:20:25.662Z</time></trkpt><trkpt lat="43.421466" lon="11.67429"><ele>287.0</ele><time>2026-03-29T10:20:26.663Z</time></trkpt><trkpt lat="43.4214038" lon="11.6740158"><ele>288.0</ele><time>2026-03-29T10:20:27.655Z</time></trkpt><trkpt lat="43.4213466" lon="11.6737329"><ele>289.0</ele><time>2026-03-29T10:20:28.685Z</time></trkpt><trkpt lat="43.4212966" lon="11.6734851"><ele>286.3333333333333</ele><time>2026-03-29T10:20:29.673Z</time></trkpt><trkpt lat="43.4212477" lon="11.6732481"><ele>283.6666666666667</ele><time>2026-03-29T10:20:30.67Z</time></trkpt><trkpt lat="43.4212154" lon="11.6730146"><ele>281.0</ele><time>2026-03-29T10:20:31.655Z</time></trkpt><trkpt lat="43.4212079" lon="11.6727691"><ele>279.6666666666667</ele><time>2026-03-29T10:20:32.65Z</time></trkpt><trkpt lat="43.4212332" lon="11.6725099"><ele>278.3333333333333</ele><time>2026-03-29T10:20:33.674Z</time></trkpt><trkpt lat="43.4213032" lon="11.6722542"><ele>277.0</ele><time>2026-03-29T10:20:34.654Z</time></trkpt><trkpt lat="43.4214212" lon="11.6719518"><ele>279.5</ele><time>2026-03-29T10:20:35.709Z</time></trkpt><trkpt lat="43.4215851" lon="11.6716264"><ele>282.0</ele><time>2026-03-29T10:20:36.668Z</time></trkpt><trkpt lat="43.4217081" lon="11.6713594"><ele>282.0</ele><time>2026-03-29T10:20:37.666Z</time></trkpt><trkpt lat="43.4218061" lon="11.6711082"><ele>282.0</ele><time>2026-03-29T10:20:38.652Z</time></trkpt><trkpt lat="43.4218996" lon="11.670872"><ele>282.0</ele><time>2026-03-29T10:20:39.673Z</time></trkpt><trkpt lat="43.4219888" lon="11.6706269"><ele>283.0</ele><time>2026-03-29T10:20:40.665Z</time></trkpt><trkpt lat="43.4220744" lon="11.6703738"><ele>284.0</ele><time>2026-03-29T10:20:41.668Z</time></trkpt><trkpt lat="43.4221236" lon="11.6701035"><ele>285.0</ele><time>2026-03-29T10:20:42.652Z</time></trkpt><trkpt lat="43.4221523" lon="11.6698152"><ele>285.0</ele><time>2026-03-29T10:20:43.682Z</time></trkpt><trkpt lat="43.4221653" lon="11.6695494"><ele>285.0</ele><time>2026-03-29T10:20:44.659Z</time></trkpt><trkpt lat="43.4221705" lon="11.6692776"><ele>285.0</ele><time>2026-03-29T10:20:45.661Z</time></trkpt><trkpt lat="43.4221917" lon="11.6690055"><ele>283.3333333333333</ele><time>2026-03-29T10:20:46.668Z</time></trkpt><trkpt lat="43.4222314" lon="11.668732"><ele>281.66666666666663</ele><time>2026-03-29T10:20:47.662Z</time></trkpt><trkpt lat="43.4223047" lon="11.6684737"><ele>280.0</ele><time>2026-03-29T10:20:48.669Z</time></trkpt><trkpt lat="43.4223955" lon="11.6682092"><ele>279.5</ele><time>2026-03-29T10:20:49.654Z</time></trkpt><trkpt lat="43.4225132" lon="11.6679388"><ele>279.0</ele><time>2026-03-29T10:20:50.674Z</time></trkpt><trkpt lat="43.4226389" lon="11.6676672"><ele>276.5</ele><time>2026-03-29T10:20:51.662Z</time></trkpt><trkpt lat="43.4227875" lon="11.6673946"><ele>274.0</ele><time>2026-03-29T10:20:52.676Z</time></trkpt><trkpt lat="43.4229268" lon="11.6671289"><ele>274.5</ele><time>2026-03-29T10:20:53.662Z</time></trkpt><trkpt lat="43.4230637" lon="11.6668524"><ele>275.0</ele><time>2026-03-29T10:20:54.674Z</time></trkpt><trkpt lat="43.4231899" lon="11.6665847"><ele>275.0</ele><time>2026-03-29T10:20:55.678Z</time></trkpt><trkpt lat="43.4233108" lon="11.6663323"><ele>275.0</ele><time>2026-03-29T10:20:56.672Z</time></trkpt><trkpt lat="43.4234294" lon="11.6660847"><ele>275.0</ele><time>2026-03-29T10:20:57.663Z</time></trkpt><trkpt lat="43.4235495" lon="11.6658472"><ele>273.6666666666667</ele><time>2026-03-29T10:20:58.67Z</time></trkpt><trkpt lat="43.4236725" lon="11.6656323"><ele>272.3333333333333</ele><time>2026-03-29T10:20:59.657Z</time></trkpt><trkpt lat="43.4238036" lon="11.6654346"><ele>271.0</ele><time>2026-03-29T10:21:00.664Z</time></trkpt><trkpt lat="43.4239359" lon="11.6652506"><ele>269.66666666666663</ele><time>2026-03-29T10:21:01.658Z</time></trkpt><trkpt lat="43.4240699" lon="11.6650818"><ele>268.3333333333333</ele><time>2026-03-29T10:21:02.658Z</time></trkpt><trkpt lat="43.4242181" lon="11.6649335"><ele>267.0</ele><time>2026-03-29T10:21:03.684Z</time></trkpt><trkpt lat="43.4243737" lon="11.6648193"><ele>267.0</ele><time>2026-03-29T10:21:04.664Z</time></trkpt><trkpt lat="43.4245537" lon="11.6647292"><ele>267.0</ele><time>2026-03-29T10:21:05.689Z</time></trkpt><trkpt lat="43.4247743" lon="11.6646623"><ele>267.0</ele><time>2026-03-29T10:21:06.665Z</time></trkpt><trkpt lat="43.4250087" lon="11.6646011"><ele>268.0</ele><time>2026-03-29T10:21:07.673Z</time></trkpt><trkpt lat="43.4252506" lon="11.66453"><ele>269.0</ele><time>2026-03-29T10:21:08.665Z</time></trkpt><trkpt lat="43.4254897" lon="11.6644495"><ele>267.0</ele><time>2026-03-29T10:21:09.67Z</time></trkpt><trkpt lat="43.4257301" lon="11.6643626"><ele>265.0</ele><time>2026-03-29T10:21:10.689Z</time></trkpt><trkpt lat="43.4259561" lon="11.6642877"><ele>265.0</ele><time>2026-03-29T10:21:11.672Z</time></trkpt><trkpt lat="43.4261767" lon="11.6642084"><ele>265.0</ele><time>2026-03-29T10:21:12.669Z</time></trkpt><trkpt lat="43.4263928" lon="11.6641178"><ele>265.0</ele><time>2026-03-29T10:21:13.674Z</time></trkpt><trkpt lat="43.4266016" lon="11.6640064"><ele>265.0</ele><time>2026-03-29T10:21:14.679Z</time></trkpt><trkpt lat="43.4268056" lon="11.6638787"><ele>265.0</ele><time>2026-03-29T10:21:15.671Z</time></trkpt><trkpt lat="43.4270162" lon="11.6637379"><ele>263.0</ele><time>2026-03-29T10:21:16.678Z</time></trkpt><trkpt lat="43.4272219" lon="11.6635982"><ele>261.0</ele><time>2026-03-29T10:21:17.665Z</time></trkpt><trkpt lat="43.4274392" lon="11.6634505"><ele>261.0</ele><time>2026-03-29T10:21:18.697Z</time></trkpt><trkpt lat="43.4276533" lon="11.6633114"><ele>261.0</ele><time>2026-03-29T10:21:19.665Z</time></trkpt><trkpt lat="43.4278776" lon="11.6631787"><ele>260.5</ele><time>2026-03-29T10:21:20.665Z</time></trkpt><trkpt lat="43.4280955" lon="11.6630514"><ele>260.0</ele><time>2026-03-29T10:21:21.667Z</time></trkpt><trkpt lat="43.4283133" lon="11.662925"><ele>260.0</ele><time>2026-03-29T10:21:22.664Z</time></trkpt><trkpt lat="43.4285276" lon="11.6627973"><ele>260.0</ele><time>2026-03-29T10:21:23.677Z</time></trkpt><trkpt lat="43.4287183" lon="11.6626817"><ele>260.0</ele><time>2026-03-29T10:21:24.663Z</time></trkpt><trkpt lat="43.4289189" lon="11.6625432"><ele>259.33333333333337</ele><time>2026-03-29T10:21:25.683Z</time></trkpt><trkpt lat="43.429112" lon="11.6623938"><ele>258.6666666666667</ele><time>2026-03-29T10:21:26.695Z</time></trkpt><trkpt lat="43.4292897" lon="11.6622356"><ele>258.0</ele><time>2026-03-29T10:21:27.682Z</time></trkpt><trkpt lat="43.4294658" lon="11.6620636"><ele>258.0</ele><time>2026-03-29T10:21:28.679Z</time></trkpt><trkpt lat="43.429641" lon="11.6618881"><ele>258.0</ele><time>2026-03-29T10:21:29.674Z</time></trkpt><trkpt lat="43.4298046" lon="11.6617108"><ele>258.0</ele><time>2026-03-29T10:21:30.67Z</time></trkpt><trkpt lat="43.4299763" lon="11.6615353"><ele>258.0</ele><time>2026-03-29T10:21:31.672Z</time></trkpt><trkpt lat="43.4301581" lon="11.6613839"><ele>258.0</ele><time>2026-03-29T10:21:32.65Z</time></trkpt><trkpt lat="43.4303599" lon="11.6612548"><ele>258.0</ele><time>2026-03-29T10:21:33.671Z</time></trkpt><trkpt lat="43.4305593" lon="11.6611452"><ele>259.0</ele><time>2026-03-29T10:21:34.695Z</time></trkpt><trkpt lat="43.4307711" lon="11.6610829"><ele>260.0</ele><time>2026-03-29T10:21:35.679Z</time></trkpt><trkpt lat="43.4310032" lon="11.6610483"><ele>260.0</ele><time>2026-03-29T10:21:36.668Z</time></trkpt><trkpt lat="43.4312518" lon="11.6610514"><ele>260.0</ele><time>2026-03-29T10:21:37.677Z</time></trkpt><trkpt lat="43.4314916" lon="11.6610545"><ele>259.0</ele><time>2026-03-29T10:21:38.67Z</time></trkpt><trkpt lat="43.431701" lon="11.6610443"><ele>258.0</ele><time>2026-03-29T10:21:39.655Z</time></trkpt><trkpt lat="43.4319021" lon="11.6610266"><ele>257.0</ele><time>2026-03-29T10:21:40.669Z</time></trkpt><trkpt lat="43.4320912" lon="11.6610064"><ele>256.6666666666667</ele><time>2026-03-29T10:21:41.669Z</time></trkpt><trkpt lat="43.4322625" lon="11.6609762"><ele>256.3333333333333</ele><time>2026-03-29T10:21:42.708Z</time></trkpt><trkpt lat="43.4324096" lon="11.6609438"><ele>256.0</ele><time>2026-03-29T10:21:43.677Z</time></trkpt><trkpt lat="43.4325679" lon="11.6608859"><ele>256.0</ele><time>2026-03-29T10:21:44.658Z</time></trkpt><trkpt lat="43.4327262" lon="11.6608248"><ele>256.0</ele><time>2026-03-29T10:21:45.667Z</time></trkpt><trkpt lat="43.432882" lon="11.6607633"><ele>256.0</ele><time>2026-03-29T10:21:46.648Z</time></trkpt><trkpt lat="43.4330488" lon="11.6607054"><ele>256.3333333333333</ele><time>2026-03-29T10:21:47.676Z</time></trkpt><trkpt lat="43.4332084" lon="11.6606438"><ele>256.6666666666667</ele><time>2026-03-29T10:21:48.654Z</time></trkpt><trkpt lat="43.4333722" lon="11.6605948"><ele>257.0</ele><time>2026-03-29T10:21:49.675Z</time></trkpt><trkpt lat="43.433521" lon="11.6605547"><ele>257.0</ele><time>2026-03-29T10:21:50.672Z</time></trkpt><trkpt lat="43.4336692" lon="11.6605172"><ele>257.0</ele><time>2026-03-29T10:21:51.66Z</time></trkpt><trkpt lat="43.4338132" lon="11.6604775"><ele>257.0</ele><time>2026-03-29T10:21:52.689Z</time></trkpt><trkpt lat="43.4339457" lon="11.6604266"><ele>257.0</ele><time>2026-03-29T10:21:53.661Z</time></trkpt><trkpt lat="43.434093" lon="11.6603701"><ele>258.0</ele><time>2026-03-29T10:21:54.66Z</time></trkpt><trkpt lat="43.4342421" lon="11.660307"><ele>259.0</ele><time>2026-03-29T10:21:55.657Z</time></trkpt><trkpt lat="43.4343912" lon="11.6602468"><ele>260.0</ele><time>2026-03-29T10:21:56.663Z</time></trkpt><trkpt lat="43.4345352" lon="11.6601903"><ele>258.75</ele><time>2026-03-29T10:21:57.664Z</time></trkpt><trkpt lat="43.4346743" lon="11.6601253"><ele>257.5</ele><time>2026-03-29T10:21:58.664Z</time></trkpt><trkpt lat="43.4348184" lon="11.660068"><ele>256.25</ele><time>2026-03-29T10:21:59.663Z</time></trkpt><trkpt lat="43.4349644" lon="11.6600106"><ele>255.0</ele><time>2026-03-29T10:22:00.664Z</time></trkpt><trkpt lat="43.4351053" lon="11.6599502"><ele>255.0</ele><time>2026-03-29T10:22:01.667Z</time></trkpt><trkpt lat="43.435234" lon="11.6598981"><ele>255.0</ele><time>2026-03-29T10:22:02.663Z</time></trkpt><trkpt lat="43.4353548" lon="11.6598565"><ele>255.0</ele><time>2026-03-29T10:22:03.65Z</time></trkpt><trkpt lat="43.4354705" lon="11.6598165"><ele>255.0</ele><time>2026-03-29T10:22:04.662Z</time></trkpt><trkpt lat="43.4355789" lon="11.6597686"><ele>254.6</ele><time>2026-03-29T10:22:05.665Z</time></trkpt><trkpt lat="43.4356838" lon="11.6597259"><ele>254.2</ele><time>2026-03-29T10:22:06.678Z</time></trkpt><trkpt lat="43.4357765" lon="11.6596845"><ele>253.8</ele><time>2026-03-29T10:22:07.651Z</time></trkpt><trkpt lat="43.4358786" lon="11.6596448"><ele>253.4</ele><time>2026-03-29T10:22:08.664Z</time></trkpt><trkpt lat="43.435981" lon="11.659611"><ele>253.0</ele><time>2026-03-29T10:22:09.658Z</time></trkpt><trkpt lat="43.4360698" lon="11.659589"><ele>252.99999999999997</ele><time>2026-03-29T10:22:10.66Z</time></trkpt><trkpt lat="43.4361465" lon="11.6595572"><ele>253.0</ele><time>2026-03-29T10:22:11.675Z</time></trkpt><trkpt lat="43.4362118" lon="11.6595026"><ele>253.0</ele><time>2026-03-29T10:22:12.677Z</time></trkpt><trkpt lat="43.4362683" lon="11.6593746"><ele>253.0</ele><time>2026-03-29T10:22:14.656Z</time></trkpt><trkpt lat="43.436246" lon="11.6592576"><ele>252.99999999999997</ele><time>2026-03-29T10:22:16.683Z</time></trkpt><trkpt lat="43.4361965" lon="11.6591801"><ele>253.0</ele><time>2026-03-29T10:22:17.655Z</time></trkpt><trkpt lat="43.4361204" lon="11.6591055"><ele>253.25</ele><time>2026-03-29T10:22:18.684Z</time></trkpt><trkpt lat="43.4360175" lon="11.6590348"><ele>253.5</ele><time>2026-03-29T10:22:19.682Z</time></trkpt><trkpt lat="43.4359039" lon="11.658963"><ele>253.75</ele><time>2026-03-29T10:22:20.662Z</time></trkpt><trkpt lat="43.4357738" lon="11.6588622"><ele>254.0</ele><time>2026-03-29T10:22:21.689Z</time></trkpt><trkpt lat="43.4356478" lon="11.6587483"><ele>253.66666666666669</ele><time>2026-03-29T10:22:22.668Z</time></trkpt><trkpt lat="43.4354945" lon="11.6585888"><ele>253.33333333333331</ele><time>2026-03-29T10:22:23.667Z</time></trkpt><trkpt lat="43.4353645" lon="11.6584246"><ele>253.0</ele><time>2026-03-29T10:22:24.674Z</time></trkpt><trkpt lat="43.4352567" lon="11.6582432"><ele>253.0</ele><time>2026-03-29T10:22:25.666Z</time></trkpt><trkpt lat="43.4351923" lon="11.6580668"><ele>253.0</ele><time>2026-03-29T10:22:26.665Z</time></trkpt><trkpt lat="43.4351308" lon="11.6578206"><ele>253.0</ele><time>2026-03-29T10:22:27.667Z</time></trkpt><trkpt lat="43.4350985" lon="11.6575489"><ele>253.66666666666666</ele><time>2026-03-29T10:22:28.666Z</time></trkpt><trkpt lat="43.435099" lon="11.6572438"><ele>254.33333333333331</ele><time>2026-03-29T10:22:29.66Z</time></trkpt><trkpt lat="43.4351333" lon="11.6569369"><ele>255.0</ele><time>2026-03-29T10:22:30.659Z</time></trkpt><trkpt lat="43.435194" lon="11.6566054"><ele>256.0</ele><time>2026-03-29T10:22:31.7Z</time></trkpt><trkpt lat="43.4352661" lon="11.6562898"><ele>257.0</ele><time>2026-03-29T10:22:32.68Z</time></trkpt><trkpt lat="43.4353402" lon="11.6559834"><ele>258.33333333333337</ele><time>2026-03-29T10:22:33.67Z</time></trkpt><trkpt lat="43.4354062" lon="11.6556934"><ele>259.6666666666667</ele><time>2026-03-29T10:22:34.664Z</time></trkpt><trkpt lat="43.435467" lon="11.6554116"><ele>261.0</ele><time>2026-03-29T10:22:35.674Z</time></trkpt><trkpt lat="43.435513" lon="11.6551998"><ele>261.0</ele><time>2026-03-29T10:22:36.652Z</time></trkpt><trkpt lat="43.4355512" lon="11.655008"><ele>261.0</ele><time>2026-03-29T10:22:37.651Z</time></trkpt><trkpt lat="43.4355849" lon="11.6548197"><ele>261.0</ele><time>2026-03-29T10:22:38.662Z</time></trkpt><trkpt lat="43.4356181" lon="11.6546454"><ele>261.0</ele><time>2026-03-29T10:22:39.667Z</time></trkpt><trkpt lat="43.4356409" lon="11.6544726"><ele>262.5</ele><time>2026-03-29T10:22:40.686Z</time></trkpt><trkpt lat="43.4356692" lon="11.6542761"><ele>264.0</ele><time>2026-03-29T10:22:41.663Z</time></trkpt><trkpt lat="43.4356969" lon="11.6540903"><ele>265.5</ele><time>2026-03-29T10:22:42.668Z</time></trkpt><trkpt lat="43.4357251" lon="11.6539119"><ele>267.0</ele><time>2026-03-29T10:22:43.659Z</time></trkpt><trkpt lat="43.4357515" lon="11.6537289"><ele>267.6666666666667</ele><time>2026-03-29T10:22:44.673Z</time></trkpt><trkpt lat="43.4357803" lon="11.6535385"><ele>268.33333333333337</ele><time>2026-03-29T10:22:45.668Z</time></trkpt><trkpt lat="43.4358095" lon="11.6533251"><ele>269.0</ele><time>2026-03-29T10:22:46.688Z</time></trkpt><trkpt lat="43.4358434" lon="11.6531067"><ele>269.0</ele><time>2026-03-29T10:22:47.656Z</time></trkpt><trkpt lat="43.4358769" lon="11.6528925"><ele>269.0</ele><time>2026-03-29T10:22:48.653Z</time></trkpt><trkpt lat="43.4359109" lon="11.6526728"><ele>269.0</ele><time>2026-03-29T10:22:49.65Z</time></trkpt><trkpt lat="43.4359464" lon="11.6524505"><ele>269.6666666666667</ele><time>2026-03-29T10:22:50.665Z</time></trkpt><trkpt lat="43.4359821" lon="11.6522544"><ele>270.3333333333333</ele><time>2026-03-29T10:22:51.669Z</time></trkpt><trkpt lat="43.436022" lon="11.6520253"><ele>271.0</ele><time>2026-03-29T10:22:52.679Z</time></trkpt><trkpt lat="43.4360641" lon="11.6518099"><ele>272.0</ele><time>2026-03-29T10:22:53.681Z</time></trkpt><trkpt lat="43.4361" lon="11.6516089"><ele>273.0</ele><time>2026-03-29T10:22:54.67Z</time></trkpt><trkpt lat="43.4361502" lon="11.6513834"><ele>274.0</ele><time>2026-03-29T10:22:55.675Z</time></trkpt><trkpt lat="43.4362031" lon="11.651149"><ele>274.0</ele><time>2026-03-29T10:22:56.661Z</time></trkpt><trkpt lat="43.4362662" lon="11.6509041"><ele>274.0</ele><time>2026-03-29T10:22:57.676Z</time></trkpt><trkpt lat="43.436342" lon="11.6506573"><ele>274.0</ele><time>2026-03-29T10:22:58.665Z</time></trkpt><trkpt lat="43.4364328" lon="11.6504073"><ele>271.66666666666663</ele><time>2026-03-29T10:22:59.674Z</time></trkpt><trkpt lat="43.4365343" lon="11.6501518"><ele>269.3333333333333</ele><time>2026-03-29T10:23:00.668Z</time></trkpt><trkpt lat="43.436647" lon="11.6498878"><ele>267.0</ele><time>2026-03-29T10:23:01.65Z</time></trkpt><trkpt lat="43.4367697" lon="11.6496034"><ele>264.5</ele><time>2026-03-29T10:23:02.673Z</time></trkpt><trkpt lat="43.4368937" lon="11.6493289"><ele>262.0</ele><time>2026-03-29T10:23:03.674Z</time></trkpt><trkpt lat="43.4370151" lon="11.6490463"><ele>260.0</ele><time>2026-03-29T10:23:04.671Z</time></trkpt><trkpt lat="43.437136" lon="11.6487591"><ele>258.0</ele><time>2026-03-29T10:23:05.673Z</time></trkpt><trkpt lat="43.43725" lon="11.6484726"><ele>257.5</ele><time>2026-03-29T10:23:06.659Z</time></trkpt><trkpt lat="43.4373608" lon="11.6481863"><ele>257.0</ele><time>2026-03-29T10:23:07.666Z</time></trkpt><trkpt lat="43.4374671" lon="11.6479164"><ele>257.33333333333337</ele><time>2026-03-29T10:23:08.665Z</time></trkpt><trkpt lat="43.4375732" lon="11.6476496"><ele>257.6666666666667</ele><time>2026-03-29T10:23:09.673Z</time></trkpt><trkpt lat="43.4376769" lon="11.6473859"><ele>258.0</ele><time>2026-03-29T10:23:10.671Z</time></trkpt><trkpt lat="43.4377683" lon="11.6471276"><ele>257.3333333333333</ele><time>2026-03-29T10:23:11.682Z</time></trkpt><trkpt lat="43.4378397" lon="11.6468781"><ele>256.66666666666663</ele><time>2026-03-29T10:23:12.647Z</time></trkpt><trkpt lat="43.4378953" lon="11.6466241"><ele>256.0</ele><time>2026-03-29T10:23:13.649Z</time></trkpt><trkpt lat="43.4379315" lon="11.6463628"><ele>256.3333333333333</ele><time>2026-03-29T10:23:14.65Z</time></trkpt><trkpt lat="43.4379498" lon="11.6460937"><ele>256.6666666666667</ele><time>2026-03-29T10:23:15.668Z</time></trkpt><trkpt lat="43.4379517" lon="11.6458232"><ele>257.0</ele><time>2026-03-29T10:23:16.665Z</time></trkpt><trkpt lat="43.4379367" lon="11.6455387"><ele>257.0</ele><time>2026-03-29T10:23:17.665Z</time></trkpt><trkpt lat="43.4379097" lon="11.6452683"><ele>257.0</ele><time>2026-03-29T10:23:18.661Z</time></trkpt><trkpt lat="43.4378644" lon="11.6450114"><ele>257.0</ele><time>2026-03-29T10:23:19.658Z</time></trkpt><trkpt lat="43.4378003" lon="11.6447642"><ele>257.0</ele><time>2026-03-29T10:23:20.668Z</time></trkpt><trkpt lat="43.4377498" lon="11.6445266"><ele>257.0</ele><time>2026-03-29T10:23:21.665Z</time></trkpt><trkpt lat="43.4377092" lon="11.6442692"><ele>257.0</ele><time>2026-03-29T10:23:22.682Z</time></trkpt><trkpt lat="43.4376848" lon="11.6440131"><ele>256.0</ele><time>2026-03-29T10:23:23.669Z</time></trkpt><trkpt lat="43.4376768" lon="11.6437403"><ele>255.0</ele><time>2026-03-29T10:23:24.672Z</time></trkpt><trkpt lat="43.4376862" lon="11.6434612"><ele>254.0</ele><time>2026-03-29T10:23:25.676Z</time></trkpt><trkpt lat="43.4377205" lon="11.6431559"><ele>253.0</ele><time>2026-03-29T10:23:26.664Z</time></trkpt><trkpt lat="43.4377892" lon="11.6428329"><ele>252.0</ele><time>2026-03-29T10:23:27.716Z</time></trkpt><trkpt lat="43.4378647" lon="11.6425514"><ele>252.0</ele><time>2026-03-29T10:23:28.662Z</time></trkpt><trkpt lat="43.437946" lon="11.6422589"><ele>252.0</ele><time>2026-03-29T10:23:29.669Z</time></trkpt><trkpt lat="43.4380217" lon="11.6419749"><ele>252.0</ele><time>2026-03-29T10:23:30.663Z</time></trkpt><trkpt lat="43.4380944" lon="11.641687"><ele>250.0</ele><time>2026-03-29T10:23:31.676Z</time></trkpt><trkpt lat="43.4381627" lon="11.6414004"><ele>248.0</ele><time>2026-03-29T10:23:32.667Z</time></trkpt><trkpt lat="43.4382312" lon="11.6411054"><ele>246.0</ele><time>2026-03-29T10:23:33.664Z</time></trkpt><trkpt lat="43.4383077" lon="11.6407917"><ele>246.0</ele><time>2026-03-29T10:23:34.693Z</time></trkpt><trkpt lat="43.4383821" lon="11.6404967"><ele>246.0</ele><time>2026-03-29T10:23:35.657Z</time></trkpt><trkpt lat="43.4384608" lon="11.640189"><ele>247.0</ele><time>2026-03-29T10:23:36.66Z</time></trkpt><trkpt lat="43.4385382" lon="11.6398783"><ele>248.0</ele><time>2026-03-29T10:23:37.67Z</time></trkpt><trkpt lat="43.4386142" lon="11.6395719"><ele>251.5</ele><time>2026-03-29T10:23:38.665Z</time></trkpt><trkpt lat="43.4386896" lon="11.6392658"><ele>255.0</ele><time>2026-03-29T10:23:39.668Z</time></trkpt><trkpt lat="43.438766" lon="11.6389556"><ele>249.0</ele><time>2026-03-29T10:23:40.691Z</time></trkpt><trkpt lat="43.4388399" lon="11.6386691"><ele>243.0</ele><time>2026-03-29T10:23:41.665Z</time></trkpt><trkpt lat="43.4389208" lon="11.6383702"><ele>243.0</ele><time>2026-03-29T10:23:42.682Z</time></trkpt><trkpt lat="43.4390223" lon="11.63808"><ele>243.0</ele><time>2026-03-29T10:23:43.673Z</time></trkpt><trkpt lat="43.4391489" lon="11.6377966"><ele>244.5</ele><time>2026-03-29T10:23:44.666Z</time></trkpt><trkpt lat="43.4393089" lon="11.6375192"><ele>246.0</ele><time>2026-03-29T10:23:45.68Z</time></trkpt><trkpt lat="43.4394915" lon="11.6372515"><ele>244.5</ele><time>2026-03-29T10:23:46.681Z</time></trkpt><trkpt lat="43.4396646" lon="11.6370087"><ele>243.0</ele><time>2026-03-29T10:23:47.661Z</time></trkpt><trkpt lat="43.4398346" lon="11.6367739"><ele>243.0</ele><time>2026-03-29T10:23:48.67Z</time></trkpt><trkpt lat="43.4399973" lon="11.63654"><ele>243.0</ele><time>2026-03-29T10:23:49.695Z</time></trkpt><trkpt lat="43.4401479" lon="11.6363179"><ele>243.0</ele><time>2026-03-29T10:23:50.673Z</time></trkpt><trkpt lat="43.4402922" lon="11.6360925"><ele>243.0</ele><time>2026-03-29T10:23:51.673Z</time></trkpt><trkpt lat="43.4404308" lon="11.6358668"><ele>243.0</ele><time>2026-03-29T10:23:52.669Z</time></trkpt><trkpt lat="43.4405597" lon="11.6356636"><ele>243.0</ele><time>2026-03-29T10:23:53.657Z</time></trkpt><trkpt lat="43.4406899" lon="11.6354745"><ele>243.0</ele><time>2026-03-29T10:23:54.672Z</time></trkpt><trkpt lat="43.4408302" lon="11.6352889"><ele>243.0</ele><time>2026-03-29T10:23:55.666Z</time></trkpt><trkpt lat="43.4409814" lon="11.6351076"><ele>244.0</ele><time>2026-03-29T10:23:56.657Z</time></trkpt><trkpt lat="43.4411455" lon="11.6349264"><ele>245.0</ele><time>2026-03-29T10:23:57.668Z</time></trkpt><trkpt lat="43.4413091" lon="11.6347576"><ele>246.0</ele><time>2026-03-29T10:23:58.669Z</time></trkpt><trkpt lat="43.4414903" lon="11.6345996"><ele>243.66666666666669</ele><time>2026-03-29T10:23:59.683Z</time></trkpt><trkpt lat="43.4416681" lon="11.6344727"><ele>241.33333333333334</ele><time>2026-03-29T10:24:00.663Z</time></trkpt><trkpt lat="43.4418449" lon="11.6343553"><ele>239.0</ele><time>2026-03-29T10:24:01.669Z</time></trkpt><trkpt lat="43.4420105" lon="11.6342353"><ele>239.0</ele><time>2026-03-29T10:24:02.669Z</time></trkpt><trkpt lat="43.4421622" lon="11.6340988"><ele>239.0</ele><time>2026-03-29T10:24:03.679Z</time></trkpt><trkpt lat="43.442285" lon="11.6339386"><ele>239.0</ele><time>2026-03-29T10:24:04.677Z</time></trkpt><trkpt lat="43.442373" lon="11.6337541"><ele>238.66666666666669</ele><time>2026-03-29T10:24:05.668Z</time></trkpt><trkpt lat="43.4424428" lon="11.6335288"><ele>238.33333333333331</ele><time>2026-03-29T10:24:06.692Z</time></trkpt><trkpt lat="43.4424845" lon="11.633304"><ele>238.0</ele><time>2026-03-29T10:24:07.666Z</time></trkpt><trkpt lat="43.4424932" lon="11.6330536"><ele>238.33333333333331</ele><time>2026-03-29T10:24:08.679Z</time></trkpt><trkpt lat="43.4424658" lon="11.6327853"><ele>238.66666666666669</ele><time>2026-03-29T10:24:09.679Z</time></trkpt><trkpt lat="43.4424127" lon="11.6325166"><ele>239.0</ele><time>2026-03-29T10:24:10.681Z</time></trkpt><trkpt lat="43.4423628" lon="11.6322457"><ele>238.0</ele><time>2026-03-29T10:24:11.672Z</time></trkpt><trkpt lat="43.4423209" lon="11.6319582"><ele>237.0</ele><time>2026-03-29T10:24:12.686Z</time></trkpt><trkpt lat="43.4423111" lon="11.6316746"><ele>236.0</ele><time>2026-03-29T10:24:13.671Z</time></trkpt><trkpt lat="43.442346" lon="11.6313746"><ele>236.0</ele><time>2026-03-29T10:24:14.669Z</time></trkpt><trkpt lat="43.4424132" lon="11.6310865"><ele>236.0</ele><time>2026-03-29T10:24:15.678Z</time></trkpt><trkpt lat="43.4425086" lon="11.630852"><ele>236.0</ele><time>2026-03-29T10:24:16.657Z</time></trkpt><trkpt lat="43.4426399" lon="11.6306283"><ele>236.0</ele><time>2026-03-29T10:24:17.663Z</time></trkpt><trkpt lat="43.4428165" lon="11.6304272"><ele>236.0</ele><time>2026-03-29T10:24:18.695Z</time></trkpt><trkpt lat="43.4429952" lon="11.6302463"><ele>238.0</ele><time>2026-03-29T10:24:19.675Z</time></trkpt><trkpt lat="43.4431869" lon="11.6300687"><ele>240.0</ele><time>2026-03-29T10:24:20.669Z</time></trkpt><trkpt lat="43.4433791" lon="11.6298919"><ele>240.0</ele><time>2026-03-29T10:24:21.661Z</time></trkpt><trkpt lat="43.4435781" lon="11.6297107"><ele>240.0</ele><time>2026-03-29T10:24:22.67Z</time></trkpt><trkpt lat="43.4437875" lon="11.6295309"><ele>238.5</ele><time>2026-03-29T10:24:23.659Z</time></trkpt><trkpt lat="43.4439992" lon="11.6293505"><ele>237.0</ele><time>2026-03-29T10:24:24.682Z</time></trkpt><trkpt lat="43.4441895" lon="11.6291818"><ele>237.0</ele><time>2026-03-29T10:24:25.672Z</time></trkpt><trkpt lat="43.4443634" lon="11.6290191"><ele>237.0</ele><time>2026-03-29T10:24:26.679Z</time></trkpt><trkpt lat="43.4445106" lon="11.6288484"><ele>237.0</ele><time>2026-03-29T10:24:27.68Z</time></trkpt><trkpt lat="43.4446306" lon="11.6286718"><ele>238.66666666666669</ele><time>2026-03-29T10:24:28.663Z</time></trkpt><trkpt lat="43.4447152" lon="11.6284841"><ele>240.33333333333334</ele><time>2026-03-29T10:24:29.669Z</time></trkpt><trkpt lat="43.4447646" lon="11.6282852"><ele>242.0</ele><time>2026-03-29T10:24:30.672Z</time></trkpt><trkpt lat="43.4447769" lon="11.6280546"><ele>242.0</ele><time>2026-03-29T10:24:31.69Z</time></trkpt><trkpt lat="43.4447535" lon="11.6278168"><ele>242.0</ele><time>2026-03-29T10:24:32.672Z</time></trkpt><trkpt lat="43.4447073" lon="11.6275736"><ele>242.0</ele><time>2026-03-29T10:24:33.662Z</time></trkpt><trkpt lat="43.4446255" lon="11.6273047"><ele>237.0</ele><time>2026-03-29T10:24:34.679Z</time></trkpt><trkpt lat="43.4445238" lon="11.6270379"><ele>232.0</ele><time>2026-03-29T10:24:35.658Z</time></trkpt><trkpt lat="43.444414" lon="11.6267479"><ele>231.5</ele><time>2026-03-29T10:24:36.699Z</time></trkpt><trkpt lat="43.4442981" lon="11.6264553"><ele>231.0</ele><time>2026-03-29T10:24:37.661Z</time></trkpt><trkpt lat="43.4441646" lon="11.6261425"><ele>232.0</ele><time>2026-03-29T10:24:38.666Z</time></trkpt><trkpt lat="43.4440409" lon="11.6258514"><ele>233.0</ele><time>2026-03-29T10:24:39.664Z</time></trkpt><trkpt lat="43.4439045" lon="11.6255483"><ele>233.0</ele><time>2026-03-29T10:24:40.669Z</time></trkpt><trkpt lat="43.4437808" lon="11.6252686"><ele>233.0</ele><time>2026-03-29T10:24:41.656Z</time></trkpt><trkpt lat="43.4436611" lon="11.6249869"><ele>233.0</ele><time>2026-03-29T10:24:42.67Z</time></trkpt><trkpt lat="43.4435429" lon="11.6247169"><ele>233.0</ele><time>2026-03-29T10:24:43.678Z</time></trkpt><trkpt lat="43.4434287" lon="11.6244716"><ele>233.0</ele><time>2026-03-29T10:24:44.662Z</time></trkpt><trkpt lat="43.4433066" lon="11.6242463"><ele>233.33333333333334</ele><time>2026-03-29T10:24:45.667Z</time></trkpt><trkpt lat="43.4431868" lon="11.6240281"><ele>233.66666666666669</ele><time>2026-03-29T10:24:46.658Z</time></trkpt><trkpt lat="43.4430764" lon="11.6238277"><ele>234.0</ele><time>2026-03-29T10:24:47.663Z</time></trkpt><trkpt lat="43.4429653" lon="11.6236212"><ele>234.66666666666669</ele><time>2026-03-29T10:24:48.659Z</time></trkpt><trkpt lat="43.4428545" lon="11.6234128"><ele>235.33333333333334</ele><time>2026-03-29T10:24:49.716Z</time></trkpt><trkpt lat="43.4427619" lon="11.6232375"><ele>236.0</ele><time>2026-03-29T10:24:50.675Z</time></trkpt><trkpt lat="43.4426748" lon="11.6230804"><ele>236.0</ele><time>2026-03-29T10:24:51.669Z</time></trkpt><trkpt lat="43.442596" lon="11.6229313"><ele>236.00000000000003</ele><time>2026-03-29T10:24:52.673Z</time></trkpt><trkpt lat="43.4425313" lon="11.6228205"><ele>236.00000000000003</ele><time>2026-03-29T10:24:53.679Z</time></trkpt><trkpt lat="43.4424643" lon="11.6227016"><ele>236.0</ele><time>2026-03-29T10:24:54.709Z</time></trkpt><trkpt lat="43.442419" lon="11.6226066"><ele>236.0</ele><time>2026-03-29T10:24:55.662Z</time></trkpt><trkpt lat="43.4424011" lon="11.6225179"><ele>235.20000000000002</ele><time>2026-03-29T10:24:56.666Z</time></trkpt><trkpt lat="43.4424035" lon="11.6224273"><ele>234.40000000000003</ele><time>2026-03-29T10:24:57.658Z</time></trkpt><trkpt lat="43.4424681" lon="11.6223006"><ele>233.6</ele><time>2026-03-29T10:24:59.669Z</time></trkpt><trkpt lat="43.4425593" lon="11.6222456"><ele>232.8</ele><time>2026-03-29T10:25:00.702Z</time></trkpt><trkpt lat="43.442683" lon="11.6221834"><ele>232.0</ele><time>2026-03-29T10:25:01.685Z</time></trkpt><trkpt lat="43.4428173" lon="11.6221721"><ele>232.0</ele><time>2026-03-29T10:25:02.676Z</time></trkpt><trkpt lat="43.4429485" lon="11.6221517"><ele>232.0</ele><time>2026-03-29T10:25:03.669Z</time></trkpt><trkpt lat="43.4430694" lon="11.6221319"><ele>232.0</ele><time>2026-03-29T10:25:04.67Z</time></trkpt><trkpt lat="43.4431899" lon="11.6221068"><ele>232.0</ele><time>2026-03-29T10:25:05.671Z</time></trkpt><trkpt lat="43.4433068" lon="11.6220706"><ele>232.25</ele><time>2026-03-29T10:25:06.674Z</time></trkpt><trkpt lat="43.4434167" lon="11.6220289"><ele>232.5</ele><time>2026-03-29T10:25:07.678Z</time></trkpt><trkpt lat="43.4435092" lon="11.6219586"><ele>232.75</ele><time>2026-03-29T10:25:08.678Z</time></trkpt><trkpt lat="43.4436036" lon="11.6218667"><ele>233.0</ele><time>2026-03-29T10:25:09.664Z</time></trkpt><trkpt lat="43.443703" lon="11.6217673"><ele>234.25</ele><time>2026-03-29T10:25:10.671Z</time></trkpt><trkpt lat="43.4437994" lon="11.6216665"><ele>235.5</ele><time>2026-03-29T10:25:11.667Z</time></trkpt><trkpt lat="43.4439003" lon="11.6215612"><ele>236.75</ele><time>2026-03-29T10:25:12.694Z</time></trkpt><trkpt lat="43.443998" lon="11.6214597"><ele>238.0</ele><time>2026-03-29T10:25:13.709Z</time></trkpt><trkpt lat="43.4440971" lon="11.6213654"><ele>238.0</ele><time>2026-03-29T10:25:14.662Z</time></trkpt><trkpt lat="43.4442119" lon="11.6212581"><ele>238.0</ele><time>2026-03-29T10:25:15.681Z</time></trkpt><trkpt lat="43.4443458" lon="11.6211426"><ele>238.0</ele><time>2026-03-29T10:25:16.671Z</time></trkpt><trkpt lat="43.4444758" lon="11.621012"><ele>238.33333333333331</ele><time>2026-03-29T10:25:17.708Z</time></trkpt><trkpt lat="43.4445901" lon="11.6208899"><ele>238.66666666666669</ele><time>2026-03-29T10:25:18.661Z</time></trkpt><trkpt lat="43.4447161" lon="11.620763"><ele>239.0</ele><time>2026-03-29T10:25:19.66Z</time></trkpt><trkpt lat="43.4448445" lon="11.6206357"><ele>240.33333333333334</ele><time>2026-03-29T10:25:20.669Z</time></trkpt><trkpt lat="43.4449768" lon="11.6205001"><ele>241.66666666666669</ele><time>2026-03-29T10:25:21.677Z</time></trkpt><trkpt lat="43.4451106" lon="11.6203629"><ele>243.0</ele><time>2026-03-29T10:25:22.656Z</time></trkpt><trkpt lat="43.445247" lon="11.620214"><ele>243.0</ele><time>2026-03-29T10:25:23.673Z</time></trkpt><trkpt lat="43.4453503" lon="11.6200973"><ele>243.0</ele><time>2026-03-29T10:25:24.665Z</time></trkpt><trkpt lat="43.4454819" lon="11.6199571"><ele>243.0</ele><time>2026-03-29T10:25:25.678Z</time></trkpt><trkpt lat="43.4456137" lon="11.6198106"><ele>244.0</ele><time>2026-03-29T10:25:26.654Z</time></trkpt><trkpt lat="43.4457543" lon="11.6196637"><ele>245.0</ele><time>2026-03-29T10:25:27.663Z</time></trkpt><trkpt lat="43.4458941" lon="11.6195165"><ele>246.0</ele><time>2026-03-29T10:25:28.669Z</time></trkpt><trkpt lat="43.4460426" lon="11.6193715"><ele>244.0</ele><time>2026-03-29T10:25:29.673Z</time></trkpt><trkpt lat="43.4461894" lon="11.6192244"><ele>242.0</ele><time>2026-03-29T10:25:30.684Z</time></trkpt><trkpt lat="43.4463353" lon="11.6190736"><ele>240.0</ele><time>2026-03-29T10:25:31.661Z</time></trkpt><trkpt lat="43.4464921" lon="11.6189146"><ele>240.0</ele><time>2026-03-29T10:25:32.665Z</time></trkpt><trkpt lat="43.4466476" lon="11.6187584"><ele>240.0</ele><time>2026-03-29T10:25:33.658Z</time></trkpt><trkpt lat="43.4468069" lon="11.6185945"><ele>240.0</ele><time>2026-03-29T10:25:34.658Z</time></trkpt><trkpt lat="43.4469698" lon="11.6184228"><ele>239.0</ele><time>2026-03-29T10:25:35.665Z</time></trkpt><trkpt lat="43.4471352" lon="11.6182489"><ele>238.0</ele><time>2026-03-29T10:25:36.666Z</time></trkpt><trkpt lat="43.4473096" lon="11.6180677"><ele>237.0</ele><time>2026-03-29T10:25:37.669Z</time></trkpt><trkpt lat="43.447477" lon="11.6178953"><ele>236.66666666666669</ele><time>2026-03-29T10:25:38.679Z</time></trkpt><trkpt lat="43.4476595" lon="11.6177249"><ele>236.33333333333334</ele><time>2026-03-29T10:25:39.687Z</time></trkpt><trkpt lat="43.447844" lon="11.6175548"><ele>236.0</ele><time>2026-03-29T10:25:40.678Z</time></trkpt><trkpt lat="43.4480258" lon="11.6173767"><ele>236.0</ele><time>2026-03-29T10:25:41.679Z</time></trkpt><trkpt lat="43.4482155" lon="11.6171917"><ele>236.0</ele><time>2026-03-29T10:25:42.682Z</time></trkpt><trkpt lat="43.448402" lon="11.6170092"><ele>234.0</ele><time>2026-03-29T10:25:43.667Z</time></trkpt><trkpt lat="43.4485933" lon="11.6168313"><ele>232.0</ele><time>2026-03-29T10:25:44.684Z</time></trkpt><trkpt lat="43.4487782" lon="11.6166631"><ele>233.5</ele><time>2026-03-29T10:25:45.661Z</time></trkpt><trkpt lat="43.4489773" lon="11.6165124"><ele>235.0</ele><time>2026-03-29T10:25:46.679Z</time></trkpt><trkpt lat="43.449187" lon="11.6163798"><ele>235.0</ele><time>2026-03-29T10:25:47.682Z</time></trkpt><trkpt lat="43.4493993" lon="11.6162629"><ele>235.0</ele><time>2026-03-29T10:25:48.66Z</time></trkpt><trkpt lat="43.4496279" lon="11.6161401"><ele>233.5</ele><time>2026-03-29T10:25:49.681Z</time></trkpt><trkpt lat="43.449854" lon="11.6160181"><ele>232.0</ele><time>2026-03-29T10:25:50.688Z</time></trkpt><trkpt lat="43.4500819" lon="11.615898"><ele>232.0</ele><time>2026-03-29T10:25:51.675Z</time></trkpt><trkpt lat="43.4503146" lon="11.6157766"><ele>232.0</ele><time>2026-03-29T10:25:52.673Z</time></trkpt><trkpt lat="43.4505469" lon="11.6156649"><ele>233.5</ele><time>2026-03-29T10:25:53.682Z</time></trkpt><trkpt lat="43.4507775" lon="11.6155523"><ele>235.0</ele><time>2026-03-29T10:25:54.669Z</time></trkpt><trkpt lat="43.4510027" lon="11.6154337"><ele>233.66666666666666</ele><time>2026-03-29T10:25:55.691Z</time></trkpt><trkpt lat="43.4512096" lon="11.61532"><ele>232.33333333333331</ele><time>2026-03-29T10:25:56.673Z</time></trkpt><trkpt lat="43.451417" lon="11.6152166"><ele>231.0</ele><time>2026-03-29T10:25:57.668Z</time></trkpt><trkpt lat="43.451618" lon="11.6151113"><ele>231.0</ele><time>2026-03-29T10:25:58.672Z</time></trkpt><trkpt lat="43.4518052" lon="11.6150072"><ele>231.0</ele><time>2026-03-29T10:25:59.659Z</time></trkpt><trkpt lat="43.4519953" lon="11.6149107"><ele>231.0</ele><time>2026-03-29T10:26:00.663Z</time></trkpt><trkpt lat="43.4521769" lon="11.6148217"><ele>232.0</ele><time>2026-03-29T10:26:01.664Z</time></trkpt><trkpt lat="43.4523537" lon="11.6147376"><ele>233.0</ele><time>2026-03-29T10:26:02.665Z</time></trkpt><trkpt lat="43.4525338" lon="11.6146456"><ele>234.0</ele><time>2026-03-29T10:26:03.692Z</time></trkpt><trkpt lat="43.4527005" lon="11.6145588"><ele>232.66666666666669</ele><time>2026-03-29T10:26:04.682Z</time></trkpt><trkpt lat="43.4528572" lon="11.6144782"><ele>231.33333333333334</ele><time>2026-03-29T10:26:05.662Z</time></trkpt><trkpt lat="43.4530094" lon="11.6144022"><ele>230.0</ele><time>2026-03-29T10:26:06.679Z</time></trkpt><trkpt lat="43.4531582" lon="11.6143438"><ele>230.0</ele><time>2026-03-29T10:26:07.668Z</time></trkpt><trkpt lat="43.4532991" lon="11.6143221"><ele>230.0</ele><time>2026-03-29T10:26:08.667Z</time></trkpt><trkpt lat="43.4534366" lon="11.6143305"><ele>230.0</ele><time>2026-03-29T10:26:09.663Z</time></trkpt><trkpt lat="43.4535792" lon="11.6143557"><ele>230.0</ele><time>2026-03-29T10:26:10.663Z</time></trkpt><trkpt lat="43.4537171" lon="11.6143918"><ele>230.0</ele><time>2026-03-29T10:26:11.66Z</time></trkpt><trkpt lat="43.4538661" lon="11.6144542"><ele>230.0</ele><time>2026-03-29T10:26:12.657Z</time></trkpt><trkpt lat="43.4540099" lon="11.6145418"><ele>230.0</ele><time>2026-03-29T10:26:13.67Z</time></trkpt><trkpt lat="43.4541535" lon="11.6146848"><ele>230.0</ele><time>2026-03-29T10:26:14.673Z</time></trkpt><trkpt lat="43.4542596" lon="11.6148618"><ele>230.0</ele><time>2026-03-29T10:26:15.664Z</time></trkpt><trkpt lat="43.4543583" lon="11.615049"><ele>230.0</ele><time>2026-03-29T10:26:16.699Z</time></trkpt><trkpt lat="43.4544539" lon="11.6152193"><ele>230.0</ele><time>2026-03-29T10:26:17.667Z</time></trkpt><trkpt lat="43.4545668" lon="11.6153785"><ele>230.0</ele><time>2026-03-29T10:26:18.661Z</time></trkpt><trkpt lat="43.4546892" lon="11.6155184"><ele>230.0</ele><time>2026-03-29T10:26:19.661Z</time></trkpt><trkpt lat="43.4548273" lon="11.6156341"><ele>230.0</ele><time>2026-03-29T10:26:20.663Z</time></trkpt><trkpt lat="43.4549974" lon="11.6157171"><ele>230.0</ele><time>2026-03-29T10:26:21.71Z</time></trkpt><trkpt lat="43.4551482" lon="11.6157463"><ele>230.0</ele><time>2026-03-29T10:26:22.666Z</time></trkpt><trkpt lat="43.4553259" lon="11.6157455"><ele>231.0</ele><time>2026-03-29T10:26:23.689Z</time></trkpt><trkpt lat="43.4555326" lon="11.6157086"><ele>232.0</ele><time>2026-03-29T10:26:24.713Z</time></trkpt><trkpt lat="43.4557317" lon="11.6156515"><ele>233.0</ele><time>2026-03-29T10:26:25.667Z</time></trkpt><trkpt lat="43.4559166" lon="11.6155976"><ele>233.0</ele><time>2026-03-29T10:26:26.706Z</time></trkpt><trkpt lat="43.4561256" lon="11.6155335"><ele>233.0</ele><time>2026-03-29T10:26:27.69Z</time></trkpt><trkpt lat="43.4563193" lon="11.6154674"><ele>233.0</ele><time>2026-03-29T10:26:28.671Z</time></trkpt><trkpt lat="43.4565193" lon="11.6153802"><ele>232.0</ele><time>2026-03-29T10:26:29.67Z</time></trkpt><trkpt lat="43.4566954" lon="11.6152731"><ele>231.0</ele><time>2026-03-29T10:26:30.707Z</time></trkpt><trkpt lat="43.4568507" lon="11.6151374"><ele>230.0</ele><time>2026-03-29T10:26:31.669Z</time></trkpt><trkpt lat="43.4570007" lon="11.6149736"><ele>230.33333333333334</ele><time>2026-03-29T10:26:32.692Z</time></trkpt><trkpt lat="43.4571478" lon="11.6147824"><ele>230.66666666666669</ele><time>2026-03-29T10:26:33.674Z</time></trkpt><trkpt lat="43.4572901" lon="11.6145647"><ele>231.0</ele><time>2026-03-29T10:26:34.703Z</time></trkpt><trkpt lat="43.4574159" lon="11.6143447"><ele>231.0</ele><time>2026-03-29T10:26:35.671Z</time></trkpt><trkpt lat="43.4575339" lon="11.6141014"><ele>231.0</ele><time>2026-03-29T10:26:36.701Z</time></trkpt><trkpt lat="43.4576565" lon="11.6138406"><ele>231.0</ele><time>2026-03-29T10:26:37.712Z</time></trkpt><trkpt lat="43.4577998" lon="11.6135845"><ele>231.0</ele><time>2026-03-29T10:26:38.687Z</time></trkpt><trkpt lat="43.4579617" lon="11.613337"><ele>231.0</ele><time>2026-03-29T10:26:39.714Z</time></trkpt><trkpt lat="43.4581383" lon="11.6131241"><ele>231.0</ele><time>2026-03-29T10:26:40.655Z</time></trkpt><trkpt lat="43.458315" lon="11.6129398"><ele>231.0</ele><time>2026-03-29T10:26:41.677Z</time></trkpt><trkpt lat="43.4585003" lon="11.6127796"><ele>231.0</ele><time>2026-03-29T10:26:42.664Z</time></trkpt><trkpt lat="43.4586822" lon="11.6126255"><ele>230.0</ele><time>2026-03-29T10:26:43.669Z</time></trkpt><trkpt lat="43.458871" lon="11.6124961"><ele>229.0</ele><time>2026-03-29T10:26:44.669Z</time></trkpt><trkpt lat="43.4590683" lon="11.6124014"><ele>228.0</ele><time>2026-03-29T10:26:45.685Z</time></trkpt><trkpt lat="43.4592881" lon="11.6123727"><ele>228.0</ele><time>2026-03-29T10:26:46.679Z</time></trkpt><trkpt lat="43.459492" lon="11.6123919"><ele>228.0</ele><time>2026-03-29T10:26:47.675Z</time></trkpt><trkpt lat="43.4596817" lon="11.6124435"><ele>228.0</ele><time>2026-03-29T10:26:48.656Z</time></trkpt><trkpt lat="43.4598381" lon="11.6125432"><ele>229.0</ele><time>2026-03-29T10:26:49.727Z</time></trkpt><trkpt lat="43.4599678" lon="11.6126886"><ele>230.0</ele><time>2026-03-29T10:26:50.673Z</time></trkpt><trkpt lat="43.460075" lon="11.6128939"><ele>231.0</ele><time>2026-03-29T10:26:51.674Z</time></trkpt><trkpt lat="43.4601663" lon="11.6131305"><ele>231.0</ele><time>2026-03-29T10:26:52.69Z</time></trkpt><trkpt lat="43.4602643" lon="11.6133475"><ele>231.0</ele><time>2026-03-29T10:26:53.707Z</time></trkpt><trkpt lat="43.4603827" lon="11.6135286"><ele>231.0</ele><time>2026-03-29T10:26:54.674Z</time></trkpt><trkpt lat="43.460472" lon="11.6136126"><ele>230.66666666666669</ele><time>2026-03-29T10:26:55.681Z</time></trkpt><trkpt lat="43.4606314" lon="11.6137333"><ele>230.33333333333334</ele><time>2026-03-29T10:26:56.7Z</time></trkpt><trkpt lat="43.4607937" lon="11.6138444"><ele>230.0</ele><time>2026-03-29T10:26:57.721Z</time></trkpt><trkpt lat="43.4609575" lon="11.6139626"><ele>230.0</ele><time>2026-03-29T10:26:58.689Z</time></trkpt><trkpt lat="43.4611151" lon="11.6140794"><ele>230.0</ele><time>2026-03-29T10:26:59.682Z</time></trkpt><trkpt lat="43.461266" lon="11.6141887"><ele>230.0</ele><time>2026-03-29T10:27:00.68Z</time></trkpt><trkpt lat="43.4613959" lon="11.6142456"><ele>228.25</ele><time>2026-03-29T10:27:01.668Z</time></trkpt><trkpt lat="43.4615382" lon="11.6142655"><ele>226.5</ele><time>2026-03-29T10:27:02.671Z</time></trkpt><trkpt lat="43.4616615" lon="11.6142139"><ele>224.75</ele><time>2026-03-29T10:27:03.701Z</time></trkpt><trkpt lat="43.4617897" lon="11.614124"><ele>223.0</ele><time>2026-03-29T10:27:04.679Z</time></trkpt><trkpt lat="43.4619215" lon="11.6140178"><ele>223.0</ele><time>2026-03-29T10:27:05.699Z</time></trkpt><trkpt lat="43.4620289" lon="11.6139335"><ele>223.0</ele><time>2026-03-29T10:27:06.672Z</time></trkpt><trkpt lat="43.4621508" lon="11.6138287"><ele>223.0</ele><time>2026-03-29T10:27:07.672Z</time></trkpt><trkpt lat="43.4622872" lon="11.613717"><ele>223.0</ele><time>2026-03-29T10:27:08.673Z</time></trkpt><trkpt lat="43.4624208" lon="11.6136277"><ele>222.33333333333331</ele><time>2026-03-29T10:27:09.673Z</time></trkpt><trkpt lat="43.4625806" lon="11.6135571"><ele>221.66666666666669</ele><time>2026-03-29T10:27:10.694Z</time></trkpt><trkpt lat="43.4627474" lon="11.6135102"><ele>221.0</ele><time>2026-03-29T10:27:11.691Z</time></trkpt><trkpt lat="43.4629318" lon="11.6134716"><ele>222.33333333333334</ele><time>2026-03-29T10:27:12.697Z</time></trkpt><trkpt lat="43.4631257" lon="11.6134274"><ele>223.66666666666669</ele><time>2026-03-29T10:27:13.677Z</time></trkpt><trkpt lat="43.463316" lon="11.6133629"><ele>225.0</ele><time>2026-03-29T10:27:14.669Z</time></trkpt><trkpt lat="43.4635355" lon="11.6132873"><ele>225.0</ele><time>2026-03-29T10:27:15.708Z</time></trkpt><trkpt lat="43.4637543" lon="11.6132063"><ele>225.0</ele><time>2026-03-29T10:27:16.67Z</time></trkpt><trkpt lat="43.463986" lon="11.6131315"><ele>227.5</ele><time>2026-03-29T10:27:17.694Z</time></trkpt><trkpt lat="43.4642229" lon="11.6130607"><ele>230.0</ele><time>2026-03-29T10:27:18.684Z</time></trkpt><trkpt lat="43.4644565" lon="11.6129935"><ele>232.5</ele><time>2026-03-29T10:27:19.671Z</time></trkpt><trkpt lat="43.4646974" lon="11.6129261"><ele>235.0</ele><time>2026-03-29T10:27:20.653Z</time></trkpt><trkpt lat="43.4649481" lon="11.6128547"><ele>239.0</ele><time>2026-03-29T10:27:21.691Z</time></trkpt><trkpt lat="43.4651896" lon="11.6127929"><ele>243.0</ele><time>2026-03-29T10:27:22.682Z</time></trkpt><trkpt lat="43.4654281" lon="11.6127347"><ele>239.0</ele><time>2026-03-29T10:27:23.718Z</time></trkpt><trkpt lat="43.4656624" lon="11.6126781"><ele>235.0</ele><time>2026-03-29T10:27:24.707Z</time></trkpt><trkpt lat="43.4658947" lon="11.6126197"><ele>235.0</ele><time>2026-03-29T10:27:25.706Z</time></trkpt><trkpt lat="43.4661146" lon="11.6125645"><ele>235.0</ele><time>2026-03-29T10:27:26.662Z</time></trkpt><trkpt lat="43.4663462" lon="11.612512"><ele>234.0</ele><time>2026-03-29T10:27:27.68Z</time></trkpt><trkpt lat="43.4665702" lon="11.612458"><ele>233.0</ele><time>2026-03-29T10:27:28.672Z</time></trkpt><trkpt lat="43.4668007" lon="11.6124205"><ele>233.0</ele><time>2026-03-29T10:27:29.677Z</time></trkpt><trkpt lat="43.4670125" lon="11.6124085"><ele>233.0</ele><time>2026-03-29T10:27:30.672Z</time></trkpt><trkpt lat="43.4672174" lon="11.612421"><ele>233.0</ele><time>2026-03-29T10:27:31.668Z</time></trkpt><trkpt lat="43.4674384" lon="11.6124706"><ele>233.33333333333334</ele><time>2026-03-29T10:27:32.683Z</time></trkpt><trkpt lat="43.467641" lon="11.6125516"><ele>233.66666666666669</ele><time>2026-03-29T10:27:33.662Z</time></trkpt><trkpt lat="43.4678451" lon="11.6126679"><ele>234.0</ele><time>2026-03-29T10:27:34.692Z</time></trkpt><trkpt lat="43.468023" lon="11.6127981"><ele>234.0</ele><time>2026-03-29T10:27:35.664Z</time></trkpt><trkpt lat="43.4681848" lon="11.6129486"><ele>234.0</ele><time>2026-03-29T10:27:36.68Z</time></trkpt><trkpt lat="43.468329" lon="11.6130999"><ele>234.0</ele><time>2026-03-29T10:27:37.663Z</time></trkpt><trkpt lat="43.4684529" lon="11.6132389"><ele>234.0</ele><time>2026-03-29T10:27:38.676Z</time></trkpt><trkpt lat="43.4685695" lon="11.6133586"><ele>234.0</ele><time>2026-03-29T10:27:39.698Z</time></trkpt><trkpt lat="43.468673" lon="11.6134668"><ele>234.0</ele><time>2026-03-29T10:27:40.687Z</time></trkpt><trkpt lat="43.4687718" lon="11.6135734"><ele>234.0</ele><time>2026-03-29T10:27:41.681Z</time></trkpt><trkpt lat="43.4688742" lon="11.6136868"><ele>235.5</ele><time>2026-03-29T10:27:42.676Z</time></trkpt><trkpt lat="43.4689825" lon="11.613813"><ele>237.0</ele><time>2026-03-29T10:27:43.666Z</time></trkpt><trkpt lat="43.469101" lon="11.6139504"><ele>238.5</ele><time>2026-03-29T10:27:44.697Z</time></trkpt><trkpt lat="43.4692182" lon="11.614074"><ele>240.0</ele><time>2026-03-29T10:27:45.7Z</time></trkpt><trkpt lat="43.4693085" lon="11.6141568"><ele>240.0</ele><time>2026-03-29T10:27:46.675Z</time></trkpt><trkpt lat="43.4694332" lon="11.6142738"><ele>240.0</ele><time>2026-03-29T10:27:47.703Z</time></trkpt><trkpt lat="43.469566" lon="11.6144"><ele>240.0</ele><time>2026-03-29T10:27:48.699Z</time></trkpt><trkpt lat="43.4697307" lon="11.6145591"><ele>241.0</ele><time>2026-03-29T10:27:49.66Z</time></trkpt><trkpt lat="43.469886" lon="11.6147001"><ele>242.0</ele><time>2026-03-29T10:27:50.677Z</time></trkpt><trkpt lat="43.4700386" lon="11.6148136"><ele>243.0</ele><time>2026-03-29T10:27:51.674Z</time></trkpt><trkpt lat="43.4701951" lon="11.6149058"><ele>243.0</ele><time>2026-03-29T10:27:52.682Z</time></trkpt><trkpt lat="43.4703544" lon="11.6149691"><ele>243.0</ele><time>2026-03-29T10:27:53.668Z</time></trkpt><trkpt lat="43.4705151" lon="11.6150034"><ele>243.0</ele><time>2026-03-29T10:27:54.675Z</time></trkpt><trkpt lat="43.4706626" lon="11.6150138"><ele>244.25</ele><time>2026-03-29T10:27:55.677Z</time></trkpt><trkpt lat="43.4708048" lon="11.6150023"><ele>245.5</ele><time>2026-03-29T10:27:56.671Z</time></trkpt><trkpt lat="43.4709414" lon="11.6149824"><ele>246.75</ele><time>2026-03-29T10:27:57.693Z</time></trkpt><trkpt lat="43.4710516" lon="11.6149566"><ele>248.0</ele><time>2026-03-29T10:27:58.674Z</time></trkpt><trkpt lat="43.4711637" lon="11.6149359"><ele>248.0</ele><time>2026-03-29T10:27:59.69Z</time></trkpt><trkpt lat="43.4712713" lon="11.6149273"><ele>248.0</ele><time>2026-03-29T10:28:00.68Z</time></trkpt><trkpt lat="43.4713855" lon="11.6149441"><ele>248.0</ele><time>2026-03-29T10:28:01.689Z</time></trkpt><trkpt lat="43.4715052" lon="11.6149883"><ele>248.0</ele><time>2026-03-29T10:28:02.673Z</time></trkpt><trkpt lat="43.4716279" lon="11.6150456"><ele>249.0</ele><time>2026-03-29T10:28:03.658Z</time></trkpt><trkpt lat="43.4717442" lon="11.6151193"><ele>250.0</ele><time>2026-03-29T10:28:04.67Z</time></trkpt><trkpt lat="43.4718503" lon="11.6152063"><ele>251.0</ele><time>2026-03-29T10:28:05.669Z</time></trkpt><trkpt lat="43.4719484" lon="11.6153009"><ele>252.0</ele><time>2026-03-29T10:28:06.659Z</time></trkpt><trkpt lat="43.4720495" lon="11.615393"><ele>251.8</ele><time>2026-03-29T10:28:07.671Z</time></trkpt><trkpt lat="43.472143" lon="11.6154787"><ele>251.6</ele><time>2026-03-29T10:28:08.679Z</time></trkpt><trkpt lat="43.4722286" lon="11.6155526"><ele>251.40000000000003</ele><time>2026-03-29T10:28:09.684Z</time></trkpt><trkpt lat="43.4723075" lon="11.6156189"><ele>251.20000000000002</ele><time>2026-03-29T10:28:10.666Z</time></trkpt><trkpt lat="43.4723762" lon="11.6156796"><ele>251.0</ele><time>2026-03-29T10:28:11.676Z</time></trkpt><trkpt lat="43.4724325" lon="11.6157299"><ele>250.99999999999997</ele><time>2026-03-29T10:28:12.681Z</time></trkpt><trkpt lat="43.4724948" lon="11.6157928"><ele>251.0</ele><time>2026-03-29T10:28:15.667Z</time></trkpt><trkpt lat="43.4724974" lon="11.6158984"><ele>250.99999999999997</ele><time>2026-03-29T10:28:20.658Z</time></trkpt><trkpt lat="43.4724896" lon="11.6159872"><ele>250.99999999999997</ele><time>2026-03-29T10:28:26.672Z</time></trkpt><trkpt lat="43.4725077" lon="11.6158707"><ele>251.0</ele><time>2026-03-29T10:29:31.043Z</time></trkpt><trkpt lat="43.4725453" lon="11.6159517"><ele>250.99999999999997</ele><time>2026-03-29T10:29:42.668Z</time></trkpt><trkpt lat="43.4724892" lon="11.6159954"><ele>250.99999999999997</ele><time>2026-03-29T10:30:21.73Z</time></trkpt><trkpt lat="43.4725688" lon="11.6160308"><ele>251.0</ele><time>2026-03-29T10:30:25.716Z</time></trkpt><trkpt lat="43.4726354" lon="11.61601"><ele>251.00000000000003</ele><time>2026-03-29T10:30:26.731Z</time></trkpt><trkpt lat="43.4727551" lon="11.6160224"><ele>251.00000000000003</ele><time>2026-03-29T10:30:28.716Z</time></trkpt><trkpt lat="43.4728563" lon="11.6160233"><ele>251.0</ele><time>2026-03-29T10:30:29.726Z</time></trkpt><trkpt lat="43.4729676" lon="11.6160255"><ele>251.0</ele><time>2026-03-29T10:30:30.713Z</time></trkpt><trkpt lat="43.4730882" lon="11.6160212"><ele>251.0</ele><time>2026-03-29T10:30:31.745Z</time></trkpt><trkpt lat="43.4724767" lon="11.615999"><ele>250.99999999999997</ele><time>2026-03-29T10:30:34.748Z</time></trkpt><trkpt lat="43.4725427" lon="11.6159797"><ele>251.0</ele><time>2026-03-29T10:31:08.78Z</time></trkpt><trkpt lat="43.4724842" lon="11.6159379"><ele>250.99999999999997</ele><time>2026-03-29T10:31:17.786Z</time></trkpt><trkpt lat="43.4724297" lon="11.6160024"><ele>250.99999999999997</ele><time>2026-03-29T10:32:02.765Z</time></trkpt><trkpt lat="43.472429" lon="11.616091"><ele>251.0</ele><time>2026-03-29T10:41:19.794Z</time></trkpt><trkpt lat="43.472468" lon="11.6161821"><ele>250.99999999999997</ele><time>2026-03-29T10:41:51.772Z</time></trkpt><trkpt lat="43.4724195" lon="11.6161157"><ele>250.99999999999997</ele><time>2026-03-29T10:42:16.772Z</time></trkpt><trkpt lat="43.472426" lon="11.616018"><ele>251.00000000000003</ele><time>2026-03-29T10:42:43.76Z</time></trkpt><trkpt lat="43.4724203" lon="11.6161065"><ele>251.0</ele><time>2026-03-29T10:43:58.694Z</time></trkpt><trkpt lat="43.472357" lon="11.6161869"><ele>251.0</ele><time>2026-03-29T10:44:45.756Z</time></trkpt><trkpt lat="43.4723765" lon="11.6160703"><ele>251.0</ele><time>2026-03-29T10:45:04.805Z</time></trkpt><trkpt lat="43.4724302" lon="11.6160246"><ele>251.00000000000003</ele><time>2026-03-29T10:47:01.462Z</time></trkpt><trkpt lat="43.4724983" lon="11.6160124"><ele>251.0</ele><time>2026-03-29T10:47:38.782Z</time></trkpt><trkpt lat="43.4725958" lon="11.6159921"><ele>251.00000000000003</ele><time>2026-03-29T10:51:11.767Z</time></trkpt><trkpt lat="43.4726571" lon="11.6159673"><ele>251.0</ele><time>2026-03-29T10:51:17.747Z</time></trkpt><trkpt lat="43.4727012" lon="11.6158961"><ele>251.0</ele><time>2026-03-29T10:51:25.784Z</time></trkpt><trkpt lat="43.4727698" lon="11.615905"><ele>251.0</ele><time>2026-03-29T10:51:27.748Z</time></trkpt><trkpt lat="43.4728706" lon="11.615967"><ele>251.00000000000003</ele><time>2026-03-29T10:51:29.743Z</time></trkpt><trkpt lat="43.4729844" lon="11.6160414"><ele>251.0</ele><time>2026-03-29T10:51:31.749Z</time></trkpt><trkpt lat="43.4730526" lon="11.6160888"><ele>250.4</ele><time>2026-03-29T10:51:32.756Z</time></trkpt><trkpt lat="43.4731281" lon="11.6161375"><ele>249.8</ele><time>2026-03-29T10:51:33.754Z</time></trkpt><trkpt lat="43.4732131" lon="11.6161871"><ele>249.20000000000002</ele><time>2026-03-29T10:51:34.753Z</time></trkpt><trkpt lat="43.4733122" lon="11.6162449"><ele>248.60000000000002</ele><time>2026-03-29T10:51:35.788Z</time></trkpt><trkpt lat="43.473404" lon="11.6163002"><ele>248.0</ele><time>2026-03-29T10:51:36.759Z</time></trkpt><trkpt lat="43.4734993" lon="11.6163587"><ele>248.0</ele><time>2026-03-29T10:51:37.747Z</time></trkpt><trkpt lat="43.4736066" lon="11.6164218"><ele>248.0</ele><time>2026-03-29T10:51:38.769Z</time></trkpt><trkpt lat="43.4737152" lon="11.6164921"><ele>248.0</ele><time>2026-03-29T10:51:39.774Z</time></trkpt><trkpt lat="43.4738328" lon="11.6165644"><ele>248.0</ele><time>2026-03-29T10:51:40.764Z</time></trkpt><trkpt lat="43.4739565" lon="11.6166513"><ele>246.75</ele><time>2026-03-29T10:51:41.745Z</time></trkpt><trkpt lat="43.4740907" lon="11.616729"><ele>245.5</ele><time>2026-03-29T10:51:42.756Z</time></trkpt><trkpt lat="43.4742276" lon="11.6168136"><ele>244.25</ele><time>2026-03-29T10:51:43.753Z</time></trkpt><trkpt lat="43.4743631" lon="11.6168918"><ele>243.0</ele><time>2026-03-29T10:51:44.756Z</time></trkpt><trkpt lat="43.4744755" lon="11.6169539"><ele>242.5</ele><time>2026-03-29T10:51:45.754Z</time></trkpt><trkpt lat="43.4746025" lon="11.61703"><ele>242.0</ele><time>2026-03-29T10:51:46.774Z</time></trkpt><trkpt lat="43.4747239" lon="11.6171012"><ele>241.5</ele><time>2026-03-29T10:51:47.767Z</time></trkpt><trkpt lat="43.4748419" lon="11.6171719"><ele>241.0</ele><time>2026-03-29T10:51:48.748Z</time></trkpt><trkpt lat="43.4749573" lon="11.6172427"><ele>240.60000000000002</ele><time>2026-03-29T10:51:49.76Z</time></trkpt><trkpt lat="43.4750662" lon="11.6173092"><ele>240.20000000000002</ele><time>2026-03-29T10:51:50.768Z</time></trkpt><trkpt lat="43.4751663" lon="11.6173681"><ele>239.79999999999998</ele><time>2026-03-29T10:51:51.753Z</time></trkpt><trkpt lat="43.4752592" lon="11.6174235"><ele>239.39999999999998</ele><time>2026-03-29T10:51:52.756Z</time></trkpt><trkpt lat="43.4753416" lon="11.6174714"><ele>239.0</ele><time>2026-03-29T10:51:53.747Z</time></trkpt><trkpt lat="43.4754117" lon="11.6175138"><ele>239.66666666666669</ele><time>2026-03-29T10:51:54.759Z</time></trkpt><trkpt lat="43.475492" lon="11.6176008"><ele>240.33333333333334</ele><time>2026-03-29T10:51:56.775Z</time></trkpt><trkpt lat="43.4754835" lon="11.6176998"><ele>241.0</ele><time>2026-03-29T10:51:58.741Z</time></trkpt><trkpt lat="43.4754675" lon="11.6177932"><ele>241.66666666666669</ele><time>2026-03-29T10:52:00.756Z</time></trkpt><trkpt lat="43.475475" lon="11.6178956"><ele>242.33333333333334</ele><time>2026-03-29T10:52:03.752Z</time></trkpt><trkpt lat="43.475542" lon="11.6179465"><ele>243.0</ele><time>2026-03-29T10:52:07.744Z</time></trkpt><trkpt lat="43.4755977" lon="11.6179043"><ele>243.0</ele><time>2026-03-29T10:52:14.757Z</time></trkpt><trkpt lat="43.4756761" lon="11.6179041"><ele>243.0</ele><time>2026-03-29T10:52:18.756Z</time></trkpt><trkpt lat="43.4757229" lon="11.6179831"><ele>243.0</ele><time>2026-03-29T10:52:21.763Z</time></trkpt><trkpt lat="43.4757715" lon="11.6180391"><ele>243.0</ele><time>2026-03-29T10:52:26.761Z</time></trkpt><trkpt lat="43.4757648" lon="11.6179482"><ele>243.0</ele><time>2026-03-29T10:53:58.771Z</time></trkpt><trkpt lat="43.4757404" lon="11.6178416"><ele>243.0</ele><time>2026-03-29T10:55:03.765Z</time></trkpt><trkpt lat="43.4756686" lon="11.6177931"><ele>243.0</ele><time>2026-03-29T10:55:09.753Z</time></trkpt><trkpt lat="43.4755962" lon="11.6177951"><ele>243.0</ele><time>2026-03-29T10:55:12.765Z</time></trkpt><trkpt lat="43.4755696" lon="11.6178966"><ele>243.0</ele><time>2026-03-29T10:55:16.77Z</time></trkpt><trkpt lat="43.475632" lon="11.6179509"><ele>243.0</ele><time>2026-03-29T10:55:20.75Z</time></trkpt><trkpt lat="43.4757074" lon="11.6179914"><ele>243.0</ele><time>2026-03-29T10:55:24.77Z</time></trkpt><trkpt lat="43.4757665" lon="11.6180334"><ele>243.0</ele><time>2026-03-29T10:55:27.77Z</time></trkpt><trkpt lat="43.4758226" lon="11.6179598"><ele>243.0</ele><time>2026-03-29T10:56:45.764Z</time></trkpt><trkpt lat="43.4758817" lon="11.6179148"><ele>243.0</ele><time>2026-03-29T10:56:48.753Z</time></trkpt><trkpt lat="43.4759029" lon="11.6178052"><ele>243.0</ele><time>2026-03-29T10:56:53.746Z</time></trkpt><trkpt lat="43.475868" lon="11.6177319"><ele>243.0</ele><time>2026-03-29T10:56:55.749Z</time></trkpt><trkpt lat="43.4757929" lon="11.6176789"><ele>243.0</ele><time>2026-03-29T10:56:57.757Z</time></trkpt><trkpt lat="43.4756974" lon="11.6176244"><ele>243.0</ele><time>2026-03-29T10:56:59.75Z</time></trkpt><trkpt lat="43.4755734" lon="11.6175486"><ele>243.0</ele><time>2026-03-29T10:57:01.775Z</time></trkpt><trkpt lat="43.4754984" lon="11.6175213"><ele>242.2</ele><time>2026-03-29T10:57:02.767Z</time></trkpt><trkpt lat="43.4754137" lon="11.6174728"><ele>241.4</ele><time>2026-03-29T10:57:03.767Z</time></trkpt><trkpt lat="43.4753311" lon="11.6174241"><ele>240.59999999999997</ele><time>2026-03-29T10:57:04.77Z</time></trkpt><trkpt lat="43.4752459" lon="11.6173651"><ele>239.79999999999998</ele><time>2026-03-29T10:57:05.764Z</time></trkpt><trkpt lat="43.4751421" lon="11.6173079"><ele>239.0</ele><time>2026-03-29T10:57:06.782Z</time></trkpt><trkpt lat="43.4750465" lon="11.6172502"><ele>239.0</ele><time>2026-03-29T10:57:07.762Z</time></trkpt><trkpt lat="43.4749438" lon="11.6171895"><ele>239.0</ele><time>2026-03-29T10:57:08.753Z</time></trkpt><trkpt lat="43.4748339" lon="11.6171186"><ele>239.0</ele><time>2026-03-29T10:57:09.767Z</time></trkpt><trkpt lat="43.4747209" lon="11.6170461"><ele>239.0</ele><time>2026-03-29T10:57:10.763Z</time></trkpt><trkpt lat="43.474602" lon="11.6169723"><ele>240.0</ele><time>2026-03-29T10:57:11.757Z</time></trkpt><trkpt lat="43.4744856" lon="11.6169008"><ele>241.0</ele><time>2026-03-29T10:57:12.748Z</time></trkpt><trkpt lat="43.4743692" lon="11.6168308"><ele>242.0</ele><time>2026-03-29T10:57:13.746Z</time></trkpt><trkpt lat="43.4742485" lon="11.6167609"><ele>243.0</ele><time>2026-03-29T10:57:14.769Z</time></trkpt><trkpt lat="43.4741374" lon="11.6166959"><ele>243.0</ele><time>2026-03-29T10:57:15.766Z</time></trkpt><trkpt lat="43.4740396" lon="11.6166309"><ele>243.0</ele><time>2026-03-29T10:57:16.777Z</time></trkpt><trkpt lat="43.4739542" lon="11.6165786"><ele>243.0</ele><time>2026-03-29T10:57:17.772Z</time></trkpt><trkpt lat="43.4738833" lon="11.6165345"><ele>243.0</ele><time>2026-03-29T10:57:18.752Z</time></trkpt><trkpt lat="43.4738225" lon="11.6164963"><ele>243.0</ele><time>2026-03-29T10:57:19.777Z</time></trkpt><trkpt lat="43.4737451" lon="11.6164374"><ele>243.0</ele><time>2026-03-29T10:57:21.773Z</time></trkpt><trkpt lat="43.4737345" lon="11.6163508"><ele>243.0</ele><time>2026-03-29T10:57:23.75Z</time></trkpt><trkpt lat="43.4738283" lon="11.6162835"><ele>243.0</ele><time>2026-03-29T10:57:25.777Z</time></trkpt><trkpt lat="43.4739045" lon="11.6162888"><ele>243.0</ele><time>2026-03-29T10:57:26.752Z</time></trkpt><trkpt lat="43.473983" lon="11.6163066"><ele>243.0</ele><time>2026-03-29T10:57:27.758Z</time></trkpt><trkpt lat="43.4740807" lon="11.6163163"><ele>243.0</ele><time>2026-03-29T10:57:28.763Z</time></trkpt><trkpt lat="43.474176" lon="11.6163201"><ele>243.0</ele><time>2026-03-29T10:57:29.745Z</time></trkpt><trkpt lat="43.474287" lon="11.6163219"><ele>243.0</ele><time>2026-03-29T10:57:30.776Z</time></trkpt><trkpt lat="43.4743995" lon="11.6163197"><ele>243.0</ele><time>2026-03-29T10:57:31.766Z</time></trkpt><trkpt lat="43.4745245" lon="11.616329"><ele>243.0</ele><time>2026-03-29T10:57:32.764Z</time></trkpt><trkpt lat="43.4746394" lon="11.6163218"><ele>244.25</ele><time>2026-03-29T10:57:33.75Z</time></trkpt><trkpt lat="43.474769" lon="11.6163167"><ele>245.5</ele><time>2026-03-29T10:57:34.768Z</time></trkpt><trkpt lat="43.4748877" lon="11.6163083"><ele>246.75</ele><time>2026-03-29T10:57:35.757Z</time></trkpt><trkpt lat="43.4749787" lon="11.6162989"><ele>248.0</ele><time>2026-03-29T10:57:36.769Z</time></trkpt><trkpt lat="43.4750912" lon="11.6162977"><ele>248.0</ele><time>2026-03-29T10:57:37.758Z</time></trkpt><trkpt lat="43.4752211" lon="11.6162855"><ele>248.0</ele><time>2026-03-29T10:57:38.753Z</time></trkpt><trkpt lat="43.4753797" lon="11.6162608"><ele>248.0</ele><time>2026-03-29T10:57:39.758Z</time></trkpt><trkpt lat="43.4755173" lon="11.616231"><ele>248.0</ele><time>2026-03-29T10:57:40.761Z</time></trkpt><trkpt lat="43.4756621" lon="11.6162095"><ele>248.25</ele><time>2026-03-29T10:57:41.778Z</time></trkpt><trkpt lat="43.4758014" lon="11.6161834"><ele>248.5</ele><time>2026-03-29T10:57:42.763Z</time></trkpt><trkpt lat="43.4759457" lon="11.6161634"><ele>248.75</ele><time>2026-03-29T10:57:43.754Z</time></trkpt><trkpt lat="43.4760882" lon="11.6161345"><ele>249.0</ele><time>2026-03-29T10:57:44.756Z</time></trkpt><trkpt lat="43.4762253" lon="11.6161127"><ele>249.5</ele><time>2026-03-29T10:57:45.748Z</time></trkpt><trkpt lat="43.476359" lon="11.6160929"><ele>250.0</ele><time>2026-03-29T10:57:46.779Z</time></trkpt><trkpt lat="43.4764776" lon="11.6160766"><ele>250.5</ele><time>2026-03-29T10:57:47.756Z</time></trkpt><trkpt lat="43.4765925" lon="11.6160605"><ele>251.0</ele><time>2026-03-29T10:57:48.757Z</time></trkpt><trkpt lat="43.476701" lon="11.616044"><ele>251.0</ele><time>2026-03-29T10:57:49.75Z</time></trkpt><trkpt lat="43.4768014" lon="11.616028"><ele>251.00000000000003</ele><time>2026-03-29T10:57:50.766Z</time></trkpt><trkpt lat="43.4768973" lon="11.6160152"><ele>251.00000000000003</ele><time>2026-03-29T10:57:51.755Z</time></trkpt><trkpt lat="43.4769936" lon="11.6159918"><ele>251.0</ele><time>2026-03-29T10:57:52.771Z</time></trkpt><trkpt lat="43.4770901" lon="11.6159674"><ele>251.0</ele><time>2026-03-29T10:57:53.766Z</time></trkpt><trkpt lat="43.4771952" lon="11.6159486"><ele>251.0</ele><time>2026-03-29T10:57:54.758Z</time></trkpt><trkpt lat="43.4773056" lon="11.6159266"><ele>251.0</ele><time>2026-03-29T10:57:55.764Z</time></trkpt><trkpt lat="43.4774169" lon="11.6159019"><ele>251.0</ele><time>2026-03-29T10:57:56.757Z</time></trkpt><trkpt lat="43.4775299" lon="11.6158671"><ele>251.0</ele><time>2026-03-29T10:57:57.771Z</time></trkpt><trkpt lat="43.4776347" lon="11.6158213"><ele>251.0</ele><time>2026-03-29T10:57:58.761Z</time></trkpt><trkpt lat="43.4777396" lon="11.6157614"><ele>251.00000000000003</ele><time>2026-03-29T10:57:59.757Z</time></trkpt><trkpt lat="43.4778354" lon="11.6156796"><ele>251.00000000000003</ele><time>2026-03-29T10:58:00.766Z</time></trkpt><trkpt lat="43.4779069" lon="11.6155863"><ele>251.0</ele><time>2026-03-29T10:58:01.757Z</time></trkpt><trkpt lat="43.4779594" lon="11.6154863"><ele>251.0</ele><time>2026-03-29T10:58:02.775Z</time></trkpt><trkpt lat="43.4779848" lon="11.6153869"><ele>250.50000000000003</ele><time>2026-03-29T10:58:03.758Z</time></trkpt><trkpt lat="43.4780067" lon="11.615297"><ele>250.0</ele><time>2026-03-29T10:58:04.768Z</time></trkpt><trkpt lat="43.4780417" lon="11.6151586"><ele>249.5</ele><time>2026-03-29T10:58:06.754Z</time></trkpt><trkpt lat="43.4780725" lon="11.6150556"><ele>249.0</ele><time>2026-03-29T10:58:08.755Z</time></trkpt><trkpt lat="43.4780686" lon="11.6149619"><ele>248.50000000000003</ele><time>2026-03-29T10:58:10.779Z</time></trkpt><trkpt lat="43.4779982" lon="11.6149741"><ele>248.0</ele><time>2026-03-29T10:58:13.762Z</time></trkpt><trkpt lat="43.4779472" lon="11.6151262"><ele>248.50000000000003</ele><time>2026-03-29T10:58:15.742Z</time></trkpt><trkpt lat="43.4779125" lon="11.6152186"><ele>249.0</ele><time>2026-03-29T10:58:16.79Z</time></trkpt><trkpt lat="43.4778748" lon="11.6153052"><ele>249.5</ele><time>2026-03-29T10:58:17.769Z</time></trkpt><trkpt lat="43.4778243" lon="11.6153815"><ele>250.0</ele><time>2026-03-29T10:58:18.762Z</time></trkpt><trkpt lat="43.4777522" lon="11.6154322"><ele>250.50000000000003</ele><time>2026-03-29T10:58:19.767Z</time></trkpt><trkpt lat="43.4776709" lon="11.6154508"><ele>251.0</ele><time>2026-03-29T10:58:20.767Z</time></trkpt><trkpt lat="43.4775882" lon="11.6154391"><ele>251.0</ele><time>2026-03-29T10:58:21.759Z</time></trkpt><trkpt lat="43.4775066" lon="11.615413"><ele>251.00000000000003</ele><time>2026-03-29T10:58:22.758Z</time></trkpt><trkpt lat="43.4774047" lon="11.6153834"><ele>251.00000000000003</ele><time>2026-03-29T10:58:23.766Z</time></trkpt><trkpt lat="43.4772947" lon="11.6153614"><ele>251.0</ele><time>2026-03-29T10:58:24.759Z</time></trkpt><trkpt lat="43.4771928" lon="11.6153303"><ele>251.0</ele><time>2026-03-29T10:58:25.764Z</time></trkpt><trkpt lat="43.4770933" lon="11.6152976"><ele>249.20000000000002</ele><time>2026-03-29T10:58:26.762Z</time></trkpt><trkpt lat="43.4769967" lon="11.6152513"><ele>247.40000000000003</ele><time>2026-03-29T10:58:27.77Z</time></trkpt><trkpt lat="43.4769168" lon="11.615164"><ele>245.6</ele><time>2026-03-29T10:58:28.761Z</time></trkpt><trkpt lat="43.4768583" lon="11.6150522"><ele>243.8</ele><time>2026-03-29T10:58:29.768Z</time></trkpt><trkpt lat="43.4768244" lon="11.6149208"><ele>242.0</ele><time>2026-03-29T10:58:30.751Z</time></trkpt><trkpt lat="43.4768173" lon="11.6147759"><ele>242.0</ele><time>2026-03-29T10:58:31.758Z</time></trkpt><trkpt lat="43.4768436" lon="11.6146287"><ele>242.0</ele><time>2026-03-29T10:58:32.763Z</time></trkpt><trkpt lat="43.4768889" lon="11.6145223"><ele>242.0</ele><time>2026-03-29T10:58:33.773Z</time></trkpt><trkpt lat="43.4769439" lon="11.6144244"><ele>242.0</ele><time>2026-03-29T10:58:34.778Z</time></trkpt><trkpt lat="43.4769959" lon="11.6143336"><ele>242.0</ele><time>2026-03-29T10:58:35.771Z</time></trkpt><trkpt lat="43.4770445" lon="11.6142498"><ele>241.16666666666669</ele><time>2026-03-29T10:58:36.772Z</time></trkpt><trkpt lat="43.4770909" lon="11.6141687"><ele>240.33333333333334</ele><time>2026-03-29T10:58:37.791Z</time></trkpt><trkpt lat="43.4771303" lon="11.6140974"><ele>239.5</ele><time>2026-03-29T10:58:38.768Z</time></trkpt><trkpt lat="43.4772055" lon="11.6139627"><ele>238.66666666666669</ele><time>2026-03-29T10:58:40.761Z</time></trkpt><trkpt lat="43.4772442" lon="11.6138871"><ele>237.83333333333334</ele><time>2026-03-29T10:58:41.775Z</time></trkpt><trkpt lat="43.4772872" lon="11.6138073"><ele>237.0</ele><time>2026-03-29T10:58:42.767Z</time></trkpt><trkpt lat="43.4773379" lon="11.6137174"><ele>235.8</ele><time>2026-03-29T10:58:43.785Z</time></trkpt><trkpt lat="43.477395" lon="11.6136165"><ele>234.6</ele><time>2026-03-29T10:58:44.791Z</time></trkpt><trkpt lat="43.4774534" lon="11.6135091"><ele>233.40000000000003</ele><time>2026-03-29T10:58:45.762Z</time></trkpt><trkpt lat="43.4775201" lon="11.6133912"><ele>232.20000000000002</ele><time>2026-03-29T10:58:46.782Z</time></trkpt><trkpt lat="43.4775934" lon="11.6132624"><ele>231.0</ele><time>2026-03-29T10:58:47.78Z</time></trkpt><trkpt lat="43.4776725" lon="11.6131273"><ele>231.0</ele><time>2026-03-29T10:58:48.761Z</time></trkpt><trkpt lat="43.4777589" lon="11.6129827"><ele>231.0</ele><time>2026-03-29T10:58:49.763Z</time></trkpt><trkpt lat="43.4778371" lon="11.6128184"><ele>231.0</ele><time>2026-03-29T10:58:50.797Z</time></trkpt><trkpt lat="43.4779006" lon="11.6126526"><ele>231.0</ele><time>2026-03-29T10:58:51.761Z</time></trkpt><trkpt lat="43.4779465" lon="11.6124531"><ele>231.33333333333331</ele><time>2026-03-29T10:58:52.773Z</time></trkpt><trkpt lat="43.4779684" lon="11.6122371"><ele>231.66666666666666</ele><time>2026-03-29T10:58:53.754Z</time></trkpt><trkpt lat="43.477969" lon="11.6119609"><ele>232.0</ele><time>2026-03-29T10:58:54.77Z</time></trkpt><trkpt lat="43.4779697" lon="11.6117121"><ele>230.66666666666666</ele><time>2026-03-29T10:58:55.755Z</time></trkpt><trkpt lat="43.4779553" lon="11.6114786"><ele>229.33333333333331</ele><time>2026-03-29T10:58:56.769Z</time></trkpt><trkpt lat="43.4779466" lon="11.6112357"><ele>228.0</ele><time>2026-03-29T10:58:57.773Z</time></trkpt><trkpt lat="43.477938" lon="11.610995"><ele>228.0</ele><time>2026-03-29T10:58:58.773Z</time></trkpt><trkpt lat="43.4779353" lon="11.6107152"><ele>228.0</ele><time>2026-03-29T10:58:59.789Z</time></trkpt><trkpt lat="43.4779229" lon="11.6104603"><ele>228.0</ele><time>2026-03-29T10:59:00.774Z</time></trkpt><trkpt lat="43.4779097" lon="11.6102052"><ele>230.33333333333331</ele><time>2026-03-29T10:59:01.746Z</time></trkpt><trkpt lat="43.4778947" lon="11.6099431"><ele>232.66666666666666</ele><time>2026-03-29T10:59:02.754Z</time></trkpt><trkpt lat="43.4778826" lon="11.6096901"><ele>235.0</ele><time>2026-03-29T10:59:03.755Z</time></trkpt><trkpt lat="43.4778682" lon="11.6094504"><ele>235.5</ele><time>2026-03-29T10:59:04.752Z</time></trkpt><trkpt lat="43.4778539" lon="11.6092253"><ele>236.0</ele><time>2026-03-29T10:59:05.781Z</time></trkpt><trkpt lat="43.4778311" lon="11.6090276"><ele>236.5</ele><time>2026-03-29T10:59:06.759Z</time></trkpt><trkpt lat="43.4778027" lon="11.608841"><ele>237.0</ele><time>2026-03-29T10:59:07.773Z</time></trkpt><trkpt lat="43.4777775" lon="11.6086863"><ele>237.6</ele><time>2026-03-29T10:59:08.769Z</time></trkpt><trkpt lat="43.477754" lon="11.6085521"><ele>238.2</ele><time>2026-03-29T10:59:09.765Z</time></trkpt><trkpt lat="43.4777227" lon="11.6084327"><ele>238.8</ele><time>2026-03-29T10:59:10.756Z</time></trkpt><trkpt lat="43.47767" lon="11.6082853"><ele>239.4</ele><time>2026-03-29T10:59:11.771Z</time></trkpt><trkpt lat="43.4776131" lon="11.6081159"><ele>240.0</ele><time>2026-03-29T10:59:12.768Z</time></trkpt><trkpt lat="43.477533" lon="11.6079639"><ele>240.0</ele><time>2026-03-29T10:59:14.772Z</time></trkpt><trkpt lat="43.4774625" lon="11.6078542"><ele>240.0</ele><time>2026-03-29T10:59:15.757Z</time></trkpt><trkpt lat="43.4774154" lon="11.6077737"><ele>240.0</ele><time>2026-03-29T10:59:16.758Z</time></trkpt><trkpt lat="43.4773359" lon="11.607621"><ele>240.0</ele><time>2026-03-29T10:59:17.756Z</time></trkpt><trkpt lat="43.4772099" lon="11.6074013"><ele>242.5</ele><time>2026-03-29T10:59:18.765Z</time></trkpt><trkpt lat="43.4770237" lon="11.6070787"><ele>245.0</ele><time>2026-03-29T10:59:19.753Z</time></trkpt><trkpt lat="43.4768905" lon="11.6067939"><ele>247.5</ele><time>2026-03-29T10:59:20.768Z</time></trkpt><trkpt lat="43.4767681" lon="11.6064911"><ele>250.0</ele><time>2026-03-29T10:59:21.771Z</time></trkpt><trkpt lat="43.4766826" lon="11.6061916"><ele>251.0</ele><time>2026-03-29T10:59:22.771Z</time></trkpt><trkpt lat="43.476587" lon="11.6059186"><ele>252.0</ele><time>2026-03-29T10:59:23.766Z</time></trkpt><trkpt lat="43.4764915" lon="11.6056607"><ele>253.0</ele><time>2026-03-29T10:59:24.788Z</time></trkpt><trkpt lat="43.4764061" lon="11.6054329"><ele>253.33333333333331</ele><time>2026-03-29T10:59:25.754Z</time></trkpt><trkpt lat="43.4763127" lon="11.6052234"><ele>253.66666666666669</ele><time>2026-03-29T10:59:26.761Z</time></trkpt><trkpt lat="43.47622" lon="11.605016"><ele>254.0</ele><time>2026-03-29T10:59:27.76Z</time></trkpt><trkpt lat="43.4761277" lon="11.6047962"><ele>253.66666666666669</ele><time>2026-03-29T10:59:28.76Z</time></trkpt><trkpt lat="43.4760348" lon="11.6045647"><ele>253.33333333333331</ele><time>2026-03-29T10:59:29.764Z</time></trkpt><trkpt lat="43.4759507" lon="11.6043283"><ele>253.0</ele><time>2026-03-29T10:59:30.758Z</time></trkpt><trkpt lat="43.4758588" lon="11.6040872"><ele>253.0</ele><time>2026-03-29T10:59:31.797Z</time></trkpt><trkpt lat="43.4757799" lon="11.6038564"><ele>253.0</ele><time>2026-03-29T10:59:32.756Z</time></trkpt><trkpt lat="43.475704" lon="11.6036069"><ele>253.0</ele><time>2026-03-29T10:59:33.756Z</time></trkpt><trkpt lat="43.4756316" lon="11.6033496"><ele>253.33333333333331</ele><time>2026-03-29T10:59:34.755Z</time></trkpt><trkpt lat="43.4755553" lon="11.6030802"><ele>253.66666666666669</ele><time>2026-03-29T10:59:35.767Z</time></trkpt><trkpt lat="43.4754721" lon="11.6027987"><ele>254.0</ele><time>2026-03-29T10:59:36.782Z</time></trkpt><trkpt lat="43.4753934" lon="11.6025151"><ele>254.0</ele><time>2026-03-29T10:59:37.769Z</time></trkpt><trkpt lat="43.4753148" lon="11.6022265"><ele>254.0</ele><time>2026-03-29T10:59:38.772Z</time></trkpt><trkpt lat="43.47524" lon="11.6019487"><ele>254.0</ele><time>2026-03-29T10:59:39.778Z</time></trkpt><trkpt lat="43.4751696" lon="11.6016873"><ele>254.0</ele><time>2026-03-29T10:59:40.765Z</time></trkpt><trkpt lat="43.4750995" lon="11.6014299"><ele>254.0</ele><time>2026-03-29T10:59:41.783Z</time></trkpt><trkpt lat="43.4750334" lon="11.601188"><ele>254.0</ele><time>2026-03-29T10:59:42.763Z</time></trkpt><trkpt lat="43.4749661" lon="11.6009407"><ele>254.0</ele><time>2026-03-29T10:59:43.78Z</time></trkpt><trkpt lat="43.474901" lon="11.6007063"><ele>254.0</ele><time>2026-03-29T10:59:44.761Z</time></trkpt><trkpt lat="43.4748342" lon="11.6004666"><ele>254.0</ele><time>2026-03-29T10:59:45.768Z</time></trkpt><trkpt lat="43.4747676" lon="11.600226"><ele>254.0</ele><time>2026-03-29T10:59:46.78Z</time></trkpt><trkpt lat="43.474707" lon="11.5999907"><ele>254.0</ele><time>2026-03-29T10:59:47.784Z</time></trkpt><trkpt lat="43.4746467" lon="11.5997694"><ele>254.0</ele><time>2026-03-29T10:59:48.77Z</time></trkpt><trkpt lat="43.4745863" lon="11.599557"><ele>254.66666666666669</ele><time>2026-03-29T10:59:49.757Z</time></trkpt><trkpt lat="43.4745238" lon="11.5993496"><ele>255.33333333333331</ele><time>2026-03-29T10:59:50.759Z</time></trkpt><trkpt lat="43.4744571" lon="11.5991425"><ele>256.0</ele><time>2026-03-29T10:59:51.771Z</time></trkpt><trkpt lat="43.4743906" lon="11.5989431"><ele>256.0</ele><time>2026-03-29T10:59:52.756Z</time></trkpt><trkpt lat="43.4743224" lon="11.5987359"><ele>256.0</ele><time>2026-03-29T10:59:53.794Z</time></trkpt><trkpt lat="43.4742594" lon="11.5985448"><ele>256.0</ele><time>2026-03-29T10:59:54.773Z</time></trkpt><trkpt lat="43.4741945" lon="11.5983519"><ele>256.0</ele><time>2026-03-29T10:59:55.768Z</time></trkpt><trkpt lat="43.4741279" lon="11.5981532"><ele>256.0</ele><time>2026-03-29T10:59:56.768Z</time></trkpt><trkpt lat="43.4740617" lon="11.5979417"><ele>256.0</ele><time>2026-03-29T10:59:57.772Z</time></trkpt><trkpt lat="43.4739887" lon="11.5977223"><ele>256.66666666666663</ele><time>2026-03-29T10:59:58.8Z</time></trkpt><trkpt lat="43.4739204" lon="11.5975099"><ele>257.3333333333333</ele><time>2026-03-29T10:59:59.768Z</time></trkpt><trkpt lat="43.4738479" lon="11.5972814"><ele>258.0</ele><time>2026-03-29T11:00:00.771Z</time></trkpt><trkpt lat="43.4737769" lon="11.597047"><ele>258.3333333333333</ele><time>2026-03-29T11:00:01.771Z</time></trkpt><trkpt lat="43.4737194" lon="11.5968082"><ele>258.66666666666663</ele><time>2026-03-29T11:00:02.725Z</time></trkpt><trkpt lat="43.473669" lon="11.5965496"><ele>259.0</ele><time>2026-03-29T11:00:03.705Z</time></trkpt><trkpt lat="43.4736245" lon="11.5963288"><ele>259.3333333333333</ele><time>2026-03-29T11:00:04.72Z</time></trkpt><trkpt lat="43.4735625" lon="11.5960336"><ele>259.6666666666667</ele><time>2026-03-29T11:00:05.712Z</time></trkpt><trkpt lat="43.4735169" lon="11.5957371"><ele>260.0</ele><time>2026-03-29T11:00:06.746Z</time></trkpt><trkpt lat="43.4734865" lon="11.5954633"><ele>260.33333333333337</ele><time>2026-03-29T11:00:07.717Z</time></trkpt><trkpt lat="43.4734503" lon="11.5951909"><ele>260.6666666666667</ele><time>2026-03-29T11:00:08.714Z</time></trkpt><trkpt lat="43.4734107" lon="11.5949132"><ele>261.0</ele><time>2026-03-29T11:00:09.706Z</time></trkpt><trkpt lat="43.4733706" lon="11.594631"><ele>260.0</ele><time>2026-03-29T11:00:10.701Z</time></trkpt><trkpt lat="43.4733383" lon="11.5943051"><ele>259.0</ele><time>2026-03-29T11:00:11.715Z</time></trkpt><trkpt lat="43.4733137" lon="11.5939562"><ele>258.5</ele><time>2026-03-29T11:00:12.721Z</time></trkpt><trkpt lat="43.4732897" lon="11.5936051"><ele>258.0</ele><time>2026-03-29T11:00:13.714Z</time></trkpt><trkpt lat="43.4732625" lon="11.5932624"><ele>258.0</ele><time>2026-03-29T11:00:14.699Z</time></trkpt><trkpt lat="43.4732379" lon="11.5929167"><ele>258.0</ele><time>2026-03-29T11:00:15.705Z</time></trkpt><trkpt lat="43.4732194" lon="11.5925748"><ele>258.5</ele><time>2026-03-29T11:00:16.717Z</time></trkpt><trkpt lat="43.4731989" lon="11.5922241"><ele>259.0</ele><time>2026-03-29T11:00:17.745Z</time></trkpt><trkpt lat="43.473181" lon="11.5918853"><ele>260.5</ele><time>2026-03-29T11:00:18.724Z</time></trkpt><trkpt lat="43.4731625" lon="11.5915496"><ele>262.0</ele><time>2026-03-29T11:00:19.699Z</time></trkpt><trkpt lat="43.4731426" lon="11.5912118"><ele>263.5</ele><time>2026-03-29T11:00:20.693Z</time></trkpt><trkpt lat="43.473123" lon="11.5908728"><ele>265.0</ele><time>2026-03-29T11:00:21.703Z</time></trkpt><trkpt lat="43.4730996" lon="11.5905402"><ele>266.0</ele><time>2026-03-29T11:00:22.713Z</time></trkpt><trkpt lat="43.4730788" lon="11.5902108"><ele>267.0</ele><time>2026-03-29T11:00:23.715Z</time></trkpt><trkpt lat="43.4730556" lon="11.5898708"><ele>267.0</ele><time>2026-03-29T11:00:24.706Z</time></trkpt><trkpt lat="43.4730336" lon="11.5895206"><ele>267.0</ele><time>2026-03-29T11:00:25.713Z</time></trkpt><trkpt lat="43.4730068" lon="11.5891872"><ele>267.0</ele><time>2026-03-29T11:00:26.725Z</time></trkpt><trkpt lat="43.4730002" lon="11.588877"><ele>267.0</ele><time>2026-03-29T11:00:27.725Z</time></trkpt><trkpt lat="43.4730148" lon="11.5885692"><ele>267.0</ele><time>2026-03-29T11:00:28.705Z</time></trkpt><trkpt lat="43.4730503" lon="11.5882613"><ele>267.5</ele><time>2026-03-29T11:00:29.719Z</time></trkpt><trkpt lat="43.4731081" lon="11.5879414"><ele>268.0</ele><time>2026-03-29T11:00:30.707Z</time></trkpt><trkpt lat="43.4731741" lon="11.5876466"><ele>268.3333333333333</ele><time>2026-03-29T11:00:31.708Z</time></trkpt><trkpt lat="43.4732421" lon="11.5874014"><ele>268.6666666666667</ele><time>2026-03-29T11:00:32.707Z</time></trkpt><trkpt lat="43.4733275" lon="11.5871297"><ele>269.0</ele><time>2026-03-29T11:00:33.717Z</time></trkpt><trkpt lat="43.4734149" lon="11.5868448"><ele>270.0</ele><time>2026-03-29T11:00:34.708Z</time></trkpt><trkpt lat="43.4735088" lon="11.5865586"><ele>271.0</ele><time>2026-03-29T11:00:35.713Z</time></trkpt><trkpt lat="43.473603" lon="11.5862762"><ele>271.5</ele><time>2026-03-29T11:00:36.706Z</time></trkpt><trkpt lat="43.4737002" lon="11.5859887"><ele>272.0</ele><time>2026-03-29T11:00:37.729Z</time></trkpt><trkpt lat="43.4737972" lon="11.5856971"><ele>271.33333333333337</ele><time>2026-03-29T11:00:38.728Z</time></trkpt><trkpt lat="43.4738899" lon="11.5854157"><ele>270.6666666666667</ele><time>2026-03-29T11:00:39.706Z</time></trkpt><trkpt lat="43.4739799" lon="11.5851331"><ele>270.0</ele><time>2026-03-29T11:00:40.705Z</time></trkpt><trkpt lat="43.4740742" lon="11.5848464"><ele>269.5</ele><time>2026-03-29T11:00:41.72Z</time></trkpt><trkpt lat="43.4741725" lon="11.5845715"><ele>269.0</ele><time>2026-03-29T11:00:42.697Z</time></trkpt><trkpt lat="43.4742844" lon="11.5842795"><ele>269.0</ele><time>2026-03-29T11:00:43.762Z</time></trkpt><trkpt lat="43.4743941" lon="11.5840218"><ele>269.0</ele><time>2026-03-29T11:00:44.722Z</time></trkpt><trkpt lat="43.474521" lon="11.5837569"><ele>269.0</ele><time>2026-03-29T11:00:45.732Z</time></trkpt><trkpt lat="43.4746418" lon="11.5834998"><ele>268.5</ele><time>2026-03-29T11:00:46.706Z</time></trkpt><trkpt lat="43.4747636" lon="11.5832364"><ele>268.0</ele><time>2026-03-29T11:00:47.704Z</time></trkpt><trkpt lat="43.4748909" lon="11.5829623"><ele>269.5</ele><time>2026-03-29T11:00:48.707Z</time></trkpt><trkpt lat="43.4750194" lon="11.5826822"><ele>271.0</ele><time>2026-03-29T11:00:49.732Z</time></trkpt><trkpt lat="43.4751444" lon="11.582414"><ele>271.0</ele><time>2026-03-29T11:00:50.711Z</time></trkpt><trkpt lat="43.4752767" lon="11.5821306"><ele>271.0</ele><time>2026-03-29T11:00:51.731Z</time></trkpt><trkpt lat="43.4754024" lon="11.5818627"><ele>269.0</ele><time>2026-03-29T11:00:52.695Z</time></trkpt><trkpt lat="43.4755285" lon="11.5815852"><ele>267.0</ele><time>2026-03-29T11:00:53.708Z</time></trkpt><trkpt lat="43.4756486" lon="11.581313"><ele>267.6666666666667</ele><time>2026-03-29T11:00:54.725Z</time></trkpt><trkpt lat="43.4757668" lon="11.5810534"><ele>268.33333333333337</ele><time>2026-03-29T11:00:55.715Z</time></trkpt><trkpt lat="43.4758848" lon="11.5807976"><ele>269.0</ele><time>2026-03-29T11:00:56.697Z</time></trkpt><trkpt lat="43.4760108" lon="11.5805339"><ele>269.0</ele><time>2026-03-29T11:00:57.719Z</time></trkpt><trkpt lat="43.4761264" lon="11.5802833"><ele>269.0</ele><time>2026-03-29T11:00:58.694Z</time></trkpt><trkpt lat="43.4762501" lon="11.5800154"><ele>269.0</ele><time>2026-03-29T11:00:59.725Z</time></trkpt><trkpt lat="43.4763687" lon="11.5797527"><ele>268.5</ele><time>2026-03-29T11:01:00.708Z</time></trkpt><trkpt lat="43.4764898" lon="11.579489"><ele>268.0</ele><time>2026-03-29T11:01:01.71Z</time></trkpt><trkpt lat="43.4766105" lon="11.5792211"><ele>268.0</ele><time>2026-03-29T11:01:02.706Z</time></trkpt><trkpt lat="43.4767345" lon="11.5789497"><ele>268.0</ele><time>2026-03-29T11:01:03.721Z</time></trkpt><trkpt lat="43.4768558" lon="11.5786866"><ele>268.3333333333333</ele><time>2026-03-29T11:01:04.718Z</time></trkpt><trkpt lat="43.4769762" lon="11.578425"><ele>268.6666666666667</ele><time>2026-03-29T11:01:05.723Z</time></trkpt><trkpt lat="43.4770916" lon="11.5781691"><ele>269.0</ele><time>2026-03-29T11:01:06.71Z</time></trkpt><trkpt lat="43.4771898" lon="11.5779128"><ele>269.33333333333337</ele><time>2026-03-29T11:01:07.694Z</time></trkpt><trkpt lat="43.4772831" lon="11.577631"><ele>269.6666666666667</ele><time>2026-03-29T11:01:08.724Z</time></trkpt><trkpt lat="43.4773609" lon="11.5773546"><ele>270.0</ele><time>2026-03-29T11:01:09.7Z</time></trkpt><trkpt lat="43.4774284" lon="11.5770569"><ele>270.3333333333333</ele><time>2026-03-29T11:01:10.7Z</time></trkpt><trkpt lat="43.4774793" lon="11.5767542"><ele>270.66666666666663</ele><time>2026-03-29T11:01:11.705Z</time></trkpt><trkpt lat="43.4775141" lon="11.5764699"><ele>271.0</ele><time>2026-03-29T11:01:12.712Z</time></trkpt><trkpt lat="43.4775229" lon="11.5761786"><ele>270.3333333333333</ele><time>2026-03-29T11:01:13.708Z</time></trkpt><trkpt lat="43.4775232" lon="11.575877"><ele>269.6666666666667</ele><time>2026-03-29T11:01:14.703Z</time></trkpt><trkpt lat="43.4775176" lon="11.5755651"><ele>269.0</ele><time>2026-03-29T11:01:15.721Z</time></trkpt><trkpt lat="43.4775046" lon="11.5752586"><ele>268.0</ele><time>2026-03-29T11:01:16.703Z</time></trkpt><trkpt lat="43.4774907" lon="11.574945"><ele>267.0</ele><time>2026-03-29T11:01:17.715Z</time></trkpt><trkpt lat="43.4774822" lon="11.574643"><ele>266.0</ele><time>2026-03-29T11:01:18.702Z</time></trkpt><trkpt lat="43.4774873" lon="11.5743334"><ele>266.0</ele><time>2026-03-29T11:01:19.7Z</time></trkpt><trkpt lat="43.477522" lon="11.5740227"><ele>266.0</ele><time>2026-03-29T11:01:20.704Z</time></trkpt><trkpt lat="43.4775835" lon="11.5737137"><ele>266.0</ele><time>2026-03-29T11:01:21.717Z</time></trkpt><trkpt lat="43.4776668" lon="11.5734238"><ele>266.0</ele><time>2026-03-29T11:01:22.707Z</time></trkpt><trkpt lat="43.477765" lon="11.573133"><ele>266.0</ele><time>2026-03-29T11:01:23.719Z</time></trkpt><trkpt lat="43.4778662" lon="11.5728486"><ele>266.0</ele><time>2026-03-29T11:01:24.732Z</time></trkpt><trkpt lat="43.4779686" lon="11.5725715"><ele>266.0</ele><time>2026-03-29T11:01:25.719Z</time></trkpt><trkpt lat="43.4780691" lon="11.5723103"><ele>266.0</ele><time>2026-03-29T11:01:26.698Z</time></trkpt><trkpt lat="43.4781703" lon="11.5720318"><ele>266.0</ele><time>2026-03-29T11:01:27.716Z</time></trkpt><trkpt lat="43.4782597" lon="11.5717682"><ele>266.0</ele><time>2026-03-29T11:01:28.716Z</time></trkpt><trkpt lat="43.4783476" lon="11.5715221"><ele>266.0</ele><time>2026-03-29T11:01:29.706Z</time></trkpt><trkpt lat="43.4784187" lon="11.5712886"><ele>266.0</ele><time>2026-03-29T11:01:30.701Z</time></trkpt><trkpt lat="43.4784825" lon="11.5710523"><ele>267.33333333333337</ele><time>2026-03-29T11:01:31.721Z</time></trkpt><trkpt lat="43.4785369" lon="11.5708007"><ele>268.6666666666667</ele><time>2026-03-29T11:01:32.705Z</time></trkpt><trkpt lat="43.4785789" lon="11.5705555"><ele>270.0</ele><time>2026-03-29T11:01:33.708Z</time></trkpt><trkpt lat="43.4786091" lon="11.5703172"><ele>270.0</ele><time>2026-03-29T11:01:34.717Z</time></trkpt><trkpt lat="43.4786247" lon="11.5700898"><ele>270.0</ele><time>2026-03-29T11:01:35.708Z</time></trkpt><trkpt lat="43.4786361" lon="11.5698654"><ele>270.0</ele><time>2026-03-29T11:01:36.716Z</time></trkpt><trkpt lat="43.4786499" lon="11.5696504"><ele>270.6666666666667</ele><time>2026-03-29T11:01:37.708Z</time></trkpt><trkpt lat="43.4786635" lon="11.5694409"><ele>271.33333333333337</ele><time>2026-03-29T11:01:38.716Z</time></trkpt><trkpt lat="43.4786753" lon="11.5692303"><ele>272.0</ele><time>2026-03-29T11:01:39.707Z</time></trkpt><trkpt lat="43.4786888" lon="11.5690165"><ele>272.0</ele><time>2026-03-29T11:01:40.733Z</time></trkpt><trkpt lat="43.4787055" lon="11.5688085"><ele>272.0</ele><time>2026-03-29T11:01:41.753Z</time></trkpt><trkpt lat="43.4787206" lon="11.5686199"><ele>272.0</ele><time>2026-03-29T11:01:42.715Z</time></trkpt><trkpt lat="43.4787338" lon="11.568415"><ele>272.0</ele><time>2026-03-29T11:01:43.729Z</time></trkpt><trkpt lat="43.4787387" lon="11.5682402"><ele>272.5</ele><time>2026-03-29T11:01:44.712Z</time></trkpt><trkpt lat="43.4787447" lon="11.568041"><ele>273.0</ele><time>2026-03-29T11:01:45.698Z</time></trkpt><trkpt lat="43.4787477" lon="11.5678417"><ele>273.5</ele><time>2026-03-29T11:01:46.701Z</time></trkpt><trkpt lat="43.4787452" lon="11.5676391"><ele>274.0</ele><time>2026-03-29T11:01:47.703Z</time></trkpt><trkpt lat="43.4787318" lon="11.567451"><ele>274.3333333333333</ele><time>2026-03-29T11:01:48.703Z</time></trkpt><trkpt lat="43.4787169" lon="11.5672458"><ele>274.6666666666667</ele><time>2026-03-29T11:01:49.708Z</time></trkpt><trkpt lat="43.4786851" lon="11.5670359"><ele>275.0</ele><time>2026-03-29T11:01:50.712Z</time></trkpt><trkpt lat="43.478646" lon="11.5668313"><ele>274.33333333333337</ele><time>2026-03-29T11:01:51.695Z</time></trkpt><trkpt lat="43.4785991" lon="11.5666204"><ele>273.6666666666667</ele><time>2026-03-29T11:01:52.741Z</time></trkpt><trkpt lat="43.4785405" lon="11.5664231"><ele>273.0</ele><time>2026-03-29T11:01:53.716Z</time></trkpt><trkpt lat="43.4784708" lon="11.5662287"><ele>272.0</ele><time>2026-03-29T11:01:54.712Z</time></trkpt><trkpt lat="43.4783966" lon="11.5660392"><ele>271.0</ele><time>2026-03-29T11:01:55.713Z</time></trkpt><trkpt lat="43.4783182" lon="11.5658547"><ele>270.0</ele><time>2026-03-29T11:01:56.712Z</time></trkpt><trkpt lat="43.4782458" lon="11.5656792"><ele>270.0</ele><time>2026-03-29T11:01:57.726Z</time></trkpt><trkpt lat="43.4781728" lon="11.5655046"><ele>270.0</ele><time>2026-03-29T11:01:58.713Z</time></trkpt><trkpt lat="43.4780992" lon="11.5653196"><ele>270.0</ele><time>2026-03-29T11:01:59.738Z</time></trkpt><trkpt lat="43.4780182" lon="11.5651285"><ele>270.0</ele><time>2026-03-29T11:02:00.723Z</time></trkpt><trkpt lat="43.4779277" lon="11.5649345"><ele>270.0</ele><time>2026-03-29T11:02:01.709Z</time></trkpt><trkpt lat="43.4778412" lon="11.564729"><ele>270.0</ele><time>2026-03-29T11:02:02.728Z</time></trkpt><trkpt lat="43.4777675" lon="11.5645174"><ele>270.0</ele><time>2026-03-29T11:02:03.724Z</time></trkpt><trkpt lat="43.4776931" lon="11.5642961"><ele>270.0</ele><time>2026-03-29T11:02:04.74Z</time></trkpt><trkpt lat="43.4776187" lon="11.5640745"><ele>270.0</ele><time>2026-03-29T11:02:05.71Z</time></trkpt><trkpt lat="43.4775441" lon="11.5638436"><ele>268.0</ele><time>2026-03-29T11:02:06.706Z</time></trkpt><trkpt lat="43.4774716" lon="11.5636066"><ele>266.0</ele><time>2026-03-29T11:02:07.701Z</time></trkpt><trkpt lat="43.4774016" lon="11.5633729"><ele>264.0</ele><time>2026-03-29T11:02:08.707Z</time></trkpt><trkpt lat="43.4773377" lon="11.5631492"><ele>264.0</ele><time>2026-03-29T11:02:09.715Z</time></trkpt><trkpt lat="43.4772815" lon="11.5629294"><ele>264.0</ele><time>2026-03-29T11:02:10.699Z</time></trkpt><trkpt lat="43.4772318" lon="11.5626962"><ele>264.0</ele><time>2026-03-29T11:02:11.774Z</time></trkpt><trkpt lat="43.4771979" lon="11.5624782"><ele>263.3333333333333</ele><time>2026-03-29T11:02:12.71Z</time></trkpt><trkpt lat="43.4771808" lon="11.5622383"><ele>262.66666666666663</ele><time>2026-03-29T11:02:13.703Z</time></trkpt><trkpt lat="43.47718" lon="11.5619939"><ele>262.0</ele><time>2026-03-29T11:02:14.698Z</time></trkpt><trkpt lat="43.4772013" lon="11.5617477"><ele>262.0</ele><time>2026-03-29T11:02:15.72Z</time></trkpt><trkpt lat="43.4772398" lon="11.5615266"><ele>262.0</ele><time>2026-03-29T11:02:16.709Z</time></trkpt><trkpt lat="43.4772842" lon="11.5613335"><ele>262.0</ele><time>2026-03-29T11:02:17.716Z</time></trkpt><trkpt lat="43.4773251" lon="11.561177"><ele>262.0</ele><time>2026-03-29T11:02:18.717Z</time></trkpt><trkpt lat="43.4773658" lon="11.5610477"><ele>262.0</ele><time>2026-03-29T11:02:19.695Z</time></trkpt><trkpt lat="43.4774022" lon="11.5609275"><ele>262.0</ele><time>2026-03-29T11:02:20.713Z</time></trkpt><trkpt lat="43.4774299" lon="11.5608483"><ele>262.0</ele><time>2026-03-29T11:02:21.706Z</time></trkpt><trkpt lat="43.4774693" lon="11.5607633"><ele>262.0</ele><time>2026-03-29T11:02:22.711Z</time></trkpt><trkpt lat="43.4775098" lon="11.5606813"><ele>262.0</ele><time>2026-03-29T11:02:23.711Z</time></trkpt><trkpt lat="43.4775355" lon="11.5605915"><ele>262.0</ele><time>2026-03-29T11:02:24.707Z</time></trkpt><trkpt lat="43.4775645" lon="11.5604777"><ele>262.2</ele><time>2026-03-29T11:02:25.703Z</time></trkpt><trkpt lat="43.4776102" lon="11.5603659"><ele>262.4</ele><time>2026-03-29T11:02:26.702Z</time></trkpt><trkpt lat="43.4776727" lon="11.5602889"><ele>262.6</ele><time>2026-03-29T11:02:27.71Z</time></trkpt><trkpt lat="43.4777638" lon="11.5602346"><ele>262.8</ele><time>2026-03-29T11:02:28.714Z</time></trkpt><trkpt lat="43.477858" lon="11.5602127"><ele>263.0</ele><time>2026-03-29T11:02:29.696Z</time></trkpt><trkpt lat="43.4779578" lon="11.5602094"><ele>264.0</ele><time>2026-03-29T11:02:30.705Z</time></trkpt><trkpt lat="43.4780783" lon="11.5602244"><ele>265.0</ele><time>2026-03-29T11:02:31.739Z</time></trkpt><trkpt lat="43.4781994" lon="11.560238"><ele>266.0</ele><time>2026-03-29T11:02:32.711Z</time></trkpt><trkpt lat="43.4783688" lon="11.5602654"><ele>267.0</ele><time>2026-03-29T11:02:33.71Z</time></trkpt><trkpt lat="43.4785801" lon="11.5603191"><ele>265.0</ele><time>2026-03-29T11:02:34.761Z</time></trkpt><trkpt lat="43.4787993" lon="11.5603844"><ele>263.0</ele><time>2026-03-29T11:02:35.714Z</time></trkpt><trkpt lat="43.4790378" lon="11.5604748"><ele>263.0</ele><time>2026-03-29T11:02:36.712Z</time></trkpt><trkpt lat="43.4792541" lon="11.5605716"><ele>263.0</ele><time>2026-03-29T11:02:37.708Z</time></trkpt><trkpt lat="43.4794386" lon="11.560718"><ele>263.0</ele><time>2026-03-29T11:02:38.719Z</time></trkpt><trkpt lat="43.4796192" lon="11.5608394"><ele>264.6666666666667</ele><time>2026-03-29T11:02:39.708Z</time></trkpt><trkpt lat="43.4797897" lon="11.5609404"><ele>266.3333333333333</ele><time>2026-03-29T11:02:40.702Z</time></trkpt><trkpt lat="43.4799611" lon="11.5610368"><ele>268.0</ele><time>2026-03-29T11:02:41.704Z</time></trkpt><trkpt lat="43.4801282" lon="11.5611345"><ele>267.66666666666663</ele><time>2026-03-29T11:02:42.71Z</time></trkpt><trkpt lat="43.4802932" lon="11.5612338"><ele>267.3333333333333</ele><time>2026-03-29T11:02:43.724Z</time></trkpt><trkpt lat="43.4804514" lon="11.5613277"><ele>267.0</ele><time>2026-03-29T11:02:44.704Z</time></trkpt><trkpt lat="43.4806152" lon="11.5614255"><ele>267.0</ele><time>2026-03-29T11:02:45.726Z</time></trkpt><trkpt lat="43.4807692" lon="11.5615236"><ele>267.0</ele><time>2026-03-29T11:02:46.725Z</time></trkpt><trkpt lat="43.4809151" lon="11.5616299"><ele>267.0</ele><time>2026-03-29T11:02:47.714Z</time></trkpt><trkpt lat="43.4810443" lon="11.5617522"><ele>267.0</ele><time>2026-03-29T11:02:48.7Z</time></trkpt><trkpt lat="43.4811627" lon="11.5618956"><ele>267.0</ele><time>2026-03-29T11:02:49.717Z</time></trkpt><trkpt lat="43.48126" lon="11.5620536"><ele>267.0</ele><time>2026-03-29T11:02:50.711Z</time></trkpt><trkpt lat="43.4813398" lon="11.562207"><ele>267.0</ele><time>2026-03-29T11:02:51.715Z</time></trkpt><trkpt lat="43.481418" lon="11.5623281"><ele>265.8</ele><time>2026-03-29T11:02:52.716Z</time></trkpt><trkpt lat="43.4815007" lon="11.5624149"><ele>264.6</ele><time>2026-03-29T11:02:53.719Z</time></trkpt><trkpt lat="43.481584" lon="11.5624499"><ele>263.40000000000003</ele><time>2026-03-29T11:02:54.703Z</time></trkpt><trkpt lat="43.4816706" lon="11.5624236"><ele>262.2</ele><time>2026-03-29T11:02:55.714Z</time></trkpt><trkpt lat="43.4817764" lon="11.5623506"><ele>261.0</ele><time>2026-03-29T11:02:56.718Z</time></trkpt><trkpt lat="43.4818798" lon="11.5622603"><ele>261.0</ele><time>2026-03-29T11:02:57.714Z</time></trkpt><trkpt lat="43.4819693" lon="11.5622207"><ele>261.0</ele><time>2026-03-29T11:02:58.701Z</time></trkpt><trkpt lat="43.4820919" lon="11.5621438"><ele>261.0</ele><time>2026-03-29T11:02:59.745Z</time></trkpt><trkpt lat="43.4821935" lon="11.5620769"><ele>261.0</ele><time>2026-03-29T11:03:00.708Z</time></trkpt><trkpt lat="43.4823206" lon="11.5619755"><ele>263.0</ele><time>2026-03-29T11:03:01.72Z</time></trkpt><trkpt lat="43.4824493" lon="11.5618839"><ele>265.0</ele><time>2026-03-29T11:03:02.708Z</time></trkpt><trkpt lat="43.4826008" lon="11.561833"><ele>267.0</ele><time>2026-03-29T11:03:03.705Z</time></trkpt><trkpt lat="43.4827439" lon="11.5618271"><ele>269.0</ele><time>2026-03-29T11:03:04.705Z</time></trkpt><trkpt lat="43.4829055" lon="11.5618603"><ele>270.33333333333337</ele><time>2026-03-29T11:03:05.735Z</time></trkpt><trkpt lat="43.4830604" lon="11.561928"><ele>271.6666666666667</ele><time>2026-03-29T11:03:06.703Z</time></trkpt><trkpt lat="43.4832145" lon="11.5620227"><ele>273.0</ele><time>2026-03-29T11:03:07.708Z</time></trkpt><trkpt lat="43.4833689" lon="11.5621128"><ele>272.75</ele><time>2026-03-29T11:03:08.713Z</time></trkpt><trkpt lat="43.4835138" lon="11.5621994"><ele>272.5</ele><time>2026-03-29T11:03:09.73Z</time></trkpt><trkpt lat="43.4836415" lon="11.5623005"><ele>272.25</ele><time>2026-03-29T11:03:10.721Z</time></trkpt><trkpt lat="43.4837388" lon="11.5624179"><ele>272.0</ele><time>2026-03-29T11:03:11.722Z</time></trkpt><trkpt lat="43.4838211" lon="11.5625565"><ele>272.0</ele><time>2026-03-29T11:03:12.707Z</time></trkpt><trkpt lat="43.4838895" lon="11.5626746"><ele>272.0</ele><time>2026-03-29T11:03:13.697Z</time></trkpt><trkpt lat="43.4839676" lon="11.5627842"><ele>272.0</ele><time>2026-03-29T11:03:14.712Z</time></trkpt><trkpt lat="43.4840298" lon="11.5628693"><ele>272.0</ele><time>2026-03-29T11:03:15.706Z</time></trkpt><trkpt lat="43.4840816" lon="11.5629288"><ele>272.0</ele><time>2026-03-29T11:03:16.717Z</time></trkpt><trkpt lat="43.4841421" lon="11.563004"><ele>270.6666666666667</ele><time>2026-03-29T11:03:18.722Z</time></trkpt><trkpt lat="43.484211" lon="11.5630725"><ele>269.33333333333337</ele><time>2026-03-29T11:03:21.729Z</time></trkpt><trkpt lat="43.4842752" lon="11.563147"><ele>268.0</ele><time>2026-03-29T11:03:23.707Z</time></trkpt><trkpt lat="43.4843621" lon="11.5632382"><ele>266.6666666666667</ele><time>2026-03-29T11:03:25.72Z</time></trkpt><trkpt lat="43.4844181" lon="11.5632873"><ele>265.3333333333333</ele><time>2026-03-29T11:03:26.758Z</time></trkpt><trkpt lat="43.4844758" lon="11.5633229"><ele>264.0</ele><time>2026-03-29T11:03:27.746Z</time></trkpt><trkpt lat="43.4845371" lon="11.5633509"><ele>265.2</ele><time>2026-03-29T11:03:28.72Z</time></trkpt><trkpt lat="43.4846243" lon="11.5633649"><ele>266.4</ele><time>2026-03-29T11:03:29.709Z</time></trkpt><trkpt lat="43.4847146" lon="11.5633464"><ele>267.6</ele><time>2026-03-29T11:03:30.766Z</time></trkpt><trkpt lat="43.4848045" lon="11.5633057"><ele>268.8</ele><time>2026-03-29T11:03:31.703Z</time></trkpt><trkpt lat="43.4849118" lon="11.5632322"><ele>270.0</ele><time>2026-03-29T11:03:32.76Z</time></trkpt><trkpt lat="43.4850191" lon="11.5631569"><ele>270.0</ele><time>2026-03-29T11:03:33.753Z</time></trkpt><trkpt lat="43.485119" lon="11.5630796"><ele>270.0</ele><time>2026-03-29T11:03:34.71Z</time></trkpt><trkpt lat="43.4852428" lon="11.5629869"><ele>270.0</ele><time>2026-03-29T11:03:35.708Z</time></trkpt><trkpt lat="43.4853753" lon="11.5628972"><ele>270.0</ele><time>2026-03-29T11:03:36.715Z</time></trkpt><trkpt lat="43.4855133" lon="11.562825"><ele>269.0</ele><time>2026-03-29T11:03:37.714Z</time></trkpt><trkpt lat="43.4856556" lon="11.5627835"><ele>268.0</ele><time>2026-03-29T11:03:38.729Z</time></trkpt><trkpt lat="43.4857907" lon="11.5627695"><ele>267.0</ele><time>2026-03-29T11:03:39.728Z</time></trkpt><trkpt lat="43.4859159" lon="11.5627685"><ele>266.0</ele><time>2026-03-29T11:03:40.705Z</time></trkpt><trkpt lat="43.4860388" lon="11.5627664"><ele>266.0</ele><time>2026-03-29T11:03:41.699Z</time></trkpt><trkpt lat="43.4861536" lon="11.5627425"><ele>266.0</ele><time>2026-03-29T11:03:42.705Z</time></trkpt><trkpt lat="43.4862426" lon="11.5626942"><ele>266.0</ele><time>2026-03-29T11:03:43.713Z</time></trkpt><trkpt lat="43.4863275" lon="11.5626194"><ele>266.0</ele><time>2026-03-29T11:03:44.696Z</time></trkpt><trkpt lat="43.4864022" lon="11.5625212"><ele>266.0</ele><time>2026-03-29T11:03:45.705Z</time></trkpt><trkpt lat="43.4864539" lon="11.5624103"><ele>264.0</ele><time>2026-03-29T11:03:46.708Z</time></trkpt><trkpt lat="43.4864841" lon="11.5622847"><ele>262.0</ele><time>2026-03-29T11:03:47.709Z</time></trkpt><trkpt lat="43.4864963" lon="11.5621531"><ele>260.0</ele><time>2026-03-29T11:03:48.759Z</time></trkpt><trkpt lat="43.4864878" lon="11.5620312"><ele>258.0</ele><time>2026-03-29T11:03:49.726Z</time></trkpt><trkpt lat="43.4864783" lon="11.561913"><ele>256.0</ele><time>2026-03-29T11:03:50.707Z</time></trkpt><trkpt lat="43.486469" lon="11.5617944"><ele>255.99999999999997</ele><time>2026-03-29T11:03:51.719Z</time></trkpt><trkpt lat="43.4864624" lon="11.5616751"><ele>256.0</ele><time>2026-03-29T11:03:52.739Z</time></trkpt><trkpt lat="43.486464" lon="11.5615585"><ele>256.0</ele><time>2026-03-29T11:03:53.745Z</time></trkpt><trkpt lat="43.4864673" lon="11.5614715"><ele>256.0</ele><time>2026-03-29T11:03:54.744Z</time></trkpt><trkpt lat="43.4864773" lon="11.5613579"><ele>255.99999999999997</ele><time>2026-03-29T11:03:55.722Z</time></trkpt><trkpt lat="43.4864939" lon="11.5612288"><ele>256.0</ele><time>2026-03-29T11:03:56.723Z</time></trkpt><trkpt lat="43.4865198" lon="11.5611137"><ele>256.5</ele><time>2026-03-29T11:03:57.711Z</time></trkpt><trkpt lat="43.4865605" lon="11.5609754"><ele>257.0</ele><time>2026-03-29T11:03:58.695Z</time></trkpt><trkpt lat="43.4866146" lon="11.5608252"><ele>257.5</ele><time>2026-03-29T11:03:59.725Z</time></trkpt><trkpt lat="43.4866589" lon="11.5607028"><ele>258.0</ele><time>2026-03-29T11:04:00.725Z</time></trkpt><trkpt lat="43.4867134" lon="11.5605543"><ele>258.0</ele><time>2026-03-29T11:04:01.744Z</time></trkpt><trkpt lat="43.4867664" lon="11.5604181"><ele>258.0</ele><time>2026-03-29T11:04:02.733Z</time></trkpt><trkpt lat="43.4868145" lon="11.5602962"><ele>258.0</ele><time>2026-03-29T11:04:03.716Z</time></trkpt><trkpt lat="43.4868598" lon="11.5601581"><ele>258.0</ele><time>2026-03-29T11:04:04.718Z</time></trkpt><trkpt lat="43.4869113" lon="11.5600026"><ele>258.0</ele><time>2026-03-29T11:04:05.753Z</time></trkpt><trkpt lat="43.4869777" lon="11.5598655"><ele>258.4</ele><time>2026-03-29T11:04:06.756Z</time></trkpt><trkpt lat="43.487057" lon="11.5597589"><ele>258.8</ele><time>2026-03-29T11:04:07.714Z</time></trkpt><trkpt lat="43.4871502" lon="11.559693"><ele>259.2</ele><time>2026-03-29T11:04:08.749Z</time></trkpt><trkpt lat="43.4872357" lon="11.5596641"><ele>259.6</ele><time>2026-03-29T11:04:09.72Z</time></trkpt><trkpt lat="43.4873115" lon="11.5596844"><ele>260.0</ele><time>2026-03-29T11:04:10.73Z</time></trkpt><trkpt lat="43.4873722" lon="11.5597593"><ele>259.0</ele><time>2026-03-29T11:04:11.697Z</time></trkpt><trkpt lat="43.4873983" lon="11.5598745"><ele>258.0</ele><time>2026-03-29T11:04:12.715Z</time></trkpt><trkpt lat="43.4873938" lon="11.559999"><ele>257.0</ele><time>2026-03-29T11:04:13.707Z</time></trkpt><trkpt lat="43.4873678" lon="11.5601569"><ele>256.0</ele><time>2026-03-29T11:04:14.736Z</time></trkpt><trkpt lat="43.487336" lon="11.5603314"><ele>255.0</ele><time>2026-03-29T11:04:15.729Z</time></trkpt><trkpt lat="43.487311" lon="11.5605085"><ele>255.0</ele><time>2026-03-29T11:04:16.767Z</time></trkpt><trkpt lat="43.4872865" lon="11.56067"><ele>255.0</ele><time>2026-03-29T11:04:17.715Z</time></trkpt><trkpt lat="43.4872599" lon="11.5608306"><ele>255.0</ele><time>2026-03-29T11:04:18.714Z</time></trkpt><trkpt lat="43.4872343" lon="11.5609817"><ele>255.0</ele><time>2026-03-29T11:04:19.71Z</time></trkpt><trkpt lat="43.4872161" lon="11.5611096"><ele>255.0</ele><time>2026-03-29T11:04:20.697Z</time></trkpt><trkpt lat="43.4872037" lon="11.5612456"><ele>253.8</ele><time>2026-03-29T11:04:21.714Z</time></trkpt><trkpt lat="43.4872147" lon="11.5613731"><ele>252.6</ele><time>2026-03-29T11:04:22.709Z</time></trkpt><trkpt lat="43.4872401" lon="11.5614601"><ele>251.39999999999998</ele><time>2026-03-29T11:04:23.712Z</time></trkpt><trkpt lat="43.4872917" lon="11.5615784"><ele>250.2</ele><time>2026-03-29T11:04:24.716Z</time></trkpt><trkpt lat="43.487371" lon="11.5616967"><ele>249.0</ele><time>2026-03-29T11:04:25.732Z</time></trkpt><trkpt lat="43.4874686" lon="11.5618085"><ele>249.0</ele><time>2026-03-29T11:04:26.718Z</time></trkpt><trkpt lat="43.4875824" lon="11.5619209"><ele>249.0</ele><time>2026-03-29T11:04:27.743Z</time></trkpt><trkpt lat="43.4876955" lon="11.5620229"><ele>249.0</ele><time>2026-03-29T11:04:28.74Z</time></trkpt><trkpt lat="43.4878241" lon="11.5621094"><ele>249.0</ele><time>2026-03-29T11:04:29.751Z</time></trkpt><trkpt lat="43.4879576" lon="11.5621856"><ele>246.33333333333331</ele><time>2026-03-29T11:04:30.72Z</time></trkpt><trkpt lat="43.4881246" lon="11.5622595"><ele>243.66666666666666</ele><time>2026-03-29T11:04:31.717Z</time></trkpt><trkpt lat="43.4883234" lon="11.562324"><ele>241.0</ele><time>2026-03-29T11:04:32.752Z</time></trkpt><trkpt lat="43.4885264" lon="11.5623872"><ele>241.0</ele><time>2026-03-29T11:04:33.722Z</time></trkpt><trkpt lat="43.4887247" lon="11.5624523"><ele>241.0</ele><time>2026-03-29T11:04:34.711Z</time></trkpt><trkpt lat="43.4889286" lon="11.5625172"><ele>241.0</ele><time>2026-03-29T11:04:35.729Z</time></trkpt><trkpt lat="43.4891008" lon="11.5625941"><ele>239.66666666666666</ele><time>2026-03-29T11:04:36.71Z</time></trkpt><trkpt lat="43.4892677" lon="11.5626578"><ele>238.33333333333331</ele><time>2026-03-29T11:04:37.706Z</time></trkpt><trkpt lat="43.4894343" lon="11.5627084"><ele>237.0</ele><time>2026-03-29T11:04:38.765Z</time></trkpt><trkpt lat="43.489576" lon="11.5627186"><ele>234.66666666666669</ele><time>2026-03-29T11:04:39.705Z</time></trkpt><trkpt lat="43.4897703" lon="11.562722"><ele>232.33333333333334</ele><time>2026-03-29T11:04:40.784Z</time></trkpt><trkpt lat="43.4899152" lon="11.5627063"><ele>230.0</ele><time>2026-03-29T11:04:41.708Z</time></trkpt><trkpt lat="43.4900787" lon="11.5626824"><ele>230.0</ele><time>2026-03-29T11:04:42.751Z</time></trkpt><trkpt lat="43.4902104" lon="11.5626559"><ele>230.0</ele><time>2026-03-29T11:04:43.706Z</time></trkpt><trkpt lat="43.4903567" lon="11.56262"><ele>230.0</ele><time>2026-03-29T11:04:44.746Z</time></trkpt><trkpt lat="43.4904462" lon="11.562587"><ele>230.0</ele><time>2026-03-29T11:04:45.712Z</time></trkpt><trkpt lat="43.4905924" lon="11.5625593"><ele>227.5</ele><time>2026-03-29T11:04:46.713Z</time></trkpt><trkpt lat="43.4907387" lon="11.5625332"><ele>225.0</ele><time>2026-03-29T11:04:47.703Z</time></trkpt><trkpt lat="43.4908761" lon="11.5624997"><ele>222.5</ele><time>2026-03-29T11:04:48.706Z</time></trkpt><trkpt lat="43.4910049" lon="11.5624696"><ele>220.0</ele><time>2026-03-29T11:04:49.701Z</time></trkpt><trkpt lat="43.4911309" lon="11.5624397"><ele>215.66666666666666</ele><time>2026-03-29T11:04:50.728Z</time></trkpt><trkpt lat="43.4912789" lon="11.5624117"><ele>211.33333333333331</ele><time>2026-03-29T11:04:52.058Z</time></trkpt><trkpt lat="43.491445" lon="11.5622545"><ele>207.0</ele><time>2026-03-29T11:04:53.774Z</time></trkpt><trkpt lat="43.4915213" lon="11.56213"><ele>208.5</ele><time>2026-03-29T11:04:54.759Z</time></trkpt><trkpt lat="43.491582" lon="11.5619896"><ele>210.0</ele><time>2026-03-29T11:04:55.784Z</time></trkpt><trkpt lat="43.4916353" lon="11.5618318"><ele>211.5</ele><time>2026-03-29T11:04:56.776Z</time></trkpt><trkpt lat="43.4916718" lon="11.5616788"><ele>213.0</ele><time>2026-03-29T11:04:57.765Z</time></trkpt><trkpt lat="43.4916977" lon="11.5615309"><ele>213.0</ele><time>2026-03-29T11:04:58.768Z</time></trkpt><trkpt lat="43.4917158" lon="11.5613843"><ele>213.0</ele><time>2026-03-29T11:04:59.772Z</time></trkpt><trkpt lat="43.4917351" lon="11.5612471"><ele>213.0</ele><time>2026-03-29T11:05:00.76Z</time></trkpt><trkpt lat="43.4917617" lon="11.561105"><ele>213.0</ele><time>2026-03-29T11:05:01.784Z</time></trkpt><trkpt lat="43.4918121" lon="11.5609965"><ele>213.0</ele><time>2026-03-29T11:05:02.779Z</time></trkpt><trkpt lat="43.491885" lon="11.5609297"><ele>212.60000000000002</ele><time>2026-03-29T11:05:03.775Z</time></trkpt><trkpt lat="43.4919596" lon="11.5609138"><ele>212.20000000000002</ele><time>2026-03-29T11:05:04.766Z</time></trkpt><trkpt lat="43.4920356" lon="11.5609535"><ele>211.8</ele><time>2026-03-29T11:05:05.783Z</time></trkpt><trkpt lat="43.4921293" lon="11.561041"><ele>211.4</ele><time>2026-03-29T11:05:06.77Z</time></trkpt><trkpt lat="43.4922217" lon="11.5611447"><ele>211.0</ele><time>2026-03-29T11:05:07.762Z</time></trkpt><trkpt lat="43.4923356" lon="11.5612608"><ele>211.0</ele><time>2026-03-29T11:05:08.786Z</time></trkpt><trkpt lat="43.492445" lon="11.5613718"><ele>211.0</ele><time>2026-03-29T11:05:09.789Z</time></trkpt><trkpt lat="43.4925414" lon="11.5614886"><ele>211.0</ele><time>2026-03-29T11:05:10.763Z</time></trkpt><trkpt lat="43.492625" lon="11.5616299"><ele>211.0</ele><time>2026-03-29T11:05:11.771Z</time></trkpt><trkpt lat="43.4926846" lon="11.5617986"><ele>211.0</ele><time>2026-03-29T11:05:12.79Z</time></trkpt><trkpt lat="43.4927091" lon="11.5619784"><ele>211.0</ele><time>2026-03-29T11:05:13.764Z</time></trkpt><trkpt lat="43.4927156" lon="11.562177"><ele>211.0</ele><time>2026-03-29T11:05:14.802Z</time></trkpt><trkpt lat="43.4927285" lon="11.5623602"><ele>211.0</ele><time>2026-03-29T11:05:15.773Z</time></trkpt><trkpt lat="43.4927603" lon="11.5625399"><ele>208.75</ele><time>2026-03-29T11:05:16.773Z</time></trkpt><trkpt lat="43.4928173" lon="11.5627069"><ele>206.5</ele><time>2026-03-29T11:05:17.773Z</time></trkpt><trkpt lat="43.4928959" lon="11.5628541"><ele>204.25</ele><time>2026-03-29T11:05:18.77Z</time></trkpt><trkpt lat="43.4930025" lon="11.5629892"><ele>202.0</ele><time>2026-03-29T11:05:19.792Z</time></trkpt><trkpt lat="43.4931319" lon="11.5631047"><ele>201.33333333333331</ele><time>2026-03-29T11:05:20.766Z</time></trkpt><trkpt lat="43.4932805" lon="11.5632214"><ele>200.66666666666669</ele><time>2026-03-29T11:05:21.772Z</time></trkpt><trkpt lat="43.4934275" lon="11.563344"><ele>200.0</ele><time>2026-03-29T11:05:22.785Z</time></trkpt><trkpt lat="43.4935908" lon="11.5634668"><ele>202.0</ele><time>2026-03-29T11:05:23.896Z</time></trkpt><trkpt lat="43.4938872" lon="11.5636522"><ele>204.0</ele><time>2026-03-29T11:05:25.765Z</time></trkpt><trkpt lat="43.4940279" lon="11.5637455"><ele>197.66666666666666</ele><time>2026-03-29T11:05:26.754Z</time></trkpt><trkpt lat="43.4941703" lon="11.5638525"><ele>191.33333333333331</ele><time>2026-03-29T11:05:27.769Z</time></trkpt><trkpt lat="43.4943031" lon="11.5639669"><ele>185.0</ele><time>2026-03-29T11:05:28.783Z</time></trkpt><trkpt lat="43.494428" lon="11.5640803"><ele>185.0</ele><time>2026-03-29T11:05:29.78Z</time></trkpt><trkpt lat="43.4945402" lon="11.5641975"><ele>185.0</ele><time>2026-03-29T11:05:30.769Z</time></trkpt><trkpt lat="43.4946505" lon="11.5643149"><ele>185.0</ele><time>2026-03-29T11:05:31.771Z</time></trkpt><trkpt lat="43.4947863" lon="11.5644076"><ele>185.0</ele><time>2026-03-29T11:05:32.778Z</time></trkpt><trkpt lat="43.494932" lon="11.5644647"><ele>185.33333333333331</ele><time>2026-03-29T11:05:33.764Z</time></trkpt><trkpt lat="43.4950892" lon="11.5644914"><ele>185.66666666666666</ele><time>2026-03-29T11:05:34.794Z</time></trkpt><trkpt lat="43.4952407" lon="11.5645094"><ele>186.0</ele><time>2026-03-29T11:05:35.758Z</time></trkpt><trkpt lat="43.4954053" lon="11.5645579"><ele>183.0</ele><time>2026-03-29T11:05:36.765Z</time></trkpt><trkpt lat="43.4955882" lon="11.5646409"><ele>180.0</ele><time>2026-03-29T11:05:37.769Z</time></trkpt><trkpt lat="43.4957531" lon="11.5647571"><ele>177.0</ele><time>2026-03-29T11:05:38.772Z</time></trkpt><trkpt lat="43.4959248" lon="11.5648868"><ele>177.0</ele><time>2026-03-29T11:05:39.785Z</time></trkpt><trkpt lat="43.4960775" lon="11.5650013"><ele>177.0</ele><time>2026-03-29T11:05:40.775Z</time></trkpt><trkpt lat="43.4962191" lon="11.5651313"><ele>177.0</ele><time>2026-03-29T11:05:41.76Z</time></trkpt><trkpt lat="43.4963829" lon="11.5652377"><ele>176.33333333333334</ele><time>2026-03-29T11:05:42.773Z</time></trkpt><trkpt lat="43.4965525" lon="11.5653283"><ele>175.66666666666669</ele><time>2026-03-29T11:05:43.772Z</time></trkpt><trkpt lat="43.4967273" lon="11.5654102"><ele>175.0</ele><time>2026-03-29T11:05:44.79Z</time></trkpt><trkpt lat="43.4968961" lon="11.5654817"><ele>174.66666666666669</ele><time>2026-03-29T11:05:45.782Z</time></trkpt><trkpt lat="43.4970635" lon="11.5655463"><ele>174.33333333333334</ele><time>2026-03-29T11:05:46.779Z</time></trkpt><trkpt lat="43.4972342" lon="11.5656052"><ele>174.0</ele><time>2026-03-29T11:05:47.764Z</time></trkpt><trkpt lat="43.4974084" lon="11.5656594"><ele>173.66666666666666</ele><time>2026-03-29T11:05:48.762Z</time></trkpt><trkpt lat="43.4975869" lon="11.5657005"><ele>173.33333333333331</ele><time>2026-03-29T11:05:49.787Z</time></trkpt><trkpt lat="43.4977546" lon="11.5657236"><ele>173.0</ele><time>2026-03-29T11:05:50.77Z</time></trkpt><trkpt lat="43.49793" lon="11.5657225"><ele>173.0</ele><time>2026-03-29T11:05:51.785Z</time></trkpt><trkpt lat="43.4980969" lon="11.5656989"><ele>173.0</ele><time>2026-03-29T11:05:52.769Z</time></trkpt><trkpt lat="43.4982681" lon="11.5656529"><ele>173.0</ele><time>2026-03-29T11:05:53.764Z</time></trkpt><trkpt lat="43.4984371" lon="11.5655907"><ele>173.0</ele><time>2026-03-29T11:05:54.779Z</time></trkpt><trkpt lat="43.4986065" lon="11.5655248"><ele>173.0</ele><time>2026-03-29T11:05:55.772Z</time></trkpt><trkpt lat="43.4987811" lon="11.5654631"><ele>173.0</ele><time>2026-03-29T11:05:56.779Z</time></trkpt><trkpt lat="43.4989553" lon="11.5653965"><ele>171.0</ele><time>2026-03-29T11:05:57.783Z</time></trkpt><trkpt lat="43.4991187" lon="11.5653136"><ele>169.0</ele><time>2026-03-29T11:05:58.767Z</time></trkpt><trkpt lat="43.4992655" lon="11.5652278"><ele>167.0</ele><time>2026-03-29T11:05:59.774Z</time></trkpt><trkpt lat="43.4994321" lon="11.5651287"><ele>168.0</ele><time>2026-03-29T11:06:00.783Z</time></trkpt><trkpt lat="43.4996094" lon="11.5650186"><ele>169.0</ele><time>2026-03-29T11:06:01.773Z</time></trkpt><trkpt lat="43.499781" lon="11.5649113"><ele>170.0</ele><time>2026-03-29T11:06:02.792Z</time></trkpt><trkpt lat="43.4999393" lon="11.5647668"><ele>170.0</ele><time>2026-03-29T11:06:03.767Z</time></trkpt><trkpt lat="43.5000853" lon="11.564645"><ele>170.0</ele><time>2026-03-29T11:06:04.776Z</time></trkpt><trkpt lat="43.5002205" lon="11.5645245"><ele>170.0</ele><time>2026-03-29T11:06:05.769Z</time></trkpt><trkpt lat="43.5003574" lon="11.564408"><ele>168.33333333333331</ele><time>2026-03-29T11:06:06.768Z</time></trkpt><trkpt lat="43.5005039" lon="11.5643125"><ele>166.66666666666666</ele><time>2026-03-29T11:06:07.776Z</time></trkpt><trkpt lat="43.5006639" lon="11.564248"><ele>165.0</ele><time>2026-03-29T11:06:08.779Z</time></trkpt><trkpt lat="43.5008448" lon="11.5642141"><ele>165.0</ele><time>2026-03-29T11:06:09.756Z</time></trkpt><trkpt lat="43.5010396" lon="11.564193"><ele>165.0</ele><time>2026-03-29T11:06:10.784Z</time></trkpt><trkpt lat="43.5012373" lon="11.5641913"><ele>165.0</ele><time>2026-03-29T11:06:11.763Z</time></trkpt><trkpt lat="43.5014617" lon="11.5642054"><ele>164.66666666666666</ele><time>2026-03-29T11:06:12.767Z</time></trkpt><trkpt lat="43.501675" lon="11.564186"><ele>164.33333333333331</ele><time>2026-03-29T11:06:13.769Z</time></trkpt><trkpt lat="43.5018828" lon="11.5641595"><ele>164.0</ele><time>2026-03-29T11:06:14.768Z</time></trkpt><trkpt lat="43.5020859" lon="11.5641337"><ele>164.0</ele><time>2026-03-29T11:06:15.768Z</time></trkpt><trkpt lat="43.5022935" lon="11.5641356"><ele>164.0</ele><time>2026-03-29T11:06:16.756Z</time></trkpt><trkpt lat="43.5025002" lon="11.5641454"><ele>164.0</ele><time>2026-03-29T11:06:17.768Z</time></trkpt><trkpt lat="43.502706" lon="11.5641802"><ele>164.0</ele><time>2026-03-29T11:06:18.765Z</time></trkpt><trkpt lat="43.5029125" lon="11.5642191"><ele>164.0</ele><time>2026-03-29T11:06:19.779Z</time></trkpt><trkpt lat="43.5031087" lon="11.5642684"><ele>164.0</ele><time>2026-03-29T11:06:20.762Z</time></trkpt><trkpt lat="43.5033056" lon="11.5643258"><ele>164.0</ele><time>2026-03-29T11:06:21.779Z</time></trkpt><trkpt lat="43.5034928" lon="11.5643792"><ele>164.0</ele><time>2026-03-29T11:06:22.76Z</time></trkpt><trkpt lat="43.5036792" lon="11.5644302"><ele>164.0</ele><time>2026-03-29T11:06:23.771Z</time></trkpt><trkpt lat="43.5038569" lon="11.5644705"><ele>164.0</ele><time>2026-03-29T11:06:24.78Z</time></trkpt><trkpt lat="43.5040197" lon="11.5644876"><ele>164.0</ele><time>2026-03-29T11:06:25.761Z</time></trkpt><trkpt lat="43.5041812" lon="11.5644723"><ele>164.0</ele><time>2026-03-29T11:06:26.779Z</time></trkpt><trkpt lat="43.5043304" lon="11.5644199"><ele>164.0</ele><time>2026-03-29T11:06:27.79Z</time></trkpt><trkpt lat="43.5044724" lon="11.5643286"><ele>164.0</ele><time>2026-03-29T11:06:28.78Z</time></trkpt><trkpt lat="43.5046095" lon="11.564221"><ele>164.0</ele><time>2026-03-29T11:06:29.755Z</time></trkpt><trkpt lat="43.5047551" lon="11.564119"><ele>163.33333333333331</ele><time>2026-03-29T11:06:30.771Z</time></trkpt><trkpt lat="43.5049071" lon="11.5640432"><ele>162.66666666666666</ele><time>2026-03-29T11:06:31.761Z</time></trkpt><trkpt lat="43.5050673" lon="11.5639853"><ele>162.0</ele><time>2026-03-29T11:06:32.779Z</time></trkpt><trkpt lat="43.505233" lon="11.5639865"><ele>162.0</ele><time>2026-03-29T11:06:33.762Z</time></trkpt><trkpt lat="43.5053973" lon="11.5639979"><ele>162.0</ele><time>2026-03-29T11:06:34.764Z</time></trkpt><trkpt lat="43.5055578" lon="11.5640255"><ele>162.0</ele><time>2026-03-29T11:06:35.792Z</time></trkpt><trkpt lat="43.5056955" lon="11.5640514"><ele>161.8</ele><time>2026-03-29T11:06:36.773Z</time></trkpt><trkpt lat="43.5058116" lon="11.5640542"><ele>161.6</ele><time>2026-03-29T11:06:37.773Z</time></trkpt><trkpt lat="43.5059318" lon="11.5640377"><ele>161.4</ele><time>2026-03-29T11:06:38.761Z</time></trkpt><trkpt lat="43.5060273" lon="11.5640348"><ele>161.20000000000002</ele><time>2026-03-29T11:06:39.784Z</time></trkpt><trkpt lat="43.5060992" lon="11.5640187"><ele>161.0</ele><time>2026-03-29T11:06:40.781Z</time></trkpt><trkpt lat="43.5062482" lon="11.5639402"><ele>161.5</ele><time>2026-03-29T11:06:42.755Z</time></trkpt><trkpt lat="43.5063856" lon="11.5638608"><ele>162.0</ele><time>2026-03-29T11:06:43.788Z</time></trkpt><trkpt lat="43.5065068" lon="11.5637715"><ele>162.5</ele><time>2026-03-29T11:06:44.785Z</time></trkpt><trkpt lat="43.506601" lon="11.5637024"><ele>163.0</ele><time>2026-03-29T11:06:45.769Z</time></trkpt><trkpt lat="43.5067115" lon="11.5636436"><ele>162.0</ele><time>2026-03-29T11:06:46.795Z</time></trkpt><trkpt lat="43.5068198" lon="11.5635994"><ele>161.0</ele><time>2026-03-29T11:06:47.761Z</time></trkpt><trkpt lat="43.5069478" lon="11.5635699"><ele>160.0</ele><time>2026-03-29T11:06:48.767Z</time></trkpt><trkpt lat="43.5070807" lon="11.5635619"><ele>159.0</ele><time>2026-03-29T11:06:49.792Z</time></trkpt><trkpt lat="43.5072118" lon="11.5635579"><ele>158.5</ele><time>2026-03-29T11:06:50.769Z</time></trkpt><trkpt lat="43.5073429" lon="11.5635736"><ele>158.0</ele><time>2026-03-29T11:06:51.787Z</time></trkpt><trkpt lat="43.5074922" lon="11.5635888"><ele>157.5</ele><time>2026-03-29T11:06:52.768Z</time></trkpt><trkpt lat="43.5076452" lon="11.5635867"><ele>157.0</ele><time>2026-03-29T11:06:53.784Z</time></trkpt><trkpt lat="43.5078035" lon="11.56358"><ele>156.66666666666669</ele><time>2026-03-29T11:06:54.761Z</time></trkpt><trkpt lat="43.5079704" lon="11.5635709"><ele>156.33333333333334</ele><time>2026-03-29T11:06:55.783Z</time></trkpt><trkpt lat="43.5081358" lon="11.5635615"><ele>156.0</ele><time>2026-03-29T11:06:56.778Z</time></trkpt><trkpt lat="43.508299" lon="11.5635731"><ele>156.0</ele><time>2026-03-29T11:06:57.784Z</time></trkpt><trkpt lat="43.5084437" lon="11.5635924"><ele>156.0</ele><time>2026-03-29T11:06:58.769Z</time></trkpt><trkpt lat="43.5085878" lon="11.5636156"><ele>156.0</ele><time>2026-03-29T11:06:59.785Z</time></trkpt><trkpt lat="43.5087216" lon="11.5636395"><ele>156.0</ele><time>2026-03-29T11:07:00.765Z</time></trkpt><trkpt lat="43.5088537" lon="11.5636578"><ele>155.75</ele><time>2026-03-29T11:07:01.767Z</time></trkpt><trkpt lat="43.5089943" lon="11.5636929"><ele>155.5</ele><time>2026-03-29T11:07:02.767Z</time></trkpt><trkpt lat="43.5091392" lon="11.5637459"><ele>155.25</ele><time>2026-03-29T11:07:03.777Z</time></trkpt><trkpt lat="43.5092879" lon="11.5638101"><ele>155.0</ele><time>2026-03-29T11:07:04.77Z</time></trkpt><trkpt lat="43.5094445" lon="11.5638712"><ele>155.33333333333331</ele><time>2026-03-29T11:07:05.783Z</time></trkpt><trkpt lat="43.5096044" lon="11.5639294"><ele>155.66666666666666</ele><time>2026-03-29T11:07:06.753Z</time></trkpt><trkpt lat="43.5097722" lon="11.5640015"><ele>156.0</ele><time>2026-03-29T11:07:07.782Z</time></trkpt><trkpt lat="43.5099281" lon="11.5640878"><ele>156.0</ele><time>2026-03-29T11:07:08.77Z</time></trkpt><trkpt lat="43.5101178" lon="11.5641744"><ele>156.0</ele><time>2026-03-29T11:07:09.769Z</time></trkpt><trkpt lat="43.5102647" lon="11.5642177"><ele>156.0</ele><time>2026-03-29T11:07:10.764Z</time></trkpt><trkpt lat="43.5104261" lon="11.5642296"><ele>155.75</ele><time>2026-03-29T11:07:11.76Z</time></trkpt><trkpt lat="43.5105687" lon="11.564211"><ele>155.5</ele><time>2026-03-29T11:07:12.785Z</time></trkpt><trkpt lat="43.5106709" lon="11.5641278"><ele>155.25</ele><time>2026-03-29T11:07:13.775Z</time></trkpt><trkpt lat="43.5107783" lon="11.5640266"><ele>155.0</ele><time>2026-03-29T11:07:14.792Z</time></trkpt><trkpt lat="43.5108849" lon="11.5638916"><ele>155.0</ele><time>2026-03-29T11:07:15.774Z</time></trkpt><trkpt lat="43.5109955" lon="11.5637485"><ele>155.0</ele><time>2026-03-29T11:07:16.769Z</time></trkpt><trkpt lat="43.5111009" lon="11.5636351"><ele>155.0</ele><time>2026-03-29T11:07:17.771Z</time></trkpt><trkpt lat="43.511244" lon="11.56348"><ele>153.5</ele><time>2026-03-29T11:07:18.784Z</time></trkpt><trkpt lat="43.5114579" lon="11.5632804"><ele>152.0</ele><time>2026-03-29T11:07:19.778Z</time></trkpt><trkpt lat="43.5116923" lon="11.5631698"><ele>152.0</ele><time>2026-03-29T11:07:20.769Z</time></trkpt><trkpt lat="43.5119269" lon="11.5630914"><ele>152.0</ele><time>2026-03-29T11:07:21.805Z</time></trkpt><trkpt lat="43.5122041" lon="11.5630597"><ele>152.0</ele><time>2026-03-29T11:07:22.77Z</time></trkpt><trkpt lat="43.5124442" lon="11.5630491"><ele>152.0</ele><time>2026-03-29T11:07:23.758Z</time></trkpt><trkpt lat="43.512685" lon="11.563051"><ele>152.0</ele><time>2026-03-29T11:07:24.776Z</time></trkpt><trkpt lat="43.5129224" lon="11.5630352"><ele>152.0</ele><time>2026-03-29T11:07:25.808Z</time></trkpt><trkpt lat="43.5131148" lon="11.5629995"><ele>152.0</ele><time>2026-03-29T11:07:26.779Z</time></trkpt><trkpt lat="43.5133055" lon="11.5629797"><ele>152.0</ele><time>2026-03-29T11:07:27.768Z</time></trkpt><trkpt lat="43.5134993" lon="11.5629827"><ele>152.0</ele><time>2026-03-29T11:07:28.797Z</time></trkpt><trkpt lat="43.5136732" lon="11.5630006"><ele>152.0</ele><time>2026-03-29T11:07:29.762Z</time></trkpt><trkpt lat="43.5138462" lon="11.5630376"><ele>152.0</ele><time>2026-03-29T11:07:30.775Z</time></trkpt><trkpt lat="43.5140051" lon="11.563098"><ele>152.0</ele><time>2026-03-29T11:07:31.767Z</time></trkpt><trkpt lat="43.5141552" lon="11.5631744"><ele>152.0</ele><time>2026-03-29T11:07:32.772Z</time></trkpt><trkpt lat="43.514297" lon="11.5632467"><ele>152.0</ele><time>2026-03-29T11:07:33.774Z</time></trkpt><trkpt lat="43.5144322" lon="11.5633091"><ele>152.0</ele><time>2026-03-29T11:07:34.764Z</time></trkpt><trkpt lat="43.5145588" lon="11.5633692"><ele>152.0</ele><time>2026-03-29T11:07:35.778Z</time></trkpt><trkpt lat="43.5146635" lon="11.5634233"><ele>152.0</ele><time>2026-03-29T11:07:36.786Z</time></trkpt><trkpt lat="43.5147478" lon="11.5634657"><ele>151.6</ele><time>2026-03-29T11:07:37.795Z</time></trkpt><trkpt lat="43.5148127" lon="11.563499"><ele>151.2</ele><time>2026-03-29T11:07:38.766Z</time></trkpt><trkpt lat="43.5149172" lon="11.5635567"><ele>150.8</ele><time>2026-03-29T11:07:40.77Z</time></trkpt><trkpt lat="43.5150016" lon="11.5636312"><ele>150.4</ele><time>2026-03-29T11:07:42.767Z</time></trkpt><trkpt lat="43.5150956" lon="11.563684"><ele>150.0</ele><time>2026-03-29T11:07:44.776Z</time></trkpt><trkpt lat="43.5151926" lon="11.5635886"><ele>150.0</ele><time>2026-03-29T11:07:46.769Z</time></trkpt><trkpt lat="43.5152488" lon="11.5634441"><ele>150.0</ele><time>2026-03-29T11:07:48.761Z</time></trkpt><trkpt lat="43.5152973" lon="11.5633091"><ele>150.0</ele><time>2026-03-29T11:07:50.792Z</time></trkpt><trkpt lat="43.5153966" lon="11.5632025"><ele>150.0</ele><time>2026-03-29T11:07:52.769Z</time></trkpt><trkpt lat="43.5155226" lon="11.563206"><ele>150.4</ele><time>2026-03-29T11:07:54.775Z</time></trkpt><trkpt lat="43.5156459" lon="11.5632528"><ele>150.8</ele><time>2026-03-29T11:07:56.771Z</time></trkpt><trkpt lat="43.5157243" lon="11.5632869"><ele>151.2</ele><time>2026-03-29T11:07:57.785Z</time></trkpt><trkpt lat="43.5158053" lon="11.5633234"><ele>151.6</ele><time>2026-03-29T11:07:58.769Z</time></trkpt><trkpt lat="43.5158941" lon="11.5633573"><ele>152.0</ele><time>2026-03-29T11:07:59.792Z</time></trkpt><trkpt lat="43.515961" lon="11.5633871"><ele>152.0</ele><time>2026-03-29T11:08:00.776Z</time></trkpt><trkpt lat="43.5160937" lon="11.5634543"><ele>152.0</ele><time>2026-03-29T11:08:01.757Z</time></trkpt><trkpt lat="43.5162278" lon="11.5635524"><ele>152.0</ele><time>2026-03-29T11:08:02.769Z</time></trkpt><trkpt lat="43.5163544" lon="11.5636537"><ele>152.0</ele><time>2026-03-29T11:08:03.763Z</time></trkpt><trkpt lat="43.5164848" lon="11.5637459"><ele>152.0</ele><time>2026-03-29T11:08:04.772Z</time></trkpt><trkpt lat="43.5166159" lon="11.5638487"><ele>152.0</ele><time>2026-03-29T11:08:05.777Z</time></trkpt><trkpt lat="43.5167551" lon="11.5639524"><ele>152.0</ele><time>2026-03-29T11:08:06.771Z</time></trkpt><trkpt lat="43.5169" lon="11.564063"><ele>152.0</ele><time>2026-03-29T11:08:07.771Z</time></trkpt><trkpt lat="43.517047" lon="11.5642122"><ele>152.0</ele><time>2026-03-29T11:08:08.777Z</time></trkpt><trkpt lat="43.5171898" lon="11.5643581"><ele>152.0</ele><time>2026-03-29T11:08:09.775Z</time></trkpt><trkpt lat="43.5173328" lon="11.5644928"><ele>151.5</ele><time>2026-03-29T11:08:10.782Z</time></trkpt><trkpt lat="43.5174597" lon="11.5645875"><ele>151.0</ele><time>2026-03-29T11:08:11.789Z</time></trkpt><trkpt lat="43.5175595" lon="11.5646805"><ele>150.5</ele><time>2026-03-29T11:08:12.788Z</time></trkpt><trkpt lat="43.5176485" lon="11.5647787"><ele>150.0</ele><time>2026-03-29T11:08:13.789Z</time></trkpt><trkpt lat="43.5177299" lon="11.564854"><ele>150.0</ele><time>2026-03-29T11:08:14.783Z</time></trkpt><trkpt lat="43.5177922" lon="11.5649238"><ele>150.0</ele><time>2026-03-29T11:08:15.775Z</time></trkpt><trkpt lat="43.5178485" lon="11.5649889"><ele>150.0</ele><time>2026-03-29T11:08:16.773Z</time></trkpt><trkpt lat="43.5179024" lon="11.5650569"><ele>150.0</ele><time>2026-03-29T11:08:17.77Z</time></trkpt><trkpt lat="43.5179745" lon="11.5651392"><ele>150.0</ele><time>2026-03-29T11:08:18.78Z</time></trkpt><trkpt lat="43.5180593" lon="11.5652404"><ele>150.0</ele><time>2026-03-29T11:08:19.915Z</time></trkpt><trkpt lat="43.5181973" lon="11.5654398"><ele>150.0</ele><time>2026-03-29T11:08:21.798Z</time></trkpt><trkpt lat="43.5182686" lon="11.5655532"><ele>150.0</ele><time>2026-03-29T11:08:22.784Z</time></trkpt><trkpt lat="43.5183346" lon="11.5656603"><ele>150.0</ele><time>2026-03-29T11:08:23.779Z</time></trkpt><trkpt lat="43.5184103" lon="11.5657696"><ele>150.0</ele><time>2026-03-29T11:08:24.771Z</time></trkpt><trkpt lat="43.5184933" lon="11.5658913"><ele>150.0</ele><time>2026-03-29T11:08:25.785Z</time></trkpt><trkpt lat="43.5185738" lon="11.5660072"><ele>150.0</ele><time>2026-03-29T11:08:26.773Z</time></trkpt><trkpt lat="43.5186574" lon="11.5661281"><ele>150.0</ele><time>2026-03-29T11:08:27.783Z</time></trkpt><trkpt lat="43.5187399" lon="11.5662074"><ele>150.0</ele><time>2026-03-29T11:08:28.775Z</time></trkpt><trkpt lat="43.5188179" lon="11.5663124"><ele>150.0</ele><time>2026-03-29T11:08:29.771Z</time></trkpt><trkpt lat="43.5189033" lon="11.5664058"><ele>150.0</ele><time>2026-03-29T11:08:30.757Z</time></trkpt><trkpt lat="43.5189825" lon="11.5665075"><ele>150.0</ele><time>2026-03-29T11:08:31.765Z</time></trkpt><trkpt lat="43.5190711" lon="11.5665999"><ele>150.0</ele><time>2026-03-29T11:08:32.772Z</time></trkpt><trkpt lat="43.5191516" lon="11.5667031"><ele>150.0</ele><time>2026-03-29T11:08:33.777Z</time></trkpt><trkpt lat="43.5192288" lon="11.5668007"><ele>150.0</ele><time>2026-03-29T11:08:34.77Z</time></trkpt><trkpt lat="43.5193103" lon="11.5669042"><ele>150.0</ele><time>2026-03-29T11:08:35.805Z</time></trkpt><trkpt lat="43.5193874" lon="11.5670014"><ele>149.8</ele><time>2026-03-29T11:08:36.785Z</time></trkpt><trkpt lat="43.5194671" lon="11.5670979"><ele>149.6</ele><time>2026-03-29T11:08:37.787Z</time></trkpt><trkpt lat="43.5195465" lon="11.567188"><ele>149.4</ele><time>2026-03-29T11:08:38.767Z</time></trkpt><trkpt lat="43.51963" lon="11.5672731"><ele>149.2</ele><time>2026-03-29T11:08:39.776Z</time></trkpt><trkpt lat="43.5197165" lon="11.5673391"><ele>149.0</ele><time>2026-03-29T11:08:40.759Z</time></trkpt><trkpt lat="43.5197942" lon="11.5673675"><ele>149.0</ele><time>2026-03-29T11:08:41.784Z</time></trkpt><trkpt lat="43.5199157" lon="11.5673803"><ele>149.0</ele><time>2026-03-29T11:08:43.776Z</time></trkpt><trkpt lat="43.5200362" lon="11.5673953"><ele>149.0</ele><time>2026-03-29T11:08:45.775Z</time></trkpt><trkpt lat="43.5201593" lon="11.5673948"><ele>149.0</ele><time>2026-03-29T11:08:47.765Z</time></trkpt><trkpt lat="43.5202209" lon="11.5673624"><ele>149.0</ele><time>2026-03-29T11:08:48.772Z</time></trkpt><trkpt lat="43.5202979" lon="11.5673322"><ele>149.0</ele><time>2026-03-29T11:08:49.778Z</time></trkpt><trkpt lat="43.5203845" lon="11.5673196"><ele>149.0</ele><time>2026-03-29T11:08:50.767Z</time></trkpt><trkpt lat="43.5204633" lon="11.5673218"><ele>149.0</ele><time>2026-03-29T11:08:51.776Z</time></trkpt><trkpt lat="43.5205409" lon="11.5673427"><ele>149.0</ele><time>2026-03-29T11:08:52.765Z</time></trkpt><trkpt lat="43.5206531" lon="11.5673843"><ele>149.0</ele><time>2026-03-29T11:08:53.774Z</time></trkpt><trkpt lat="43.520761" lon="11.5674284"><ele>149.0</ele><time>2026-03-29T11:08:54.762Z</time></trkpt><trkpt lat="43.5208636" lon="11.5674635"><ele>149.0</ele><time>2026-03-29T11:08:55.795Z</time></trkpt><trkpt lat="43.5209637" lon="11.5674897"><ele>149.0</ele><time>2026-03-29T11:08:56.764Z</time></trkpt><trkpt lat="43.5210657" lon="11.5674987"><ele>149.0</ele><time>2026-03-29T11:08:57.769Z</time></trkpt><trkpt lat="43.5211604" lon="11.5674769"><ele>149.0</ele><time>2026-03-29T11:08:58.772Z</time></trkpt><trkpt lat="43.5212498" lon="11.5674181"><ele>149.0</ele><time>2026-03-29T11:08:59.785Z</time></trkpt><trkpt lat="43.5213333" lon="11.5673299"><ele>149.0</ele><time>2026-03-29T11:09:00.774Z</time></trkpt><trkpt lat="43.5214159" lon="11.5672222"><ele>149.0</ele><time>2026-03-29T11:09:01.777Z</time></trkpt><trkpt lat="43.5215045" lon="11.5670985"><ele>149.0</ele><time>2026-03-29T11:09:02.764Z</time></trkpt><trkpt lat="43.521598" lon="11.5669703"><ele>149.75</ele><time>2026-03-29T11:09:03.788Z</time></trkpt><trkpt lat="43.5216999" lon="11.5668486"><ele>150.5</ele><time>2026-03-29T11:09:04.786Z</time></trkpt><trkpt lat="43.5218071" lon="11.5667131"><ele>151.25</ele><time>2026-03-29T11:09:05.779Z</time></trkpt><trkpt lat="43.5219141" lon="11.5665629"><ele>152.0</ele><time>2026-03-29T11:09:06.801Z</time></trkpt><trkpt lat="43.5220428" lon="11.566425"><ele>152.0</ele><time>2026-03-29T11:09:07.78Z</time></trkpt><trkpt lat="43.522184" lon="11.5662528"><ele>152.0</ele><time>2026-03-29T11:09:08.821Z</time></trkpt><trkpt lat="43.522305" lon="11.566125"><ele>152.0</ele><time>2026-03-29T11:09:09.784Z</time></trkpt><trkpt lat="43.5224342" lon="11.5660024"><ele>152.0</ele><time>2026-03-29T11:09:10.771Z</time></trkpt><trkpt lat="43.5225635" lon="11.5659144"><ele>152.0</ele><time>2026-03-29T11:09:11.761Z</time></trkpt><trkpt lat="43.5226894" lon="11.5658397"><ele>152.0</ele><time>2026-03-29T11:09:12.782Z</time></trkpt><trkpt lat="43.5227952" lon="11.5657718"><ele>152.0</ele><time>2026-03-29T11:09:13.776Z</time></trkpt><trkpt lat="43.5228965" lon="11.5657162"><ele>151.0</ele><time>2026-03-29T11:09:14.77Z</time></trkpt><trkpt lat="43.5229935" lon="11.5656639"><ele>150.0</ele><time>2026-03-29T11:09:15.767Z</time></trkpt><trkpt lat="43.5231664" lon="11.565567"><ele>149.0</ele><time>2026-03-29T11:09:16.773Z</time></trkpt><trkpt lat="43.5233171" lon="11.5654869"><ele>149.0</ele><time>2026-03-29T11:09:17.783Z</time></trkpt><trkpt lat="43.5234672" lon="11.5653887"><ele>149.0</ele><time>2026-03-29T11:09:18.763Z</time></trkpt><trkpt lat="43.5236398" lon="11.5652518"><ele>149.0</ele><time>2026-03-29T11:09:19.79Z</time></trkpt><trkpt lat="43.5238083" lon="11.5650717"><ele>148.33333333333331</ele><time>2026-03-29T11:09:20.769Z</time></trkpt><trkpt lat="43.5239796" lon="11.5648936"><ele>147.66666666666666</ele><time>2026-03-29T11:09:21.778Z</time></trkpt><trkpt lat="43.5241395" lon="11.5647371"><ele>147.0</ele><time>2026-03-29T11:09:22.781Z</time></trkpt><trkpt lat="43.5242952" lon="11.5645945"><ele>147.0</ele><time>2026-03-29T11:09:23.778Z</time></trkpt><trkpt lat="43.524453" lon="11.5644599"><ele>147.0</ele><time>2026-03-29T11:09:24.779Z</time></trkpt><trkpt lat="43.5245988" lon="11.56435"><ele>147.0</ele><time>2026-03-29T11:09:25.773Z</time></trkpt><trkpt lat="43.5247356" lon="11.5642448"><ele>147.0</ele><time>2026-03-29T11:09:26.757Z</time></trkpt><trkpt lat="43.5248621" lon="11.5641476"><ele>147.0</ele><time>2026-03-29T11:09:27.774Z</time></trkpt><trkpt lat="43.5249665" lon="11.564069"><ele>147.0</ele><time>2026-03-29T11:09:28.774Z</time></trkpt><trkpt lat="43.5250547" lon="11.5639954"><ele>147.0</ele><time>2026-03-29T11:09:29.77Z</time></trkpt><trkpt lat="43.5251354" lon="11.5639406"><ele>147.0</ele><time>2026-03-29T11:09:30.778Z</time></trkpt><trkpt lat="43.525212" lon="11.5638776"><ele>147.0</ele><time>2026-03-29T11:09:31.776Z</time></trkpt><trkpt lat="43.5252811" lon="11.563812"><ele>147.0</ele><time>2026-03-29T11:09:32.777Z</time></trkpt><trkpt lat="43.5253505" lon="11.5637311"><ele>147.0</ele><time>2026-03-29T11:09:33.773Z</time></trkpt><trkpt lat="43.525403" lon="11.5636188"><ele>147.0</ele><time>2026-03-29T11:09:34.771Z</time></trkpt><trkpt lat="43.5254451" lon="11.5634989"><ele>147.0</ele><time>2026-03-29T11:09:35.781Z</time></trkpt><trkpt lat="43.5254683" lon="11.5633923"><ele>147.0</ele><time>2026-03-29T11:09:36.767Z</time></trkpt><trkpt lat="43.5254758" lon="11.5632748"><ele>147.0</ele><time>2026-03-29T11:09:37.78Z</time></trkpt><trkpt lat="43.5254693" lon="11.5631605"><ele>147.0</ele><time>2026-03-29T11:09:38.769Z</time></trkpt><trkpt lat="43.5254388" lon="11.5630409"><ele>147.0</ele><time>2026-03-29T11:09:39.774Z</time></trkpt><trkpt lat="43.5253834" lon="11.5629202"><ele>147.0</ele><time>2026-03-29T11:09:40.765Z</time></trkpt><trkpt lat="43.5253089" lon="11.5627928"><ele>147.0</ele><time>2026-03-29T11:09:41.773Z</time></trkpt><trkpt lat="43.5252521" lon="11.5626536"><ele>147.0</ele><time>2026-03-29T11:09:42.765Z</time></trkpt><trkpt lat="43.5251982" lon="11.5625296"><ele>147.0</ele><time>2026-03-29T11:09:43.77Z</time></trkpt><trkpt lat="43.5251442" lon="11.562399"><ele>147.0</ele><time>2026-03-29T11:09:44.783Z</time></trkpt><trkpt lat="43.5250881" lon="11.562273"><ele>147.0</ele><time>2026-03-29T11:09:45.785Z</time></trkpt><trkpt lat="43.525035" lon="11.5621482"><ele>146.79999999999998</ele><time>2026-03-29T11:09:46.772Z</time></trkpt><trkpt lat="43.5249797" lon="11.5620207"><ele>146.6</ele><time>2026-03-29T11:09:47.808Z</time></trkpt><trkpt lat="43.5249315" lon="11.5619054"><ele>146.39999999999998</ele><time>2026-03-29T11:09:48.772Z</time></trkpt><trkpt lat="43.5248824" lon="11.5617862"><ele>146.2</ele><time>2026-03-29T11:09:49.778Z</time></trkpt><trkpt lat="43.5248348" lon="11.5616701"><ele>146.0</ele><time>2026-03-29T11:09:50.78Z</time></trkpt><trkpt lat="43.5247912" lon="11.5615614"><ele>146.0</ele><time>2026-03-29T11:09:51.768Z</time></trkpt><trkpt lat="43.5247481" lon="11.5614574"><ele>146.0</ele><time>2026-03-29T11:09:52.767Z</time></trkpt><trkpt lat="43.524707" lon="11.5613605"><ele>146.0</ele><time>2026-03-29T11:09:53.773Z</time></trkpt><trkpt lat="43.5246692" lon="11.5612686"><ele>146.0</ele><time>2026-03-29T11:09:54.78Z</time></trkpt><trkpt lat="43.5246308" lon="11.5611724"><ele>146.0</ele><time>2026-03-29T11:09:55.839Z</time></trkpt><trkpt lat="43.5245965" lon="11.5610853"><ele>146.0</ele><time>2026-03-29T11:09:56.782Z</time></trkpt><trkpt lat="43.5245562" lon="11.5609825"><ele>146.16666666666666</ele><time>2026-03-29T11:09:57.773Z</time></trkpt><trkpt lat="43.5245186" lon="11.5608853"><ele>146.33333333333331</ele><time>2026-03-29T11:09:58.775Z</time></trkpt><trkpt lat="43.5244813" lon="11.5607781"><ele>146.5</ele><time>2026-03-29T11:09:59.764Z</time></trkpt><trkpt lat="43.5244537" lon="11.5606722"><ele>146.66666666666666</ele><time>2026-03-29T11:10:00.703Z</time></trkpt><trkpt lat="43.5244308" lon="11.5605492"><ele>146.83333333333334</ele><time>2026-03-29T11:10:01.709Z</time></trkpt><trkpt lat="43.5244194" lon="11.5604281"><ele>147.0</ele><time>2026-03-29T11:10:02.71Z</time></trkpt><trkpt lat="43.5244115" lon="11.5602817"><ele>147.0</ele><time>2026-03-29T11:10:03.721Z</time></trkpt><trkpt lat="43.5244136" lon="11.5601222"><ele>147.0</ele><time>2026-03-29T11:10:04.726Z</time></trkpt><trkpt lat="43.5244162" lon="11.5599378"><ele>147.0</ele><time>2026-03-29T11:10:05.74Z</time></trkpt><trkpt lat="43.5244258" lon="11.5597706"><ele>147.0</ele><time>2026-03-29T11:10:06.715Z</time></trkpt><trkpt lat="43.5244375" lon="11.5596321"><ele>147.2</ele><time>2026-03-29T11:10:07.719Z</time></trkpt><trkpt lat="43.5244647" lon="11.5594766"><ele>147.39999999999998</ele><time>2026-03-29T11:10:08.725Z</time></trkpt><trkpt lat="43.5244957" lon="11.5593343"><ele>147.60000000000002</ele><time>2026-03-29T11:10:09.721Z</time></trkpt><trkpt lat="43.5245273" lon="11.5592026"><ele>147.8</ele><time>2026-03-29T11:10:10.723Z</time></trkpt><trkpt lat="43.5245538" lon="11.5590816"><ele>148.0</ele><time>2026-03-29T11:10:11.722Z</time></trkpt><trkpt lat="43.5245787" lon="11.5589561"><ele>148.16666666666669</ele><time>2026-03-29T11:10:12.715Z</time></trkpt><trkpt lat="43.5246024" lon="11.5588324"><ele>148.33333333333334</ele><time>2026-03-29T11:10:13.713Z</time></trkpt><trkpt lat="43.5246322" lon="11.5587153"><ele>148.5</ele><time>2026-03-29T11:10:14.712Z</time></trkpt><trkpt lat="43.5246721" lon="11.5586203"><ele>148.66666666666666</ele><time>2026-03-29T11:10:15.719Z</time></trkpt><trkpt lat="43.5247273" lon="11.5585401"><ele>148.83333333333331</ele><time>2026-03-29T11:10:16.717Z</time></trkpt><trkpt lat="43.5247823" lon="11.5584581"><ele>149.0</ele><time>2026-03-29T11:10:17.729Z</time></trkpt><trkpt lat="43.5248306" lon="11.5583665"><ele>149.4</ele><time>2026-03-29T11:10:18.718Z</time></trkpt><trkpt lat="43.5248483" lon="11.5582571"><ele>149.8</ele><time>2026-03-29T11:10:19.707Z</time></trkpt><trkpt lat="43.5248322" lon="11.558135"><ele>150.2</ele><time>2026-03-29T11:10:20.717Z</time></trkpt><trkpt lat="43.5247908" lon="11.5580643"><ele>150.6</ele><time>2026-03-29T11:10:21.719Z</time></trkpt><trkpt lat="43.5247247" lon="11.5579562"><ele>151.0</ele><time>2026-03-29T11:10:22.729Z</time></trkpt><trkpt lat="43.5246555" lon="11.5578267"><ele>151.75</ele><time>2026-03-29T11:10:23.749Z</time></trkpt><trkpt lat="43.5245989" lon="11.5576795"><ele>152.5</ele><time>2026-03-29T11:10:24.721Z</time></trkpt><trkpt lat="43.5245368" lon="11.5575119"><ele>153.25</ele><time>2026-03-29T11:10:25.712Z</time></trkpt><trkpt lat="43.5244844" lon="11.5573346"><ele>154.0</ele><time>2026-03-29T11:10:26.714Z</time></trkpt><trkpt lat="43.5244279" lon="11.5571241"><ele>153.0</ele><time>2026-03-29T11:10:27.708Z</time></trkpt><trkpt lat="43.5243724" lon="11.5569059"><ele>152.0</ele><time>2026-03-29T11:10:28.706Z</time></trkpt><trkpt lat="43.5243127" lon="11.5566631"><ele>151.0</ele><time>2026-03-29T11:10:29.728Z</time></trkpt><trkpt lat="43.5242594" lon="11.5564089"><ele>151.33333333333334</ele><time>2026-03-29T11:10:30.699Z</time></trkpt><trkpt lat="43.5242005" lon="11.5561437"><ele>151.66666666666666</ele><time>2026-03-29T11:10:31.711Z</time></trkpt><trkpt lat="43.5241464" lon="11.5558677"><ele>152.0</ele><time>2026-03-29T11:10:32.72Z</time></trkpt><trkpt lat="43.5240927" lon="11.5555808"><ele>153.0</ele><time>2026-03-29T11:10:33.711Z</time></trkpt><trkpt lat="43.5240342" lon="11.5552635"><ele>154.0</ele><time>2026-03-29T11:10:34.736Z</time></trkpt><trkpt lat="43.5239673" lon="11.5549656"><ele>154.0</ele><time>2026-03-29T11:10:35.713Z</time></trkpt><trkpt lat="43.5239021" lon="11.5546599"><ele>154.0</ele><time>2026-03-29T11:10:36.717Z</time></trkpt><trkpt lat="43.5238402" lon="11.5543682"><ele>154.0</ele><time>2026-03-29T11:10:37.72Z</time></trkpt><trkpt lat="43.5237831" lon="11.5540913"><ele>154.0</ele><time>2026-03-29T11:10:38.729Z</time></trkpt><trkpt lat="43.5237329" lon="11.5538385"><ele>154.0</ele><time>2026-03-29T11:10:39.722Z</time></trkpt><trkpt lat="43.5236867" lon="11.5535966"><ele>154.0</ele><time>2026-03-29T11:10:40.709Z</time></trkpt><trkpt lat="43.5236396" lon="11.5533578"><ele>154.0</ele><time>2026-03-29T11:10:41.716Z</time></trkpt><trkpt lat="43.5235956" lon="11.5531339"><ele>154.0</ele><time>2026-03-29T11:10:42.722Z</time></trkpt><trkpt lat="43.5235628" lon="11.5529344"><ele>155.0</ele><time>2026-03-29T11:10:43.725Z</time></trkpt><trkpt lat="43.5235317" lon="11.5527554"><ele>156.0</ele><time>2026-03-29T11:10:44.733Z</time></trkpt><trkpt lat="43.5234989" lon="11.5525848"><ele>157.0</ele><time>2026-03-29T11:10:45.732Z</time></trkpt><trkpt lat="43.5234676" lon="11.5524244"><ele>158.0</ele><time>2026-03-29T11:10:46.716Z</time></trkpt><trkpt lat="43.5234341" lon="11.5522726"><ele>158.0</ele><time>2026-03-29T11:10:47.72Z</time></trkpt><trkpt lat="43.5233942" lon="11.5521046"><ele>158.0</ele><time>2026-03-29T11:10:48.728Z</time></trkpt><trkpt lat="43.5233665" lon="11.5519349"><ele>158.0</ele><time>2026-03-29T11:10:49.759Z</time></trkpt><trkpt lat="43.523348" lon="11.5518235"><ele>158.0</ele><time>2026-03-29T11:10:50.745Z</time></trkpt><trkpt lat="43.5233182" lon="11.5516518"><ele>157.66666666666666</ele><time>2026-03-29T11:10:51.722Z</time></trkpt><trkpt lat="43.5232863" lon="11.5514489"><ele>157.33333333333334</ele><time>2026-03-29T11:10:52.742Z</time></trkpt><trkpt lat="43.523252" lon="11.5512513"><ele>157.0</ele><time>2026-03-29T11:10:53.752Z</time></trkpt><trkpt lat="43.5231957" lon="11.5509994"><ele>157.0</ele><time>2026-03-29T11:10:54.734Z</time></trkpt><trkpt lat="43.5231273" lon="11.5507215"><ele>157.0</ele><time>2026-03-29T11:10:55.726Z</time></trkpt><trkpt lat="43.5230558" lon="11.5504573"><ele>157.0</ele><time>2026-03-29T11:10:56.713Z</time></trkpt><trkpt lat="43.5229893" lon="11.5502167"><ele>157.0</ele><time>2026-03-29T11:10:57.737Z</time></trkpt><trkpt lat="43.5229334" lon="11.5500059"><ele>157.0</ele><time>2026-03-29T11:10:58.727Z</time></trkpt><trkpt lat="43.5228811" lon="11.5498016"><ele>157.0</ele><time>2026-03-29T11:10:59.731Z</time></trkpt><trkpt lat="43.5228307" lon="11.5495992"><ele>156.33333333333334</ele><time>2026-03-29T11:11:00.714Z</time></trkpt><trkpt lat="43.5227812" lon="11.5493886"><ele>155.66666666666666</ele><time>2026-03-29T11:11:01.713Z</time></trkpt><trkpt lat="43.5227307" lon="11.5491523"><ele>155.0</ele><time>2026-03-29T11:11:02.735Z</time></trkpt><trkpt lat="43.5226737" lon="11.5489191"><ele>155.66666666666666</ele><time>2026-03-29T11:11:03.729Z</time></trkpt><trkpt lat="43.5226119" lon="11.5486459"><ele>156.33333333333334</ele><time>2026-03-29T11:11:04.726Z</time></trkpt><trkpt lat="43.52255" lon="11.5483713"><ele>157.0</ele><time>2026-03-29T11:11:05.771Z</time></trkpt><trkpt lat="43.5224963" lon="11.5481425"><ele>157.0</ele><time>2026-03-29T11:11:06.705Z</time></trkpt><trkpt lat="43.5224382" lon="11.5478798"><ele>157.0</ele><time>2026-03-29T11:11:07.732Z</time></trkpt><trkpt lat="43.5223808" lon="11.5476258"><ele>157.0</ele><time>2026-03-29T11:11:08.718Z</time></trkpt><trkpt lat="43.5223301" lon="11.547365"><ele>157.0</ele><time>2026-03-29T11:11:09.717Z</time></trkpt><trkpt lat="43.522295" lon="11.5471069"><ele>157.0</ele><time>2026-03-29T11:11:10.722Z</time></trkpt><trkpt lat="43.5222742" lon="11.5468256"><ele>157.0</ele><time>2026-03-29T11:11:11.735Z</time></trkpt><trkpt lat="43.5222577" lon="11.5465405"><ele>157.33333333333334</ele><time>2026-03-29T11:11:12.713Z</time></trkpt><trkpt lat="43.5222452" lon="11.5462525"><ele>157.66666666666666</ele><time>2026-03-29T11:11:13.736Z</time></trkpt><trkpt lat="43.5222385" lon="11.5459493"><ele>158.0</ele><time>2026-03-29T11:11:14.715Z</time></trkpt><trkpt lat="43.5222354" lon="11.5456403"><ele>158.0</ele><time>2026-03-29T11:11:15.707Z</time></trkpt><trkpt lat="43.5222335" lon="11.5453231"><ele>158.0</ele><time>2026-03-29T11:11:16.709Z</time></trkpt><trkpt lat="43.5222374" lon="11.5450032"><ele>158.0</ele><time>2026-03-29T11:11:17.705Z</time></trkpt><trkpt lat="43.5222386" lon="11.5446844"><ele>158.0</ele><time>2026-03-29T11:11:18.717Z</time></trkpt><trkpt lat="43.5222321" lon="11.544384"><ele>158.0</ele><time>2026-03-29T11:11:19.706Z</time></trkpt><trkpt lat="43.5222077" lon="11.544078"><ele>158.0</ele><time>2026-03-29T11:11:20.716Z</time></trkpt><trkpt lat="43.5221616" lon="11.5438179"><ele>158.0</ele><time>2026-03-29T11:11:21.715Z</time></trkpt><trkpt lat="43.5221069" lon="11.5435172"><ele>158.0</ele><time>2026-03-29T11:11:22.707Z</time></trkpt><trkpt lat="43.5220346" lon="11.5432144"><ele>158.0</ele><time>2026-03-29T11:11:23.722Z</time></trkpt><trkpt lat="43.5219511" lon="11.5429199"><ele>158.0</ele><time>2026-03-29T11:11:24.727Z</time></trkpt><trkpt lat="43.5218643" lon="11.5426343"><ele>158.33333333333331</ele><time>2026-03-29T11:11:25.716Z</time></trkpt><trkpt lat="43.5217805" lon="11.5423589"><ele>158.66666666666666</ele><time>2026-03-29T11:11:26.723Z</time></trkpt><trkpt lat="43.5217045" lon="11.5421006"><ele>159.0</ele><time>2026-03-29T11:11:27.722Z</time></trkpt><trkpt lat="43.5216266" lon="11.5418505"><ele>159.33333333333334</ele><time>2026-03-29T11:11:28.714Z</time></trkpt><trkpt lat="43.5215547" lon="11.5416074"><ele>159.66666666666669</ele><time>2026-03-29T11:11:29.735Z</time></trkpt><trkpt lat="43.5214932" lon="11.541382"><ele>160.0</ele><time>2026-03-29T11:11:30.701Z</time></trkpt><trkpt lat="43.521426" lon="11.5411349"><ele>160.33333333333334</ele><time>2026-03-29T11:11:31.746Z</time></trkpt><trkpt lat="43.5213674" lon="11.5409204"><ele>160.66666666666666</ele><time>2026-03-29T11:11:32.714Z</time></trkpt><trkpt lat="43.5213018" lon="11.5406895"><ele>161.0</ele><time>2026-03-29T11:11:33.72Z</time></trkpt><trkpt lat="43.5212376" lon="11.5404646"><ele>161.0</ele><time>2026-03-29T11:11:34.719Z</time></trkpt><trkpt lat="43.5211846" lon="11.5402622"><ele>161.0</ele><time>2026-03-29T11:11:35.75Z</time></trkpt><trkpt lat="43.521136" lon="11.5400782"><ele>161.0</ele><time>2026-03-29T11:11:36.733Z</time></trkpt><trkpt lat="43.5210842" lon="11.5398986"><ele>161.0</ele><time>2026-03-29T11:11:37.722Z</time></trkpt><trkpt lat="43.5210603" lon="11.5399976"><ele>161.0</ele><time>2026-03-29T11:11:38.714Z</time></trkpt><trkpt lat="43.5210108" lon="11.5398934"><ele>161.0</ele><time>2026-03-29T11:11:39.713Z</time></trkpt><trkpt lat="43.5209768" lon="11.5397951"><ele>161.0</ele><time>2026-03-29T11:11:40.714Z</time></trkpt><trkpt lat="43.5209414" lon="11.539693"><ele>161.0</ele><time>2026-03-29T11:11:41.724Z</time></trkpt><trkpt lat="43.5208934" lon="11.5395644"><ele>161.0</ele><time>2026-03-29T11:11:42.712Z</time></trkpt><trkpt lat="43.5206538" lon="11.5385044"><ele>163.33333333333331</ele><time>2026-03-29T11:11:43.719Z</time></trkpt><trkpt lat="43.5205779" lon="11.5382424"><ele>165.66666666666666</ele><time>2026-03-29T11:11:44.715Z</time></trkpt><trkpt lat="43.5204942" lon="11.5379598"><ele>168.0</ele><time>2026-03-29T11:11:45.748Z</time></trkpt><trkpt lat="43.5204173" lon="11.5376957"><ele>167.33333333333334</ele><time>2026-03-29T11:11:46.728Z</time></trkpt><trkpt lat="43.5203404" lon="11.5374313"><ele>166.66666666666669</ele><time>2026-03-29T11:11:47.713Z</time></trkpt><trkpt lat="43.5202669" lon="11.5371728"><ele>166.0</ele><time>2026-03-29T11:11:48.715Z</time></trkpt><trkpt lat="43.5202052" lon="11.536904"><ele>167.33333333333334</ele><time>2026-03-29T11:11:49.74Z</time></trkpt><trkpt lat="43.5201628" lon="11.5366522"><ele>168.66666666666666</ele><time>2026-03-29T11:11:50.712Z</time></trkpt><trkpt lat="43.5201443" lon="11.5363888"><ele>170.0</ele><time>2026-03-29T11:11:51.724Z</time></trkpt><trkpt lat="43.5201626" lon="11.5361323"><ele>170.66666666666666</ele><time>2026-03-29T11:11:52.721Z</time></trkpt><trkpt lat="43.5202249" lon="11.5358865"><ele>171.33333333333334</ele><time>2026-03-29T11:11:53.715Z</time></trkpt><trkpt lat="43.5203094" lon="11.5356649"><ele>172.0</ele><time>2026-03-29T11:11:54.72Z</time></trkpt><trkpt lat="43.5204375" lon="11.5354574"><ele>173.0</ele><time>2026-03-29T11:11:55.714Z</time></trkpt><trkpt lat="43.5207208" lon="11.5350229"><ele>174.0</ele><time>2026-03-29T11:11:57.722Z</time></trkpt><trkpt lat="43.5208986" lon="11.5347831"><ele>173.0</ele><time>2026-03-29T11:11:58.721Z</time></trkpt><trkpt lat="43.5210728" lon="11.5345446"><ele>172.0</ele><time>2026-03-29T11:11:59.711Z</time></trkpt><trkpt lat="43.5212458" lon="11.5342924"><ele>175.5</ele><time>2026-03-29T11:12:00.724Z</time></trkpt><trkpt lat="43.521407" lon="11.5340572"><ele>179.0</ele><time>2026-03-29T11:12:01.715Z</time></trkpt><trkpt lat="43.521552" lon="11.5338334"><ele>178.0</ele><time>2026-03-29T11:12:02.717Z</time></trkpt><trkpt lat="43.5216835" lon="11.5336263"><ele>177.0</ele><time>2026-03-29T11:12:03.733Z</time></trkpt><trkpt lat="43.5217979" lon="11.533441"><ele>176.0</ele><time>2026-03-29T11:12:04.725Z</time></trkpt><trkpt lat="43.5218948" lon="11.5332451"><ele>176.0</ele><time>2026-03-29T11:12:05.725Z</time></trkpt><trkpt lat="43.5219681" lon="11.5330288"><ele>176.0</ele><time>2026-03-29T11:12:06.735Z</time></trkpt><trkpt lat="43.522029" lon="11.5327773"><ele>176.0</ele><time>2026-03-29T11:12:07.722Z</time></trkpt><trkpt lat="43.5220687" lon="11.5325103"><ele>177.33333333333331</ele><time>2026-03-29T11:12:08.727Z</time></trkpt><trkpt lat="43.5221033" lon="11.5322193"><ele>178.66666666666666</ele><time>2026-03-29T11:12:09.728Z</time></trkpt><trkpt lat="43.5221022" lon="11.5319596"><ele>180.0</ele><time>2026-03-29T11:12:10.728Z</time></trkpt><trkpt lat="43.5221066" lon="11.5316962"><ele>180.75</ele><time>2026-03-29T11:12:11.724Z</time></trkpt><trkpt lat="43.5221091" lon="11.5314767"><ele>181.5</ele><time>2026-03-29T11:12:12.712Z</time></trkpt><trkpt lat="43.5221206" lon="11.531288"><ele>182.25</ele><time>2026-03-29T11:12:13.714Z</time></trkpt><trkpt lat="43.5221299" lon="11.5311369"><ele>183.0</ele><time>2026-03-29T11:12:14.728Z</time></trkpt><trkpt lat="43.5221911" lon="11.5309078"><ele>185.33333333333334</ele><time>2026-03-29T11:12:15.751Z</time></trkpt><trkpt lat="43.5222525" lon="11.5306807"><ele>187.66666666666669</ele><time>2026-03-29T11:12:16.733Z</time></trkpt><trkpt lat="43.5223146" lon="11.5304547"><ele>190.0</ele><time>2026-03-29T11:12:17.719Z</time></trkpt><trkpt lat="43.5223682" lon="11.5302555"><ele>191.33333333333334</ele><time>2026-03-29T11:12:18.72Z</time></trkpt><trkpt lat="43.5224392" lon="11.5300295"><ele>192.66666666666669</ele><time>2026-03-29T11:12:19.731Z</time></trkpt><trkpt lat="43.5225203" lon="11.5297961"><ele>194.0</ele><time>2026-03-29T11:12:20.723Z</time></trkpt><trkpt lat="43.5226145" lon="11.5295869"><ele>193.0</ele><time>2026-03-29T11:12:21.725Z</time></trkpt><trkpt lat="43.5227194" lon="11.5294387"><ele>192.0</ele><time>2026-03-29T11:12:22.722Z</time></trkpt><trkpt lat="43.5228653" lon="11.5293391"><ele>191.0</ele><time>2026-03-29T11:12:23.755Z</time></trkpt><trkpt lat="43.5230442" lon="11.5292393"><ele>196.5</ele><time>2026-03-29T11:12:24.75Z</time></trkpt><trkpt lat="43.523241" lon="11.5291411"><ele>202.0</ele><time>2026-03-29T11:12:25.751Z</time></trkpt><trkpt lat="43.5233712" lon="11.5287855"><ele>201.66666666666666</ele><time>2026-03-29T11:12:26.768Z</time></trkpt><trkpt lat="43.5235433" lon="11.5286858"><ele>201.33333333333331</ele><time>2026-03-29T11:12:27.714Z</time></trkpt><trkpt lat="43.5237154" lon="11.528605"><ele>201.0</ele><time>2026-03-29T11:12:28.768Z</time></trkpt><trkpt lat="43.523878" lon="11.5285653"><ele>201.0</ele><time>2026-03-29T11:12:29.756Z</time></trkpt><trkpt lat="43.5240531" lon="11.5285554"><ele>201.0</ele><time>2026-03-29T11:12:30.762Z</time></trkpt><trkpt lat="43.5242389" lon="11.5285786"><ele>201.0</ele><time>2026-03-29T11:12:31.743Z</time></trkpt><trkpt lat="43.5244428" lon="11.5286238"><ele>203.0</ele><time>2026-03-29T11:12:32.755Z</time></trkpt><trkpt lat="43.5246481" lon="11.5286591"><ele>205.0</ele><time>2026-03-29T11:12:33.783Z</time></trkpt><trkpt lat="43.5248172" lon="11.528673"><ele>207.0</ele><time>2026-03-29T11:12:34.769Z</time></trkpt><trkpt lat="43.524991" lon="11.5286757"><ele>207.0</ele><time>2026-03-29T11:12:35.753Z</time></trkpt><trkpt lat="43.5251411" lon="11.5286377"><ele>207.0</ele><time>2026-03-29T11:12:36.722Z</time></trkpt><trkpt lat="43.5252889" lon="11.5285584"><ele>207.0</ele><time>2026-03-29T11:12:37.73Z</time></trkpt><trkpt lat="43.5254347" lon="11.5284326"><ele>208.33333333333331</ele><time>2026-03-29T11:12:38.778Z</time></trkpt><trkpt lat="43.5255492" lon="11.5282492"><ele>209.66666666666666</ele><time>2026-03-29T11:12:39.721Z</time></trkpt><trkpt lat="43.5256601" lon="11.528007"><ele>211.0</ele><time>2026-03-29T11:12:40.772Z</time></trkpt><trkpt lat="43.5257578" lon="11.5277545"><ele>211.0</ele><time>2026-03-29T11:12:41.735Z</time></trkpt><trkpt lat="43.5258516" lon="11.5274707"><ele>211.0</ele><time>2026-03-29T11:12:42.76Z</time></trkpt><trkpt lat="43.5259249" lon="11.527234"><ele>211.0</ele><time>2026-03-29T11:12:43.714Z</time></trkpt><trkpt lat="43.5259911" lon="11.527007"><ele>211.5</ele><time>2026-03-29T11:12:44.717Z</time></trkpt><trkpt lat="43.5260356" lon="11.5267975"><ele>212.0</ele><time>2026-03-29T11:12:45.714Z</time></trkpt><trkpt lat="43.5260395" lon="11.5265996"><ele>212.5</ele><time>2026-03-29T11:12:46.716Z</time></trkpt><trkpt lat="43.5259992" lon="11.5264117"><ele>213.0</ele><time>2026-03-29T11:12:47.753Z</time></trkpt><trkpt lat="43.5259315" lon="11.5262521"><ele>213.66666666666669</ele><time>2026-03-29T11:12:48.709Z</time></trkpt><trkpt lat="43.5258323" lon="11.5260674"><ele>214.33333333333334</ele><time>2026-03-29T11:12:49.75Z</time></trkpt><trkpt lat="43.5257233" lon="11.5259211"><ele>215.0</ele><time>2026-03-29T11:12:50.757Z</time></trkpt><trkpt lat="43.525592" lon="11.5258294"><ele>215.0</ele><time>2026-03-29T11:12:51.725Z</time></trkpt><trkpt lat="43.5254507" lon="11.5257773"><ele>215.0</ele><time>2026-03-29T11:12:52.729Z</time></trkpt><trkpt lat="43.5253313" lon="11.5257502"><ele>215.0</ele><time>2026-03-29T11:12:53.755Z</time></trkpt><trkpt lat="43.5252083" lon="11.5257452"><ele>215.0</ele><time>2026-03-29T11:12:54.756Z</time></trkpt><trkpt lat="43.5250665" lon="11.5258117"><ele>217.25</ele><time>2026-03-29T11:12:55.711Z</time></trkpt><trkpt lat="43.5249185" lon="11.5258609"><ele>219.5</ele><time>2026-03-29T11:12:56.777Z</time></trkpt><trkpt lat="43.5248035" lon="11.5258598"><ele>221.75</ele><time>2026-03-29T11:12:57.728Z</time></trkpt><trkpt lat="43.5247049" lon="11.5257744"><ele>224.0</ele><time>2026-03-29T11:12:58.792Z</time></trkpt><trkpt lat="43.5246778" lon="11.5256101"><ele>224.0</ele><time>2026-03-29T11:12:59.722Z</time></trkpt><trkpt lat="43.5246513" lon="11.5254091"><ele>224.0</ele><time>2026-03-29T11:13:00.72Z</time></trkpt><trkpt lat="43.5246408" lon="11.5251716"><ele>224.0</ele><time>2026-03-29T11:13:01.733Z</time></trkpt><trkpt lat="43.5246445" lon="11.5248979"><ele>226.66666666666669</ele><time>2026-03-29T11:13:02.718Z</time></trkpt><trkpt lat="43.5246739" lon="11.524573"><ele>229.33333333333331</ele><time>2026-03-29T11:13:03.723Z</time></trkpt><trkpt lat="43.5246835" lon="11.5242993"><ele>232.0</ele><time>2026-03-29T11:13:04.717Z</time></trkpt><trkpt lat="43.5246775" lon="11.5240667"><ele>232.0</ele><time>2026-03-29T11:13:05.705Z</time></trkpt><trkpt lat="43.5246629" lon="11.5238274"><ele>232.0</ele><time>2026-03-29T11:13:06.703Z</time></trkpt><trkpt lat="43.5246133" lon="11.5236513"><ele>232.0</ele><time>2026-03-29T11:13:07.714Z</time></trkpt><trkpt lat="43.5245351" lon="11.5235035"><ele>232.0</ele><time>2026-03-29T11:13:08.713Z</time></trkpt><trkpt lat="43.5244367" lon="11.5233876"><ele>235.33333333333331</ele><time>2026-03-29T11:13:09.717Z</time></trkpt><trkpt lat="43.524329" lon="11.5233207"><ele>238.66666666666669</ele><time>2026-03-29T11:13:10.716Z</time></trkpt><trkpt lat="43.5241803" lon="11.5233276"><ele>242.0</ele><time>2026-03-29T11:13:11.753Z</time></trkpt><trkpt lat="43.5239527" lon="11.5234479"><ele>242.0</ele><time>2026-03-29T11:13:12.707Z</time></trkpt><trkpt lat="43.5237447" lon="11.5235566"><ele>242.0</ele><time>2026-03-29T11:13:13.719Z</time></trkpt><trkpt lat="43.5235633" lon="11.5236421"><ele>242.0</ele><time>2026-03-29T11:13:14.714Z</time></trkpt><trkpt lat="43.5233783" lon="11.5237027"><ele>241.5</ele><time>2026-03-29T11:13:15.759Z</time></trkpt><trkpt lat="43.5232268" lon="11.5237263"><ele>241.0</ele><time>2026-03-29T11:13:16.714Z</time></trkpt><trkpt lat="43.5231111" lon="11.5236504"><ele>240.5</ele><time>2026-03-29T11:13:17.717Z</time></trkpt><trkpt lat="43.5229832" lon="11.5235105"><ele>240.0</ele><time>2026-03-29T11:13:18.755Z</time></trkpt><trkpt lat="43.5228608" lon="11.5233077"><ele>240.0</ele><time>2026-03-29T11:13:19.775Z</time></trkpt><trkpt lat="43.5227726" lon="11.5230316"><ele>240.0</ele><time>2026-03-29T11:13:20.721Z</time></trkpt><trkpt lat="43.5226812" lon="11.5226824"><ele>241.5</ele><time>2026-03-29T11:13:21.754Z</time></trkpt><trkpt lat="43.5225851" lon="11.5223593"><ele>243.0</ele><time>2026-03-29T11:13:22.721Z</time></trkpt><trkpt lat="43.5224972" lon="11.5220046"><ele>244.5</ele><time>2026-03-29T11:13:23.722Z</time></trkpt><trkpt lat="43.5223999" lon="11.5217061"><ele>246.0</ele><time>2026-03-29T11:13:24.715Z</time></trkpt><trkpt lat="43.5223057" lon="11.5214312"><ele>248.0</ele><time>2026-03-29T11:13:25.718Z</time></trkpt><trkpt lat="43.5222171" lon="11.5211376"><ele>250.0</ele><time>2026-03-29T11:13:26.713Z</time></trkpt><trkpt lat="43.5221511" lon="11.5208093"><ele>250.0</ele><time>2026-03-29T11:13:27.724Z</time></trkpt><trkpt lat="43.5220921" lon="11.5204444"><ele>250.0</ele><time>2026-03-29T11:13:28.712Z</time></trkpt><trkpt lat="43.5220335" lon="11.5200277"><ele>251.5</ele><time>2026-03-29T11:13:29.774Z</time></trkpt><trkpt lat="43.5219896" lon="11.519631"><ele>253.0</ele><time>2026-03-29T11:13:30.765Z</time></trkpt><trkpt lat="43.5219371" lon="11.5192514"><ele>254.5</ele><time>2026-03-29T11:13:31.78Z</time></trkpt><trkpt lat="43.5218831" lon="11.5189005"><ele>256.0</ele><time>2026-03-29T11:13:32.741Z</time></trkpt><trkpt lat="43.5218262" lon="11.5185601"><ele>257.3333333333333</ele><time>2026-03-29T11:13:33.754Z</time></trkpt><trkpt lat="43.5217709" lon="11.5182385"><ele>258.6666666666667</ele><time>2026-03-29T11:13:34.779Z</time></trkpt><trkpt lat="43.5217318" lon="11.5179777"><ele>260.0</ele><time>2026-03-29T11:13:35.748Z</time></trkpt><trkpt lat="43.5216984" lon="11.5177259"><ele>261.0</ele><time>2026-03-29T11:13:36.756Z</time></trkpt><trkpt lat="43.5216481" lon="11.5175328"><ele>262.0</ele><time>2026-03-29T11:13:37.713Z</time></trkpt><trkpt lat="43.5215755" lon="11.5173424"><ele>263.0</ele><time>2026-03-29T11:13:38.712Z</time></trkpt><trkpt lat="43.521474" lon="11.5171928"><ele>263.0</ele><time>2026-03-29T11:13:39.749Z</time></trkpt><trkpt lat="43.5213389" lon="11.5171001"><ele>263.0</ele><time>2026-03-29T11:13:40.761Z</time></trkpt><trkpt lat="43.5211905" lon="11.5170217"><ele>263.0</ele><time>2026-03-29T11:13:41.757Z</time></trkpt><trkpt lat="43.5210288" lon="11.5168685"><ele>265.0</ele><time>2026-03-29T11:13:43.072Z</time></trkpt><trkpt lat="43.5205702" lon="11.5169246"><ele>266.0</ele><time>2026-03-29T11:13:44.784Z</time></trkpt><trkpt lat="43.5202754" lon="11.5169786"><ele>267.0</ele><time>2026-03-29T11:13:45.763Z</time></trkpt><trkpt lat="43.5200217" lon="11.516991"><ele>267.0</ele><time>2026-03-29T11:13:46.786Z</time></trkpt><trkpt lat="43.5198007" lon="11.5170079"><ele>267.0</ele><time>2026-03-29T11:13:47.77Z</time></trkpt><trkpt lat="43.5195955" lon="11.517015"><ele>267.0</ele><time>2026-03-29T11:13:48.731Z</time></trkpt><trkpt lat="43.5193925" lon="11.5170324"><ele>267.3333333333333</ele><time>2026-03-29T11:13:49.704Z</time></trkpt><trkpt lat="43.5192044" lon="11.5170188"><ele>267.66666666666663</ele><time>2026-03-29T11:13:50.716Z</time></trkpt><trkpt lat="43.5190349" lon="11.5169418"><ele>268.0</ele><time>2026-03-29T11:13:51.722Z</time></trkpt><trkpt lat="43.5188787" lon="11.5168118"><ele>268.0</ele><time>2026-03-29T11:13:52.717Z</time></trkpt><trkpt lat="43.5187245" lon="11.5166244"><ele>268.0</ele><time>2026-03-29T11:13:53.727Z</time></trkpt><trkpt lat="43.5185825" lon="11.5163974"><ele>268.0</ele><time>2026-03-29T11:13:54.721Z</time></trkpt><trkpt lat="43.5184317" lon="11.5161258"><ele>268.0</ele><time>2026-03-29T11:13:55.712Z</time></trkpt><trkpt lat="43.5182852" lon="11.5158247"><ele>268.0</ele><time>2026-03-29T11:13:56.724Z</time></trkpt><trkpt lat="43.5181594" lon="11.5155247"><ele>269.0</ele><time>2026-03-29T11:13:57.728Z</time></trkpt><trkpt lat="43.5180561" lon="11.5152304"><ele>270.0</ele><time>2026-03-29T11:13:58.72Z</time></trkpt><trkpt lat="43.5179696" lon="11.5149129"><ele>270.0</ele><time>2026-03-29T11:13:59.752Z</time></trkpt><trkpt lat="43.5179248" lon="11.5145906"><ele>270.0</ele><time>2026-03-29T11:14:00.712Z</time></trkpt><trkpt lat="43.5178951" lon="11.5142495"><ele>270.5</ele><time>2026-03-29T11:14:01.718Z</time></trkpt><trkpt lat="43.5179057" lon="11.5138786"><ele>271.0</ele><time>2026-03-29T11:14:02.709Z</time></trkpt><trkpt lat="43.5179322" lon="11.5135014"><ele>271.0</ele><time>2026-03-29T11:14:03.733Z</time></trkpt><trkpt lat="43.517977" lon="11.5131621"><ele>271.0</ele><time>2026-03-29T11:14:04.707Z</time></trkpt><trkpt lat="43.5180347" lon="11.5128131"><ele>271.66666666666663</ele><time>2026-03-29T11:14:05.724Z</time></trkpt><trkpt lat="43.518067" lon="11.5125082"><ele>272.3333333333333</ele><time>2026-03-29T11:14:06.717Z</time></trkpt><trkpt lat="43.5180789" lon="11.5122101"><ele>273.0</ele><time>2026-03-29T11:14:07.743Z</time></trkpt><trkpt lat="43.5180634" lon="11.511965"><ele>273.6666666666667</ele><time>2026-03-29T11:14:08.731Z</time></trkpt><trkpt lat="43.5180417" lon="11.5116886"><ele>274.33333333333337</ele><time>2026-03-29T11:14:09.711Z</time></trkpt><trkpt lat="43.5180188" lon="11.5114029"><ele>275.0</ele><time>2026-03-29T11:14:10.712Z</time></trkpt><trkpt lat="43.5179933" lon="11.511121"><ele>275.0</ele><time>2026-03-29T11:14:11.718Z</time></trkpt><trkpt lat="43.5179662" lon="11.5108444"><ele>275.0</ele><time>2026-03-29T11:14:12.733Z</time></trkpt><trkpt lat="43.5179503" lon="11.5105885"><ele>275.0</ele><time>2026-03-29T11:14:13.736Z</time></trkpt><trkpt lat="43.5179419" lon="11.5103496"><ele>274.75</ele><time>2026-03-29T11:14:14.753Z</time></trkpt><trkpt lat="43.5179399" lon="11.5101508"><ele>274.5</ele><time>2026-03-29T11:14:15.727Z</time></trkpt><trkpt lat="43.5179271" lon="11.5099532"><ele>274.25</ele><time>2026-03-29T11:14:16.727Z</time></trkpt><trkpt lat="43.5178995" lon="11.5097715"><ele>274.0</ele><time>2026-03-29T11:14:17.717Z</time></trkpt><trkpt lat="43.5178529" lon="11.5095864"><ele>275.66666666666663</ele><time>2026-03-29T11:14:18.711Z</time></trkpt><trkpt lat="43.5177773" lon="11.5093661"><ele>277.3333333333333</ele><time>2026-03-29T11:14:19.718Z</time></trkpt><trkpt lat="43.5176818" lon="11.5091046"><ele>279.0</ele><time>2026-03-29T11:14:20.71Z</time></trkpt><trkpt lat="43.5175798" lon="11.5088062"><ele>278.6666666666667</ele><time>2026-03-29T11:14:21.731Z</time></trkpt><trkpt lat="43.5174915" lon="11.5085525"><ele>278.33333333333337</ele><time>2026-03-29T11:14:22.725Z</time></trkpt><trkpt lat="43.5173956" lon="11.5083023"><ele>278.0</ele><time>2026-03-29T11:14:23.728Z</time></trkpt><trkpt lat="43.5172983" lon="11.5080751"><ele>280.0</ele><time>2026-03-29T11:14:24.742Z</time></trkpt><trkpt lat="43.5171828" lon="11.5078446"><ele>282.0</ele><time>2026-03-29T11:14:25.755Z</time></trkpt><trkpt lat="43.5170561" lon="11.5076242"><ele>284.0</ele><time>2026-03-29T11:14:26.724Z</time></trkpt><trkpt lat="43.5169042" lon="11.5074293"><ele>284.6666666666667</ele><time>2026-03-29T11:14:27.745Z</time></trkpt><trkpt lat="43.5167491" lon="11.507249"><ele>285.3333333333333</ele><time>2026-03-29T11:14:28.724Z</time></trkpt><trkpt lat="43.5165957" lon="11.5070512"><ele>286.0</ele><time>2026-03-29T11:14:29.726Z</time></trkpt><trkpt lat="43.5164538" lon="11.5068341"><ele>287.5</ele><time>2026-03-29T11:14:30.714Z</time></trkpt><trkpt lat="43.5163297" lon="11.506577"><ele>289.0</ele><time>2026-03-29T11:14:31.723Z</time></trkpt><trkpt lat="43.5162423" lon="11.5062726"><ele>288.0</ele><time>2026-03-29T11:14:32.712Z</time></trkpt><trkpt lat="43.5161865" lon="11.505917"><ele>287.0</ele><time>2026-03-29T11:14:33.721Z</time></trkpt><trkpt lat="43.5161487" lon="11.5055783"><ele>288.5</ele><time>2026-03-29T11:14:34.747Z</time></trkpt><trkpt lat="43.516123" lon="11.5052759"><ele>290.0</ele><time>2026-03-29T11:14:35.727Z</time></trkpt><trkpt lat="43.5160917" lon="11.5049623"><ele>290.0</ele><time>2026-03-29T11:14:36.784Z</time></trkpt><trkpt lat="43.5160957" lon="11.5046975"><ele>290.0</ele><time>2026-03-29T11:14:37.725Z</time></trkpt><trkpt lat="43.5161097" lon="11.504451"><ele>290.0</ele><time>2026-03-29T11:14:38.718Z</time></trkpt><trkpt lat="43.5161441" lon="11.5042208"><ele>290.0</ele><time>2026-03-29T11:14:39.713Z</time></trkpt><trkpt lat="43.5161978" lon="11.5040061"><ele>290.0</ele><time>2026-03-29T11:14:40.724Z</time></trkpt><trkpt lat="43.5162626" lon="11.5037846"><ele>290.0</ele><time>2026-03-29T11:14:41.774Z</time></trkpt><trkpt lat="43.5163592" lon="11.5035762"><ele>290.0</ele><time>2026-03-29T11:14:42.716Z</time></trkpt><trkpt lat="43.5165311" lon="11.5034042"><ele>290.0</ele><time>2026-03-29T11:14:43.758Z</time></trkpt><trkpt lat="43.5167286" lon="11.503274"><ele>290.0</ele><time>2026-03-29T11:14:44.736Z</time></trkpt><trkpt lat="43.516974" lon="11.5031832"><ele>292.5</ele><time>2026-03-29T11:14:45.72Z</time></trkpt><trkpt lat="43.5173091" lon="11.5031762"><ele>295.0</ele><time>2026-03-29T11:14:46.722Z</time></trkpt><trkpt lat="43.5176192" lon="11.5031429"><ele>295.0</ele><time>2026-03-29T11:14:47.717Z</time></trkpt><trkpt lat="43.5178233" lon="11.5030502"><ele>295.0</ele><time>2026-03-29T11:14:48.724Z</time></trkpt><trkpt lat="43.5179899" lon="11.502956"><ele>295.0</ele><time>2026-03-29T11:14:49.732Z</time></trkpt><trkpt lat="43.518125" lon="11.5028784"><ele>295.0</ele><time>2026-03-29T11:14:50.741Z</time></trkpt><trkpt lat="43.5182152" lon="11.5028214"><ele>295.0</ele><time>2026-03-29T11:14:51.716Z</time></trkpt><trkpt lat="43.5182789" lon="11.5027701"><ele>295.0</ele><time>2026-03-29T11:14:52.726Z</time></trkpt><trkpt lat="43.5183449" lon="11.502646"><ele>295.0</ele><time>2026-03-29T11:14:54.721Z</time></trkpt><trkpt lat="43.5183972" lon="11.5025305"><ele>295.0</ele><time>2026-03-29T11:14:56.718Z</time></trkpt><trkpt lat="43.518479" lon="11.5024718"><ele>295.0</ele><time>2026-03-29T11:14:58.728Z</time></trkpt><trkpt lat="43.5185887" lon="11.5024492"><ele>295.0</ele><time>2026-03-29T11:15:00.718Z</time></trkpt><trkpt lat="43.5186945" lon="11.502417"><ele>295.0</ele><time>2026-03-29T11:15:02.73Z</time></trkpt><trkpt lat="43.5187686" lon="11.5022897"><ele>295.0</ele><time>2026-03-29T11:15:04.724Z</time></trkpt><trkpt lat="43.5187724" lon="11.5021913"><ele>295.0</ele><time>2026-03-29T11:15:05.712Z</time></trkpt><trkpt lat="43.5187559" lon="11.5021042"><ele>295.3333333333333</ele><time>2026-03-29T11:15:06.709Z</time></trkpt><trkpt lat="43.5187287" lon="11.5020218"><ele>295.66666666666663</ele><time>2026-03-29T11:15:07.726Z</time></trkpt><trkpt lat="43.518687" lon="11.5019402"><ele>296.0</ele><time>2026-03-29T11:15:08.725Z</time></trkpt><trkpt lat="43.5186263" lon="11.5018482"><ele>296.3333333333333</ele><time>2026-03-29T11:15:09.75Z</time></trkpt><trkpt lat="43.5185715" lon="11.5017549"><ele>296.6666666666667</ele><time>2026-03-29T11:15:10.723Z</time></trkpt><trkpt lat="43.5185329" lon="11.5016444"><ele>297.0</ele><time>2026-03-29T11:15:11.721Z</time></trkpt><trkpt lat="43.5185167" lon="11.5015091"><ele>297.0</ele><time>2026-03-29T11:15:12.731Z</time></trkpt><trkpt lat="43.5184981" lon="11.5013395"><ele>297.0</ele><time>2026-03-29T11:15:13.736Z</time></trkpt><trkpt lat="43.518478" lon="11.5011457"><ele>297.0</ele><time>2026-03-29T11:15:14.734Z</time></trkpt><trkpt lat="43.5184409" lon="11.5009298"><ele>297.0</ele><time>2026-03-29T11:15:15.716Z</time></trkpt><trkpt lat="43.5183732" lon="11.5006913"><ele>297.6666666666667</ele><time>2026-03-29T11:15:16.731Z</time></trkpt><trkpt lat="43.5183025" lon="11.5004802"><ele>298.33333333333337</ele><time>2026-03-29T11:15:17.724Z</time></trkpt><trkpt lat="43.5182112" lon="11.5002599"><ele>299.0</ele><time>2026-03-29T11:15:18.744Z</time></trkpt><trkpt lat="43.5181145" lon="11.5000345"><ele>299.0</ele><time>2026-03-29T11:15:19.738Z</time></trkpt><trkpt lat="43.5180239" lon="11.4998079"><ele>299.0</ele><time>2026-03-29T11:15:20.728Z</time></trkpt><trkpt lat="43.5179385" lon="11.4995802"><ele>299.0</ele><time>2026-03-29T11:15:21.739Z</time></trkpt><trkpt lat="43.5178588" lon="11.499367"><ele>301.33333333333337</ele><time>2026-03-29T11:15:22.73Z</time></trkpt><trkpt lat="43.5177839" lon="11.4991609"><ele>303.6666666666667</ele><time>2026-03-29T11:15:23.728Z</time></trkpt><trkpt lat="43.5177266" lon="11.4989659"><ele>306.0</ele><time>2026-03-29T11:15:24.72Z</time></trkpt><trkpt lat="43.5177003" lon="11.4987316"><ele>306.3333333333333</ele><time>2026-03-29T11:15:25.717Z</time></trkpt><trkpt lat="43.5177149" lon="11.4984559"><ele>306.66666666666663</ele><time>2026-03-29T11:15:26.733Z</time></trkpt><trkpt lat="43.5177523" lon="11.4981761"><ele>307.0</ele><time>2026-03-29T11:15:27.731Z</time></trkpt><trkpt lat="43.5177913" lon="11.4978979"><ele>307.66666666666663</ele><time>2026-03-29T11:15:28.728Z</time></trkpt><trkpt lat="43.5178103" lon="11.4976546"><ele>308.3333333333333</ele><time>2026-03-29T11:15:29.726Z</time></trkpt><trkpt lat="43.5178201" lon="11.4974278"><ele>309.0</ele><time>2026-03-29T11:15:30.725Z</time></trkpt><trkpt lat="43.5178077" lon="11.497209"><ele>311.0</ele><time>2026-03-29T11:15:31.727Z</time></trkpt><trkpt lat="43.5177641" lon="11.4970014"><ele>313.0</ele><time>2026-03-29T11:15:32.716Z</time></trkpt><trkpt lat="43.5176864" lon="11.4967837"><ele>315.0</ele><time>2026-03-29T11:15:33.718Z</time></trkpt><trkpt lat="43.5175797" lon="11.4965634"><ele>315.0</ele><time>2026-03-29T11:15:34.732Z</time></trkpt><trkpt lat="43.5174764" lon="11.4963532"><ele>315.0</ele><time>2026-03-29T11:15:35.722Z</time></trkpt><trkpt lat="43.5173836" lon="11.4961431"><ele>315.0</ele><time>2026-03-29T11:15:36.724Z</time></trkpt><trkpt lat="43.5173292" lon="11.4959606"><ele>316.5</ele><time>2026-03-29T11:15:37.713Z</time></trkpt><trkpt lat="43.5173026" lon="11.4957698"><ele>318.0</ele><time>2026-03-29T11:15:38.723Z</time></trkpt><trkpt lat="43.5173181" lon="11.4955824"><ele>319.5</ele><time>2026-03-29T11:15:39.722Z</time></trkpt><trkpt lat="43.5173479" lon="11.4953936"><ele>321.0</ele><time>2026-03-29T11:15:40.715Z</time></trkpt><trkpt lat="43.5173699" lon="11.4951775"><ele>322.6666666666667</ele><time>2026-03-29T11:15:41.72Z</time></trkpt><trkpt lat="43.5173683" lon="11.4949574"><ele>324.33333333333337</ele><time>2026-03-29T11:15:42.727Z</time></trkpt><trkpt lat="43.51733" lon="11.4947464"><ele>326.0</ele><time>2026-03-29T11:15:43.732Z</time></trkpt><trkpt lat="43.5172443" lon="11.494562"><ele>326.33333333333337</ele><time>2026-03-29T11:15:44.725Z</time></trkpt><trkpt lat="43.5171449" lon="11.4943928"><ele>326.6666666666667</ele><time>2026-03-29T11:15:45.713Z</time></trkpt><trkpt lat="43.5170219" lon="11.4942581"><ele>327.0</ele><time>2026-03-29T11:15:46.719Z</time></trkpt><trkpt lat="43.516882" lon="11.4941489"><ele>327.0</ele><time>2026-03-29T11:15:47.728Z</time></trkpt><trkpt lat="43.5167432" lon="11.4940451"><ele>327.0</ele><time>2026-03-29T11:15:48.715Z</time></trkpt><trkpt lat="43.5165883" lon="11.4939983"><ele>327.0</ele><time>2026-03-29T11:15:49.73Z</time></trkpt><trkpt lat="43.5164292" lon="11.4939982"><ele>327.0</ele><time>2026-03-29T11:15:50.727Z</time></trkpt><trkpt lat="43.5162677" lon="11.4940113"><ele>327.0</ele><time>2026-03-29T11:15:51.733Z</time></trkpt><trkpt lat="43.5161044" lon="11.4940144"><ele>327.0</ele><time>2026-03-29T11:15:52.744Z</time></trkpt><trkpt lat="43.5159704" lon="11.4939935"><ele>327.0</ele><time>2026-03-29T11:15:53.712Z</time></trkpt><trkpt lat="43.5158263" lon="11.4939695"><ele>327.0</ele><time>2026-03-29T11:15:54.722Z</time></trkpt><trkpt lat="43.5157105" lon="11.4938995"><ele>327.0</ele><time>2026-03-29T11:15:55.715Z</time></trkpt><trkpt lat="43.5155923" lon="11.4937998"><ele>327.0</ele><time>2026-03-29T11:15:56.717Z</time></trkpt><trkpt lat="43.5154865" lon="11.4936666"><ele>325.3333333333333</ele><time>2026-03-29T11:15:57.732Z</time></trkpt><trkpt lat="43.5154148" lon="11.4934774"><ele>323.66666666666663</ele><time>2026-03-29T11:15:58.719Z</time></trkpt><trkpt lat="43.5153499" lon="11.4932686"><ele>322.0</ele><time>2026-03-29T11:15:59.722Z</time></trkpt><trkpt lat="43.5153059" lon="11.4930141"><ele>324.5</ele><time>2026-03-29T11:16:00.73Z</time></trkpt><trkpt lat="43.515294" lon="11.4926846"><ele>327.0</ele><time>2026-03-29T11:16:01.715Z</time></trkpt><trkpt lat="43.515329" lon="11.4922955"><ele>328.0</ele><time>2026-03-29T11:16:02.707Z</time></trkpt><trkpt lat="43.5153585" lon="11.491952"><ele>329.0</ele><time>2026-03-29T11:16:03.717Z</time></trkpt><trkpt lat="43.5153992" lon="11.4916294"><ele>329.0</ele><time>2026-03-29T11:16:04.726Z</time></trkpt><trkpt lat="43.5154037" lon="11.4913354"><ele>329.0</ele><time>2026-03-29T11:16:05.727Z</time></trkpt><trkpt lat="43.5153677" lon="11.4910825"><ele>329.0</ele><time>2026-03-29T11:16:06.72Z</time></trkpt><trkpt lat="43.5152905" lon="11.4908497"><ele>332.6666666666667</ele><time>2026-03-29T11:16:07.717Z</time></trkpt><trkpt lat="43.5151777" lon="11.4906473"><ele>336.3333333333333</ele><time>2026-03-29T11:16:08.722Z</time></trkpt><trkpt lat="43.5150558" lon="11.4904729"><ele>340.0</ele><time>2026-03-29T11:16:09.747Z</time></trkpt><trkpt lat="43.5149464" lon="11.4903304"><ele>342.66666666666663</ele><time>2026-03-29T11:16:10.727Z</time></trkpt><trkpt lat="43.5148509" lon="11.4901674"><ele>345.3333333333333</ele><time>2026-03-29T11:16:11.724Z</time></trkpt><trkpt lat="43.5147842" lon="11.4899557"><ele>348.0</ele><time>2026-03-29T11:16:12.718Z</time></trkpt><trkpt lat="43.5147474" lon="11.4896987"><ele>349.0</ele><time>2026-03-29T11:16:13.716Z</time></trkpt><trkpt lat="43.5147329" lon="11.4893976"><ele>350.0</ele><time>2026-03-29T11:16:14.736Z</time></trkpt><trkpt lat="43.5147357" lon="11.4891182"><ele>351.0</ele><time>2026-03-29T11:16:15.711Z</time></trkpt><trkpt lat="43.5147681" lon="11.4888423"><ele>351.6666666666667</ele><time>2026-03-29T11:16:16.729Z</time></trkpt><trkpt lat="43.5148195" lon="11.4886054"><ele>352.33333333333337</ele><time>2026-03-29T11:16:17.724Z</time></trkpt><trkpt lat="43.5148874" lon="11.4883486"><ele>353.0</ele><time>2026-03-29T11:16:18.727Z</time></trkpt><trkpt lat="43.51488" lon="11.4881259"><ele>353.0</ele><time>2026-03-29T11:16:19.731Z</time></trkpt><trkpt lat="43.5148271" lon="11.4879164"><ele>353.0</ele><time>2026-03-29T11:16:20.709Z</time></trkpt><trkpt lat="43.514769" lon="11.4877163"><ele>353.0</ele><time>2026-03-29T11:16:21.729Z</time></trkpt><trkpt lat="43.5147368" lon="11.487532"><ele>353.0</ele><time>2026-03-29T11:16:22.716Z</time></trkpt><trkpt lat="43.5147369" lon="11.4873246"><ele>353.0</ele><time>2026-03-29T11:16:23.732Z</time></trkpt><trkpt lat="43.5147888" lon="11.4870875"><ele>353.0</ele><time>2026-03-29T11:16:24.721Z</time></trkpt><trkpt lat="43.5148636" lon="11.4868328"><ele>353.5</ele><time>2026-03-29T11:16:25.723Z</time></trkpt><trkpt lat="43.5149292" lon="11.4865481"><ele>354.0</ele><time>2026-03-29T11:16:26.862Z</time></trkpt><trkpt lat="43.514907" lon="11.4861232"><ele>357.0</ele><time>2026-03-29T11:16:28.718Z</time></trkpt><trkpt lat="43.5148374" lon="11.485927"><ele>360.0</ele><time>2026-03-29T11:16:29.722Z</time></trkpt><trkpt lat="43.5147439" lon="11.4857406"><ele>363.0</ele><time>2026-03-29T11:16:30.703Z</time></trkpt><trkpt lat="43.514608" lon="11.4855584"><ele>363.6666666666667</ele><time>2026-03-29T11:16:31.773Z</time></trkpt><trkpt lat="43.5144816" lon="11.4854322"><ele>364.33333333333337</ele><time>2026-03-29T11:16:32.749Z</time></trkpt><trkpt lat="43.5143603" lon="11.4852937"><ele>365.0</ele><time>2026-03-29T11:16:33.725Z</time></trkpt><trkpt lat="43.514275" lon="11.4851208"><ele>365.0</ele><time>2026-03-29T11:16:34.718Z</time></trkpt><trkpt lat="43.5142212" lon="11.4849144"><ele>365.0</ele><time>2026-03-29T11:16:35.723Z</time></trkpt><trkpt lat="43.5141718" lon="11.4846728"><ele>365.0</ele><time>2026-03-29T11:16:36.73Z</time></trkpt><trkpt lat="43.5141398" lon="11.4844074"><ele>365.0</ele><time>2026-03-29T11:16:37.756Z</time></trkpt><trkpt lat="43.5141197" lon="11.4841342"><ele>365.0</ele><time>2026-03-29T11:16:38.738Z</time></trkpt><trkpt lat="43.5140523" lon="11.483872"><ele>365.0</ele><time>2026-03-29T11:16:39.723Z</time></trkpt><trkpt lat="43.5139512" lon="11.4836216"><ele>365.0</ele><time>2026-03-29T11:16:40.721Z</time></trkpt><trkpt lat="43.5138221" lon="11.4834244"><ele>365.0</ele><time>2026-03-29T11:16:41.726Z</time></trkpt><trkpt lat="43.5137067" lon="11.4832381"><ele>365.0</ele><time>2026-03-29T11:16:42.717Z</time></trkpt><trkpt lat="43.5135917" lon="11.4830808"><ele>366.25</ele><time>2026-03-29T11:16:43.713Z</time></trkpt><trkpt lat="43.5134772" lon="11.4829821"><ele>367.5</ele><time>2026-03-29T11:16:44.719Z</time></trkpt><trkpt lat="43.5133641" lon="11.4828736"><ele>368.75</ele><time>2026-03-29T11:16:45.718Z</time></trkpt><trkpt lat="43.5132074" lon="11.4828174"><ele>370.0</ele><time>2026-03-29T11:16:46.743Z</time></trkpt><trkpt lat="43.5129926" lon="11.4828081"><ele>371.0</ele><time>2026-03-29T11:16:47.724Z</time></trkpt><trkpt lat="43.5127488" lon="11.4828151"><ele>372.0</ele><time>2026-03-29T11:16:48.73Z</time></trkpt><trkpt lat="43.5125273" lon="11.4828064"><ele>372.0</ele><time>2026-03-29T11:16:49.721Z</time></trkpt><trkpt lat="43.5123205" lon="11.4827887"><ele>372.0</ele><time>2026-03-29T11:16:50.721Z</time></trkpt><trkpt lat="43.5121125" lon="11.482675"><ele>372.0</ele><time>2026-03-29T11:16:51.712Z</time></trkpt><trkpt lat="43.5119087" lon="11.4825078"><ele>376.5</ele><time>2026-03-29T11:16:52.727Z</time></trkpt><trkpt lat="43.5117058" lon="11.4823322"><ele>381.0</ele><time>2026-03-29T11:16:53.731Z</time></trkpt><trkpt lat="43.5115214" lon="11.4821669"><ele>382.33333333333337</ele><time>2026-03-29T11:16:54.718Z</time></trkpt><trkpt lat="43.5113299" lon="11.4820299"><ele>383.6666666666667</ele><time>2026-03-29T11:16:55.728Z</time></trkpt><trkpt lat="43.5111591" lon="11.4819213"><ele>385.0</ele><time>2026-03-29T11:16:56.709Z</time></trkpt><trkpt lat="43.5109878" lon="11.4818129"><ele>387.6666666666667</ele><time>2026-03-29T11:16:57.719Z</time></trkpt><trkpt lat="43.5108298" lon="11.4817029"><ele>390.33333333333337</ele><time>2026-03-29T11:16:58.727Z</time></trkpt><trkpt lat="43.5106977" lon="11.4816255"><ele>393.0</ele><time>2026-03-29T11:16:59.714Z</time></trkpt><trkpt lat="43.5105607" lon="11.4815861"><ele>393.0</ele><time>2026-03-29T11:17:00.728Z</time></trkpt><trkpt lat="43.5104298" lon="11.481604"><ele>393.0</ele><time>2026-03-29T11:17:01.762Z</time></trkpt><trkpt lat="43.5102866" lon="11.4816675"><ele>393.0</ele><time>2026-03-29T11:17:02.724Z</time></trkpt><trkpt lat="43.5101257" lon="11.4817278"><ele>393.0</ele><time>2026-03-29T11:17:03.71Z</time></trkpt><trkpt lat="43.5099499" lon="11.4817573"><ele>392.25</ele><time>2026-03-29T11:17:04.761Z</time></trkpt><trkpt lat="43.509788" lon="11.4817466"><ele>391.5</ele><time>2026-03-29T11:17:05.756Z</time></trkpt><trkpt lat="43.5096558" lon="11.4817252"><ele>390.75</ele><time>2026-03-29T11:17:06.723Z</time></trkpt><trkpt lat="43.5095422" lon="11.4816771"><ele>390.0</ele><time>2026-03-29T11:17:07.717Z</time></trkpt><trkpt lat="43.5094362" lon="11.4815991"><ele>390.0</ele><time>2026-03-29T11:17:08.73Z</time></trkpt><trkpt lat="43.5093653" lon="11.481491"><ele>390.0</ele><time>2026-03-29T11:17:09.721Z</time></trkpt><trkpt lat="43.5093068" lon="11.4813668"><ele>390.0</ele><time>2026-03-29T11:17:10.727Z</time></trkpt><trkpt lat="43.509292" lon="11.4811617"><ele>390.0</ele><time>2026-03-29T11:17:11.754Z</time></trkpt><trkpt lat="43.509313" lon="11.4809077"><ele>394.66666666666663</ele><time>2026-03-29T11:17:12.758Z</time></trkpt><trkpt lat="43.5093441" lon="11.4806421"><ele>399.3333333333333</ele><time>2026-03-29T11:17:13.769Z</time></trkpt><trkpt lat="43.5093514" lon="11.4804468"><ele>404.0</ele><time>2026-03-29T11:17:14.731Z</time></trkpt><trkpt lat="43.5093057" lon="11.4802966"><ele>407.79999999999995</ele><time>2026-03-29T11:17:15.736Z</time></trkpt><trkpt lat="43.5092475" lon="11.4801831"><ele>411.59999999999997</ele><time>2026-03-29T11:17:16.765Z</time></trkpt><trkpt lat="43.5091504" lon="11.4801328"><ele>415.4</ele><time>2026-03-29T11:17:17.754Z</time></trkpt><trkpt lat="43.5090501" lon="11.4801213"><ele>419.2</ele><time>2026-03-29T11:17:18.77Z</time></trkpt><trkpt lat="43.5089351" lon="11.4801495"><ele>423.0</ele><time>2026-03-29T11:17:19.753Z</time></trkpt><trkpt lat="43.5088152" lon="11.4802444"><ele>419.33333333333337</ele><time>2026-03-29T11:17:20.724Z</time></trkpt><trkpt lat="43.5087002" lon="11.4803413"><ele>415.6666666666667</ele><time>2026-03-29T11:17:21.728Z</time></trkpt><trkpt lat="43.5085611" lon="11.4804804"><ele>412.0</ele><time>2026-03-29T11:17:22.733Z</time></trkpt><trkpt lat="43.5084014" lon="11.480631"><ele>412.0</ele><time>2026-03-29T11:17:23.731Z</time></trkpt><trkpt lat="43.5082998" lon="11.4806607"><ele>412.0</ele><time>2026-03-29T11:17:24.728Z</time></trkpt><trkpt lat="43.508226" lon="11.4806052"><ele>412.0</ele><time>2026-03-29T11:17:25.739Z</time></trkpt><trkpt lat="43.5081771" lon="11.4805026"><ele>412.0</ele><time>2026-03-29T11:17:26.709Z</time></trkpt><trkpt lat="43.5081394" lon="11.4804082"><ele>412.0</ele><time>2026-03-29T11:17:27.733Z</time></trkpt><trkpt lat="43.5080662" lon="11.4803182"><ele>412.0</ele><time>2026-03-29T11:17:29.77Z</time></trkpt><trkpt lat="43.5079917" lon="11.480284"><ele>412.0</ele><time>2026-03-29T11:17:30.775Z</time></trkpt><trkpt lat="43.5079667" lon="11.4801262"><ele>412.0</ele><time>2026-03-29T11:17:32.719Z</time></trkpt><trkpt lat="43.507912" lon="11.4800357"><ele>412.0</ele><time>2026-03-29T11:17:33.757Z</time></trkpt><trkpt lat="43.5078499" lon="11.4798651"><ele>412.0</ele><time>2026-03-29T11:17:34.722Z</time></trkpt><trkpt lat="43.5077862" lon="11.4796327"><ele>405.0</ele><time>2026-03-29T11:17:35.724Z</time></trkpt><trkpt lat="43.5077072" lon="11.4793754"><ele>398.0</ele><time>2026-03-29T11:17:36.722Z</time></trkpt><trkpt lat="43.5076006" lon="11.4791164"><ele>391.0</ele><time>2026-03-29T11:17:37.734Z</time></trkpt><trkpt lat="43.5074944" lon="11.4788889"><ele>394.75</ele><time>2026-03-29T11:17:38.724Z</time></trkpt><trkpt lat="43.5074198" lon="11.4786911"><ele>398.5</ele><time>2026-03-29T11:17:39.762Z</time></trkpt><trkpt lat="43.5073429" lon="11.4785214"><ele>402.25</ele><time>2026-03-29T11:17:40.721Z</time></trkpt><trkpt lat="43.5073026" lon="11.4783421"><ele>406.0</ele><time>2026-03-29T11:17:41.73Z</time></trkpt><trkpt lat="43.5072974" lon="11.478175"><ele>406.0</ele><time>2026-03-29T11:17:42.743Z</time></trkpt><trkpt lat="43.5073275" lon="11.4780322"><ele>406.0</ele><time>2026-03-29T11:17:43.734Z</time></trkpt><trkpt lat="43.5073794" lon="11.4778737"><ele>406.0</ele><time>2026-03-29T11:17:44.756Z</time></trkpt><trkpt lat="43.5074592" lon="11.4776934"><ele>406.0</ele><time>2026-03-29T11:17:45.747Z</time></trkpt><trkpt lat="43.5076045" lon="11.4774013"><ele>409.0</ele><time>2026-03-29T11:17:46.77Z</time></trkpt><trkpt lat="43.5078203" lon="11.4770544"><ele>412.0</ele><time>2026-03-29T11:17:47.74Z</time></trkpt><trkpt lat="43.5079718" lon="11.4768646"><ele>421.5</ele><time>2026-03-29T11:17:48.784Z</time></trkpt><trkpt lat="43.5081889" lon="11.4765666"><ele>431.0</ele><time>2026-03-29T11:17:49.78Z</time></trkpt><trkpt lat="43.5084002" lon="11.4763948"><ele>428.5</ele><time>2026-03-29T11:17:50.739Z</time></trkpt><trkpt lat="43.5086077" lon="11.4761641"><ele>426.0</ele><time>2026-03-29T11:17:52.045Z</time></trkpt><trkpt lat="43.5089672" lon="11.4757775"><ele>429.8</ele><time>2026-03-29T11:17:53.802Z</time></trkpt><trkpt lat="43.5089563" lon="11.4756694"><ele>433.6</ele><time>2026-03-29T11:17:54.794Z</time></trkpt><trkpt lat="43.5089467" lon="11.4755351"><ele>437.4</ele><time>2026-03-29T11:17:55.772Z</time></trkpt><trkpt lat="43.5089115" lon="11.4753982"><ele>441.2</ele><time>2026-03-29T11:17:56.788Z</time></trkpt><trkpt lat="43.5088644" lon="11.4752191"><ele>445.0</ele><time>2026-03-29T11:17:57.804Z</time></trkpt><trkpt lat="43.5088147" lon="11.47506"><ele>445.0</ele><time>2026-03-29T11:17:58.787Z</time></trkpt><trkpt lat="43.5088013" lon="11.4749367"><ele>445.0</ele><time>2026-03-29T11:17:59.776Z</time></trkpt><trkpt lat="43.5088456" lon="11.4748529"><ele>445.0</ele><time>2026-03-29T11:18:00.787Z</time></trkpt><trkpt lat="43.5089387" lon="11.4748271"><ele>445.0</ele><time>2026-03-29T11:18:01.784Z</time></trkpt><trkpt lat="43.5090742" lon="11.4748205"><ele>445.0</ele><time>2026-03-29T11:18:02.792Z</time></trkpt><trkpt lat="43.509233" lon="11.4748406"><ele>445.0</ele><time>2026-03-29T11:18:03.769Z</time></trkpt><trkpt lat="43.5094021" lon="11.4748608"><ele>445.0</ele><time>2026-03-29T11:18:04.785Z</time></trkpt><trkpt lat="43.509574" lon="11.4748753"><ele>445.0</ele><time>2026-03-29T11:18:05.792Z</time></trkpt><trkpt lat="43.5096736" lon="11.4748263"><ele>445.0</ele><time>2026-03-29T11:18:06.78Z</time></trkpt><trkpt lat="43.5097508" lon="11.4747351"><ele>445.6</ele><time>2026-03-29T11:18:07.796Z</time></trkpt><trkpt lat="43.5098158" lon="11.474631"><ele>446.2</ele><time>2026-03-29T11:18:08.794Z</time></trkpt><trkpt lat="43.5098346" lon="11.4744868"><ele>446.79999999999995</ele><time>2026-03-29T11:18:09.789Z</time></trkpt><trkpt lat="43.5098393" lon="11.474348"><ele>447.4</ele><time>2026-03-29T11:18:10.791Z</time></trkpt><trkpt lat="43.509808" lon="11.4741993"><ele>448.0</ele><time>2026-03-29T11:18:11.788Z</time></trkpt><trkpt lat="43.5097592" lon="11.474059"><ele>448.0</ele><time>2026-03-29T11:18:12.784Z</time></trkpt><trkpt lat="43.5096983" lon="11.4739423"><ele>447.99999999999994</ele><time>2026-03-29T11:18:13.791Z</time></trkpt><trkpt lat="43.5096199" lon="11.4738517"><ele>447.99999999999994</ele><time>2026-03-29T11:18:14.776Z</time></trkpt><trkpt lat="43.5095349" lon="11.4737584"><ele>448.0</ele><time>2026-03-29T11:18:15.789Z</time></trkpt><trkpt lat="43.5094524" lon="11.473663"><ele>448.0</ele><time>2026-03-29T11:18:16.767Z</time></trkpt><trkpt lat="43.5093631" lon="11.473548"><ele>449.75</ele><time>2026-03-29T11:18:17.786Z</time></trkpt><trkpt lat="43.5092919" lon="11.4734259"><ele>451.5</ele><time>2026-03-29T11:18:18.78Z</time></trkpt><trkpt lat="43.5092339" lon="11.4732762"><ele>453.25</ele><time>2026-03-29T11:18:19.774Z</time></trkpt><trkpt lat="43.5092445" lon="11.4730678"><ele>455.0</ele><time>2026-03-29T11:18:20.776Z</time></trkpt><trkpt lat="43.5092536" lon="11.472892"><ele>456.0</ele><time>2026-03-29T11:18:21.779Z</time></trkpt><trkpt lat="43.5092943" lon="11.4727214"><ele>457.0</ele><time>2026-03-29T11:18:22.781Z</time></trkpt><trkpt lat="43.509342" lon="11.4725595"><ele>458.0</ele><time>2026-03-29T11:18:23.791Z</time></trkpt><trkpt lat="43.5093569" lon="11.4724119"><ele>459.0</ele><time>2026-03-29T11:18:24.778Z</time></trkpt><trkpt lat="43.5093494" lon="11.4722711"><ele>459.0</ele><time>2026-03-29T11:18:25.781Z</time></trkpt><trkpt lat="43.5093174" lon="11.472126"><ele>459.0</ele><time>2026-03-29T11:18:26.789Z</time></trkpt><trkpt lat="43.5092273" lon="11.4720114"><ele>459.0</ele><time>2026-03-29T11:18:27.776Z</time></trkpt><trkpt lat="43.5091114" lon="11.4719114"><ele>459.0</ele><time>2026-03-29T11:18:28.796Z</time></trkpt><trkpt lat="43.50899" lon="11.4718244"><ele>461.5</ele><time>2026-03-29T11:18:29.786Z</time></trkpt><trkpt lat="43.5088617" lon="11.4717822"><ele>464.0</ele><time>2026-03-29T11:18:30.779Z</time></trkpt><trkpt lat="43.5087333" lon="11.4717415"><ele>466.5</ele><time>2026-03-29T11:18:31.792Z</time></trkpt><trkpt lat="43.5085909" lon="11.4717286"><ele>469.0</ele><time>2026-03-29T11:18:32.81Z</time></trkpt><trkpt lat="43.5084833" lon="11.4718266"><ele>469.5</ele><time>2026-03-29T11:18:33.765Z</time></trkpt><trkpt lat="43.5083708" lon="11.4718843"><ele>470.0</ele><time>2026-03-29T11:18:34.77Z</time></trkpt><trkpt lat="43.5082504" lon="11.4719117"><ele>470.5</ele><time>2026-03-29T11:18:35.782Z</time></trkpt><trkpt lat="43.5081204" lon="11.4719098"><ele>471.0</ele><time>2026-03-29T11:18:36.773Z</time></trkpt><trkpt lat="43.5079774" lon="11.471873"><ele>470.33333333333337</ele><time>2026-03-29T11:18:37.789Z</time></trkpt><trkpt lat="43.5078324" lon="11.4718073"><ele>469.6666666666667</ele><time>2026-03-29T11:18:38.797Z</time></trkpt><trkpt lat="43.5076854" lon="11.4717318"><ele>469.0</ele><time>2026-03-29T11:18:39.785Z</time></trkpt><trkpt lat="43.5075295" lon="11.4716533"><ele>469.0</ele><time>2026-03-29T11:18:40.8Z</time></trkpt><trkpt lat="43.5073728" lon="11.4715736"><ele>469.0</ele><time>2026-03-29T11:18:41.793Z</time></trkpt><trkpt lat="43.5072238" lon="11.4714911"><ele>469.0</ele><time>2026-03-29T11:18:42.778Z</time></trkpt><trkpt lat="43.5070846" lon="11.47139"><ele>470.33333333333337</ele><time>2026-03-29T11:18:43.778Z</time></trkpt><trkpt lat="43.5069544" lon="11.4712736"><ele>471.66666666666663</ele><time>2026-03-29T11:18:44.783Z</time></trkpt><trkpt lat="43.5068335" lon="11.4711299"><ele>473.0</ele><time>2026-03-29T11:18:45.786Z</time></trkpt><trkpt lat="43.5067228" lon="11.4709748"><ele>473.0</ele><time>2026-03-29T11:18:46.768Z</time></trkpt><trkpt lat="43.5066106" lon="11.47081"><ele>473.0</ele><time>2026-03-29T11:18:47.784Z</time></trkpt><trkpt lat="43.5065009" lon="11.47066"><ele>473.0</ele><time>2026-03-29T11:18:48.785Z</time></trkpt><trkpt lat="43.5063798" lon="11.4705301"><ele>471.75</ele><time>2026-03-29T11:18:49.779Z</time></trkpt><trkpt lat="43.5062522" lon="11.4704333"><ele>470.5</ele><time>2026-03-29T11:18:50.788Z</time></trkpt><trkpt lat="43.506125" lon="11.4703551"><ele>469.25</ele><time>2026-03-29T11:18:51.795Z</time></trkpt><trkpt lat="43.5060014" lon="11.4703421"><ele>468.0</ele><time>2026-03-29T11:18:52.784Z</time></trkpt><trkpt lat="43.5058748" lon="11.4703246"><ele>468.0</ele><time>2026-03-29T11:18:53.777Z</time></trkpt><trkpt lat="43.5057492" lon="11.4702765"><ele>468.0</ele><time>2026-03-29T11:18:54.903Z</time></trkpt><trkpt lat="43.5055404" lon="11.4701001"><ele>468.0</ele><time>2026-03-29T11:18:56.783Z</time></trkpt><trkpt lat="43.5054312" lon="11.4700178"><ele>471.2</ele><time>2026-03-29T11:18:57.785Z</time></trkpt><trkpt lat="43.5053351" lon="11.4699364"><ele>474.4</ele><time>2026-03-29T11:18:58.774Z</time></trkpt><trkpt lat="43.5052232" lon="11.4698831"><ele>477.59999999999997</ele><time>2026-03-29T11:18:59.805Z</time></trkpt><trkpt lat="43.5051235" lon="11.4698377"><ele>480.79999999999995</ele><time>2026-03-29T11:19:00.787Z</time></trkpt><trkpt lat="43.5050273" lon="11.4698218"><ele>484.0</ele><time>2026-03-29T11:19:01.778Z</time></trkpt><trkpt lat="43.5049019" lon="11.4698342"><ele>484.0</ele><time>2026-03-29T11:19:02.777Z</time></trkpt><trkpt lat="43.5047692" lon="11.469872"><ele>484.0</ele><time>2026-03-29T11:19:03.782Z</time></trkpt><trkpt lat="43.5046442" lon="11.4698656"><ele>484.0</ele><time>2026-03-29T11:19:04.805Z</time></trkpt><trkpt lat="43.5045403" lon="11.4698201"><ele>484.0</ele><time>2026-03-29T11:19:05.773Z</time></trkpt><trkpt lat="43.5044338" lon="11.4697455"><ele>482.2</ele><time>2026-03-29T11:19:06.801Z</time></trkpt><trkpt lat="43.5043593" lon="11.4696638"><ele>480.4</ele><time>2026-03-29T11:19:07.79Z</time></trkpt><trkpt lat="43.5042755" lon="11.4695646"><ele>478.6</ele><time>2026-03-29T11:19:08.772Z</time></trkpt><trkpt lat="43.504187" lon="11.4694647"><ele>476.8</ele><time>2026-03-29T11:19:09.767Z</time></trkpt><trkpt lat="43.5040874" lon="11.4693692"><ele>475.0</ele><time>2026-03-29T11:19:10.784Z</time></trkpt><trkpt lat="43.5039824" lon="11.4693"><ele>475.0</ele><time>2026-03-29T11:19:11.785Z</time></trkpt><trkpt lat="43.5038665" lon="11.4692529"><ele>475.0</ele><time>2026-03-29T11:19:12.792Z</time></trkpt><trkpt lat="43.5037473" lon="11.4692194"><ele>475.0</ele><time>2026-03-29T11:19:13.782Z</time></trkpt><trkpt lat="43.5036259" lon="11.4692181"><ele>475.0</ele><time>2026-03-29T11:19:14.777Z</time></trkpt><trkpt lat="43.5034662" lon="11.4692854"><ele>477.25</ele><time>2026-03-29T11:19:15.777Z</time></trkpt><trkpt lat="43.503357" lon="11.4693926"><ele>479.5</ele><time>2026-03-29T11:19:16.766Z</time></trkpt><trkpt lat="43.5032294" lon="11.4694987"><ele>481.75</ele><time>2026-03-29T11:19:17.813Z</time></trkpt><trkpt lat="43.5031145" lon="11.4695917"><ele>484.0</ele><time>2026-03-29T11:19:18.777Z</time></trkpt><trkpt lat="43.5029987" lon="11.4696682"><ele>484.0</ele><time>2026-03-29T11:19:19.78Z</time></trkpt><trkpt lat="43.5028749" lon="11.4697131"><ele>484.0</ele><time>2026-03-29T11:19:20.78Z</time></trkpt><trkpt lat="43.5027534" lon="11.4697253"><ele>484.0</ele><time>2026-03-29T11:19:21.782Z</time></trkpt><trkpt lat="43.5026234" lon="11.4696686"><ele>484.0</ele><time>2026-03-29T11:19:22.793Z</time></trkpt><trkpt lat="43.5025188" lon="11.4695873"><ele>484.0</ele><time>2026-03-29T11:19:23.77Z</time></trkpt><trkpt lat="43.5023938" lon="11.4694997"><ele>484.0</ele><time>2026-03-29T11:19:24.779Z</time></trkpt><trkpt lat="43.5022665" lon="11.4694086"><ele>484.0</ele><time>2026-03-29T11:19:25.776Z</time></trkpt><trkpt lat="43.5021467" lon="11.4693019"><ele>484.0</ele><time>2026-03-29T11:19:26.771Z</time></trkpt><trkpt lat="43.5020399" lon="11.46916"><ele>486.25</ele><time>2026-03-29T11:19:27.787Z</time></trkpt><trkpt lat="43.5019346" lon="11.4690109"><ele>488.5</ele><time>2026-03-29T11:19:28.782Z</time></trkpt><trkpt lat="43.5018516" lon="11.4688463"><ele>490.75</ele><time>2026-03-29T11:19:29.78Z</time></trkpt><trkpt lat="43.5017642" lon="11.4686934"><ele>493.0</ele><time>2026-03-29T11:19:30.773Z</time></trkpt><trkpt lat="43.5016656" lon="11.4685452"><ele>493.0</ele><time>2026-03-29T11:19:31.8Z</time></trkpt><trkpt lat="43.5015543" lon="11.4684279"><ele>493.0</ele><time>2026-03-29T11:19:32.769Z</time></trkpt><trkpt lat="43.5014358" lon="11.4683263"><ele>493.0</ele><time>2026-03-29T11:19:33.78Z</time></trkpt><trkpt lat="43.5013072" lon="11.468233"><ele>493.0</ele><time>2026-03-29T11:19:34.777Z</time></trkpt><trkpt lat="43.5011715" lon="11.4681328"><ele>493.25</ele><time>2026-03-29T11:19:35.805Z</time></trkpt><trkpt lat="43.5010417" lon="11.468044"><ele>493.5</ele><time>2026-03-29T11:19:36.782Z</time></trkpt><trkpt lat="43.5009063" lon="11.4679659"><ele>493.75</ele><time>2026-03-29T11:19:37.775Z</time></trkpt><trkpt lat="43.5007613" lon="11.4679069"><ele>494.0</ele><time>2026-03-29T11:19:38.798Z</time></trkpt><trkpt lat="43.5006255" lon="11.4678588"><ele>494.0</ele><time>2026-03-29T11:19:39.786Z</time></trkpt><trkpt lat="43.5004927" lon="11.4678191"><ele>494.0</ele><time>2026-03-29T11:19:40.781Z</time></trkpt><trkpt lat="43.500354" lon="11.4677502"><ele>494.0</ele><time>2026-03-29T11:19:41.767Z</time></trkpt><trkpt lat="43.5002123" lon="11.4676547"><ele>494.0</ele><time>2026-03-29T11:19:42.789Z</time></trkpt><trkpt lat="43.5001003" lon="11.4674518"><ele>495.66666666666663</ele><time>2026-03-29T11:19:43.779Z</time></trkpt><trkpt lat="43.4999572" lon="11.4672558"><ele>497.33333333333337</ele><time>2026-03-29T11:19:44.774Z</time></trkpt><trkpt lat="43.4998079" lon="11.4670555"><ele>499.0</ele><time>2026-03-29T11:19:45.776Z</time></trkpt><trkpt lat="43.4996704" lon="11.466888"><ele>504.33333333333337</ele><time>2026-03-29T11:19:46.784Z</time></trkpt><trkpt lat="43.4995407" lon="11.4667247"><ele>509.66666666666663</ele><time>2026-03-29T11:19:47.788Z</time></trkpt><trkpt lat="43.4994221" lon="11.4665697"><ele>515.0</ele><time>2026-03-29T11:19:48.769Z</time></trkpt><trkpt lat="43.4992981" lon="11.4664254"><ele>515.0</ele><time>2026-03-29T11:19:49.776Z</time></trkpt><trkpt lat="43.499171" lon="11.4663001"><ele>515.0</ele><time>2026-03-29T11:19:50.78Z</time></trkpt><trkpt lat="43.4990268" lon="11.4661958"><ele>515.0</ele><time>2026-03-29T11:19:51.793Z</time></trkpt><trkpt lat="43.4988949" lon="11.4661049"><ele>514.75</ele><time>2026-03-29T11:19:52.802Z</time></trkpt><trkpt lat="43.4987635" lon="11.4660264"><ele>514.5</ele><time>2026-03-29T11:19:53.772Z</time></trkpt><trkpt lat="43.4986232" lon="11.4659924"><ele>514.25</ele><time>2026-03-29T11:19:54.78Z</time></trkpt><trkpt lat="43.4984726" lon="11.4659823"><ele>514.0</ele><time>2026-03-29T11:19:55.79Z</time></trkpt><trkpt lat="43.4983262" lon="11.4659768"><ele>516.5</ele><time>2026-03-29T11:19:56.787Z</time></trkpt><trkpt lat="43.4981825" lon="11.4659802"><ele>519.0</ele><time>2026-03-29T11:19:57.784Z</time></trkpt><trkpt lat="43.4980583" lon="11.4659178"><ele>521.5</ele><time>2026-03-29T11:19:58.789Z</time></trkpt><trkpt lat="43.4979519" lon="11.4658109"><ele>524.0</ele><time>2026-03-29T11:19:59.797Z</time></trkpt><trkpt lat="43.4978367" lon="11.4657047"><ele>524.0</ele><time>2026-03-29T11:20:00.791Z</time></trkpt><trkpt lat="43.4977251" lon="11.4656268"><ele>524.0</ele><time>2026-03-29T11:20:01.781Z</time></trkpt><trkpt lat="43.4975926" lon="11.4656381"><ele>524.0</ele><time>2026-03-29T11:20:02.792Z</time></trkpt><trkpt lat="43.4974685" lon="11.4656396"><ele>524.0</ele><time>2026-03-29T11:20:03.731Z</time></trkpt><trkpt lat="43.4973334" lon="11.4656227"><ele>524.0</ele><time>2026-03-29T11:20:04.727Z</time></trkpt><trkpt lat="43.4971853" lon="11.4655689"><ele>524.0</ele><time>2026-03-29T11:20:05.757Z</time></trkpt><trkpt lat="43.497044" lon="11.465456"><ele>524.0</ele><time>2026-03-29T11:20:06.767Z</time></trkpt><trkpt lat="43.4968608" lon="11.4653488"><ele>528.3333333333333</ele><time>2026-03-29T11:20:08.081Z</time></trkpt><trkpt lat="43.4966547" lon="11.4651117"><ele>532.6666666666666</ele><time>2026-03-29T11:20:09.786Z</time></trkpt><trkpt lat="43.4965352" lon="11.4649745"><ele>537.0</ele><time>2026-03-29T11:20:10.791Z</time></trkpt><trkpt lat="43.4964224" lon="11.4648261"><ele>537.0</ele><time>2026-03-29T11:20:11.783Z</time></trkpt><trkpt lat="43.4962984" lon="11.4647573"><ele>537.0</ele><time>2026-03-29T11:20:12.774Z</time></trkpt><trkpt lat="43.4961896" lon="11.4646777"><ele>537.0</ele><time>2026-03-29T11:20:13.778Z</time></trkpt><trkpt lat="43.4960691" lon="11.4645683"><ele>537.0</ele><time>2026-03-29T11:20:14.78Z</time></trkpt><trkpt lat="43.4959308" lon="11.4644216"><ele>538.3333333333334</ele><time>2026-03-29T11:20:15.777Z</time></trkpt><trkpt lat="43.4958012" lon="11.4642179"><ele>539.6666666666667</ele><time>2026-03-29T11:20:16.788Z</time></trkpt><trkpt lat="43.4956512" lon="11.4640599"><ele>541.0</ele><time>2026-03-29T11:20:17.781Z</time></trkpt><trkpt lat="43.4954913" lon="11.4639019"><ele>541.3333333333334</ele><time>2026-03-29T11:20:18.79Z</time></trkpt><trkpt lat="43.4953484" lon="11.4637516"><ele>541.6666666666666</ele><time>2026-03-29T11:20:19.776Z</time></trkpt><trkpt lat="43.4952047" lon="11.4636021"><ele>542.0</ele><time>2026-03-29T11:20:20.798Z</time></trkpt><trkpt lat="43.4950681" lon="11.4634705"><ele>542.0</ele><time>2026-03-29T11:20:21.792Z</time></trkpt><trkpt lat="43.4949336" lon="11.4633546"><ele>542.0</ele><time>2026-03-29T11:20:22.795Z</time></trkpt><trkpt lat="43.4948052" lon="11.4632422"><ele>542.0</ele><time>2026-03-29T11:20:23.787Z</time></trkpt><trkpt lat="43.4946741" lon="11.4631277"><ele>544.3333333333333</ele><time>2026-03-29T11:20:24.798Z</time></trkpt><trkpt lat="43.494533" lon="11.4629914"><ele>546.6666666666666</ele><time>2026-03-29T11:20:25.786Z</time></trkpt><trkpt lat="43.4944059" lon="11.4628238"><ele>549.0</ele><time>2026-03-29T11:20:26.781Z</time></trkpt><trkpt lat="43.4943202" lon="11.4626195"><ele>549.0</ele><time>2026-03-29T11:20:27.783Z</time></trkpt><trkpt lat="43.4942182" lon="11.4624231"><ele>549.0</ele><time>2026-03-29T11:20:28.787Z</time></trkpt><trkpt lat="43.4941045" lon="11.462243"><ele>549.0</ele><time>2026-03-29T11:20:29.786Z</time></trkpt><trkpt lat="43.4939734" lon="11.4620709"><ele>550.3333333333334</ele><time>2026-03-29T11:20:30.786Z</time></trkpt><trkpt lat="43.4938212" lon="11.4619322"><ele>551.6666666666667</ele><time>2026-03-29T11:20:31.779Z</time></trkpt><trkpt lat="43.4936626" lon="11.4618098"><ele>553.0</ele><time>2026-03-29T11:20:32.81Z</time></trkpt><trkpt lat="43.4935108" lon="11.4616969"><ele>553.0</ele><time>2026-03-29T11:20:33.792Z</time></trkpt><trkpt lat="43.4933667" lon="11.4615844"><ele>553.0</ele><time>2026-03-29T11:20:34.782Z</time></trkpt><trkpt lat="43.493217" lon="11.4614637"><ele>553.0</ele><time>2026-03-29T11:20:35.783Z</time></trkpt><trkpt lat="43.4930872" lon="11.4613225"><ele>553.0</ele><time>2026-03-29T11:20:36.783Z</time></trkpt><trkpt lat="43.4929817" lon="11.4611784"><ele>553.0</ele><time>2026-03-29T11:20:37.792Z</time></trkpt><trkpt lat="43.4928608" lon="11.4610727"><ele>553.0</ele><time>2026-03-29T11:20:38.787Z</time></trkpt><trkpt lat="43.4927344" lon="11.4609957"><ele>553.0</ele><time>2026-03-29T11:20:39.781Z</time></trkpt><trkpt lat="43.4926044" lon="11.4609372"><ele>553.0</ele><time>2026-03-29T11:20:40.788Z</time></trkpt><trkpt lat="43.4924765" lon="11.4608711"><ele>553.0</ele><time>2026-03-29T11:20:41.777Z</time></trkpt><trkpt lat="43.4923569" lon="11.4607924"><ele>553.0</ele><time>2026-03-29T11:20:42.799Z</time></trkpt><trkpt lat="43.4922616" lon="11.4606911"><ele>553.0</ele><time>2026-03-29T11:20:43.782Z</time></trkpt><trkpt lat="43.4921528" lon="11.4605609"><ele>555.3333333333334</ele><time>2026-03-29T11:20:44.79Z</time></trkpt><trkpt lat="43.4920676" lon="11.4604007"><ele>557.6666666666666</ele><time>2026-03-29T11:20:45.783Z</time></trkpt><trkpt lat="43.4919878" lon="11.4602054"><ele>560.0</ele><time>2026-03-29T11:20:46.783Z</time></trkpt><trkpt lat="43.4918988" lon="11.4600236"><ele>560.0</ele><time>2026-03-29T11:20:47.794Z</time></trkpt><trkpt lat="43.4917975" lon="11.4598627"><ele>560.0</ele><time>2026-03-29T11:20:48.785Z</time></trkpt><trkpt lat="43.4916916" lon="11.4597022"><ele>560.0</ele><time>2026-03-29T11:20:49.811Z</time></trkpt><trkpt lat="43.4915974" lon="11.4595579"><ele>556.6666666666666</ele><time>2026-03-29T11:20:50.779Z</time></trkpt><trkpt lat="43.4914995" lon="11.4594243"><ele>553.3333333333334</ele><time>2026-03-29T11:20:51.791Z</time></trkpt><trkpt lat="43.4913465" lon="11.45933"><ele>550.0</ele><time>2026-03-29T11:20:52.777Z</time></trkpt><trkpt lat="43.4911804" lon="11.4592647"><ele>550.0</ele><time>2026-03-29T11:20:53.786Z</time></trkpt><trkpt lat="43.4910262" lon="11.4592096"><ele>550.0</ele><time>2026-03-29T11:20:54.786Z</time></trkpt><trkpt lat="43.4908777" lon="11.4591627"><ele>550.0</ele><time>2026-03-29T11:20:55.776Z</time></trkpt><trkpt lat="43.490727" lon="11.4591294"><ele>550.0</ele><time>2026-03-29T11:20:56.802Z</time></trkpt><trkpt lat="43.4905795" lon="11.4591155"><ele>550.0</ele><time>2026-03-29T11:20:57.779Z</time></trkpt><trkpt lat="43.4904117" lon="11.4591392"><ele>550.0</ele><time>2026-03-29T11:20:58.793Z</time></trkpt><trkpt lat="43.4902421" lon="11.4592013"><ele>549.5</ele><time>2026-03-29T11:20:59.789Z</time></trkpt><trkpt lat="43.4901329" lon="11.4592923"><ele>549.0</ele><time>2026-03-29T11:21:00.775Z</time></trkpt><trkpt lat="43.4899698" lon="11.4593561"><ele>548.5</ele><time>2026-03-29T11:21:01.784Z</time></trkpt><trkpt lat="43.4898282" lon="11.4592932"><ele>548.0</ele><time>2026-03-29T11:21:02.786Z</time></trkpt><trkpt lat="43.4896268" lon="11.4592548"><ele>548.6666666666666</ele><time>2026-03-29T11:21:03.781Z</time></trkpt><trkpt lat="43.4894109" lon="11.4591905"><ele>549.3333333333334</ele><time>2026-03-29T11:21:04.778Z</time></trkpt><trkpt lat="43.4892129" lon="11.4591428"><ele>550.0</ele><time>2026-03-29T11:21:05.795Z</time></trkpt><trkpt lat="43.4890115" lon="11.4591408"><ele>550.0</ele><time>2026-03-29T11:21:06.783Z</time></trkpt><trkpt lat="43.4888192" lon="11.4591448"><ele>550.0</ele><time>2026-03-29T11:21:07.812Z</time></trkpt><trkpt lat="43.4886429" lon="11.4591262"><ele>550.0</ele><time>2026-03-29T11:21:08.78Z</time></trkpt><trkpt lat="43.4884885" lon="11.4591267"><ele>549.75</ele><time>2026-03-29T11:21:09.792Z</time></trkpt><trkpt lat="43.4883364" lon="11.4591322"><ele>549.5</ele><time>2026-03-29T11:21:10.783Z</time></trkpt><trkpt lat="43.4881703" lon="11.4591349"><ele>549.25</ele><time>2026-03-29T11:21:11.781Z</time></trkpt><trkpt lat="43.4880763" lon="11.4592017"><ele>549.0</ele><time>2026-03-29T11:21:12.775Z</time></trkpt><trkpt lat="43.4880048" lon="11.4592649"><ele>549.0</ele><time>2026-03-29T11:21:13.793Z</time></trkpt><trkpt lat="43.4879379" lon="11.4592957"><ele>549.0</ele><time>2026-03-29T11:21:14.798Z</time></trkpt><trkpt lat="43.4878647" lon="11.4592768"><ele>549.0</ele><time>2026-03-29T11:21:15.785Z</time></trkpt><trkpt lat="43.4877568" lon="11.4591877"><ele>549.0</ele><time>2026-03-29T11:21:16.78Z</time></trkpt><trkpt lat="43.4876925" lon="11.4590747"><ele>549.0</ele><time>2026-03-29T11:21:17.775Z</time></trkpt><trkpt lat="43.4876088" lon="11.4588887"><ele>550.6666666666666</ele><time>2026-03-29T11:21:18.78Z</time></trkpt><trkpt lat="43.4875129" lon="11.4586579"><ele>552.3333333333333</ele><time>2026-03-29T11:21:19.808Z</time></trkpt><trkpt lat="43.4874059" lon="11.4583771"><ele>554.0</ele><time>2026-03-29T11:21:20.807Z</time></trkpt><trkpt lat="43.4873093" lon="11.458233"><ele>554.0</ele><time>2026-03-29T11:21:21.788Z</time></trkpt><trkpt lat="43.487246" lon="11.4580849"><ele>554.0</ele><time>2026-03-29T11:21:22.788Z</time></trkpt><trkpt lat="43.4871815" lon="11.4579468"><ele>554.0</ele><time>2026-03-29T11:21:23.782Z</time></trkpt><trkpt lat="43.4870968" lon="11.4578241"><ele>554.0</ele><time>2026-03-29T11:21:24.771Z</time></trkpt><trkpt lat="43.4869872" lon="11.4577366"><ele>555.4</ele><time>2026-03-29T11:21:25.788Z</time></trkpt><trkpt lat="43.4868934" lon="11.4576183"><ele>556.8</ele><time>2026-03-29T11:21:26.798Z</time></trkpt><trkpt lat="43.4868094" lon="11.4575244"><ele>558.2</ele><time>2026-03-29T11:21:27.792Z</time></trkpt><trkpt lat="43.4867604" lon="11.457438"><ele>559.6</ele><time>2026-03-29T11:21:28.778Z</time></trkpt><trkpt lat="43.486735" lon="11.4573384"><ele>561.0</ele><time>2026-03-29T11:21:29.778Z</time></trkpt><trkpt lat="43.4868175" lon="11.4572053"><ele>559.6666666666666</ele><time>2026-03-29T11:21:30.767Z</time></trkpt><trkpt lat="43.4869805" lon="11.4570852"><ele>558.3333333333333</ele><time>2026-03-29T11:21:31.77Z</time></trkpt><trkpt lat="43.4871106" lon="11.4570742"><ele>557.0</ele><time>2026-03-29T11:21:32.775Z</time></trkpt><trkpt lat="43.4872804" lon="11.4571866"><ele>557.0</ele><time>2026-03-29T11:21:33.774Z</time></trkpt><trkpt lat="43.487455" lon="11.4573085"><ele>557.0</ele><time>2026-03-29T11:21:34.779Z</time></trkpt><trkpt lat="43.4876203" lon="11.4574462"><ele>557.0</ele><time>2026-03-29T11:21:35.787Z</time></trkpt><trkpt lat="43.4877927" lon="11.4575753"><ele>558.6666666666666</ele><time>2026-03-29T11:21:36.778Z</time></trkpt><trkpt lat="43.4879513" lon="11.4576753"><ele>560.3333333333334</ele><time>2026-03-29T11:21:37.788Z</time></trkpt><trkpt lat="43.4881031" lon="11.4577709"><ele>562.0</ele><time>2026-03-29T11:21:38.772Z</time></trkpt><trkpt lat="43.4882438" lon="11.4578243"><ele>562.0</ele><time>2026-03-29T11:21:39.782Z</time></trkpt><trkpt lat="43.4883604" lon="11.4578089"><ele>562.0</ele><time>2026-03-29T11:21:40.782Z</time></trkpt><trkpt lat="43.4884783" lon="11.4577972"><ele>562.0</ele><time>2026-03-29T11:21:41.777Z</time></trkpt><trkpt lat="43.4885811" lon="11.4576849"><ele>562.0</ele><time>2026-03-29T11:21:42.785Z</time></trkpt><trkpt lat="43.4886553" lon="11.4575918"><ele>562.0</ele><time>2026-03-29T11:21:43.799Z</time></trkpt><trkpt lat="43.4886908" lon="11.4574943"><ele>562.0</ele><time>2026-03-29T11:21:44.776Z</time></trkpt><trkpt lat="43.4887445" lon="11.4573853"><ele>562.0</ele><time>2026-03-29T11:21:45.775Z</time></trkpt><trkpt lat="43.4887797" lon="11.457235"><ele>562.0</ele><time>2026-03-29T11:21:46.786Z</time></trkpt><trkpt lat="43.4887765" lon="11.4569775"><ele>566.3333333333334</ele><time>2026-03-29T11:21:47.782Z</time></trkpt><trkpt lat="43.4887307" lon="11.4566783"><ele>570.6666666666666</ele><time>2026-03-29T11:21:48.766Z</time></trkpt><trkpt lat="43.4886954" lon="11.4564008"><ele>575.0</ele><time>2026-03-29T11:21:49.797Z</time></trkpt><trkpt lat="43.488702" lon="11.4561931"><ele>576.5</ele><time>2026-03-29T11:21:50.796Z</time></trkpt><trkpt lat="43.4887033" lon="11.4560242"><ele>578.0</ele><time>2026-03-29T11:21:51.809Z</time></trkpt><trkpt lat="43.4887341" lon="11.4559103"><ele>579.5</ele><time>2026-03-29T11:21:52.78Z</time></trkpt><trkpt lat="43.4887894" lon="11.4558343"><ele>581.0</ele><time>2026-03-29T11:21:53.798Z</time></trkpt><trkpt lat="43.4889461" lon="11.4559075"><ele>581.0</ele><time>2026-03-29T11:21:55.778Z</time></trkpt><trkpt lat="43.4890008" lon="11.4560298"><ele>581.0</ele><time>2026-03-29T11:21:56.774Z</time></trkpt><trkpt lat="43.489044" lon="11.4561902"><ele>581.0</ele><time>2026-03-29T11:21:57.796Z</time></trkpt><trkpt lat="43.4891104" lon="11.4563542"><ele>581.0</ele><time>2026-03-29T11:21:58.792Z</time></trkpt><trkpt lat="43.4891966" lon="11.4564796"><ele>577.3333333333333</ele><time>2026-03-29T11:21:59.786Z</time></trkpt><trkpt lat="43.4893164" lon="11.4565744"><ele>573.6666666666666</ele><time>2026-03-29T11:22:00.787Z</time></trkpt><trkpt lat="43.4894886" lon="11.4565661"><ele>570.0</ele><time>2026-03-29T11:22:01.771Z</time></trkpt><trkpt lat="43.4896344" lon="11.4566041"><ele>570.0</ele><time>2026-03-29T11:22:02.784Z</time></trkpt><trkpt lat="43.4897515" lon="11.4566368"><ele>570.0</ele><time>2026-03-29T11:22:03.789Z</time></trkpt><trkpt lat="43.489846" lon="11.4566647"><ele>570.0</ele><time>2026-03-29T11:22:04.77Z</time></trkpt><trkpt lat="43.4900025" lon="11.45663"><ele>570.0</ele><time>2026-03-29T11:22:05.782Z</time></trkpt><trkpt lat="43.4901526" lon="11.4565304"><ele>570.0</ele><time>2026-03-29T11:22:06.776Z</time></trkpt><trkpt lat="43.4902383" lon="11.4563713"><ele>570.0</ele><time>2026-03-29T11:22:07.791Z</time></trkpt><trkpt lat="43.4903152" lon="11.4561725"><ele>570.0</ele><time>2026-03-29T11:22:08.769Z</time></trkpt><trkpt lat="43.49037" lon="11.4559522"><ele>568.3333333333334</ele><time>2026-03-29T11:22:09.782Z</time></trkpt><trkpt lat="43.4904167" lon="11.4557605"><ele>566.6666666666667</ele><time>2026-03-29T11:22:10.77Z</time></trkpt><trkpt lat="43.4904292" lon="11.4555486"><ele>565.0</ele><time>2026-03-29T11:22:11.785Z</time></trkpt><trkpt lat="43.4904278" lon="11.4553296"><ele>574.6666666666667</ele><time>2026-03-29T11:22:12.783Z</time></trkpt><trkpt lat="43.4903935" lon="11.4551196"><ele>584.3333333333334</ele><time>2026-03-29T11:22:13.78Z</time></trkpt><trkpt lat="43.4903294" lon="11.454895"><ele>594.0</ele><time>2026-03-29T11:22:14.783Z</time></trkpt><trkpt lat="43.4902491" lon="11.4546656"><ele>596.3333333333334</ele><time>2026-03-29T11:22:15.782Z</time></trkpt><trkpt lat="43.4901614" lon="11.4544594"><ele>598.6666666666667</ele><time>2026-03-29T11:22:16.792Z</time></trkpt><trkpt lat="43.4900829" lon="11.4542498"><ele>601.0</ele><time>2026-03-29T11:22:17.802Z</time></trkpt><trkpt lat="43.4900414" lon="11.4540566"><ele>601.0</ele><time>2026-03-29T11:22:18.809Z</time></trkpt><trkpt lat="43.4900311" lon="11.4538768"><ele>601.0</ele><time>2026-03-29T11:22:19.792Z</time></trkpt><trkpt lat="43.4901263" lon="11.4537227"><ele>601.0</ele><time>2026-03-29T11:22:20.766Z</time></trkpt><trkpt lat="43.4902041" lon="11.4535645"><ele>601.0</ele><time>2026-03-29T11:22:21.798Z</time></trkpt><trkpt lat="43.4902638" lon="11.4534186"><ele>601.0</ele><time>2026-03-29T11:22:22.778Z</time></trkpt><trkpt lat="43.4902927" lon="11.4532431"><ele>601.0</ele><time>2026-03-29T11:22:23.785Z</time></trkpt><trkpt lat="43.4902416" lon="11.4531204"><ele>601.0</ele><time>2026-03-29T11:22:24.782Z</time></trkpt><trkpt lat="43.4901954" lon="11.4529783"><ele>601.0</ele><time>2026-03-29T11:22:25.777Z</time></trkpt><trkpt lat="43.4901394" lon="11.4528248"><ele>599.3333333333334</ele><time>2026-03-29T11:22:26.79Z</time></trkpt><trkpt lat="43.4900175" lon="11.4526288"><ele>597.6666666666666</ele><time>2026-03-29T11:22:27.779Z</time></trkpt><trkpt lat="43.4898899" lon="11.4524488"><ele>596.0</ele><time>2026-03-29T11:22:28.78Z</time></trkpt><trkpt lat="43.4897968" lon="11.4522361"><ele>593.6666666666666</ele><time>2026-03-29T11:22:29.795Z</time></trkpt><trkpt lat="43.489762" lon="11.452014"><ele>591.3333333333334</ele><time>2026-03-29T11:22:30.772Z</time></trkpt><trkpt lat="43.4897114" lon="11.4517981"><ele>589.0</ele><time>2026-03-29T11:22:31.789Z</time></trkpt><trkpt lat="43.4896549" lon="11.4516004"><ele>589.0</ele><time>2026-03-29T11:22:32.785Z</time></trkpt><trkpt lat="43.4896053" lon="11.4514159"><ele>589.0</ele><time>2026-03-29T11:22:33.782Z</time></trkpt><trkpt lat="43.4895611" lon="11.4512585"><ele>589.0</ele><time>2026-03-29T11:22:34.779Z</time></trkpt><trkpt lat="43.4895336" lon="11.451135"><ele>589.0</ele><time>2026-03-29T11:22:35.78Z</time></trkpt><trkpt lat="43.4895124" lon="11.4510273"><ele>589.0</ele><time>2026-03-29T11:22:36.79Z</time></trkpt><trkpt lat="43.4894964" lon="11.4509399"><ele>589.6666666666667</ele><time>2026-03-29T11:22:37.786Z</time></trkpt><trkpt lat="43.4894741" lon="11.4508082"><ele>590.3333333333334</ele><time>2026-03-29T11:22:39.784Z</time></trkpt><trkpt lat="43.4894656" lon="11.4507146"><ele>591.0</ele><time>2026-03-29T11:22:42.79Z</time></trkpt><trkpt lat="43.4894904" lon="11.4506067"><ele>591.6666666666666</ele><time>2026-03-29T11:22:46.768Z</time></trkpt><trkpt lat="43.489532" lon="11.4505297"><ele>592.3333333333333</ele><time>2026-03-29T11:22:49.775Z</time></trkpt><trkpt lat="43.4895978" lon="11.4504737"><ele>593.0</ele><time>2026-03-29T11:22:52.783Z</time></trkpt><trkpt lat="43.4896829" lon="11.4504317"><ele>592.9999999999999</ele><time>2026-03-29T11:22:55.783Z</time></trkpt><trkpt lat="43.4897559" lon="11.4504466"><ele>593.0</ele><time>2026-03-29T11:22:58.769Z</time></trkpt><trkpt lat="43.4898171" lon="11.4504833"><ele>593.0</ele><time>2026-03-29T11:23:01.783Z</time></trkpt><trkpt lat="43.4897538" lon="11.4505377"><ele>593.0</ele><time>2026-03-29T11:23:06.802Z</time></trkpt><trkpt lat="43.4897166" lon="11.4504669"><ele>593.0</ele><time>2026-03-29T11:26:32.75Z</time></trkpt><trkpt lat="43.4897811" lon="11.4503944"><ele>592.9999999999999</ele><time>2026-03-29T11:26:35.738Z</time></trkpt><trkpt lat="43.4898513" lon="11.4503673"><ele>593.0</ele><time>2026-03-29T11:26:39.79Z</time></trkpt><trkpt lat="43.4899133" lon="11.4503443"><ele>600.0</ele><time>2026-03-29T11:26:40.774Z</time></trkpt><trkpt lat="43.4905493" lon="11.4505038"><ele>600.0</ele><time>2026-03-29T11:26:42.767Z</time></trkpt><trkpt lat="43.4906689" lon="11.4505007"><ele>600.0</ele><time>2026-03-29T11:26:43.773Z</time></trkpt><trkpt lat="43.4907761" lon="11.4504729"><ele>600.0</ele><time>2026-03-29T11:26:44.771Z</time></trkpt><trkpt lat="43.4908781" lon="11.4504297"><ele>600.0</ele><time>2026-03-29T11:26:45.76Z</time></trkpt><trkpt lat="43.4909662" lon="11.4503655"><ele>600.0</ele><time>2026-03-29T11:26:46.769Z</time></trkpt><trkpt lat="43.4909992" lon="11.4502669"><ele>604.5</ele><time>2026-03-29T11:26:47.778Z</time></trkpt><trkpt lat="43.491008" lon="11.450164"><ele>609.0</ele><time>2026-03-29T11:26:48.775Z</time></trkpt><trkpt lat="43.4910434" lon="11.4500605"><ele>613.5</ele><time>2026-03-29T11:26:50.089Z</time></trkpt><trkpt lat="43.4908946" lon="11.4500836"><ele>618.0</ele><time>2026-03-29T11:26:51.803Z</time></trkpt><trkpt lat="43.4907354" lon="11.4500146"><ele>618.0</ele><time>2026-03-29T11:26:53.791Z</time></trkpt><trkpt lat="43.4906015" lon="11.4499285"><ele>618.0</ele><time>2026-03-29T11:26:54.787Z</time></trkpt><trkpt lat="43.4904747" lon="11.4498475"><ele>618.0</ele><time>2026-03-29T11:26:55.786Z</time></trkpt><trkpt lat="43.4903692" lon="11.449738"><ele>618.0</ele><time>2026-03-29T11:26:56.778Z</time></trkpt><trkpt lat="43.4902799" lon="11.449623"><ele>618.25</ele><time>2026-03-29T11:26:57.788Z</time></trkpt><trkpt lat="43.4902174" lon="11.4494646"><ele>618.5</ele><time>2026-03-29T11:26:58.79Z</time></trkpt><trkpt lat="43.4901838" lon="11.449304"><ele>618.75</ele><time>2026-03-29T11:26:59.807Z</time></trkpt><trkpt lat="43.4901833" lon="11.4491335"><ele>619.0</ele><time>2026-03-29T11:27:00.789Z</time></trkpt><trkpt lat="43.4901967" lon="11.448942"><ele>619.0</ele><time>2026-03-29T11:27:01.782Z</time></trkpt><trkpt lat="43.4901687" lon="11.448796"><ele>619.0</ele><time>2026-03-29T11:27:02.789Z</time></trkpt><trkpt lat="43.4901332" lon="11.4486132"><ele>619.0</ele><time>2026-03-29T11:27:03.788Z</time></trkpt><trkpt lat="43.4898162" lon="11.4484771"><ele>622.0</ele><time>2026-03-29T11:27:04.798Z</time></trkpt><trkpt lat="43.4897987" lon="11.4483114"><ele>625.0</ele><time>2026-03-29T11:27:05.783Z</time></trkpt><trkpt lat="43.4897598" lon="11.4481738"><ele>628.0</ele><time>2026-03-29T11:27:06.754Z</time></trkpt><trkpt lat="43.4896801" lon="11.4480476"><ele>631.0</ele><time>2026-03-29T11:27:07.795Z</time></trkpt><trkpt lat="43.4896092" lon="11.4478545"><ele>633.3333333333334</ele><time>2026-03-29T11:27:09.125Z</time></trkpt><trkpt lat="43.4893632" lon="11.447654"><ele>635.6666666666666</ele><time>2026-03-29T11:27:10.802Z</time></trkpt><trkpt lat="43.4892126" lon="11.4476482"><ele>638.0</ele><time>2026-03-29T11:27:11.79Z</time></trkpt><trkpt lat="43.489054" lon="11.4476291"><ele>638.0</ele><time>2026-03-29T11:27:12.781Z</time></trkpt><trkpt lat="43.488836" lon="11.4476199"><ele>638.0</ele><time>2026-03-29T11:27:13.806Z</time></trkpt><trkpt lat="43.4886539" lon="11.4475431"><ele>638.0</ele><time>2026-03-29T11:27:14.804Z</time></trkpt><trkpt lat="43.4884171" lon="11.4475213"><ele>627.0</ele><time>2026-03-29T11:27:15.785Z</time></trkpt><trkpt lat="43.4881633" lon="11.4475304"><ele>616.0</ele><time>2026-03-29T11:27:16.78Z</time></trkpt><trkpt lat="43.4878764" lon="11.4475401"><ele>601.5</ele><time>2026-03-29T11:27:17.8Z</time></trkpt><trkpt lat="43.4877167" lon="11.4472317"><ele>587.0</ele><time>2026-03-29T11:27:18.779Z</time></trkpt><trkpt lat="43.4882059" lon="11.4462933"><ele>602.25</ele><time>2026-03-29T11:27:19.784Z</time></trkpt><trkpt lat="43.4881377" lon="11.4461123"><ele>617.5</ele><time>2026-03-29T11:27:20.788Z</time></trkpt><trkpt lat="43.4880775" lon="11.4459676"><ele>632.75</ele><time>2026-03-29T11:27:21.777Z</time></trkpt><trkpt lat="43.4880105" lon="11.4458189"><ele>648.0</ele><time>2026-03-29T11:27:22.785Z</time></trkpt><trkpt lat="43.4879383" lon="11.4456509"><ele>642.5</ele><time>2026-03-29T11:27:23.783Z</time></trkpt><trkpt lat="43.4878826" lon="11.4454556"><ele>637.0</ele><time>2026-03-29T11:27:24.805Z</time></trkpt><trkpt lat="43.4878641" lon="11.445255"><ele>631.5</ele><time>2026-03-29T11:27:25.798Z</time></trkpt><trkpt lat="43.4878718" lon="11.4450485"><ele>626.0</ele><time>2026-03-29T11:27:26.782Z</time></trkpt><trkpt lat="43.4878935" lon="11.4448301"><ele>630.5</ele><time>2026-03-29T11:27:27.803Z</time></trkpt><trkpt lat="43.487938" lon="11.4446268"><ele>635.0</ele><time>2026-03-29T11:27:28.787Z</time></trkpt><trkpt lat="43.4880059" lon="11.4444471"><ele>639.5</ele><time>2026-03-29T11:27:29.813Z</time></trkpt><trkpt lat="43.4880774" lon="11.4443339"><ele>644.0</ele><time>2026-03-29T11:27:30.787Z</time></trkpt><trkpt lat="43.4881911" lon="11.4442498"><ele>644.0</ele><time>2026-03-29T11:27:31.812Z</time></trkpt><trkpt lat="43.4883259" lon="11.4442088"><ele>644.0</ele><time>2026-03-29T11:27:32.785Z</time></trkpt><trkpt lat="43.4885076" lon="11.4442177"><ele>644.0</ele><time>2026-03-29T11:27:33.799Z</time></trkpt><trkpt lat="43.4886789" lon="11.4442667"><ele>647.2</ele><time>2026-03-29T11:27:34.799Z</time></trkpt><trkpt lat="43.4887742" lon="11.4443287"><ele>650.4000000000001</ele><time>2026-03-29T11:27:35.814Z</time></trkpt><trkpt lat="43.4888513" lon="11.444397"><ele>653.6</ele><time>2026-03-29T11:27:36.795Z</time></trkpt><trkpt lat="43.4889444" lon="11.4443553"><ele>656.8</ele><time>2026-03-29T11:27:38.793Z</time></trkpt><trkpt lat="43.4890252" lon="11.4442846"><ele>660.0</ele><time>2026-03-29T11:27:39.799Z</time></trkpt><trkpt lat="43.4890865" lon="11.4441992"><ele>660.0</ele><time>2026-03-29T11:27:40.787Z</time></trkpt><trkpt lat="43.4891727" lon="11.4440959"><ele>660.0</ele><time>2026-03-29T11:27:41.745Z</time></trkpt><trkpt lat="43.4892809" lon="11.4439146"><ele>660.0</ele><time>2026-03-29T11:27:42.761Z</time></trkpt><trkpt lat="43.4894607" lon="11.4434171"><ele>660.6666666666666</ele><time>2026-03-29T11:27:43.77Z</time></trkpt><trkpt lat="43.4896137" lon="11.4433193"><ele>661.3333333333333</ele><time>2026-03-29T11:27:44.731Z</time></trkpt><trkpt lat="43.4897542" lon="11.4432367"><ele>662.0</ele><time>2026-03-29T11:27:45.731Z</time></trkpt><trkpt lat="43.4898921" lon="11.4431984"><ele>662.0</ele><time>2026-03-29T11:27:46.725Z</time></trkpt><trkpt lat="43.4900487" lon="11.4431809"><ele>662.0</ele><time>2026-03-29T11:27:47.774Z</time></trkpt><trkpt lat="43.4901774" lon="11.4431633"><ele>662.0</ele><time>2026-03-29T11:27:48.735Z</time></trkpt><trkpt lat="43.4903493" lon="11.4431402"><ele>666.0</ele><time>2026-03-29T11:27:49.764Z</time></trkpt><trkpt lat="43.4905336" lon="11.4431039"><ele>670.0</ele><time>2026-03-29T11:27:50.769Z</time></trkpt><trkpt lat="43.490687" lon="11.4430542"><ele>674.0</ele><time>2026-03-29T11:27:51.751Z</time></trkpt><trkpt lat="43.4908325" lon="11.4430192"><ele>674.0</ele><time>2026-03-29T11:27:52.741Z</time></trkpt><trkpt lat="43.4909927" lon="11.4430335"><ele>674.0</ele><time>2026-03-29T11:27:53.718Z</time></trkpt><trkpt lat="43.4911652" lon="11.4430472"><ele>674.0</ele><time>2026-03-29T11:27:54.791Z</time></trkpt><trkpt lat="43.4912887" lon="11.4430801"><ele>674.25</ele><time>2026-03-29T11:27:55.735Z</time></trkpt><trkpt lat="43.491382" lon="11.443163"><ele>674.5</ele><time>2026-03-29T11:27:56.728Z</time></trkpt><trkpt lat="43.4914878" lon="11.4432603"><ele>674.75</ele><time>2026-03-29T11:27:57.731Z</time></trkpt><trkpt lat="43.4916184" lon="11.4434193"><ele>675.0</ele><time>2026-03-29T11:27:58.761Z</time></trkpt><trkpt lat="43.4917628" lon="11.4436119"><ele>675.0</ele><time>2026-03-29T11:27:59.776Z</time></trkpt><trkpt lat="43.4918818" lon="11.4437879"><ele>675.0</ele><time>2026-03-29T11:28:00.737Z</time></trkpt><trkpt lat="43.491997" lon="11.4439799"><ele>675.0</ele><time>2026-03-29T11:28:01.785Z</time></trkpt><trkpt lat="43.4921643" lon="11.4441016"><ele>682.0</ele><time>2026-03-29T11:28:03.791Z</time></trkpt><trkpt lat="43.4918984" lon="11.4439251"><ele>689.0</ele><time>2026-03-29T11:28:04.767Z</time></trkpt><trkpt lat="43.4920287" lon="11.4439515"><ele>696.0</ele><time>2026-03-29T11:28:06.723Z</time></trkpt><trkpt lat="43.4920926" lon="11.4439223"><ele>696.0</ele><time>2026-03-29T11:28:07.764Z</time></trkpt><trkpt lat="43.4925506" lon="11.4438228"><ele>693.75</ele><time>2026-03-29T11:28:08.76Z</time></trkpt><trkpt lat="43.4926169" lon="11.4437123"><ele>691.5</ele><time>2026-03-29T11:28:09.752Z</time></trkpt><trkpt lat="43.4926885" lon="11.443565"><ele>689.25</ele><time>2026-03-29T11:28:10.768Z</time></trkpt><trkpt lat="43.4927664" lon="11.443345"><ele>687.0</ele><time>2026-03-29T11:28:11.766Z</time></trkpt><trkpt lat="43.4928309" lon="11.4430754"><ele>687.0</ele><time>2026-03-29T11:28:12.793Z</time></trkpt><trkpt lat="43.492909" lon="11.4429737"><ele>687.0</ele><time>2026-03-29T11:28:13.765Z</time></trkpt><trkpt lat="43.4929737" lon="11.4427276"><ele>687.0</ele><time>2026-03-29T11:28:14.739Z</time></trkpt><trkpt lat="43.4930763" lon="11.4424315"><ele>684.0</ele><time>2026-03-29T11:28:15.759Z</time></trkpt><trkpt lat="43.4931863" lon="11.442184"><ele>681.0</ele><time>2026-03-29T11:28:16.72Z</time></trkpt><trkpt lat="43.4933059" lon="11.4419268"><ele>678.0</ele><time>2026-03-29T11:28:17.735Z</time></trkpt><trkpt lat="43.4934373" lon="11.4417655"><ele>678.0</ele><time>2026-03-29T11:28:18.765Z</time></trkpt><trkpt lat="43.4935243" lon="11.441646"><ele>678.0</ele><time>2026-03-29T11:28:19.776Z</time></trkpt><trkpt lat="43.4936132" lon="11.4416472"><ele>678.0</ele><time>2026-03-29T11:28:20.767Z</time></trkpt><trkpt lat="43.4937304" lon="11.4415917"><ele>678.0</ele><time>2026-03-29T11:28:22.769Z</time></trkpt><trkpt lat="43.4938032" lon="11.4415412"><ele>678.0</ele><time>2026-03-29T11:28:24.095Z</time></trkpt><trkpt lat="43.4944922" lon="11.4419765"><ele>681.75</ele><time>2026-03-29T11:28:25.785Z</time></trkpt><trkpt lat="43.4945559" lon="11.4418565"><ele>685.5</ele><time>2026-03-29T11:28:26.794Z</time></trkpt><trkpt lat="43.4945792" lon="11.4417069"><ele>689.25</ele><time>2026-03-29T11:28:27.782Z</time></trkpt><trkpt lat="43.4946027" lon="11.4415237"><ele>693.0</ele><time>2026-03-29T11:28:28.791Z</time></trkpt><trkpt lat="43.4945658" lon="11.4413049"><ele>695.5</ele><time>2026-03-29T11:28:29.787Z</time></trkpt><trkpt lat="43.4945424" lon="11.441107"><ele>698.0</ele><time>2026-03-29T11:28:30.789Z</time></trkpt><trkpt lat="43.4945601" lon="11.4409266"><ele>700.5</ele><time>2026-03-29T11:28:31.827Z</time></trkpt><trkpt lat="43.4946059" lon="11.4407818"><ele>703.0</ele><time>2026-03-29T11:28:32.79Z</time></trkpt><trkpt lat="43.494637" lon="11.4406209"><ele>703.0</ele><time>2026-03-29T11:28:33.797Z</time></trkpt><trkpt lat="43.4946074" lon="11.4404788"><ele>703.0</ele><time>2026-03-29T11:28:34.795Z</time></trkpt><trkpt lat="43.4945908" lon="11.4403106"><ele>703.0</ele><time>2026-03-29T11:28:35.78Z</time></trkpt><trkpt lat="43.4945738" lon="11.4401298"><ele>703.0</ele><time>2026-03-29T11:28:36.797Z</time></trkpt><trkpt lat="43.494569" lon="11.439968"><ele>701.2</ele><time>2026-03-29T11:28:37.785Z</time></trkpt><trkpt lat="43.4945714" lon="11.4398106"><ele>699.4</ele><time>2026-03-29T11:28:38.784Z</time></trkpt><trkpt lat="43.4946003" lon="11.4396681"><ele>697.6</ele><time>2026-03-29T11:28:39.772Z</time></trkpt><trkpt lat="43.4946581" lon="11.4395353"><ele>695.8000000000001</ele><time>2026-03-29T11:28:40.768Z</time></trkpt><trkpt lat="43.4947378" lon="11.4394279"><ele>694.0</ele><time>2026-03-29T11:28:41.772Z</time></trkpt><trkpt lat="43.4948116" lon="11.4392806"><ele>692.5</ele><time>2026-03-29T11:28:43.079Z</time></trkpt><trkpt lat="43.4949037" lon="11.4391738"><ele>691.0</ele><time>2026-03-29T11:28:44.779Z</time></trkpt><trkpt lat="43.4948754" lon="11.4390656"><ele>689.5</ele><time>2026-03-29T11:28:45.783Z</time></trkpt><trkpt lat="43.4947696" lon="11.4388988"><ele>688.0</ele><time>2026-03-29T11:28:46.783Z</time></trkpt><trkpt lat="43.494578" lon="11.4387329"><ele>681.0</ele><time>2026-03-29T11:28:47.799Z</time></trkpt><trkpt lat="43.4944276" lon="11.4386159"><ele>674.0</ele><time>2026-03-29T11:28:48.802Z</time></trkpt><trkpt lat="43.4942954" lon="11.4385245"><ele>667.0</ele><time>2026-03-29T11:28:49.797Z</time></trkpt><trkpt lat="43.4941775" lon="11.4384351"><ele>667.0</ele><time>2026-03-29T11:28:50.814Z</time></trkpt><trkpt lat="43.4940902" lon="11.4383128"><ele>667.0</ele><time>2026-03-29T11:28:51.803Z</time></trkpt><trkpt lat="43.4940141" lon="11.4382064"><ele>667.0</ele><time>2026-03-29T11:28:52.786Z</time></trkpt><trkpt lat="43.4939606" lon="11.4380962"><ele>667.0</ele><time>2026-03-29T11:28:53.791Z</time></trkpt><trkpt lat="43.4939674" lon="11.4379122"><ele>666.6</ele><time>2026-03-29T11:28:54.801Z</time></trkpt><trkpt lat="43.4939904" lon="11.4377501"><ele>666.2</ele><time>2026-03-29T11:28:55.783Z</time></trkpt><trkpt lat="43.4940273" lon="11.4376133"><ele>665.8</ele><time>2026-03-29T11:28:56.779Z</time></trkpt><trkpt lat="43.4940853" lon="11.4374795"><ele>665.4</ele><time>2026-03-29T11:28:57.781Z</time></trkpt><trkpt lat="43.4941354" lon="11.4373444"><ele>665.0</ele><time>2026-03-29T11:28:58.79Z</time></trkpt><trkpt lat="43.4941816" lon="11.4371949"><ele>662.6666666666666</ele><time>2026-03-29T11:28:59.822Z</time></trkpt><trkpt lat="43.494206" lon="11.4370133"><ele>660.3333333333334</ele><time>2026-03-29T11:29:00.785Z</time></trkpt><trkpt lat="43.494201" lon="11.436793"><ele>658.0</ele><time>2026-03-29T11:29:01.741Z</time></trkpt><trkpt lat="43.4941759" lon="11.4365303"><ele>655.0</ele><time>2026-03-29T11:29:02.749Z</time></trkpt><trkpt lat="43.4941939" lon="11.4362884"><ele>652.0</ele><time>2026-03-29T11:29:03.764Z</time></trkpt><trkpt lat="43.4942387" lon="11.4360574"><ele>649.0</ele><time>2026-03-29T11:29:04.789Z</time></trkpt><trkpt lat="43.4942899" lon="11.4358346"><ele>649.0</ele><time>2026-03-29T11:29:05.783Z</time></trkpt><trkpt lat="43.4943457" lon="11.4356398"><ele>649.0</ele><time>2026-03-29T11:29:06.781Z</time></trkpt><trkpt lat="43.494407" lon="11.4354591"><ele>649.0</ele><time>2026-03-29T11:29:07.737Z</time></trkpt><trkpt lat="43.4944831" lon="11.4353029"><ele>649.0</ele><time>2026-03-29T11:29:08.734Z</time></trkpt><trkpt lat="43.4945601" lon="11.4351509"><ele>649.0</ele><time>2026-03-29T11:29:09.789Z</time></trkpt><trkpt lat="43.4946256" lon="11.4350344"><ele>649.0</ele><time>2026-03-29T11:29:10.755Z</time></trkpt><trkpt lat="43.4946405" lon="11.4349022"><ele>649.0</ele><time>2026-03-29T11:29:11.738Z</time></trkpt><trkpt lat="43.4946205" lon="11.4347629"><ele>649.0</ele><time>2026-03-29T11:29:12.734Z</time></trkpt><trkpt lat="43.4945759" lon="11.4346539"><ele>649.0</ele><time>2026-03-29T11:29:13.737Z</time></trkpt><trkpt lat="43.4944877" lon="11.4345664"><ele>649.0</ele><time>2026-03-29T11:29:14.732Z</time></trkpt><trkpt lat="43.4943855" lon="11.4344302"><ele>649.0</ele><time>2026-03-29T11:29:15.775Z</time></trkpt><trkpt lat="43.4943253" lon="11.4342907"><ele>649.0</ele><time>2026-03-29T11:29:16.765Z</time></trkpt><trkpt lat="43.494285" lon="11.4341222"><ele>649.0</ele><time>2026-03-29T11:29:17.792Z</time></trkpt><trkpt lat="43.4942717" lon="11.433949"><ele>652.75</ele><time>2026-03-29T11:29:18.785Z</time></trkpt><trkpt lat="43.4942648" lon="11.4337471"><ele>656.5</ele><time>2026-03-29T11:29:19.765Z</time></trkpt><trkpt lat="43.494269" lon="11.4335514"><ele>660.25</ele><time>2026-03-29T11:29:20.776Z</time></trkpt><trkpt lat="43.4943072" lon="11.4333575"><ele>664.0</ele><time>2026-03-29T11:29:21.798Z</time></trkpt><trkpt lat="43.494406" lon="11.4331609"><ele>664.0</ele><time>2026-03-29T11:29:22.794Z</time></trkpt><trkpt lat="43.4945497" lon="11.4329733"><ele>664.0</ele><time>2026-03-29T11:29:23.802Z</time></trkpt><trkpt lat="43.4946811" lon="11.4327916"><ele>664.0</ele><time>2026-03-29T11:29:24.781Z</time></trkpt><trkpt lat="43.494789" lon="11.432623"><ele>658.0</ele><time>2026-03-29T11:29:25.725Z</time></trkpt><trkpt lat="43.4948786" lon="11.4324534"><ele>652.0</ele><time>2026-03-29T11:29:26.727Z</time></trkpt><trkpt lat="43.4949393" lon="11.4322934"><ele>646.0</ele><time>2026-03-29T11:29:27.761Z</time></trkpt><trkpt lat="43.4950006" lon="11.4320829"><ele>640.0</ele><time>2026-03-29T11:29:28.78Z</time></trkpt><trkpt lat="43.4950203" lon="11.4318803"><ele>638.0</ele><time>2026-03-29T11:29:29.779Z</time></trkpt><trkpt lat="43.494988" lon="11.4316917"><ele>636.0</ele><time>2026-03-29T11:29:30.784Z</time></trkpt><trkpt lat="43.4948977" lon="11.4314903"><ele>634.0</ele><time>2026-03-29T11:29:31.784Z</time></trkpt><trkpt lat="43.4947752" lon="11.4312399"><ele>630.3333333333334</ele><time>2026-03-29T11:29:32.79Z</time></trkpt><trkpt lat="43.4946824" lon="11.4309942"><ele>626.6666666666666</ele><time>2026-03-29T11:29:33.797Z</time></trkpt><trkpt lat="43.4945942" lon="11.4307497"><ele>623.0</ele><time>2026-03-29T11:29:34.782Z</time></trkpt><trkpt lat="43.4945214" lon="11.4304998"><ele>624.75</ele><time>2026-03-29T11:29:35.791Z</time></trkpt><trkpt lat="43.4944609" lon="11.430299"><ele>626.5</ele><time>2026-03-29T11:29:36.742Z</time></trkpt><trkpt lat="43.4944343" lon="11.430115"><ele>628.25</ele><time>2026-03-29T11:29:37.742Z</time></trkpt><trkpt lat="43.4943735" lon="11.4299474"><ele>630.0</ele><time>2026-03-29T11:29:38.779Z</time></trkpt><trkpt lat="43.494327" lon="11.4298244"><ele>630.0</ele><time>2026-03-29T11:29:39.765Z</time></trkpt><trkpt lat="43.4943049" lon="11.4297126"><ele>630.0</ele><time>2026-03-29T11:29:40.761Z</time></trkpt><trkpt lat="43.4942842" lon="11.4295576"><ele>630.0</ele><time>2026-03-29T11:29:41.766Z</time></trkpt><trkpt lat="43.4942435" lon="11.4294817"><ele>630.0</ele><time>2026-03-29T11:29:42.764Z</time></trkpt><trkpt lat="43.4941231" lon="11.4295539"><ele>630.0</ele><time>2026-03-29T11:29:44.776Z</time></trkpt><trkpt lat="43.4940222" lon="11.4296556"><ele>630.0</ele><time>2026-03-29T11:29:45.768Z</time></trkpt><trkpt lat="43.4938826" lon="11.429748"><ele>630.0</ele><time>2026-03-29T11:29:46.787Z</time></trkpt><trkpt lat="43.493767" lon="11.4298074"><ele>630.0</ele><time>2026-03-29T11:29:47.724Z</time></trkpt><trkpt lat="43.4936206" lon="11.4297961"><ele>630.0</ele><time>2026-03-29T11:29:48.782Z</time></trkpt><trkpt lat="43.4935105" lon="11.4297269"><ele>628.8</ele><time>2026-03-29T11:29:49.768Z</time></trkpt><trkpt lat="43.493421" lon="11.4296492"><ele>627.6</ele><time>2026-03-29T11:29:50.733Z</time></trkpt><trkpt lat="43.4933584" lon="11.4295398"><ele>626.4</ele><time>2026-03-29T11:29:51.726Z</time></trkpt><trkpt lat="43.4932995" lon="11.4294327"><ele>625.2</ele><time>2026-03-29T11:29:52.768Z</time></trkpt><trkpt lat="43.4932357" lon="11.4293664"><ele>624.0</ele><time>2026-03-29T11:29:53.731Z</time></trkpt><trkpt lat="43.4931552" lon="11.4293021"><ele>624.0</ele><time>2026-03-29T11:29:54.744Z</time></trkpt><trkpt lat="43.4931076" lon="11.4292084"><ele>624.0</ele><time>2026-03-29T11:29:55.721Z</time></trkpt><trkpt lat="43.4930829" lon="11.4291084"><ele>624.0</ele><time>2026-03-29T11:29:56.729Z</time></trkpt><trkpt lat="43.4930375" lon="11.4290113"><ele>624.0</ele><time>2026-03-29T11:29:57.777Z</time></trkpt><trkpt lat="43.4929912" lon="11.4289208"><ele>624.0</ele><time>2026-03-29T11:29:58.762Z</time></trkpt><trkpt lat="43.4929575" lon="11.4287537"><ele>624.6</ele><time>2026-03-29T11:30:00.764Z</time></trkpt><trkpt lat="43.4929371" lon="11.4286155"><ele>625.2</ele><time>2026-03-29T11:30:01.789Z</time></trkpt><trkpt lat="43.4929155" lon="11.4284739"><ele>625.8000000000001</ele><time>2026-03-29T11:30:02.781Z</time></trkpt><trkpt lat="43.4929145" lon="11.4283597"><ele>626.4</ele><time>2026-03-29T11:30:03.771Z</time></trkpt><trkpt lat="43.4928817" lon="11.4282298"><ele>627.0</ele><time>2026-03-29T11:30:04.772Z</time></trkpt><trkpt lat="43.4928627" lon="11.4281078"><ele>626.8000000000001</ele><time>2026-03-29T11:30:05.718Z</time></trkpt><trkpt lat="43.4928184" lon="11.4279732"><ele>626.6</ele><time>2026-03-29T11:30:06.776Z</time></trkpt><trkpt lat="43.4928395" lon="11.4278316"><ele>626.4000000000001</ele><time>2026-03-29T11:30:07.734Z</time></trkpt><trkpt lat="43.492846" lon="11.4276705"><ele>626.2</ele><time>2026-03-29T11:30:08.775Z</time></trkpt><trkpt lat="43.4928783" lon="11.4275532"><ele>626.0</ele><time>2026-03-29T11:30:09.764Z</time></trkpt><trkpt lat="43.4930344" lon="11.4273175"><ele>626.0</ele><time>2026-03-29T11:30:10.783Z</time></trkpt><trkpt lat="43.4930236" lon="11.4272058"><ele>626.0</ele><time>2026-03-29T11:30:11.775Z</time></trkpt><trkpt lat="43.492982" lon="11.4270485"><ele>626.0</ele><time>2026-03-29T11:30:12.767Z</time></trkpt><trkpt lat="43.4929488" lon="11.4269262"><ele>626.0</ele><time>2026-03-29T11:30:13.737Z</time></trkpt><trkpt lat="43.4929044" lon="11.4267887"><ele>626.0</ele><time>2026-03-29T11:30:14.744Z</time></trkpt><trkpt lat="43.4928657" lon="11.4266092"><ele>627.0</ele><time>2026-03-29T11:30:16.062Z</time></trkpt><trkpt lat="43.4927699" lon="11.4263963"><ele>628.0</ele><time>2026-03-29T11:30:17.797Z</time></trkpt><trkpt lat="43.4928157" lon="11.4262449"><ele>629.0</ele><time>2026-03-29T11:30:19.798Z</time></trkpt><trkpt lat="43.4927983" lon="11.4261585"><ele>630.0</ele><time>2026-03-29T11:30:20.787Z</time></trkpt><trkpt lat="43.4927745" lon="11.4260473"><ele>630.0</ele><time>2026-03-29T11:30:21.788Z</time></trkpt><trkpt lat="43.4927432" lon="11.4259546"><ele>630.0</ele><time>2026-03-29T11:30:22.79Z</time></trkpt><trkpt lat="43.492708" lon="11.4258526"><ele>630.0</ele><time>2026-03-29T11:30:23.782Z</time></trkpt><trkpt lat="43.4926832" lon="11.4257328"><ele>630.0</ele><time>2026-03-29T11:30:24.801Z</time></trkpt><trkpt lat="43.4927133" lon="11.4255674"><ele>630.0</ele><time>2026-03-29T11:30:25.788Z</time></trkpt><trkpt lat="43.4927355" lon="11.4253885"><ele>628.25</ele><time>2026-03-29T11:30:26.787Z</time></trkpt><trkpt lat="43.4927767" lon="11.4252093"><ele>626.5</ele><time>2026-03-29T11:30:27.799Z</time></trkpt><trkpt lat="43.4928009" lon="11.4250604"><ele>624.75</ele><time>2026-03-29T11:30:28.801Z</time></trkpt><trkpt lat="43.4928693" lon="11.4248695"><ele>623.0</ele><time>2026-03-29T11:30:29.79Z</time></trkpt><trkpt lat="43.4929286" lon="11.4245924"><ele>615.6666666666666</ele><time>2026-03-29T11:30:30.796Z</time></trkpt><trkpt lat="43.4930054" lon="11.424321"><ele>608.3333333333334</ele><time>2026-03-29T11:30:31.795Z</time></trkpt><trkpt lat="43.4930574" lon="11.4240254"><ele>601.0</ele><time>2026-03-29T11:30:32.781Z</time></trkpt><trkpt lat="43.4930378" lon="11.423697"><ele>597.0</ele><time>2026-03-29T11:30:33.803Z</time></trkpt><trkpt lat="43.4929699" lon="11.4235265"><ele>593.0</ele><time>2026-03-29T11:30:34.797Z</time></trkpt><trkpt lat="43.4928126" lon="11.4234501"><ele>589.0</ele><time>2026-03-29T11:30:35.794Z</time></trkpt><trkpt lat="43.4926548" lon="11.4233454"><ele>589.0</ele><time>2026-03-29T11:30:36.796Z</time></trkpt><trkpt lat="43.4925096" lon="11.4232534"><ele>589.0</ele><time>2026-03-29T11:30:37.784Z</time></trkpt><trkpt lat="43.4923683" lon="11.4231636"><ele>589.0</ele><time>2026-03-29T11:30:38.815Z</time></trkpt><trkpt lat="43.4922323" lon="11.4230769"><ele>589.0</ele><time>2026-03-29T11:30:39.795Z</time></trkpt><trkpt lat="43.492081" lon="11.4230221"><ele>589.0</ele><time>2026-03-29T11:30:40.806Z</time></trkpt><trkpt lat="43.4919749" lon="11.4229403"><ele>589.0</ele><time>2026-03-29T11:30:41.797Z</time></trkpt><trkpt lat="43.4918437" lon="11.42289"><ele>589.0</ele><time>2026-03-29T11:30:42.812Z</time></trkpt><trkpt lat="43.4917109" lon="11.42274"><ele>589.0</ele><time>2026-03-29T11:30:43.793Z</time></trkpt><trkpt lat="43.4916069" lon="11.4225738"><ele>589.0</ele><time>2026-03-29T11:30:44.79Z</time></trkpt><trkpt lat="43.4915248" lon="11.4223785"><ele>589.0</ele><time>2026-03-29T11:30:45.812Z</time></trkpt><trkpt lat="43.4914493" lon="11.4222108"><ele>585.75</ele><time>2026-03-29T11:30:46.811Z</time></trkpt><trkpt lat="43.4913775" lon="11.4220311"><ele>582.5</ele><time>2026-03-29T11:30:47.783Z</time></trkpt><trkpt lat="43.4912818" lon="11.4218817"><ele>579.25</ele><time>2026-03-29T11:30:48.786Z</time></trkpt><trkpt lat="43.4912024" lon="11.42173"><ele>576.0</ele><time>2026-03-29T11:30:49.806Z</time></trkpt><trkpt lat="43.4910858" lon="11.421682"><ele>576.0</ele><time>2026-03-29T11:30:50.802Z</time></trkpt><trkpt lat="43.4909795" lon="11.4216618"><ele>576.0</ele><time>2026-03-29T11:30:51.822Z</time></trkpt><trkpt lat="43.4909091" lon="11.4216593"><ele>576.0</ele><time>2026-03-29T11:30:52.792Z</time></trkpt><trkpt lat="43.4908118" lon="11.4217245"><ele>576.0</ele><time>2026-03-29T11:30:53.798Z</time></trkpt><trkpt lat="43.490718" lon="11.4217362"><ele>576.0</ele><time>2026-03-29T11:30:54.809Z</time></trkpt><trkpt lat="43.4906411" lon="11.4217137"><ele>576.0</ele><time>2026-03-29T11:30:55.791Z</time></trkpt><trkpt lat="43.4906406" lon="11.4215812"><ele>576.0</ele><time>2026-03-29T11:30:56.799Z</time></trkpt><trkpt lat="43.4906322" lon="11.4214942"><ele>576.0</ele><time>2026-03-29T11:30:57.789Z</time></trkpt><trkpt lat="43.4906736" lon="11.4214218"><ele>576.0</ele><time>2026-03-29T11:30:58.792Z</time></trkpt><trkpt lat="43.4907637" lon="11.4213869"><ele>576.0</ele><time>2026-03-29T11:30:59.787Z</time></trkpt><trkpt lat="43.4909088" lon="11.4213825"><ele>576.0</ele><time>2026-03-29T11:31:00.797Z</time></trkpt><trkpt lat="43.491028" lon="11.4213691"><ele>576.0</ele><time>2026-03-29T11:31:01.801Z</time></trkpt><trkpt lat="43.4911432" lon="11.4213334"><ele>576.0</ele><time>2026-03-29T11:31:02.799Z</time></trkpt><trkpt lat="43.4912491" lon="11.4212742"><ele>576.0</ele><time>2026-03-29T11:31:03.793Z</time></trkpt><trkpt lat="43.4913184" lon="11.4211723"><ele>572.0</ele><time>2026-03-29T11:31:04.797Z</time></trkpt><trkpt lat="43.4913337" lon="11.4210026"><ele>568.0</ele><time>2026-03-29T11:31:05.786Z</time></trkpt><trkpt lat="43.4913183" lon="11.4208106"><ele>564.0</ele><time>2026-03-29T11:31:06.798Z</time></trkpt><trkpt lat="43.4912969" lon="11.4205984"><ele>560.0</ele><time>2026-03-29T11:31:07.813Z</time></trkpt><trkpt lat="43.4912673" lon="11.4203975"><ele>559.0</ele><time>2026-03-29T11:31:08.785Z</time></trkpt><trkpt lat="43.4912377" lon="11.420155"><ele>558.0</ele><time>2026-03-29T11:31:09.783Z</time></trkpt><trkpt lat="43.4912089" lon="11.4198997"><ele>557.0</ele><time>2026-03-29T11:31:10.804Z</time></trkpt><trkpt lat="43.4911869" lon="11.4196297"><ele>559.0</ele><time>2026-03-29T11:31:11.805Z</time></trkpt><trkpt lat="43.491135" lon="11.4193882"><ele>561.0</ele><time>2026-03-29T11:31:12.801Z</time></trkpt><trkpt lat="43.4910675" lon="11.4191548"><ele>563.0</ele><time>2026-03-29T11:31:13.781Z</time></trkpt><trkpt lat="43.491024" lon="11.4189167"><ele>564.25</ele><time>2026-03-29T11:31:14.804Z</time></trkpt><trkpt lat="43.4910149" lon="11.4187405"><ele>565.5</ele><time>2026-03-29T11:31:15.788Z</time></trkpt><trkpt lat="43.4910137" lon="11.4185812"><ele>566.75</ele><time>2026-03-29T11:31:16.788Z</time></trkpt><trkpt lat="43.4910012" lon="11.4184242"><ele>568.0</ele><time>2026-03-29T11:31:17.801Z</time></trkpt><trkpt lat="43.4909682" lon="11.4182954"><ele>568.0</ele><time>2026-03-29T11:31:18.792Z</time></trkpt><trkpt lat="43.4908962" lon="11.4181798"><ele>568.0</ele><time>2026-03-29T11:31:19.8Z</time></trkpt><trkpt lat="43.4907985" lon="11.4180827"><ele>568.0</ele><time>2026-03-29T11:31:20.81Z</time></trkpt><trkpt lat="43.4906612" lon="11.4180026"><ele>568.0</ele><time>2026-03-29T11:31:21.815Z</time></trkpt><trkpt lat="43.4905264" lon="11.4179201"><ele>567.3333333333334</ele><time>2026-03-29T11:31:22.812Z</time></trkpt><trkpt lat="43.4903957" lon="11.4178131"><ele>566.6666666666666</ele><time>2026-03-29T11:31:23.802Z</time></trkpt><trkpt lat="43.4902713" lon="11.4176979"><ele>566.0</ele><time>2026-03-29T11:31:24.799Z</time></trkpt><trkpt lat="43.4902243" lon="11.4174586"><ele>566.0</ele><time>2026-03-29T11:31:25.801Z</time></trkpt><trkpt lat="43.4901653" lon="11.417255"><ele>566.0</ele><time>2026-03-29T11:31:26.791Z</time></trkpt><trkpt lat="43.490117" lon="11.4170452"><ele>566.0</ele><time>2026-03-29T11:31:27.785Z</time></trkpt><trkpt lat="43.4900822" lon="11.4168321"><ele>564.6666666666666</ele><time>2026-03-29T11:31:28.783Z</time></trkpt><trkpt lat="43.4900849" lon="11.4166002"><ele>563.3333333333334</ele><time>2026-03-29T11:31:29.811Z</time></trkpt><trkpt lat="43.4901086" lon="11.4163689"><ele>562.0</ele><time>2026-03-29T11:31:30.793Z</time></trkpt><trkpt lat="43.4901601" lon="11.4161335"><ele>560.0</ele><time>2026-03-29T11:31:31.783Z</time></trkpt><trkpt lat="43.4902266" lon="11.4158586"><ele>558.0</ele><time>2026-03-29T11:31:32.805Z</time></trkpt><trkpt lat="43.4902925" lon="11.4155678"><ele>556.0</ele><time>2026-03-29T11:31:33.802Z</time></trkpt><trkpt lat="43.4903436" lon="11.4152891"><ele>555.3333333333334</ele><time>2026-03-29T11:31:34.806Z</time></trkpt><trkpt lat="43.4903907" lon="11.4150218"><ele>554.6666666666666</ele><time>2026-03-29T11:31:35.822Z</time></trkpt><trkpt lat="43.4904286" lon="11.4147778"><ele>554.0</ele><time>2026-03-29T11:31:36.807Z</time></trkpt><trkpt lat="43.4904638" lon="11.4145433"><ele>553.6666666666666</ele><time>2026-03-29T11:31:37.791Z</time></trkpt><trkpt lat="43.4905038" lon="11.4143035"><ele>553.3333333333334</ele><time>2026-03-29T11:31:38.813Z</time></trkpt><trkpt lat="43.4905438" lon="11.4140746"><ele>553.0</ele><time>2026-03-29T11:31:39.792Z</time></trkpt><trkpt lat="43.490581" lon="11.4138478"><ele>551.6666666666667</ele><time>2026-03-29T11:31:40.791Z</time></trkpt><trkpt lat="43.4906059" lon="11.4136296"><ele>550.3333333333334</ele><time>2026-03-29T11:31:41.793Z</time></trkpt><trkpt lat="43.4906097" lon="11.4134279"><ele>549.0</ele><time>2026-03-29T11:31:42.777Z</time></trkpt><trkpt lat="43.4905814" lon="11.4132287"><ele>549.0</ele><time>2026-03-29T11:31:43.794Z</time></trkpt><trkpt lat="43.4905097" lon="11.4130501"><ele>549.0</ele><time>2026-03-29T11:31:44.778Z</time></trkpt><trkpt lat="43.490414" lon="11.4128591"><ele>549.0</ele><time>2026-03-29T11:31:45.804Z</time></trkpt><trkpt lat="43.4903015" lon="11.4127029"><ele>552.0</ele><time>2026-03-29T11:31:46.806Z</time></trkpt><trkpt lat="43.4901675" lon="11.412549"><ele>555.0</ele><time>2026-03-29T11:31:47.786Z</time></trkpt><trkpt lat="43.4900276" lon="11.4124029"><ele>558.0</ele><time>2026-03-29T11:31:48.79Z</time></trkpt><trkpt lat="43.4898968" lon="11.4122675"><ele>559.3333333333334</ele><time>2026-03-29T11:31:49.8Z</time></trkpt><trkpt lat="43.4897779" lon="11.4121372"><ele>560.6666666666667</ele><time>2026-03-29T11:31:50.799Z</time></trkpt><trkpt lat="43.4896653" lon="11.4119883"><ele>562.0</ele><time>2026-03-29T11:31:51.793Z</time></trkpt><trkpt lat="43.4895829" lon="11.4118187"><ele>559.5</ele><time>2026-03-29T11:31:52.813Z</time></trkpt><trkpt lat="43.4895193" lon="11.411651"><ele>557.0</ele><time>2026-03-29T11:31:53.798Z</time></trkpt><trkpt lat="43.4894782" lon="11.4114791"><ele>554.5</ele><time>2026-03-29T11:31:54.791Z</time></trkpt><trkpt lat="43.489448" lon="11.4113044"><ele>552.0</ele><time>2026-03-29T11:31:55.795Z</time></trkpt><trkpt lat="43.4894616" lon="11.4111231"><ele>551.0</ele><time>2026-03-29T11:31:56.811Z</time></trkpt><trkpt lat="43.4895058" lon="11.4109354"><ele>550.0</ele><time>2026-03-29T11:31:57.817Z</time></trkpt><trkpt lat="43.4895611" lon="11.4107264"><ele>549.0</ele><time>2026-03-29T11:31:58.801Z</time></trkpt><trkpt lat="43.4896684" lon="11.4105548"><ele>548.6666666666666</ele><time>2026-03-29T11:31:59.796Z</time></trkpt><trkpt lat="43.4897763" lon="11.4103739"><ele>548.3333333333333</ele><time>2026-03-29T11:32:00.79Z</time></trkpt><trkpt lat="43.4898661" lon="11.4101884"><ele>548.0</ele><time>2026-03-29T11:32:01.799Z</time></trkpt><trkpt lat="43.4899392" lon="11.4099833"><ele>548.0</ele><time>2026-03-29T11:32:02.791Z</time></trkpt><trkpt lat="43.4899979" lon="11.4097593"><ele>548.0</ele><time>2026-03-29T11:32:03.795Z</time></trkpt><trkpt lat="43.4900328" lon="11.4094921"><ele>548.0</ele><time>2026-03-29T11:32:04.781Z</time></trkpt><trkpt lat="43.4900669" lon="11.4092143"><ele>547.3333333333333</ele><time>2026-03-29T11:32:05.799Z</time></trkpt><trkpt lat="43.4900671" lon="11.4089408"><ele>546.6666666666666</ele><time>2026-03-29T11:32:06.802Z</time></trkpt><trkpt lat="43.4900639" lon="11.4086766"><ele>546.0</ele><time>2026-03-29T11:32:07.783Z</time></trkpt><trkpt lat="43.4900537" lon="11.4084077"><ele>544.6666666666666</ele><time>2026-03-29T11:32:08.805Z</time></trkpt><trkpt lat="43.4900384" lon="11.408157"><ele>543.3333333333333</ele><time>2026-03-29T11:32:09.79Z</time></trkpt><trkpt lat="43.4900181" lon="11.4079181"><ele>542.0</ele><time>2026-03-29T11:32:10.81Z</time></trkpt><trkpt lat="43.4899858" lon="11.4077032"><ele>541.3333333333333</ele><time>2026-03-29T11:32:11.799Z</time></trkpt><trkpt lat="43.4899358" lon="11.4074975"><ele>540.6666666666666</ele><time>2026-03-29T11:32:12.789Z</time></trkpt><trkpt lat="43.489851" lon="11.4073047"><ele>540.0</ele><time>2026-03-29T11:32:13.786Z</time></trkpt><trkpt lat="43.4897339" lon="11.4071182"><ele>538.3333333333334</ele><time>2026-03-29T11:32:14.791Z</time></trkpt><trkpt lat="43.4895947" lon="11.4069226"><ele>536.6666666666667</ele><time>2026-03-29T11:32:15.808Z</time></trkpt><trkpt lat="43.4894596" lon="11.4067224"><ele>535.0</ele><time>2026-03-29T11:32:16.798Z</time></trkpt><trkpt lat="43.4893373" lon="11.4065171"><ele>534.6666666666667</ele><time>2026-03-29T11:32:17.787Z</time></trkpt><trkpt lat="43.4892198" lon="11.4063228"><ele>534.3333333333334</ele><time>2026-03-29T11:32:18.786Z</time></trkpt><trkpt lat="43.4891293" lon="11.4061223"><ele>534.0</ele><time>2026-03-29T11:32:19.795Z</time></trkpt><trkpt lat="43.4890643" lon="11.4058842"><ele>534.0</ele><time>2026-03-29T11:32:20.807Z</time></trkpt><trkpt lat="43.4890409" lon="11.4056633"><ele>534.0</ele><time>2026-03-29T11:32:21.8Z</time></trkpt><trkpt lat="43.4890049" lon="11.4054464"><ele>534.0</ele><time>2026-03-29T11:32:22.793Z</time></trkpt><trkpt lat="43.4889555" lon="11.4052309"><ele>531.3333333333334</ele><time>2026-03-29T11:32:23.805Z</time></trkpt><trkpt lat="43.4888948" lon="11.4050316"><ele>528.6666666666667</ele><time>2026-03-29T11:32:24.776Z</time></trkpt><trkpt lat="43.488831" lon="11.4048272"><ele>526.0</ele><time>2026-03-29T11:32:25.788Z</time></trkpt><trkpt lat="43.4887629" lon="11.4046223"><ele>530.6666666666667</ele><time>2026-03-29T11:32:26.8Z</time></trkpt><trkpt lat="43.4887152" lon="11.4044061"><ele>535.3333333333334</ele><time>2026-03-29T11:32:27.795Z</time></trkpt><trkpt lat="43.4886847" lon="11.4041988"><ele>540.0</ele><time>2026-03-29T11:32:28.809Z</time></trkpt><trkpt lat="43.4886873" lon="11.403947"><ele>539.3333333333334</ele><time>2026-03-29T11:32:29.8Z</time></trkpt><trkpt lat="43.4887285" lon="11.4037115"><ele>538.6666666666667</ele><time>2026-03-29T11:32:30.795Z</time></trkpt><trkpt lat="43.4887623" lon="11.4034896"><ele>538.0</ele><time>2026-03-29T11:32:31.792Z</time></trkpt><trkpt lat="43.4887973" lon="11.4032657"><ele>530.3333333333334</ele><time>2026-03-29T11:32:32.787Z</time></trkpt><trkpt lat="43.488809" lon="11.4030102"><ele>522.6666666666666</ele><time>2026-03-29T11:32:33.799Z</time></trkpt><trkpt lat="43.4888139" lon="11.4027592"><ele>515.0</ele><time>2026-03-29T11:32:34.777Z</time></trkpt><trkpt lat="43.4888151" lon="11.4025063"><ele>514.3333333333333</ele><time>2026-03-29T11:32:35.797Z</time></trkpt><trkpt lat="43.4888246" lon="11.4022822"><ele>513.6666666666666</ele><time>2026-03-29T11:32:36.788Z</time></trkpt><trkpt lat="43.4888415" lon="11.4020711"><ele>513.0</ele><time>2026-03-29T11:32:37.78Z</time></trkpt><trkpt lat="43.488884" lon="11.4018815"><ele>512.8</ele><time>2026-03-29T11:32:38.811Z</time></trkpt><trkpt lat="43.4889249" lon="11.4017251"><ele>512.5999999999999</ele><time>2026-03-29T11:32:39.789Z</time></trkpt><trkpt lat="43.4889611" lon="11.4015668"><ele>512.4000000000001</ele><time>2026-03-29T11:32:40.787Z</time></trkpt><trkpt lat="43.4889722" lon="11.4014175"><ele>512.2</ele><time>2026-03-29T11:32:41.79Z</time></trkpt><trkpt lat="43.4889532" lon="11.4012959"><ele>512.0</ele><time>2026-03-29T11:32:42.787Z</time></trkpt><trkpt lat="43.4888572" lon="11.4011869"><ele>512.25</ele><time>2026-03-29T11:32:43.789Z</time></trkpt><trkpt lat="43.4887529" lon="11.4010597"><ele>512.5</ele><time>2026-03-29T11:32:44.794Z</time></trkpt><trkpt lat="43.48864" lon="11.4009212"><ele>512.75</ele><time>2026-03-29T11:32:45.821Z</time></trkpt><trkpt lat="43.488504" lon="11.4008362"><ele>513.0</ele><time>2026-03-29T11:32:46.792Z</time></trkpt><trkpt lat="43.4883903" lon="11.4007401"><ele>513.0</ele><time>2026-03-29T11:32:47.794Z</time></trkpt><trkpt lat="43.4882748" lon="11.4006668"><ele>513.0</ele><time>2026-03-29T11:32:48.803Z</time></trkpt><trkpt lat="43.4881623" lon="11.40063"><ele>513.0</ele><time>2026-03-29T11:32:49.788Z</time></trkpt><trkpt lat="43.4880495" lon="11.4006504"><ele>513.0</ele><time>2026-03-29T11:32:50.798Z</time></trkpt><trkpt lat="43.4879202" lon="11.4006805"><ele>511.4</ele><time>2026-03-29T11:32:51.783Z</time></trkpt><trkpt lat="43.4878033" lon="11.4007788"><ele>509.79999999999995</ele><time>2026-03-29T11:32:52.787Z</time></trkpt><trkpt lat="43.4877671" lon="11.4009052"><ele>508.2</ele><time>2026-03-29T11:32:53.784Z</time></trkpt><trkpt lat="43.4877121" lon="11.4010165"><ele>506.6</ele><time>2026-03-29T11:32:54.801Z</time></trkpt><trkpt lat="43.487654" lon="11.4011111"><ele>505.0</ele><time>2026-03-29T11:32:55.798Z</time></trkpt><trkpt lat="43.4876051" lon="11.4011802"><ele>505.0</ele><time>2026-03-29T11:32:56.799Z</time></trkpt><trkpt lat="43.4874981" lon="11.4011353"><ele>505.0</ele><time>2026-03-29T11:32:58.789Z</time></trkpt><trkpt lat="43.487472" lon="11.4009843"><ele>505.0</ele><time>2026-03-29T11:33:00.812Z</time></trkpt><trkpt lat="43.4875359" lon="11.4007796"><ele>505.0</ele><time>2026-03-29T11:33:01.786Z</time></trkpt><trkpt lat="43.4875717" lon="11.4006057"><ele>504.0</ele><time>2026-03-29T11:33:02.807Z</time></trkpt><trkpt lat="43.487579" lon="11.4004329"><ele>503.0</ele><time>2026-03-29T11:33:03.789Z</time></trkpt><trkpt lat="43.4875666" lon="11.4002419"><ele>502.0</ele><time>2026-03-29T11:33:04.795Z</time></trkpt><trkpt lat="43.4875785" lon="11.4000685"><ele>501.0</ele><time>2026-03-29T11:33:05.794Z</time></trkpt><trkpt lat="43.487605" lon="11.3999155"><ele>501.0</ele><time>2026-03-29T11:33:06.795Z</time></trkpt><trkpt lat="43.4876412" lon="11.3997884"><ele>501.0</ele><time>2026-03-29T11:33:07.789Z</time></trkpt><trkpt lat="43.4877182" lon="11.3997345"><ele>501.0</ele><time>2026-03-29T11:33:08.8Z</time></trkpt><trkpt lat="43.4878199" lon="11.3996869"><ele>501.0</ele><time>2026-03-29T11:33:09.784Z</time></trkpt><trkpt lat="43.4879441" lon="11.3996725"><ele>501.0</ele><time>2026-03-29T11:33:10.79Z</time></trkpt><trkpt lat="43.4880718" lon="11.3996548"><ele>500.75</ele><time>2026-03-29T11:33:11.795Z</time></trkpt><trkpt lat="43.4881926" lon="11.3996025"><ele>500.5</ele><time>2026-03-29T11:33:12.799Z</time></trkpt><trkpt lat="43.4883206" lon="11.3995425"><ele>500.25</ele><time>2026-03-29T11:33:13.788Z</time></trkpt><trkpt lat="43.4884459" lon="11.3994579"><ele>500.0</ele><time>2026-03-29T11:33:14.803Z</time></trkpt><trkpt lat="43.488562" lon="11.3993139"><ele>500.0</ele><time>2026-03-29T11:33:15.794Z</time></trkpt><trkpt lat="43.4886493" lon="11.3991465"><ele>500.0</ele><time>2026-03-29T11:33:16.788Z</time></trkpt><trkpt lat="43.4887395" lon="11.3989226"><ele>500.0</ele><time>2026-03-29T11:33:17.808Z</time></trkpt><trkpt lat="43.4888227" lon="11.3987006"><ele>494.66666666666663</ele><time>2026-03-29T11:33:18.787Z</time></trkpt><trkpt lat="43.4889275" lon="11.3984729"><ele>489.33333333333337</ele><time>2026-03-29T11:33:19.802Z</time></trkpt><trkpt lat="43.4890262" lon="11.3982503"><ele>484.0</ele><time>2026-03-29T11:33:20.803Z</time></trkpt><trkpt lat="43.4891205" lon="11.398037"><ele>486.0</ele><time>2026-03-29T11:33:21.784Z</time></trkpt><trkpt lat="43.4892177" lon="11.3978313"><ele>488.0</ele><time>2026-03-29T11:33:22.776Z</time></trkpt><trkpt lat="43.4893182" lon="11.3976279"><ele>490.0</ele><time>2026-03-29T11:33:23.815Z</time></trkpt><trkpt lat="43.4894075" lon="11.3974396"><ele>490.0</ele><time>2026-03-29T11:33:24.796Z</time></trkpt><trkpt lat="43.4894938" lon="11.3972492"><ele>490.0</ele><time>2026-03-29T11:33:25.803Z</time></trkpt><trkpt lat="43.489571" lon="11.3970658"><ele>490.0</ele><time>2026-03-29T11:33:26.785Z</time></trkpt><trkpt lat="43.4896525" lon="11.3968858"><ele>485.75</ele><time>2026-03-29T11:33:27.784Z</time></trkpt><trkpt lat="43.4897598" lon="11.3967244"><ele>481.5</ele><time>2026-03-29T11:33:28.828Z</time></trkpt><trkpt lat="43.4898605" lon="11.3965845"><ele>477.25</ele><time>2026-03-29T11:33:29.8Z</time></trkpt><trkpt lat="43.4899544" lon="11.3964282"><ele>473.0</ele><time>2026-03-29T11:33:30.831Z</time></trkpt><trkpt lat="43.490039" lon="11.3962816"><ele>473.0</ele><time>2026-03-29T11:33:31.797Z</time></trkpt><trkpt lat="43.4900809" lon="11.3960742"><ele>473.0</ele><time>2026-03-29T11:33:32.808Z</time></trkpt><trkpt lat="43.490117" lon="11.3958795"><ele>473.0</ele><time>2026-03-29T11:33:33.796Z</time></trkpt><trkpt lat="43.4901377" lon="11.3956702"><ele>472.0</ele><time>2026-03-29T11:33:34.783Z</time></trkpt><trkpt lat="43.4901503" lon="11.3954609"><ele>471.0</ele><time>2026-03-29T11:33:35.8Z</time></trkpt><trkpt lat="43.490145" lon="11.3952622"><ele>470.0</ele><time>2026-03-29T11:33:36.801Z</time></trkpt><trkpt lat="43.4901293" lon="11.3950681"><ele>469.0</ele><time>2026-03-29T11:33:37.828Z</time></trkpt><trkpt lat="43.4901161" lon="11.3948874"><ele>469.0</ele><time>2026-03-29T11:33:38.804Z</time></trkpt><trkpt lat="43.4901052" lon="11.3947009"><ele>469.0</ele><time>2026-03-29T11:33:39.806Z</time></trkpt><trkpt lat="43.4901115" lon="11.3945258"><ele>469.0</ele><time>2026-03-29T11:33:40.781Z</time></trkpt><trkpt lat="43.4901339" lon="11.3943465"><ele>469.0</ele><time>2026-03-29T11:33:41.787Z</time></trkpt><trkpt lat="43.4901829" lon="11.3941756"><ele>467.75</ele><time>2026-03-29T11:33:42.802Z</time></trkpt><trkpt lat="43.4902499" lon="11.3940245"><ele>466.5</ele><time>2026-03-29T11:33:43.798Z</time></trkpt><trkpt lat="43.4903162" lon="11.3938805"><ele>465.25</ele><time>2026-03-29T11:33:44.785Z</time></trkpt><trkpt lat="43.4903745" lon="11.3937234"><ele>464.0</ele><time>2026-03-29T11:33:45.81Z</time></trkpt><trkpt lat="43.4904125" lon="11.3935577"><ele>465.0</ele><time>2026-03-29T11:33:46.811Z</time></trkpt><trkpt lat="43.4904285" lon="11.3933844"><ele>466.0</ele><time>2026-03-29T11:33:47.809Z</time></trkpt><trkpt lat="43.4904314" lon="11.3931881"><ele>467.0</ele><time>2026-03-29T11:33:48.797Z</time></trkpt><trkpt lat="43.4904124" lon="11.3930037"><ele>468.0</ele><time>2026-03-29T11:33:49.786Z</time></trkpt><trkpt lat="43.4903577" lon="11.3928177"><ele>465.25</ele><time>2026-03-29T11:33:50.802Z</time></trkpt><trkpt lat="43.4902934" lon="11.3926279"><ele>462.5</ele><time>2026-03-29T11:33:51.808Z</time></trkpt><trkpt lat="43.4902468" lon="11.3924401"><ele>459.75</ele><time>2026-03-29T11:33:52.81Z</time></trkpt><trkpt lat="43.4902062" lon="11.3922689"><ele>457.0</ele><time>2026-03-29T11:33:53.814Z</time></trkpt><trkpt lat="43.4901878" lon="11.3920763"><ele>456.75</ele><time>2026-03-29T11:33:54.794Z</time></trkpt><trkpt lat="43.4902108" lon="11.3918808"><ele>456.5</ele><time>2026-03-29T11:33:55.788Z</time></trkpt><trkpt lat="43.4902222" lon="11.3916807"><ele>456.25</ele><time>2026-03-29T11:33:56.816Z</time></trkpt><trkpt lat="43.4902263" lon="11.3914954"><ele>456.0</ele><time>2026-03-29T11:33:57.801Z</time></trkpt><trkpt lat="43.4902083" lon="11.3913168"><ele>456.75</ele><time>2026-03-29T11:33:58.796Z</time></trkpt><trkpt lat="43.4901753" lon="11.3911491"><ele>457.5</ele><time>2026-03-29T11:33:59.796Z</time></trkpt><trkpt lat="43.4900932" lon="11.3910197"><ele>458.25</ele><time>2026-03-29T11:34:00.798Z</time></trkpt><trkpt lat="43.4899939" lon="11.3909136"><ele>459.0</ele><time>2026-03-29T11:34:01.781Z</time></trkpt><trkpt lat="43.4899013" lon="11.3907792"><ele>459.0</ele><time>2026-03-29T11:34:02.801Z</time></trkpt><trkpt lat="43.489809" lon="11.3906587"><ele>459.0</ele><time>2026-03-29T11:34:03.792Z</time></trkpt><trkpt lat="43.4897355" lon="11.3905075"><ele>459.0</ele><time>2026-03-29T11:34:04.808Z</time></trkpt><trkpt lat="43.4896879" lon="11.3903703"><ele>459.0</ele><time>2026-03-29T11:34:05.793Z</time></trkpt><trkpt lat="43.4896393" lon="11.3902363"><ele>458.2</ele><time>2026-03-29T11:34:06.796Z</time></trkpt><trkpt lat="43.4895929" lon="11.3901071"><ele>457.4</ele><time>2026-03-29T11:34:07.799Z</time></trkpt><trkpt lat="43.4895437" lon="11.389977"><ele>456.6</ele><time>2026-03-29T11:34:08.799Z</time></trkpt><trkpt lat="43.4894966" lon="11.3898424"><ele>455.8</ele><time>2026-03-29T11:34:09.8Z</time></trkpt><trkpt lat="43.4894496" lon="11.3897103"><ele>455.0</ele><time>2026-03-29T11:34:10.812Z</time></trkpt><trkpt lat="43.4894051" lon="11.3895856"><ele>455.0</ele><time>2026-03-29T11:34:11.786Z</time></trkpt><trkpt lat="43.4893572" lon="11.3894406"><ele>455.0</ele><time>2026-03-29T11:34:12.835Z</time></trkpt><trkpt lat="43.4893117" lon="11.3892779"><ele>455.0</ele><time>2026-03-29T11:34:13.918Z</time></trkpt><trkpt lat="43.4892972" lon="11.3891495"><ele>455.0</ele><time>2026-03-29T11:34:14.808Z</time></trkpt><trkpt lat="43.4892795" lon="11.3889701"><ele>454.0</ele><time>2026-03-29T11:34:15.832Z</time></trkpt><trkpt lat="43.489287" lon="11.388813"><ele>453.0</ele><time>2026-03-29T11:34:16.789Z</time></trkpt><trkpt lat="43.4893656" lon="11.3886243"><ele>452.0</ele><time>2026-03-29T11:34:17.798Z</time></trkpt><trkpt lat="43.4893982" lon="11.3884223"><ele>451.0</ele><time>2026-03-29T11:34:18.809Z</time></trkpt><trkpt lat="43.4894319" lon="11.3882149"><ele>450.0</ele><time>2026-03-29T11:34:19.775Z</time></trkpt><trkpt lat="43.4894602" lon="11.3879919"><ele>449.0</ele><time>2026-03-29T11:34:20.799Z</time></trkpt><trkpt lat="43.4894767" lon="11.387777"><ele>448.0</ele><time>2026-03-29T11:34:21.793Z</time></trkpt><trkpt lat="43.4894973" lon="11.3875708"><ele>448.0</ele><time>2026-03-29T11:34:22.789Z</time></trkpt><trkpt lat="43.4895164" lon="11.3873671"><ele>448.0</ele><time>2026-03-29T11:34:23.815Z</time></trkpt><trkpt lat="43.4895302" lon="11.3871857"><ele>448.0</ele><time>2026-03-29T11:34:24.794Z</time></trkpt><trkpt lat="43.4895448" lon="11.387036"><ele>448.0</ele><time>2026-03-29T11:34:25.812Z</time></trkpt><trkpt lat="43.4895619" lon="11.3869038"><ele>447.83333333333337</ele><time>2026-03-29T11:34:26.793Z</time></trkpt><trkpt lat="43.4895882" lon="11.3867856"><ele>447.6666666666667</ele><time>2026-03-29T11:34:27.799Z</time></trkpt><trkpt lat="43.4896116" lon="11.3866872"><ele>447.5</ele><time>2026-03-29T11:34:28.786Z</time></trkpt><trkpt lat="43.489647" lon="11.3865923"><ele>447.33333333333337</ele><time>2026-03-29T11:34:29.817Z</time></trkpt><trkpt lat="43.4896947" lon="11.3865108"><ele>447.1666666666667</ele><time>2026-03-29T11:34:30.793Z</time></trkpt><trkpt lat="43.4897597" lon="11.3864451"><ele>447.0</ele><time>2026-03-29T11:34:31.796Z</time></trkpt><trkpt lat="43.4898227" lon="11.3864025"><ele>449.40000000000003</ele><time>2026-03-29T11:34:32.784Z</time></trkpt><trkpt lat="43.4899093" lon="11.3863857"><ele>451.80000000000007</ele><time>2026-03-29T11:34:33.795Z</time></trkpt><trkpt lat="43.4899929" lon="11.3863552"><ele>454.2</ele><time>2026-03-29T11:34:34.796Z</time></trkpt><trkpt lat="43.4900718" lon="11.3863113"><ele>456.6</ele><time>2026-03-29T11:34:35.793Z</time></trkpt><trkpt lat="43.4901425" lon="11.3862219"><ele>459.0</ele><time>2026-03-29T11:34:36.796Z</time></trkpt><trkpt lat="43.4902177" lon="11.3861312"><ele>459.0</ele><time>2026-03-29T11:34:37.779Z</time></trkpt><trkpt lat="43.4902863" lon="11.3860153"><ele>459.0</ele><time>2026-03-29T11:34:38.797Z</time></trkpt><trkpt lat="43.4903104" lon="11.3858668"><ele>459.0</ele><time>2026-03-29T11:34:39.808Z</time></trkpt><trkpt lat="43.4903303" lon="11.3857255"><ele>459.0</ele><time>2026-03-29T11:34:40.787Z</time></trkpt><trkpt lat="43.4903281" lon="11.385577"><ele>459.0</ele><time>2026-03-29T11:34:41.82Z</time></trkpt><trkpt lat="43.4903241" lon="11.3854472"><ele>458.79999999999995</ele><time>2026-03-29T11:34:42.795Z</time></trkpt><trkpt lat="43.4903184" lon="11.385315"><ele>458.59999999999997</ele><time>2026-03-29T11:34:43.794Z</time></trkpt><trkpt lat="43.4903018" lon="11.3851807"><ele>458.4</ele><time>2026-03-29T11:34:44.806Z</time></trkpt><trkpt lat="43.4902665" lon="11.3850467"><ele>458.2</ele><time>2026-03-29T11:34:45.79Z</time></trkpt><trkpt lat="43.4901968" lon="11.3849005"><ele>458.0</ele><time>2026-03-29T11:34:46.8Z</time></trkpt><trkpt lat="43.4901306" lon="11.384746"><ele>459.66666666666663</ele><time>2026-03-29T11:34:47.795Z</time></trkpt><trkpt lat="43.4900834" lon="11.3845453"><ele>461.33333333333337</ele><time>2026-03-29T11:34:48.801Z</time></trkpt><trkpt lat="43.4900428" lon="11.3843473"><ele>463.0</ele><time>2026-03-29T11:34:49.803Z</time></trkpt><trkpt lat="43.4900264" lon="11.3841394"><ele>463.0</ele><time>2026-03-29T11:34:50.793Z</time></trkpt><trkpt lat="43.4899709" lon="11.3839564"><ele>463.0</ele><time>2026-03-29T11:34:51.8Z</time></trkpt><trkpt lat="43.4898937" lon="11.3837862"><ele>463.0</ele><time>2026-03-29T11:34:52.796Z</time></trkpt><trkpt lat="43.4898144" lon="11.3836377"><ele>463.0</ele><time>2026-03-29T11:34:53.79Z</time></trkpt><trkpt lat="43.489669" lon="11.38349"><ele>465.33333333333337</ele><time>2026-03-29T11:34:54.808Z</time></trkpt><trkpt lat="43.4895314" lon="11.3833532"><ele>467.66666666666663</ele><time>2026-03-29T11:34:55.799Z</time></trkpt><trkpt lat="43.4893982" lon="11.3832099"><ele>470.0</ele><time>2026-03-29T11:34:56.805Z</time></trkpt><trkpt lat="43.4892713" lon="11.3830723"><ele>472.0</ele><time>2026-03-29T11:34:57.798Z</time></trkpt><trkpt lat="43.4891458" lon="11.3829487"><ele>474.0</ele><time>2026-03-29T11:34:58.799Z</time></trkpt><trkpt lat="43.4890272" lon="11.3828419"><ele>476.0</ele><time>2026-03-29T11:34:59.795Z</time></trkpt><trkpt lat="43.4889163" lon="11.3827452"><ele>478.0</ele><time>2026-03-29T11:35:00.802Z</time></trkpt><trkpt lat="43.488813" lon="11.3826506"><ele>478.5</ele><time>2026-03-29T11:35:01.8Z</time></trkpt><trkpt lat="43.4887132" lon="11.3825475"><ele>479.0</ele><time>2026-03-29T11:35:02.804Z</time></trkpt><trkpt lat="43.4886209" lon="11.3824359"><ele>479.5</ele><time>2026-03-29T11:35:03.805Z</time></trkpt><trkpt lat="43.4885393" lon="11.382314"><ele>480.0</ele><time>2026-03-29T11:35:04.798Z</time></trkpt><trkpt lat="43.4884687" lon="11.3821818"><ele>481.5</ele><time>2026-03-29T11:35:05.8Z</time></trkpt><trkpt lat="43.488402" lon="11.38204"><ele>483.0</ele><time>2026-03-29T11:35:06.821Z</time></trkpt><trkpt lat="43.4883367" lon="11.3818965"><ele>484.5</ele><time>2026-03-29T11:35:07.806Z</time></trkpt><trkpt lat="43.4882725" lon="11.3817502"><ele>486.0</ele><time>2026-03-29T11:35:08.795Z</time></trkpt><trkpt lat="43.4882075" lon="11.3815947"><ele>486.0</ele><time>2026-03-29T11:35:09.81Z</time></trkpt><trkpt lat="43.4881476" lon="11.3814311"><ele>486.0</ele><time>2026-03-29T11:35:10.797Z</time></trkpt><trkpt lat="43.4880869" lon="11.3812511"><ele>486.0</ele><time>2026-03-29T11:35:11.82Z</time></trkpt><trkpt lat="43.4880303" lon="11.3810858"><ele>486.0</ele><time>2026-03-29T11:35:12.798Z</time></trkpt><trkpt lat="43.4879809" lon="11.3809189"><ele>485.25</ele><time>2026-03-29T11:35:13.787Z</time></trkpt><trkpt lat="43.4879304" lon="11.380757"><ele>484.5</ele><time>2026-03-29T11:35:14.8Z</time></trkpt><trkpt lat="43.4879184" lon="11.3805654"><ele>483.75</ele><time>2026-03-29T11:35:15.786Z</time></trkpt><trkpt lat="43.4878989" lon="11.3803915"><ele>483.0</ele><time>2026-03-29T11:35:16.807Z</time></trkpt><trkpt lat="43.4878859" lon="11.3802291"><ele>487.0</ele><time>2026-03-29T11:35:17.792Z</time></trkpt><trkpt lat="43.4878717" lon="11.3800849"><ele>490.99999999999994</ele><time>2026-03-29T11:35:18.791Z</time></trkpt><trkpt lat="43.4878564" lon="11.3799466"><ele>494.99999999999994</ele><time>2026-03-29T11:35:19.782Z</time></trkpt><trkpt lat="43.4878256" lon="11.3798058"><ele>499.0</ele><time>2026-03-29T11:35:20.811Z</time></trkpt><trkpt lat="43.4877808" lon="11.3796738"><ele>503.0</ele><time>2026-03-29T11:35:21.788Z</time></trkpt><trkpt lat="43.4877096" lon="11.3795625"><ele>503.59999999999997</ele><time>2026-03-29T11:35:22.811Z</time></trkpt><trkpt lat="43.4876376" lon="11.3794492"><ele>504.19999999999993</ele><time>2026-03-29T11:35:23.806Z</time></trkpt><trkpt lat="43.4875633" lon="11.3793487"><ele>504.8</ele><time>2026-03-29T11:35:24.789Z</time></trkpt><trkpt lat="43.4874822" lon="11.3792522"><ele>505.4</ele><time>2026-03-29T11:35:25.81Z</time></trkpt><trkpt lat="43.4874128" lon="11.3791301"><ele>506.0</ele><time>2026-03-29T11:35:26.797Z</time></trkpt><trkpt lat="43.4873416" lon="11.3790036"><ele>506.0</ele><time>2026-03-29T11:35:27.799Z</time></trkpt><trkpt lat="43.4872638" lon="11.3788692"><ele>506.0</ele><time>2026-03-29T11:35:28.814Z</time></trkpt><trkpt lat="43.4871912" lon="11.3787359"><ele>506.0</ele><time>2026-03-29T11:35:29.781Z</time></trkpt><trkpt lat="43.487116" lon="11.3786022"><ele>506.0</ele><time>2026-03-29T11:35:30.801Z</time></trkpt><trkpt lat="43.4870451" lon="11.3784812"><ele>506.8</ele><time>2026-03-29T11:35:31.794Z</time></trkpt><trkpt lat="43.486983" lon="11.3783597"><ele>507.6</ele><time>2026-03-29T11:35:32.796Z</time></trkpt><trkpt lat="43.4869408" lon="11.3782349"><ele>508.4</ele><time>2026-03-29T11:35:33.793Z</time></trkpt><trkpt lat="43.4869095" lon="11.3781127"><ele>509.2</ele><time>2026-03-29T11:35:34.782Z</time></trkpt><trkpt lat="43.4868845" lon="11.3779897"><ele>510.0</ele><time>2026-03-29T11:35:35.792Z</time></trkpt><trkpt lat="43.4868653" lon="11.3778719"><ele>510.8333333333333</ele><time>2026-03-29T11:35:36.801Z</time></trkpt><trkpt lat="43.4868511" lon="11.3777607"><ele>511.66666666666663</ele><time>2026-03-29T11:35:37.804Z</time></trkpt><trkpt lat="43.4868509" lon="11.3776392"><ele>512.5</ele><time>2026-03-29T11:35:38.798Z</time></trkpt><trkpt lat="43.4868529" lon="11.3775177"><ele>513.3333333333333</ele><time>2026-03-29T11:35:39.794Z</time></trkpt><trkpt lat="43.4868618" lon="11.377389"><ele>514.1666666666666</ele><time>2026-03-29T11:35:40.792Z</time></trkpt><trkpt lat="43.4868714" lon="11.3772571"><ele>515.0</ele><time>2026-03-29T11:35:41.802Z</time></trkpt><trkpt lat="43.4868783" lon="11.3771268"><ele>515.0</ele><time>2026-03-29T11:35:42.789Z</time></trkpt><trkpt lat="43.4868869" lon="11.3769924"><ele>515.0</ele><time>2026-03-29T11:35:43.798Z</time></trkpt><trkpt lat="43.4868954" lon="11.3768578"><ele>515.0</ele><time>2026-03-29T11:35:44.791Z</time></trkpt><trkpt lat="43.4869071" lon="11.3767255"><ele>515.0</ele><time>2026-03-29T11:35:45.796Z</time></trkpt><trkpt lat="43.4869203" lon="11.3765988"><ele>515.0</ele><time>2026-03-29T11:35:46.805Z</time></trkpt><trkpt lat="43.4869309" lon="11.3764832"><ele>515.0</ele><time>2026-03-29T11:35:47.788Z</time></trkpt><trkpt lat="43.4869405" lon="11.3763718"><ele>515.0</ele><time>2026-03-29T11:35:48.806Z</time></trkpt><trkpt lat="43.4869487" lon="11.3762732"><ele>515.0</ele><time>2026-03-29T11:35:49.792Z</time></trkpt><trkpt lat="43.4869567" lon="11.3761863"><ele>515.0</ele><time>2026-03-29T11:35:50.782Z</time></trkpt><trkpt lat="43.4869676" lon="11.3760459"><ele>515.0</ele><time>2026-03-29T11:35:52.79Z</time></trkpt><trkpt lat="43.4869758" lon="11.3759358"><ele>515.0</ele><time>2026-03-29T11:35:54.812Z</time></trkpt><trkpt lat="43.48699" lon="11.3758479"><ele>516.1666666666666</ele><time>2026-03-29T11:35:56.816Z</time></trkpt><trkpt lat="43.4870461" lon="11.3757592"><ele>517.3333333333333</ele><time>2026-03-29T11:35:59.802Z</time></trkpt><trkpt lat="43.4871132" lon="11.3757106"><ele>518.5</ele><time>2026-03-29T11:36:01.812Z</time></trkpt><trkpt lat="43.4871805" lon="11.3756396"><ele>519.6666666666666</ele><time>2026-03-29T11:36:03.786Z</time></trkpt><trkpt lat="43.4872571" lon="11.3755669"><ele>520.8333333333334</ele><time>2026-03-29T11:36:05.801Z</time></trkpt><trkpt lat="43.4873539" lon="11.3754969"><ele>522.0</ele><time>2026-03-29T11:36:07.806Z</time></trkpt><trkpt lat="43.4874389" lon="11.37539"><ele>523.1666666666666</ele><time>2026-03-29T11:36:09.793Z</time></trkpt><trkpt lat="43.4875033" lon="11.3752754"><ele>524.3333333333334</ele><time>2026-03-29T11:36:11.779Z</time></trkpt><trkpt lat="43.487543" lon="11.3752074"><ele>525.5</ele><time>2026-03-29T11:36:12.809Z</time></trkpt><trkpt lat="43.4875881" lon="11.375054"><ele>526.6666666666667</ele><time>2026-03-29T11:36:14.801Z</time></trkpt><trkpt lat="43.487597" lon="11.3749679"><ele>527.8333333333334</ele><time>2026-03-29T11:36:15.783Z</time></trkpt><trkpt lat="43.487597" lon="11.3748767"><ele>529.0</ele><time>2026-03-29T11:36:16.784Z</time></trkpt><trkpt lat="43.4875911" lon="11.3747895"><ele>529.0</ele><time>2026-03-29T11:36:17.799Z</time></trkpt><trkpt lat="43.4875765" lon="11.3746983"><ele>529.0</ele><time>2026-03-29T11:36:18.785Z</time></trkpt><trkpt lat="43.48756" lon="11.3746104"><ele>529.0</ele><time>2026-03-29T11:36:19.789Z</time></trkpt><trkpt lat="43.4875206" lon="11.3744566"><ele>529.0</ele><time>2026-03-29T11:36:21.8Z</time></trkpt><trkpt lat="43.4875" lon="11.3743736"><ele>529.0</ele><time>2026-03-29T11:36:22.793Z</time></trkpt><trkpt lat="43.4874811" lon="11.3742905"><ele>529.0</ele><time>2026-03-29T11:36:23.797Z</time></trkpt><trkpt lat="43.4874583" lon="11.3742025"><ele>529.0</ele><time>2026-03-29T11:36:24.802Z</time></trkpt><trkpt lat="43.48743" lon="11.3740838"><ele>529.2</ele><time>2026-03-29T11:36:25.797Z</time></trkpt><trkpt lat="43.4873833" lon="11.3739326"><ele>529.4</ele><time>2026-03-29T11:36:27.799Z</time></trkpt><trkpt lat="43.4873135" lon="11.3738316"><ele>529.6</ele><time>2026-03-29T11:36:29.804Z</time></trkpt><trkpt lat="43.4872309" lon="11.3737495"><ele>529.8</ele><time>2026-03-29T11:36:31.847Z</time></trkpt><trkpt lat="43.4871546" lon="11.3736681"><ele>530.0</ele><time>2026-03-29T11:36:33.804Z</time></trkpt><trkpt lat="43.4870764" lon="11.3736097"><ele>530.0</ele><time>2026-03-29T11:36:35.792Z</time></trkpt><trkpt lat="43.4869964" lon="11.3735641"><ele>530.0</ele><time>2026-03-29T11:36:37.932Z</time></trkpt><trkpt lat="43.4869258" lon="11.3735101"><ele>530.0</ele><time>2026-03-29T11:36:39.797Z</time></trkpt><trkpt lat="43.4868523" lon="11.373452"><ele>530.0</ele><time>2026-03-29T11:36:41.789Z</time></trkpt><trkpt lat="43.4867828" lon="11.3733813"><ele>530.0</ele><time>2026-03-29T11:36:43.791Z</time></trkpt><trkpt lat="43.4867138" lon="11.3733359"><ele>530.0</ele><time>2026-03-29T11:36:45.8Z</time></trkpt><trkpt lat="43.4866528" lon="11.3732845"><ele>530.0</ele><time>2026-03-29T11:36:47.796Z</time></trkpt><trkpt lat="43.4865713" lon="11.3732166"><ele>530.0</ele><time>2026-03-29T11:36:50.793Z</time></trkpt><trkpt lat="43.4865145" lon="11.3731647"><ele>530.0</ele><time>2026-03-29T11:36:52.792Z</time></trkpt><trkpt lat="43.4864295" lon="11.3731893"><ele>530.0</ele><time>2026-03-29T11:36:55.817Z</time></trkpt><trkpt lat="43.4863774" lon="11.3733115"><ele>530.0</ele><time>2026-03-29T11:36:57.818Z</time></trkpt><trkpt lat="43.4863476" lon="11.3734352"><ele>530.0</ele><time>2026-03-29T11:36:59.802Z</time></trkpt><trkpt lat="43.4862963" lon="11.3735819"><ele>530.0</ele><time>2026-03-29T11:37:01.812Z</time></trkpt><trkpt lat="43.4862679" lon="11.3736715"><ele>530.0</ele><time>2026-03-29T11:37:02.8Z</time></trkpt><trkpt lat="43.4862401" lon="11.3737669"><ele>530.0</ele><time>2026-03-29T11:37:03.802Z</time></trkpt><trkpt lat="43.4862127" lon="11.3738693"><ele>530.0</ele><time>2026-03-29T11:37:04.79Z</time></trkpt><trkpt lat="43.4861846" lon="11.3739764"><ele>530.0</ele><time>2026-03-29T11:37:05.795Z</time></trkpt><trkpt lat="43.486158" lon="11.3740853"><ele>530.0</ele><time>2026-03-29T11:37:06.798Z</time></trkpt><trkpt lat="43.4861371" lon="11.3741994"><ele>530.3333333333333</ele><time>2026-03-29T11:37:07.811Z</time></trkpt><trkpt lat="43.4861277" lon="11.374318"><ele>530.6666666666666</ele><time>2026-03-29T11:37:08.809Z</time></trkpt><trkpt lat="43.4861339" lon="11.3744338"><ele>531.0</ele><time>2026-03-29T11:37:09.754Z</time></trkpt><trkpt lat="43.486153" lon="11.3745594"><ele>531.3333333333334</ele><time>2026-03-29T11:37:10.756Z</time></trkpt><trkpt lat="43.4861888" lon="11.3746773"><ele>531.6666666666667</ele><time>2026-03-29T11:37:11.749Z</time></trkpt><trkpt lat="43.4862368" lon="11.3747574"><ele>532.0</ele><time>2026-03-29T11:37:12.739Z</time></trkpt><trkpt lat="43.4862978" lon="11.3748607"><ele>532.0</ele><time>2026-03-29T11:37:13.752Z</time></trkpt><trkpt lat="43.4863569" lon="11.3749599"><ele>532.0</ele><time>2026-03-29T11:37:14.746Z</time></trkpt><trkpt lat="43.4864399" lon="11.3750833"><ele>532.0</ele><time>2026-03-29T11:37:16.06Z</time></trkpt><trkpt lat="43.4865466" lon="11.3752787"><ele>532.0</ele><time>2026-03-29T11:37:17.805Z</time></trkpt><trkpt lat="43.4866049" lon="11.3753781"><ele>532.0</ele><time>2026-03-29T11:37:18.815Z</time></trkpt><trkpt lat="43.486663" lon="11.3754679"><ele>532.0</ele><time>2026-03-29T11:37:19.802Z</time></trkpt><trkpt lat="43.4867193" lon="11.3755537"><ele>532.0</ele><time>2026-03-29T11:37:20.805Z</time></trkpt><trkpt lat="43.486766" lon="11.3756295"><ele>532.0</ele><time>2026-03-29T11:37:21.795Z</time></trkpt><trkpt lat="43.4868134" lon="11.3756963"><ele>532.0</ele><time>2026-03-29T11:37:22.814Z</time></trkpt><trkpt lat="43.4868581" lon="11.3757575"><ele>532.0</ele><time>2026-03-29T11:37:23.81Z</time></trkpt><trkpt lat="43.4869554" lon="11.3758126"><ele>531.5</ele><time>2026-03-29T11:37:25.729Z</time></trkpt><trkpt lat="43.4870367" lon="11.3757771"><ele>531.0</ele><time>2026-03-29T11:37:28.062Z</time></trkpt><trkpt lat="43.4871204" lon="11.3757078"><ele>530.5</ele><time>2026-03-29T11:37:30.81Z</time></trkpt><trkpt lat="43.4871749" lon="11.3756531"><ele>530.0</ele><time>2026-03-29T11:37:32.804Z</time></trkpt><trkpt lat="43.4872554" lon="11.375592"><ele>529.5</ele><time>2026-03-29T11:37:35.81Z</time></trkpt><trkpt lat="43.4873267" lon="11.375541"><ele>529.0</ele><time>2026-03-29T11:37:38.79Z</time></trkpt><trkpt lat="43.4873952" lon="11.3754864"><ele>529.0</ele><time>2026-03-29T11:37:41.809Z</time></trkpt><trkpt lat="43.4874516" lon="11.3754167"><ele>529.0</ele><time>2026-03-29T11:37:44.789Z</time></trkpt><trkpt lat="43.4874959" lon="11.3753261"><ele>529.0</ele><time>2026-03-29T11:37:47.796Z</time></trkpt><trkpt lat="43.487548" lon="11.3752598"><ele>529.0</ele><time>2026-03-29T11:37:50.787Z</time></trkpt><trkpt lat="43.4875717" lon="11.3753604"><ele>529.0</ele><time>2026-03-29T11:38:52.853Z</time></trkpt><trkpt lat="43.4875535" lon="11.3754477"><ele>529.0</ele><time>2026-03-29T11:38:54.857Z</time></trkpt><trkpt lat="43.4876185" lon="11.3754968"><ele>529.0</ele><time>2026-03-29T11:38:56.84Z</time></trkpt><trkpt lat="43.4876729" lon="11.3755603"><ele>529.0</ele><time>2026-03-29T11:38:58.837Z</time></trkpt><trkpt lat="43.4875679" lon="11.3754767"><ele>529.0</ele><time>2026-03-29T11:39:01.858Z</time></trkpt><trkpt lat="43.487499" lon="11.3754075"><ele>529.0</ele><time>2026-03-29T11:39:03.837Z</time></trkpt><trkpt lat="43.4875592" lon="11.3754585"><ele>529.0</ele><time>2026-03-29T11:40:11.831Z</time></trkpt><trkpt lat="43.487625" lon="11.3754674"><ele>529.0</ele><time>2026-03-29T11:40:18.832Z</time></trkpt><trkpt lat="43.4876645" lon="11.3755421"><ele>529.0</ele><time>2026-03-29T11:40:28.839Z</time></trkpt><trkpt lat="43.487613" lon="11.3756016"><ele>529.0</ele><time>2026-03-29T11:40:38.821Z</time></trkpt><trkpt lat="43.4875787" lon="11.3756836"><ele>529.0</ele><time>2026-03-29T11:40:47.833Z</time></trkpt><trkpt lat="43.487533" lon="11.3757582"><ele>529.0</ele><time>2026-03-29T11:40:56.774Z</time></trkpt><trkpt lat="43.4874997" lon="11.3758419"><ele>529.0</ele><time>2026-03-29T11:41:03.847Z</time></trkpt><trkpt lat="43.4874547" lon="11.3759108"><ele>529.0</ele><time>2026-03-29T11:41:09.842Z</time></trkpt><trkpt lat="43.4874455" lon="11.3760045"><ele>529.0</ele><time>2026-03-29T11:41:15.832Z</time></trkpt><trkpt lat="43.4874811" lon="11.376081"><ele>529.0</ele><time>2026-03-29T11:41:22.846Z</time></trkpt><trkpt lat="43.4875432" lon="11.3760959"><ele>529.0</ele><time>2026-03-29T11:41:29.845Z</time></trkpt><trkpt lat="43.4876123" lon="11.3761646"><ele>529.0</ele><time>2026-03-29T11:42:52.837Z</time></trkpt><trkpt lat="43.4875579" lon="11.3761101"><ele>529.0</ele><time>2026-03-29T11:42:58.768Z</time></trkpt><trkpt lat="43.4875425" lon="11.3760144"><ele>529.0</ele><time>2026-03-29T11:43:05.856Z</time></trkpt><trkpt lat="43.4875619" lon="11.3759164"><ele>529.0</ele><time>2026-03-29T11:43:11.813Z</time></trkpt><trkpt lat="43.4875277" lon="11.3758396"><ele>529.0</ele><time>2026-03-29T11:43:18.81Z</time></trkpt><trkpt lat="43.4875438" lon="11.3757532"><ele>529.0</ele><time>2026-03-29T11:43:42.799Z</time></trkpt><trkpt lat="43.4874984" lon="11.3756926"><ele>529.0</ele><time>2026-03-29T11:43:50.809Z</time></trkpt><trkpt lat="43.487436" lon="11.375665"><ele>529.0</ele><time>2026-03-29T11:43:59.825Z</time></trkpt><trkpt lat="43.4874017" lon="11.3755812"><ele>529.0</ele><time>2026-03-29T11:44:19.81Z</time></trkpt><trkpt lat="43.4874492" lon="11.3755139"><ele>529.0</ele><time>2026-03-29T11:44:26.852Z</time></trkpt><trkpt lat="43.4874748" lon="11.3754315"><ele>529.0</ele><time>2026-03-29T11:44:34.832Z</time></trkpt><trkpt lat="43.4875249" lon="11.3753695"><ele>529.0</ele><time>2026-03-29T11:44:39.846Z</time></trkpt><trkpt lat="43.4875805" lon="11.3753106"><ele>529.0</ele><time>2026-03-29T11:44:45.854Z</time></trkpt><trkpt lat="43.4875463" lon="11.3752348"><ele>529.0</ele><time>2026-03-29T11:44:53.841Z</time></trkpt><trkpt lat="43.4875104" lon="11.3753092"><ele>529.0</ele><time>2026-03-29T11:49:47.862Z</time></trkpt><trkpt lat="43.4874417" lon="11.3752343"><ele>529.0</ele><time>2026-03-29T11:51:08.868Z</time></trkpt><trkpt lat="43.4875247" lon="11.3752929"><ele>529.0</ele><time>2026-03-29T11:51:48.857Z</time></trkpt><trkpt lat="43.4874766" lon="11.3753673"><ele>529.0</ele><time>2026-03-29T11:53:58.865Z</time></trkpt><trkpt lat="43.4874408" lon="11.3754465"><ele>529.0</ele><time>2026-03-29T11:54:16.818Z</time></trkpt><trkpt lat="43.4874075" lon="11.3755215"><ele>529.0</ele><time>2026-03-29T11:54:22.808Z</time></trkpt><trkpt lat="43.4873967" lon="11.3756194"><ele>529.0</ele><time>2026-03-29T11:54:38.815Z</time></trkpt><trkpt lat="43.4874268" lon="11.375701"><ele>529.0</ele><time>2026-03-29T11:58:30.798Z</time></trkpt><trkpt lat="43.4874419" lon="11.3756149"><ele>529.0</ele><time>2026-03-29T12:01:07.853Z</time></trkpt><trkpt lat="43.4873956" lon="11.3755518"><ele>529.0</ele><time>2026-03-29T12:01:14.841Z</time></trkpt><trkpt lat="43.4874061" lon="11.3754601"><ele>529.0</ele><time>2026-03-29T12:01:24.834Z</time></trkpt><trkpt lat="43.4874455" lon="11.3753889"><ele>529.0</ele><time>2026-03-29T12:01:32.885Z</time></trkpt><trkpt lat="43.4874961" lon="11.3753268"><ele>529.0</ele><time>2026-03-29T12:01:42.81Z</time></trkpt><trkpt lat="43.4875258" lon="11.3752421"><ele>529.0</ele><time>2026-03-29T12:01:52.802Z</time></trkpt><trkpt lat="43.4875088" lon="11.375155"><ele>529.0</ele><time>2026-03-29T12:02:14.78Z</time></trkpt><trkpt lat="43.4875268" lon="11.375272"><ele>529.0</ele><time>2026-03-29T12:03:17.785Z</time></trkpt><trkpt lat="43.4875451" lon="11.3753562"><ele>529.0</ele><time>2026-03-29T12:05:28.819Z</time></trkpt><trkpt lat="43.4875413" lon="11.3752573"><ele>529.0</ele><time>2026-03-29T12:06:53.78Z</time></trkpt><trkpt lat="43.4875841" lon="11.3753233"><ele>529.0</ele><time>2026-03-29T12:07:16.767Z</time></trkpt><trkpt lat="43.4876404" lon="11.37538"><ele>529.0</ele><time>2026-03-29T12:07:23.748Z</time></trkpt><trkpt lat="43.4877067" lon="11.3754153"><ele>529.0</ele><time>2026-03-29T12:08:07.796Z</time></trkpt><trkpt lat="43.4876537" lon="11.3753034"><ele>529.0</ele><time>2026-03-29T12:11:34.867Z</time></trkpt><trkpt lat="43.4877059" lon="11.3753728"><ele>529.0</ele><time>2026-03-29T12:15:02.855Z</time></trkpt><trkpt lat="43.4876408" lon="11.3753456"><ele>529.0</ele><time>2026-03-29T12:24:26.872Z</time></trkpt><trkpt lat="43.4875719" lon="11.3753499"><ele>529.0</ele><time>2026-03-29T12:24:31.852Z</time></trkpt><trkpt lat="43.4874922" lon="11.3752951"><ele>529.0</ele><time>2026-03-29T12:25:01.873Z</time></trkpt><trkpt lat="43.4874716" lon="11.3752114"><ele>529.0</ele><time>2026-03-29T12:25:08.765Z</time></trkpt><trkpt lat="43.487535" lon="11.3752355"><ele>529.0</ele><time>2026-03-29T12:27:17.863Z</time></trkpt><trkpt lat="43.4875687" lon="11.3751528"><ele>529.0</ele><time>2026-03-29T12:30:01.799Z</time></trkpt><trkpt lat="43.4875353" lon="11.3749025"><ele>529.0</ele><time>2026-03-29T12:30:03.814Z</time></trkpt><trkpt lat="43.4875406" lon="11.3747847"><ele>529.0</ele><time>2026-03-29T12:30:04.811Z</time></trkpt><trkpt lat="43.4875333" lon="11.3746681"><ele>528.3333333333334</ele><time>2026-03-29T12:30:05.829Z</time></trkpt><trkpt lat="43.4875165" lon="11.3745526"><ele>527.6666666666667</ele><time>2026-03-29T12:30:06.841Z</time></trkpt><trkpt lat="43.4874997" lon="11.3744412"><ele>527.0</ele><time>2026-03-29T12:30:07.806Z</time></trkpt><trkpt lat="43.4874819" lon="11.3743269"><ele>526.3333333333334</ele><time>2026-03-29T12:30:08.814Z</time></trkpt><trkpt lat="43.4874682" lon="11.3742186"><ele>525.6666666666666</ele><time>2026-03-29T12:30:09.811Z</time></trkpt><trkpt lat="43.4874551" lon="11.3741274"><ele>525.0</ele><time>2026-03-29T12:30:10.8Z</time></trkpt><trkpt lat="43.4874288" lon="11.3739873"><ele>525.0</ele><time>2026-03-29T12:30:12.812Z</time></trkpt><trkpt lat="43.4873855" lon="11.3738608"><ele>525.0</ele><time>2026-03-29T12:30:14.819Z</time></trkpt><trkpt lat="43.487318" lon="11.3737609"><ele>525.0</ele><time>2026-03-29T12:30:16.807Z</time></trkpt><trkpt lat="43.4872254" lon="11.3736578"><ele>525.0</ele><time>2026-03-29T12:30:18.848Z</time></trkpt><trkpt lat="43.4871726" lon="11.3736092"><ele>525.0</ele><time>2026-03-29T12:30:19.815Z</time></trkpt><trkpt lat="43.4871166" lon="11.3735693"><ele>525.0</ele><time>2026-03-29T12:30:20.794Z</time></trkpt><trkpt lat="43.4870133" lon="11.3734988"><ele>526.0</ele><time>2026-03-29T12:30:22.796Z</time></trkpt><trkpt lat="43.486928" lon="11.3734309"><ele>527.0</ele><time>2026-03-29T12:30:24.836Z</time></trkpt><trkpt lat="43.4868353" lon="11.3733549"><ele>528.0</ele><time>2026-03-29T12:30:26.821Z</time></trkpt><trkpt lat="43.486744" lon="11.3732753"><ele>529.0</ele><time>2026-03-29T12:30:28.799Z</time></trkpt><trkpt lat="43.4866469" lon="11.3732024"><ele>530.0</ele><time>2026-03-29T12:30:30.802Z</time></trkpt><trkpt lat="43.486556" lon="11.3731259"><ele>530.0</ele><time>2026-03-29T12:30:32.807Z</time></trkpt><trkpt lat="43.4864758" lon="11.3730373"><ele>530.0</ele><time>2026-03-29T12:30:34.806Z</time></trkpt><trkpt lat="43.4864267" lon="11.3729352"><ele>530.0</ele><time>2026-03-29T12:30:36.81Z</time></trkpt><trkpt lat="43.4864143" lon="11.3727732"><ele>530.0</ele><time>2026-03-29T12:30:38.815Z</time></trkpt><trkpt lat="43.4864069" lon="11.3726828"><ele>530.0</ele><time>2026-03-29T12:30:39.81Z</time></trkpt><trkpt lat="43.486396" lon="11.3725842"><ele>530.0</ele><time>2026-03-29T12:30:40.807Z</time></trkpt><trkpt lat="43.4863844" lon="11.3724681"><ele>527.0</ele><time>2026-03-29T12:30:41.844Z</time></trkpt><trkpt lat="43.4863724" lon="11.372361"><ele>524.0</ele><time>2026-03-29T12:30:42.84Z</time></trkpt><trkpt lat="43.4863652" lon="11.3722489"><ele>521.0</ele><time>2026-03-29T12:30:43.863Z</time></trkpt><trkpt lat="43.4863268" lon="11.3720547"><ele>518.0</ele><time>2026-03-29T12:30:45.842Z</time></trkpt><trkpt lat="43.4863094" lon="11.3719433"><ele>515.0</ele><time>2026-03-29T12:30:47.794Z</time></trkpt><trkpt lat="43.486293" lon="11.3717873"><ele>516.0</ele><time>2026-03-29T12:30:48.802Z</time></trkpt><trkpt lat="43.4862734" lon="11.3716292"><ele>517.0</ele><time>2026-03-29T12:30:49.791Z</time></trkpt><trkpt lat="43.486246" lon="11.371425"><ele>518.0</ele><time>2026-03-29T12:30:50.812Z</time></trkpt><trkpt lat="43.4862146" lon="11.3712257"><ele>519.0</ele><time>2026-03-29T12:30:51.797Z</time></trkpt><trkpt lat="43.4861699" lon="11.3710043"><ele>519.0</ele><time>2026-03-29T12:30:52.811Z</time></trkpt><trkpt lat="43.4861271" lon="11.3708049"><ele>519.0</ele><time>2026-03-29T12:30:53.796Z</time></trkpt><trkpt lat="43.4860805" lon="11.3706274"><ele>519.0</ele><time>2026-03-29T12:30:54.804Z</time></trkpt><trkpt lat="43.4860373" lon="11.3704721"><ele>519.0</ele><time>2026-03-29T12:30:55.807Z</time></trkpt><trkpt lat="43.4859959" lon="11.3703313"><ele>517.6</ele><time>2026-03-29T12:30:56.817Z</time></trkpt><trkpt lat="43.4859493" lon="11.3701989"><ele>516.2</ele><time>2026-03-29T12:30:57.821Z</time></trkpt><trkpt lat="43.4858919" lon="11.3700715"><ele>514.8000000000001</ele><time>2026-03-29T12:30:58.803Z</time></trkpt><trkpt lat="43.4858197" lon="11.3699566"><ele>513.4</ele><time>2026-03-29T12:30:59.861Z</time></trkpt><trkpt lat="43.4857635" lon="11.3698887"><ele>512.0</ele><time>2026-03-29T12:31:00.835Z</time></trkpt><trkpt lat="43.485674" lon="11.3698127"><ele>512.0</ele><time>2026-03-29T12:31:01.845Z</time></trkpt><trkpt lat="43.4855663" lon="11.369757"><ele>512.0</ele><time>2026-03-29T12:31:02.832Z</time></trkpt><trkpt lat="43.485463" lon="11.3697077"><ele>512.0</ele><time>2026-03-29T12:31:03.849Z</time></trkpt><trkpt lat="43.4853727" lon="11.3696478"><ele>512.0</ele><time>2026-03-29T12:31:04.858Z</time></trkpt><trkpt lat="43.4852759" lon="11.3695972"><ele>512.0</ele><time>2026-03-29T12:31:05.837Z</time></trkpt><trkpt lat="43.4851951" lon="11.3695323"><ele>511.0</ele><time>2026-03-29T12:31:06.807Z</time></trkpt><trkpt lat="43.4851307" lon="11.369451"><ele>510.00000000000006</ele><time>2026-03-29T12:31:07.803Z</time></trkpt><trkpt lat="43.4850672" lon="11.3693642"><ele>509.00000000000006</ele><time>2026-03-29T12:31:08.813Z</time></trkpt><trkpt lat="43.4849924" lon="11.3692128"><ele>508.0</ele><time>2026-03-29T12:31:09.803Z</time></trkpt><trkpt lat="43.4849429" lon="11.3690774"><ele>507.0</ele><time>2026-03-29T12:31:10.809Z</time></trkpt><trkpt lat="43.4849032" lon="11.3689114"><ele>505.33333333333337</ele><time>2026-03-29T12:31:11.801Z</time></trkpt><trkpt lat="43.4848681" lon="11.3687232"><ele>503.6666666666667</ele><time>2026-03-29T12:31:12.806Z</time></trkpt><trkpt lat="43.4848312" lon="11.3685254"><ele>502.0</ele><time>2026-03-29T12:31:13.795Z</time></trkpt><trkpt lat="43.484772" lon="11.3683172"><ele>502.0</ele><time>2026-03-29T12:31:14.801Z</time></trkpt><trkpt lat="43.4847142" lon="11.3681107"><ele>502.0</ele><time>2026-03-29T12:31:15.807Z</time></trkpt><trkpt lat="43.4846457" lon="11.3679062"><ele>502.0</ele><time>2026-03-29T12:31:16.798Z</time></trkpt><trkpt lat="43.4845978" lon="11.3676972"><ele>499.6666666666667</ele><time>2026-03-29T12:31:17.801Z</time></trkpt><trkpt lat="43.4845481" lon="11.3674894"><ele>497.33333333333337</ele><time>2026-03-29T12:31:18.797Z</time></trkpt><trkpt lat="43.4844916" lon="11.3672934"><ele>495.0</ele><time>2026-03-29T12:31:19.805Z</time></trkpt><trkpt lat="43.4844366" lon="11.3671176"><ele>495.0</ele><time>2026-03-29T12:31:20.8Z</time></trkpt><trkpt lat="43.4843921" lon="11.3669722"><ele>495.0</ele><time>2026-03-29T12:31:21.806Z</time></trkpt><trkpt lat="43.4843575" lon="11.3668396"><ele>495.0</ele><time>2026-03-29T12:31:22.801Z</time></trkpt><trkpt lat="43.4843227" lon="11.3666967"><ele>495.0</ele><time>2026-03-29T12:31:23.81Z</time></trkpt><trkpt lat="43.4843194" lon="11.3665673"><ele>495.0</ele><time>2026-03-29T12:31:24.801Z</time></trkpt><trkpt lat="43.4843268" lon="11.3664276"><ele>496.5</ele><time>2026-03-29T12:31:25.796Z</time></trkpt><trkpt lat="43.4843393" lon="11.3662908"><ele>498.0</ele><time>2026-03-29T12:31:26.797Z</time></trkpt><trkpt lat="43.4843558" lon="11.3661391"><ele>499.5</ele><time>2026-03-29T12:31:27.811Z</time></trkpt><trkpt lat="43.4843651" lon="11.3659926"><ele>501.0</ele><time>2026-03-29T12:31:28.803Z</time></trkpt><trkpt lat="43.4843073" lon="11.365817"><ele>501.0</ele><time>2026-03-29T12:31:30.803Z</time></trkpt><trkpt lat="43.4842271" lon="11.3656911"><ele>501.0</ele><time>2026-03-29T12:31:31.804Z</time></trkpt><trkpt lat="43.4840952" lon="11.3655804"><ele>501.0</ele><time>2026-03-29T12:31:32.807Z</time></trkpt><trkpt lat="43.4839636" lon="11.3654979"><ele>501.0</ele><time>2026-03-29T12:31:33.85Z</time></trkpt><trkpt lat="43.483845" lon="11.365442"><ele>502.20000000000005</ele><time>2026-03-29T12:31:34.853Z</time></trkpt><trkpt lat="43.4837005" lon="11.3654759"><ele>503.40000000000003</ele><time>2026-03-29T12:31:36.796Z</time></trkpt><trkpt lat="43.48362" lon="11.3655233"><ele>504.6</ele><time>2026-03-29T12:31:37.802Z</time></trkpt><trkpt lat="43.4835388" lon="11.3656007"><ele>505.8</ele><time>2026-03-29T12:31:38.798Z</time></trkpt><trkpt lat="43.4834664" lon="11.3656389"><ele>507.0</ele><time>2026-03-29T12:31:39.792Z</time></trkpt><trkpt lat="43.4833781" lon="11.3656347"><ele>507.0</ele><time>2026-03-29T12:31:40.798Z</time></trkpt><trkpt lat="43.4832996" lon="11.3655859"><ele>507.00000000000006</ele><time>2026-03-29T12:31:41.811Z</time></trkpt><trkpt lat="43.4832454" lon="11.3654985"><ele>507.00000000000006</ele><time>2026-03-29T12:31:42.84Z</time></trkpt><trkpt lat="43.4831659" lon="11.3654296"><ele>507.0</ele><time>2026-03-29T12:31:43.808Z</time></trkpt><trkpt lat="43.4830984" lon="11.3653471"><ele>507.0</ele><time>2026-03-29T12:31:44.818Z</time></trkpt><trkpt lat="43.4830456" lon="11.3652252"><ele>509.75</ele><time>2026-03-29T12:31:45.803Z</time></trkpt><trkpt lat="43.4830097" lon="11.3650848"><ele>512.5</ele><time>2026-03-29T12:31:47.845Z</time></trkpt><trkpt lat="43.4829325" lon="11.3648277"><ele>515.25</ele><time>2026-03-29T12:31:49.851Z</time></trkpt><trkpt lat="43.4828884" lon="11.3647406"><ele>518.0</ele><time>2026-03-29T12:31:50.804Z</time></trkpt><trkpt lat="43.4828152" lon="11.3646481"><ele>518.0</ele><time>2026-03-29T12:31:51.802Z</time></trkpt><trkpt lat="43.4826635" lon="11.3646613"><ele>518.0</ele><time>2026-03-29T12:31:53.816Z</time></trkpt><trkpt lat="43.4825024" lon="11.364719"><ele>518.0</ele><time>2026-03-29T12:31:54.85Z</time></trkpt><trkpt lat="43.4822877" lon="11.3647811"><ele>521.6666666666666</ele><time>2026-03-29T12:31:55.813Z</time></trkpt><trkpt lat="43.4820915" lon="11.3648306"><ele>525.3333333333334</ele><time>2026-03-29T12:31:56.869Z</time></trkpt><trkpt lat="43.4819685" lon="11.3648964"><ele>529.0</ele><time>2026-03-29T12:31:57.808Z</time></trkpt><trkpt lat="43.4818275" lon="11.3649213"><ele>529.0</ele><time>2026-03-29T12:31:58.814Z</time></trkpt><trkpt lat="43.4817026" lon="11.3648956"><ele>529.0</ele><time>2026-03-29T12:31:59.811Z</time></trkpt><trkpt lat="43.48154" lon="11.3648424"><ele>529.0</ele><time>2026-03-29T12:32:00.813Z</time></trkpt><trkpt lat="43.4813382" lon="11.3646978"><ele>535.0</ele><time>2026-03-29T12:32:02.123Z</time></trkpt><trkpt lat="43.4811564" lon="11.3645984"><ele>541.0</ele><time>2026-03-29T12:32:03.867Z</time></trkpt><trkpt lat="43.4808749" lon="11.3653097"><ele>541.0</ele><time>2026-03-29T12:32:04.854Z</time></trkpt><trkpt lat="43.4807119" lon="11.3652793"><ele>541.0</ele><time>2026-03-29T12:32:05.862Z</time></trkpt><trkpt lat="43.480572" lon="11.3652651"><ele>541.0</ele><time>2026-03-29T12:32:06.868Z</time></trkpt><trkpt lat="43.4803986" lon="11.3653144"><ele>541.6666666666667</ele><time>2026-03-29T12:32:07.866Z</time></trkpt><trkpt lat="43.4802291" lon="11.3653441"><ele>542.3333333333334</ele><time>2026-03-29T12:32:08.859Z</time></trkpt><trkpt lat="43.4800668" lon="11.3653832"><ele>543.0</ele><time>2026-03-29T12:32:09.868Z</time></trkpt><trkpt lat="43.4799085" lon="11.3654543"><ele>541.6666666666666</ele><time>2026-03-29T12:32:10.874Z</time></trkpt><trkpt lat="43.4797551" lon="11.3655642"><ele>540.3333333333333</ele><time>2026-03-29T12:32:11.852Z</time></trkpt><trkpt lat="43.4795726" lon="11.3656773"><ele>539.0</ele><time>2026-03-29T12:32:12.9Z</time></trkpt><trkpt lat="43.4794008" lon="11.3657687"><ele>539.0</ele><time>2026-03-29T12:32:13.866Z</time></trkpt><trkpt lat="43.4792118" lon="11.3658476"><ele>539.0</ele><time>2026-03-29T12:32:14.862Z</time></trkpt><trkpt lat="43.4790083" lon="11.3659108"><ele>539.0</ele><time>2026-03-29T12:32:15.881Z</time></trkpt><trkpt lat="43.478818" lon="11.3659708"><ele>542.3333333333333</ele><time>2026-03-29T12:32:16.869Z</time></trkpt><trkpt lat="43.4786295" lon="11.3660251"><ele>545.6666666666666</ele><time>2026-03-29T12:32:17.883Z</time></trkpt><trkpt lat="43.4784537" lon="11.3660685"><ele>549.0</ele><time>2026-03-29T12:32:18.849Z</time></trkpt><trkpt lat="43.4782792" lon="11.3661246"><ele>549.0</ele><time>2026-03-29T12:32:19.853Z</time></trkpt><trkpt lat="43.4781181" lon="11.3661881"><ele>549.0</ele><time>2026-03-29T12:32:20.865Z</time></trkpt><trkpt lat="43.47797" lon="11.3662521"><ele>549.0</ele><time>2026-03-29T12:32:21.854Z</time></trkpt><trkpt lat="43.4778222" lon="11.3663065"><ele>550.6666666666666</ele><time>2026-03-29T12:32:22.865Z</time></trkpt><trkpt lat="43.4776472" lon="11.3663605"><ele>552.3333333333333</ele><time>2026-03-29T12:32:23.855Z</time></trkpt><trkpt lat="43.4774655" lon="11.3663784"><ele>554.0</ele><time>2026-03-29T12:32:24.879Z</time></trkpt><trkpt lat="43.4773114" lon="11.3663438"><ele>554.0</ele><time>2026-03-29T12:32:25.865Z</time></trkpt><trkpt lat="43.4771656" lon="11.3663338"><ele>554.0</ele><time>2026-03-29T12:32:26.864Z</time></trkpt><trkpt lat="43.4770143" lon="11.3663505"><ele>554.0</ele><time>2026-03-29T12:32:27.869Z</time></trkpt><trkpt lat="43.4768793" lon="11.3663788"><ele>554.0</ele><time>2026-03-29T12:32:28.867Z</time></trkpt><trkpt lat="43.4767453" lon="11.3663697"><ele>552.25</ele><time>2026-03-29T12:32:29.874Z</time></trkpt><trkpt lat="43.4766344" lon="11.3663489"><ele>550.5</ele><time>2026-03-29T12:32:30.859Z</time></trkpt><trkpt lat="43.4765655" lon="11.3662721"><ele>548.75</ele><time>2026-03-29T12:32:31.856Z</time></trkpt><trkpt lat="43.4765578" lon="11.3661267"><ele>547.0</ele><time>2026-03-29T12:32:32.858Z</time></trkpt><trkpt lat="43.4765462" lon="11.365914"><ele>547.0</ele><time>2026-03-29T12:32:33.853Z</time></trkpt><trkpt lat="43.4765913" lon="11.3656898"><ele>547.0</ele><time>2026-03-29T12:32:34.86Z</time></trkpt><trkpt lat="43.4766912" lon="11.365486"><ele>547.0</ele><time>2026-03-29T12:32:35.862Z</time></trkpt><trkpt lat="43.476776" lon="11.3652731"><ele>545.3333333333334</ele><time>2026-03-29T12:32:36.868Z</time></trkpt><trkpt lat="43.4768629" lon="11.3650658"><ele>543.6666666666666</ele><time>2026-03-29T12:32:37.861Z</time></trkpt><trkpt lat="43.4769791" lon="11.3648447"><ele>542.0</ele><time>2026-03-29T12:32:38.87Z</time></trkpt><trkpt lat="43.4771013" lon="11.3646407"><ele>544.3333333333333</ele><time>2026-03-29T12:32:39.853Z</time></trkpt><trkpt lat="43.4772334" lon="11.3644628"><ele>546.6666666666666</ele><time>2026-03-29T12:32:40.859Z</time></trkpt><trkpt lat="43.4773885" lon="11.3643026"><ele>549.0</ele><time>2026-03-29T12:32:41.866Z</time></trkpt><trkpt lat="43.4775652" lon="11.3641634"><ele>549.0</ele><time>2026-03-29T12:32:42.852Z</time></trkpt><trkpt lat="43.4777601" lon="11.3640375"><ele>549.0</ele><time>2026-03-29T12:32:43.854Z</time></trkpt><trkpt lat="43.4779529" lon="11.3639179"><ele>549.0</ele><time>2026-03-29T12:32:44.864Z</time></trkpt><trkpt lat="43.4781398" lon="11.3637899"><ele>548.6666666666666</ele><time>2026-03-29T12:32:45.886Z</time></trkpt><trkpt lat="43.4783096" lon="11.3636497"><ele>548.3333333333333</ele><time>2026-03-29T12:32:46.867Z</time></trkpt><trkpt lat="43.4784621" lon="11.3634906"><ele>548.0</ele><time>2026-03-29T12:32:47.852Z</time></trkpt><trkpt lat="43.4786066" lon="11.3633405"><ele>548.0</ele><time>2026-03-29T12:32:48.863Z</time></trkpt><trkpt lat="43.4787493" lon="11.3632133"><ele>548.0</ele><time>2026-03-29T12:32:49.874Z</time></trkpt><trkpt lat="43.4788904" lon="11.3631215"><ele>548.0</ele><time>2026-03-29T12:32:50.86Z</time></trkpt><trkpt lat="43.4790268" lon="11.3630507"><ele>549.0</ele><time>2026-03-29T12:32:51.864Z</time></trkpt><trkpt lat="43.4791518" lon="11.3629884"><ele>550.0</ele><time>2026-03-29T12:32:52.848Z</time></trkpt><trkpt lat="43.4792807" lon="11.3629134"><ele>551.0</ele><time>2026-03-29T12:32:53.86Z</time></trkpt><trkpt lat="43.4794038" lon="11.3628067"><ele>552.0</ele><time>2026-03-29T12:32:54.862Z</time></trkpt><trkpt lat="43.4794637" lon="11.3626561"><ele>552.0</ele><time>2026-03-29T12:32:55.861Z</time></trkpt><trkpt lat="43.4794769" lon="11.3624251"><ele>552.0</ele><time>2026-03-29T12:32:56.88Z</time></trkpt><trkpt lat="43.4794823" lon="11.3622376"><ele>552.0</ele><time>2026-03-29T12:32:57.86Z</time></trkpt><trkpt lat="43.4794231" lon="11.3620153"><ele>553.0</ele><time>2026-03-29T12:32:58.872Z</time></trkpt><trkpt lat="43.4793504" lon="11.3618022"><ele>554.0</ele><time>2026-03-29T12:32:59.868Z</time></trkpt><trkpt lat="43.4793104" lon="11.3615711"><ele>555.0</ele><time>2026-03-29T12:33:00.858Z</time></trkpt><trkpt lat="43.4792726" lon="11.3613341"><ele>555.6666666666666</ele><time>2026-03-29T12:33:01.809Z</time></trkpt><trkpt lat="43.4792341" lon="11.3610621"><ele>556.3333333333333</ele><time>2026-03-29T12:33:02.797Z</time></trkpt><trkpt lat="43.4791999" lon="11.3607677"><ele>557.0</ele><time>2026-03-29T12:33:03.805Z</time></trkpt><trkpt lat="43.4791398" lon="11.3604509"><ele>559.5</ele><time>2026-03-29T12:33:04.806Z</time></trkpt><trkpt lat="43.4790565" lon="11.3601294"><ele>562.0</ele><time>2026-03-29T12:33:05.816Z</time></trkpt><trkpt lat="43.4789673" lon="11.3598072"><ele>564.0</ele><time>2026-03-29T12:33:06.82Z</time></trkpt><trkpt lat="43.478878" lon="11.3595051"><ele>566.0</ele><time>2026-03-29T12:33:07.818Z</time></trkpt><trkpt lat="43.4787957" lon="11.3592386"><ele>568.0</ele><time>2026-03-29T12:33:08.8Z</time></trkpt><trkpt lat="43.4787088" lon="11.3589867"><ele>562.6666666666667</ele><time>2026-03-29T12:33:09.84Z</time></trkpt><trkpt lat="43.4786244" lon="11.3587883"><ele>557.3333333333334</ele><time>2026-03-29T12:33:10.855Z</time></trkpt><trkpt lat="43.4785595" lon="11.3586034"><ele>552.0</ele><time>2026-03-29T12:33:11.802Z</time></trkpt><trkpt lat="43.4785074" lon="11.3584182"><ele>552.0</ele><time>2026-03-29T12:33:12.81Z</time></trkpt><trkpt lat="43.4784735" lon="11.3582555"><ele>552.0</ele><time>2026-03-29T12:33:13.796Z</time></trkpt><trkpt lat="43.4784662" lon="11.3580854"><ele>552.0</ele><time>2026-03-29T12:33:14.806Z</time></trkpt><trkpt lat="43.478522" lon="11.357902"><ele>552.0</ele><time>2026-03-29T12:33:15.804Z</time></trkpt><trkpt lat="43.4786339" lon="11.3577198"><ele>557.3333333333334</ele><time>2026-03-29T12:33:16.8Z</time></trkpt><trkpt lat="43.4787999" lon="11.3575511"><ele>562.6666666666667</ele><time>2026-03-29T12:33:17.828Z</time></trkpt><trkpt lat="43.4789637" lon="11.3573998"><ele>568.0</ele><time>2026-03-29T12:33:18.794Z</time></trkpt><trkpt lat="43.4790817" lon="11.3572281"><ele>566.0</ele><time>2026-03-29T12:33:19.864Z</time></trkpt><trkpt lat="43.4791324" lon="11.3570543"><ele>564.0</ele><time>2026-03-29T12:33:20.812Z</time></trkpt><trkpt lat="43.4791257" lon="11.3568503"><ele>562.0</ele><time>2026-03-29T12:33:21.799Z</time></trkpt><trkpt lat="43.4790819" lon="11.3566194"><ele>561.3333333333334</ele><time>2026-03-29T12:33:22.822Z</time></trkpt><trkpt lat="43.479034" lon="11.3563592"><ele>560.6666666666666</ele><time>2026-03-29T12:33:23.816Z</time></trkpt><trkpt lat="43.4789621" lon="11.356104"><ele>560.0</ele><time>2026-03-29T12:33:24.827Z</time></trkpt><trkpt lat="43.4788653" lon="11.3558388"><ele>560.0</ele><time>2026-03-29T12:33:25.844Z</time></trkpt><trkpt lat="43.4787968" lon="11.3556121"><ele>560.0</ele><time>2026-03-29T12:33:26.801Z</time></trkpt><trkpt lat="43.478745" lon="11.3553606"><ele>560.0</ele><time>2026-03-29T12:33:27.839Z</time></trkpt><trkpt lat="43.4786957" lon="11.3551184"><ele>560.3333333333333</ele><time>2026-03-29T12:33:28.809Z</time></trkpt><trkpt lat="43.478667" lon="11.3548734"><ele>560.6666666666666</ele><time>2026-03-29T12:33:29.815Z</time></trkpt><trkpt lat="43.4786342" lon="11.3546277"><ele>561.0</ele><time>2026-03-29T12:33:30.817Z</time></trkpt><trkpt lat="43.4785932" lon="11.3543814"><ele>560.3333333333334</ele><time>2026-03-29T12:33:31.799Z</time></trkpt><trkpt lat="43.4785352" lon="11.3541268"><ele>559.6666666666667</ele><time>2026-03-29T12:33:32.814Z</time></trkpt><trkpt lat="43.4784577" lon="11.3538896"><ele>559.0</ele><time>2026-03-29T12:33:33.8Z</time></trkpt><trkpt lat="43.4783601" lon="11.3536671"><ele>559.0</ele><time>2026-03-29T12:33:34.855Z</time></trkpt><trkpt lat="43.4782668" lon="11.3534708"><ele>559.0</ele><time>2026-03-29T12:33:35.817Z</time></trkpt><trkpt lat="43.4781796" lon="11.3532776"><ele>559.0</ele><time>2026-03-29T12:33:36.81Z</time></trkpt><trkpt lat="43.4780897" lon="11.3531061"><ele>557.0</ele><time>2026-03-29T12:33:37.81Z</time></trkpt><trkpt lat="43.4780031" lon="11.3529572"><ele>555.0</ele><time>2026-03-29T12:33:38.812Z</time></trkpt><trkpt lat="43.4779254" lon="11.352804"><ele>553.0</ele><time>2026-03-29T12:33:39.818Z</time></trkpt><trkpt lat="43.4778567" lon="11.3526461"><ele>551.0</ele><time>2026-03-29T12:33:40.803Z</time></trkpt><trkpt lat="43.4778069" lon="11.3524551"><ele>558.0</ele><time>2026-03-29T12:33:41.816Z</time></trkpt><trkpt lat="43.4778133" lon="11.3522694"><ele>565.0</ele><time>2026-03-29T12:33:42.816Z</time></trkpt><trkpt lat="43.4778465" lon="11.3520787"><ele>572.0</ele><time>2026-03-29T12:33:43.8Z</time></trkpt><trkpt lat="43.4778735" lon="11.351864"><ele>579.0</ele><time>2026-03-29T12:33:44.836Z</time></trkpt><trkpt lat="43.477874" lon="11.3516539"><ele>579.0</ele><time>2026-03-29T12:33:45.801Z</time></trkpt><trkpt lat="43.4778402" lon="11.3514426"><ele>579.0</ele><time>2026-03-29T12:33:46.849Z</time></trkpt><trkpt lat="43.477753" lon="11.3512932"><ele>579.0</ele><time>2026-03-29T12:33:47.801Z</time></trkpt><trkpt lat="43.4776212" lon="11.3511258"><ele>576.6666666666666</ele><time>2026-03-29T12:33:48.801Z</time></trkpt><trkpt lat="43.4774921" lon="11.3509424"><ele>574.3333333333333</ele><time>2026-03-29T12:33:49.841Z</time></trkpt><trkpt lat="43.4774205" lon="11.3507264"><ele>572.0</ele><time>2026-03-29T12:33:50.843Z</time></trkpt><trkpt lat="43.4773948" lon="11.3505036"><ele>571.0</ele><time>2026-03-29T12:33:51.807Z</time></trkpt><trkpt lat="43.4774042" lon="11.3502689"><ele>570.0</ele><time>2026-03-29T12:33:52.829Z</time></trkpt><trkpt lat="43.4774583" lon="11.3500598"><ele>569.0</ele><time>2026-03-29T12:33:53.798Z</time></trkpt><trkpt lat="43.4775144" lon="11.3498335"><ele>566.75</ele><time>2026-03-29T12:33:54.859Z</time></trkpt><trkpt lat="43.4775612" lon="11.3496477"><ele>564.5</ele><time>2026-03-29T12:33:55.799Z</time></trkpt><trkpt lat="43.4775869" lon="11.349455"><ele>562.25</ele><time>2026-03-29T12:33:56.8Z</time></trkpt><trkpt lat="43.4775794" lon="11.3492524"><ele>560.0</ele><time>2026-03-29T12:33:57.811Z</time></trkpt><trkpt lat="43.4775421" lon="11.3490629"><ele>560.0</ele><time>2026-03-29T12:33:58.819Z</time></trkpt><trkpt lat="43.4774773" lon="11.3488969"><ele>560.0</ele><time>2026-03-29T12:33:59.828Z</time></trkpt><trkpt lat="43.4773203" lon="11.3487633"><ele>560.0</ele><time>2026-03-29T12:34:00.814Z</time></trkpt><trkpt lat="43.4771226" lon="11.3486308"><ele>566.0</ele><time>2026-03-29T12:34:01.816Z</time></trkpt><trkpt lat="43.4769462" lon="11.3484767"><ele>572.0</ele><time>2026-03-29T12:34:02.814Z</time></trkpt><trkpt lat="43.4768235" lon="11.3483098"><ele>578.0</ele><time>2026-03-29T12:34:03.811Z</time></trkpt><trkpt lat="43.4767592" lon="11.3481068"><ele>576.0</ele><time>2026-03-29T12:34:04.816Z</time></trkpt><trkpt lat="43.4767422" lon="11.3478422"><ele>574.0</ele><time>2026-03-29T12:34:05.821Z</time></trkpt><trkpt lat="43.4767583" lon="11.3475604"><ele>572.0</ele><time>2026-03-29T12:34:06.811Z</time></trkpt><trkpt lat="43.4767679" lon="11.3472941"><ele>569.25</ele><time>2026-03-29T12:34:07.813Z</time></trkpt><trkpt lat="43.4767482" lon="11.3470653"><ele>566.5</ele><time>2026-03-29T12:34:08.815Z</time></trkpt><trkpt lat="43.4767003" lon="11.3468674"><ele>563.75</ele><time>2026-03-29T12:34:09.851Z</time></trkpt><trkpt lat="43.4766383" lon="11.3467181"><ele>561.0</ele><time>2026-03-29T12:34:10.805Z</time></trkpt><trkpt lat="43.4765575" lon="11.3465858"><ele>561.0</ele><time>2026-03-29T12:34:11.805Z</time></trkpt><trkpt lat="43.4764319" lon="11.3465165"><ele>561.0</ele><time>2026-03-29T12:34:12.823Z</time></trkpt><trkpt lat="43.4763098" lon="11.3464769"><ele>561.0</ele><time>2026-03-29T12:34:13.809Z</time></trkpt><trkpt lat="43.476191" lon="11.3464641"><ele>561.0</ele><time>2026-03-29T12:34:14.815Z</time></trkpt><trkpt lat="43.4760547" lon="11.3464988"><ele>564.0</ele><time>2026-03-29T12:34:15.816Z</time></trkpt><trkpt lat="43.4758621" lon="11.3465855"><ele>567.0</ele><time>2026-03-29T12:34:16.809Z</time></trkpt><trkpt lat="43.4756865" lon="11.3466878"><ele>570.0</ele><time>2026-03-29T12:34:17.82Z</time></trkpt><trkpt lat="43.475558" lon="11.3467825"><ele>570.0</ele><time>2026-03-29T12:34:18.812Z</time></trkpt><trkpt lat="43.4754546" lon="11.3468261"><ele>570.0</ele><time>2026-03-29T12:34:19.808Z</time></trkpt><trkpt lat="43.4753555" lon="11.3468001"><ele>570.0</ele><time>2026-03-29T12:34:20.812Z</time></trkpt><trkpt lat="43.4752759" lon="11.3467305"><ele>570.0</ele><time>2026-03-29T12:34:21.818Z</time></trkpt><trkpt lat="43.4752226" lon="11.3465927"><ele>570.0</ele><time>2026-03-29T12:34:22.821Z</time></trkpt><trkpt lat="43.4752031" lon="11.3464271"><ele>574.6666666666666</ele><time>2026-03-29T12:34:23.8Z</time></trkpt><trkpt lat="43.4752178" lon="11.3462589"><ele>579.3333333333333</ele><time>2026-03-29T12:34:24.812Z</time></trkpt><trkpt lat="43.475285" lon="11.3460151"><ele>584.0</ele><time>2026-03-29T12:34:25.801Z</time></trkpt><trkpt lat="43.4753879" lon="11.3457748"><ele>580.6666666666666</ele><time>2026-03-29T12:34:26.796Z</time></trkpt><trkpt lat="43.4755037" lon="11.3455197"><ele>577.3333333333334</ele><time>2026-03-29T12:34:27.804Z</time></trkpt><trkpt lat="43.4756079" lon="11.3452793"><ele>574.0</ele><time>2026-03-29T12:34:28.822Z</time></trkpt><trkpt lat="43.4756846" lon="11.34507"><ele>574.0</ele><time>2026-03-29T12:34:29.822Z</time></trkpt><trkpt lat="43.4757458" lon="11.3448792"><ele>574.0</ele><time>2026-03-29T12:34:30.811Z</time></trkpt><trkpt lat="43.4757996" lon="11.3446726"><ele>574.0</ele><time>2026-03-29T12:34:31.841Z</time></trkpt><trkpt lat="43.4758431" lon="11.3444719"><ele>575.0</ele><time>2026-03-29T12:34:32.791Z</time></trkpt><trkpt lat="43.4758655" lon="11.3442445"><ele>576.0</ele><time>2026-03-29T12:34:33.822Z</time></trkpt><trkpt lat="43.4758637" lon="11.3440188"><ele>577.0</ele><time>2026-03-29T12:34:34.797Z</time></trkpt><trkpt lat="43.4758291" lon="11.3437839"><ele>577.3333333333334</ele><time>2026-03-29T12:34:35.822Z</time></trkpt><trkpt lat="43.4757763" lon="11.34357"><ele>577.6666666666666</ele><time>2026-03-29T12:34:36.811Z</time></trkpt><trkpt lat="43.4757216" lon="11.3433526"><ele>578.0</ele><time>2026-03-29T12:34:37.813Z</time></trkpt><trkpt lat="43.4756553" lon="11.3431593"><ele>579.6666666666666</ele><time>2026-03-29T12:34:38.807Z</time></trkpt><trkpt lat="43.4755919" lon="11.3429732"><ele>581.3333333333334</ele><time>2026-03-29T12:34:39.819Z</time></trkpt><trkpt lat="43.4755312" lon="11.342789"><ele>583.0</ele><time>2026-03-29T12:34:40.809Z</time></trkpt><trkpt lat="43.4754839" lon="11.3425802"><ele>583.0</ele><time>2026-03-29T12:34:41.803Z</time></trkpt><trkpt lat="43.4754687" lon="11.3423505"><ele>583.0</ele><time>2026-03-29T12:34:42.81Z</time></trkpt><trkpt lat="43.4754886" lon="11.3420876"><ele>583.0</ele><time>2026-03-29T12:34:43.803Z</time></trkpt><trkpt lat="43.4755345" lon="11.3417872"><ele>584.0</ele><time>2026-03-29T12:34:44.804Z</time></trkpt><trkpt lat="43.4756086" lon="11.3414534"><ele>585.0</ele><time>2026-03-29T12:34:45.801Z</time></trkpt><trkpt lat="43.4757225" lon="11.3411188"><ele>585.6666666666666</ele><time>2026-03-29T12:34:46.807Z</time></trkpt><trkpt lat="43.4758004" lon="11.3408185"><ele>586.3333333333333</ele><time>2026-03-29T12:34:47.825Z</time></trkpt><trkpt lat="43.4758439" lon="11.3405349"><ele>587.0</ele><time>2026-03-29T12:34:48.807Z</time></trkpt><trkpt lat="43.4758377" lon="11.3402816"><ele>588.0</ele><time>2026-03-29T12:34:49.835Z</time></trkpt><trkpt lat="43.4758173" lon="11.3400544"><ele>589.0</ele><time>2026-03-29T12:34:50.81Z</time></trkpt><trkpt lat="43.4757893" lon="11.3398327"><ele>590.0</ele><time>2026-03-29T12:34:51.822Z</time></trkpt><trkpt lat="43.4757872" lon="11.3395982"><ele>590.0</ele><time>2026-03-29T12:34:52.811Z</time></trkpt><trkpt lat="43.4758127" lon="11.3393502"><ele>590.0</ele><time>2026-03-29T12:34:53.813Z</time></trkpt><trkpt lat="43.475874" lon="11.3390685"><ele>590.0</ele><time>2026-03-29T12:34:54.802Z</time></trkpt><trkpt lat="43.4759584" lon="11.3387843"><ele>591.6666666666666</ele><time>2026-03-29T12:34:55.809Z</time></trkpt><trkpt lat="43.4760237" lon="11.3385164"><ele>593.3333333333334</ele><time>2026-03-29T12:34:56.808Z</time></trkpt><trkpt lat="43.4760651" lon="11.3382855"><ele>595.0</ele><time>2026-03-29T12:34:57.8Z</time></trkpt><trkpt lat="43.4760633" lon="11.3380773"><ele>595.75</ele><time>2026-03-29T12:34:58.809Z</time></trkpt><trkpt lat="43.4760402" lon="11.3378737"><ele>596.5</ele><time>2026-03-29T12:34:59.801Z</time></trkpt><trkpt lat="43.4759632" lon="11.337693"><ele>597.25</ele><time>2026-03-29T12:35:00.801Z</time></trkpt><trkpt lat="43.475873" lon="11.337535"><ele>598.0</ele><time>2026-03-29T12:35:01.821Z</time></trkpt><trkpt lat="43.4757878" lon="11.3373468"><ele>598.6666666666667</ele><time>2026-03-29T12:35:02.801Z</time></trkpt><trkpt lat="43.4756895" lon="11.3371387"><ele>599.3333333333334</ele><time>2026-03-29T12:35:03.804Z</time></trkpt><trkpt lat="43.475557" lon="11.3369177"><ele>600.0</ele><time>2026-03-29T12:35:04.814Z</time></trkpt><trkpt lat="43.4753905" lon="11.3366738"><ele>600.0</ele><time>2026-03-29T12:35:05.808Z</time></trkpt><trkpt lat="43.4752044" lon="11.3364305"><ele>600.0</ele><time>2026-03-29T12:35:06.811Z</time></trkpt><trkpt lat="43.4750351" lon="11.336187"><ele>595.5</ele><time>2026-03-29T12:35:07.804Z</time></trkpt><trkpt lat="43.4748717" lon="11.3359368"><ele>591.0</ele><time>2026-03-29T12:35:08.811Z</time></trkpt><trkpt lat="43.4747199" lon="11.3356661"><ele>594.6666666666666</ele><time>2026-03-29T12:35:09.867Z</time></trkpt><trkpt lat="43.4745923" lon="11.3354201"><ele>598.3333333333333</ele><time>2026-03-29T12:35:10.864Z</time></trkpt><trkpt lat="43.4745107" lon="11.3351946"><ele>602.0</ele><time>2026-03-29T12:35:11.852Z</time></trkpt><trkpt lat="43.4744354" lon="11.3350004"><ele>602.0</ele><time>2026-03-29T12:35:12.858Z</time></trkpt><trkpt lat="43.4743703" lon="11.3348315"><ele>602.0</ele><time>2026-03-29T12:35:13.819Z</time></trkpt><trkpt lat="43.474311" lon="11.3346639"><ele>602.0</ele><time>2026-03-29T12:35:14.848Z</time></trkpt><trkpt lat="43.4742506" lon="11.3345129"><ele>602.0</ele><time>2026-03-29T12:35:15.847Z</time></trkpt><trkpt lat="43.4741855" lon="11.334372"><ele>601.6</ele><time>2026-03-29T12:35:16.86Z</time></trkpt><trkpt lat="43.4741341" lon="11.3342278"><ele>601.2</ele><time>2026-03-29T12:35:17.863Z</time></trkpt><trkpt lat="43.4740944" lon="11.3341012"><ele>600.8</ele><time>2026-03-29T12:35:18.801Z</time></trkpt><trkpt lat="43.4740561" lon="11.3339607"><ele>600.4</ele><time>2026-03-29T12:35:19.813Z</time></trkpt><trkpt lat="43.4740351" lon="11.3338309"><ele>600.0</ele><time>2026-03-29T12:35:20.818Z</time></trkpt><trkpt lat="43.4740359" lon="11.3337082"><ele>600.0</ele><time>2026-03-29T12:35:21.818Z</time></trkpt><trkpt lat="43.4740575" lon="11.3335981"><ele>600.0</ele><time>2026-03-29T12:35:22.796Z</time></trkpt><trkpt lat="43.4741112" lon="11.3335268"><ele>600.0</ele><time>2026-03-29T12:35:23.811Z</time></trkpt><trkpt lat="43.4741722" lon="11.3334761"><ele>600.0</ele><time>2026-03-29T12:35:24.841Z</time></trkpt><trkpt lat="43.4742453" lon="11.3333611"><ele>600.0</ele><time>2026-03-29T12:35:25.811Z</time></trkpt><trkpt lat="43.4744118" lon="11.333247"><ele>600.6666666666666</ele><time>2026-03-29T12:35:26.801Z</time></trkpt><trkpt lat="43.4746057" lon="11.3331244"><ele>601.3333333333333</ele><time>2026-03-29T12:35:27.805Z</time></trkpt><trkpt lat="43.4747949" lon="11.3330773"><ele>602.0</ele><time>2026-03-29T12:35:28.804Z</time></trkpt><trkpt lat="43.4749608" lon="11.3330499"><ele>602.0</ele><time>2026-03-29T12:35:29.808Z</time></trkpt><trkpt lat="43.4751227" lon="11.3330382"><ele>602.0</ele><time>2026-03-29T12:35:30.806Z</time></trkpt><trkpt lat="43.4753079" lon="11.3330673"><ele>602.0</ele><time>2026-03-29T12:35:31.79Z</time></trkpt><trkpt lat="43.4756163" lon="11.3333581"><ele>603.0</ele><time>2026-03-29T12:35:32.803Z</time></trkpt><trkpt lat="43.4758199" lon="11.3334595"><ele>604.0</ele><time>2026-03-29T12:35:33.813Z</time></trkpt><trkpt lat="43.4760045" lon="11.3335334"><ele>605.0</ele><time>2026-03-29T12:35:34.806Z</time></trkpt><trkpt lat="43.47616" lon="11.3335359"><ele>606.25</ele><time>2026-03-29T12:35:35.804Z</time></trkpt><trkpt lat="43.4762793" lon="11.3334553"><ele>607.5</ele><time>2026-03-29T12:35:36.81Z</time></trkpt><trkpt lat="43.476366" lon="11.3332949"><ele>608.75</ele><time>2026-03-29T12:35:37.814Z</time></trkpt><trkpt lat="43.4764289" lon="11.3330902"><ele>610.0</ele><time>2026-03-29T12:35:38.802Z</time></trkpt><trkpt lat="43.4764768" lon="11.3328756"><ele>610.0</ele><time>2026-03-29T12:35:39.804Z</time></trkpt><trkpt lat="43.4765489" lon="11.3327247"><ele>610.0</ele><time>2026-03-29T12:35:40.807Z</time></trkpt><trkpt lat="43.4766474" lon="11.3326481"><ele>610.0</ele><time>2026-03-29T12:35:41.804Z</time></trkpt><trkpt lat="43.4767388" lon="11.3326217"><ele>610.0</ele><time>2026-03-29T12:35:42.805Z</time></trkpt><trkpt lat="43.4768455" lon="11.3325999"><ele>610.0</ele><time>2026-03-29T12:35:43.811Z</time></trkpt><trkpt lat="43.4769963" lon="11.3326156"><ele>611.0</ele><time>2026-03-29T12:35:44.808Z</time></trkpt><trkpt lat="43.4771416" lon="11.3326056"><ele>612.0</ele><time>2026-03-29T12:35:45.828Z</time></trkpt><trkpt lat="43.4773268" lon="11.3326393"><ele>613.0</ele><time>2026-03-29T12:35:46.811Z</time></trkpt><trkpt lat="43.4775412" lon="11.3326614"><ele>613.0</ele><time>2026-03-29T12:35:47.826Z</time></trkpt><trkpt lat="43.4777684" lon="11.3326916"><ele>613.0</ele><time>2026-03-29T12:35:48.81Z</time></trkpt><trkpt lat="43.4779622" lon="11.3326528"><ele>613.0</ele><time>2026-03-29T12:35:49.81Z</time></trkpt><trkpt lat="43.4781257" lon="11.3325712"><ele>614.6666666666667</ele><time>2026-03-29T12:35:50.819Z</time></trkpt><trkpt lat="43.4782393" lon="11.3324336"><ele>616.3333333333334</ele><time>2026-03-29T12:35:51.8Z</time></trkpt><trkpt lat="43.4783906" lon="11.3322124"><ele>618.0</ele><time>2026-03-29T12:35:52.809Z</time></trkpt><trkpt lat="43.4785324" lon="11.332056"><ele>618.0</ele><time>2026-03-29T12:35:53.813Z</time></trkpt><trkpt lat="43.4786722" lon="11.3319219"><ele>618.0</ele><time>2026-03-29T12:35:54.81Z</time></trkpt><trkpt lat="43.4787999" lon="11.3317991"><ele>618.0</ele><time>2026-03-29T12:35:55.85Z</time></trkpt><trkpt lat="43.4789348" lon="11.3316983"><ele>618.5</ele><time>2026-03-29T12:35:56.802Z</time></trkpt><trkpt lat="43.4790483" lon="11.3316163"><ele>619.0</ele><time>2026-03-29T12:35:57.805Z</time></trkpt><trkpt lat="43.4791479" lon="11.3315422"><ele>619.5</ele><time>2026-03-29T12:35:58.815Z</time></trkpt><trkpt lat="43.4792284" lon="11.3314411"><ele>620.0</ele><time>2026-03-29T12:35:59.803Z</time></trkpt><trkpt lat="43.4792991" lon="11.3313032"><ele>620.0</ele><time>2026-03-29T12:36:00.837Z</time></trkpt><trkpt lat="43.4793424" lon="11.3311558"><ele>620.0</ele><time>2026-03-29T12:36:01.849Z</time></trkpt><trkpt lat="43.4793732" lon="11.3310353"><ele>620.0</ele><time>2026-03-29T12:36:02.808Z</time></trkpt><trkpt lat="43.4793823" lon="11.3309001"><ele>620.0</ele><time>2026-03-29T12:36:03.806Z</time></trkpt><trkpt lat="43.479378" lon="11.3306798"><ele>619.3333333333333</ele><time>2026-03-29T12:36:04.799Z</time></trkpt><trkpt lat="43.479364" lon="11.330413"><ele>618.6666666666666</ele><time>2026-03-29T12:36:05.828Z</time></trkpt><trkpt lat="43.4793339" lon="11.3300811"><ele>618.0</ele><time>2026-03-29T12:36:06.812Z</time></trkpt><trkpt lat="43.4793411" lon="11.3297427"><ele>615.0</ele><time>2026-03-29T12:36:07.805Z</time></trkpt><trkpt lat="43.4793868" lon="11.3294827"><ele>612.0</ele><time>2026-03-29T12:36:08.816Z</time></trkpt><trkpt lat="43.4794478" lon="11.3292934"><ele>609.0</ele><time>2026-03-29T12:36:09.804Z</time></trkpt><trkpt lat="43.4795161" lon="11.329113"><ele>609.0</ele><time>2026-03-29T12:36:10.807Z</time></trkpt><trkpt lat="43.4795872" lon="11.3289768"><ele>609.0</ele><time>2026-03-29T12:36:11.803Z</time></trkpt><trkpt lat="43.4796722" lon="11.3288454"><ele>609.0</ele><time>2026-03-29T12:36:12.801Z</time></trkpt><trkpt lat="43.4797653" lon="11.3287482"><ele>609.0</ele><time>2026-03-29T12:36:13.818Z</time></trkpt><trkpt lat="43.4798718" lon="11.3286885"><ele>608.75</ele><time>2026-03-29T12:36:14.821Z</time></trkpt><trkpt lat="43.4800001" lon="11.3286701"><ele>608.5</ele><time>2026-03-29T12:36:15.814Z</time></trkpt><trkpt lat="43.4801595" lon="11.3287165"><ele>608.25</ele><time>2026-03-29T12:36:16.809Z</time></trkpt><trkpt lat="43.4802943" lon="11.3286711"><ele>608.0</ele><time>2026-03-29T12:36:17.834Z</time></trkpt><trkpt lat="43.4804127" lon="11.3285854"><ele>608.5</ele><time>2026-03-29T12:36:18.845Z</time></trkpt><trkpt lat="43.4804856" lon="11.3284438"><ele>609.0</ele><time>2026-03-29T12:36:19.863Z</time></trkpt><trkpt lat="43.4805094" lon="11.3282617"><ele>609.5</ele><time>2026-03-29T12:36:20.814Z</time></trkpt><trkpt lat="43.4805095" lon="11.3280167"><ele>610.0</ele><time>2026-03-29T12:36:21.813Z</time></trkpt><trkpt lat="43.4804686" lon="11.3277371"><ele>610.3333333333334</ele><time>2026-03-29T12:36:22.801Z</time></trkpt><trkpt lat="43.4804062" lon="11.3274481"><ele>610.6666666666666</ele><time>2026-03-29T12:36:23.816Z</time></trkpt><trkpt lat="43.4803374" lon="11.3271935"><ele>611.0</ele><time>2026-03-29T12:36:24.805Z</time></trkpt><trkpt lat="43.4802817" lon="11.326969"><ele>611.0</ele><time>2026-03-29T12:36:25.813Z</time></trkpt><trkpt lat="43.4802483" lon="11.3267844"><ele>611.0</ele><time>2026-03-29T12:36:26.813Z</time></trkpt><trkpt lat="43.4802418" lon="11.3266132"><ele>611.0</ele><time>2026-03-29T12:36:27.828Z</time></trkpt><trkpt lat="43.4802979" lon="11.3264528"><ele>611.0</ele><time>2026-03-29T12:36:28.8Z</time></trkpt><trkpt lat="43.4803899" lon="11.3262689"><ele>612.6666666666666</ele><time>2026-03-29T12:36:29.827Z</time></trkpt><trkpt lat="43.4805142" lon="11.326089"><ele>614.3333333333334</ele><time>2026-03-29T12:36:30.83Z</time></trkpt><trkpt lat="43.4806724" lon="11.3258939"><ele>616.0</ele><time>2026-03-29T12:36:31.814Z</time></trkpt><trkpt lat="43.4808472" lon="11.3256798"><ele>616.6666666666667</ele><time>2026-03-29T12:36:32.844Z</time></trkpt><trkpt lat="43.4809711" lon="11.3255157"><ele>617.3333333333334</ele><time>2026-03-29T12:36:33.812Z</time></trkpt><trkpt lat="43.4810852" lon="11.3253656"><ele>618.0</ele><time>2026-03-29T12:36:34.817Z</time></trkpt><trkpt lat="43.4811906" lon="11.3252412"><ele>617.75</ele><time>2026-03-29T12:36:35.808Z</time></trkpt><trkpt lat="43.481298" lon="11.3251247"><ele>617.5</ele><time>2026-03-29T12:36:36.815Z</time></trkpt><trkpt lat="43.4814056" lon="11.3250399"><ele>617.25</ele><time>2026-03-29T12:36:37.826Z</time></trkpt><trkpt lat="43.4815321" lon="11.3249522"><ele>617.0</ele><time>2026-03-29T12:36:38.842Z</time></trkpt><trkpt lat="43.4816614" lon="11.3248786"><ele>617.0</ele><time>2026-03-29T12:36:39.803Z</time></trkpt><trkpt lat="43.4817943" lon="11.3248096"><ele>617.0</ele><time>2026-03-29T12:36:40.82Z</time></trkpt><trkpt lat="43.4819173" lon="11.3247604"><ele>617.0</ele><time>2026-03-29T12:36:41.797Z</time></trkpt><trkpt lat="43.4820264" lon="11.3247035"><ele>617.0</ele><time>2026-03-29T12:36:42.817Z</time></trkpt><trkpt lat="43.4821393" lon="11.3246556"><ele>617.25</ele><time>2026-03-29T12:36:43.857Z</time></trkpt><trkpt lat="43.4822345" lon="11.3246114"><ele>617.5</ele><time>2026-03-29T12:36:44.818Z</time></trkpt><trkpt lat="43.4823377" lon="11.3245374"><ele>617.75</ele><time>2026-03-29T12:36:45.829Z</time></trkpt><trkpt lat="43.4824952" lon="11.3245111"><ele>618.0</ele><time>2026-03-29T12:36:46.855Z</time></trkpt><trkpt lat="43.4826522" lon="11.324462"><ele>618.0</ele><time>2026-03-29T12:36:47.81Z</time></trkpt><trkpt lat="43.4828393" lon="11.3244219"><ele>618.0</ele><time>2026-03-29T12:36:48.825Z</time></trkpt><trkpt lat="43.4830067" lon="11.3243729"><ele>618.0</ele><time>2026-03-29T12:36:49.829Z</time></trkpt><trkpt lat="43.4831807" lon="11.3242904"><ele>614.6666666666666</ele><time>2026-03-29T12:36:50.827Z</time></trkpt><trkpt lat="43.4833488" lon="11.3241769"><ele>611.3333333333333</ele><time>2026-03-29T12:36:51.82Z</time></trkpt><trkpt lat="43.4835309" lon="11.3240981"><ele>608.0</ele><time>2026-03-29T12:36:52.813Z</time></trkpt><trkpt lat="43.4836938" lon="11.3240145"><ele>605.3333333333333</ele><time>2026-03-29T12:36:53.801Z</time></trkpt><trkpt lat="43.4839182" lon="11.3240116"><ele>602.6666666666666</ele><time>2026-03-29T12:36:54.873Z</time></trkpt><trkpt lat="43.4841164" lon="11.3240197"><ele>600.0</ele><time>2026-03-29T12:36:55.803Z</time></trkpt><trkpt lat="43.4843224" lon="11.32402"><ele>600.0</ele><time>2026-03-29T12:36:56.835Z</time></trkpt><trkpt lat="43.4844833" lon="11.3239405"><ele>600.0</ele><time>2026-03-29T12:36:57.802Z</time></trkpt><trkpt lat="43.4847247" lon="11.3238763"><ele>600.0</ele><time>2026-03-29T12:36:59.108Z</time></trkpt><trkpt lat="43.4846123" lon="11.3230533"><ele>599.6666666666666</ele><time>2026-03-29T12:37:00.862Z</time></trkpt><trkpt lat="43.4846076" lon="11.3227056"><ele>599.3333333333333</ele><time>2026-03-29T12:37:01.887Z</time></trkpt><trkpt lat="43.4846371" lon="11.3224435"><ele>599.0</ele><time>2026-03-29T12:37:02.858Z</time></trkpt><trkpt lat="43.4846949" lon="11.3221982"><ele>599.0</ele><time>2026-03-29T12:37:03.885Z</time></trkpt><trkpt lat="43.4847562" lon="11.3219742"><ele>599.0</ele><time>2026-03-29T12:37:04.861Z</time></trkpt><trkpt lat="43.4848254" lon="11.3217437"><ele>599.0</ele><time>2026-03-29T12:37:05.87Z</time></trkpt><trkpt lat="43.4848993" lon="11.3215201"><ele>599.6666666666666</ele><time>2026-03-29T12:37:06.863Z</time></trkpt><trkpt lat="43.4849767" lon="11.3213023"><ele>600.3333333333334</ele><time>2026-03-29T12:37:07.867Z</time></trkpt><trkpt lat="43.4850508" lon="11.3210954"><ele>601.0</ele><time>2026-03-29T12:37:08.867Z</time></trkpt><trkpt lat="43.4851215" lon="11.3208953"><ele>601.0</ele><time>2026-03-29T12:37:09.857Z</time></trkpt><trkpt lat="43.4851847" lon="11.3206835"><ele>601.0</ele><time>2026-03-29T12:37:10.875Z</time></trkpt><trkpt lat="43.4852298" lon="11.3204561"><ele>601.0</ele><time>2026-03-29T12:37:11.869Z</time></trkpt><trkpt lat="43.4852469" lon="11.3202231"><ele>602.6666666666667</ele><time>2026-03-29T12:37:12.869Z</time></trkpt><trkpt lat="43.4852635" lon="11.3199923"><ele>604.3333333333334</ele><time>2026-03-29T12:37:13.87Z</time></trkpt><trkpt lat="43.485238" lon="11.3197871"><ele>606.0</ele><time>2026-03-29T12:37:14.855Z</time></trkpt><trkpt lat="43.4852416" lon="11.3195733"><ele>606.0</ele><time>2026-03-29T12:37:15.855Z</time></trkpt><trkpt lat="43.4852734" lon="11.3193502"><ele>606.0</ele><time>2026-03-29T12:37:16.87Z</time></trkpt><trkpt lat="43.4853294" lon="11.3191332"><ele>606.0</ele><time>2026-03-29T12:37:17.866Z</time></trkpt><trkpt lat="43.4853918" lon="11.3189205"><ele>604.0</ele><time>2026-03-29T12:37:18.858Z</time></trkpt><trkpt lat="43.4854785" lon="11.3187177"><ele>602.0</ele><time>2026-03-29T12:37:19.858Z</time></trkpt><trkpt lat="43.4855748" lon="11.3185297"><ele>600.0</ele><time>2026-03-29T12:37:20.864Z</time></trkpt><trkpt lat="43.4856933" lon="11.3183697"><ele>600.0</ele><time>2026-03-29T12:37:21.871Z</time></trkpt><trkpt lat="43.4858042" lon="11.318218"><ele>600.0</ele><time>2026-03-29T12:37:22.882Z</time></trkpt><trkpt lat="43.4859021" lon="11.318075"><ele>600.0</ele><time>2026-03-29T12:37:23.86Z</time></trkpt><trkpt lat="43.4859853" lon="11.3179381"><ele>600.0</ele><time>2026-03-29T12:37:24.883Z</time></trkpt><trkpt lat="43.4860458" lon="11.3177879"><ele>599.25</ele><time>2026-03-29T12:37:25.859Z</time></trkpt><trkpt lat="43.4860971" lon="11.3176226"><ele>598.5</ele><time>2026-03-29T12:37:26.881Z</time></trkpt><trkpt lat="43.4860942" lon="11.317468"><ele>597.75</ele><time>2026-03-29T12:37:27.882Z</time></trkpt><trkpt lat="43.486061" lon="11.3172915"><ele>597.0</ele><time>2026-03-29T12:37:28.869Z</time></trkpt><trkpt lat="43.4859994" lon="11.317133"><ele>600.0</ele><time>2026-03-29T12:37:29.877Z</time></trkpt><trkpt lat="43.4858078" lon="11.3170076"><ele>603.0</ele><time>2026-03-29T12:37:30.864Z</time></trkpt><trkpt lat="43.4856399" lon="11.3168251"><ele>606.0</ele><time>2026-03-29T12:37:31.868Z</time></trkpt><trkpt lat="43.4855275" lon="11.3166518"><ele>606.0</ele><time>2026-03-29T12:37:32.822Z</time></trkpt><trkpt lat="43.4854469" lon="11.316451"><ele>606.0</ele><time>2026-03-29T12:37:33.838Z</time></trkpt><trkpt lat="43.485406" lon="11.3162431"><ele>606.0</ele><time>2026-03-29T12:37:34.841Z</time></trkpt><trkpt lat="43.4854078" lon="11.3160395"><ele>605.5</ele><time>2026-03-29T12:37:35.802Z</time></trkpt><trkpt lat="43.4854346" lon="11.3158166"><ele>605.0</ele><time>2026-03-29T12:37:36.844Z</time></trkpt><trkpt lat="43.4854425" lon="11.3156242"><ele>604.5</ele><time>2026-03-29T12:37:37.835Z</time></trkpt><trkpt lat="43.4853988" lon="11.3154619"><ele>604.0</ele><time>2026-03-29T12:37:38.835Z</time></trkpt><trkpt lat="43.4853211" lon="11.3153358"><ele>604.0</ele><time>2026-03-29T12:37:39.854Z</time></trkpt><trkpt lat="43.4852015" lon="11.3152362"><ele>604.0</ele><time>2026-03-29T12:37:40.837Z</time></trkpt><trkpt lat="43.4850915" lon="11.3151292"><ele>604.0</ele><time>2026-03-29T12:37:41.811Z</time></trkpt><trkpt lat="43.4849509" lon="11.3150252"><ele>604.0</ele><time>2026-03-29T12:37:42.808Z</time></trkpt><trkpt lat="43.4847975" lon="11.3148982"><ele>607.3333333333334</ele><time>2026-03-29T12:37:43.806Z</time></trkpt><trkpt lat="43.4846924" lon="11.3147053"><ele>610.6666666666666</ele><time>2026-03-29T12:37:44.81Z</time></trkpt><trkpt lat="43.4845959" lon="11.3145001"><ele>614.0</ele><time>2026-03-29T12:37:45.853Z</time></trkpt><trkpt lat="43.4845332" lon="11.3142991"><ele>616.3333333333333</ele><time>2026-03-29T12:37:46.802Z</time></trkpt><trkpt lat="43.4845279" lon="11.3140506"><ele>618.6666666666666</ele><time>2026-03-29T12:37:47.849Z</time></trkpt><trkpt lat="43.4846165" lon="11.3137827"><ele>621.0</ele><time>2026-03-29T12:37:48.808Z</time></trkpt><trkpt lat="43.4846297" lon="11.3135728"><ele>622.5</ele><time>2026-03-29T12:37:49.832Z</time></trkpt><trkpt lat="43.4845794" lon="11.3133976"><ele>624.0</ele><time>2026-03-29T12:37:50.81Z</time></trkpt><trkpt lat="43.4845033" lon="11.3132409"><ele>625.5</ele><time>2026-03-29T12:37:51.813Z</time></trkpt><trkpt lat="43.4844198" lon="11.3131039"><ele>627.0</ele><time>2026-03-29T12:37:52.798Z</time></trkpt><trkpt lat="43.4843108" lon="11.3130358"><ele>627.0</ele><time>2026-03-29T12:37:53.815Z</time></trkpt><trkpt lat="43.4841776" lon="11.3130098"><ele>627.0</ele><time>2026-03-29T12:37:54.812Z</time></trkpt><trkpt lat="43.4840072" lon="11.3130233"><ele>627.0</ele><time>2026-03-29T12:37:55.811Z</time></trkpt><trkpt lat="43.4838157" lon="11.3130445"><ele>623.6666666666666</ele><time>2026-03-29T12:37:56.795Z</time></trkpt><trkpt lat="43.4835698" lon="11.3130863"><ele>620.3333333333333</ele><time>2026-03-29T12:37:57.822Z</time></trkpt><trkpt lat="43.4833859" lon="11.3130657"><ele>617.0</ele><time>2026-03-29T12:37:58.807Z</time></trkpt><trkpt lat="43.4832161" lon="11.3129851"><ele>617.0</ele><time>2026-03-29T12:37:59.812Z</time></trkpt><trkpt lat="43.4830564" lon="11.3128412"><ele>617.0</ele><time>2026-03-29T12:38:00.807Z</time></trkpt><trkpt lat="43.4828902" lon="11.3126456"><ele>617.0</ele><time>2026-03-29T12:38:01.805Z</time></trkpt><trkpt lat="43.4827411" lon="11.3124244"><ele>618.0</ele><time>2026-03-29T12:38:02.807Z</time></trkpt><trkpt lat="43.4826076" lon="11.3122259"><ele>619.0</ele><time>2026-03-29T12:38:03.818Z</time></trkpt><trkpt lat="43.482486" lon="11.3120655"><ele>620.0</ele><time>2026-03-29T12:38:04.807Z</time></trkpt><trkpt lat="43.4823346" lon="11.3119925"><ele>620.0</ele><time>2026-03-29T12:38:05.808Z</time></trkpt><trkpt lat="43.4821507" lon="11.3119732"><ele>620.0</ele><time>2026-03-29T12:38:06.807Z</time></trkpt><trkpt lat="43.4819426" lon="11.3119495"><ele>620.0</ele><time>2026-03-29T12:38:07.827Z</time></trkpt><trkpt lat="43.4817684" lon="11.3119145"><ele>615.3333333333333</ele><time>2026-03-29T12:38:08.808Z</time></trkpt><trkpt lat="43.4816115" lon="11.311831"><ele>610.6666666666666</ele><time>2026-03-29T12:38:09.818Z</time></trkpt><trkpt lat="43.4814497" lon="11.3116943"><ele>606.0</ele><time>2026-03-29T12:38:10.815Z</time></trkpt><trkpt lat="43.4813171" lon="11.3115103"><ele>606.0</ele><time>2026-03-29T12:38:11.811Z</time></trkpt><trkpt lat="43.4811909" lon="11.3113321"><ele>606.0</ele><time>2026-03-29T12:38:12.809Z</time></trkpt><trkpt lat="43.4810888" lon="11.311146"><ele>606.0</ele><time>2026-03-29T12:38:13.81Z</time></trkpt><trkpt lat="43.4810259" lon="11.3109697"><ele>606.0</ele><time>2026-03-29T12:38:14.83Z</time></trkpt><trkpt lat="43.4809929" lon="11.310814"><ele>606.0</ele><time>2026-03-29T12:38:15.814Z</time></trkpt><trkpt lat="43.4809829" lon="11.310669"><ele>606.0</ele><time>2026-03-29T12:38:16.822Z</time></trkpt><trkpt lat="43.48102" lon="11.3105083"><ele>606.0</ele><time>2026-03-29T12:38:17.821Z</time></trkpt><trkpt lat="43.4811081" lon="11.3103504"><ele>606.0</ele><time>2026-03-29T12:38:18.797Z</time></trkpt><trkpt lat="43.4812083" lon="11.3101953"><ele>606.0</ele><time>2026-03-29T12:38:19.803Z</time></trkpt><trkpt lat="43.4813922" lon="11.3099989"><ele>606.0</ele><time>2026-03-29T12:38:20.84Z</time></trkpt><trkpt lat="43.48151" lon="11.3098166"><ele>605.3333333333334</ele><time>2026-03-29T12:38:21.808Z</time></trkpt><trkpt lat="43.4815605" lon="11.3096046"><ele>604.6666666666667</ele><time>2026-03-29T12:38:22.819Z</time></trkpt><trkpt lat="43.4815991" lon="11.3093416"><ele>604.0</ele><time>2026-03-29T12:38:23.837Z</time></trkpt><trkpt lat="43.4815884" lon="11.3090585"><ele>603.3333333333334</ele><time>2026-03-29T12:38:24.827Z</time></trkpt><trkpt lat="43.4815675" lon="11.3088108"><ele>602.6666666666666</ele><time>2026-03-29T12:38:25.814Z</time></trkpt><trkpt lat="43.4815241" lon="11.3085471"><ele>602.0</ele><time>2026-03-29T12:38:26.821Z</time></trkpt><trkpt lat="43.4814906" lon="11.3082826"><ele>600.3333333333333</ele><time>2026-03-29T12:38:27.807Z</time></trkpt><trkpt lat="43.4813869" lon="11.3080143"><ele>598.6666666666666</ele><time>2026-03-29T12:38:28.854Z</time></trkpt><trkpt lat="43.4812393" lon="11.3077873"><ele>597.0</ele><time>2026-03-29T12:38:29.822Z</time></trkpt><trkpt lat="43.4811184" lon="11.3075214"><ele>596.0</ele><time>2026-03-29T12:38:30.809Z</time></trkpt><trkpt lat="43.4810453" lon="11.3072553"><ele>595.0</ele><time>2026-03-29T12:38:31.814Z</time></trkpt><trkpt lat="43.4810072" lon="11.3069844"><ele>594.0</ele><time>2026-03-29T12:38:32.832Z</time></trkpt><trkpt lat="43.4809929" lon="11.3067235"><ele>591.6666666666666</ele><time>2026-03-29T12:38:33.813Z</time></trkpt><trkpt lat="43.4809924" lon="11.3064667"><ele>589.3333333333333</ele><time>2026-03-29T12:38:34.825Z</time></trkpt><trkpt lat="43.4809977" lon="11.3062358"><ele>587.0</ele><time>2026-03-29T12:38:35.805Z</time></trkpt><trkpt lat="43.481023" lon="11.3060483"><ele>586.0</ele><time>2026-03-29T12:38:36.82Z</time></trkpt><trkpt lat="43.4810637" lon="11.305889"><ele>585.0</ele><time>2026-03-29T12:38:37.814Z</time></trkpt><trkpt lat="43.4811016" lon="11.3057346"><ele>584.0</ele><time>2026-03-29T12:38:38.819Z</time></trkpt><trkpt lat="43.4811104" lon="11.3055966"><ele>583.0</ele><time>2026-03-29T12:38:39.814Z</time></trkpt><trkpt lat="43.4811107" lon="11.305458"><ele>582.0</ele><time>2026-03-29T12:38:40.804Z</time></trkpt><trkpt lat="43.4810534" lon="11.3053671"><ele>580.75</ele><time>2026-03-29T12:38:41.809Z</time></trkpt><trkpt lat="43.4809825" lon="11.305299"><ele>579.5</ele><time>2026-03-29T12:38:42.803Z</time></trkpt><trkpt lat="43.480897" lon="11.3052585"><ele>578.25</ele><time>2026-03-29T12:38:43.811Z</time></trkpt><trkpt lat="43.4807477" lon="11.3053132"><ele>577.0</ele><time>2026-03-29T12:38:45.86Z</time></trkpt><trkpt lat="43.4805414" lon="11.305449"><ele>577.5</ele><time>2026-03-29T12:38:46.806Z</time></trkpt><trkpt lat="43.4802555" lon="11.3056204"><ele>578.0</ele><time>2026-03-29T12:38:47.838Z</time></trkpt><trkpt lat="43.4800514" lon="11.305657"><ele>578.0</ele><time>2026-03-29T12:38:48.823Z</time></trkpt><trkpt lat="43.4799247" lon="11.3056381"><ele>578.0</ele><time>2026-03-29T12:38:49.816Z</time></trkpt><trkpt lat="43.4798092" lon="11.3055852"><ele>578.0</ele><time>2026-03-29T12:38:50.811Z</time></trkpt><trkpt lat="43.4796768" lon="11.3054571"><ele>578.0</ele><time>2026-03-29T12:38:51.817Z</time></trkpt><trkpt lat="43.4794965" lon="11.3052086"><ele>580.5</ele><time>2026-03-29T12:38:52.82Z</time></trkpt><trkpt lat="43.4793066" lon="11.3049267"><ele>583.0</ele><time>2026-03-29T12:38:53.812Z</time></trkpt><trkpt lat="43.4790994" lon="11.3046164"><ele>583.3333333333334</ele><time>2026-03-29T12:38:54.806Z</time></trkpt><trkpt lat="43.4789654" lon="11.3043718"><ele>583.6666666666666</ele><time>2026-03-29T12:38:55.814Z</time></trkpt><trkpt lat="43.4788669" lon="11.304152"><ele>584.0</ele><time>2026-03-29T12:38:56.806Z</time></trkpt><trkpt lat="43.4787713" lon="11.3039546"><ele>585.0</ele><time>2026-03-29T12:38:57.807Z</time></trkpt><trkpt lat="43.4786707" lon="11.3037726"><ele>586.0</ele><time>2026-03-29T12:38:58.83Z</time></trkpt><trkpt lat="43.478562" lon="11.3035944"><ele>587.0</ele><time>2026-03-29T12:38:59.849Z</time></trkpt><trkpt lat="43.4784495" lon="11.303438"><ele>587.0</ele><time>2026-03-29T12:39:00.815Z</time></trkpt><trkpt lat="43.4783266" lon="11.3032542"><ele>587.0</ele><time>2026-03-29T12:39:01.837Z</time></trkpt><trkpt lat="43.478234" lon="11.3030622"><ele>587.0</ele><time>2026-03-29T12:39:02.816Z</time></trkpt><trkpt lat="43.4781534" lon="11.3028426"><ele>587.3333333333333</ele><time>2026-03-29T12:39:03.829Z</time></trkpt><trkpt lat="43.4781054" lon="11.3026264"><ele>587.6666666666666</ele><time>2026-03-29T12:39:04.804Z</time></trkpt><trkpt lat="43.4780678" lon="11.3023966"><ele>588.0</ele><time>2026-03-29T12:39:05.813Z</time></trkpt><trkpt lat="43.4780148" lon="11.3021906"><ele>585.6666666666666</ele><time>2026-03-29T12:39:06.839Z</time></trkpt><trkpt lat="43.4779321" lon="11.3020245"><ele>583.3333333333333</ele><time>2026-03-29T12:39:07.806Z</time></trkpt><trkpt lat="43.4778153" lon="11.3018601"><ele>581.0</ele><time>2026-03-29T12:39:08.835Z</time></trkpt><trkpt lat="43.4776895" lon="11.301716"><ele>581.0</ele><time>2026-03-29T12:39:09.813Z</time></trkpt><trkpt lat="43.4775429" lon="11.3016098"><ele>581.0</ele><time>2026-03-29T12:39:10.809Z</time></trkpt><trkpt lat="43.477399" lon="11.3015379"><ele>581.0</ele><time>2026-03-29T12:39:11.808Z</time></trkpt><trkpt lat="43.4772651" lon="11.3014759"><ele>581.0</ele><time>2026-03-29T12:39:12.803Z</time></trkpt><trkpt lat="43.4771459" lon="11.3014272"><ele>581.0</ele><time>2026-03-29T12:39:13.808Z</time></trkpt><trkpt lat="43.4770319" lon="11.3013547"><ele>581.0</ele><time>2026-03-29T12:39:14.809Z</time></trkpt><trkpt lat="43.4769516" lon="11.301253"><ele>581.0</ele><time>2026-03-29T12:39:15.816Z</time></trkpt><trkpt lat="43.4768897" lon="11.3010985"><ele>581.3333333333333</ele><time>2026-03-29T12:39:16.81Z</time></trkpt><trkpt lat="43.4768517" lon="11.3009108"><ele>581.6666666666666</ele><time>2026-03-29T12:39:17.819Z</time></trkpt><trkpt lat="43.4768488" lon="11.3007069"><ele>582.0</ele><time>2026-03-29T12:39:18.813Z</time></trkpt><trkpt lat="43.4769021" lon="11.3004473"><ele>582.0</ele><time>2026-03-29T12:39:19.856Z</time></trkpt><trkpt lat="43.4770538" lon="11.3001375"><ele>582.0</ele><time>2026-03-29T12:39:20.851Z</time></trkpt><trkpt lat="43.4771755" lon="11.2998534"><ele>577.3333333333334</ele><time>2026-03-29T12:39:21.823Z</time></trkpt><trkpt lat="43.4772856" lon="11.299565"><ele>572.6666666666667</ele><time>2026-03-29T12:39:22.865Z</time></trkpt><trkpt lat="43.4773595" lon="11.2993349"><ele>568.0</ele><time>2026-03-29T12:39:23.81Z</time></trkpt><trkpt lat="43.477389" lon="11.2991189"><ele>568.6666666666667</ele><time>2026-03-29T12:39:24.829Z</time></trkpt><trkpt lat="43.4773692" lon="11.2989124"><ele>569.3333333333334</ele><time>2026-03-29T12:39:25.804Z</time></trkpt><trkpt lat="43.4773261" lon="11.2987021"><ele>570.0</ele><time>2026-03-29T12:39:26.82Z</time></trkpt><trkpt lat="43.4772591" lon="11.2985046"><ele>570.0</ele><time>2026-03-29T12:39:27.828Z</time></trkpt><trkpt lat="43.477189" lon="11.2983355"><ele>570.0</ele><time>2026-03-29T12:39:28.828Z</time></trkpt><trkpt lat="43.4771162" lon="11.2981766"><ele>570.0</ele><time>2026-03-29T12:39:29.824Z</time></trkpt><trkpt lat="43.4770557" lon="11.2980259"><ele>570.0</ele><time>2026-03-29T12:39:30.824Z</time></trkpt><trkpt lat="43.4769968" lon="11.2978949"><ele>569.4</ele><time>2026-03-29T12:39:31.824Z</time></trkpt><trkpt lat="43.4769416" lon="11.2977797"><ele>568.8</ele><time>2026-03-29T12:39:32.801Z</time></trkpt><trkpt lat="43.4769153" lon="11.2976702"><ele>568.2</ele><time>2026-03-29T12:39:33.796Z</time></trkpt><trkpt lat="43.4768853" lon="11.2975694"><ele>567.6</ele><time>2026-03-29T12:39:34.797Z</time></trkpt><trkpt lat="43.4768489" lon="11.2974089"><ele>567.0</ele><time>2026-03-29T12:39:36.816Z</time></trkpt><trkpt lat="43.4768699" lon="11.2972822"><ele>568.6</ele><time>2026-03-29T12:39:38.811Z</time></trkpt><trkpt lat="43.4768806" lon="11.2971832"><ele>570.2</ele><time>2026-03-29T12:39:40.813Z</time></trkpt><trkpt lat="43.4768066" lon="11.2970516"><ele>571.8</ele><time>2026-03-29T12:39:43.833Z</time></trkpt><trkpt lat="43.4767143" lon="11.2969792"><ele>573.4</ele><time>2026-03-29T12:39:44.803Z</time></trkpt><trkpt lat="43.476603" lon="11.2968953"><ele>575.0</ele><time>2026-03-29T12:39:45.847Z</time></trkpt><trkpt lat="43.4764639" lon="11.2968307"><ele>570.6666666666666</ele><time>2026-03-29T12:39:46.845Z</time></trkpt><trkpt lat="43.4762659" lon="11.2967676"><ele>566.3333333333334</ele><time>2026-03-29T12:39:47.819Z</time></trkpt><trkpt lat="43.4760856" lon="11.2966946"><ele>562.0</ele><time>2026-03-29T12:39:48.81Z</time></trkpt><trkpt lat="43.4759049" lon="11.2966133"><ele>562.0</ele><time>2026-03-29T12:39:49.81Z</time></trkpt><trkpt lat="43.4757288" lon="11.2965127"><ele>562.0</ele><time>2026-03-29T12:39:50.819Z</time></trkpt><trkpt lat="43.4755662" lon="11.2963938"><ele>562.0</ele><time>2026-03-29T12:39:51.83Z</time></trkpt><trkpt lat="43.4754154" lon="11.2962609"><ele>557.6666666666667</ele><time>2026-03-29T12:39:52.829Z</time></trkpt><trkpt lat="43.4752924" lon="11.2960912"><ele>553.3333333333334</ele><time>2026-03-29T12:39:53.814Z</time></trkpt><trkpt lat="43.4752026" lon="11.2958903"><ele>549.0</ele><time>2026-03-29T12:39:54.807Z</time></trkpt><trkpt lat="43.4751485" lon="11.2956326"><ele>549.6666666666666</ele><time>2026-03-29T12:39:55.81Z</time></trkpt><trkpt lat="43.475125" lon="11.295352"><ele>550.3333333333333</ele><time>2026-03-29T12:39:56.814Z</time></trkpt><trkpt lat="43.4751137" lon="11.2950866"><ele>551.0</ele><time>2026-03-29T12:39:57.816Z</time></trkpt><trkpt lat="43.4751142" lon="11.2947896"><ele>549.5</ele><time>2026-03-29T12:39:58.799Z</time></trkpt><trkpt lat="43.4751588" lon="11.2944695"><ele>548.0</ele><time>2026-03-29T12:39:59.801Z</time></trkpt><trkpt lat="43.4751973" lon="11.294146"><ele>544.0</ele><time>2026-03-29T12:40:00.806Z</time></trkpt><trkpt lat="43.4752555" lon="11.2938142"><ele>540.0</ele><time>2026-03-29T12:40:01.849Z</time></trkpt><trkpt lat="43.4753073" lon="11.2935054"><ele>540.0</ele><time>2026-03-29T12:40:02.831Z</time></trkpt><trkpt lat="43.4753377" lon="11.2932281"><ele>540.0</ele><time>2026-03-29T12:40:03.809Z</time></trkpt><trkpt lat="43.4753601" lon="11.2929631"><ele>540.0</ele><time>2026-03-29T12:40:04.807Z</time></trkpt><trkpt lat="43.4753852" lon="11.2927093"><ele>538.6666666666666</ele><time>2026-03-29T12:40:05.798Z</time></trkpt><trkpt lat="43.4754239" lon="11.2924579"><ele>537.3333333333333</ele><time>2026-03-29T12:40:06.847Z</time></trkpt><trkpt lat="43.4754825" lon="11.2922331"><ele>536.0</ele><time>2026-03-29T12:40:07.81Z</time></trkpt><trkpt lat="43.4755631" lon="11.2919849"><ele>535.6666666666666</ele><time>2026-03-29T12:40:08.806Z</time></trkpt><trkpt lat="43.4756883" lon="11.2917481"><ele>535.3333333333334</ele><time>2026-03-29T12:40:09.821Z</time></trkpt><trkpt lat="43.4758249" lon="11.2915326"><ele>535.0</ele><time>2026-03-29T12:40:10.807Z</time></trkpt><trkpt lat="43.4759818" lon="11.2913499"><ele>535.0</ele><time>2026-03-29T12:40:11.851Z</time></trkpt><trkpt lat="43.476115" lon="11.291224"><ele>535.0</ele><time>2026-03-29T12:40:12.823Z</time></trkpt><trkpt lat="43.4762434" lon="11.2911163"><ele>535.0</ele><time>2026-03-29T12:40:13.812Z</time></trkpt><trkpt lat="43.4763703" lon="11.2910659"><ele>535.0</ele><time>2026-03-29T12:40:14.814Z</time></trkpt><trkpt lat="43.4764801" lon="11.2910318"><ele>537.75</ele><time>2026-03-29T12:40:15.814Z</time></trkpt><trkpt lat="43.4765561" lon="11.290989"><ele>540.5</ele><time>2026-03-29T12:40:16.823Z</time></trkpt><trkpt lat="43.4766157" lon="11.2908511"><ele>543.25</ele><time>2026-03-29T12:40:18.874Z</time></trkpt><trkpt lat="43.4765912" lon="11.2907332"><ele>546.0</ele><time>2026-03-29T12:40:19.801Z</time></trkpt><trkpt lat="43.4765396" lon="11.2905156"><ele>546.0</ele><time>2026-03-29T12:40:20.808Z</time></trkpt><trkpt lat="43.4764287" lon="11.2901768"><ele>546.0</ele><time>2026-03-29T12:40:21.828Z</time></trkpt><trkpt lat="43.4763355" lon="11.2898543"><ele>545.3333333333334</ele><time>2026-03-29T12:40:22.815Z</time></trkpt><trkpt lat="43.4762852" lon="11.2895731"><ele>544.6666666666667</ele><time>2026-03-29T12:40:23.814Z</time></trkpt><trkpt lat="43.4762341" lon="11.2893412"><ele>544.0</ele><time>2026-03-29T12:40:24.807Z</time></trkpt><trkpt lat="43.4761837" lon="11.2891378"><ele>546.3333333333334</ele><time>2026-03-29T12:40:25.819Z</time></trkpt><trkpt lat="43.4761222" lon="11.2889448"><ele>548.6666666666666</ele><time>2026-03-29T12:40:26.817Z</time></trkpt><trkpt lat="43.4760436" lon="11.2887561"><ele>551.0</ele><time>2026-03-29T12:40:27.825Z</time></trkpt><trkpt lat="43.4759314" lon="11.2886142"><ele>551.0</ele><time>2026-03-29T12:40:28.811Z</time></trkpt><trkpt lat="43.4757834" lon="11.2885101"><ele>551.0</ele><time>2026-03-29T12:40:29.817Z</time></trkpt><trkpt lat="43.4756207" lon="11.2884238"><ele>551.0</ele><time>2026-03-29T12:40:30.851Z</time></trkpt><trkpt lat="43.4754452" lon="11.2883861"><ele>549.6666666666666</ele><time>2026-03-29T12:40:31.816Z</time></trkpt><trkpt lat="43.4752646" lon="11.2883709"><ele>548.3333333333334</ele><time>2026-03-29T12:40:32.816Z</time></trkpt><trkpt lat="43.4751145" lon="11.2883358"><ele>547.0</ele><time>2026-03-29T12:40:33.811Z</time></trkpt><trkpt lat="43.4749828" lon="11.2882792"><ele>547.0</ele><time>2026-03-29T12:40:34.81Z</time></trkpt><trkpt lat="43.4748574" lon="11.2881798"><ele>547.0</ele><time>2026-03-29T12:40:35.845Z</time></trkpt><trkpt lat="43.4747415" lon="11.2880395"><ele>547.0</ele><time>2026-03-29T12:40:36.848Z</time></trkpt><trkpt lat="43.4746645" lon="11.2878285"><ele>549.0</ele><time>2026-03-29T12:40:37.815Z</time></trkpt><trkpt lat="43.4745818" lon="11.2875938"><ele>551.0</ele><time>2026-03-29T12:40:38.816Z</time></trkpt><trkpt lat="43.4745166" lon="11.2873714"><ele>553.0</ele><time>2026-03-29T12:40:39.799Z</time></trkpt><trkpt lat="43.4745951" lon="11.2870792"><ele>556.0</ele><time>2026-03-29T12:40:40.814Z</time></trkpt><trkpt lat="43.4746517" lon="11.28685"><ele>559.0</ele><time>2026-03-29T12:40:41.81Z</time></trkpt><trkpt lat="43.4746768" lon="11.2866874"><ele>562.0</ele><time>2026-03-29T12:40:42.819Z</time></trkpt><trkpt lat="43.4746818" lon="11.2865413"><ele>565.0</ele><time>2026-03-29T12:40:43.813Z</time></trkpt><trkpt lat="43.4746763" lon="11.2864255"><ele>565.0</ele><time>2026-03-29T12:40:44.812Z</time></trkpt><trkpt lat="43.4746611" lon="11.2863176"><ele>565.0</ele><time>2026-03-29T12:40:45.808Z</time></trkpt><trkpt lat="43.4746462" lon="11.2862054"><ele>565.0</ele><time>2026-03-29T12:40:46.814Z</time></trkpt><trkpt lat="43.4746211" lon="11.2860958"><ele>565.0</ele><time>2026-03-29T12:40:47.821Z</time></trkpt><trkpt lat="43.4745836" lon="11.2859724"><ele>565.0</ele><time>2026-03-29T12:40:48.816Z</time></trkpt><trkpt lat="43.474521" lon="11.2858756"><ele>565.0</ele><time>2026-03-29T12:40:49.81Z</time></trkpt><trkpt lat="43.4744253" lon="11.2858015"><ele>563.0</ele><time>2026-03-29T12:40:50.817Z</time></trkpt><trkpt lat="43.474324" lon="11.2857598"><ele>561.0</ele><time>2026-03-29T12:40:51.811Z</time></trkpt><trkpt lat="43.474223" lon="11.2857501"><ele>559.0</ele><time>2026-03-29T12:40:52.812Z</time></trkpt><trkpt lat="43.4741455" lon="11.2858119"><ele>557.0</ele><time>2026-03-29T12:40:53.815Z</time></trkpt><trkpt lat="43.474065" lon="11.2859418"><ele>555.0</ele><time>2026-03-29T12:40:54.804Z</time></trkpt><trkpt lat="43.473988" lon="11.2861195"><ele>555.0</ele><time>2026-03-29T12:40:55.869Z</time></trkpt><trkpt lat="43.4739402" lon="11.2863452"><ele>555.0</ele><time>2026-03-29T12:40:56.854Z</time></trkpt><trkpt lat="43.4739199" lon="11.2866324"><ele>555.0</ele><time>2026-03-29T12:40:57.864Z</time></trkpt><trkpt lat="43.4738747" lon="11.2868978"><ele>554.6666666666666</ele><time>2026-03-29T12:40:58.858Z</time></trkpt><trkpt lat="43.4738403" lon="11.28719"><ele>554.3333333333333</ele><time>2026-03-29T12:40:59.849Z</time></trkpt><trkpt lat="43.4738104" lon="11.2874941"><ele>554.0</ele><time>2026-03-29T12:41:00.855Z</time></trkpt><trkpt lat="43.4737682" lon="11.2877324"><ele>558.3333333333333</ele><time>2026-03-29T12:41:01.835Z</time></trkpt><trkpt lat="43.4737205" lon="11.2880028"><ele>562.6666666666666</ele><time>2026-03-29T12:41:02.814Z</time></trkpt><trkpt lat="43.4736539" lon="11.2882413"><ele>567.0</ele><time>2026-03-29T12:41:03.807Z</time></trkpt><trkpt lat="43.4735752" lon="11.2884713"><ele>567.0</ele><time>2026-03-29T12:41:04.817Z</time></trkpt><trkpt lat="43.4734993" lon="11.2886392"><ele>567.0</ele><time>2026-03-29T12:41:05.808Z</time></trkpt><trkpt lat="43.4734148" lon="11.2887708"><ele>567.0</ele><time>2026-03-29T12:41:06.806Z</time></trkpt><trkpt lat="43.4733273" lon="11.2888678"><ele>567.0</ele><time>2026-03-29T12:41:07.817Z</time></trkpt><trkpt lat="43.4732403" lon="11.2889119"><ele>567.0</ele><time>2026-03-29T12:41:08.833Z</time></trkpt><trkpt lat="43.4731546" lon="11.2889064"><ele>567.0</ele><time>2026-03-29T12:41:09.813Z</time></trkpt><trkpt lat="43.4730602" lon="11.2888327"><ele>567.0</ele><time>2026-03-29T12:41:10.805Z</time></trkpt><trkpt lat="43.4729815" lon="11.2886829"><ele>567.0</ele><time>2026-03-29T12:41:11.804Z</time></trkpt><trkpt lat="43.4728655" lon="11.288486"><ele>566.25</ele><time>2026-03-29T12:41:12.806Z</time></trkpt><trkpt lat="43.4728006" lon="11.2882707"><ele>565.5</ele><time>2026-03-29T12:41:13.806Z</time></trkpt><trkpt lat="43.4728114" lon="11.2880934"><ele>564.75</ele><time>2026-03-29T12:41:14.828Z</time></trkpt><trkpt lat="43.4728794" lon="11.2879182"><ele>564.0</ele><time>2026-03-29T12:41:15.816Z</time></trkpt><trkpt lat="43.4729319" lon="11.2878033"><ele>565.2</ele><time>2026-03-29T12:41:16.824Z</time></trkpt><trkpt lat="43.4729914" lon="11.2877045"><ele>566.4</ele><time>2026-03-29T12:41:17.807Z</time></trkpt><trkpt lat="43.4730445" lon="11.2876127"><ele>567.6</ele><time>2026-03-29T12:41:18.813Z</time></trkpt><trkpt lat="43.4730742" lon="11.2874852"><ele>568.8</ele><time>2026-03-29T12:41:20.812Z</time></trkpt><trkpt lat="43.4730922" lon="11.2873569"><ele>570.0</ele><time>2026-03-29T12:41:23.815Z</time></trkpt><trkpt lat="43.4731055" lon="11.2872111"><ele>570.1666666666666</ele><time>2026-03-29T12:41:25.809Z</time></trkpt><trkpt lat="43.4731121" lon="11.2871155"><ele>570.3333333333334</ele><time>2026-03-29T12:41:26.813Z</time></trkpt><trkpt lat="43.4731226" lon="11.2870103"><ele>570.5</ele><time>2026-03-29T12:41:27.814Z</time></trkpt><trkpt lat="43.4731302" lon="11.2868914"><ele>570.6666666666667</ele><time>2026-03-29T12:41:28.808Z</time></trkpt><trkpt lat="43.4731308" lon="11.2867657"><ele>570.8333333333334</ele><time>2026-03-29T12:41:29.812Z</time></trkpt><trkpt lat="43.473118" lon="11.286642"><ele>571.0</ele><time>2026-03-29T12:41:30.808Z</time></trkpt><trkpt lat="43.4730952" lon="11.2865088"><ele>571.4</ele><time>2026-03-29T12:41:31.806Z</time></trkpt><trkpt lat="43.4730641" lon="11.2863732"><ele>571.8</ele><time>2026-03-29T12:41:32.813Z</time></trkpt><trkpt lat="43.4730234" lon="11.2862446"><ele>572.1999999999999</ele><time>2026-03-29T12:41:33.817Z</time></trkpt><trkpt lat="43.4729775" lon="11.2861377"><ele>572.6</ele><time>2026-03-29T12:41:34.817Z</time></trkpt><trkpt lat="43.4729237" lon="11.2860454"><ele>573.0</ele><time>2026-03-29T12:41:35.817Z</time></trkpt><trkpt lat="43.4728704" lon="11.2859702"><ele>573.7142857142858</ele><time>2026-03-29T12:41:36.798Z</time></trkpt><trkpt lat="43.4728053" lon="11.2858997"><ele>574.4285714285714</ele><time>2026-03-29T12:41:37.81Z</time></trkpt><trkpt lat="43.4727525" lon="11.2858344"><ele>575.1428571428571</ele><time>2026-03-29T12:41:38.811Z</time></trkpt><trkpt lat="43.4727014" lon="11.2857766"><ele>575.8571428571429</ele><time>2026-03-29T12:41:39.815Z</time></trkpt><trkpt lat="43.4726375" lon="11.285748"><ele>576.5714285714286</ele><time>2026-03-29T12:41:40.809Z</time></trkpt><trkpt lat="43.4725657" lon="11.285731"><ele>577.2857142857143</ele><time>2026-03-29T12:41:41.804Z</time></trkpt><trkpt lat="43.4724841" lon="11.2857185"><ele>578.0</ele><time>2026-03-29T12:41:42.827Z</time></trkpt><trkpt lat="43.4724097" lon="11.2856956"><ele>578.0</ele><time>2026-03-29T12:41:43.832Z</time></trkpt><trkpt lat="43.4723213" lon="11.2856855"><ele>578.0</ele><time>2026-03-29T12:41:44.832Z</time></trkpt><trkpt lat="43.4722451" lon="11.2856717"><ele>578.0</ele><time>2026-03-29T12:41:45.806Z</time></trkpt><trkpt lat="43.4721698" lon="11.2856564"><ele>578.0</ele><time>2026-03-29T12:41:46.815Z</time></trkpt><trkpt lat="43.472099" lon="11.2856329"><ele>578.0</ele><time>2026-03-29T12:41:47.865Z</time></trkpt><trkpt lat="43.4720155" lon="11.2856228"><ele>578.0</ele><time>2026-03-29T12:41:48.87Z</time></trkpt><trkpt lat="43.4719464" lon="11.2856069"><ele>577.6</ele><time>2026-03-29T12:41:49.816Z</time></trkpt><trkpt lat="43.4718698" lon="11.285581"><ele>577.1999999999999</ele><time>2026-03-29T12:41:50.827Z</time></trkpt><trkpt lat="43.4717573" lon="11.2855397"><ele>576.8</ele><time>2026-03-29T12:41:52.822Z</time></trkpt><trkpt lat="43.4716492" lon="11.2855096"><ele>576.4</ele><time>2026-03-29T12:41:54.808Z</time></trkpt><trkpt lat="43.4715338" lon="11.2854544"><ele>576.0</ele><time>2026-03-29T12:41:56.821Z</time></trkpt><trkpt lat="43.4714702" lon="11.2854447"><ele>576.0</ele><time>2026-03-29T12:41:57.811Z</time></trkpt><trkpt lat="43.4713985" lon="11.2854219"><ele>576.0</ele><time>2026-03-29T12:41:58.829Z</time></trkpt><trkpt lat="43.4713368" lon="11.2853995"><ele>576.0</ele><time>2026-03-29T12:41:59.819Z</time></trkpt><trkpt lat="43.4712623" lon="11.2853796"><ele>576.0</ele><time>2026-03-29T12:42:00.804Z</time></trkpt><trkpt lat="43.4711759" lon="11.2853698"><ele>576.0</ele><time>2026-03-29T12:42:01.85Z</time></trkpt><trkpt lat="43.4710853" lon="11.2853754"><ele>576.0</ele><time>2026-03-29T12:42:02.819Z</time></trkpt><trkpt lat="43.4709791" lon="11.2853893"><ele>572.5</ele><time>2026-03-29T12:42:03.847Z</time></trkpt><trkpt lat="43.4708801" lon="11.2854134"><ele>569.0</ele><time>2026-03-29T12:42:04.817Z</time></trkpt><trkpt lat="43.4707756" lon="11.2854604"><ele>565.5</ele><time>2026-03-29T12:42:05.809Z</time></trkpt><trkpt lat="43.4706618" lon="11.2855171"><ele>562.0</ele><time>2026-03-29T12:42:06.811Z</time></trkpt><trkpt lat="43.4705454" lon="11.2855897"><ele>563.5</ele><time>2026-03-29T12:42:07.815Z</time></trkpt><trkpt lat="43.4704401" lon="11.285665"><ele>565.0</ele><time>2026-03-29T12:42:08.8Z</time></trkpt><trkpt lat="43.4703375" lon="11.2857294"><ele>566.5</ele><time>2026-03-29T12:42:09.811Z</time></trkpt><trkpt lat="43.4702366" lon="11.2857842"><ele>568.0</ele><time>2026-03-29T12:42:10.817Z</time></trkpt><trkpt lat="43.470131" lon="11.2858443"><ele>568.0</ele><time>2026-03-29T12:42:11.825Z</time></trkpt><trkpt lat="43.4700297" lon="11.2859066"><ele>568.0</ele><time>2026-03-29T12:42:12.852Z</time></trkpt><trkpt lat="43.4699439" lon="11.2859577"><ele>568.0</ele><time>2026-03-29T12:42:13.817Z</time></trkpt><trkpt lat="43.4698501" lon="11.2860011"><ele>568.0</ele><time>2026-03-29T12:42:14.8Z</time></trkpt><trkpt lat="43.4697437" lon="11.286031"><ele>568.0</ele><time>2026-03-29T12:42:15.818Z</time></trkpt><trkpt lat="43.4696284" lon="11.2860477"><ele>567.6</ele><time>2026-03-29T12:42:16.837Z</time></trkpt><trkpt lat="43.4695209" lon="11.2860483"><ele>567.1999999999999</ele><time>2026-03-29T12:42:17.815Z</time></trkpt><trkpt lat="43.4694206" lon="11.286054"><ele>566.8</ele><time>2026-03-29T12:42:18.82Z</time></trkpt><trkpt lat="43.4693257" lon="11.2860673"><ele>566.4</ele><time>2026-03-29T12:42:19.82Z</time></trkpt><trkpt lat="43.4692418" lon="11.2860777"><ele>566.0</ele><time>2026-03-29T12:42:20.813Z</time></trkpt><trkpt lat="43.4691515" lon="11.2860935"><ele>566.0</ele><time>2026-03-29T12:42:21.813Z</time></trkpt><trkpt lat="43.4690582" lon="11.2861128"><ele>566.0</ele><time>2026-03-29T12:42:22.874Z</time></trkpt><trkpt lat="43.4689765" lon="11.286147"><ele>566.0</ele><time>2026-03-29T12:42:23.853Z</time></trkpt><trkpt lat="43.4688851" lon="11.2861916"><ele>566.0</ele><time>2026-03-29T12:42:24.841Z</time></trkpt><trkpt lat="43.4687988" lon="11.2862552"><ele>566.0</ele><time>2026-03-29T12:42:25.852Z</time></trkpt><trkpt lat="43.4687186" lon="11.2863427"><ele>566.0</ele><time>2026-03-29T12:42:26.8Z</time></trkpt><trkpt lat="43.4686304" lon="11.2864498"><ele>566.0</ele><time>2026-03-29T12:42:27.814Z</time></trkpt><trkpt lat="43.4685348" lon="11.2865599"><ele>566.0</ele><time>2026-03-29T12:42:28.845Z</time></trkpt><trkpt lat="43.468434" lon="11.2866837"><ele>566.0</ele><time>2026-03-29T12:42:29.816Z</time></trkpt><trkpt lat="43.4683509" lon="11.2868273"><ele>566.0</ele><time>2026-03-29T12:42:30.813Z</time></trkpt><trkpt lat="43.4682754" lon="11.2869609"><ele>566.0</ele><time>2026-03-29T12:42:31.803Z</time></trkpt><trkpt lat="43.4681855" lon="11.2870808"><ele>566.0</ele><time>2026-03-29T12:42:32.822Z</time></trkpt><trkpt lat="43.4680845" lon="11.287192"><ele>566.0</ele><time>2026-03-29T12:42:33.812Z</time></trkpt><trkpt lat="43.4679877" lon="11.2872606"><ele>566.6</ele><time>2026-03-29T12:42:34.826Z</time></trkpt><trkpt lat="43.4678747" lon="11.2873113"><ele>567.2</ele><time>2026-03-29T12:42:35.811Z</time></trkpt><trkpt lat="43.4677629" lon="11.2873496"><ele>567.8</ele><time>2026-03-29T12:42:36.829Z</time></trkpt><trkpt lat="43.4676736" lon="11.2873949"><ele>568.4</ele><time>2026-03-29T12:42:37.8Z</time></trkpt><trkpt lat="43.4675866" lon="11.2874701"><ele>569.0</ele><time>2026-03-29T12:42:38.84Z</time></trkpt><trkpt lat="43.4675145" lon="11.2875652"><ele>569.0</ele><time>2026-03-29T12:42:39.856Z</time></trkpt><trkpt lat="43.4674733" lon="11.2876677"><ele>569.0</ele><time>2026-03-29T12:42:40.807Z</time></trkpt><trkpt lat="43.4674222" lon="11.2877949"><ele>569.0</ele><time>2026-03-29T12:42:41.866Z</time></trkpt><trkpt lat="43.4673673" lon="11.2879004"><ele>569.0</ele><time>2026-03-29T12:42:42.809Z</time></trkpt><trkpt lat="43.4673055" lon="11.2880176"><ele>569.0</ele><time>2026-03-29T12:42:43.802Z</time></trkpt><trkpt lat="43.4672305" lon="11.2881382"><ele>568.5</ele><time>2026-03-29T12:42:44.813Z</time></trkpt><trkpt lat="43.4671621" lon="11.2882617"><ele>568.0</ele><time>2026-03-29T12:42:45.813Z</time></trkpt><trkpt lat="43.4670908" lon="11.2883768"><ele>567.5</ele><time>2026-03-29T12:42:46.821Z</time></trkpt><trkpt lat="43.4670083" lon="11.2884836"><ele>567.0</ele><time>2026-03-29T12:42:47.814Z</time></trkpt><trkpt lat="43.4669124" lon="11.2885744"><ele>568.25</ele><time>2026-03-29T12:42:48.822Z</time></trkpt><trkpt lat="43.4668002" lon="11.2886481"><ele>569.5</ele><time>2026-03-29T12:42:49.815Z</time></trkpt><trkpt lat="43.4666759" lon="11.288712"><ele>570.75</ele><time>2026-03-29T12:42:50.813Z</time></trkpt><trkpt lat="43.4665491" lon="11.2887665"><ele>572.0</ele><time>2026-03-29T12:42:51.808Z</time></trkpt><trkpt lat="43.4664262" lon="11.288825"><ele>572.0</ele><time>2026-03-29T12:42:52.82Z</time></trkpt><trkpt lat="43.4663273" lon="11.2888896"><ele>572.0</ele><time>2026-03-29T12:42:53.808Z</time></trkpt><trkpt lat="43.4662245" lon="11.2889595"><ele>572.0</ele><time>2026-03-29T12:42:54.802Z</time></trkpt><trkpt lat="43.4661221" lon="11.2890246"><ele>572.0</ele><time>2026-03-29T12:42:55.842Z</time></trkpt><trkpt lat="43.4660405" lon="11.2890598"><ele>572.0</ele><time>2026-03-29T12:42:56.844Z</time></trkpt><trkpt lat="43.4659467" lon="11.2890976"><ele>571.0</ele><time>2026-03-29T12:42:57.846Z</time></trkpt><trkpt lat="43.4658549" lon="11.2891417"><ele>570.0</ele><time>2026-03-29T12:42:58.856Z</time></trkpt><trkpt lat="43.4657554" lon="11.2891882"><ele>569.0</ele><time>2026-03-29T12:42:59.855Z</time></trkpt><trkpt lat="43.4656791" lon="11.2892059"><ele>568.0</ele><time>2026-03-29T12:43:00.804Z</time></trkpt><trkpt lat="43.4655728" lon="11.2892435"><ele>567.0</ele><time>2026-03-29T12:43:01.822Z</time></trkpt><trkpt lat="43.4654566" lon="11.2892809"><ele>566.25</ele><time>2026-03-29T12:43:02.809Z</time></trkpt><trkpt lat="43.465341" lon="11.2893046"><ele>565.5</ele><time>2026-03-29T12:43:03.808Z</time></trkpt><trkpt lat="43.4652233" lon="11.2893246"><ele>564.75</ele><time>2026-03-29T12:43:04.833Z</time></trkpt><trkpt lat="43.4650958" lon="11.2893586"><ele>564.0</ele><time>2026-03-29T12:43:05.817Z</time></trkpt><trkpt lat="43.4649795" lon="11.2893709"><ele>564.0</ele><time>2026-03-29T12:43:06.842Z</time></trkpt><trkpt lat="43.46487" lon="11.2893952"><ele>564.0</ele><time>2026-03-29T12:43:07.81Z</time></trkpt><trkpt lat="43.4647585" lon="11.289424"><ele>564.0</ele><time>2026-03-29T12:43:08.804Z</time></trkpt><trkpt lat="43.4646575" lon="11.2894595"><ele>564.0</ele><time>2026-03-29T12:43:09.812Z</time></trkpt><trkpt lat="43.4645694" lon="11.2894896"><ele>564.0</ele><time>2026-03-29T12:43:10.818Z</time></trkpt><trkpt lat="43.4644977" lon="11.2895052"><ele>563.5</ele><time>2026-03-29T12:43:11.823Z</time></trkpt><trkpt lat="43.4644258" lon="11.2895011"><ele>563.0</ele><time>2026-03-29T12:43:12.821Z</time></trkpt><trkpt lat="43.4643581" lon="11.2894651"><ele>562.5</ele><time>2026-03-29T12:43:13.825Z</time></trkpt><trkpt lat="43.4643052" lon="11.2894033"><ele>562.0</ele><time>2026-03-29T12:43:14.809Z</time></trkpt><trkpt lat="43.4642643" lon="11.289302"><ele>561.5</ele><time>2026-03-29T12:43:15.832Z</time></trkpt><trkpt lat="43.4642326" lon="11.2891786"><ele>561.0</ele><time>2026-03-29T12:43:16.815Z</time></trkpt><trkpt lat="43.4642091" lon="11.2890367"><ele>560.8</ele><time>2026-03-29T12:43:17.831Z</time></trkpt><trkpt lat="43.4641822" lon="11.2889067"><ele>560.6</ele><time>2026-03-29T12:43:18.827Z</time></trkpt><trkpt lat="43.464148" lon="11.2887681"><ele>560.4</ele><time>2026-03-29T12:43:19.832Z</time></trkpt><trkpt lat="43.4641038" lon="11.2886448"><ele>560.2</ele><time>2026-03-29T12:43:20.813Z</time></trkpt><trkpt lat="43.464043" lon="11.2885184"><ele>560.0</ele><time>2026-03-29T12:43:21.813Z</time></trkpt><trkpt lat="43.4639662" lon="11.2883913"><ele>560.0</ele><time>2026-03-29T12:43:22.844Z</time></trkpt><trkpt lat="43.4638772" lon="11.2882648"><ele>560.0</ele><time>2026-03-29T12:43:23.819Z</time></trkpt><trkpt lat="43.4637519" lon="11.2881639"><ele>560.0</ele><time>2026-03-29T12:43:24.81Z</time></trkpt><trkpt lat="43.4635984" lon="11.2880787"><ele>560.0</ele><time>2026-03-29T12:43:25.807Z</time></trkpt><trkpt lat="43.463435" lon="11.2880096"><ele>554.3333333333333</ele><time>2026-03-29T12:43:26.812Z</time></trkpt><trkpt lat="43.463271" lon="11.2879421"><ele>548.6666666666666</ele><time>2026-03-29T12:43:27.817Z</time></trkpt><trkpt lat="43.4631143" lon="11.2878868"><ele>543.0</ele><time>2026-03-29T12:43:28.815Z</time></trkpt><trkpt lat="43.4629562" lon="11.2878557"><ele>542.6666666666666</ele><time>2026-03-29T12:43:29.828Z</time></trkpt><trkpt lat="43.4627995" lon="11.2878558"><ele>542.3333333333333</ele><time>2026-03-29T12:43:30.818Z</time></trkpt><trkpt lat="43.4626373" lon="11.2878747"><ele>542.0</ele><time>2026-03-29T12:43:31.811Z</time></trkpt><trkpt lat="43.4624716" lon="11.2879126"><ele>542.0</ele><time>2026-03-29T12:43:32.825Z</time></trkpt><trkpt lat="43.4623196" lon="11.2879811"><ele>542.0</ele><time>2026-03-29T12:43:33.811Z</time></trkpt><trkpt lat="43.4621554" lon="11.288054"><ele>542.0</ele><time>2026-03-29T12:43:34.819Z</time></trkpt><trkpt lat="43.4619731" lon="11.2881382"><ele>542.6666666666666</ele><time>2026-03-29T12:43:35.806Z</time></trkpt><trkpt lat="43.4617937" lon="11.2882365"><ele>543.3333333333334</ele><time>2026-03-29T12:43:36.817Z</time></trkpt><trkpt lat="43.4616228" lon="11.2883489"><ele>544.0</ele><time>2026-03-29T12:43:37.813Z</time></trkpt><trkpt lat="43.4614415" lon="11.2884789"><ele>537.0</ele><time>2026-03-29T12:43:38.833Z</time></trkpt><trkpt lat="43.4612511" lon="11.2886109"><ele>530.0</ele><time>2026-03-29T12:43:39.82Z</time></trkpt><trkpt lat="43.4610198" lon="11.2887586"><ele>530.0</ele><time>2026-03-29T12:43:40.828Z</time></trkpt><trkpt lat="43.4608152" lon="11.2888765"><ele>530.0</ele><time>2026-03-29T12:43:41.805Z</time></trkpt><trkpt lat="43.4606253" lon="11.2889908"><ele>530.0</ele><time>2026-03-29T12:43:42.818Z</time></trkpt><trkpt lat="43.4604467" lon="11.2890962"><ele>530.0</ele><time>2026-03-29T12:43:43.828Z</time></trkpt><trkpt lat="43.4602711" lon="11.2891903"><ele>530.0</ele><time>2026-03-29T12:43:44.833Z</time></trkpt><trkpt lat="43.4601006" lon="11.2892804"><ele>530.0</ele><time>2026-03-29T12:43:45.836Z</time></trkpt><trkpt lat="43.4599285" lon="11.289364"><ele>530.0</ele><time>2026-03-29T12:43:46.809Z</time></trkpt><trkpt lat="43.459754" lon="11.2894504"><ele>530.0</ele><time>2026-03-29T12:43:47.829Z</time></trkpt><trkpt lat="43.4595867" lon="11.2895348"><ele>530.0</ele><time>2026-03-29T12:43:48.821Z</time></trkpt><trkpt lat="43.4594333" lon="11.2896158"><ele>532.0</ele><time>2026-03-29T12:43:49.803Z</time></trkpt><trkpt lat="43.4592724" lon="11.289706"><ele>534.0</ele><time>2026-03-29T12:43:50.806Z</time></trkpt><trkpt lat="43.4591084" lon="11.2897953"><ele>536.0</ele><time>2026-03-29T12:43:51.807Z</time></trkpt><trkpt lat="43.4589379" lon="11.2898858"><ele>535.0</ele><time>2026-03-29T12:43:52.815Z</time></trkpt><trkpt lat="43.458764" lon="11.2899717"><ele>534.0</ele><time>2026-03-29T12:43:53.817Z</time></trkpt><trkpt lat="43.4585773" lon="11.2900458"><ele>533.0</ele><time>2026-03-29T12:43:54.826Z</time></trkpt><trkpt lat="43.4583935" lon="11.2900989"><ele>533.0</ele><time>2026-03-29T12:43:55.804Z</time></trkpt><trkpt lat="43.4581902" lon="11.2901256"><ele>533.0</ele><time>2026-03-29T12:43:56.82Z</time></trkpt><trkpt lat="43.4579708" lon="11.2901265"><ele>533.0</ele><time>2026-03-29T12:43:57.824Z</time></trkpt><trkpt lat="43.4577529" lon="11.2900911"><ele>532.3333333333333</ele><time>2026-03-29T12:43:58.822Z</time></trkpt><trkpt lat="43.457549" lon="11.290027"><ele>531.6666666666666</ele><time>2026-03-29T12:43:59.818Z</time></trkpt><trkpt lat="43.4573735" lon="11.2899493"><ele>531.0</ele><time>2026-03-29T12:44:00.833Z</time></trkpt><trkpt lat="43.457204" lon="11.2898415"><ele>529.6666666666666</ele><time>2026-03-29T12:44:01.821Z</time></trkpt><trkpt lat="43.4570298" lon="11.2897074"><ele>528.3333333333333</ele><time>2026-03-29T12:44:02.821Z</time></trkpt><trkpt lat="43.4568566" lon="11.2895516"><ele>527.0</ele><time>2026-03-29T12:44:03.836Z</time></trkpt><trkpt lat="43.4567049" lon="11.2893868"><ele>527.0</ele><time>2026-03-29T12:44:04.826Z</time></trkpt><trkpt lat="43.4565584" lon="11.2892241"><ele>527.0</ele><time>2026-03-29T12:44:05.828Z</time></trkpt><trkpt lat="43.4564176" lon="11.2890574"><ele>527.0</ele><time>2026-03-29T12:44:06.817Z</time></trkpt><trkpt lat="43.4562747" lon="11.288894"><ele>524.3333333333333</ele><time>2026-03-29T12:44:07.809Z</time></trkpt><trkpt lat="43.4561342" lon="11.2887358"><ele>521.6666666666666</ele><time>2026-03-29T12:44:08.807Z</time></trkpt><trkpt lat="43.4559762" lon="11.2885799"><ele>519.0</ele><time>2026-03-29T12:44:09.819Z</time></trkpt><trkpt lat="43.4558112" lon="11.2884428"><ele>519.0</ele><time>2026-03-29T12:44:10.814Z</time></trkpt><trkpt lat="43.4556379" lon="11.2883248"><ele>519.0</ele><time>2026-03-29T12:44:11.809Z</time></trkpt><trkpt lat="43.4554411" lon="11.2882125"><ele>519.0</ele><time>2026-03-29T12:44:12.844Z</time></trkpt><trkpt lat="43.4552546" lon="11.2881118"><ele>514.0</ele><time>2026-03-29T12:44:13.818Z</time></trkpt><trkpt lat="43.4550575" lon="11.2880186"><ele>509.0</ele><time>2026-03-29T12:44:14.813Z</time></trkpt><trkpt lat="43.4548643" lon="11.2879337"><ele>504.0</ele><time>2026-03-29T12:44:15.823Z</time></trkpt><trkpt lat="43.4546704" lon="11.2878505"><ele>506.33333333333337</ele><time>2026-03-29T12:44:16.82Z</time></trkpt><trkpt lat="43.4544799" lon="11.2877688"><ele>508.6666666666667</ele><time>2026-03-29T12:44:17.807Z</time></trkpt><trkpt lat="43.4542884" lon="11.2876863"><ele>511.0</ele><time>2026-03-29T12:44:18.824Z</time></trkpt><trkpt lat="43.4541078" lon="11.287612"><ele>511.0</ele><time>2026-03-29T12:44:19.815Z</time></trkpt><trkpt lat="43.4539329" lon="11.2875345"><ele>511.0</ele><time>2026-03-29T12:44:20.809Z</time></trkpt><trkpt lat="43.4537742" lon="11.287432"><ele>511.0</ele><time>2026-03-29T12:44:21.814Z</time></trkpt><trkpt lat="43.4536465" lon="11.2873102"><ele>510.0</ele><time>2026-03-29T12:44:22.832Z</time></trkpt><trkpt lat="43.4535396" lon="11.2871548"><ele>509.0</ele><time>2026-03-29T12:44:23.836Z</time></trkpt><trkpt lat="43.4534626" lon="11.2869605"><ele>508.0</ele><time>2026-03-29T12:44:24.825Z</time></trkpt><trkpt lat="43.4534044" lon="11.2867394"><ele>508.0</ele><time>2026-03-29T12:44:25.819Z</time></trkpt><trkpt lat="43.4533464" lon="11.2865071"><ele>508.0</ele><time>2026-03-29T12:44:26.831Z</time></trkpt><trkpt lat="43.4532874" lon="11.2862697"><ele>508.0</ele><time>2026-03-29T12:44:27.82Z</time></trkpt><trkpt lat="43.4532258" lon="11.2860343"><ele>506.6666666666667</ele><time>2026-03-29T12:44:28.824Z</time></trkpt><trkpt lat="43.4531579" lon="11.2857959"><ele>505.33333333333337</ele><time>2026-03-29T12:44:29.822Z</time></trkpt><trkpt lat="43.4530714" lon="11.2855901"><ele>504.0</ele><time>2026-03-29T12:44:30.812Z</time></trkpt><trkpt lat="43.45297" lon="11.2854273"><ele>502.0</ele><time>2026-03-29T12:44:31.817Z</time></trkpt><trkpt lat="43.4528301" lon="11.2852777"><ele>500.0</ele><time>2026-03-29T12:44:32.826Z</time></trkpt><trkpt lat="43.4526657" lon="11.2851402"><ele>498.0</ele><time>2026-03-29T12:44:33.821Z</time></trkpt><trkpt lat="43.4524802" lon="11.2850165"><ele>498.0</ele><time>2026-03-29T12:44:34.823Z</time></trkpt><trkpt lat="43.4522985" lon="11.2849025"><ele>498.0</ele><time>2026-03-29T12:44:35.814Z</time></trkpt><trkpt lat="43.4521176" lon="11.2847917"><ele>498.0</ele><time>2026-03-29T12:44:36.815Z</time></trkpt><trkpt lat="43.4519224" lon="11.2846649"><ele>495.0</ele><time>2026-03-29T12:44:37.822Z</time></trkpt><trkpt lat="43.4517242" lon="11.284537"><ele>492.0</ele><time>2026-03-29T12:44:38.844Z</time></trkpt><trkpt lat="43.4515415" lon="11.2844113"><ele>489.0</ele><time>2026-03-29T12:44:39.821Z</time></trkpt><trkpt lat="43.4513524" lon="11.2842889"><ele>489.0</ele><time>2026-03-29T12:44:40.835Z</time></trkpt><trkpt lat="43.4511646" lon="11.284175"><ele>489.0</ele><time>2026-03-29T12:44:41.826Z</time></trkpt><trkpt lat="43.4509946" lon="11.2840678"><ele>489.0</ele><time>2026-03-29T12:44:42.821Z</time></trkpt><trkpt lat="43.4508134" lon="11.2839625"><ele>486.0</ele><time>2026-03-29T12:44:43.828Z</time></trkpt><trkpt lat="43.4506425" lon="11.2838552"><ele>483.0</ele><time>2026-03-29T12:44:44.824Z</time></trkpt><trkpt lat="43.4504796" lon="11.2837343"><ele>480.0</ele><time>2026-03-29T12:44:45.815Z</time></trkpt><trkpt lat="43.4503278" lon="11.2835969"><ele>480.0</ele><time>2026-03-29T12:44:46.819Z</time></trkpt><trkpt lat="43.450189" lon="11.2834285"><ele>480.0</ele><time>2026-03-29T12:44:47.822Z</time></trkpt><trkpt lat="43.4500559" lon="11.28322"><ele>480.0</ele><time>2026-03-29T12:44:48.829Z</time></trkpt><trkpt lat="43.4499354" lon="11.2829993"><ele>482.0</ele><time>2026-03-29T12:44:49.824Z</time></trkpt><trkpt lat="43.4498195" lon="11.2827679"><ele>484.0</ele><time>2026-03-29T12:44:50.825Z</time></trkpt><trkpt lat="43.4497098" lon="11.2825253"><ele>486.0</ele><time>2026-03-29T12:44:51.824Z</time></trkpt><trkpt lat="43.4496115" lon="11.282291"><ele>481.0</ele><time>2026-03-29T12:44:52.815Z</time></trkpt><trkpt lat="43.4495117" lon="11.2820528"><ele>476.0</ele><time>2026-03-29T12:44:53.81Z</time></trkpt><trkpt lat="43.4494109" lon="11.2818333"><ele>471.0</ele><time>2026-03-29T12:44:54.822Z</time></trkpt><trkpt lat="43.4493007" lon="11.2816328"><ele>471.0</ele><time>2026-03-29T12:44:55.834Z</time></trkpt><trkpt lat="43.4491896" lon="11.2814702"><ele>471.0</ele><time>2026-03-29T12:44:56.815Z</time></trkpt><trkpt lat="43.4490531" lon="11.2813318"><ele>471.0</ele><time>2026-03-29T12:44:57.811Z</time></trkpt><trkpt lat="43.4489031" lon="11.2812145"><ele>466.66666666666663</ele><time>2026-03-29T12:44:58.813Z</time></trkpt><trkpt lat="43.4487494" lon="11.281106"><ele>462.3333333333333</ele><time>2026-03-29T12:44:59.828Z</time></trkpt><trkpt lat="43.4485984" lon="11.2809803"><ele>458.0</ele><time>2026-03-29T12:45:00.828Z</time></trkpt><trkpt lat="43.4484585" lon="11.2808518"><ele>458.0</ele><time>2026-03-29T12:45:01.821Z</time></trkpt><trkpt lat="43.4483284" lon="11.2806893"><ele>458.0</ele><time>2026-03-29T12:45:02.811Z</time></trkpt><trkpt lat="43.4482275" lon="11.2805067"><ele>458.0</ele><time>2026-03-29T12:45:03.813Z</time></trkpt><trkpt lat="43.4481462" lon="11.2802942"><ele>454.0</ele><time>2026-03-29T12:45:04.808Z</time></trkpt><trkpt lat="43.4480877" lon="11.2800607"><ele>450.0</ele><time>2026-03-29T12:45:05.814Z</time></trkpt><trkpt lat="43.4480255" lon="11.2797971"><ele>446.0</ele><time>2026-03-29T12:45:06.843Z</time></trkpt><trkpt lat="43.4479636" lon="11.2795368"><ele>444.0</ele><time>2026-03-29T12:45:07.819Z</time></trkpt><trkpt lat="43.447888" lon="11.2793009"><ele>442.0</ele><time>2026-03-29T12:45:08.821Z</time></trkpt><trkpt lat="43.4477823" lon="11.2790513"><ele>440.0</ele><time>2026-03-29T12:45:09.81Z</time></trkpt><trkpt lat="43.4476486" lon="11.2787877"><ele>440.0</ele><time>2026-03-29T12:45:10.836Z</time></trkpt><trkpt lat="43.4475081" lon="11.2785512"><ele>440.0</ele><time>2026-03-29T12:45:11.833Z</time></trkpt><trkpt lat="43.4473488" lon="11.2783218"><ele>438.66666666666663</ele><time>2026-03-29T12:45:12.809Z</time></trkpt><trkpt lat="43.4471986" lon="11.2780863"><ele>437.33333333333337</ele><time>2026-03-29T12:45:13.83Z</time></trkpt><trkpt lat="43.4470453" lon="11.2778704"><ele>436.0</ele><time>2026-03-29T12:45:14.814Z</time></trkpt><trkpt lat="43.4468854" lon="11.2776509"><ele>433.0</ele><time>2026-03-29T12:45:15.83Z</time></trkpt><trkpt lat="43.4467345" lon="11.277454"><ele>430.0</ele><time>2026-03-29T12:45:16.819Z</time></trkpt><trkpt lat="43.4465806" lon="11.2772573"><ele>427.0</ele><time>2026-03-29T12:45:17.82Z</time></trkpt><trkpt lat="43.4464551" lon="11.2770488"><ele>426.33333333333337</ele><time>2026-03-29T12:45:18.811Z</time></trkpt><trkpt lat="43.4463444" lon="11.2768176"><ele>425.66666666666663</ele><time>2026-03-29T12:45:19.837Z</time></trkpt><trkpt lat="43.4462515" lon="11.276568"><ele>425.0</ele><time>2026-03-29T12:45:20.828Z</time></trkpt><trkpt lat="43.4461657" lon="11.2762936"><ele>421.66666666666663</ele><time>2026-03-29T12:45:21.824Z</time></trkpt><trkpt lat="43.4460817" lon="11.2760202"><ele>418.33333333333337</ele><time>2026-03-29T12:45:22.809Z</time></trkpt><trkpt lat="43.4459944" lon="11.2757264"><ele>415.0</ele><time>2026-03-29T12:45:23.812Z</time></trkpt><trkpt lat="43.4459098" lon="11.275432"><ele>414.6666666666667</ele><time>2026-03-29T12:45:24.812Z</time></trkpt><trkpt lat="43.4458296" lon="11.27515"><ele>414.33333333333337</ele><time>2026-03-29T12:45:25.806Z</time></trkpt><trkpt lat="43.4457456" lon="11.2748735"><ele>414.0</ele><time>2026-03-29T12:45:26.806Z</time></trkpt><trkpt lat="43.4456261" lon="11.2745919"><ele>414.0</ele><time>2026-03-29T12:45:27.821Z</time></trkpt><trkpt lat="43.4454937" lon="11.2743481"><ele>414.0</ele><time>2026-03-29T12:45:28.827Z</time></trkpt><trkpt lat="43.4453397" lon="11.2741309"><ele>414.0</ele><time>2026-03-29T12:45:29.822Z</time></trkpt><trkpt lat="43.4452401" lon="11.2739791"><ele>415.33333333333337</ele><time>2026-03-29T12:45:30.82Z</time></trkpt><trkpt lat="43.4450683" lon="11.2738158"><ele>416.6666666666667</ele><time>2026-03-29T12:45:31.836Z</time></trkpt><trkpt lat="43.4448915" lon="11.2736705"><ele>418.0</ele><time>2026-03-29T12:45:32.809Z</time></trkpt><trkpt lat="43.4447008" lon="11.2735326"><ele>416.33333333333337</ele><time>2026-03-29T12:45:33.819Z</time></trkpt><trkpt lat="43.4445268" lon="11.2734007"><ele>414.66666666666663</ele><time>2026-03-29T12:45:34.808Z</time></trkpt><trkpt lat="43.4443485" lon="11.2732677"><ele>413.0</ele><time>2026-03-29T12:45:35.824Z</time></trkpt><trkpt lat="43.4441712" lon="11.2731107"><ele>415.3333333333333</ele><time>2026-03-29T12:45:36.841Z</time></trkpt><trkpt lat="43.4440307" lon="11.2729382"><ele>417.66666666666663</ele><time>2026-03-29T12:45:37.811Z</time></trkpt><trkpt lat="43.4439018" lon="11.2727212"><ele>420.0</ele><time>2026-03-29T12:45:38.838Z</time></trkpt><trkpt lat="43.4437958" lon="11.2724888"><ele>413.0</ele><time>2026-03-29T12:45:39.817Z</time></trkpt><trkpt lat="43.443697" lon="11.27221"><ele>406.0</ele><time>2026-03-29T12:45:40.821Z</time></trkpt><trkpt lat="43.4436072" lon="11.271925"><ele>406.0</ele><time>2026-03-29T12:45:41.836Z</time></trkpt><trkpt lat="43.4435202" lon="11.2716558"><ele>406.0</ele><time>2026-03-29T12:45:42.808Z</time></trkpt><trkpt lat="43.443432" lon="11.2713716"><ele>406.0</ele><time>2026-03-29T12:45:43.827Z</time></trkpt><trkpt lat="43.4433471" lon="11.2711215"><ele>407.0</ele><time>2026-03-29T12:45:44.832Z</time></trkpt><trkpt lat="43.4432509" lon="11.2709223"><ele>408.0</ele><time>2026-03-29T12:45:45.837Z</time></trkpt><trkpt lat="43.443124" lon="11.2707343"><ele>409.0</ele><time>2026-03-29T12:45:46.832Z</time></trkpt><trkpt lat="43.4429822" lon="11.2705768"><ele>408.33333333333337</ele><time>2026-03-29T12:45:47.808Z</time></trkpt><trkpt lat="43.4428191" lon="11.2704571"><ele>407.66666666666663</ele><time>2026-03-29T12:45:48.82Z</time></trkpt><trkpt lat="43.4426362" lon="11.2703904"><ele>407.0</ele><time>2026-03-29T12:45:49.863Z</time></trkpt><trkpt lat="43.442469" lon="11.2703721"><ele>407.0</ele><time>2026-03-29T12:45:50.831Z</time></trkpt><trkpt lat="43.4422785" lon="11.2703942"><ele>407.0</ele><time>2026-03-29T12:45:51.808Z</time></trkpt><trkpt lat="43.4420773" lon="11.2704451"><ele>407.0</ele><time>2026-03-29T12:45:52.811Z</time></trkpt><trkpt lat="43.4418636" lon="11.2705017"><ele>403.0</ele><time>2026-03-29T12:45:53.86Z</time></trkpt><trkpt lat="43.4416181" lon="11.2706084"><ele>399.0</ele><time>2026-03-29T12:45:54.884Z</time></trkpt><trkpt lat="43.4413901" lon="11.2706842"><ele>399.0</ele><time>2026-03-29T12:45:55.814Z</time></trkpt><trkpt lat="43.4411393" lon="11.2707715"><ele>399.0</ele><time>2026-03-29T12:45:56.825Z</time></trkpt><trkpt lat="43.4408901" lon="11.2708658"><ele>399.0</ele><time>2026-03-29T12:45:57.812Z</time></trkpt><trkpt lat="43.4406373" lon="11.27098"><ele>399.0</ele><time>2026-03-29T12:45:58.818Z</time></trkpt><trkpt lat="43.4403981" lon="11.2710878"><ele>397.0</ele><time>2026-03-29T12:45:59.811Z</time></trkpt><trkpt lat="43.4401561" lon="11.2711924"><ele>395.0</ele><time>2026-03-29T12:46:00.83Z</time></trkpt><trkpt lat="43.4399532" lon="11.2712799"><ele>395.0</ele><time>2026-03-29T12:46:01.809Z</time></trkpt><trkpt lat="43.4397304" lon="11.2713721"><ele>395.0</ele><time>2026-03-29T12:46:02.811Z</time></trkpt><trkpt lat="43.4395154" lon="11.2714593"><ele>391.3333333333333</ele><time>2026-03-29T12:46:03.858Z</time></trkpt><trkpt lat="43.4393678" lon="11.271494"><ele>387.66666666666663</ele><time>2026-03-29T12:46:04.815Z</time></trkpt><trkpt lat="43.4391863" lon="11.2715148"><ele>384.0</ele><time>2026-03-29T12:46:05.824Z</time></trkpt><trkpt lat="43.439007" lon="11.2715123"><ele>384.0</ele><time>2026-03-29T12:46:06.808Z</time></trkpt><trkpt lat="43.4388072" lon="11.2714921"><ele>384.0</ele><time>2026-03-29T12:46:07.818Z</time></trkpt><trkpt lat="43.4386274" lon="11.2714644"><ele>384.0</ele><time>2026-03-29T12:46:08.822Z</time></trkpt><trkpt lat="43.4384498" lon="11.2714382"><ele>380.3333333333333</ele><time>2026-03-29T12:46:09.817Z</time></trkpt><trkpt lat="43.4382775" lon="11.2714047"><ele>376.66666666666663</ele><time>2026-03-29T12:46:10.807Z</time></trkpt><trkpt lat="43.4381014" lon="11.2713587"><ele>373.0</ele><time>2026-03-29T12:46:11.82Z</time></trkpt><trkpt lat="43.4379316" lon="11.2712912"><ele>368.0</ele><time>2026-03-29T12:46:12.825Z</time></trkpt><trkpt lat="43.4377671" lon="11.2711813"><ele>363.0</ele><time>2026-03-29T12:46:13.824Z</time></trkpt><trkpt lat="43.4375994" lon="11.271026"><ele>358.0</ele><time>2026-03-29T12:46:14.837Z</time></trkpt><trkpt lat="43.4374424" lon="11.2708345"><ele>358.0</ele><time>2026-03-29T12:46:15.837Z</time></trkpt><trkpt lat="43.4372761" lon="11.2706264"><ele>358.0</ele><time>2026-03-29T12:46:16.838Z</time></trkpt><trkpt lat="43.4371075" lon="11.2704222"><ele>358.0</ele><time>2026-03-29T12:46:17.823Z</time></trkpt><trkpt lat="43.4369226" lon="11.2701975"><ele>355.0</ele><time>2026-03-29T12:46:18.823Z</time></trkpt><trkpt lat="43.4367432" lon="11.269964"><ele>352.0</ele><time>2026-03-29T12:46:19.815Z</time></trkpt><trkpt lat="43.4365622" lon="11.2697251"><ele>349.0</ele><time>2026-03-29T12:46:20.824Z</time></trkpt><trkpt lat="43.4363841" lon="11.2695003"><ele>346.0</ele><time>2026-03-29T12:46:21.815Z</time></trkpt><trkpt lat="43.4362048" lon="11.2692775"><ele>346.0</ele><time>2026-03-29T12:46:22.823Z</time></trkpt><trkpt lat="43.4360267" lon="11.2690641"><ele>346.0</ele><time>2026-03-29T12:46:23.82Z</time></trkpt><trkpt lat="43.4358503" lon="11.2688472"><ele>343.0</ele><time>2026-03-29T12:46:24.826Z</time></trkpt><trkpt lat="43.435676" lon="11.2686283"><ele>340.0</ele><time>2026-03-29T12:46:25.832Z</time></trkpt><trkpt lat="43.4355087" lon="11.268421"><ele>338.3333333333333</ele><time>2026-03-29T12:46:26.816Z</time></trkpt><trkpt lat="43.4353421" lon="11.2682163"><ele>336.6666666666667</ele><time>2026-03-29T12:46:27.834Z</time></trkpt><trkpt lat="43.4351923" lon="11.2680265"><ele>335.0</ele><time>2026-03-29T12:46:28.817Z</time></trkpt><trkpt lat="43.4350424" lon="11.267833"><ele>334.0</ele><time>2026-03-29T12:46:29.828Z</time></trkpt><trkpt lat="43.4349033" lon="11.2676578"><ele>333.0</ele><time>2026-03-29T12:46:30.823Z</time></trkpt><trkpt lat="43.4347678" lon="11.2674858"><ele>332.0</ele><time>2026-03-29T12:46:31.819Z</time></trkpt><trkpt lat="43.4346363" lon="11.2673124"><ele>329.0</ele><time>2026-03-29T12:46:32.83Z</time></trkpt><trkpt lat="43.4345066" lon="11.2671461"><ele>326.0</ele><time>2026-03-29T12:46:33.839Z</time></trkpt><trkpt lat="43.4343778" lon="11.2669796"><ele>323.0</ele><time>2026-03-29T12:46:34.835Z</time></trkpt><trkpt lat="43.4342528" lon="11.2668142"><ele>323.0</ele><time>2026-03-29T12:46:35.833Z</time></trkpt><trkpt lat="43.4341248" lon="11.2666461"><ele>323.0</ele><time>2026-03-29T12:46:36.83Z</time></trkpt><trkpt lat="43.4339984" lon="11.2664816"><ele>323.0</ele><time>2026-03-29T12:46:37.829Z</time></trkpt><trkpt lat="43.4338798" lon="11.2663226"><ele>322.33333333333337</ele><time>2026-03-29T12:46:38.813Z</time></trkpt><trkpt lat="43.4337544" lon="11.2661565"><ele>321.6666666666667</ele><time>2026-03-29T12:46:39.866Z</time></trkpt><trkpt lat="43.4336425" lon="11.2660124"><ele>321.0</ele><time>2026-03-29T12:46:40.805Z</time></trkpt><trkpt lat="43.4335271" lon="11.2658542"><ele>321.0</ele><time>2026-03-29T12:46:41.837Z</time></trkpt><trkpt lat="43.4334187" lon="11.2656899"><ele>321.0</ele><time>2026-03-29T12:46:42.824Z</time></trkpt><trkpt lat="43.4333226" lon="11.2655135"><ele>321.0</ele><time>2026-03-29T12:46:43.811Z</time></trkpt><trkpt lat="43.4332344" lon="11.2653119"><ele>321.0</ele><time>2026-03-29T12:46:44.831Z</time></trkpt><trkpt lat="43.4331574" lon="11.2650978"><ele>321.0</ele><time>2026-03-29T12:46:45.809Z</time></trkpt><trkpt lat="43.4330892" lon="11.2648535"><ele>321.0</ele><time>2026-03-29T12:46:46.834Z</time></trkpt><trkpt lat="43.433036" lon="11.2645936"><ele>320.3333333333333</ele><time>2026-03-29T12:46:47.836Z</time></trkpt><trkpt lat="43.4330042" lon="11.2643275"><ele>319.66666666666663</ele><time>2026-03-29T12:46:48.822Z</time></trkpt><trkpt lat="43.4329928" lon="11.2640424"><ele>319.0</ele><time>2026-03-29T12:46:49.817Z</time></trkpt><trkpt lat="43.4330058" lon="11.2637615"><ele>316.66666666666663</ele><time>2026-03-29T12:46:50.805Z</time></trkpt><trkpt lat="43.4330448" lon="11.2634469"><ele>314.3333333333333</ele><time>2026-03-29T12:46:51.842Z</time></trkpt><trkpt lat="43.4330869" lon="11.2631598"><ele>312.0</ele><time>2026-03-29T12:46:52.813Z</time></trkpt><trkpt lat="43.433144" lon="11.2628496"><ele>310.0</ele><time>2026-03-29T12:46:53.859Z</time></trkpt><trkpt lat="43.4332021" lon="11.2625611"><ele>308.0</ele><time>2026-03-29T12:46:54.82Z</time></trkpt><trkpt lat="43.4332673" lon="11.262277"><ele>306.0</ele><time>2026-03-29T12:46:55.809Z</time></trkpt><trkpt lat="43.4333426" lon="11.2619729"><ele>302.5</ele><time>2026-03-29T12:46:56.807Z</time></trkpt><trkpt lat="43.4334195" lon="11.2616605"><ele>299.0</ele><time>2026-03-29T12:46:57.826Z</time></trkpt><trkpt lat="43.4334854" lon="11.2613625"><ele>295.0</ele><time>2026-03-29T12:46:58.818Z</time></trkpt><trkpt lat="43.4335462" lon="11.2610638"><ele>291.0</ele><time>2026-03-29T12:46:59.807Z</time></trkpt><trkpt lat="43.4335914" lon="11.2607496"><ele>287.0</ele><time>2026-03-29T12:47:00.825Z</time></trkpt><trkpt lat="43.433621" lon="11.2604441"><ele>283.0</ele><time>2026-03-29T12:47:01.819Z</time></trkpt><trkpt lat="43.4336387" lon="11.2601309"><ele>283.0</ele><time>2026-03-29T12:47:02.816Z</time></trkpt><trkpt lat="43.433642" lon="11.2598181"><ele>283.0</ele><time>2026-03-29T12:47:03.818Z</time></trkpt><trkpt lat="43.4336307" lon="11.2595037"><ele>279.5</ele><time>2026-03-29T12:47:04.817Z</time></trkpt><trkpt lat="43.4336051" lon="11.2591804"><ele>276.0</ele><time>2026-03-29T12:47:05.823Z</time></trkpt><trkpt lat="43.4335556" lon="11.2588585"><ele>274.0</ele><time>2026-03-29T12:47:06.836Z</time></trkpt><trkpt lat="43.4334887" lon="11.2585618"><ele>272.0</ele><time>2026-03-29T12:47:07.812Z</time></trkpt><trkpt lat="43.4334092" lon="11.2582303"><ele>269.5</ele><time>2026-03-29T12:47:08.845Z</time></trkpt><trkpt lat="43.433331" lon="11.2579123"><ele>267.0</ele><time>2026-03-29T12:47:09.825Z</time></trkpt><trkpt lat="43.4332499" lon="11.2575905"><ele>263.0</ele><time>2026-03-29T12:47:10.814Z</time></trkpt><trkpt lat="43.4331678" lon="11.2572539"><ele>259.0</ele><time>2026-03-29T12:47:11.832Z</time></trkpt><trkpt lat="43.4330898" lon="11.2569289"><ele>259.0</ele><time>2026-03-29T12:47:12.819Z</time></trkpt><trkpt lat="43.4330155" lon="11.256604"><ele>259.0</ele><time>2026-03-29T12:47:13.827Z</time></trkpt><trkpt lat="43.4329436" lon="11.2562907"><ele>252.5</ele><time>2026-03-29T12:47:14.822Z</time></trkpt><trkpt lat="43.4328724" lon="11.2559773"><ele>246.0</ele><time>2026-03-29T12:47:15.823Z</time></trkpt><trkpt lat="43.4328009" lon="11.255663"><ele>246.0</ele><time>2026-03-29T12:47:16.827Z</time></trkpt><trkpt lat="43.4327318" lon="11.255359"><ele>246.0</ele><time>2026-03-29T12:47:17.815Z</time></trkpt><trkpt lat="43.4326607" lon="11.2550574"><ele>246.66666666666669</ele><time>2026-03-29T12:47:18.828Z</time></trkpt><trkpt lat="43.4325886" lon="11.2547696"><ele>247.33333333333334</ele><time>2026-03-29T12:47:19.824Z</time></trkpt><trkpt lat="43.4325154" lon="11.2544909"><ele>248.0</ele><time>2026-03-29T12:47:20.829Z</time></trkpt><trkpt lat="43.4324453" lon="11.2542468"><ele>248.0</ele><time>2026-03-29T12:47:21.819Z</time></trkpt><trkpt lat="43.432361" lon="11.2540049"><ele>248.0</ele><time>2026-03-29T12:47:22.824Z</time></trkpt><trkpt lat="43.432261" lon="11.2537931"><ele>248.0</ele><time>2026-03-29T12:47:23.824Z</time></trkpt><trkpt lat="43.4321464" lon="11.2536175"><ele>246.66666666666669</ele><time>2026-03-29T12:47:24.826Z</time></trkpt><trkpt lat="43.4320112" lon="11.2534689"><ele>245.33333333333331</ele><time>2026-03-29T12:47:25.849Z</time></trkpt><trkpt lat="43.4318632" lon="11.2533423"><ele>244.0</ele><time>2026-03-29T12:47:26.818Z</time></trkpt><trkpt lat="43.4316968" lon="11.2532218"><ele>245.0</ele><time>2026-03-29T12:47:27.817Z</time></trkpt><trkpt lat="43.4315142" lon="11.2530933"><ele>246.0</ele><time>2026-03-29T12:47:28.827Z</time></trkpt><trkpt lat="43.4313264" lon="11.2529612"><ele>247.0</ele><time>2026-03-29T12:47:29.827Z</time></trkpt><trkpt lat="43.4311272" lon="11.2528259"><ele>244.0</ele><time>2026-03-29T12:47:30.83Z</time></trkpt><trkpt lat="43.4309067" lon="11.252683"><ele>241.0</ele><time>2026-03-29T12:47:31.819Z</time></trkpt><trkpt lat="43.4306891" lon="11.2525336"><ele>239.0</ele><time>2026-03-29T12:47:32.818Z</time></trkpt><trkpt lat="43.4304563" lon="11.2523775"><ele>237.0</ele><time>2026-03-29T12:47:33.828Z</time></trkpt><trkpt lat="43.4302462" lon="11.2522295"><ele>237.0</ele><time>2026-03-29T12:47:34.822Z</time></trkpt><trkpt lat="43.4300684" lon="11.25209"><ele>237.0</ele><time>2026-03-29T12:47:35.834Z</time></trkpt><trkpt lat="43.4299153" lon="11.2519457"><ele>237.0</ele><time>2026-03-29T12:47:36.808Z</time></trkpt><trkpt lat="43.4297799" lon="11.2517671"><ele>237.0</ele><time>2026-03-29T12:47:37.827Z</time></trkpt><trkpt lat="43.4296704" lon="11.2515479"><ele>237.0</ele><time>2026-03-29T12:47:38.807Z</time></trkpt><trkpt lat="43.4295854" lon="11.2513116"><ele>237.0</ele><time>2026-03-29T12:47:39.817Z</time></trkpt><trkpt lat="43.4295089" lon="11.2510505"><ele>233.33333333333331</ele><time>2026-03-29T12:47:40.822Z</time></trkpt><trkpt lat="43.4294412" lon="11.2507857"><ele>229.66666666666666</ele><time>2026-03-29T12:47:41.82Z</time></trkpt><trkpt lat="43.4293877" lon="11.250511"><ele>226.0</ele><time>2026-03-29T12:47:42.821Z</time></trkpt><trkpt lat="43.4293608" lon="11.250224"><ele>226.0</ele><time>2026-03-29T12:47:43.83Z</time></trkpt><trkpt lat="43.4293458" lon="11.2499505"><ele>226.0</ele><time>2026-03-29T12:47:44.824Z</time></trkpt><trkpt lat="43.4293467" lon="11.249671"><ele>226.0</ele><time>2026-03-29T12:47:45.814Z</time></trkpt><trkpt lat="43.4293499" lon="11.2493725"><ele>225.66666666666666</ele><time>2026-03-29T12:47:46.807Z</time></trkpt><trkpt lat="43.4293234" lon="11.249083"><ele>225.33333333333331</ele><time>2026-03-29T12:47:47.844Z</time></trkpt><trkpt lat="43.4292903" lon="11.2487722"><ele>225.0</ele><time>2026-03-29T12:47:48.815Z</time></trkpt><trkpt lat="43.4292432" lon="11.2484384"><ele>229.0</ele><time>2026-03-29T12:47:49.816Z</time></trkpt><trkpt lat="43.4291843" lon="11.2481013"><ele>233.0</ele><time>2026-03-29T12:47:50.831Z</time></trkpt><trkpt lat="43.429124" lon="11.2477936"><ele>233.0</ele><time>2026-03-29T12:47:51.815Z</time></trkpt><trkpt lat="43.4290421" lon="11.2474828"><ele>233.0</ele><time>2026-03-29T12:47:52.827Z</time></trkpt><trkpt lat="43.4289405" lon="11.2471963"><ele>230.66666666666669</ele><time>2026-03-29T12:47:53.829Z</time></trkpt><trkpt lat="43.4288227" lon="11.2469398"><ele>228.33333333333331</ele><time>2026-03-29T12:47:54.808Z</time></trkpt><trkpt lat="43.4286894" lon="11.2467176"><ele>226.0</ele><time>2026-03-29T12:47:55.836Z</time></trkpt><trkpt lat="43.4285697" lon="11.2465308"><ele>227.0</ele><time>2026-03-29T12:47:56.811Z</time></trkpt><trkpt lat="43.428459" lon="11.2463293"><ele>228.0</ele><time>2026-03-29T12:47:57.848Z</time></trkpt><trkpt lat="43.4283549" lon="11.2461127"><ele>229.0</ele><time>2026-03-29T12:47:58.837Z</time></trkpt><trkpt lat="43.4282916" lon="11.2459067"><ele>229.0</ele><time>2026-03-29T12:47:59.825Z</time></trkpt><trkpt lat="43.4282658" lon="11.2456924"><ele>229.0</ele><time>2026-03-29T12:48:00.813Z</time></trkpt><trkpt lat="43.4282614" lon="11.2454"><ele>229.0</ele><time>2026-03-29T12:48:01.826Z</time></trkpt><trkpt lat="43.4282837" lon="11.2450996"><ele>229.0</ele><time>2026-03-29T12:48:02.842Z</time></trkpt><trkpt lat="43.4283193" lon="11.2448152"><ele>229.0</ele><time>2026-03-29T12:48:03.828Z</time></trkpt><trkpt lat="43.4283587" lon="11.2445224"><ele>229.0</ele><time>2026-03-29T12:48:04.823Z</time></trkpt><trkpt lat="43.4284009" lon="11.2442221"><ele>230.0</ele><time>2026-03-29T12:48:05.826Z</time></trkpt><trkpt lat="43.428444" lon="11.2439271"><ele>231.0</ele><time>2026-03-29T12:48:06.819Z</time></trkpt><trkpt lat="43.4284659" lon="11.2436552"><ele>232.0</ele><time>2026-03-29T12:48:07.842Z</time></trkpt><trkpt lat="43.4284745" lon="11.2434029"><ele>232.0</ele><time>2026-03-29T12:48:08.81Z</time></trkpt><trkpt lat="43.4284556" lon="11.2431683"><ele>232.0</ele><time>2026-03-29T12:48:09.829Z</time></trkpt><trkpt lat="43.4284112" lon="11.242933"><ele>232.0</ele><time>2026-03-29T12:48:10.808Z</time></trkpt><trkpt lat="43.4283331" lon="11.2426989"><ele>232.33333333333331</ele><time>2026-03-29T12:48:11.832Z</time></trkpt><trkpt lat="43.4282363" lon="11.2424919"><ele>232.66666666666669</ele><time>2026-03-29T12:48:12.833Z</time></trkpt><trkpt lat="43.4281036" lon="11.2422802"><ele>233.0</ele><time>2026-03-29T12:48:13.848Z</time></trkpt><trkpt lat="43.4279499" lon="11.2420783"><ele>233.0</ele><time>2026-03-29T12:48:14.813Z</time></trkpt><trkpt lat="43.4277947" lon="11.2418787"><ele>233.0</ele><time>2026-03-29T12:48:15.855Z</time></trkpt><trkpt lat="43.4276433" lon="11.2416767"><ele>233.0</ele><time>2026-03-29T12:48:16.838Z</time></trkpt><trkpt lat="43.4275029" lon="11.2414985"><ele>231.0</ele><time>2026-03-29T12:48:17.804Z</time></trkpt><trkpt lat="43.4273518" lon="11.2413339"><ele>229.0</ele><time>2026-03-29T12:48:18.824Z</time></trkpt><trkpt lat="43.4271995" lon="11.2411991"><ele>227.0</ele><time>2026-03-29T12:48:19.826Z</time></trkpt><trkpt lat="43.4270349" lon="11.2410806"><ele>226.0</ele><time>2026-03-29T12:48:20.84Z</time></trkpt><trkpt lat="43.4268637" lon="11.2409891"><ele>225.0</ele><time>2026-03-29T12:48:21.823Z</time></trkpt><trkpt lat="43.426675" lon="11.2409257"><ele>224.0</ele><time>2026-03-29T12:48:22.819Z</time></trkpt><trkpt lat="43.4264709" lon="11.2408893"><ele>222.66666666666669</ele><time>2026-03-29T12:48:23.815Z</time></trkpt><trkpt lat="43.4262554" lon="11.2408747"><ele>221.33333333333331</ele><time>2026-03-29T12:48:24.829Z</time></trkpt><trkpt lat="43.4260538" lon="11.2408597"><ele>220.0</ele><time>2026-03-29T12:48:25.817Z</time></trkpt><trkpt lat="43.4258523" lon="11.2408454"><ele>220.0</ele><time>2026-03-29T12:48:26.821Z</time></trkpt><trkpt lat="43.4256573" lon="11.240814"><ele>220.0</ele><time>2026-03-29T12:48:27.845Z</time></trkpt><trkpt lat="43.4254832" lon="11.2407537"><ele>220.0</ele><time>2026-03-29T12:48:28.815Z</time></trkpt><trkpt lat="43.4253248" lon="11.2406457"><ele>217.0</ele><time>2026-03-29T12:48:29.82Z</time></trkpt><trkpt lat="43.4251628" lon="11.2404967"><ele>214.0</ele><time>2026-03-29T12:48:30.817Z</time></trkpt><trkpt lat="43.4250141" lon="11.2402931"><ele>211.0</ele><time>2026-03-29T12:48:31.814Z</time></trkpt><trkpt lat="43.4248576" lon="11.2400464"><ele>209.5</ele><time>2026-03-29T12:48:32.82Z</time></trkpt><trkpt lat="43.4246942" lon="11.2397957"><ele>208.0</ele><time>2026-03-29T12:48:33.82Z</time></trkpt><trkpt lat="43.4245252" lon="11.2395326"><ele>208.0</ele><time>2026-03-29T12:48:34.851Z</time></trkpt><trkpt lat="43.4243835" lon="11.2392839"><ele>208.0</ele><time>2026-03-29T12:48:35.835Z</time></trkpt><trkpt lat="43.4242572" lon="11.2390253"><ele>206.0</ele><time>2026-03-29T12:48:36.828Z</time></trkpt><trkpt lat="43.4241552" lon="11.2387523"><ele>204.0</ele><time>2026-03-29T12:48:37.828Z</time></trkpt><trkpt lat="43.4240756" lon="11.2384869"><ele>202.0</ele><time>2026-03-29T12:48:38.814Z</time></trkpt><trkpt lat="43.4240131" lon="11.2382168"><ele>201.66666666666666</ele><time>2026-03-29T12:48:39.827Z</time></trkpt><trkpt lat="43.4239846" lon="11.2379302"><ele>201.33333333333331</ele><time>2026-03-29T12:48:40.827Z</time></trkpt><trkpt lat="43.4239846" lon="11.2376312"><ele>201.0</ele><time>2026-03-29T12:48:41.836Z</time></trkpt><trkpt lat="43.4240178" lon="11.2373181"><ele>200.5</ele><time>2026-03-29T12:48:42.824Z</time></trkpt><trkpt lat="43.4240864" lon="11.2369899"><ele>200.0</ele><time>2026-03-29T12:48:43.815Z</time></trkpt><trkpt lat="43.4241828" lon="11.2366771"><ele>199.5</ele><time>2026-03-29T12:48:44.808Z</time></trkpt><trkpt lat="43.4242895" lon="11.2363744"><ele>199.0</ele><time>2026-03-29T12:48:45.821Z</time></trkpt><trkpt lat="43.4244062" lon="11.236075"><ele>199.0</ele><time>2026-03-29T12:48:46.829Z</time></trkpt><trkpt lat="43.4245511" lon="11.2357981"><ele>199.0</ele><time>2026-03-29T12:48:47.826Z</time></trkpt><trkpt lat="43.4246386" lon="11.2355253"><ele>198.66666666666666</ele><time>2026-03-29T12:48:48.833Z</time></trkpt><trkpt lat="43.4246736" lon="11.2352718"><ele>198.33333333333331</ele><time>2026-03-29T12:48:49.822Z</time></trkpt><trkpt lat="43.4246793" lon="11.2349933"><ele>198.0</ele><time>2026-03-29T12:48:50.817Z</time></trkpt><trkpt lat="43.4246535" lon="11.2347059"><ele>198.0</ele><time>2026-03-29T12:48:51.824Z</time></trkpt><trkpt lat="43.424601" lon="11.2344788"><ele>198.0</ele><time>2026-03-29T12:48:52.825Z</time></trkpt><trkpt lat="43.4245087" lon="11.2342232"><ele>198.0</ele><time>2026-03-29T12:48:53.84Z</time></trkpt><trkpt lat="43.424401" lon="11.2339602"><ele>198.5</ele><time>2026-03-29T12:48:54.847Z</time></trkpt><trkpt lat="43.4242851" lon="11.233698"><ele>199.0</ele><time>2026-03-29T12:48:55.837Z</time></trkpt><trkpt lat="43.4241669" lon="11.2333756"><ele>198.5</ele><time>2026-03-29T12:48:56.86Z</time></trkpt><trkpt lat="43.4240503" lon="11.233057"><ele>198.0</ele><time>2026-03-29T12:48:57.834Z</time></trkpt><trkpt lat="43.4239273" lon="11.2327182"><ele>197.5</ele><time>2026-03-29T12:48:58.845Z</time></trkpt><trkpt lat="43.4237945" lon="11.2323611"><ele>197.0</ele><time>2026-03-29T12:48:59.86Z</time></trkpt><trkpt lat="43.423664" lon="11.2320119"><ele>196.5</ele><time>2026-03-29T12:49:00.851Z</time></trkpt><trkpt lat="43.4235393" lon="11.2316646"><ele>196.0</ele><time>2026-03-29T12:49:01.822Z</time></trkpt><trkpt lat="43.4234153" lon="11.231314"><ele>196.0</ele><time>2026-03-29T12:49:02.818Z</time></trkpt><trkpt lat="43.4232924" lon="11.2309579"><ele>196.0</ele><time>2026-03-29T12:49:03.825Z</time></trkpt><trkpt lat="43.4231736" lon="11.2306095"><ele>196.5</ele><time>2026-03-29T12:49:04.816Z</time></trkpt><trkpt lat="43.4230581" lon="11.2302712"><ele>197.0</ele><time>2026-03-29T12:49:05.82Z</time></trkpt><trkpt lat="43.4229497" lon="11.2299524"><ele>196.5</ele><time>2026-03-29T12:49:06.819Z</time></trkpt><trkpt lat="43.4228546" lon="11.229653"><ele>196.0</ele><time>2026-03-29T12:49:07.807Z</time></trkpt><trkpt lat="43.4227583" lon="11.2293575"><ele>196.0</ele><time>2026-03-29T12:49:08.818Z</time></trkpt><trkpt lat="43.4226672" lon="11.2290701"><ele>196.0</ele><time>2026-03-29T12:49:09.82Z</time></trkpt><trkpt lat="43.4225748" lon="11.228791"><ele>196.66666666666666</ele><time>2026-03-29T12:49:10.819Z</time></trkpt><trkpt lat="43.4224799" lon="11.2285078"><ele>197.33333333333331</ele><time>2026-03-29T12:49:11.828Z</time></trkpt><trkpt lat="43.4223892" lon="11.22823"><ele>198.0</ele><time>2026-03-29T12:49:12.813Z</time></trkpt><trkpt lat="43.4222964" lon="11.22794"><ele>198.5</ele><time>2026-03-29T12:49:13.832Z</time></trkpt><trkpt lat="43.422213" lon="11.2276477"><ele>199.0</ele><time>2026-03-29T12:49:14.84Z</time></trkpt><trkpt lat="43.4221328" lon="11.2273477"><ele>197.5</ele><time>2026-03-29T12:49:15.833Z</time></trkpt><trkpt lat="43.4220566" lon="11.2270377"><ele>196.0</ele><time>2026-03-29T12:49:16.818Z</time></trkpt><trkpt lat="43.4219772" lon="11.2267268"><ele>197.0</ele><time>2026-03-29T12:49:17.808Z</time></trkpt><trkpt lat="43.4218983" lon="11.2264121"><ele>198.0</ele><time>2026-03-29T12:49:18.825Z</time></trkpt><trkpt lat="43.4218246" lon="11.2261088"><ele>198.0</ele><time>2026-03-29T12:49:19.819Z</time></trkpt><trkpt lat="43.4217538" lon="11.2258119"><ele>198.0</ele><time>2026-03-29T12:49:20.819Z</time></trkpt><trkpt lat="43.4216842" lon="11.2255188"><ele>198.33333333333331</ele><time>2026-03-29T12:49:21.813Z</time></trkpt><trkpt lat="43.4216161" lon="11.2252191"><ele>198.66666666666666</ele><time>2026-03-29T12:49:22.836Z</time></trkpt><trkpt lat="43.4215502" lon="11.2249393"><ele>199.0</ele><time>2026-03-29T12:49:23.817Z</time></trkpt><trkpt lat="43.4214822" lon="11.2246513"><ele>199.33333333333331</ele><time>2026-03-29T12:49:24.841Z</time></trkpt><trkpt lat="43.42142" lon="11.2243934"><ele>199.66666666666669</ele><time>2026-03-29T12:49:25.826Z</time></trkpt><trkpt lat="43.4213572" lon="11.2241462"><ele>200.0</ele><time>2026-03-29T12:49:26.821Z</time></trkpt><trkpt lat="43.4212812" lon="11.2239211"><ele>200.66666666666669</ele><time>2026-03-29T12:49:27.813Z</time></trkpt><trkpt lat="43.4211955" lon="11.2236973"><ele>201.33333333333331</ele><time>2026-03-29T12:49:28.819Z</time></trkpt><trkpt lat="43.4210885" lon="11.2234738"><ele>202.0</ele><time>2026-03-29T12:49:29.823Z</time></trkpt><trkpt lat="43.4209649" lon="11.2232591"><ele>201.33333333333331</ele><time>2026-03-29T12:49:30.834Z</time></trkpt><trkpt lat="43.4208357" lon="11.2230742"><ele>200.66666666666669</ele><time>2026-03-29T12:49:31.814Z</time></trkpt><trkpt lat="43.4207008" lon="11.2228837"><ele>200.0</ele><time>2026-03-29T12:49:32.838Z</time></trkpt><trkpt lat="43.4205698" lon="11.2226983"><ele>200.0</ele><time>2026-03-29T12:49:33.85Z</time></trkpt><trkpt lat="43.4204377" lon="11.2225199"><ele>200.0</ele><time>2026-03-29T12:49:34.854Z</time></trkpt><trkpt lat="43.4203082" lon="11.2223411"><ele>200.0</ele><time>2026-03-29T12:49:35.816Z</time></trkpt><trkpt lat="43.420179" lon="11.2221454"><ele>200.0</ele><time>2026-03-29T12:49:36.814Z</time></trkpt><trkpt lat="43.4200635" lon="11.2219408"><ele>200.0</ele><time>2026-03-29T12:49:37.815Z</time></trkpt><trkpt lat="43.4199576" lon="11.221708"><ele>200.0</ele><time>2026-03-29T12:49:38.818Z</time></trkpt><trkpt lat="43.4198679" lon="11.2214567"><ele>199.33333333333334</ele><time>2026-03-29T12:49:39.822Z</time></trkpt><trkpt lat="43.4197962" lon="11.2211966"><ele>198.66666666666669</ele><time>2026-03-29T12:49:40.84Z</time></trkpt><trkpt lat="43.419746" lon="11.2209464"><ele>198.0</ele><time>2026-03-29T12:49:41.819Z</time></trkpt><trkpt lat="43.4197095" lon="11.2206914"><ele>198.0</ele><time>2026-03-29T12:49:42.83Z</time></trkpt><trkpt lat="43.4196731" lon="11.220442"><ele>198.0</ele><time>2026-03-29T12:49:43.842Z</time></trkpt><trkpt lat="43.4196391" lon="11.2202049"><ele>198.0</ele><time>2026-03-29T12:49:44.832Z</time></trkpt><trkpt lat="43.4195965" lon="11.2199943"><ele>196.33333333333331</ele><time>2026-03-29T12:49:45.822Z</time></trkpt><trkpt lat="43.4195411" lon="11.2197809"><ele>194.66666666666666</ele><time>2026-03-29T12:49:46.819Z</time></trkpt><trkpt lat="43.4194756" lon="11.2195803"><ele>193.0</ele><time>2026-03-29T12:49:47.835Z</time></trkpt><trkpt lat="43.4194126" lon="11.2194117"><ele>193.0</ele><time>2026-03-29T12:49:48.812Z</time></trkpt><trkpt lat="43.419341" lon="11.2192548"><ele>193.0</ele><time>2026-03-29T12:49:49.819Z</time></trkpt><trkpt lat="43.4192677" lon="11.2191185"><ele>193.0</ele><time>2026-03-29T12:49:50.808Z</time></trkpt><trkpt lat="43.4191956" lon="11.2189901"><ele>193.0</ele><time>2026-03-29T12:49:51.851Z</time></trkpt><trkpt lat="43.4191286" lon="11.2188746"><ele>192.5</ele><time>2026-03-29T12:49:52.814Z</time></trkpt><trkpt lat="43.41906" lon="11.2187489"><ele>192.0</ele><time>2026-03-29T12:49:53.818Z</time></trkpt><trkpt lat="43.418988" lon="11.2186243"><ele>191.5</ele><time>2026-03-29T12:49:54.814Z</time></trkpt><trkpt lat="43.4189126" lon="11.218498"><ele>191.0</ele><time>2026-03-29T12:49:55.821Z</time></trkpt><trkpt lat="43.4188379" lon="11.2183704"><ele>191.5</ele><time>2026-03-29T12:49:56.824Z</time></trkpt><trkpt lat="43.4187704" lon="11.2182357"><ele>192.0</ele><time>2026-03-29T12:49:57.815Z</time></trkpt><trkpt lat="43.4187082" lon="11.2180927"><ele>192.5</ele><time>2026-03-29T12:49:58.816Z</time></trkpt><trkpt lat="43.4186533" lon="11.2179406"><ele>193.0</ele><time>2026-03-29T12:49:59.83Z</time></trkpt><trkpt lat="43.4185982" lon="11.2177844"><ele>191.75</ele><time>2026-03-29T12:50:00.821Z</time></trkpt><trkpt lat="43.4185426" lon="11.2176214"><ele>190.5</ele><time>2026-03-29T12:50:01.841Z</time></trkpt><trkpt lat="43.4184916" lon="11.2174658"><ele>189.25</ele><time>2026-03-29T12:50:02.81Z</time></trkpt><trkpt lat="43.4184332" lon="11.2173011"><ele>188.0</ele><time>2026-03-29T12:50:03.823Z</time></trkpt><trkpt lat="43.4183697" lon="11.2171149"><ele>187.25</ele><time>2026-03-29T12:50:04.859Z</time></trkpt><trkpt lat="43.4183155" lon="11.2169602"><ele>186.5</ele><time>2026-03-29T12:50:05.823Z</time></trkpt><trkpt lat="43.4182434" lon="11.216763"><ele>185.75</ele><time>2026-03-29T12:50:06.831Z</time></trkpt><trkpt lat="43.4181651" lon="11.2165736"><ele>185.0</ele><time>2026-03-29T12:50:07.822Z</time></trkpt><trkpt lat="43.4180888" lon="11.2163784"><ele>183.66666666666666</ele><time>2026-03-29T12:50:08.825Z</time></trkpt><trkpt lat="43.4180167" lon="11.2161881"><ele>182.33333333333334</ele><time>2026-03-29T12:50:09.816Z</time></trkpt><trkpt lat="43.417943" lon="11.2159942"><ele>181.0</ele><time>2026-03-29T12:50:10.817Z</time></trkpt><trkpt lat="43.4178646" lon="11.2158"><ele>179.66666666666669</ele><time>2026-03-29T12:50:11.829Z</time></trkpt><trkpt lat="43.4177866" lon="11.2156143"><ele>178.33333333333334</ele><time>2026-03-29T12:50:12.807Z</time></trkpt><trkpt lat="43.4177075" lon="11.2154156"><ele>177.0</ele><time>2026-03-29T12:50:13.823Z</time></trkpt><trkpt lat="43.4176304" lon="11.215226"><ele>177.0</ele><time>2026-03-29T12:50:14.824Z</time></trkpt><trkpt lat="43.4175551" lon="11.2150422"><ele>177.0</ele><time>2026-03-29T12:50:15.819Z</time></trkpt><trkpt lat="43.4174767" lon="11.2148482"><ele>177.0</ele><time>2026-03-29T12:50:16.832Z</time></trkpt><trkpt lat="43.4173963" lon="11.2146506"><ele>176.66666666666666</ele><time>2026-03-29T12:50:17.819Z</time></trkpt><trkpt lat="43.4173153" lon="11.2144442"><ele>176.33333333333331</ele><time>2026-03-29T12:50:18.84Z</time></trkpt><trkpt lat="43.4172354" lon="11.2142448"><ele>176.0</ele><time>2026-03-29T12:50:19.831Z</time></trkpt><trkpt lat="43.4171559" lon="11.2140413"><ele>177.0</ele><time>2026-03-29T12:50:20.818Z</time></trkpt><trkpt lat="43.4170716" lon="11.213828"><ele>178.0</ele><time>2026-03-29T12:50:21.82Z</time></trkpt><trkpt lat="43.4169838" lon="11.2136101"><ele>179.0</ele><time>2026-03-29T12:50:22.824Z</time></trkpt><trkpt lat="43.4168893" lon="11.2133867"><ele>179.0</ele><time>2026-03-29T12:50:23.842Z</time></trkpt><trkpt lat="43.416799" lon="11.2131715"><ele>179.0</ele><time>2026-03-29T12:50:24.829Z</time></trkpt><trkpt lat="43.4167035" lon="11.2129485"><ele>179.0</ele><time>2026-03-29T12:50:25.821Z</time></trkpt><trkpt lat="43.4166026" lon="11.2127124"><ele>179.33333333333331</ele><time>2026-03-29T12:50:26.824Z</time></trkpt><trkpt lat="43.4164978" lon="11.2124717"><ele>179.66666666666666</ele><time>2026-03-29T12:50:27.822Z</time></trkpt><trkpt lat="43.4163903" lon="11.2122235"><ele>180.0</ele><time>2026-03-29T12:50:28.857Z</time></trkpt><trkpt lat="43.4162933" lon="11.2119961"><ele>181.66666666666666</ele><time>2026-03-29T12:50:29.822Z</time></trkpt><trkpt lat="43.4161966" lon="11.2117723"><ele>183.33333333333331</ele><time>2026-03-29T12:50:30.819Z</time></trkpt><trkpt lat="43.4161081" lon="11.2115706"><ele>185.0</ele><time>2026-03-29T12:50:31.816Z</time></trkpt><trkpt lat="43.4160237" lon="11.211369"><ele>185.0</ele><time>2026-03-29T12:50:32.844Z</time></trkpt><trkpt lat="43.4159362" lon="11.2111812"><ele>185.0</ele><time>2026-03-29T12:50:33.833Z</time></trkpt><trkpt lat="43.4158921" lon="11.2110573"><ele>185.0</ele><time>2026-03-29T12:50:34.853Z</time></trkpt><trkpt lat="43.4158135" lon="11.2109147"><ele>185.0</ele><time>2026-03-29T12:50:35.833Z</time></trkpt><trkpt lat="43.4157256" lon="11.2107551"><ele>184.66666666666666</ele><time>2026-03-29T12:50:36.832Z</time></trkpt><trkpt lat="43.4156368" lon="11.2105965"><ele>184.33333333333334</ele><time>2026-03-29T12:50:37.854Z</time></trkpt><trkpt lat="43.4155558" lon="11.2104421"><ele>184.0</ele><time>2026-03-29T12:50:38.806Z</time></trkpt><trkpt lat="43.4154489" lon="11.2102316"><ele>184.0</ele><time>2026-03-29T12:50:39.844Z</time></trkpt><trkpt lat="43.4153531" lon="11.210041"><ele>184.0</ele><time>2026-03-29T12:50:40.832Z</time></trkpt><trkpt lat="43.4152483" lon="11.2098405"><ele>184.0</ele><time>2026-03-29T12:50:41.81Z</time></trkpt><trkpt lat="43.4151672" lon="11.2096711"><ele>184.0</ele><time>2026-03-29T12:50:42.816Z</time></trkpt><trkpt lat="43.4150945" lon="11.2094933"><ele>184.0</ele><time>2026-03-29T12:50:43.811Z</time></trkpt><trkpt lat="43.4150201" lon="11.2093076"><ele>184.0</ele><time>2026-03-29T12:50:44.833Z</time></trkpt><trkpt lat="43.4149895" lon="11.2087294"><ele>184.33333333333334</ele><time>2026-03-29T12:50:45.83Z</time></trkpt><trkpt lat="43.4149241" lon="11.2085518"><ele>184.66666666666666</ele><time>2026-03-29T12:50:46.825Z</time></trkpt><trkpt lat="43.4148496" lon="11.2083529"><ele>185.0</ele><time>2026-03-29T12:50:47.816Z</time></trkpt><trkpt lat="43.4147643" lon="11.2081255"><ele>185.0</ele><time>2026-03-29T12:50:48.824Z</time></trkpt><trkpt lat="43.4146684" lon="11.2078855"><ele>185.0</ele><time>2026-03-29T12:50:49.817Z</time></trkpt><trkpt lat="43.4145654" lon="11.2076256"><ele>185.0</ele><time>2026-03-29T12:50:50.823Z</time></trkpt><trkpt lat="43.4144562" lon="11.2073564"><ele>185.33333333333331</ele><time>2026-03-29T12:50:51.841Z</time></trkpt><trkpt lat="43.4143465" lon="11.207086"><ele>185.66666666666666</ele><time>2026-03-29T12:50:52.839Z</time></trkpt><trkpt lat="43.4142418" lon="11.2068176"><ele>186.0</ele><time>2026-03-29T12:50:53.845Z</time></trkpt><trkpt lat="43.4141423" lon="11.2065661"><ele>186.0</ele><time>2026-03-29T12:50:54.826Z</time></trkpt><trkpt lat="43.4140448" lon="11.206315"><ele>186.0</ele><time>2026-03-29T12:50:55.83Z</time></trkpt><trkpt lat="43.4139435" lon="11.2060708"><ele>186.0</ele><time>2026-03-29T12:50:56.822Z</time></trkpt><trkpt lat="43.4138471" lon="11.2058383"><ele>186.33333333333334</ele><time>2026-03-29T12:50:57.819Z</time></trkpt><trkpt lat="43.4137576" lon="11.2056166"><ele>186.66666666666669</ele><time>2026-03-29T12:50:58.806Z</time></trkpt><trkpt lat="43.4136728" lon="11.2053968"><ele>187.0</ele><time>2026-03-29T12:50:59.838Z</time></trkpt><trkpt lat="43.4135978" lon="11.2051952"><ele>187.0</ele><time>2026-03-29T12:51:00.839Z</time></trkpt><trkpt lat="43.4135215" lon="11.2050107"><ele>187.0</ele><time>2026-03-29T12:51:01.821Z</time></trkpt><trkpt lat="43.4134513" lon="11.2048337"><ele>187.0</ele><time>2026-03-29T12:51:02.82Z</time></trkpt><trkpt lat="43.4133822" lon="11.2046684"><ele>187.0</ele><time>2026-03-29T12:51:03.831Z</time></trkpt><trkpt lat="43.4133214" lon="11.2045116"><ele>187.0</ele><time>2026-03-29T12:51:04.827Z</time></trkpt><trkpt lat="43.4132636" lon="11.2043684"><ele>187.0</ele><time>2026-03-29T12:51:05.82Z</time></trkpt><trkpt lat="43.4132083" lon="11.2042385"><ele>187.0</ele><time>2026-03-29T12:51:06.835Z</time></trkpt><trkpt lat="43.4131672" lon="11.2041291"><ele>187.0</ele><time>2026-03-29T12:51:07.824Z</time></trkpt><trkpt lat="43.4131368" lon="11.2040271"><ele>187.0</ele><time>2026-03-29T12:51:08.823Z</time></trkpt><trkpt lat="43.4131113" lon="11.2038778"><ele>187.2</ele><time>2026-03-29T12:51:10.815Z</time></trkpt><trkpt lat="43.4130982" lon="11.2037486"><ele>187.39999999999998</ele><time>2026-03-29T12:51:12.814Z</time></trkpt><trkpt lat="43.4130285" lon="11.2036849"><ele>187.60000000000002</ele><time>2026-03-29T12:51:14.83Z</time></trkpt><trkpt lat="43.4129183" lon="11.2037267"><ele>187.8</ele><time>2026-03-29T12:51:16.814Z</time></trkpt><trkpt lat="43.412834" lon="11.2038112"><ele>188.0</ele><time>2026-03-29T12:51:17.831Z</time></trkpt><trkpt lat="43.4127478" lon="11.2039061"><ele>189.0</ele><time>2026-03-29T12:51:18.819Z</time></trkpt><trkpt lat="43.4126521" lon="11.2040428"><ele>190.0</ele><time>2026-03-29T12:51:19.821Z</time></trkpt><trkpt lat="43.4125402" lon="11.2042022"><ele>191.0</ele><time>2026-03-29T12:51:20.833Z</time></trkpt><trkpt lat="43.4124251" lon="11.2043842"><ele>191.0</ele><time>2026-03-29T12:51:21.83Z</time></trkpt><trkpt lat="43.4123142" lon="11.2045555"><ele>191.0</ele><time>2026-03-29T12:51:22.853Z</time></trkpt><trkpt lat="43.4121941" lon="11.2047379"><ele>191.0</ele><time>2026-03-29T12:51:23.833Z</time></trkpt><trkpt lat="43.4120568" lon="11.2049286"><ele>192.33333333333331</ele><time>2026-03-29T12:51:24.834Z</time></trkpt><trkpt lat="43.4119217" lon="11.2051169"><ele>193.66666666666666</ele><time>2026-03-29T12:51:25.84Z</time></trkpt><trkpt lat="43.4117886" lon="11.2052925"><ele>195.0</ele><time>2026-03-29T12:51:26.82Z</time></trkpt><trkpt lat="43.4116638" lon="11.2054411"><ele>195.0</ele><time>2026-03-29T12:51:27.816Z</time></trkpt><trkpt lat="43.4115375" lon="11.2055834"><ele>195.0</ele><time>2026-03-29T12:51:28.832Z</time></trkpt><trkpt lat="43.4114253" lon="11.2057079"><ele>195.0</ele><time>2026-03-29T12:51:29.827Z</time></trkpt><trkpt lat="43.4113109" lon="11.2058355"><ele>194.5</ele><time>2026-03-29T12:51:30.826Z</time></trkpt><trkpt lat="43.4111923" lon="11.20596"><ele>194.0</ele><time>2026-03-29T12:51:31.829Z</time></trkpt><trkpt lat="43.4110855" lon="11.206066"><ele>193.5</ele><time>2026-03-29T12:51:32.819Z</time></trkpt><trkpt lat="43.4109881" lon="11.2061569"><ele>193.0</ele><time>2026-03-29T12:51:33.828Z</time></trkpt><trkpt lat="43.4109012" lon="11.2062232"><ele>192.99999999999997</ele><time>2026-03-29T12:51:34.831Z</time></trkpt><trkpt lat="43.4108108" lon="11.2062741"><ele>193.0</ele><time>2026-03-29T12:51:35.824Z</time></trkpt><trkpt lat="43.4107331" lon="11.206302"><ele>193.0</ele><time>2026-03-29T12:51:36.85Z</time></trkpt><trkpt lat="43.4106578" lon="11.2063146"><ele>193.0</ele><time>2026-03-29T12:51:37.816Z</time></trkpt><trkpt lat="43.4105805" lon="11.2063402"><ele>192.99999999999997</ele><time>2026-03-29T12:51:38.831Z</time></trkpt><trkpt lat="43.4105026" lon="11.2063914"><ele>193.0</ele><time>2026-03-29T12:51:39.822Z</time></trkpt><trkpt lat="43.410443" lon="11.2064683"><ele>193.0</ele><time>2026-03-29T12:51:40.837Z</time></trkpt><trkpt lat="43.4103833" lon="11.2065854"><ele>193.0</ele><time>2026-03-29T12:51:41.816Z</time></trkpt><trkpt lat="43.410325" lon="11.2067262"><ele>193.0</ele><time>2026-03-29T12:51:42.812Z</time></trkpt><trkpt lat="43.4102354" lon="11.2068735"><ele>193.0</ele><time>2026-03-29T12:51:43.821Z</time></trkpt><trkpt lat="43.4101353" lon="11.2070224"><ele>193.0</ele><time>2026-03-29T12:51:44.832Z</time></trkpt><trkpt lat="43.4100369" lon="11.2071528"><ele>193.0</ele><time>2026-03-29T12:51:45.835Z</time></trkpt><trkpt lat="43.4099308" lon="11.2072904"><ele>193.0</ele><time>2026-03-29T12:51:46.821Z</time></trkpt><trkpt lat="43.4098423" lon="11.2074342"><ele>193.0</ele><time>2026-03-29T12:51:47.83Z</time></trkpt><trkpt lat="43.409758" lon="11.2075669"><ele>193.25</ele><time>2026-03-29T12:51:48.814Z</time></trkpt><trkpt lat="43.4096699" lon="11.2076919"><ele>193.5</ele><time>2026-03-29T12:51:49.835Z</time></trkpt><trkpt lat="43.4095791" lon="11.2078092"><ele>193.75</ele><time>2026-03-29T12:51:50.833Z</time></trkpt><trkpt lat="43.4094959" lon="11.2079148"><ele>194.0</ele><time>2026-03-29T12:51:51.829Z</time></trkpt><trkpt lat="43.4094099" lon="11.2080025"><ele>195.5</ele><time>2026-03-29T12:51:52.838Z</time></trkpt><trkpt lat="43.409324" lon="11.208094"><ele>197.0</ele><time>2026-03-29T12:51:53.829Z</time></trkpt><trkpt lat="43.4092389" lon="11.2081827"><ele>198.5</ele><time>2026-03-29T12:51:54.812Z</time></trkpt><trkpt lat="43.4091407" lon="11.2082782"><ele>200.0</ele><time>2026-03-29T12:51:55.829Z</time></trkpt><trkpt lat="43.4090427" lon="11.208367"><ele>200.0</ele><time>2026-03-29T12:51:56.823Z</time></trkpt><trkpt lat="43.4089375" lon="11.2084496"><ele>200.0</ele><time>2026-03-29T12:51:57.84Z</time></trkpt><trkpt lat="43.4088369" lon="11.2085206"><ele>200.0</ele><time>2026-03-29T12:51:58.841Z</time></trkpt><trkpt lat="43.4087313" lon="11.2085904"><ele>200.0</ele><time>2026-03-29T12:51:59.815Z</time></trkpt><trkpt lat="43.4086114" lon="11.2086675"><ele>201.0</ele><time>2026-03-29T12:52:00.831Z</time></trkpt><trkpt lat="43.4084818" lon="11.208739"><ele>202.0</ele><time>2026-03-29T12:52:01.816Z</time></trkpt><trkpt lat="43.4083409" lon="11.2088177"><ele>203.0</ele><time>2026-03-29T12:52:02.851Z</time></trkpt><trkpt lat="43.4081994" lon="11.2088926"><ele>204.0</ele><time>2026-03-29T12:52:03.825Z</time></trkpt><trkpt lat="43.408052" lon="11.2089717"><ele>200.66666666666669</ele><time>2026-03-29T12:52:04.836Z</time></trkpt><trkpt lat="43.4078973" lon="11.2090324"><ele>197.33333333333334</ele><time>2026-03-29T12:52:05.825Z</time></trkpt><trkpt lat="43.4077518" lon="11.209085"><ele>194.0</ele><time>2026-03-29T12:52:06.819Z</time></trkpt><trkpt lat="43.4076166" lon="11.2091503"><ele>194.0</ele><time>2026-03-29T12:52:07.82Z</time></trkpt><trkpt lat="43.4074898" lon="11.2092149"><ele>194.0</ele><time>2026-03-29T12:52:08.827Z</time></trkpt><trkpt lat="43.4073726" lon="11.2092772"><ele>194.0</ele><time>2026-03-29T12:52:09.84Z</time></trkpt><trkpt lat="43.4072714" lon="11.2093363"><ele>194.0</ele><time>2026-03-29T12:52:10.818Z</time></trkpt><trkpt lat="43.4071789" lon="11.20939"><ele>195.66666666666669</ele><time>2026-03-29T12:52:11.821Z</time></trkpt><trkpt lat="43.4070934" lon="11.209441"><ele>197.33333333333334</ele><time>2026-03-29T12:52:12.83Z</time></trkpt><trkpt lat="43.4070137" lon="11.2094861"><ele>199.0</ele><time>2026-03-29T12:52:13.821Z</time></trkpt><trkpt lat="43.4069377" lon="11.2095348"><ele>200.66666666666669</ele><time>2026-03-29T12:52:14.848Z</time></trkpt><trkpt lat="43.4068824" lon="11.2095778"><ele>202.33333333333334</ele><time>2026-03-29T12:52:15.833Z</time></trkpt><trkpt lat="43.4068079" lon="11.20963"><ele>204.0</ele><time>2026-03-29T12:52:16.834Z</time></trkpt><trkpt lat="43.4067263" lon="11.2096855"><ele>204.0</ele><time>2026-03-29T12:52:17.83Z</time></trkpt><trkpt lat="43.4066406" lon="11.2097393"><ele>204.0</ele><time>2026-03-29T12:52:18.813Z</time></trkpt><trkpt lat="43.4065509" lon="11.2097924"><ele>204.0</ele><time>2026-03-29T12:52:19.832Z</time></trkpt><trkpt lat="43.4064711" lon="11.209841"><ele>204.0</ele><time>2026-03-29T12:52:20.827Z</time></trkpt><trkpt lat="43.4063887" lon="11.2098938"><ele>204.0</ele><time>2026-03-29T12:52:21.813Z</time></trkpt><trkpt lat="43.4063056" lon="11.2099445"><ele>202.33333333333334</ele><time>2026-03-29T12:52:22.835Z</time></trkpt><trkpt lat="43.4062274" lon="11.2099923"><ele>200.66666666666669</ele><time>2026-03-29T12:52:23.828Z</time></trkpt><trkpt lat="43.4061476" lon="11.2100394"><ele>199.0</ele><time>2026-03-29T12:52:24.838Z</time></trkpt><trkpt lat="43.4060757" lon="11.2100819"><ele>197.33333333333334</ele><time>2026-03-29T12:52:25.86Z</time></trkpt><trkpt lat="43.4060041" lon="11.2101249"><ele>195.66666666666669</ele><time>2026-03-29T12:52:26.824Z</time></trkpt><trkpt lat="43.4059304" lon="11.2101651"><ele>194.0</ele><time>2026-03-29T12:52:27.826Z</time></trkpt><trkpt lat="43.4058612" lon="11.2102001"><ele>194.0</ele><time>2026-03-29T12:52:28.834Z</time></trkpt><trkpt lat="43.4057916" lon="11.2102365"><ele>194.0</ele><time>2026-03-29T12:52:29.814Z</time></trkpt><trkpt lat="43.405714" lon="11.2102769"><ele>194.0</ele><time>2026-03-29T12:52:30.827Z</time></trkpt><trkpt lat="43.4056307" lon="11.2103133"><ele>194.0</ele><time>2026-03-29T12:52:31.823Z</time></trkpt><trkpt lat="43.4055339" lon="11.2103572"><ele>194.0</ele><time>2026-03-29T12:52:32.834Z</time></trkpt><trkpt lat="43.4054265" lon="11.2104095"><ele>194.75</ele><time>2026-03-29T12:52:33.816Z</time></trkpt><trkpt lat="43.4053149" lon="11.2104754"><ele>195.5</ele><time>2026-03-29T12:52:34.82Z</time></trkpt><trkpt lat="43.4052386" lon="11.2105438"><ele>196.25</ele><time>2026-03-29T12:52:35.817Z</time></trkpt><trkpt lat="43.4051335" lon="11.2106367"><ele>197.0</ele><time>2026-03-29T12:52:36.818Z</time></trkpt><trkpt lat="43.4050055" lon="11.2107584"><ele>197.0</ele><time>2026-03-29T12:52:37.872Z</time></trkpt><trkpt lat="43.4048879" lon="11.2108578"><ele>197.0</ele><time>2026-03-29T12:52:38.821Z</time></trkpt><trkpt lat="43.4047532" lon="11.210986"><ele>197.0</ele><time>2026-03-29T12:52:39.9Z</time></trkpt><trkpt lat="43.404641" lon="11.2111083"><ele>197.0</ele><time>2026-03-29T12:52:40.859Z</time></trkpt><trkpt lat="43.404531" lon="11.2112396"><ele>197.25</ele><time>2026-03-29T12:52:41.828Z</time></trkpt><trkpt lat="43.4044093" lon="11.2113679"><ele>197.5</ele><time>2026-03-29T12:52:42.84Z</time></trkpt><trkpt lat="43.4043096" lon="11.2114743"><ele>197.75</ele><time>2026-03-29T12:52:43.832Z</time></trkpt><trkpt lat="43.4041982" lon="11.2115919"><ele>198.0</ele><time>2026-03-29T12:52:44.844Z</time></trkpt><trkpt lat="43.4040893" lon="11.2117087"><ele>198.0</ele><time>2026-03-29T12:52:45.829Z</time></trkpt><trkpt lat="43.403984" lon="11.2118296"><ele>198.0</ele><time>2026-03-29T12:52:46.83Z</time></trkpt><trkpt lat="43.4038895" lon="11.2119505"><ele>198.0</ele><time>2026-03-29T12:52:47.821Z</time></trkpt><trkpt lat="43.4038004" lon="11.2120755"><ele>198.0</ele><time>2026-03-29T12:52:48.833Z</time></trkpt><trkpt lat="43.4037161" lon="11.2121925"><ele>197.0</ele><time>2026-03-29T12:52:49.821Z</time></trkpt><trkpt lat="43.4036213" lon="11.2123067"><ele>196.0</ele><time>2026-03-29T12:52:50.823Z</time></trkpt><trkpt lat="43.4035305" lon="11.2124206"><ele>195.0</ele><time>2026-03-29T12:52:51.827Z</time></trkpt><trkpt lat="43.4034497" lon="11.212525"><ele>194.0</ele><time>2026-03-29T12:52:52.83Z</time></trkpt><trkpt lat="43.4033663" lon="11.2126291"><ele>194.0</ele><time>2026-03-29T12:52:53.853Z</time></trkpt><trkpt lat="43.4032921" lon="11.2127302"><ele>194.0</ele><time>2026-03-29T12:52:54.81Z</time></trkpt><trkpt lat="43.4032153" lon="11.2128497"><ele>194.0</ele><time>2026-03-29T12:52:55.839Z</time></trkpt><trkpt lat="43.4031583" lon="11.2129611"><ele>194.0</ele><time>2026-03-29T12:52:56.84Z</time></trkpt><trkpt lat="43.4031055" lon="11.2130787"><ele>194.0</ele><time>2026-03-29T12:52:57.835Z</time></trkpt><trkpt lat="43.4030551" lon="11.2131996"><ele>193.39999999999998</ele><time>2026-03-29T12:52:58.84Z</time></trkpt><trkpt lat="43.403005" lon="11.2133163"><ele>192.8</ele><time>2026-03-29T12:52:59.851Z</time></trkpt><trkpt lat="43.4029463" lon="11.2134417"><ele>192.2</ele><time>2026-03-29T12:53:00.837Z</time></trkpt><trkpt lat="43.4028791" lon="11.2135625"><ele>191.60000000000002</ele><time>2026-03-29T12:53:01.831Z</time></trkpt><trkpt lat="43.4027981" lon="11.2136803"><ele>191.0</ele><time>2026-03-29T12:53:02.824Z</time></trkpt><trkpt lat="43.4027026" lon="11.2137941"><ele>192.0</ele><time>2026-03-29T12:53:03.82Z</time></trkpt><trkpt lat="43.4025758" lon="11.2139243"><ele>193.0</ele><time>2026-03-29T12:53:04.854Z</time></trkpt><trkpt lat="43.4024586" lon="11.2140405"><ele>194.0</ele><time>2026-03-29T12:53:05.832Z</time></trkpt><trkpt lat="43.4023377" lon="11.214154"><ele>195.0</ele><time>2026-03-29T12:53:06.89Z</time></trkpt><trkpt lat="43.4022291" lon="11.2142566"><ele>199.5</ele><time>2026-03-29T12:53:07.818Z</time></trkpt><trkpt lat="43.4021087" lon="11.2143636"><ele>204.0</ele><time>2026-03-29T12:53:08.818Z</time></trkpt><trkpt lat="43.4019878" lon="11.2144698"><ele>208.5</ele><time>2026-03-29T12:53:09.822Z</time></trkpt><trkpt lat="43.4018567" lon="11.2145715"><ele>213.0</ele><time>2026-03-29T12:53:10.829Z</time></trkpt><trkpt lat="43.401724" lon="11.2146647"><ele>213.0</ele><time>2026-03-29T12:53:11.824Z</time></trkpt><trkpt lat="43.4016081" lon="11.2147316"><ele>213.0</ele><time>2026-03-29T12:53:12.833Z</time></trkpt><trkpt lat="43.4014775" lon="11.2147973"><ele>213.0</ele><time>2026-03-29T12:53:13.824Z</time></trkpt><trkpt lat="43.4013477" lon="11.2148556"><ele>213.0</ele><time>2026-03-29T12:53:14.827Z</time></trkpt><trkpt lat="43.4012204" lon="11.2149126"><ele>210.75</ele><time>2026-03-29T12:53:15.858Z</time></trkpt><trkpt lat="43.4010964" lon="11.21497"><ele>208.5</ele><time>2026-03-29T12:53:16.855Z</time></trkpt><trkpt lat="43.4009679" lon="11.2150361"><ele>206.25</ele><time>2026-03-29T12:53:17.824Z</time></trkpt><trkpt lat="43.4008451" lon="11.2151061"><ele>204.0</ele><time>2026-03-29T12:53:18.828Z</time></trkpt><trkpt lat="43.4007254" lon="11.2151727"><ele>204.0</ele><time>2026-03-29T12:53:19.833Z</time></trkpt><trkpt lat="43.4006148" lon="11.2152435"><ele>204.0</ele><time>2026-03-29T12:53:20.867Z</time></trkpt><trkpt lat="43.4005001" lon="11.2153126"><ele>204.0</ele><time>2026-03-29T12:53:21.816Z</time></trkpt><trkpt lat="43.4003776" lon="11.2153924"><ele>204.0</ele><time>2026-03-29T12:53:22.826Z</time></trkpt><trkpt lat="43.400247" lon="11.2154756"><ele>202.0</ele><time>2026-03-29T12:53:23.83Z</time></trkpt><trkpt lat="43.4001045" lon="11.2155507"><ele>200.0</ele><time>2026-03-29T12:53:24.835Z</time></trkpt><trkpt lat="43.3999588" lon="11.2156128"><ele>198.0</ele><time>2026-03-29T12:53:25.835Z</time></trkpt><trkpt lat="43.3998381" lon="11.2156452"><ele>196.0</ele><time>2026-03-29T12:53:26.842Z</time></trkpt><trkpt lat="43.3996708" lon="11.2156606"><ele>195.33333333333331</ele><time>2026-03-29T12:53:27.852Z</time></trkpt><trkpt lat="43.3995118" lon="11.215655"><ele>194.66666666666669</ele><time>2026-03-29T12:53:28.824Z</time></trkpt><trkpt lat="43.3993453" lon="11.2156365"><ele>194.0</ele><time>2026-03-29T12:53:29.82Z</time></trkpt><trkpt lat="43.399174" lon="11.2156262"><ele>194.0</ele><time>2026-03-29T12:53:30.831Z</time></trkpt><trkpt lat="43.3990044" lon="11.2156468"><ele>194.0</ele><time>2026-03-29T12:53:31.825Z</time></trkpt><trkpt lat="43.3988502" lon="11.2156968"><ele>194.0</ele><time>2026-03-29T12:53:32.838Z</time></trkpt><trkpt lat="43.3986983" lon="11.215772"><ele>193.0</ele><time>2026-03-29T12:53:33.832Z</time></trkpt><trkpt lat="43.3985545" lon="11.2158706"><ele>192.0</ele><time>2026-03-29T12:53:34.833Z</time></trkpt><trkpt lat="43.3984139" lon="11.2159707"><ele>191.0</ele><time>2026-03-29T12:53:35.82Z</time></trkpt><trkpt lat="43.398269" lon="11.2160589"><ele>191.0</ele><time>2026-03-29T12:53:36.84Z</time></trkpt><trkpt lat="43.398141" lon="11.2161119"><ele>191.0</ele><time>2026-03-29T12:53:37.815Z</time></trkpt><trkpt lat="43.3979928" lon="11.2161624"><ele>191.0</ele><time>2026-03-29T12:53:38.832Z</time></trkpt><trkpt lat="43.3978495" lon="11.2161996"><ele>191.0</ele><time>2026-03-29T12:53:39.837Z</time></trkpt><trkpt lat="43.3977212" lon="11.2162328"><ele>191.5</ele><time>2026-03-29T12:53:40.826Z</time></trkpt><trkpt lat="43.3975922" lon="11.2162628"><ele>192.0</ele><time>2026-03-29T12:53:41.825Z</time></trkpt><trkpt lat="43.3974597" lon="11.2162827"><ele>192.5</ele><time>2026-03-29T12:53:42.827Z</time></trkpt><trkpt lat="43.3973435" lon="11.216301"><ele>193.0</ele><time>2026-03-29T12:53:43.837Z</time></trkpt><trkpt lat="43.3972151" lon="11.2163259"><ele>193.0</ele><time>2026-03-29T12:53:44.828Z</time></trkpt><trkpt lat="43.3970776" lon="11.2163515"><ele>193.0</ele><time>2026-03-29T12:53:45.831Z</time></trkpt><trkpt lat="43.3969429" lon="11.2163812"><ele>193.0</ele><time>2026-03-29T12:53:46.827Z</time></trkpt><trkpt lat="43.3968176" lon="11.2164073"><ele>193.0</ele><time>2026-03-29T12:53:47.829Z</time></trkpt><trkpt lat="43.3967042" lon="11.2164346"><ele>193.0</ele><time>2026-03-29T12:53:48.827Z</time></trkpt><trkpt lat="43.3966013" lon="11.2164578"><ele>193.0</ele><time>2026-03-29T12:53:49.836Z</time></trkpt><trkpt lat="43.3965045" lon="11.2164765"><ele>193.0</ele><time>2026-03-29T12:53:50.84Z</time></trkpt><trkpt lat="43.396415" lon="11.2164941"><ele>193.0</ele><time>2026-03-29T12:53:51.848Z</time></trkpt><trkpt lat="43.3963326" lon="11.2165124"><ele>193.0</ele><time>2026-03-29T12:53:52.817Z</time></trkpt><trkpt lat="43.3962438" lon="11.2165301"><ele>193.2</ele><time>2026-03-29T12:53:53.826Z</time></trkpt><trkpt lat="43.3961674" lon="11.21654"><ele>193.4</ele><time>2026-03-29T12:53:54.829Z</time></trkpt><trkpt lat="43.3960645" lon="11.2165569"><ele>193.6</ele><time>2026-03-29T12:53:55.843Z</time></trkpt><trkpt lat="43.3959617" lon="11.2165631"><ele>193.79999999999998</ele><time>2026-03-29T12:53:56.826Z</time></trkpt><trkpt lat="43.3958716" lon="11.2165685"><ele>194.0</ele><time>2026-03-29T12:53:57.823Z</time></trkpt><trkpt lat="43.3957715" lon="11.2165763"><ele>194.0</ele><time>2026-03-29T12:53:58.812Z</time></trkpt><trkpt lat="43.3956658" lon="11.2165874"><ele>194.0</ele><time>2026-03-29T12:53:59.826Z</time></trkpt><trkpt lat="43.3955619" lon="11.2166067"><ele>194.0</ele><time>2026-03-29T12:54:00.823Z</time></trkpt><trkpt lat="43.3954389" lon="11.2166343"><ele>194.0</ele><time>2026-03-29T12:54:01.836Z</time></trkpt><trkpt lat="43.3953162" lon="11.2166686"><ele>194.25</ele><time>2026-03-29T12:54:02.834Z</time></trkpt><trkpt lat="43.3951802" lon="11.2167122"><ele>194.5</ele><time>2026-03-29T12:54:03.826Z</time></trkpt><trkpt lat="43.3950525" lon="11.2167583"><ele>194.75</ele><time>2026-03-29T12:54:04.827Z</time></trkpt><trkpt lat="43.3949271" lon="11.2168212"><ele>195.0</ele><time>2026-03-29T12:54:05.846Z</time></trkpt><trkpt lat="43.3948226" lon="11.2168907"><ele>195.0</ele><time>2026-03-29T12:54:06.825Z</time></trkpt><trkpt lat="43.3947203" lon="11.2169639"><ele>195.0</ele><time>2026-03-29T12:54:07.824Z</time></trkpt><trkpt lat="43.3946532" lon="11.2170635"><ele>195.0</ele><time>2026-03-29T12:54:09.818Z</time></trkpt><trkpt lat="43.3946069" lon="11.2171391"><ele>195.0</ele><time>2026-03-29T12:54:11.824Z</time></trkpt><trkpt lat="43.3945646" lon="11.2172056"><ele>195.0</ele><time>2026-03-29T12:54:16.821Z</time></trkpt><trkpt lat="43.3945044" lon="11.217306"><ele>195.0</ele><time>2026-03-29T12:55:00.835Z</time></trkpt><trkpt lat="43.394427" lon="11.2173501"><ele>195.4</ele><time>2026-03-29T12:55:02.824Z</time></trkpt><trkpt lat="43.3943456" lon="11.2174164"><ele>195.8</ele><time>2026-03-29T12:55:04.834Z</time></trkpt><trkpt lat="43.3942268" lon="11.2175164"><ele>196.2</ele><time>2026-03-29T12:55:06.835Z</time></trkpt><trkpt lat="43.3941584" lon="11.2175862"><ele>196.6</ele><time>2026-03-29T12:55:07.843Z</time></trkpt><trkpt lat="43.394084" lon="11.2176674"><ele>197.0</ele><time>2026-03-29T12:55:08.845Z</time></trkpt><trkpt lat="43.3940068" lon="11.217752"><ele>197.0</ele><time>2026-03-29T12:55:09.834Z</time></trkpt><trkpt lat="43.393933" lon="11.2178281"><ele>197.0</ele><time>2026-03-29T12:55:10.814Z</time></trkpt><trkpt lat="43.3938685" lon="11.2178857"><ele>197.0</ele><time>2026-03-29T12:55:11.86Z</time></trkpt><trkpt lat="43.3938004" lon="11.2179237"><ele>197.0</ele><time>2026-03-29T12:55:13.193Z</time></trkpt><trkpt lat="43.3935832" lon="11.2179696"><ele>197.2</ele><time>2026-03-29T12:55:14.88Z</time></trkpt><trkpt lat="43.393485" lon="11.2179163"><ele>197.39999999999998</ele><time>2026-03-29T12:55:15.882Z</time></trkpt><trkpt lat="43.3933861" lon="11.2178877"><ele>197.60000000000002</ele><time>2026-03-29T12:55:16.88Z</time></trkpt><trkpt lat="43.3932929" lon="11.217895"><ele>197.8</ele><time>2026-03-29T12:55:17.872Z</time></trkpt><trkpt lat="43.3932132" lon="11.2179416"><ele>198.0</ele><time>2026-03-29T12:55:18.881Z</time></trkpt><trkpt lat="43.3931601" lon="11.2180159"><ele>198.8</ele><time>2026-03-29T12:55:19.841Z</time></trkpt><trkpt lat="43.3931325" lon="11.2182065"><ele>199.60000000000002</ele><time>2026-03-29T12:55:21.83Z</time></trkpt><trkpt lat="43.3931301" lon="11.2183208"><ele>200.39999999999998</ele><time>2026-03-29T12:55:22.816Z</time></trkpt><trkpt lat="43.3931213" lon="11.2184353"><ele>201.2</ele><time>2026-03-29T12:55:23.827Z</time></trkpt><trkpt lat="43.393112" lon="11.2185291"><ele>202.0</ele><time>2026-03-29T12:55:24.826Z</time></trkpt><trkpt lat="43.3930734" lon="11.2186878"><ele>202.0</ele><time>2026-03-29T12:55:26.827Z</time></trkpt><trkpt lat="43.3930456" lon="11.2188404"><ele>202.0</ele><time>2026-03-29T12:55:28.884Z</time></trkpt><trkpt lat="43.3930258" lon="11.2189291"><ele>202.0</ele><time>2026-03-29T12:55:30.848Z</time></trkpt><trkpt lat="43.3929912" lon="11.2190122"><ele>202.0</ele><time>2026-03-29T12:55:32.821Z</time></trkpt><trkpt lat="43.3929245" lon="11.2191497"><ele>202.0</ele><time>2026-03-29T12:55:34.845Z</time></trkpt><trkpt lat="43.3928773" lon="11.2192396"><ele>203.5</ele><time>2026-03-29T12:55:35.826Z</time></trkpt><trkpt lat="43.3928073" lon="11.2193517"><ele>205.0</ele><time>2026-03-29T12:55:36.836Z</time></trkpt><trkpt lat="43.3927044" lon="11.2195661"><ele>206.5</ele><time>2026-03-29T12:55:37.841Z</time></trkpt><trkpt lat="43.392601" lon="11.2196907"><ele>208.0</ele><time>2026-03-29T12:55:38.82Z</time></trkpt><trkpt lat="43.3925892" lon="11.2195277"><ele>208.0</ele><time>2026-03-29T12:55:39.848Z</time></trkpt><trkpt lat="43.3924422" lon="11.2196053"><ele>208.0</ele><time>2026-03-29T12:55:42.828Z</time></trkpt><trkpt lat="43.391724" lon="11.2194159"><ele>210.0</ele><time>2026-03-29T12:55:43.816Z</time></trkpt><trkpt lat="43.3915464" lon="11.2194776"><ele>212.0</ele><time>2026-03-29T12:55:44.85Z</time></trkpt><trkpt lat="43.3914194" lon="11.2195742"><ele>214.0</ele><time>2026-03-29T12:55:45.825Z</time></trkpt><trkpt lat="43.3912764" lon="11.2197163"><ele>214.0</ele><time>2026-03-29T12:55:46.83Z</time></trkpt><trkpt lat="43.391122" lon="11.2198197"><ele>214.0</ele><time>2026-03-29T12:55:47.823Z</time></trkpt><trkpt lat="43.3909818" lon="11.2198448"><ele>214.0</ele><time>2026-03-29T12:55:48.843Z</time></trkpt><trkpt lat="43.3908233" lon="11.2198653"><ele>214.0</ele><time>2026-03-29T12:55:49.832Z</time></trkpt><trkpt lat="43.3906443" lon="11.2198781"><ele>214.0</ele><time>2026-03-29T12:55:50.826Z</time></trkpt><trkpt lat="43.3904638" lon="11.2198736"><ele>214.0</ele><time>2026-03-29T12:55:51.822Z</time></trkpt><trkpt lat="43.3902722" lon="11.2199221"><ele>215.33333333333331</ele><time>2026-03-29T12:55:52.889Z</time></trkpt><trkpt lat="43.3901154" lon="11.2199927"><ele>216.66666666666669</ele><time>2026-03-29T12:55:53.836Z</time></trkpt><trkpt lat="43.3899737" lon="11.2200592"><ele>218.0</ele><time>2026-03-29T12:55:54.847Z</time></trkpt><trkpt lat="43.3898207" lon="11.2201479"><ele>217.66666666666669</ele><time>2026-03-29T12:55:55.82Z</time></trkpt><trkpt lat="43.3896387" lon="11.2202745"><ele>217.33333333333331</ele><time>2026-03-29T12:55:56.858Z</time></trkpt><trkpt lat="43.3894579" lon="11.2204155"><ele>217.0</ele><time>2026-03-29T12:55:57.834Z</time></trkpt><trkpt lat="43.3892694" lon="11.2205623"><ele>218.33333333333331</ele><time>2026-03-29T12:55:58.84Z</time></trkpt><trkpt lat="43.3890941" lon="11.2207023"><ele>219.66666666666669</ele><time>2026-03-29T12:55:59.828Z</time></trkpt><trkpt lat="43.3889286" lon="11.2208624"><ele>221.0</ele><time>2026-03-29T12:56:00.872Z</time></trkpt><trkpt lat="43.3887861" lon="11.2210176"><ele>221.0</ele><time>2026-03-29T12:56:01.83Z</time></trkpt><trkpt lat="43.3887231" lon="11.2211602"><ele>221.0</ele><time>2026-03-29T12:56:02.862Z</time></trkpt><trkpt lat="43.3885818" lon="11.2213049"><ele>221.0</ele><time>2026-03-29T12:56:03.814Z</time></trkpt><trkpt lat="43.3884284" lon="11.2214592"><ele>223.0</ele><time>2026-03-29T12:56:04.822Z</time></trkpt><trkpt lat="43.3882813" lon="11.2216153"><ele>225.0</ele><time>2026-03-29T12:56:05.825Z</time></trkpt><trkpt lat="43.3881404" lon="11.2217701"><ele>227.0</ele><time>2026-03-29T12:56:06.866Z</time></trkpt><trkpt lat="43.3880217" lon="11.2219049"><ele>227.5</ele><time>2026-03-29T12:56:07.828Z</time></trkpt><trkpt lat="43.3879068" lon="11.2220381"><ele>228.0</ele><time>2026-03-29T12:56:08.815Z</time></trkpt><trkpt lat="43.3878021" lon="11.222164"><ele>228.5</ele><time>2026-03-29T12:56:09.826Z</time></trkpt><trkpt lat="43.3877048" lon="11.2222833"><ele>229.0</ele><time>2026-03-29T12:56:10.825Z</time></trkpt><trkpt lat="43.3876138" lon="11.2223925"><ele>229.0</ele><time>2026-03-29T12:56:11.821Z</time></trkpt><trkpt lat="43.3875239" lon="11.2225015"><ele>228.99999999999997</ele><time>2026-03-29T12:56:12.871Z</time></trkpt><trkpt lat="43.3874523" lon="11.2225904"><ele>228.99999999999997</ele><time>2026-03-29T12:56:13.823Z</time></trkpt><trkpt lat="43.3873687" lon="11.2226913"><ele>229.0</ele><time>2026-03-29T12:56:14.83Z</time></trkpt><trkpt lat="43.3872827" lon="11.2227932"><ele>229.0</ele><time>2026-03-29T12:56:15.825Z</time></trkpt><trkpt lat="43.3871974" lon="11.2228952"><ele>228.5</ele><time>2026-03-29T12:56:16.828Z</time></trkpt><trkpt lat="43.3871074" lon="11.2230061"><ele>228.0</ele><time>2026-03-29T12:56:17.848Z</time></trkpt><trkpt lat="43.3870161" lon="11.223122"><ele>227.5</ele><time>2026-03-29T12:56:18.838Z</time></trkpt><trkpt lat="43.3869285" lon="11.2232411"><ele>227.0</ele><time>2026-03-29T12:56:19.825Z</time></trkpt><trkpt lat="43.3868372" lon="11.2233696"><ele>227.0</ele><time>2026-03-29T12:56:20.83Z</time></trkpt><trkpt lat="43.3867599" lon="11.2234735"><ele>227.0</ele><time>2026-03-29T12:56:21.823Z</time></trkpt><trkpt lat="43.386662" lon="11.223608"><ele>227.0</ele><time>2026-03-29T12:56:22.824Z</time></trkpt><trkpt lat="43.3865587" lon="11.2237619"><ele>227.0</ele><time>2026-03-29T12:56:23.82Z</time></trkpt><trkpt lat="43.3864473" lon="11.2239159"><ele>229.0</ele><time>2026-03-29T12:56:24.829Z</time></trkpt><trkpt lat="43.3863369" lon="11.2240733"><ele>231.0</ele><time>2026-03-29T12:56:25.825Z</time></trkpt><trkpt lat="43.3862335" lon="11.2242338"><ele>233.0</ele><time>2026-03-29T12:56:26.823Z</time></trkpt><trkpt lat="43.3861093" lon="11.2243935"><ele>233.0</ele><time>2026-03-29T12:56:27.816Z</time></trkpt><trkpt lat="43.3859823" lon="11.2245504"><ele>233.0</ele><time>2026-03-29T12:56:28.827Z</time></trkpt><trkpt lat="43.3858648" lon="11.2247122"><ele>233.0</ele><time>2026-03-29T12:56:29.844Z</time></trkpt><trkpt lat="43.3857743" lon="11.224882"><ele>233.8</ele><time>2026-03-29T12:56:30.834Z</time></trkpt><trkpt lat="43.3857216" lon="11.2250498"><ele>234.60000000000002</ele><time>2026-03-29T12:56:31.834Z</time></trkpt><trkpt lat="43.3856969" lon="11.2252028"><ele>235.39999999999998</ele><time>2026-03-29T12:56:32.836Z</time></trkpt><trkpt lat="43.3856899" lon="11.2253276"><ele>236.2</ele><time>2026-03-29T12:56:33.835Z</time></trkpt><trkpt lat="43.3856852" lon="11.2254331"><ele>237.0</ele><time>2026-03-29T12:56:34.823Z</time></trkpt><trkpt lat="43.3856781" lon="11.2255211"><ele>237.83333333333334</ele><time>2026-03-29T12:56:35.868Z</time></trkpt><trkpt lat="43.3856656" lon="11.2256528"><ele>238.66666666666669</ele><time>2026-03-29T12:56:37.844Z</time></trkpt><trkpt lat="43.3856565" lon="11.2257573"><ele>239.5</ele><time>2026-03-29T12:56:39.829Z</time></trkpt><trkpt lat="43.3856486" lon="11.2258814"><ele>240.33333333333334</ele><time>2026-03-29T12:56:41.824Z</time></trkpt><trkpt lat="43.3857114" lon="11.2259597"><ele>241.16666666666669</ele><time>2026-03-29T12:56:43.834Z</time></trkpt><trkpt lat="43.3857963" lon="11.2259197"><ele>242.0</ele><time>2026-03-29T12:56:45.826Z</time></trkpt><trkpt lat="43.3858642" lon="11.2258741"><ele>242.00000000000003</ele><time>2026-03-29T12:56:46.833Z</time></trkpt><trkpt lat="43.385957" lon="11.2258134"><ele>242.0</ele><time>2026-03-29T12:56:47.839Z</time></trkpt><trkpt lat="43.386042" lon="11.2257686"><ele>242.0</ele><time>2026-03-29T12:56:48.843Z</time></trkpt><trkpt lat="43.386115" lon="11.2257362"><ele>242.0</ele><time>2026-03-29T12:56:49.824Z</time></trkpt><trkpt lat="43.3861886" lon="11.2257193"><ele>242.00000000000003</ele><time>2026-03-29T12:56:50.839Z</time></trkpt><trkpt lat="43.386258" lon="11.2256973"><ele>242.0</ele><time>2026-03-29T12:56:51.837Z</time></trkpt><trkpt lat="43.3863211" lon="11.2256721"><ele>242.50000000000003</ele><time>2026-03-29T12:56:52.835Z</time></trkpt><trkpt lat="43.3863865" lon="11.2256466"><ele>243.0</ele><time>2026-03-29T12:56:53.861Z</time></trkpt><trkpt lat="43.3864516" lon="11.2256277"><ele>243.5</ele><time>2026-03-29T12:56:54.83Z</time></trkpt><trkpt lat="43.3865151" lon="11.2256083"><ele>244.0</ele><time>2026-03-29T12:56:55.823Z</time></trkpt><trkpt lat="43.3865773" lon="11.2255919"><ele>244.50000000000003</ele><time>2026-03-29T12:56:56.852Z</time></trkpt><trkpt lat="43.3866448" lon="11.2255726"><ele>245.0</ele><time>2026-03-29T12:56:57.82Z</time></trkpt><trkpt lat="43.3867747" lon="11.2255435"><ele>244.16666666666669</ele><time>2026-03-29T12:56:59.82Z</time></trkpt><trkpt lat="43.3868486" lon="11.2255284"><ele>243.33333333333334</ele><time>2026-03-29T12:57:00.827Z</time></trkpt><trkpt lat="43.3869203" lon="11.2255069"><ele>242.5</ele><time>2026-03-29T12:57:01.82Z</time></trkpt><trkpt lat="43.3870019" lon="11.2254739"><ele>241.66666666666669</ele><time>2026-03-29T12:57:02.827Z</time></trkpt><trkpt lat="43.387083" lon="11.22543"><ele>240.83333333333334</ele><time>2026-03-29T12:57:03.825Z</time></trkpt><trkpt lat="43.387165" lon="11.225378"><ele>240.0</ele><time>2026-03-29T12:57:04.842Z</time></trkpt><trkpt lat="43.3872465" lon="11.225323"><ele>240.0</ele><time>2026-03-29T12:57:05.842Z</time></trkpt><trkpt lat="43.3873267" lon="11.2252652"><ele>240.0</ele><time>2026-03-29T12:57:06.842Z</time></trkpt><trkpt lat="43.3873951" lon="11.2252251"><ele>240.0</ele><time>2026-03-29T12:57:07.831Z</time></trkpt><trkpt lat="43.3874724" lon="11.2251933"><ele>240.0</ele><time>2026-03-29T12:57:08.834Z</time></trkpt><trkpt lat="43.3875908" lon="11.2251468"><ele>240.0</ele><time>2026-03-29T12:57:10.834Z</time></trkpt><trkpt lat="43.3876527" lon="11.225124"><ele>240.0</ele><time>2026-03-29T12:57:11.835Z</time></trkpt><trkpt lat="43.38777" lon="11.225077"><ele>240.0</ele><time>2026-03-29T12:57:13.813Z</time></trkpt><trkpt lat="43.3878819" lon="11.2250158"><ele>240.0</ele><time>2026-03-29T12:57:15.83Z</time></trkpt><trkpt lat="43.3879602" lon="11.2249473"><ele>240.0</ele><time>2026-03-29T12:57:17.828Z</time></trkpt><trkpt lat="43.3880294" lon="11.2248635"><ele>240.0</ele><time>2026-03-29T12:57:19.86Z</time></trkpt><trkpt lat="43.3881065" lon="11.2247573"><ele>240.0</ele><time>2026-03-29T12:57:21.826Z</time></trkpt><trkpt lat="43.388198" lon="11.2246505"><ele>241.6</ele><time>2026-03-29T12:57:23.833Z</time></trkpt><trkpt lat="43.3882478" lon="11.2245889"><ele>243.2</ele><time>2026-03-29T12:57:24.859Z</time></trkpt><trkpt lat="43.3882987" lon="11.2245257"><ele>244.8</ele><time>2026-03-29T12:57:25.857Z</time></trkpt><trkpt lat="43.3883888" lon="11.2244066"><ele>246.4</ele><time>2026-03-29T12:57:27.828Z</time></trkpt><trkpt lat="43.3884796" lon="11.2243003"><ele>248.0</ele><time>2026-03-29T12:57:29.837Z</time></trkpt><trkpt lat="43.3885852" lon="11.2242216"><ele>248.00000000000003</ele><time>2026-03-29T12:57:31.827Z</time></trkpt><trkpt lat="43.3886489" lon="11.2242171"><ele>248.0</ele><time>2026-03-29T12:57:32.85Z</time></trkpt><trkpt lat="43.3887592" lon="11.2242874"><ele>248.0</ele><time>2026-03-29T12:57:34.822Z</time></trkpt><trkpt lat="43.3888096" lon="11.2243765"><ele>248.0</ele><time>2026-03-29T12:57:35.839Z</time></trkpt><trkpt lat="43.3888384" lon="11.2244626"><ele>248.00000000000003</ele><time>2026-03-29T12:57:36.829Z</time></trkpt><trkpt lat="43.388864" lon="11.2245652"><ele>248.0</ele><time>2026-03-29T12:57:37.841Z</time></trkpt><trkpt lat="43.388885" lon="11.2246562"><ele>249.16666666666669</ele><time>2026-03-29T12:57:38.846Z</time></trkpt><trkpt lat="43.3889195" lon="11.2247662"><ele>250.33333333333334</ele><time>2026-03-29T12:57:39.845Z</time></trkpt><trkpt lat="43.3889616" lon="11.2248519"><ele>251.5</ele><time>2026-03-29T12:57:40.845Z</time></trkpt><trkpt lat="43.3890417" lon="11.2249358"><ele>252.66666666666669</ele><time>2026-03-29T12:57:42.851Z</time></trkpt><trkpt lat="43.3891222" lon="11.2249578"><ele>253.83333333333334</ele><time>2026-03-29T12:57:44.843Z</time></trkpt><trkpt lat="43.3892124" lon="11.2249408"><ele>255.0</ele><time>2026-03-29T12:57:46.832Z</time></trkpt><trkpt lat="43.3892779" lon="11.2249092"><ele>255.0</ele><time>2026-03-29T12:57:47.83Z</time></trkpt><trkpt lat="43.3893354" lon="11.224829"><ele>255.00000000000003</ele><time>2026-03-29T12:57:49.838Z</time></trkpt><trkpt lat="43.3893523" lon="11.2247375"><ele>255.0</ele><time>2026-03-29T12:57:52.82Z</time></trkpt><trkpt lat="43.3893625" lon="11.2246477"><ele>255.0</ele><time>2026-03-29T12:57:54.83Z</time></trkpt><trkpt lat="43.3893718" lon="11.2245455"><ele>255.00000000000003</ele><time>2026-03-29T12:57:56.832Z</time></trkpt><trkpt lat="43.3893964" lon="11.2244307"><ele>255.0</ele><time>2026-03-29T12:57:59.839Z</time></trkpt><trkpt lat="43.3894363" lon="11.2243628"><ele>255.0</ele><time>2026-03-29T12:58:01.835Z</time></trkpt><trkpt lat="43.3895146" lon="11.2243211"><ele>256.0</ele><time>2026-03-29T12:58:04.838Z</time></trkpt><trkpt lat="43.3895846" lon="11.2243451"><ele>257.0</ele><time>2026-03-29T12:58:06.822Z</time></trkpt><trkpt lat="43.3896576" lon="11.2243872"><ele>258.0</ele><time>2026-03-29T12:58:08.826Z</time></trkpt><trkpt lat="43.3897175" lon="11.2244361"><ele>259.0</ele><time>2026-03-29T12:58:11.831Z</time></trkpt><trkpt lat="43.3897752" lon="11.2244878"><ele>260.0</ele><time>2026-03-29T12:58:14.826Z</time></trkpt><trkpt lat="43.3898428" lon="11.2245244"><ele>261.0</ele><time>2026-03-29T12:58:17.825Z</time></trkpt><trkpt lat="43.3899057" lon="11.2245494"><ele>262.0</ele><time>2026-03-29T12:58:19.835Z</time></trkpt><trkpt lat="43.3899691" lon="11.2245841"><ele>261.7142857142857</ele><time>2026-03-29T12:58:21.848Z</time></trkpt><trkpt lat="43.3900435" lon="11.2246322"><ele>261.42857142857144</ele><time>2026-03-29T12:58:23.837Z</time></trkpt><trkpt lat="43.3901065" lon="11.2246688"><ele>261.14285714285717</ele><time>2026-03-29T12:58:25.839Z</time></trkpt><trkpt lat="43.3901721" lon="11.2247024"><ele>260.8571428571429</ele><time>2026-03-29T12:58:30.836Z</time></trkpt><trkpt lat="43.3902497" lon="11.2247226"><ele>260.57142857142856</ele><time>2026-03-29T12:58:35.83Z</time></trkpt><trkpt lat="43.390315" lon="11.224758"><ele>260.28571428571433</ele><time>2026-03-29T12:59:17.827Z</time></trkpt><trkpt lat="43.390382" lon="11.224791"><ele>260.0</ele><time>2026-03-29T12:59:20.825Z</time></trkpt><trkpt lat="43.3904681" lon="11.2248425"><ele>259.1666666666667</ele><time>2026-03-29T12:59:23.854Z</time></trkpt><trkpt lat="43.390549" lon="11.2248695"><ele>258.33333333333337</ele><time>2026-03-29T12:59:25.832Z</time></trkpt><trkpt lat="43.3906426" lon="11.224838"><ele>257.5</ele><time>2026-03-29T12:59:27.831Z</time></trkpt><trkpt lat="43.3906728" lon="11.2247412"><ele>256.6666666666667</ele><time>2026-03-29T12:59:29.835Z</time></trkpt><trkpt lat="43.3906749" lon="11.2246225"><ele>255.83333333333334</ele><time>2026-03-29T12:59:31.848Z</time></trkpt><trkpt lat="43.3906746" lon="11.2245168"><ele>255.0</ele><time>2026-03-29T12:59:33.841Z</time></trkpt><trkpt lat="43.3906752" lon="11.2244137"><ele>255.0</ele><time>2026-03-29T12:59:35.838Z</time></trkpt><trkpt lat="43.390683" lon="11.224317"><ele>255.0</ele><time>2026-03-29T12:59:37.83Z</time></trkpt><trkpt lat="43.3907103" lon="11.2241873"><ele>255.0</ele><time>2026-03-29T12:59:39.866Z</time></trkpt><trkpt lat="43.390747" lon="11.224065"><ele>255.0</ele><time>2026-03-29T12:59:41.836Z</time></trkpt><trkpt lat="43.3907917" lon="11.2239141"><ele>255.0</ele><time>2026-03-29T12:59:43.83Z</time></trkpt><trkpt lat="43.3908142" lon="11.2238313"><ele>255.0</ele><time>2026-03-29T12:59:44.84Z</time></trkpt><trkpt lat="43.3908543" lon="11.2236763"><ele>255.25</ele><time>2026-03-29T12:59:46.839Z</time></trkpt><trkpt lat="43.3909025" lon="11.2235204"><ele>255.5</ele><time>2026-03-29T12:59:48.841Z</time></trkpt><trkpt lat="43.3909522" lon="11.2233626"><ele>255.75</ele><time>2026-03-29T12:59:50.826Z</time></trkpt><trkpt lat="43.3909897" lon="11.2232143"><ele>256.0</ele><time>2026-03-29T12:59:52.843Z</time></trkpt><trkpt lat="43.391024" lon="11.2230573"><ele>256.0</ele><time>2026-03-29T12:59:54.826Z</time></trkpt><trkpt lat="43.3910541" lon="11.2229143"><ele>256.0</ele><time>2026-03-29T12:59:56.837Z</time></trkpt><trkpt lat="43.3910699" lon="11.2227784"><ele>256.0</ele><time>2026-03-29T12:59:58.844Z</time></trkpt><trkpt lat="43.3910547" lon="11.2226359"><ele>256.0</ele><time>2026-03-29T13:00:00.828Z</time></trkpt><trkpt lat="43.3910159" lon="11.222484"><ele>256.0</ele><time>2026-03-29T13:00:02.885Z</time></trkpt><trkpt lat="43.3909447" lon="11.2223443"><ele>253.33333333333331</ele><time>2026-03-29T13:00:04.828Z</time></trkpt><trkpt lat="43.3908519" lon="11.2222471"><ele>250.66666666666666</ele><time>2026-03-29T13:00:06.834Z</time></trkpt><trkpt lat="43.3907951" lon="11.2221958"><ele>248.0</ele><time>2026-03-29T13:00:07.85Z</time></trkpt><trkpt lat="43.3907316" lon="11.2221462"><ele>245.33333333333331</ele><time>2026-03-29T13:00:08.833Z</time></trkpt><trkpt lat="43.3906758" lon="11.2220968"><ele>242.66666666666666</ele><time>2026-03-29T13:00:09.847Z</time></trkpt><trkpt lat="43.3905821" lon="11.2220314"><ele>240.0</ele><time>2026-03-29T13:00:11.842Z</time></trkpt><trkpt lat="43.3905171" lon="11.2219986"><ele>241.83333333333334</ele><time>2026-03-29T13:00:14.843Z</time></trkpt><trkpt lat="43.3904605" lon="11.2219588"><ele>243.66666666666669</ele><time>2026-03-29T13:00:16.84Z</time></trkpt><trkpt lat="43.3903858" lon="11.2219204"><ele>245.5</ele><time>2026-03-29T13:00:18.835Z</time></trkpt><trkpt lat="43.3902948" lon="11.2218791"><ele>247.33333333333334</ele><time>2026-03-29T13:00:20.845Z</time></trkpt><trkpt lat="43.3902059" lon="11.2218414"><ele>249.16666666666669</ele><time>2026-03-29T13:00:22.833Z</time></trkpt><trkpt lat="43.3900951" lon="11.2218162"><ele>251.0</ele><time>2026-03-29T13:00:24.839Z</time></trkpt><trkpt lat="43.3899852" lon="11.2218137"><ele>251.0</ele><time>2026-03-29T13:00:26.836Z</time></trkpt><trkpt lat="43.3898834" lon="11.221842"><ele>251.00000000000003</ele><time>2026-03-29T13:00:28.849Z</time></trkpt><trkpt lat="43.3897888" lon="11.221926"><ele>251.00000000000003</ele><time>2026-03-29T13:00:30.842Z</time></trkpt><trkpt lat="43.3897078" lon="11.2220284"><ele>251.0</ele><time>2026-03-29T13:00:32.838Z</time></trkpt><trkpt lat="43.389662" lon="11.2220901"><ele>251.0</ele><time>2026-03-29T13:00:33.828Z</time></trkpt><trkpt lat="43.3895669" lon="11.222206"><ele>251.4</ele><time>2026-03-29T13:00:35.831Z</time></trkpt><trkpt lat="43.3895087" lon="11.2222794"><ele>251.8</ele><time>2026-03-29T13:00:36.957Z</time></trkpt><trkpt lat="43.3894178" lon="11.2223885"><ele>252.20000000000002</ele><time>2026-03-29T13:00:38.837Z</time></trkpt><trkpt lat="43.3893335" lon="11.2225089"><ele>252.60000000000002</ele><time>2026-03-29T13:00:40.838Z</time></trkpt><trkpt lat="43.3892915" lon="11.2225738"><ele>253.0</ele><time>2026-03-29T13:00:41.826Z</time></trkpt><trkpt lat="43.3892263" lon="11.2227122"><ele>252.99999999999997</ele><time>2026-03-29T13:00:43.823Z</time></trkpt><trkpt lat="43.389193" lon="11.2227966"><ele>253.0</ele><time>2026-03-29T13:00:44.843Z</time></trkpt><trkpt lat="43.3891674" lon="11.2228875"><ele>253.0</ele><time>2026-03-29T13:00:45.849Z</time></trkpt><trkpt lat="43.3891409" lon="11.222976"><ele>253.0</ele><time>2026-03-29T13:00:46.832Z</time></trkpt><trkpt lat="43.3891161" lon="11.223069"><ele>252.99999999999997</ele><time>2026-03-29T13:00:47.839Z</time></trkpt><trkpt lat="43.3890909" lon="11.2232389"><ele>253.0</ele><time>2026-03-29T13:00:49.834Z</time></trkpt><trkpt lat="43.3890878" lon="11.2233352"><ele>254.60000000000002</ele><time>2026-03-29T13:00:50.84Z</time></trkpt><trkpt lat="43.3890881" lon="11.2234309"><ele>256.20000000000005</ele><time>2026-03-29T13:00:51.839Z</time></trkpt><trkpt lat="43.3890929" lon="11.2235259"><ele>257.8</ele><time>2026-03-29T13:00:52.84Z</time></trkpt><trkpt lat="43.3891005" lon="11.2236947"><ele>259.40000000000003</ele><time>2026-03-29T13:00:54.854Z</time></trkpt><trkpt lat="43.38911" lon="11.2238431"><ele>261.0</ele><time>2026-03-29T13:00:56.831Z</time></trkpt><trkpt lat="43.3891473" lon="11.2239768"><ele>261.1666666666667</ele><time>2026-03-29T13:00:58.857Z</time></trkpt><trkpt lat="43.3892006" lon="11.2240783"><ele>261.3333333333333</ele><time>2026-03-29T13:01:00.829Z</time></trkpt><trkpt lat="43.3892622" lon="11.2241756"><ele>261.5</ele><time>2026-03-29T13:01:02.84Z</time></trkpt><trkpt lat="43.3893393" lon="11.2242539"><ele>261.66666666666663</ele><time>2026-03-29T13:01:04.819Z</time></trkpt><trkpt lat="43.3893921" lon="11.2243126"><ele>261.8333333333333</ele><time>2026-03-29T13:01:06.836Z</time></trkpt><trkpt lat="43.3893953" lon="11.2244092"><ele>262.0</ele><time>2026-03-29T13:01:08.847Z</time></trkpt><trkpt lat="43.3893604" lon="11.224527"><ele>262.0</ele><time>2026-03-29T13:01:10.844Z</time></trkpt><trkpt lat="43.3893391" lon="11.2246629"><ele>262.0</ele><time>2026-03-29T13:01:12.829Z</time></trkpt><trkpt lat="43.3893177" lon="11.2247574"><ele>262.0</ele><time>2026-03-29T13:01:13.833Z</time></trkpt><trkpt lat="43.3892408" lon="11.2248812"><ele>262.0</ele><time>2026-03-29T13:01:15.84Z</time></trkpt><trkpt lat="43.3891468" lon="11.2249229"><ele>262.0</ele><time>2026-03-29T13:01:17.875Z</time></trkpt><trkpt lat="43.3890225" lon="11.2249124"><ele>262.0</ele><time>2026-03-29T13:01:19.834Z</time></trkpt><trkpt lat="43.3889645" lon="11.2248709"><ele>262.0</ele><time>2026-03-29T13:01:20.834Z</time></trkpt><trkpt lat="43.3889138" lon="11.2248046"><ele>262.0</ele><time>2026-03-29T13:01:21.839Z</time></trkpt><trkpt lat="43.3888666" lon="11.2246335"><ele>262.0</ele><time>2026-03-29T13:01:23.837Z</time></trkpt><trkpt lat="43.3888335" lon="11.2245086"><ele>262.0</ele><time>2026-03-29T13:01:24.836Z</time></trkpt><trkpt lat="43.388791" lon="11.2243833"><ele>259.2</ele><time>2026-03-29T13:01:25.832Z</time></trkpt><trkpt lat="43.3887419" lon="11.2242978"><ele>256.4</ele><time>2026-03-29T13:01:26.829Z</time></trkpt><trkpt lat="43.388621" lon="11.2242054"><ele>253.60000000000002</ele><time>2026-03-29T13:01:28.822Z</time></trkpt><trkpt lat="43.3885437" lon="11.2242025"><ele>250.8</ele><time>2026-03-29T13:01:29.834Z</time></trkpt><trkpt lat="43.3884851" lon="11.2242452"><ele>248.0</ele><time>2026-03-29T13:01:30.835Z</time></trkpt><trkpt lat="43.3884156" lon="11.2243213"><ele>248.0</ele><time>2026-03-29T13:01:31.84Z</time></trkpt><trkpt lat="43.3883423" lon="11.2244035"><ele>248.0</ele><time>2026-03-29T13:01:32.831Z</time></trkpt><trkpt lat="43.3882696" lon="11.2244969"><ele>248.0</ele><time>2026-03-29T13:01:33.829Z</time></trkpt><trkpt lat="43.3881874" lon="11.2246009"><ele>248.0</ele><time>2026-03-29T13:01:34.835Z</time></trkpt><trkpt lat="43.3880963" lon="11.2247213"><ele>248.0</ele><time>2026-03-29T13:01:35.844Z</time></trkpt><trkpt lat="43.3880106" lon="11.2248246"><ele>246.0</ele><time>2026-03-29T13:01:36.843Z</time></trkpt><trkpt lat="43.3879212" lon="11.2249233"><ele>244.0</ele><time>2026-03-29T13:01:37.829Z</time></trkpt><trkpt lat="43.3878291" lon="11.225018"><ele>242.0</ele><time>2026-03-29T13:01:38.821Z</time></trkpt><trkpt lat="43.3877235" lon="11.2250845"><ele>240.0</ele><time>2026-03-29T13:01:39.84Z</time></trkpt><trkpt lat="43.3876112" lon="11.2251424"><ele>240.0</ele><time>2026-03-29T13:01:40.832Z</time></trkpt><trkpt lat="43.3874798" lon="11.2251835"><ele>240.0</ele><time>2026-03-29T13:01:41.849Z</time></trkpt><trkpt lat="43.3873594" lon="11.2252469"><ele>240.0</ele><time>2026-03-29T13:01:42.823Z</time></trkpt><trkpt lat="43.3872256" lon="11.2253314"><ele>240.0</ele><time>2026-03-29T13:01:43.831Z</time></trkpt><trkpt lat="43.3871178" lon="11.2253952"><ele>239.75</ele><time>2026-03-29T13:01:44.85Z</time></trkpt><trkpt lat="43.3869873" lon="11.2254638"><ele>239.5</ele><time>2026-03-29T13:01:45.841Z</time></trkpt><trkpt lat="43.3868623" lon="11.2255118"><ele>239.25</ele><time>2026-03-29T13:01:46.849Z</time></trkpt><trkpt lat="43.3867394" lon="11.2255393"><ele>239.0</ele><time>2026-03-29T13:01:47.825Z</time></trkpt><trkpt lat="43.3866177" lon="11.2255705"><ele>239.00000000000003</ele><time>2026-03-29T13:01:48.829Z</time></trkpt><trkpt lat="43.3865051" lon="11.2256047"><ele>239.0</ele><time>2026-03-29T13:01:49.843Z</time></trkpt><trkpt lat="43.3864104" lon="11.2256336"><ele>239.0</ele><time>2026-03-29T13:01:50.836Z</time></trkpt><trkpt lat="43.3863216" lon="11.2256626"><ele>239.0</ele><time>2026-03-29T13:01:51.836Z</time></trkpt><trkpt lat="43.386248" lon="11.2256852"><ele>239.00000000000003</ele><time>2026-03-29T13:01:52.835Z</time></trkpt><trkpt lat="43.3861812" lon="11.2257114"><ele>239.0</ele><time>2026-03-29T13:01:53.861Z</time></trkpt><trkpt lat="43.3860772" lon="11.225752"><ele>239.50000000000003</ele><time>2026-03-29T13:01:55.853Z</time></trkpt><trkpt lat="43.3860126" lon="11.2257808"><ele>240.0</ele><time>2026-03-29T13:01:57.841Z</time></trkpt><trkpt lat="43.3859477" lon="11.2258201"><ele>240.5</ele><time>2026-03-29T13:01:59.836Z</time></trkpt><trkpt lat="43.3858715" lon="11.2258873"><ele>241.0</ele><time>2026-03-29T13:02:02.839Z</time></trkpt><trkpt lat="43.3858071" lon="11.2259343"><ele>241.50000000000003</ele><time>2026-03-29T13:02:05.835Z</time></trkpt><trkpt lat="43.3857379" lon="11.2259238"><ele>242.0</ele><time>2026-03-29T13:02:08.836Z</time></trkpt><trkpt lat="43.3856761" lon="11.2260049"><ele>242.0</ele><time>2026-03-29T13:02:11.863Z</time></trkpt><trkpt lat="43.3856459" lon="11.2262005"><ele>242.0</ele><time>2026-03-29T13:02:13.847Z</time></trkpt><trkpt lat="43.3856285" lon="11.2263085"><ele>242.0</ele><time>2026-03-29T13:02:14.82Z</time></trkpt><trkpt lat="43.3856116" lon="11.2264135"><ele>242.0</ele><time>2026-03-29T13:02:15.837Z</time></trkpt><trkpt lat="43.3855944" lon="11.2265268"><ele>242.0</ele><time>2026-03-29T13:02:16.841Z</time></trkpt><trkpt lat="43.3855756" lon="11.2266453"><ele>241.8</ele><time>2026-03-29T13:02:17.841Z</time></trkpt><trkpt lat="43.3855526" lon="11.2267456"><ele>241.6</ele><time>2026-03-29T13:02:18.825Z</time></trkpt><trkpt lat="43.38552" lon="11.2268995"><ele>241.40000000000003</ele><time>2026-03-29T13:02:19.848Z</time></trkpt><trkpt lat="43.3854869" lon="11.227051"><ele>241.20000000000002</ele><time>2026-03-29T13:02:20.839Z</time></trkpt><trkpt lat="43.3854527" lon="11.2272115"><ele>241.0</ele><time>2026-03-29T13:02:21.836Z</time></trkpt><trkpt lat="43.3854152" lon="11.227391"><ele>240.5</ele><time>2026-03-29T13:02:22.837Z</time></trkpt><trkpt lat="43.3853817" lon="11.2275731"><ele>240.0</ele><time>2026-03-29T13:02:23.831Z</time></trkpt><trkpt lat="43.3853637" lon="11.2277314"><ele>239.5</ele><time>2026-03-29T13:02:24.83Z</time></trkpt><trkpt lat="43.3853402" lon="11.2279106"><ele>239.0</ele><time>2026-03-29T13:02:25.836Z</time></trkpt><trkpt lat="43.3853139" lon="11.2280987"><ele>238.33333333333334</ele><time>2026-03-29T13:02:26.834Z</time></trkpt><trkpt lat="43.3852884" lon="11.2282958"><ele>237.66666666666669</ele><time>2026-03-29T13:02:27.834Z</time></trkpt><trkpt lat="43.3852617" lon="11.2285131"><ele>237.0</ele><time>2026-03-29T13:02:28.835Z</time></trkpt><trkpt lat="43.3852388" lon="11.2287427"><ele>237.0</ele><time>2026-03-29T13:02:29.865Z</time></trkpt><trkpt lat="43.3852176" lon="11.2289473"><ele>237.0</ele><time>2026-03-29T13:02:30.831Z</time></trkpt><trkpt lat="43.3851989" lon="11.2291634"><ele>237.0</ele><time>2026-03-29T13:02:31.828Z</time></trkpt><trkpt lat="43.3851798" lon="11.2293805"><ele>236.66666666666669</ele><time>2026-03-29T13:02:32.833Z</time></trkpt><trkpt lat="43.3851574" lon="11.229605"><ele>236.33333333333334</ele><time>2026-03-29T13:02:33.856Z</time></trkpt><trkpt lat="43.3851339" lon="11.229828"><ele>236.0</ele><time>2026-03-29T13:02:34.827Z</time></trkpt><trkpt lat="43.3851102" lon="11.2300559"><ele>236.0</ele><time>2026-03-29T13:02:35.835Z</time></trkpt><trkpt lat="43.3850855" lon="11.2302792"><ele>236.0</ele><time>2026-03-29T13:02:36.826Z</time></trkpt><trkpt lat="43.3850615" lon="11.2305046"><ele>236.0</ele><time>2026-03-29T13:02:37.835Z</time></trkpt><trkpt lat="43.3850368" lon="11.2307291"><ele>235.66666666666669</ele><time>2026-03-29T13:02:38.847Z</time></trkpt><trkpt lat="43.3850156" lon="11.2309498"><ele>235.33333333333331</ele><time>2026-03-29T13:02:39.867Z</time></trkpt><trkpt lat="43.3849927" lon="11.2311498"><ele>235.0</ele><time>2026-03-29T13:02:40.849Z</time></trkpt><trkpt lat="43.3849798" lon="11.2313514"><ele>234.33333333333331</ele><time>2026-03-29T13:02:41.831Z</time></trkpt><trkpt lat="43.3849749" lon="11.231581"><ele>233.66666666666669</ele><time>2026-03-29T13:02:42.886Z</time></trkpt><trkpt lat="43.3849874" lon="11.2318078"><ele>233.0</ele><time>2026-03-29T13:02:43.884Z</time></trkpt><trkpt lat="43.3850142" lon="11.232118"><ele>231.33333333333334</ele><time>2026-03-29T13:02:45.22Z</time></trkpt><trkpt lat="43.385049" lon="11.2324936"><ele>229.66666666666669</ele><time>2026-03-29T13:02:46.894Z</time></trkpt><trkpt lat="43.3850892" lon="11.2327063"><ele>228.0</ele><time>2026-03-29T13:02:47.905Z</time></trkpt><trkpt lat="43.3851412" lon="11.2329398"><ele>226.66666666666669</ele><time>2026-03-29T13:02:48.893Z</time></trkpt><trkpt lat="43.3852117" lon="11.2332077"><ele>225.33333333333334</ele><time>2026-03-29T13:02:49.896Z</time></trkpt><trkpt lat="43.3852907" lon="11.2334606"><ele>224.0</ele><time>2026-03-29T13:02:50.899Z</time></trkpt><trkpt lat="43.3853762" lon="11.2337229"><ele>223.33333333333334</ele><time>2026-03-29T13:02:51.885Z</time></trkpt><trkpt lat="43.38546" lon="11.233991"><ele>222.66666666666669</ele><time>2026-03-29T13:02:52.883Z</time></trkpt><trkpt lat="43.3855452" lon="11.2342487"><ele>222.0</ele><time>2026-03-29T13:02:53.839Z</time></trkpt><trkpt lat="43.3856348" lon="11.2345158"><ele>221.66666666666669</ele><time>2026-03-29T13:02:54.844Z</time></trkpt><trkpt lat="43.3857223" lon="11.2347698"><ele>221.33333333333334</ele><time>2026-03-29T13:02:55.833Z</time></trkpt><trkpt lat="43.3858051" lon="11.2350186"><ele>221.0</ele><time>2026-03-29T13:02:56.832Z</time></trkpt><trkpt lat="43.3858845" lon="11.2352551"><ele>221.0</ele><time>2026-03-29T13:02:57.832Z</time></trkpt><trkpt lat="43.3859649" lon="11.2354828"><ele>221.0</ele><time>2026-03-29T13:02:58.831Z</time></trkpt><trkpt lat="43.3860376" lon="11.2356955"><ele>221.0</ele><time>2026-03-29T13:02:59.826Z</time></trkpt><trkpt lat="43.3861089" lon="11.2359013"><ele>221.75</ele><time>2026-03-29T13:03:00.833Z</time></trkpt><trkpt lat="43.3861757" lon="11.2360925"><ele>222.5</ele><time>2026-03-29T13:03:01.832Z</time></trkpt><trkpt lat="43.3862246" lon="11.2362761"><ele>223.25</ele><time>2026-03-29T13:03:02.831Z</time></trkpt><trkpt lat="43.3862509" lon="11.2364592"><ele>224.0</ele><time>2026-03-29T13:03:03.848Z</time></trkpt><trkpt lat="43.3862394" lon="11.2366413"><ele>225.25</ele><time>2026-03-29T13:03:04.88Z</time></trkpt><trkpt lat="43.3861885" lon="11.2367968"><ele>226.5</ele><time>2026-03-29T13:03:05.854Z</time></trkpt><trkpt lat="43.3860935" lon="11.2369508"><ele>227.75</ele><time>2026-03-29T13:03:06.884Z</time></trkpt><trkpt lat="43.3859592" lon="11.2371075"><ele>229.0</ele><time>2026-03-29T13:03:07.884Z</time></trkpt><trkpt lat="43.3858054" lon="11.2372596"><ele>229.66666666666666</ele><time>2026-03-29T13:03:08.853Z</time></trkpt><trkpt lat="43.3856425" lon="11.2374167"><ele>230.33333333333331</ele><time>2026-03-29T13:03:09.841Z</time></trkpt><trkpt lat="43.3854537" lon="11.2375842"><ele>231.0</ele><time>2026-03-29T13:03:10.833Z</time></trkpt><trkpt lat="43.3852463" lon="11.2377631"><ele>235.0</ele><time>2026-03-29T13:03:11.843Z</time></trkpt><trkpt lat="43.3850498" lon="11.2379305"><ele>239.0</ele><time>2026-03-29T13:03:12.834Z</time></trkpt><trkpt lat="43.3848523" lon="11.23809"><ele>238.66666666666669</ele><time>2026-03-29T13:03:13.84Z</time></trkpt><trkpt lat="43.3846798" lon="11.2382411"><ele>238.33333333333331</ele><time>2026-03-29T13:03:14.837Z</time></trkpt><trkpt lat="43.3845005" lon="11.2383897"><ele>238.0</ele><time>2026-03-29T13:03:15.836Z</time></trkpt><trkpt lat="43.3843295" lon="11.2385314"><ele>240.0</ele><time>2026-03-29T13:03:16.837Z</time></trkpt><trkpt lat="43.3841884" lon="11.2386606"><ele>242.0</ele><time>2026-03-29T13:03:17.828Z</time></trkpt><trkpt lat="43.3840319" lon="11.238792"><ele>244.0</ele><time>2026-03-29T13:03:18.847Z</time></trkpt><trkpt lat="43.3838814" lon="11.2389194"><ele>242.66666666666666</ele><time>2026-03-29T13:03:19.841Z</time></trkpt><trkpt lat="43.3837286" lon="11.2390486"><ele>241.33333333333331</ele><time>2026-03-29T13:03:20.83Z</time></trkpt><trkpt lat="43.3835924" lon="11.2391698"><ele>240.0</ele><time>2026-03-29T13:03:21.837Z</time></trkpt><trkpt lat="43.3834473" lon="11.2392897"><ele>240.0</ele><time>2026-03-29T13:03:22.838Z</time></trkpt><trkpt lat="43.3833024" lon="11.2394124"><ele>240.0</ele><time>2026-03-29T13:03:23.873Z</time></trkpt><trkpt lat="43.3831866" lon="11.2395239"><ele>240.0</ele><time>2026-03-29T13:03:24.889Z</time></trkpt><trkpt lat="43.3830428" lon="11.2396427"><ele>241.0</ele><time>2026-03-29T13:03:25.88Z</time></trkpt><trkpt lat="43.3829833" lon="11.2397484"><ele>242.0</ele><time>2026-03-29T13:03:26.834Z</time></trkpt><trkpt lat="43.3828748" lon="11.2399252"><ele>243.0</ele><time>2026-03-29T13:03:27.829Z</time></trkpt><trkpt lat="43.3827848" lon="11.240127"><ele>244.0</ele><time>2026-03-29T13:03:28.832Z</time></trkpt><trkpt lat="43.3826927" lon="11.2403646"><ele>244.0</ele><time>2026-03-29T13:03:29.86Z</time></trkpt><trkpt lat="43.3826057" lon="11.2405907"><ele>244.0</ele><time>2026-03-29T13:03:30.844Z</time></trkpt><trkpt lat="43.3825178" lon="11.2408217"><ele>244.0</ele><time>2026-03-29T13:03:31.853Z</time></trkpt><trkpt lat="43.3824367" lon="11.2410401"><ele>243.66666666666666</ele><time>2026-03-29T13:03:32.839Z</time></trkpt><trkpt lat="43.3823593" lon="11.241274"><ele>243.33333333333331</ele><time>2026-03-29T13:03:33.836Z</time></trkpt><trkpt lat="43.3822857" lon="11.2415201"><ele>243.0</ele><time>2026-03-29T13:03:34.842Z</time></trkpt><trkpt lat="43.3822204" lon="11.2417309"><ele>240.66666666666669</ele><time>2026-03-29T13:03:35.832Z</time></trkpt><trkpt lat="43.3821634" lon="11.2419395"><ele>238.33333333333334</ele><time>2026-03-29T13:03:36.838Z</time></trkpt><trkpt lat="43.3821066" lon="11.2421449"><ele>236.0</ele><time>2026-03-29T13:03:37.847Z</time></trkpt><trkpt lat="43.3820452" lon="11.2423533"><ele>235.0</ele><time>2026-03-29T13:03:38.85Z</time></trkpt><trkpt lat="43.3819861" lon="11.2425629"><ele>234.0</ele><time>2026-03-29T13:03:39.854Z</time></trkpt><trkpt lat="43.3819433" lon="11.2427628"><ele>233.0</ele><time>2026-03-29T13:03:40.848Z</time></trkpt><trkpt lat="43.3819178" lon="11.2429761"><ele>234.25</ele><time>2026-03-29T13:03:41.847Z</time></trkpt><trkpt lat="43.3819247" lon="11.2431878"><ele>235.5</ele><time>2026-03-29T13:03:42.845Z</time></trkpt><trkpt lat="43.3819568" lon="11.2433422"><ele>236.75</ele><time>2026-03-29T13:03:43.848Z</time></trkpt><trkpt lat="43.3820247" lon="11.2435168"><ele>238.0</ele><time>2026-03-29T13:03:44.867Z</time></trkpt><trkpt lat="43.3821113" lon="11.2436716"><ele>238.25</ele><time>2026-03-29T13:03:45.871Z</time></trkpt><trkpt lat="43.3821986" lon="11.2438321"><ele>238.5</ele><time>2026-03-29T13:03:46.881Z</time></trkpt><trkpt lat="43.3822649" lon="11.2440021"><ele>238.75</ele><time>2026-03-29T13:03:47.847Z</time></trkpt><trkpt lat="43.3823163" lon="11.2441912"><ele>239.0</ele><time>2026-03-29T13:03:48.832Z</time></trkpt><trkpt lat="43.3823207" lon="11.2443486"><ele>239.0</ele><time>2026-03-29T13:03:49.84Z</time></trkpt><trkpt lat="43.382291" lon="11.2445164"><ele>239.0</ele><time>2026-03-29T13:03:50.89Z</time></trkpt><trkpt lat="43.3822347" lon="11.2446686"><ele>239.0</ele><time>2026-03-29T13:03:51.838Z</time></trkpt><trkpt lat="43.3821247" lon="11.2448494"><ele>239.0</ele><time>2026-03-29T13:03:52.825Z</time></trkpt><trkpt lat="43.381998" lon="11.2449698"><ele>240.0</ele><time>2026-03-29T13:03:53.83Z</time></trkpt><trkpt lat="43.3818133" lon="11.245081"><ele>241.0</ele><time>2026-03-29T13:03:54.867Z</time></trkpt><trkpt lat="43.3821167" lon="11.2454946"><ele>236.0</ele><time>2026-03-29T13:03:55.87Z</time></trkpt><trkpt lat="43.3819343" lon="11.245684"><ele>231.0</ele><time>2026-03-29T13:03:56.877Z</time></trkpt><trkpt lat="43.3817178" lon="11.2458073"><ele>231.0</ele><time>2026-03-29T13:03:57.847Z</time></trkpt><trkpt lat="43.3814298" lon="11.2458747"><ele>231.0</ele><time>2026-03-29T13:03:58.878Z</time></trkpt><trkpt lat="43.381149" lon="11.2458875"><ele>235.0</ele><time>2026-03-29T13:03:59.836Z</time></trkpt><trkpt lat="43.380876" lon="11.2459518"><ele>239.0</ele><time>2026-03-29T13:04:00.879Z</time></trkpt><trkpt lat="43.3806588" lon="11.2460229"><ele>241.33333333333334</ele><time>2026-03-29T13:04:01.884Z</time></trkpt><trkpt lat="43.3804781" lon="11.2461143"><ele>243.66666666666669</ele><time>2026-03-29T13:04:02.862Z</time></trkpt><trkpt lat="43.3802828" lon="11.2461807"><ele>246.0</ele><time>2026-03-29T13:04:03.886Z</time></trkpt><trkpt lat="43.3800556" lon="11.2462197"><ele>246.0</ele><time>2026-03-29T13:04:04.826Z</time></trkpt><trkpt lat="43.3798009" lon="11.2462212"><ele>246.0</ele><time>2026-03-29T13:04:05.87Z</time></trkpt><trkpt lat="43.3795389" lon="11.2462237"><ele>247.0</ele><time>2026-03-29T13:04:06.867Z</time></trkpt><trkpt lat="43.3792331" lon="11.2462114"><ele>248.0</ele><time>2026-03-29T13:04:07.888Z</time></trkpt><trkpt lat="43.3794829" lon="11.2462012"><ele>248.0</ele><time>2026-03-29T13:04:08.87Z</time></trkpt><trkpt lat="43.3793427" lon="11.246248"><ele>248.0</ele><time>2026-03-29T13:04:09.866Z</time></trkpt><trkpt lat="43.3792012" lon="11.246359"><ele>248.0</ele><time>2026-03-29T13:04:10.872Z</time></trkpt><trkpt lat="43.3790537" lon="11.2465285"><ele>243.0</ele><time>2026-03-29T13:04:11.849Z</time></trkpt><trkpt lat="43.3788933" lon="11.246739"><ele>238.0</ele><time>2026-03-29T13:04:12.864Z</time></trkpt><trkpt lat="43.378721" lon="11.2469714"><ele>242.5</ele><time>2026-03-29T13:04:13.869Z</time></trkpt><trkpt lat="43.3785532" lon="11.2472497"><ele>247.0</ele><time>2026-03-29T13:04:14.873Z</time></trkpt><trkpt lat="43.3784087" lon="11.2475229"><ele>247.0</ele><time>2026-03-29T13:04:15.84Z</time></trkpt><trkpt lat="43.378277" lon="11.2477889"><ele>247.0</ele><time>2026-03-29T13:04:16.837Z</time></trkpt><trkpt lat="43.3781768" lon="11.2479272"><ele>247.0</ele><time>2026-03-29T13:04:17.839Z</time></trkpt><trkpt lat="43.3777882" lon="11.2481755"><ele>249.33333333333331</ele><time>2026-03-29T13:04:18.873Z</time></trkpt><trkpt lat="43.3777222" lon="11.248451"><ele>251.66666666666669</ele><time>2026-03-29T13:04:19.844Z</time></trkpt><trkpt lat="43.3776317" lon="11.2487225"><ele>254.0</ele><time>2026-03-29T13:04:20.881Z</time></trkpt><trkpt lat="43.3775321" lon="11.2489312"><ele>254.0</ele><time>2026-03-29T13:04:21.886Z</time></trkpt><trkpt lat="43.3774052" lon="11.249079"><ele>254.0</ele><time>2026-03-29T13:04:22.877Z</time></trkpt><trkpt lat="43.3772424" lon="11.2492175"><ele>254.0</ele><time>2026-03-29T13:04:23.842Z</time></trkpt><trkpt lat="43.3770768" lon="11.2492998"><ele>254.0</ele><time>2026-03-29T13:04:24.902Z</time></trkpt><trkpt lat="43.3768886" lon="11.2493014"><ele>254.0</ele><time>2026-03-29T13:04:25.873Z</time></trkpt><trkpt lat="43.3767077" lon="11.2492749"><ele>254.0</ele><time>2026-03-29T13:04:26.877Z</time></trkpt><trkpt lat="43.3765447" lon="11.2493091"><ele>265.0</ele><time>2026-03-29T13:04:27.912Z</time></trkpt><trkpt lat="43.3763479" lon="11.2493947"><ele>276.0</ele><time>2026-03-29T13:04:28.896Z</time></trkpt><trkpt lat="43.376175" lon="11.2494982"><ele>287.0</ele><time>2026-03-29T13:04:29.834Z</time></trkpt><trkpt lat="43.3759896" lon="11.2496855"><ele>280.0</ele><time>2026-03-29T13:04:30.837Z</time></trkpt><trkpt lat="43.3758087" lon="11.24986"><ele>273.0</ele><time>2026-03-29T13:04:31.832Z</time></trkpt><trkpt lat="43.3755989" lon="11.2500628"><ele>285.3333333333333</ele><time>2026-03-29T13:04:32.841Z</time></trkpt><trkpt lat="43.3754926" lon="11.2502739"><ele>297.66666666666663</ele><time>2026-03-29T13:04:33.83Z</time></trkpt><trkpt lat="43.3754274" lon="11.2505271"><ele>310.0</ele><time>2026-03-29T13:04:34.87Z</time></trkpt><trkpt lat="43.3753471" lon="11.2507607"><ele>310.0</ele><time>2026-03-29T13:04:35.877Z</time></trkpt><trkpt lat="43.3753864" lon="11.2511304"><ele>310.0</ele><time>2026-03-29T13:04:36.881Z</time></trkpt><trkpt lat="43.375392" lon="11.2514263"><ele>304.5</ele><time>2026-03-29T13:04:37.858Z</time></trkpt><trkpt lat="43.3754256" lon="11.251815"><ele>299.0</ele><time>2026-03-29T13:04:38.877Z</time></trkpt><trkpt lat="43.3754245" lon="11.2521497"><ele>291.0</ele><time>2026-03-29T13:04:39.847Z</time></trkpt><trkpt lat="43.3754959" lon="11.2525328"><ele>283.0</ele><time>2026-03-29T13:04:40.835Z</time></trkpt><trkpt lat="43.3755219" lon="11.252857"><ele>283.0</ele><time>2026-03-29T13:04:41.839Z</time></trkpt><trkpt lat="43.3754695" lon="11.2530818"><ele>283.0</ele><time>2026-03-29T13:04:42.849Z</time></trkpt><trkpt lat="43.3753377" lon="11.2532493"><ele>283.0</ele><time>2026-03-29T13:04:43.867Z</time></trkpt><trkpt lat="43.3751685" lon="11.2534048"><ele>275.5</ele><time>2026-03-29T13:04:44.877Z</time></trkpt><trkpt lat="43.3749608" lon="11.2535217"><ele>268.0</ele><time>2026-03-29T13:04:45.85Z</time></trkpt><trkpt lat="43.3747122" lon="11.2536312"><ele>276.0</ele><time>2026-03-29T13:04:46.829Z</time></trkpt><trkpt lat="43.3744898" lon="11.2537768"><ele>284.0</ele><time>2026-03-29T13:04:47.829Z</time></trkpt><trkpt lat="43.3742982" lon="11.2539344"><ele>278.33333333333337</ele><time>2026-03-29T13:04:48.881Z</time></trkpt><trkpt lat="43.374127" lon="11.2540854"><ele>272.6666666666667</ele><time>2026-03-29T13:04:49.841Z</time></trkpt><trkpt lat="43.374005" lon="11.25427"><ele>267.0</ele><time>2026-03-29T13:04:50.858Z</time></trkpt><trkpt lat="43.3738982" lon="11.2544331"><ele>266.6666666666667</ele><time>2026-03-29T13:04:51.834Z</time></trkpt><trkpt lat="43.3737975" lon="11.2545961"><ele>266.33333333333337</ele><time>2026-03-29T13:04:52.834Z</time></trkpt><trkpt lat="43.3736974" lon="11.2547611"><ele>266.0</ele><time>2026-03-29T13:04:53.845Z</time></trkpt><trkpt lat="43.373591" lon="11.2549086"><ele>266.0</ele><time>2026-03-29T13:04:54.829Z</time></trkpt><trkpt lat="43.3734692" lon="11.2550443"><ele>266.0</ele><time>2026-03-29T13:04:55.838Z</time></trkpt><trkpt lat="43.3733438" lon="11.2551548"><ele>266.0</ele><time>2026-03-29T13:04:56.836Z</time></trkpt><trkpt lat="43.3732026" lon="11.2552314"><ele>266.0</ele><time>2026-03-29T13:04:57.848Z</time></trkpt><trkpt lat="43.3730525" lon="11.2552615"><ele>266.0</ele><time>2026-03-29T13:04:58.858Z</time></trkpt><trkpt lat="43.3728998" lon="11.2552515"><ele>266.0</ele><time>2026-03-29T13:04:59.838Z</time></trkpt><trkpt lat="43.3727283" lon="11.2552099"><ele>267.0</ele><time>2026-03-29T13:05:00.835Z</time></trkpt><trkpt lat="43.3725206" lon="11.2550851"><ele>268.0</ele><time>2026-03-29T13:05:01.841Z</time></trkpt><trkpt lat="43.3723238" lon="11.2549629"><ele>269.0</ele><time>2026-03-29T13:05:02.835Z</time></trkpt><trkpt lat="43.3721268" lon="11.2548762"><ele>269.6666666666667</ele><time>2026-03-29T13:05:03.891Z</time></trkpt><trkpt lat="43.3719838" lon="11.2548617"><ele>270.3333333333333</ele><time>2026-03-29T13:05:04.835Z</time></trkpt><trkpt lat="43.3718269" lon="11.2548516"><ele>271.0</ele><time>2026-03-29T13:05:05.835Z</time></trkpt><trkpt lat="43.3716632" lon="11.2548424"><ele>271.0</ele><time>2026-03-29T13:05:06.847Z</time></trkpt><trkpt lat="43.3714922" lon="11.2548331"><ele>271.0</ele><time>2026-03-29T13:05:07.852Z</time></trkpt><trkpt lat="43.3713303" lon="11.2548257"><ele>271.0</ele><time>2026-03-29T13:05:08.84Z</time></trkpt><trkpt lat="43.3711626" lon="11.2548081"><ele>270.66666666666663</ele><time>2026-03-29T13:05:09.888Z</time></trkpt><trkpt lat="43.3710044" lon="11.2547902"><ele>270.3333333333333</ele><time>2026-03-29T13:05:10.832Z</time></trkpt><trkpt lat="43.3708312" lon="11.2547771"><ele>270.0</ele><time>2026-03-29T13:05:11.846Z</time></trkpt><trkpt lat="43.3706584" lon="11.2547526"><ele>271.3333333333333</ele><time>2026-03-29T13:05:12.836Z</time></trkpt><trkpt lat="43.3704822" lon="11.254737"><ele>272.66666666666663</ele><time>2026-03-29T13:05:13.838Z</time></trkpt><trkpt lat="43.370291" lon="11.2547175"><ele>274.0</ele><time>2026-03-29T13:05:14.837Z</time></trkpt><trkpt lat="43.370102" lon="11.2546813"><ele>274.0</ele><time>2026-03-29T13:05:15.832Z</time></trkpt><trkpt lat="43.3699102" lon="11.2546285"><ele>274.0</ele><time>2026-03-29T13:05:16.832Z</time></trkpt><trkpt lat="43.369727" lon="11.2545393"><ele>274.0</ele><time>2026-03-29T13:05:17.868Z</time></trkpt><trkpt lat="43.3695489" lon="11.2544413"><ele>277.66666666666663</ele><time>2026-03-29T13:05:18.879Z</time></trkpt><trkpt lat="43.369362" lon="11.2543564"><ele>281.3333333333333</ele><time>2026-03-29T13:05:19.884Z</time></trkpt><trkpt lat="43.3691872" lon="11.2542624"><ele>285.0</ele><time>2026-03-29T13:05:20.869Z</time></trkpt><trkpt lat="43.3690092" lon="11.2541727"><ele>286.0</ele><time>2026-03-29T13:05:21.824Z</time></trkpt><trkpt lat="43.3688143" lon="11.254105"><ele>287.0</ele><time>2026-03-29T13:05:22.872Z</time></trkpt><trkpt lat="43.3686249" lon="11.2540958"><ele>288.0</ele><time>2026-03-29T13:05:23.899Z</time></trkpt><trkpt lat="43.3684192" lon="11.2541193"><ele>288.0</ele><time>2026-03-29T13:05:24.878Z</time></trkpt><trkpt lat="43.3681948" lon="11.2541588"><ele>288.0</ele><time>2026-03-29T13:05:25.871Z</time></trkpt><trkpt lat="43.3679839" lon="11.2542069"><ele>288.0</ele><time>2026-03-29T13:05:26.839Z</time></trkpt><trkpt lat="43.3677942" lon="11.254233"><ele>288.3333333333333</ele><time>2026-03-29T13:05:27.827Z</time></trkpt><trkpt lat="43.3675954" lon="11.2542539"><ele>288.66666666666663</ele><time>2026-03-29T13:05:28.835Z</time></trkpt><trkpt lat="43.3674205" lon="11.2542578"><ele>289.0</ele><time>2026-03-29T13:05:29.843Z</time></trkpt><trkpt lat="43.3672528" lon="11.254263"><ele>289.66666666666663</ele><time>2026-03-29T13:05:30.831Z</time></trkpt><trkpt lat="43.3670812" lon="11.2542534"><ele>290.3333333333333</ele><time>2026-03-29T13:05:31.837Z</time></trkpt><trkpt lat="43.3669131" lon="11.2542271"><ele>291.0</ele><time>2026-03-29T13:05:32.832Z</time></trkpt><trkpt lat="43.366746" lon="11.2542022"><ele>291.0</ele><time>2026-03-29T13:05:33.876Z</time></trkpt><trkpt lat="43.3665896" lon="11.2541734"><ele>291.0</ele><time>2026-03-29T13:05:34.833Z</time></trkpt><trkpt lat="43.3664258" lon="11.2541488"><ele>291.0</ele><time>2026-03-29T13:05:35.839Z</time></trkpt><trkpt lat="43.3662591" lon="11.2541209"><ele>292.3333333333333</ele><time>2026-03-29T13:05:36.841Z</time></trkpt><trkpt lat="43.3661031" lon="11.2541026"><ele>293.66666666666663</ele><time>2026-03-29T13:05:37.854Z</time></trkpt><trkpt lat="43.3659444" lon="11.25409"><ele>295.0</ele><time>2026-03-29T13:05:38.867Z</time></trkpt><trkpt lat="43.3657791" lon="11.2540961"><ele>295.0</ele><time>2026-03-29T13:05:39.882Z</time></trkpt><trkpt lat="43.3656287" lon="11.2541194"><ele>295.0</ele><time>2026-03-29T13:05:40.872Z</time></trkpt><trkpt lat="43.3654672" lon="11.254165"><ele>295.0</ele><time>2026-03-29T13:05:41.823Z</time></trkpt><trkpt lat="43.3652987" lon="11.2542443"><ele>293.0</ele><time>2026-03-29T13:05:42.85Z</time></trkpt><trkpt lat="43.3651537" lon="11.2543574"><ele>291.0</ele><time>2026-03-29T13:05:43.843Z</time></trkpt><trkpt lat="43.3650029" lon="11.254507"><ele>289.0</ele><time>2026-03-29T13:05:44.849Z</time></trkpt><trkpt lat="43.364861" lon="11.2546632"><ele>287.66666666666663</ele><time>2026-03-29T13:05:45.832Z</time></trkpt><trkpt lat="43.3647153" lon="11.2548358"><ele>286.3333333333333</ele><time>2026-03-29T13:05:46.839Z</time></trkpt><trkpt lat="43.364576" lon="11.2549993"><ele>285.0</ele><time>2026-03-29T13:05:47.833Z</time></trkpt><trkpt lat="43.3644248" lon="11.2551471"><ele>285.0</ele><time>2026-03-29T13:05:48.824Z</time></trkpt><trkpt lat="43.3642719" lon="11.2552941"><ele>285.0</ele><time>2026-03-29T13:05:49.86Z</time></trkpt><trkpt lat="43.3641284" lon="11.255419"><ele>285.0</ele><time>2026-03-29T13:05:50.821Z</time></trkpt><trkpt lat="43.3639725" lon="11.2555264"><ele>283.3333333333333</ele><time>2026-03-29T13:05:51.847Z</time></trkpt><trkpt lat="43.3638242" lon="11.2555941"><ele>281.66666666666663</ele><time>2026-03-29T13:05:52.841Z</time></trkpt><trkpt lat="43.3636634" lon="11.2556213"><ele>280.0</ele><time>2026-03-29T13:05:53.849Z</time></trkpt><trkpt lat="43.3635026" lon="11.2556267"><ele>280.0</ele><time>2026-03-29T13:05:54.85Z</time></trkpt><trkpt lat="43.3633224" lon="11.2555698"><ele>280.0</ele><time>2026-03-29T13:05:55.832Z</time></trkpt><trkpt lat="43.3631538" lon="11.2554919"><ele>280.0</ele><time>2026-03-29T13:05:56.838Z</time></trkpt><trkpt lat="43.3629811" lon="11.2553776"><ele>279.25</ele><time>2026-03-29T13:05:57.833Z</time></trkpt><trkpt lat="43.3628322" lon="11.2553099"><ele>278.5</ele><time>2026-03-29T13:05:58.857Z</time></trkpt><trkpt lat="43.3627161" lon="11.2552907"><ele>277.75</ele><time>2026-03-29T13:05:59.836Z</time></trkpt><trkpt lat="43.3625968" lon="11.2553188"><ele>277.0</ele><time>2026-03-29T13:06:00.84Z</time></trkpt><trkpt lat="43.3624993" lon="11.2554021"><ele>277.0</ele><time>2026-03-29T13:06:01.879Z</time></trkpt><trkpt lat="43.3624015" lon="11.2555371"><ele>277.0</ele><time>2026-03-29T13:06:02.865Z</time></trkpt><trkpt lat="43.3622869" lon="11.2557313"><ele>277.0</ele><time>2026-03-29T13:06:03.832Z</time></trkpt><trkpt lat="43.3621685" lon="11.2560168"><ele>275.0</ele><time>2026-03-29T13:06:04.843Z</time></trkpt><trkpt lat="43.3620607" lon="11.2563078"><ele>273.0</ele><time>2026-03-29T13:06:05.841Z</time></trkpt><trkpt lat="43.3619625" lon="11.256579"><ele>272.6666666666667</ele><time>2026-03-29T13:06:06.838Z</time></trkpt><trkpt lat="43.3618728" lon="11.2568256"><ele>272.33333333333337</ele><time>2026-03-29T13:06:07.84Z</time></trkpt><trkpt lat="43.3617866" lon="11.2570597"><ele>272.0</ele><time>2026-03-29T13:06:08.84Z</time></trkpt><trkpt lat="43.3617047" lon="11.2572709"><ele>272.33333333333337</ele><time>2026-03-29T13:06:09.835Z</time></trkpt><trkpt lat="43.3616223" lon="11.2574586"><ele>272.6666666666667</ele><time>2026-03-29T13:06:10.833Z</time></trkpt><trkpt lat="43.361528" lon="11.257635"><ele>273.0</ele><time>2026-03-29T13:06:11.829Z</time></trkpt><trkpt lat="43.3614193" lon="11.2578046"><ele>272.6666666666667</ele><time>2026-03-29T13:06:12.848Z</time></trkpt><trkpt lat="43.3613" lon="11.2579679"><ele>272.33333333333337</ele><time>2026-03-29T13:06:13.833Z</time></trkpt><trkpt lat="43.3611663" lon="11.2581345"><ele>272.0</ele><time>2026-03-29T13:06:14.845Z</time></trkpt><trkpt lat="43.3610234" lon="11.2582949"><ele>272.6666666666667</ele><time>2026-03-29T13:06:15.829Z</time></trkpt><trkpt lat="43.3608747" lon="11.2584544"><ele>273.3333333333333</ele><time>2026-03-29T13:06:16.834Z</time></trkpt><trkpt lat="43.360732" lon="11.2586062"><ele>274.0</ele><time>2026-03-29T13:06:17.834Z</time></trkpt><trkpt lat="43.3605851" lon="11.2587613"><ele>273.66666666666663</ele><time>2026-03-29T13:06:18.842Z</time></trkpt><trkpt lat="43.360457" lon="11.258902"><ele>273.3333333333333</ele><time>2026-03-29T13:06:19.846Z</time></trkpt><trkpt lat="43.3603213" lon="11.2590147"><ele>273.0</ele><time>2026-03-29T13:06:20.841Z</time></trkpt><trkpt lat="43.3601676" lon="11.259103"><ele>272.0</ele><time>2026-03-29T13:06:21.844Z</time></trkpt><trkpt lat="43.359986" lon="11.2591594"><ele>271.0</ele><time>2026-03-29T13:06:22.882Z</time></trkpt><trkpt lat="43.3597884" lon="11.2591961"><ele>270.0</ele><time>2026-03-29T13:06:23.84Z</time></trkpt><trkpt lat="43.3595748" lon="11.2592494"><ele>270.0</ele><time>2026-03-29T13:06:24.87Z</time></trkpt><trkpt lat="43.359372" lon="11.2592875"><ele>270.0</ele><time>2026-03-29T13:06:25.828Z</time></trkpt><trkpt lat="43.3591967" lon="11.2594027"><ele>270.0</ele><time>2026-03-29T13:06:26.867Z</time></trkpt><trkpt lat="43.3590311" lon="11.2595416"><ele>270.0</ele><time>2026-03-29T13:06:27.853Z</time></trkpt><trkpt lat="43.3588729" lon="11.2596997"><ele>270.0</ele><time>2026-03-29T13:06:28.838Z</time></trkpt><trkpt lat="43.3587231" lon="11.2598696"><ele>270.0</ele><time>2026-03-29T13:06:29.866Z</time></trkpt><trkpt lat="43.3585863" lon="11.2600141"><ele>270.0</ele><time>2026-03-29T13:06:30.835Z</time></trkpt><trkpt lat="43.3584513" lon="11.260171"><ele>270.0</ele><time>2026-03-29T13:06:31.833Z</time></trkpt><trkpt lat="43.3583237" lon="11.2603351"><ele>270.0</ele><time>2026-03-29T13:06:32.833Z</time></trkpt><trkpt lat="43.3581858" lon="11.2605151"><ele>270.6666666666667</ele><time>2026-03-29T13:06:33.868Z</time></trkpt><trkpt lat="43.3580729" lon="11.2607093"><ele>271.33333333333337</ele><time>2026-03-29T13:06:34.853Z</time></trkpt><trkpt lat="43.3579726" lon="11.2609026"><ele>272.0</ele><time>2026-03-29T13:06:35.837Z</time></trkpt><trkpt lat="43.3578612" lon="11.2611007"><ele>271.6666666666667</ele><time>2026-03-29T13:06:36.85Z</time></trkpt><trkpt lat="43.357741" lon="11.2612795"><ele>271.3333333333333</ele><time>2026-03-29T13:06:37.836Z</time></trkpt><trkpt lat="43.3576048" lon="11.2614507"><ele>271.0</ele><time>2026-03-29T13:06:38.84Z</time></trkpt><trkpt lat="43.3574567" lon="11.2616093"><ele>271.0</ele><time>2026-03-29T13:06:39.821Z</time></trkpt><trkpt lat="43.3572982" lon="11.2617662"><ele>271.0</ele><time>2026-03-29T13:06:40.838Z</time></trkpt><trkpt lat="43.3571443" lon="11.2619124"><ele>271.0</ele><time>2026-03-29T13:06:41.829Z</time></trkpt><trkpt lat="43.3569897" lon="11.2620505"><ele>270.0</ele><time>2026-03-29T13:06:42.835Z</time></trkpt><trkpt lat="43.3568368" lon="11.2621733"><ele>269.0</ele><time>2026-03-29T13:06:43.861Z</time></trkpt><trkpt lat="43.3566744" lon="11.2622705"><ele>268.0</ele><time>2026-03-29T13:06:44.864Z</time></trkpt><trkpt lat="43.3565054" lon="11.2623427"><ele>269.3333333333333</ele><time>2026-03-29T13:06:45.852Z</time></trkpt><trkpt lat="43.3563235" lon="11.2623903"><ele>270.6666666666667</ele><time>2026-03-29T13:06:46.853Z</time></trkpt><trkpt lat="43.3561373" lon="11.2624223"><ele>272.0</ele><time>2026-03-29T13:06:47.827Z</time></trkpt><trkpt lat="43.3559469" lon="11.2624404"><ele>272.0</ele><time>2026-03-29T13:06:48.841Z</time></trkpt><trkpt lat="43.3557711" lon="11.2624431"><ele>272.0</ele><time>2026-03-29T13:06:49.841Z</time></trkpt><trkpt lat="43.3555998" lon="11.2624421"><ele>272.0</ele><time>2026-03-29T13:06:50.834Z</time></trkpt><trkpt lat="43.3554251" lon="11.2624562"><ele>272.0</ele><time>2026-03-29T13:06:51.83Z</time></trkpt><trkpt lat="43.3552597" lon="11.2624903"><ele>272.0</ele><time>2026-03-29T13:06:52.836Z</time></trkpt><trkpt lat="43.3550865" lon="11.2625485"><ele>272.0</ele><time>2026-03-29T13:06:53.854Z</time></trkpt><trkpt lat="43.3549317" lon="11.2626197"><ele>272.0</ele><time>2026-03-29T13:06:54.84Z</time></trkpt><trkpt lat="43.3547725" lon="11.262694"><ele>272.0</ele><time>2026-03-29T13:06:55.88Z</time></trkpt><trkpt lat="43.3546247" lon="11.2627653"><ele>272.0</ele><time>2026-03-29T13:06:56.834Z</time></trkpt><trkpt lat="43.3544748" lon="11.2628478"><ele>271.0</ele><time>2026-03-29T13:06:57.862Z</time></trkpt><trkpt lat="43.354332" lon="11.2629427"><ele>270.0</ele><time>2026-03-29T13:06:58.84Z</time></trkpt><trkpt lat="43.3541892" lon="11.2630536"><ele>269.0</ele><time>2026-03-29T13:06:59.848Z</time></trkpt><trkpt lat="43.3540535" lon="11.2631572"><ele>269.5</ele><time>2026-03-29T13:07:00.841Z</time></trkpt><trkpt lat="43.353922" lon="11.2632581"><ele>270.0</ele><time>2026-03-29T13:07:01.843Z</time></trkpt><trkpt lat="43.353794" lon="11.2633425"><ele>270.5</ele><time>2026-03-29T13:07:02.845Z</time></trkpt><trkpt lat="43.3536721" lon="11.2634283"><ele>271.0</ele><time>2026-03-29T13:07:03.836Z</time></trkpt><trkpt lat="43.3535482" lon="11.2635216"><ele>271.0</ele><time>2026-03-29T13:07:04.852Z</time></trkpt><trkpt lat="43.353428" lon="11.2636381"><ele>271.0</ele><time>2026-03-29T13:07:05.845Z</time></trkpt><trkpt lat="43.3533241" lon="11.2637797"><ele>271.0</ele><time>2026-03-29T13:07:06.871Z</time></trkpt><trkpt lat="43.3532445" lon="11.2639282"><ele>271.0</ele><time>2026-03-29T13:07:07.829Z</time></trkpt><trkpt lat="43.3531779" lon="11.2641001"><ele>270.5</ele><time>2026-03-29T13:07:08.841Z</time></trkpt><trkpt lat="43.3531139" lon="11.264288"><ele>270.0</ele><time>2026-03-29T13:07:09.86Z</time></trkpt><trkpt lat="43.3530634" lon="11.2644525"><ele>269.5</ele><time>2026-03-29T13:07:10.838Z</time></trkpt><trkpt lat="43.3530142" lon="11.2646035"><ele>269.0</ele><time>2026-03-29T13:07:11.831Z</time></trkpt><trkpt lat="43.3529599" lon="11.2647167"><ele>269.6666666666667</ele><time>2026-03-29T13:07:12.834Z</time></trkpt><trkpt lat="43.3529097" lon="11.2648142"><ele>270.33333333333337</ele><time>2026-03-29T13:07:13.847Z</time></trkpt><trkpt lat="43.3528639" lon="11.2649076"><ele>271.0</ele><time>2026-03-29T13:07:14.835Z</time></trkpt><trkpt lat="43.3528307" lon="11.2649857"><ele>271.6666666666667</ele><time>2026-03-29T13:07:15.834Z</time></trkpt><trkpt lat="43.3528017" lon="11.2650724"><ele>272.3333333333333</ele><time>2026-03-29T13:07:16.851Z</time></trkpt><trkpt lat="43.3527586" lon="11.2651676"><ele>273.0</ele><time>2026-03-29T13:07:17.84Z</time></trkpt><trkpt lat="43.3527185" lon="11.2652778"><ele>273.0</ele><time>2026-03-29T13:07:18.838Z</time></trkpt><trkpt lat="43.3526785" lon="11.2654317"><ele>273.0</ele><time>2026-03-29T13:07:19.839Z</time></trkpt><trkpt lat="43.3526385" lon="11.2656058"><ele>273.0</ele><time>2026-03-29T13:07:20.824Z</time></trkpt><trkpt lat="43.3526012" lon="11.2657956"><ele>273.0</ele><time>2026-03-29T13:07:21.837Z</time></trkpt><trkpt lat="43.3525528" lon="11.2659971"><ele>274.0</ele><time>2026-03-29T13:07:22.837Z</time></trkpt><trkpt lat="43.3525027" lon="11.2662336"><ele>275.0</ele><time>2026-03-29T13:07:23.867Z</time></trkpt><trkpt lat="43.3524419" lon="11.2664819"><ele>276.0</ele><time>2026-03-29T13:07:24.837Z</time></trkpt><trkpt lat="43.3523733" lon="11.266754"><ele>276.0</ele><time>2026-03-29T13:07:25.832Z</time></trkpt><trkpt lat="43.3522956" lon="11.2670395"><ele>276.0</ele><time>2026-03-29T13:07:26.849Z</time></trkpt><trkpt lat="43.3522139" lon="11.2673088"><ele>276.0</ele><time>2026-03-29T13:07:27.836Z</time></trkpt><trkpt lat="43.3521305" lon="11.2675724"><ele>275.3333333333333</ele><time>2026-03-29T13:07:28.853Z</time></trkpt><trkpt lat="43.3520517" lon="11.2678141"><ele>274.66666666666663</ele><time>2026-03-29T13:07:29.831Z</time></trkpt><trkpt lat="43.3519789" lon="11.2680505"><ele>274.0</ele><time>2026-03-29T13:07:30.848Z</time></trkpt><trkpt lat="43.3519197" lon="11.2682718"><ele>275.3333333333333</ele><time>2026-03-29T13:07:31.851Z</time></trkpt><trkpt lat="43.3518769" lon="11.2684937"><ele>276.6666666666667</ele><time>2026-03-29T13:07:32.835Z</time></trkpt><trkpt lat="43.3518568" lon="11.2687331"><ele>278.0</ele><time>2026-03-29T13:07:33.845Z</time></trkpt><trkpt lat="43.3518684" lon="11.268979"><ele>279.0</ele><time>2026-03-29T13:07:34.873Z</time></trkpt><trkpt lat="43.35191" lon="11.269218"><ele>280.0</ele><time>2026-03-29T13:07:35.875Z</time></trkpt><trkpt lat="43.3519709" lon="11.2694506"><ele>281.0</ele><time>2026-03-29T13:07:36.869Z</time></trkpt><trkpt lat="43.3520377" lon="11.2696703"><ele>282.0</ele><time>2026-03-29T13:07:37.872Z</time></trkpt><trkpt lat="43.352087" lon="11.2698815"><ele>283.0</ele><time>2026-03-29T13:07:38.874Z</time></trkpt><trkpt lat="43.3521237" lon="11.2700669"><ele>284.0</ele><time>2026-03-29T13:07:39.87Z</time></trkpt><trkpt lat="43.3521222" lon="11.2702149"><ele>285.0</ele><time>2026-03-29T13:07:40.864Z</time></trkpt><trkpt lat="43.3520352" lon="11.2703177"><ele>285.0</ele><time>2026-03-29T13:07:41.827Z</time></trkpt><trkpt lat="43.3519316" lon="11.2704291"><ele>285.0</ele><time>2026-03-29T13:07:42.839Z</time></trkpt><trkpt lat="43.3517692" lon="11.2705034"><ele>285.0</ele><time>2026-03-29T13:07:43.834Z</time></trkpt><trkpt lat="43.3515689" lon="11.2705821"><ele>285.5</ele><time>2026-03-29T13:07:44.852Z</time></trkpt><trkpt lat="43.3513569" lon="11.2705984"><ele>286.0</ele><time>2026-03-29T13:07:45.862Z</time></trkpt><trkpt lat="43.3511045" lon="11.2705203"><ele>286.0</ele><time>2026-03-29T13:07:46.847Z</time></trkpt><trkpt lat="43.3508124" lon="11.2704199"><ele>286.0</ele><time>2026-03-29T13:07:47.839Z</time></trkpt><trkpt lat="43.350524" lon="11.2703393"><ele>287.66666666666663</ele><time>2026-03-29T13:07:48.838Z</time></trkpt><trkpt lat="43.3503036" lon="11.2703216"><ele>289.3333333333333</ele><time>2026-03-29T13:07:49.85Z</time></trkpt><trkpt lat="43.3501293" lon="11.2703291"><ele>291.0</ele><time>2026-03-29T13:07:50.85Z</time></trkpt><trkpt lat="43.3499826" lon="11.270329"><ele>291.0</ele><time>2026-03-29T13:07:51.836Z</time></trkpt><trkpt lat="43.3498404" lon="11.2702957"><ele>291.0</ele><time>2026-03-29T13:07:52.832Z</time></trkpt><trkpt lat="43.3497149" lon="11.2702368"><ele>291.0</ele><time>2026-03-29T13:07:53.837Z</time></trkpt><trkpt lat="43.3496098" lon="11.2701562"><ele>291.0</ele><time>2026-03-29T13:07:54.836Z</time></trkpt><trkpt lat="43.3495229" lon="11.2700686"><ele>291.6</ele><time>2026-03-29T13:07:55.841Z</time></trkpt><trkpt lat="43.3494221" lon="11.27003"><ele>292.20000000000005</ele><time>2026-03-29T13:07:56.843Z</time></trkpt><trkpt lat="43.3493244" lon="11.2700205"><ele>292.79999999999995</ele><time>2026-03-29T13:07:57.884Z</time></trkpt><trkpt lat="43.349243" lon="11.2700787"><ele>293.4</ele><time>2026-03-29T13:07:58.847Z</time></trkpt><trkpt lat="43.3491875" lon="11.270197"><ele>294.0</ele><time>2026-03-29T13:07:59.893Z</time></trkpt><trkpt lat="43.3491498" lon="11.2703374"><ele>294.0</ele><time>2026-03-29T13:08:00.865Z</time></trkpt><trkpt lat="43.3491458" lon="11.2705319"><ele>294.0</ele><time>2026-03-29T13:08:01.882Z</time></trkpt><trkpt lat="43.3491583" lon="11.2707427"><ele>294.0</ele><time>2026-03-29T13:08:02.89Z</time></trkpt><trkpt lat="43.3491936" lon="11.2709796"><ele>295.3333333333333</ele><time>2026-03-29T13:08:03.841Z</time></trkpt><trkpt lat="43.3491983" lon="11.2711938"><ele>296.66666666666663</ele><time>2026-03-29T13:08:04.837Z</time></trkpt><trkpt lat="43.3491779" lon="11.2714116"><ele>298.0</ele><time>2026-03-29T13:08:05.839Z</time></trkpt><trkpt lat="43.3491586" lon="11.2716276"><ele>299.66666666666663</ele><time>2026-03-29T13:08:06.836Z</time></trkpt><trkpt lat="43.3490811" lon="11.2718609"><ele>301.3333333333333</ele><time>2026-03-29T13:08:07.876Z</time></trkpt><trkpt lat="43.3489722" lon="11.2721179"><ele>303.0</ele><time>2026-03-29T13:08:08.872Z</time></trkpt><trkpt lat="43.3488685" lon="11.2724341"><ele>304.5</ele><time>2026-03-29T13:08:10.188Z</time></trkpt><trkpt lat="43.3487142" lon="11.2728133"><ele>306.0</ele><time>2026-03-29T13:08:11.898Z</time></trkpt><trkpt lat="43.3486258" lon="11.2729608"><ele>306.0</ele><time>2026-03-29T13:08:12.887Z</time></trkpt><trkpt lat="43.3485119" lon="11.2730686"><ele>306.0</ele><time>2026-03-29T13:08:13.895Z</time></trkpt><trkpt lat="43.3483746" lon="11.2731387"><ele>306.0</ele><time>2026-03-29T13:08:14.887Z</time></trkpt><trkpt lat="43.3482581" lon="11.2732199"><ele>306.0</ele><time>2026-03-29T13:08:15.844Z</time></trkpt><trkpt lat="43.3481342" lon="11.2732903"><ele>307.0</ele><time>2026-03-29T13:08:16.845Z</time></trkpt><trkpt lat="43.3480091" lon="11.2733664"><ele>308.0</ele><time>2026-03-29T13:08:17.88Z</time></trkpt><trkpt lat="43.3479187" lon="11.2734743"><ele>309.0</ele><time>2026-03-29T13:08:18.829Z</time></trkpt><trkpt lat="43.3478818" lon="11.2736141"><ele>310.0</ele><time>2026-03-29T13:08:19.837Z</time></trkpt><trkpt lat="43.3479066" lon="11.2737625"><ele>310.0</ele><time>2026-03-29T13:08:20.837Z</time></trkpt><trkpt lat="43.3480326" lon="11.2739203"><ele>310.0</ele><time>2026-03-29T13:08:21.88Z</time></trkpt><trkpt lat="43.3481239" lon="11.2740888"><ele>310.0</ele><time>2026-03-29T13:08:22.843Z</time></trkpt><trkpt lat="43.3483369" lon="11.2742966"><ele>312.0</ele><time>2026-03-29T13:08:23.857Z</time></trkpt><trkpt lat="43.3485334" lon="11.2744883"><ele>314.0</ele><time>2026-03-29T13:08:24.843Z</time></trkpt><trkpt lat="43.348723" lon="11.2746759"><ele>314.33333333333337</ele><time>2026-03-29T13:08:25.848Z</time></trkpt><trkpt lat="43.3488571" lon="11.2748476"><ele>314.6666666666667</ele><time>2026-03-29T13:08:26.84Z</time></trkpt><trkpt lat="43.3489418" lon="11.2750136"><ele>315.0</ele><time>2026-03-29T13:08:27.846Z</time></trkpt><trkpt lat="43.3489737" lon="11.2751835"><ele>315.6</ele><time>2026-03-29T13:08:28.863Z</time></trkpt><trkpt lat="43.3489645" lon="11.2753153"><ele>316.2</ele><time>2026-03-29T13:08:29.888Z</time></trkpt><trkpt lat="43.3489276" lon="11.2754759"><ele>316.8</ele><time>2026-03-29T13:08:31.84Z</time></trkpt><trkpt lat="43.3488774" lon="11.2755985"><ele>317.4</ele><time>2026-03-29T13:08:33.849Z</time></trkpt><trkpt lat="43.3488103" lon="11.2757197"><ele>318.0</ele><time>2026-03-29T13:08:35.847Z</time></trkpt><trkpt lat="43.3487935" lon="11.2758083"><ele>318.0</ele><time>2026-03-29T13:08:36.847Z</time></trkpt><trkpt lat="43.3487757" lon="11.2759008"><ele>318.0</ele><time>2026-03-29T13:08:37.854Z</time></trkpt><trkpt lat="43.3487682" lon="11.2760027"><ele>318.0</ele><time>2026-03-29T13:08:38.824Z</time></trkpt><trkpt lat="43.3487579" lon="11.2760931"><ele>318.0</ele><time>2026-03-29T13:08:39.853Z</time></trkpt><trkpt lat="43.3487394" lon="11.276187"><ele>318.0</ele><time>2026-03-29T13:08:40.842Z</time></trkpt><trkpt lat="43.348715" lon="11.2762876"><ele>318.0</ele><time>2026-03-29T13:08:41.836Z</time></trkpt><trkpt lat="43.3486757" lon="11.2764039"><ele>318.75</ele><time>2026-03-29T13:08:42.847Z</time></trkpt><trkpt lat="43.3486212" lon="11.2765234"><ele>319.5</ele><time>2026-03-29T13:08:43.855Z</time></trkpt><trkpt lat="43.3485554" lon="11.2766432"><ele>320.25</ele><time>2026-03-29T13:08:44.853Z</time></trkpt><trkpt lat="43.3484804" lon="11.2767764"><ele>321.0</ele><time>2026-03-29T13:08:45.841Z</time></trkpt><trkpt lat="43.3484002" lon="11.2769158"><ele>321.0</ele><time>2026-03-29T13:08:46.853Z</time></trkpt><trkpt lat="43.3483094" lon="11.2770658"><ele>321.0</ele><time>2026-03-29T13:08:47.833Z</time></trkpt><trkpt lat="43.3481983" lon="11.2772428"><ele>321.0</ele><time>2026-03-29T13:08:48.854Z</time></trkpt><trkpt lat="43.3481038" lon="11.2774096"><ele>322.6666666666667</ele><time>2026-03-29T13:08:49.834Z</time></trkpt><trkpt lat="43.3480058" lon="11.2775844"><ele>324.33333333333337</ele><time>2026-03-29T13:08:50.841Z</time></trkpt><trkpt lat="43.3479096" lon="11.2777551"><ele>326.0</ele><time>2026-03-29T13:08:51.844Z</time></trkpt><trkpt lat="43.3477917" lon="11.277926"><ele>326.0</ele><time>2026-03-29T13:08:52.84Z</time></trkpt><trkpt lat="43.3476809" lon="11.2780988"><ele>326.0</ele><time>2026-03-29T13:08:53.847Z</time></trkpt><trkpt lat="43.3475674" lon="11.2782575"><ele>326.0</ele><time>2026-03-29T13:08:54.837Z</time></trkpt><trkpt lat="43.3474453" lon="11.2784219"><ele>327.33333333333337</ele><time>2026-03-29T13:08:55.838Z</time></trkpt><trkpt lat="43.3473383" lon="11.2785767"><ele>328.6666666666667</ele><time>2026-03-29T13:08:56.853Z</time></trkpt><trkpt lat="43.3472382" lon="11.2787237"><ele>330.0</ele><time>2026-03-29T13:08:57.843Z</time></trkpt><trkpt lat="43.3471328" lon="11.2788678"><ele>331.5</ele><time>2026-03-29T13:08:58.873Z</time></trkpt><trkpt lat="43.3470354" lon="11.2790022"><ele>333.0</ele><time>2026-03-29T13:08:59.844Z</time></trkpt><trkpt lat="43.3469398" lon="11.2791534"><ele>334.5</ele><time>2026-03-29T13:09:00.845Z</time></trkpt><trkpt lat="43.3468381" lon="11.2792953"><ele>336.0</ele><time>2026-03-29T13:09:01.832Z</time></trkpt><trkpt lat="43.3467331" lon="11.2794309"><ele>336.0</ele><time>2026-03-29T13:09:02.842Z</time></trkpt><trkpt lat="43.3466098" lon="11.279558"><ele>336.0</ele><time>2026-03-29T13:09:03.85Z</time></trkpt><trkpt lat="43.3464656" lon="11.2796689"><ele>336.0</ele><time>2026-03-29T13:09:04.838Z</time></trkpt><trkpt lat="43.3463163" lon="11.2797744"><ele>338.25</ele><time>2026-03-29T13:09:05.846Z</time></trkpt><trkpt lat="43.3461832" lon="11.2798566"><ele>340.5</ele><time>2026-03-29T13:09:06.848Z</time></trkpt><trkpt lat="43.3460508" lon="11.2799096"><ele>342.75</ele><time>2026-03-29T13:09:07.846Z</time></trkpt><trkpt lat="43.3459089" lon="11.2799207"><ele>345.0</ele><time>2026-03-29T13:09:08.838Z</time></trkpt><trkpt lat="43.3457637" lon="11.2799108"><ele>345.0</ele><time>2026-03-29T13:09:09.841Z</time></trkpt><trkpt lat="43.3456178" lon="11.2799143"><ele>345.0</ele><time>2026-03-29T13:09:10.878Z</time></trkpt><trkpt lat="43.3454798" lon="11.2799392"><ele>345.0</ele><time>2026-03-29T13:09:11.834Z</time></trkpt><trkpt lat="43.3453316" lon="11.2799871"><ele>345.0</ele><time>2026-03-29T13:09:12.848Z</time></trkpt><trkpt lat="43.3452132" lon="11.2800677"><ele>344.0</ele><time>2026-03-29T13:09:13.835Z</time></trkpt><trkpt lat="43.3450879" lon="11.2801874"><ele>343.0</ele><time>2026-03-29T13:09:14.841Z</time></trkpt><trkpt lat="43.3449544" lon="11.2803631"><ele>342.0</ele><time>2026-03-29T13:09:15.848Z</time></trkpt><trkpt lat="43.3448119" lon="11.2805399"><ele>340.6666666666667</ele><time>2026-03-29T13:09:16.836Z</time></trkpt><trkpt lat="43.3446549" lon="11.2807046"><ele>339.33333333333337</ele><time>2026-03-29T13:09:17.871Z</time></trkpt><trkpt lat="43.3445006" lon="11.2808054"><ele>338.0</ele><time>2026-03-29T13:09:18.84Z</time></trkpt><trkpt lat="43.3443405" lon="11.2809023"><ele>338.0</ele><time>2026-03-29T13:09:19.831Z</time></trkpt><trkpt lat="43.3441778" lon="11.2810062"><ele>338.0</ele><time>2026-03-29T13:09:20.837Z</time></trkpt><trkpt lat="43.3440252" lon="11.2811138"><ele>338.0</ele><time>2026-03-29T13:09:21.844Z</time></trkpt><trkpt lat="43.3438964" lon="11.28123"><ele>338.33333333333337</ele><time>2026-03-29T13:09:22.848Z</time></trkpt><trkpt lat="43.3437728" lon="11.2813664"><ele>338.6666666666667</ele><time>2026-03-29T13:09:23.838Z</time></trkpt><trkpt lat="43.3436732" lon="11.2815207"><ele>339.0</ele><time>2026-03-29T13:09:24.823Z</time></trkpt><trkpt lat="43.343596" lon="11.2817147"><ele>339.0</ele><time>2026-03-29T13:09:25.852Z</time></trkpt><trkpt lat="43.3435331" lon="11.2819287"><ele>339.0</ele><time>2026-03-29T13:09:26.837Z</time></trkpt><trkpt lat="43.3434707" lon="11.2821691"><ele>339.0</ele><time>2026-03-29T13:09:27.829Z</time></trkpt><trkpt lat="43.3434454" lon="11.2823998"><ele>339.0</ele><time>2026-03-29T13:09:28.843Z</time></trkpt><trkpt lat="43.3434525" lon="11.2826279"><ele>339.0</ele><time>2026-03-29T13:09:29.848Z</time></trkpt><trkpt lat="43.3435286" lon="11.2828315"><ele>339.0</ele><time>2026-03-29T13:09:30.841Z</time></trkpt><trkpt lat="43.343615" lon="11.2830458"><ele>338.3333333333333</ele><time>2026-03-29T13:09:31.854Z</time></trkpt><trkpt lat="43.3437123" lon="11.2832352"><ele>337.66666666666663</ele><time>2026-03-29T13:09:32.839Z</time></trkpt><trkpt lat="43.3437951" lon="11.283398"><ele>337.0</ele><time>2026-03-29T13:09:33.834Z</time></trkpt><trkpt lat="43.3438766" lon="11.2835533"><ele>337.75</ele><time>2026-03-29T13:09:34.842Z</time></trkpt><trkpt lat="43.3439311" lon="11.2836947"><ele>338.5</ele><time>2026-03-29T13:09:35.835Z</time></trkpt><trkpt lat="43.3439919" lon="11.2838368"><ele>339.25</ele><time>2026-03-29T13:09:36.845Z</time></trkpt><trkpt lat="43.3440382" lon="11.2839752"><ele>340.0</ele><time>2026-03-29T13:09:37.839Z</time></trkpt><trkpt lat="43.3440792" lon="11.2841219"><ele>340.0</ele><time>2026-03-29T13:09:38.837Z</time></trkpt><trkpt lat="43.3441177" lon="11.2842845"><ele>340.0</ele><time>2026-03-29T13:09:39.837Z</time></trkpt><trkpt lat="43.3441465" lon="11.2844601"><ele>340.0</ele><time>2026-03-29T13:09:40.865Z</time></trkpt><trkpt lat="43.3441703" lon="11.2846387"><ele>340.0</ele><time>2026-03-29T13:09:41.849Z</time></trkpt><trkpt lat="43.3441735" lon="11.284811"><ele>340.25</ele><time>2026-03-29T13:09:42.856Z</time></trkpt><trkpt lat="43.3441603" lon="11.284982"><ele>340.5</ele><time>2026-03-29T13:09:43.844Z</time></trkpt><trkpt lat="43.3441288" lon="11.2851459"><ele>340.75</ele><time>2026-03-29T13:09:44.866Z</time></trkpt><trkpt lat="43.3440942" lon="11.2852833"><ele>341.0</ele><time>2026-03-29T13:09:45.834Z</time></trkpt><trkpt lat="43.3440586" lon="11.2854096"><ele>341.0</ele><time>2026-03-29T13:09:46.841Z</time></trkpt><trkpt lat="43.3440096" lon="11.2855267"><ele>341.0</ele><time>2026-03-29T13:09:47.841Z</time></trkpt><trkpt lat="43.3439716" lon="11.2856219"><ele>341.0</ele><time>2026-03-29T13:09:48.842Z</time></trkpt><trkpt lat="43.3439334" lon="11.2857113"><ele>341.0</ele><time>2026-03-29T13:09:49.832Z</time></trkpt><trkpt lat="43.3438943" lon="11.2858023"><ele>341.0</ele><time>2026-03-29T13:09:50.845Z</time></trkpt><trkpt lat="43.3438754" lon="11.2858883"><ele>341.0</ele><time>2026-03-29T13:09:51.842Z</time></trkpt><trkpt lat="43.3438818" lon="11.2859813"><ele>341.4</ele><time>2026-03-29T13:09:52.848Z</time></trkpt><trkpt lat="43.34391" lon="11.28609"><ele>341.8</ele><time>2026-03-29T13:09:53.849Z</time></trkpt><trkpt lat="43.3439542" lon="11.2862166"><ele>342.2</ele><time>2026-03-29T13:09:54.835Z</time></trkpt><trkpt lat="43.3439954" lon="11.2863644"><ele>342.59999999999997</ele><time>2026-03-29T13:09:55.852Z</time></trkpt><trkpt lat="43.3440332" lon="11.2865223"><ele>343.0</ele><time>2026-03-29T13:09:56.835Z</time></trkpt><trkpt lat="43.3440621" lon="11.2866839"><ele>345.0</ele><time>2026-03-29T13:09:57.85Z</time></trkpt><trkpt lat="43.3440561" lon="11.2868767"><ele>347.0</ele><time>2026-03-29T13:09:58.853Z</time></trkpt><trkpt lat="43.3440357" lon="11.2870836"><ele>349.0</ele><time>2026-03-29T13:09:59.84Z</time></trkpt><trkpt lat="43.3439611" lon="11.2873246"><ele>346.66666666666663</ele><time>2026-03-29T13:10:00.891Z</time></trkpt><trkpt lat="43.3438991" lon="11.2875706"><ele>344.3333333333333</ele><time>2026-03-29T13:10:01.832Z</time></trkpt><trkpt lat="43.3438731" lon="11.2878273"><ele>342.0</ele><time>2026-03-29T13:10:02.887Z</time></trkpt><trkpt lat="43.3438692" lon="11.2880331"><ele>346.6666666666667</ele><time>2026-03-29T13:10:03.832Z</time></trkpt><trkpt lat="43.3439048" lon="11.2882481"><ele>351.33333333333337</ele><time>2026-03-29T13:10:04.844Z</time></trkpt><trkpt lat="43.3439647" lon="11.2884512"><ele>356.0</ele><time>2026-03-29T13:10:05.842Z</time></trkpt><trkpt lat="43.344026" lon="11.2886669"><ele>356.0</ele><time>2026-03-29T13:10:06.845Z</time></trkpt><trkpt lat="43.3440862" lon="11.2888611"><ele>356.0</ele><time>2026-03-29T13:10:07.835Z</time></trkpt><trkpt lat="43.3441491" lon="11.2890513"><ele>356.0</ele><time>2026-03-29T13:10:08.845Z</time></trkpt><trkpt lat="43.3442135" lon="11.2892456"><ele>356.0</ele><time>2026-03-29T13:10:09.835Z</time></trkpt><trkpt lat="43.3442749" lon="11.2894528"><ele>356.0</ele><time>2026-03-29T13:10:10.859Z</time></trkpt><trkpt lat="43.3443292" lon="11.289646"><ele>356.0</ele><time>2026-03-29T13:10:11.834Z</time></trkpt><trkpt lat="43.3443977" lon="11.2898523"><ele>357.0</ele><time>2026-03-29T13:10:12.876Z</time></trkpt><trkpt lat="43.3444614" lon="11.2900384"><ele>358.0</ele><time>2026-03-29T13:10:13.878Z</time></trkpt><trkpt lat="43.3445172" lon="11.2902149"><ele>359.0</ele><time>2026-03-29T13:10:14.869Z</time></trkpt><trkpt lat="43.3445716" lon="11.2903889"><ele>360.0</ele><time>2026-03-29T13:10:15.844Z</time></trkpt><trkpt lat="43.3446281" lon="11.2905657"><ele>359.25</ele><time>2026-03-29T13:10:16.846Z</time></trkpt><trkpt lat="43.3446825" lon="11.2907374"><ele>358.5</ele><time>2026-03-29T13:10:17.848Z</time></trkpt><trkpt lat="43.3447265" lon="11.2909167"><ele>357.75</ele><time>2026-03-29T13:10:18.836Z</time></trkpt><trkpt lat="43.3447757" lon="11.2911093"><ele>357.0</ele><time>2026-03-29T13:10:19.84Z</time></trkpt><trkpt lat="43.3448265" lon="11.2913066"><ele>359.6666666666667</ele><time>2026-03-29T13:10:20.841Z</time></trkpt><trkpt lat="43.3448849" lon="11.2915117"><ele>362.33333333333337</ele><time>2026-03-29T13:10:21.846Z</time></trkpt><trkpt lat="43.3449429" lon="11.2917155"><ele>365.0</ele><time>2026-03-29T13:10:22.845Z</time></trkpt><trkpt lat="43.3449984" lon="11.2919224"><ele>365.0</ele><time>2026-03-29T13:10:23.857Z</time></trkpt><trkpt lat="43.3450525" lon="11.2921335"><ele>365.0</ele><time>2026-03-29T13:10:24.876Z</time></trkpt><trkpt lat="43.3451069" lon="11.2923331"><ele>365.0</ele><time>2026-03-29T13:10:25.849Z</time></trkpt><trkpt lat="43.3451655" lon="11.2925274"><ele>366.75</ele><time>2026-03-29T13:10:26.855Z</time></trkpt><trkpt lat="43.3452294" lon="11.2927214"><ele>368.5</ele><time>2026-03-29T13:10:27.872Z</time></trkpt><trkpt lat="43.3452818" lon="11.2929078"><ele>370.25</ele><time>2026-03-29T13:10:28.833Z</time></trkpt><trkpt lat="43.345334" lon="11.2930945"><ele>372.0</ele><time>2026-03-29T13:10:29.883Z</time></trkpt><trkpt lat="43.3453734" lon="11.2932858"><ele>372.25</ele><time>2026-03-29T13:10:30.892Z</time></trkpt><trkpt lat="43.3454152" lon="11.2934727"><ele>372.5</ele><time>2026-03-29T13:10:31.884Z</time></trkpt><trkpt lat="43.3454438" lon="11.2936712"><ele>372.75</ele><time>2026-03-29T13:10:32.864Z</time></trkpt><trkpt lat="43.3454684" lon="11.2938721"><ele>373.0</ele><time>2026-03-29T13:10:33.834Z</time></trkpt><trkpt lat="43.3454858" lon="11.2940823"><ele>369.66666666666663</ele><time>2026-03-29T13:10:34.838Z</time></trkpt><trkpt lat="43.3454989" lon="11.2942926"><ele>366.3333333333333</ele><time>2026-03-29T13:10:35.843Z</time></trkpt><trkpt lat="43.3455141" lon="11.2945164"><ele>363.0</ele><time>2026-03-29T13:10:36.835Z</time></trkpt><trkpt lat="43.3455196" lon="11.2947392"><ele>361.3333333333333</ele><time>2026-03-29T13:10:37.85Z</time></trkpt><trkpt lat="43.3455136" lon="11.2949621"><ele>359.66666666666663</ele><time>2026-03-29T13:10:38.877Z</time></trkpt><trkpt lat="43.3454636" lon="11.2951929"><ele>358.0</ele><time>2026-03-29T13:10:39.853Z</time></trkpt><trkpt lat="43.34541" lon="11.2954201"><ele>359.0</ele><time>2026-03-29T13:10:40.846Z</time></trkpt><trkpt lat="43.3453395" lon="11.2956426"><ele>360.0</ele><time>2026-03-29T13:10:41.899Z</time></trkpt><trkpt lat="43.3452823" lon="11.2958242"><ele>361.0</ele><time>2026-03-29T13:10:42.851Z</time></trkpt><trkpt lat="43.3452289" lon="11.2960027"><ele>361.0</ele><time>2026-03-29T13:10:43.848Z</time></trkpt><trkpt lat="43.3451875" lon="11.2961787"><ele>361.0</ele><time>2026-03-29T13:10:44.851Z</time></trkpt><trkpt lat="43.3451568" lon="11.296351"><ele>361.0</ele><time>2026-03-29T13:10:45.845Z</time></trkpt><trkpt lat="43.3451299" lon="11.2965175"><ele>361.0</ele><time>2026-03-29T13:10:46.837Z</time></trkpt><trkpt lat="43.3450982" lon="11.2966846"><ele>362.5</ele><time>2026-03-29T13:10:47.848Z</time></trkpt><trkpt lat="43.3450637" lon="11.2968514"><ele>364.0</ele><time>2026-03-29T13:10:48.836Z</time></trkpt><trkpt lat="43.3450365" lon="11.297017"><ele>365.5</ele><time>2026-03-29T13:10:49.835Z</time></trkpt><trkpt lat="43.3450071" lon="11.2971765"><ele>367.0</ele><time>2026-03-29T13:10:50.835Z</time></trkpt><trkpt lat="43.3449865" lon="11.2973252"><ele>367.0</ele><time>2026-03-29T13:10:51.833Z</time></trkpt><trkpt lat="43.3449681" lon="11.2974726"><ele>367.0</ele><time>2026-03-29T13:10:52.861Z</time></trkpt><trkpt lat="43.3449399" lon="11.2976267"><ele>367.0</ele><time>2026-03-29T13:10:53.906Z</time></trkpt><trkpt lat="43.3449148" lon="11.2977695"><ele>367.0</ele><time>2026-03-29T13:10:54.848Z</time></trkpt><trkpt lat="43.3448784" lon="11.2979103"><ele>367.0</ele><time>2026-03-29T13:10:55.855Z</time></trkpt><trkpt lat="43.3448451" lon="11.2980237"><ele>365.6</ele><time>2026-03-29T13:10:56.88Z</time></trkpt><trkpt lat="43.3447716" lon="11.2981771"><ele>364.20000000000005</ele><time>2026-03-29T13:10:58.84Z</time></trkpt><trkpt lat="43.3447043" lon="11.2982359"><ele>362.8</ele><time>2026-03-29T13:10:59.842Z</time></trkpt><trkpt lat="43.344635" lon="11.298297"><ele>361.4</ele><time>2026-03-29T13:11:00.838Z</time></trkpt><trkpt lat="43.3445787" lon="11.298369"><ele>360.0</ele><time>2026-03-29T13:11:01.842Z</time></trkpt><trkpt lat="43.3445385" lon="11.2984596"><ele>360.0</ele><time>2026-03-29T13:11:02.864Z</time></trkpt><trkpt lat="43.3445209" lon="11.2985648"><ele>360.0</ele><time>2026-03-29T13:11:03.847Z</time></trkpt><trkpt lat="43.3445164" lon="11.298679"><ele>360.0</ele><time>2026-03-29T13:11:04.856Z</time></trkpt><trkpt lat="43.3445191" lon="11.2988161"><ele>360.0</ele><time>2026-03-29T13:11:05.844Z</time></trkpt><trkpt lat="43.3445351" lon="11.2989736"><ele>360.0</ele><time>2026-03-29T13:11:06.853Z</time></trkpt><trkpt lat="43.344545" lon="11.2991506"><ele>359.0</ele><time>2026-03-29T13:11:07.842Z</time></trkpt><trkpt lat="43.3445564" lon="11.2993318"><ele>358.0</ele><time>2026-03-29T13:11:08.846Z</time></trkpt><trkpt lat="43.3445652" lon="11.2995234"><ele>357.0</ele><time>2026-03-29T13:11:09.871Z</time></trkpt><trkpt lat="43.3445708" lon="11.2996969"><ele>356.0</ele><time>2026-03-29T13:11:10.883Z</time></trkpt><trkpt lat="43.3445668" lon="11.2998435"><ele>354.6</ele><time>2026-03-29T13:11:11.848Z</time></trkpt><trkpt lat="43.3445578" lon="11.2999931"><ele>353.20000000000005</ele><time>2026-03-29T13:11:12.879Z</time></trkpt><trkpt lat="43.3445439" lon="11.3001252"><ele>351.79999999999995</ele><time>2026-03-29T13:11:13.882Z</time></trkpt><trkpt lat="43.3445205" lon="11.3002375"><ele>350.4</ele><time>2026-03-29T13:11:14.851Z</time></trkpt><trkpt lat="43.3445054" lon="11.300359"><ele>349.0</ele><time>2026-03-29T13:11:15.85Z</time></trkpt><trkpt lat="43.3444986" lon="11.3004926"><ele>349.0</ele><time>2026-03-29T13:11:16.863Z</time></trkpt><trkpt lat="43.344488" lon="11.3006362"><ele>349.0</ele><time>2026-03-29T13:11:17.835Z</time></trkpt><trkpt lat="43.3444718" lon="11.3007948"><ele>349.0</ele><time>2026-03-29T13:11:18.86Z</time></trkpt><trkpt lat="43.344449" lon="11.3009515"><ele>349.0</ele><time>2026-03-29T13:11:19.838Z</time></trkpt><trkpt lat="43.344423" lon="11.3011098"><ele>349.0</ele><time>2026-03-29T13:11:20.85Z</time></trkpt><trkpt lat="43.3443891" lon="11.3012696"><ele>349.0</ele><time>2026-03-29T13:11:21.842Z</time></trkpt><trkpt lat="43.3443564" lon="11.3014251"><ele>349.0</ele><time>2026-03-29T13:11:22.859Z</time></trkpt><trkpt lat="43.3443222" lon="11.3015817"><ele>349.0</ele><time>2026-03-29T13:11:23.841Z</time></trkpt><trkpt lat="43.3442903" lon="11.3017383"><ele>350.25</ele><time>2026-03-29T13:11:24.843Z</time></trkpt><trkpt lat="43.3442599" lon="11.3018872"><ele>351.5</ele><time>2026-03-29T13:11:25.836Z</time></trkpt><trkpt lat="43.3442319" lon="11.3020417"><ele>352.75</ele><time>2026-03-29T13:11:26.848Z</time></trkpt><trkpt lat="43.3442061" lon="11.3021941"><ele>354.0</ele><time>2026-03-29T13:11:27.851Z</time></trkpt><trkpt lat="43.3441703" lon="11.3023559"><ele>354.0</ele><time>2026-03-29T13:11:28.87Z</time></trkpt><trkpt lat="43.3441324" lon="11.3025111"><ele>354.0</ele><time>2026-03-29T13:11:29.848Z</time></trkpt><trkpt lat="43.3441086" lon="11.3026662"><ele>354.0</ele><time>2026-03-29T13:11:30.891Z</time></trkpt><trkpt lat="43.3440691" lon="11.3028396"><ele>354.0</ele><time>2026-03-29T13:11:31.87Z</time></trkpt><trkpt lat="43.3440282" lon="11.30309"><ele>353.6666666666667</ele><time>2026-03-29T13:11:33.178Z</time></trkpt><trkpt lat="43.3440125" lon="11.3033556"><ele>353.33333333333337</ele><time>2026-03-29T13:11:34.897Z</time></trkpt><trkpt lat="43.3439895" lon="11.3035474"><ele>353.0</ele><time>2026-03-29T13:11:35.898Z</time></trkpt><trkpt lat="43.3439595" lon="11.3037365"><ele>351.0</ele><time>2026-03-29T13:11:36.89Z</time></trkpt><trkpt lat="43.3439178" lon="11.3039153"><ele>349.0</ele><time>2026-03-29T13:11:37.896Z</time></trkpt><trkpt lat="43.343891" lon="11.3040917"><ele>347.0</ele><time>2026-03-29T13:11:38.89Z</time></trkpt><trkpt lat="43.343862" lon="11.3042637"><ele>345.0</ele><time>2026-03-29T13:11:39.873Z</time></trkpt><trkpt lat="43.3438291" lon="11.3044187"><ele>343.75</ele><time>2026-03-29T13:11:40.836Z</time></trkpt><trkpt lat="43.3437962" lon="11.3045935"><ele>342.5</ele><time>2026-03-29T13:11:41.874Z</time></trkpt><trkpt lat="43.3437621" lon="11.3047569"><ele>341.25</ele><time>2026-03-29T13:11:42.846Z</time></trkpt><trkpt lat="43.3437269" lon="11.3049152"><ele>340.0</ele><time>2026-03-29T13:11:43.845Z</time></trkpt><trkpt lat="43.3436952" lon="11.3050533"><ele>339.8</ele><time>2026-03-29T13:11:44.857Z</time></trkpt><trkpt lat="43.3436657" lon="11.3051772"><ele>339.6</ele><time>2026-03-29T13:11:45.882Z</time></trkpt><trkpt lat="43.343637" lon="11.3052743"><ele>339.4</ele><time>2026-03-29T13:11:46.848Z</time></trkpt><trkpt lat="43.3435771" lon="11.3054116"><ele>339.2</ele><time>2026-03-29T13:11:48.856Z</time></trkpt><trkpt lat="43.3435036" lon="11.3055241"><ele>339.0</ele><time>2026-03-29T13:11:50.853Z</time></trkpt><trkpt lat="43.3434145" lon="11.3056097"><ele>339.0</ele><time>2026-03-29T13:11:52.851Z</time></trkpt><trkpt lat="43.3432879" lon="11.3056688"><ele>339.0</ele><time>2026-03-29T13:11:54.846Z</time></trkpt><trkpt lat="43.3432173" lon="11.3056721"><ele>339.0</ele><time>2026-03-29T13:11:55.848Z</time></trkpt><trkpt lat="43.3430935" lon="11.3056219"><ele>339.0</ele><time>2026-03-29T13:11:57.842Z</time></trkpt><trkpt lat="43.3429853" lon="11.3055256"><ele>337.6</ele><time>2026-03-29T13:11:59.839Z</time></trkpt><trkpt lat="43.3429095" lon="11.3054514"><ele>336.2</ele><time>2026-03-29T13:12:00.857Z</time></trkpt><trkpt lat="43.3428339" lon="11.30537"><ele>334.8</ele><time>2026-03-29T13:12:01.839Z</time></trkpt><trkpt lat="43.3427563" lon="11.3052799"><ele>333.40000000000003</ele><time>2026-03-29T13:12:02.843Z</time></trkpt><trkpt lat="43.3426807" lon="11.3051887"><ele>332.0</ele><time>2026-03-29T13:12:03.847Z</time></trkpt><trkpt lat="43.3426063" lon="11.3051002"><ele>332.0</ele><time>2026-03-29T13:12:04.863Z</time></trkpt><trkpt lat="43.3425317" lon="11.305012"><ele>332.0</ele><time>2026-03-29T13:12:05.85Z</time></trkpt><trkpt lat="43.3424548" lon="11.3049239"><ele>332.0</ele><time>2026-03-29T13:12:06.845Z</time></trkpt><trkpt lat="43.3423802" lon="11.3048329"><ele>332.0</ele><time>2026-03-29T13:12:07.858Z</time></trkpt><trkpt lat="43.3423143" lon="11.304746"><ele>332.0</ele><time>2026-03-29T13:12:08.847Z</time></trkpt><trkpt lat="43.3422516" lon="11.3046655"><ele>331.20000000000005</ele><time>2026-03-29T13:12:09.874Z</time></trkpt><trkpt lat="43.3421885" lon="11.3045829"><ele>330.4</ele><time>2026-03-29T13:12:10.877Z</time></trkpt><trkpt lat="43.342123" lon="11.3044985"><ele>329.6</ele><time>2026-03-29T13:12:11.877Z</time></trkpt><trkpt lat="43.3420425" lon="11.3043943"><ele>328.79999999999995</ele><time>2026-03-29T13:12:12.894Z</time></trkpt><trkpt lat="43.3419694" lon="11.3042974"><ele>328.0</ele><time>2026-03-29T13:12:13.851Z</time></trkpt><trkpt lat="43.341885" lon="11.3041757"><ele>328.0</ele><time>2026-03-29T13:12:14.876Z</time></trkpt><trkpt lat="43.3417976" lon="11.3040501"><ele>328.0</ele><time>2026-03-29T13:12:15.883Z</time></trkpt><trkpt lat="43.3417098" lon="11.3039225"><ele>328.0</ele><time>2026-03-29T13:12:16.877Z</time></trkpt><trkpt lat="43.3416033" lon="11.3038066"><ele>328.0</ele><time>2026-03-29T13:12:17.845Z</time></trkpt><trkpt lat="43.3414926" lon="11.3036773"><ele>327.75</ele><time>2026-03-29T13:12:18.886Z</time></trkpt><trkpt lat="43.3413907" lon="11.3035614"><ele>327.5</ele><time>2026-03-29T13:12:19.889Z</time></trkpt><trkpt lat="43.341295" lon="11.3034518"><ele>327.25</ele><time>2026-03-29T13:12:20.879Z</time></trkpt><trkpt lat="43.341206" lon="11.3033555"><ele>327.0</ele><time>2026-03-29T13:12:21.85Z</time></trkpt><trkpt lat="43.3411092" lon="11.303249"><ele>326.5</ele><time>2026-03-29T13:12:22.877Z</time></trkpt><trkpt lat="43.3410126" lon="11.3031478"><ele>326.0</ele><time>2026-03-29T13:12:23.862Z</time></trkpt><trkpt lat="43.3409154" lon="11.3030434"><ele>325.5</ele><time>2026-03-29T13:12:24.842Z</time></trkpt><trkpt lat="43.3408235" lon="11.3029367"><ele>325.0</ele><time>2026-03-29T13:12:25.877Z</time></trkpt><trkpt lat="43.3407286" lon="11.3028182"><ele>325.0</ele><time>2026-03-29T13:12:26.885Z</time></trkpt><trkpt lat="43.3406346" lon="11.3026919"><ele>325.0</ele><time>2026-03-29T13:12:27.888Z</time></trkpt><trkpt lat="43.3405535" lon="11.3025502"><ele>325.0</ele><time>2026-03-29T13:12:28.871Z</time></trkpt><trkpt lat="43.3404675" lon="11.3024078"><ele>325.0</ele><time>2026-03-29T13:12:29.879Z</time></trkpt><trkpt lat="43.3403842" lon="11.3022618"><ele>324.25</ele><time>2026-03-29T13:12:30.893Z</time></trkpt><trkpt lat="43.3403103" lon="11.3021288"><ele>323.5</ele><time>2026-03-29T13:12:31.859Z</time></trkpt><trkpt lat="43.3402372" lon="11.3019999"><ele>322.75</ele><time>2026-03-29T13:12:32.838Z</time></trkpt><trkpt lat="43.3401703" lon="11.3018772"><ele>322.0</ele><time>2026-03-29T13:12:33.851Z</time></trkpt><trkpt lat="43.3401091" lon="11.3017558"><ele>322.0</ele><time>2026-03-29T13:12:34.851Z</time></trkpt><trkpt lat="43.3400497" lon="11.3016328"><ele>322.0</ele><time>2026-03-29T13:12:35.848Z</time></trkpt><trkpt lat="43.3399907" lon="11.3014977"><ele>322.0</ele><time>2026-03-29T13:12:36.849Z</time></trkpt><trkpt lat="43.3399244" lon="11.301365"><ele>322.0</ele><time>2026-03-29T13:12:37.85Z</time></trkpt><trkpt lat="43.3398562" lon="11.3012248"><ele>321.8</ele><time>2026-03-29T13:12:38.875Z</time></trkpt><trkpt lat="43.3397941" lon="11.3010908"><ele>321.6</ele><time>2026-03-29T13:12:39.889Z</time></trkpt><trkpt lat="43.3397406" lon="11.30097"><ele>321.40000000000003</ele><time>2026-03-29T13:12:40.89Z</time></trkpt><trkpt lat="43.3396947" lon="11.3008539"><ele>321.20000000000005</ele><time>2026-03-29T13:12:41.893Z</time></trkpt><trkpt lat="43.339656" lon="11.3007483"><ele>321.0</ele><time>2026-03-29T13:12:42.91Z</time></trkpt><trkpt lat="43.3396215" lon="11.3006513"><ele>319.5</ele><time>2026-03-29T13:12:43.858Z</time></trkpt><trkpt lat="43.3395769" lon="11.3005629"><ele>318.0</ele><time>2026-03-29T13:12:44.887Z</time></trkpt><trkpt lat="43.3395263" lon="11.3005038"><ele>316.5</ele><time>2026-03-29T13:12:45.863Z</time></trkpt><trkpt lat="43.3394149" lon="11.3004897"><ele>315.0</ele><time>2026-03-29T13:12:47.839Z</time></trkpt><trkpt lat="43.3393398" lon="11.3004732"><ele>313.5</ele><time>2026-03-29T13:12:48.842Z</time></trkpt><trkpt lat="43.3392577" lon="11.3004283"><ele>312.0</ele><time>2026-03-29T13:12:49.884Z</time></trkpt><trkpt lat="43.3391888" lon="11.3003941"><ele>312.0</ele><time>2026-03-29T13:12:50.848Z</time></trkpt><trkpt lat="43.3391168" lon="11.3003392"><ele>312.0</ele><time>2026-03-29T13:12:51.894Z</time></trkpt><trkpt lat="43.3390034" lon="11.3002633"><ele>312.0</ele><time>2026-03-29T13:12:52.891Z</time></trkpt><trkpt lat="43.3389432" lon="11.3002055"><ele>312.0</ele><time>2026-03-29T13:12:53.848Z</time></trkpt><trkpt lat="43.3388855" lon="11.3001347"><ele>312.0</ele><time>2026-03-29T13:12:54.836Z</time></trkpt><trkpt lat="43.3388338" lon="11.3000512"><ele>312.0</ele><time>2026-03-29T13:12:55.846Z</time></trkpt><trkpt lat="43.3387957" lon="11.299976"><ele>312.0</ele><time>2026-03-29T13:12:56.864Z</time></trkpt><trkpt lat="43.3387443" lon="11.2998901"><ele>312.0</ele><time>2026-03-29T13:12:57.849Z</time></trkpt><trkpt lat="43.3386925" lon="11.2997861"><ele>312.0</ele><time>2026-03-29T13:12:58.838Z</time></trkpt><trkpt lat="43.3382776" lon="11.2996027"><ele>311.6</ele><time>2026-03-29T13:12:59.85Z</time></trkpt><trkpt lat="43.3382277" lon="11.2994714"><ele>311.2</ele><time>2026-03-29T13:13:00.832Z</time></trkpt><trkpt lat="43.3381879" lon="11.2993541"><ele>310.8</ele><time>2026-03-29T13:13:01.843Z</time></trkpt><trkpt lat="43.3381576" lon="11.2992294"><ele>310.4</ele><time>2026-03-29T13:13:02.846Z</time></trkpt><trkpt lat="43.3381149" lon="11.2991059"><ele>310.0</ele><time>2026-03-29T13:13:03.872Z</time></trkpt><trkpt lat="43.3380723" lon="11.2990037"><ele>310.0</ele><time>2026-03-29T13:13:04.849Z</time></trkpt><trkpt lat="43.3380305" lon="11.2988967"><ele>310.0</ele><time>2026-03-29T13:13:05.83Z</time></trkpt><trkpt lat="43.3379838" lon="11.2987858"><ele>310.0</ele><time>2026-03-29T13:13:06.842Z</time></trkpt><trkpt lat="43.3379386" lon="11.2986912"><ele>310.0</ele><time>2026-03-29T13:13:07.848Z</time></trkpt><trkpt lat="43.3378914" lon="11.2985962"><ele>310.0</ele><time>2026-03-29T13:13:08.852Z</time></trkpt><trkpt lat="43.3378572" lon="11.2985011"><ele>310.0</ele><time>2026-03-29T13:13:09.839Z</time></trkpt><trkpt lat="43.3378465" lon="11.2984034"><ele>310.0</ele><time>2026-03-29T13:13:10.875Z</time></trkpt><trkpt lat="43.3378587" lon="11.2983158"><ele>310.0</ele><time>2026-03-29T13:13:11.847Z</time></trkpt><trkpt lat="43.3378634" lon="11.2982257"><ele>310.0</ele><time>2026-03-29T13:13:12.838Z</time></trkpt><trkpt lat="43.337866" lon="11.2981236"><ele>310.0</ele><time>2026-03-29T13:13:13.832Z</time></trkpt><trkpt lat="43.3378579" lon="11.2980258"><ele>310.0</ele><time>2026-03-29T13:13:14.845Z</time></trkpt><trkpt lat="43.3378214" lon="11.2979386"><ele>310.0</ele><time>2026-03-29T13:13:15.854Z</time></trkpt><trkpt lat="43.3377571" lon="11.2978833"><ele>310.0</ele><time>2026-03-29T13:13:16.854Z</time></trkpt><trkpt lat="43.3376965" lon="11.2978353"><ele>310.4</ele><time>2026-03-29T13:13:17.84Z</time></trkpt><trkpt lat="43.3376286" lon="11.2977796"><ele>310.8</ele><time>2026-03-29T13:13:18.847Z</time></trkpt><trkpt lat="43.3375565" lon="11.2977125"><ele>311.2</ele><time>2026-03-29T13:13:19.835Z</time></trkpt><trkpt lat="43.33747" lon="11.2976434"><ele>311.6</ele><time>2026-03-29T13:13:20.836Z</time></trkpt><trkpt lat="43.3373548" lon="11.2975552"><ele>312.0</ele><time>2026-03-29T13:13:21.84Z</time></trkpt><trkpt lat="43.3372525" lon="11.2974475"><ele>310.75</ele><time>2026-03-29T13:13:22.841Z</time></trkpt><trkpt lat="43.3371538" lon="11.2973477"><ele>309.5</ele><time>2026-03-29T13:13:23.84Z</time></trkpt><trkpt lat="43.337061" lon="11.297242"><ele>308.25</ele><time>2026-03-29T13:13:24.839Z</time></trkpt><trkpt lat="43.336977" lon="11.2971428"><ele>307.0</ele><time>2026-03-29T13:13:25.837Z</time></trkpt><trkpt lat="43.3369062" lon="11.297041"><ele>307.0</ele><time>2026-03-29T13:13:26.839Z</time></trkpt><trkpt lat="43.3368416" lon="11.2969457"><ele>307.0</ele><time>2026-03-29T13:13:27.852Z</time></trkpt><trkpt lat="43.3367762" lon="11.2968485"><ele>307.0</ele><time>2026-03-29T13:13:28.874Z</time></trkpt><trkpt lat="43.3367133" lon="11.2967579"><ele>307.0</ele><time>2026-03-29T13:13:29.856Z</time></trkpt><trkpt lat="43.336645" lon="11.2966609"><ele>307.0</ele><time>2026-03-29T13:13:30.844Z</time></trkpt><trkpt lat="43.3365803" lon="11.2965592"><ele>307.0</ele><time>2026-03-29T13:13:31.845Z</time></trkpt><trkpt lat="43.336513" lon="11.2964542"><ele>307.0</ele><time>2026-03-29T13:13:32.856Z</time></trkpt><trkpt lat="43.3364514" lon="11.2963392"><ele>307.0</ele><time>2026-03-29T13:13:33.857Z</time></trkpt><trkpt lat="43.3363887" lon="11.2962101"><ele>307.0</ele><time>2026-03-29T13:13:34.872Z</time></trkpt><trkpt lat="43.3363329" lon="11.296059"><ele>307.0</ele><time>2026-03-29T13:13:35.841Z</time></trkpt><trkpt lat="43.3362853" lon="11.2958963"><ele>305.0</ele><time>2026-03-29T13:13:36.864Z</time></trkpt><trkpt lat="43.3362509" lon="11.2957359"><ele>303.0</ele><time>2026-03-29T13:13:37.837Z</time></trkpt><trkpt lat="43.3362306" lon="11.2955638"><ele>301.0</ele><time>2026-03-29T13:13:38.873Z</time></trkpt><trkpt lat="43.3362235" lon="11.2954093"><ele>299.0</ele><time>2026-03-29T13:13:39.842Z</time></trkpt><trkpt lat="43.3362306" lon="11.2952476"><ele>298.75</ele><time>2026-03-29T13:13:40.839Z</time></trkpt><trkpt lat="43.3362554" lon="11.2950818"><ele>298.5</ele><time>2026-03-29T13:13:41.846Z</time></trkpt><trkpt lat="43.3362898" lon="11.2949327"><ele>298.25</ele><time>2026-03-29T13:13:42.854Z</time></trkpt><trkpt lat="43.3363332" lon="11.2947864"><ele>298.0</ele><time>2026-03-29T13:13:43.833Z</time></trkpt><trkpt lat="43.3363899" lon="11.2946419"><ele>299.5</ele><time>2026-03-29T13:13:44.852Z</time></trkpt><trkpt lat="43.336447" lon="11.294502"><ele>301.0</ele><time>2026-03-29T13:13:45.836Z</time></trkpt><trkpt lat="43.3365091" lon="11.294352"><ele>302.5</ele><time>2026-03-29T13:13:46.858Z</time></trkpt><trkpt lat="43.3365673" lon="11.2942056"><ele>304.0</ele><time>2026-03-29T13:13:47.853Z</time></trkpt><trkpt lat="43.3366291" lon="11.2940548"><ele>304.5</ele><time>2026-03-29T13:13:48.848Z</time></trkpt><trkpt lat="43.3366911" lon="11.2939052"><ele>305.0</ele><time>2026-03-29T13:13:49.839Z</time></trkpt><trkpt lat="43.3367491" lon="11.2937536"><ele>305.5</ele><time>2026-03-29T13:13:50.841Z</time></trkpt><trkpt lat="43.336804" lon="11.2935895"><ele>306.0</ele><time>2026-03-29T13:13:51.847Z</time></trkpt><trkpt lat="43.3368493" lon="11.2934058"><ele>306.0</ele><time>2026-03-29T13:13:52.837Z</time></trkpt><trkpt lat="43.3368738" lon="11.293214"><ele>306.0</ele><time>2026-03-29T13:13:53.841Z</time></trkpt><trkpt lat="43.3368799" lon="11.293"><ele>306.0</ele><time>2026-03-29T13:13:54.885Z</time></trkpt><trkpt lat="43.3368638" lon="11.2928241"><ele>306.0</ele><time>2026-03-29T13:13:55.844Z</time></trkpt><trkpt lat="43.3368335" lon="11.2926256"><ele>305.25</ele><time>2026-03-29T13:13:56.856Z</time></trkpt><trkpt lat="43.3367882" lon="11.2924212"><ele>304.5</ele><time>2026-03-29T13:13:57.903Z</time></trkpt><trkpt lat="43.336728" lon="11.2922388"><ele>303.75</ele><time>2026-03-29T13:13:58.876Z</time></trkpt><trkpt lat="43.3366523" lon="11.2920652"><ele>303.0</ele><time>2026-03-29T13:13:59.881Z</time></trkpt><trkpt lat="43.3365724" lon="11.2919219"><ele>302.25</ele><time>2026-03-29T13:14:00.862Z</time></trkpt><trkpt lat="43.3364816" lon="11.2917993"><ele>301.5</ele><time>2026-03-29T13:14:01.857Z</time></trkpt><trkpt lat="43.3363658" lon="11.2916805"><ele>300.75</ele><time>2026-03-29T13:14:02.842Z</time></trkpt><trkpt lat="43.3362223" lon="11.2915855"><ele>300.0</ele><time>2026-03-29T13:14:03.851Z</time></trkpt><trkpt lat="43.3360917" lon="11.2915143"><ele>300.0</ele><time>2026-03-29T13:14:04.847Z</time></trkpt><trkpt lat="43.3359446" lon="11.2914643"><ele>300.0</ele><time>2026-03-29T13:14:05.872Z</time></trkpt><trkpt lat="43.3358481" lon="11.2914334"><ele>300.0</ele><time>2026-03-29T13:14:06.836Z</time></trkpt><trkpt lat="43.3357024" lon="11.2913935"><ele>300.0</ele><time>2026-03-29T13:14:07.853Z</time></trkpt><trkpt lat="43.3355522" lon="11.2913701"><ele>296.0</ele><time>2026-03-29T13:14:08.846Z</time></trkpt><trkpt lat="43.3353907" lon="11.2913523"><ele>292.0</ele><time>2026-03-29T13:14:09.845Z</time></trkpt><trkpt lat="43.3352385" lon="11.2913368"><ele>288.0</ele><time>2026-03-29T13:14:10.846Z</time></trkpt><trkpt lat="43.3350796" lon="11.2913152"><ele>288.0</ele><time>2026-03-29T13:14:11.845Z</time></trkpt><trkpt lat="43.3349323" lon="11.2912954"><ele>288.0</ele><time>2026-03-29T13:14:12.856Z</time></trkpt><trkpt lat="43.3347876" lon="11.2912792"><ele>288.0</ele><time>2026-03-29T13:14:13.85Z</time></trkpt><trkpt lat="43.3346405" lon="11.2912611"><ele>288.0</ele><time>2026-03-29T13:14:14.845Z</time></trkpt><trkpt lat="43.334491" lon="11.2912329"><ele>286.6666666666667</ele><time>2026-03-29T13:14:15.842Z</time></trkpt><trkpt lat="43.3343113" lon="11.2912038"><ele>285.33333333333337</ele><time>2026-03-29T13:14:16.842Z</time></trkpt><trkpt lat="43.3341184" lon="11.2911776"><ele>284.0</ele><time>2026-03-29T13:14:17.855Z</time></trkpt><trkpt lat="43.3339258" lon="11.2911668"><ele>282.33333333333337</ele><time>2026-03-29T13:14:18.844Z</time></trkpt><trkpt lat="43.33371" lon="11.2911663"><ele>280.6666666666667</ele><time>2026-03-29T13:14:19.866Z</time></trkpt><trkpt lat="43.3334947" lon="11.2911754"><ele>279.0</ele><time>2026-03-29T13:14:20.852Z</time></trkpt><trkpt lat="43.3332781" lon="11.291182"><ele>277.6666666666667</ele><time>2026-03-29T13:14:21.845Z</time></trkpt><trkpt lat="43.3330512" lon="11.2912017"><ele>276.33333333333337</ele><time>2026-03-29T13:14:22.851Z</time></trkpt><trkpt lat="43.3328422" lon="11.2912291"><ele>275.0</ele><time>2026-03-29T13:14:23.845Z</time></trkpt><trkpt lat="43.3326089" lon="11.291267"><ele>275.0</ele><time>2026-03-29T13:14:24.867Z</time></trkpt><trkpt lat="43.3323941" lon="11.2913195"><ele>275.0</ele><time>2026-03-29T13:14:25.872Z</time></trkpt><trkpt lat="43.3321893" lon="11.2913842"><ele>275.0</ele><time>2026-03-29T13:14:26.842Z</time></trkpt><trkpt lat="43.3319704" lon="11.2914612"><ele>274.5</ele><time>2026-03-29T13:14:27.866Z</time></trkpt><trkpt lat="43.3317505" lon="11.2915555"><ele>274.0</ele><time>2026-03-29T13:14:28.875Z</time></trkpt><trkpt lat="43.3315416" lon="11.291658"><ele>271.0</ele><time>2026-03-29T13:14:29.86Z</time></trkpt><trkpt lat="43.3313293" lon="11.2917728"><ele>268.0</ele><time>2026-03-29T13:14:30.845Z</time></trkpt><trkpt lat="43.3311181" lon="11.2919066"><ele>268.0</ele><time>2026-03-29T13:14:31.838Z</time></trkpt><trkpt lat="43.3309107" lon="11.2920464"><ele>268.0</ele><time>2026-03-29T13:14:32.847Z</time></trkpt><trkpt lat="43.3307061" lon="11.2921928"><ele>268.0</ele><time>2026-03-29T13:14:33.851Z</time></trkpt><trkpt lat="43.3305074" lon="11.2923525"><ele>268.0</ele><time>2026-03-29T13:14:34.856Z</time></trkpt><trkpt lat="43.3303189" lon="11.2925197"><ele>268.0</ele><time>2026-03-29T13:14:35.852Z</time></trkpt><trkpt lat="43.3301378" lon="11.2926912"><ele>268.0</ele><time>2026-03-29T13:14:36.848Z</time></trkpt><trkpt lat="43.3299526" lon="11.2928688"><ele>268.0</ele><time>2026-03-29T13:14:37.86Z</time></trkpt><trkpt lat="43.3297743" lon="11.2930447"><ele>268.3333333333333</ele><time>2026-03-29T13:14:38.838Z</time></trkpt><trkpt lat="43.3295895" lon="11.2932202"><ele>268.6666666666667</ele><time>2026-03-29T13:14:39.843Z</time></trkpt><trkpt lat="43.3294055" lon="11.293393"><ele>269.0</ele><time>2026-03-29T13:14:40.851Z</time></trkpt><trkpt lat="43.3292185" lon="11.2935691"><ele>269.0</ele><time>2026-03-29T13:14:41.857Z</time></trkpt><trkpt lat="43.3290324" lon="11.2937462"><ele>269.0</ele><time>2026-03-29T13:14:42.877Z</time></trkpt><trkpt lat="43.3288521" lon="11.2939074"><ele>269.0</ele><time>2026-03-29T13:14:43.848Z</time></trkpt><trkpt lat="43.32866" lon="11.2940639"><ele>268.0</ele><time>2026-03-29T13:14:44.857Z</time></trkpt><trkpt lat="43.3284763" lon="11.2942193"><ele>267.0</ele><time>2026-03-29T13:14:45.854Z</time></trkpt><trkpt lat="43.3282935" lon="11.2943675"><ele>266.0</ele><time>2026-03-29T13:14:46.85Z</time></trkpt><trkpt lat="43.3280995" lon="11.2945222"><ele>265.6666666666667</ele><time>2026-03-29T13:14:47.848Z</time></trkpt><trkpt lat="43.3279038" lon="11.2946857"><ele>265.3333333333333</ele><time>2026-03-29T13:14:48.892Z</time></trkpt><trkpt lat="43.3277304" lon="11.2948312"><ele>265.0</ele><time>2026-03-29T13:14:49.847Z</time></trkpt><trkpt lat="43.327553" lon="11.2949863"><ele>265.66666666666663</ele><time>2026-03-29T13:14:50.851Z</time></trkpt><trkpt lat="43.3273732" lon="11.2951365"><ele>266.3333333333333</ele><time>2026-03-29T13:14:51.853Z</time></trkpt><trkpt lat="43.3272049" lon="11.2952889"><ele>267.0</ele><time>2026-03-29T13:14:52.837Z</time></trkpt><trkpt lat="43.3270297" lon="11.295435"><ele>266.0</ele><time>2026-03-29T13:14:53.846Z</time></trkpt><trkpt lat="43.3268596" lon="11.2955827"><ele>265.0</ele><time>2026-03-29T13:14:54.841Z</time></trkpt><trkpt lat="43.3267034" lon="11.2957056"><ele>264.0</ele><time>2026-03-29T13:14:55.842Z</time></trkpt><trkpt lat="43.3265204" lon="11.2958354"><ele>261.6666666666667</ele><time>2026-03-29T13:14:56.848Z</time></trkpt><trkpt lat="43.3263679" lon="11.2959457"><ele>259.33333333333337</ele><time>2026-03-29T13:14:57.844Z</time></trkpt><trkpt lat="43.3262107" lon="11.2960794"><ele>257.0</ele><time>2026-03-29T13:14:58.847Z</time></trkpt><trkpt lat="43.3260495" lon="11.2962417"><ele>257.0</ele><time>2026-03-29T13:14:59.852Z</time></trkpt><trkpt lat="43.325859" lon="11.2964021"><ele>257.0</ele><time>2026-03-29T13:15:00.858Z</time></trkpt><trkpt lat="43.3256752" lon="11.2965656"><ele>257.0</ele><time>2026-03-29T13:15:01.862Z</time></trkpt><trkpt lat="43.3254975" lon="11.2967218"><ele>258.0</ele><time>2026-03-29T13:15:02.835Z</time></trkpt><trkpt lat="43.3253141" lon="11.2968705"><ele>259.0</ele><time>2026-03-29T13:15:03.852Z</time></trkpt><trkpt lat="43.3251211" lon="11.2970227"><ele>260.0</ele><time>2026-03-29T13:15:04.844Z</time></trkpt><trkpt lat="43.3249216" lon="11.297169"><ele>261.0</ele><time>2026-03-29T13:15:05.847Z</time></trkpt><trkpt lat="43.3247185" lon="11.2973229"><ele>262.0</ele><time>2026-03-29T13:15:06.896Z</time></trkpt><trkpt lat="43.3245156" lon="11.2974501"><ele>262.0</ele><time>2026-03-29T13:15:07.854Z</time></trkpt><trkpt lat="43.3242988" lon="11.2975732"><ele>262.0</ele><time>2026-03-29T13:15:08.848Z</time></trkpt><trkpt lat="43.3240806" lon="11.2976681"><ele>260.5</ele><time>2026-03-29T13:15:09.84Z</time></trkpt><trkpt lat="43.3238601" lon="11.2977632"><ele>259.0</ele><time>2026-03-29T13:15:10.847Z</time></trkpt><trkpt lat="43.3236536" lon="11.2978861"><ele>259.0</ele><time>2026-03-29T13:15:11.845Z</time></trkpt><trkpt lat="43.3234502" lon="11.2980222"><ele>259.0</ele><time>2026-03-29T13:15:12.845Z</time></trkpt><trkpt lat="43.3232493" lon="11.2981602"><ele>258.3333333333333</ele><time>2026-03-29T13:15:13.852Z</time></trkpt><trkpt lat="43.3230664" lon="11.2982883"><ele>257.6666666666667</ele><time>2026-03-29T13:15:14.842Z</time></trkpt><trkpt lat="43.322862" lon="11.2984197"><ele>257.0</ele><time>2026-03-29T13:15:15.864Z</time></trkpt><trkpt lat="43.3226603" lon="11.2985481"><ele>257.0</ele><time>2026-03-29T13:15:16.849Z</time></trkpt><trkpt lat="43.3224643" lon="11.2986802"><ele>257.0</ele><time>2026-03-29T13:15:17.841Z</time></trkpt><trkpt lat="43.3222673" lon="11.2988167"><ele>257.0</ele><time>2026-03-29T13:15:18.857Z</time></trkpt><trkpt lat="43.3220828" lon="11.2989437"><ele>258.33333333333337</ele><time>2026-03-29T13:15:19.84Z</time></trkpt><trkpt lat="43.321902" lon="11.2990763"><ele>259.6666666666667</ele><time>2026-03-29T13:15:20.85Z</time></trkpt><trkpt lat="43.321722" lon="11.2992071"><ele>261.0</ele><time>2026-03-29T13:15:21.831Z</time></trkpt><trkpt lat="43.3215323" lon="11.2993428"><ele>259.6666666666667</ele><time>2026-03-29T13:15:22.854Z</time></trkpt><trkpt lat="43.3213451" lon="11.2994765"><ele>258.33333333333337</ele><time>2026-03-29T13:15:23.851Z</time></trkpt><trkpt lat="43.3211589" lon="11.2996106"><ele>257.0</ele><time>2026-03-29T13:15:24.849Z</time></trkpt><trkpt lat="43.3209649" lon="11.2997499"><ele>257.0</ele><time>2026-03-29T13:15:25.887Z</time></trkpt><trkpt lat="43.3207832" lon="11.2998716"><ele>257.0</ele><time>2026-03-29T13:15:26.846Z</time></trkpt><trkpt lat="43.320594" lon="11.3000035"><ele>257.0</ele><time>2026-03-29T13:15:27.842Z</time></trkpt><trkpt lat="43.3203943" lon="11.300139"><ele>257.0</ele><time>2026-03-29T13:15:28.841Z</time></trkpt><trkpt lat="43.3201959" lon="11.3002804"><ele>257.0</ele><time>2026-03-29T13:15:29.844Z</time></trkpt><trkpt lat="43.3199935" lon="11.300424"><ele>257.0</ele><time>2026-03-29T13:15:30.854Z</time></trkpt><trkpt lat="43.3197999" lon="11.3005677"><ele>257.0</ele><time>2026-03-29T13:15:31.831Z</time></trkpt><trkpt lat="43.3195937" lon="11.3007129"><ele>257.33333333333337</ele><time>2026-03-29T13:15:32.859Z</time></trkpt><trkpt lat="43.319397" lon="11.3008557"><ele>257.6666666666667</ele><time>2026-03-29T13:15:33.839Z</time></trkpt><trkpt lat="43.319198" lon="11.3009989"><ele>258.0</ele><time>2026-03-29T13:15:34.85Z</time></trkpt><trkpt lat="43.3189961" lon="11.301143"><ele>260.5</ele><time>2026-03-29T13:15:35.854Z</time></trkpt><trkpt lat="43.3187924" lon="11.3012892"><ele>263.0</ele><time>2026-03-29T13:15:36.867Z</time></trkpt><trkpt lat="43.3185892" lon="11.301436"><ele>257.0</ele><time>2026-03-29T13:15:37.864Z</time></trkpt><trkpt lat="43.3183932" lon="11.3015784"><ele>251.0</ele><time>2026-03-29T13:15:38.834Z</time></trkpt><trkpt lat="43.3181915" lon="11.3017375"><ele>252.0</ele><time>2026-03-29T13:15:39.862Z</time></trkpt><trkpt lat="43.317999" lon="11.3018984"><ele>253.0</ele><time>2026-03-29T13:15:40.86Z</time></trkpt><trkpt lat="43.3178141" lon="11.3020641"><ele>254.0</ele><time>2026-03-29T13:15:41.857Z</time></trkpt><trkpt lat="43.3176335" lon="11.3022341"><ele>255.33333333333334</ele><time>2026-03-29T13:15:42.851Z</time></trkpt><trkpt lat="43.317457" lon="11.3024113"><ele>256.6666666666667</ele><time>2026-03-29T13:15:43.84Z</time></trkpt><trkpt lat="43.3172769" lon="11.3026046"><ele>258.0</ele><time>2026-03-29T13:15:44.866Z</time></trkpt><trkpt lat="43.317102" lon="11.3028034"><ele>258.0</ele><time>2026-03-29T13:15:45.857Z</time></trkpt><trkpt lat="43.3169274" lon="11.3030172"><ele>258.0</ele><time>2026-03-29T13:15:46.858Z</time></trkpt><trkpt lat="43.31675" lon="11.3032381"><ele>253.5</ele><time>2026-03-29T13:15:47.852Z</time></trkpt><trkpt lat="43.3165823" lon="11.3034586"><ele>249.0</ele><time>2026-03-29T13:15:48.831Z</time></trkpt><trkpt lat="43.3164068" lon="11.3036942"><ele>250.5</ele><time>2026-03-29T13:15:49.858Z</time></trkpt><trkpt lat="43.3162454" lon="11.3039271"><ele>252.0</ele><time>2026-03-29T13:15:50.839Z</time></trkpt><trkpt lat="43.3160743" lon="11.3041742"><ele>252.0</ele><time>2026-03-29T13:15:51.858Z</time></trkpt><trkpt lat="43.3159201" lon="11.3044178"><ele>252.0</ele><time>2026-03-29T13:15:52.845Z</time></trkpt><trkpt lat="43.3157673" lon="11.3046727"><ele>254.5</ele><time>2026-03-29T13:15:53.857Z</time></trkpt><trkpt lat="43.3156271" lon="11.3049244"><ele>257.0</ele><time>2026-03-29T13:15:54.834Z</time></trkpt><trkpt lat="43.3154855" lon="11.3051837"><ele>257.0</ele><time>2026-03-29T13:15:55.848Z</time></trkpt><trkpt lat="43.315345" lon="11.305438"><ele>257.0</ele><time>2026-03-29T13:15:56.853Z</time></trkpt><trkpt lat="43.3152107" lon="11.3056902"><ele>254.0</ele><time>2026-03-29T13:15:57.844Z</time></trkpt><trkpt lat="43.3150747" lon="11.3059503"><ele>251.0</ele><time>2026-03-29T13:15:58.853Z</time></trkpt><trkpt lat="43.3149408" lon="11.3062041"><ele>249.5</ele><time>2026-03-29T13:15:59.838Z</time></trkpt><trkpt lat="43.3148017" lon="11.3064657"><ele>248.0</ele><time>2026-03-29T13:16:00.859Z</time></trkpt><trkpt lat="43.3146692" lon="11.3067143"><ele>252.5</ele><time>2026-03-29T13:16:01.838Z</time></trkpt><trkpt lat="43.3145351" lon="11.3069765"><ele>257.0</ele><time>2026-03-29T13:16:02.852Z</time></trkpt><trkpt lat="43.3144047" lon="11.3072376"><ele>251.0</ele><time>2026-03-29T13:16:03.864Z</time></trkpt><trkpt lat="43.3142748" lon="11.3074921"><ele>245.0</ele><time>2026-03-29T13:16:04.859Z</time></trkpt><trkpt lat="43.3141459" lon="11.3077445"><ele>245.0</ele><time>2026-03-29T13:16:05.834Z</time></trkpt><trkpt lat="43.3140089" lon="11.3080008"><ele>245.0</ele><time>2026-03-29T13:16:06.84Z</time></trkpt><trkpt lat="43.3138658" lon="11.3082531"><ele>243.0</ele><time>2026-03-29T13:16:07.843Z</time></trkpt><trkpt lat="43.3137161" lon="11.3084974"><ele>241.0</ele><time>2026-03-29T13:16:08.845Z</time></trkpt><trkpt lat="43.3135583" lon="11.3087425"><ele>242.0</ele><time>2026-03-29T13:16:09.85Z</time></trkpt><trkpt lat="43.3133993" lon="11.3089785"><ele>243.0</ele><time>2026-03-29T13:16:10.85Z</time></trkpt><trkpt lat="43.3132357" lon="11.309211"><ele>241.0</ele><time>2026-03-29T13:16:11.843Z</time></trkpt><trkpt lat="43.3130647" lon="11.309439"><ele>239.0</ele><time>2026-03-29T13:16:12.852Z</time></trkpt><trkpt lat="43.3128791" lon="11.3096685"><ele>239.0</ele><time>2026-03-29T13:16:13.858Z</time></trkpt><trkpt lat="43.3127026" lon="11.3098875"><ele>239.0</ele><time>2026-03-29T13:16:14.841Z</time></trkpt><trkpt lat="43.3125146" lon="11.3101164"><ele>239.0</ele><time>2026-03-29T13:16:15.879Z</time></trkpt><trkpt lat="43.3123319" lon="11.3103319"><ele>239.0</ele><time>2026-03-29T13:16:16.863Z</time></trkpt><trkpt lat="43.3121462" lon="11.3105345"><ele>239.5</ele><time>2026-03-29T13:16:17.838Z</time></trkpt><trkpt lat="43.3119555" lon="11.3107406"><ele>240.0</ele><time>2026-03-29T13:16:18.859Z</time></trkpt><trkpt lat="43.3117678" lon="11.3109307"><ele>240.0</ele><time>2026-03-29T13:16:19.842Z</time></trkpt><trkpt lat="43.3115724" lon="11.3111151"><ele>240.0</ele><time>2026-03-29T13:16:20.841Z</time></trkpt><trkpt lat="43.3113731" lon="11.3112928"><ele>239.5</ele><time>2026-03-29T13:16:21.838Z</time></trkpt><trkpt lat="43.3111707" lon="11.311465"><ele>239.0</ele><time>2026-03-29T13:16:22.848Z</time></trkpt><trkpt lat="43.3109657" lon="11.3116357"><ele>239.0</ele><time>2026-03-29T13:16:23.85Z</time></trkpt><trkpt lat="43.3107614" lon="11.3118024"><ele>239.0</ele><time>2026-03-29T13:16:24.856Z</time></trkpt><trkpt lat="43.3105592" lon="11.3119745"><ele>238.0</ele><time>2026-03-29T13:16:25.865Z</time></trkpt><trkpt lat="43.3103695" lon="11.3121489"><ele>237.0</ele><time>2026-03-29T13:16:26.841Z</time></trkpt><trkpt lat="43.3101691" lon="11.3123302"><ele>236.0</ele><time>2026-03-29T13:16:27.86Z</time></trkpt><trkpt lat="43.309973" lon="11.3125049"><ele>235.0</ele><time>2026-03-29T13:16:28.853Z</time></trkpt><trkpt lat="43.3097731" lon="11.3126778"><ele>235.5</ele><time>2026-03-29T13:16:29.847Z</time></trkpt><trkpt lat="43.3095666" lon="11.3128535"><ele>236.0</ele><time>2026-03-29T13:16:30.874Z</time></trkpt><trkpt lat="43.3093748" lon="11.3130196"><ele>235.5</ele><time>2026-03-29T13:16:31.85Z</time></trkpt><trkpt lat="43.3091819" lon="11.3131911"><ele>235.0</ele><time>2026-03-29T13:16:32.83Z</time></trkpt><trkpt lat="43.308982" lon="11.3133676"><ele>238.5</ele><time>2026-03-29T13:16:33.854Z</time></trkpt><trkpt lat="43.3087908" lon="11.3135372"><ele>242.0</ele><time>2026-03-29T13:16:34.845Z</time></trkpt><trkpt lat="43.3085963" lon="11.313715"><ele>242.0</ele><time>2026-03-29T13:16:35.862Z</time></trkpt><trkpt lat="43.3084121" lon="11.313884"><ele>242.0</ele><time>2026-03-29T13:16:36.841Z</time></trkpt><trkpt lat="43.3082187" lon="11.3140583"><ele>237.0</ele><time>2026-03-29T13:16:37.851Z</time></trkpt><trkpt lat="43.308027" lon="11.3142328"><ele>232.0</ele><time>2026-03-29T13:16:38.85Z</time></trkpt><trkpt lat="43.307831" lon="11.3144075"><ele>232.0</ele><time>2026-03-29T13:16:39.856Z</time></trkpt><trkpt lat="43.3076357" lon="11.3145819"><ele>232.0</ele><time>2026-03-29T13:16:40.854Z</time></trkpt><trkpt lat="43.3074382" lon="11.3147706"><ele>231.0</ele><time>2026-03-29T13:16:41.878Z</time></trkpt><trkpt lat="43.3072525" lon="11.314961"><ele>230.0</ele><time>2026-03-29T13:16:42.853Z</time></trkpt><trkpt lat="43.3070655" lon="11.3151614"><ele>231.5</ele><time>2026-03-29T13:16:43.835Z</time></trkpt><trkpt lat="43.3068823" lon="11.3153725"><ele>233.0</ele><time>2026-03-29T13:16:44.832Z</time></trkpt><trkpt lat="43.3066992" lon="11.3155933"><ele>233.0</ele><time>2026-03-29T13:16:45.852Z</time></trkpt><trkpt lat="43.3065266" lon="11.3158124"><ele>233.0</ele><time>2026-03-29T13:16:46.843Z</time></trkpt><trkpt lat="43.3063521" lon="11.3160446"><ele>233.5</ele><time>2026-03-29T13:16:47.874Z</time></trkpt><trkpt lat="43.3061877" lon="11.316265"><ele>234.0</ele><time>2026-03-29T13:16:48.847Z</time></trkpt><trkpt lat="43.3060175" lon="11.3164895"><ele>234.0</ele><time>2026-03-29T13:16:49.845Z</time></trkpt><trkpt lat="43.3058521" lon="11.3167156"><ele>234.0</ele><time>2026-03-29T13:16:50.843Z</time></trkpt><trkpt lat="43.3056865" lon="11.3169458"><ele>236.5</ele><time>2026-03-29T13:16:51.852Z</time></trkpt><trkpt lat="43.3055164" lon="11.3171816"><ele>239.0</ele><time>2026-03-29T13:16:52.841Z</time></trkpt><trkpt lat="43.3053511" lon="11.3174247"><ele>233.0</ele><time>2026-03-29T13:16:53.849Z</time></trkpt><trkpt lat="43.3051914" lon="11.3176712"><ele>227.0</ele><time>2026-03-29T13:16:54.858Z</time></trkpt><trkpt lat="43.305031" lon="11.3179189"><ele>226.0</ele><time>2026-03-29T13:16:55.858Z</time></trkpt><trkpt lat="43.3048778" lon="11.3181616"><ele>225.0</ele><time>2026-03-29T13:16:56.834Z</time></trkpt><trkpt lat="43.3047193" lon="11.3184067"><ele>226.0</ele><time>2026-03-29T13:16:57.843Z</time></trkpt><trkpt lat="43.3045565" lon="11.3186592"><ele>227.0</ele><time>2026-03-29T13:16:58.853Z</time></trkpt><trkpt lat="43.3043924" lon="11.318905"><ele>227.0</ele><time>2026-03-29T13:16:59.865Z</time></trkpt><trkpt lat="43.3042352" lon="11.3191429"><ele>227.0</ele><time>2026-03-29T13:17:00.854Z</time></trkpt><trkpt lat="43.3040751" lon="11.3193796"><ele>230.0</ele><time>2026-03-29T13:17:01.837Z</time></trkpt><trkpt lat="43.3039082" lon="11.3196191"><ele>233.0</ele><time>2026-03-29T13:17:02.869Z</time></trkpt><trkpt lat="43.303753" lon="11.3198496"><ele>233.0</ele><time>2026-03-29T13:17:03.84Z</time></trkpt><trkpt lat="43.3035892" lon="11.3200925"><ele>233.0</ele><time>2026-03-29T13:17:04.883Z</time></trkpt><trkpt lat="43.3034263" lon="11.3203413"><ele>229.5</ele><time>2026-03-29T13:17:05.958Z</time></trkpt><trkpt lat="43.3031454" lon="11.3207745"><ele>226.0</ele><time>2026-03-29T13:17:07.848Z</time></trkpt><trkpt lat="43.3030041" lon="11.320995"><ele>226.66666666666666</ele><time>2026-03-29T13:17:08.853Z</time></trkpt><trkpt lat="43.3028622" lon="11.3212124"><ele>227.33333333333331</ele><time>2026-03-29T13:17:09.862Z</time></trkpt><trkpt lat="43.3027225" lon="11.321421"><ele>228.0</ele><time>2026-03-29T13:17:10.865Z</time></trkpt><trkpt lat="43.3025806" lon="11.3216345"><ele>228.0</ele><time>2026-03-29T13:17:11.905Z</time></trkpt><trkpt lat="43.3024545" lon="11.3218199"><ele>228.0</ele><time>2026-03-29T13:17:12.844Z</time></trkpt><trkpt lat="43.3023284" lon="11.322032"><ele>228.0</ele><time>2026-03-29T13:17:13.843Z</time></trkpt><trkpt lat="43.3021826" lon="11.3222361"><ele>227.66666666666669</ele><time>2026-03-29T13:17:14.839Z</time></trkpt><trkpt lat="43.3020452" lon="11.322451"><ele>227.33333333333334</ele><time>2026-03-29T13:17:15.858Z</time></trkpt><trkpt lat="43.3019042" lon="11.3226523"><ele>227.0</ele><time>2026-03-29T13:17:16.852Z</time></trkpt><trkpt lat="43.301769" lon="11.3228555"><ele>227.0</ele><time>2026-03-29T13:17:17.834Z</time></trkpt><trkpt lat="43.3016289" lon="11.3230614"><ele>227.0</ele><time>2026-03-29T13:17:18.86Z</time></trkpt><trkpt lat="43.3014912" lon="11.3232674"><ele>227.0</ele><time>2026-03-29T13:17:19.85Z</time></trkpt><trkpt lat="43.3013552" lon="11.3234791"><ele>227.0</ele><time>2026-03-29T13:17:20.854Z</time></trkpt><trkpt lat="43.3012226" lon="11.3236868"><ele>227.0</ele><time>2026-03-29T13:17:21.849Z</time></trkpt><trkpt lat="43.3010969" lon="11.3238885"><ele>227.0</ele><time>2026-03-29T13:17:22.847Z</time></trkpt><trkpt lat="43.3009752" lon="11.3240814"><ele>226.0</ele><time>2026-03-29T13:17:23.834Z</time></trkpt><trkpt lat="43.3008527" lon="11.324273"><ele>225.0</ele><time>2026-03-29T13:17:24.861Z</time></trkpt><trkpt lat="43.3007485" lon="11.3244394"><ele>224.0</ele><time>2026-03-29T13:17:25.84Z</time></trkpt><trkpt lat="43.300639" lon="11.3246094"><ele>223.5</ele><time>2026-03-29T13:17:26.862Z</time></trkpt><trkpt lat="43.3005332" lon="11.3247738"><ele>223.0</ele><time>2026-03-29T13:17:27.862Z</time></trkpt><trkpt lat="43.3004404" lon="11.3249329"><ele>222.5</ele><time>2026-03-29T13:17:28.842Z</time></trkpt><trkpt lat="43.3003629" lon="11.3250781"><ele>222.0</ele><time>2026-03-29T13:17:29.837Z</time></trkpt><trkpt lat="43.3002841" lon="11.3252113"><ele>222.0</ele><time>2026-03-29T13:17:30.854Z</time></trkpt><trkpt lat="43.3002211" lon="11.32532"><ele>222.0</ele><time>2026-03-29T13:17:31.844Z</time></trkpt><trkpt lat="43.3001512" lon="11.3253925"><ele>222.0</ele><time>2026-03-29T13:17:32.839Z</time></trkpt><trkpt lat="43.3000842" lon="11.3254245"><ele>222.0</ele><time>2026-03-29T13:17:33.856Z</time></trkpt><trkpt lat="43.3000152" lon="11.3254255"><ele>222.0</ele><time>2026-03-29T13:17:34.849Z</time></trkpt><trkpt lat="43.2999412" lon="11.3254004"><ele>222.0</ele><time>2026-03-29T13:17:35.857Z</time></trkpt><trkpt lat="43.2998527" lon="11.3253403"><ele>222.0</ele><time>2026-03-29T13:17:36.862Z</time></trkpt><trkpt lat="43.2997625" lon="11.3252584"><ele>222.0</ele><time>2026-03-29T13:17:37.864Z</time></trkpt><trkpt lat="43.2996694" lon="11.3251713"><ele>222.0</ele><time>2026-03-29T13:17:38.87Z</time></trkpt><trkpt lat="43.2995699" lon="11.3250864"><ele>222.0</ele><time>2026-03-29T13:17:39.873Z</time></trkpt><trkpt lat="43.2994735" lon="11.3250248"><ele>222.0</ele><time>2026-03-29T13:17:40.875Z</time></trkpt><trkpt lat="43.2993791" lon="11.3249785"><ele>222.0</ele><time>2026-03-29T13:17:41.846Z</time></trkpt><trkpt lat="43.2993068" lon="11.3249633"><ele>222.0</ele><time>2026-03-29T13:17:42.86Z</time></trkpt><trkpt lat="43.2992215" lon="11.3249837"><ele>222.0</ele><time>2026-03-29T13:17:43.854Z</time></trkpt><trkpt lat="43.2991365" lon="11.3250387"><ele>222.0</ele><time>2026-03-29T13:17:44.86Z</time></trkpt><trkpt lat="43.2990582" lon="11.3251298"><ele>222.0</ele><time>2026-03-29T13:17:45.853Z</time></trkpt><trkpt lat="43.2989962" lon="11.3252459"><ele>222.0</ele><time>2026-03-29T13:17:46.893Z</time></trkpt><trkpt lat="43.2989599" lon="11.3253804"><ele>222.0</ele><time>2026-03-29T13:17:47.84Z</time></trkpt><trkpt lat="43.2989467" lon="11.3255257"><ele>222.0</ele><time>2026-03-29T13:17:48.872Z</time></trkpt><trkpt lat="43.2989329" lon="11.3256644"><ele>222.0</ele><time>2026-03-29T13:17:49.846Z</time></trkpt><trkpt lat="43.2989227" lon="11.3258046"><ele>222.0</ele><time>2026-03-29T13:17:50.856Z</time></trkpt><trkpt lat="43.298909" lon="11.3259478"><ele>221.8</ele><time>2026-03-29T13:17:51.851Z</time></trkpt><trkpt lat="43.2988955" lon="11.3260989"><ele>221.6</ele><time>2026-03-29T13:17:52.849Z</time></trkpt><trkpt lat="43.298876" lon="11.3262553"><ele>221.40000000000003</ele><time>2026-03-29T13:17:53.852Z</time></trkpt><trkpt lat="43.2988583" lon="11.3264018"><ele>221.20000000000002</ele><time>2026-03-29T13:17:54.852Z</time></trkpt><trkpt lat="43.2988388" lon="11.3265295"><ele>221.0</ele><time>2026-03-29T13:17:55.842Z</time></trkpt><trkpt lat="43.2988226" lon="11.3266428"><ele>221.00000000000003</ele><time>2026-03-29T13:17:56.846Z</time></trkpt><trkpt lat="43.2988095" lon="11.3267341"><ele>221.0</ele><time>2026-03-29T13:17:57.858Z</time></trkpt><trkpt lat="43.2987925" lon="11.3268265"><ele>221.0</ele><time>2026-03-29T13:17:59.848Z</time></trkpt><trkpt lat="43.2987625" lon="11.3269458"><ele>221.0</ele><time>2026-03-29T13:18:04.845Z</time></trkpt><trkpt lat="43.2987009" lon="11.3270238"><ele>221.00000000000003</ele><time>2026-03-29T13:18:07.856Z</time></trkpt><trkpt lat="43.2986414" lon="11.3271077"><ele>221.0</ele><time>2026-03-29T13:18:10.852Z</time></trkpt><trkpt lat="43.2986367" lon="11.3272033"><ele>220.33333333333334</ele><time>2026-03-29T13:18:12.846Z</time></trkpt><trkpt lat="43.2986559" lon="11.3272938"><ele>219.66666666666669</ele><time>2026-03-29T13:18:13.857Z</time></trkpt><trkpt lat="43.2986897" lon="11.3273797"><ele>219.0</ele><time>2026-03-29T13:18:14.848Z</time></trkpt><trkpt lat="43.2987368" lon="11.3274742"><ele>218.33333333333331</ele><time>2026-03-29T13:18:15.846Z</time></trkpt><trkpt lat="43.2987971" lon="11.3275702"><ele>217.66666666666666</ele><time>2026-03-29T13:18:16.849Z</time></trkpt><trkpt lat="43.298869" lon="11.3276716"><ele>217.0</ele><time>2026-03-29T13:18:17.885Z</time></trkpt><trkpt lat="43.2989377" lon="11.3277523"><ele>216.8</ele><time>2026-03-29T13:18:18.875Z</time></trkpt><trkpt lat="43.2990084" lon="11.3278306"><ele>216.6</ele><time>2026-03-29T13:18:19.893Z</time></trkpt><trkpt lat="43.2990684" lon="11.327897"><ele>216.40000000000003</ele><time>2026-03-29T13:18:20.859Z</time></trkpt><trkpt lat="43.299154" lon="11.3279942"><ele>216.20000000000002</ele><time>2026-03-29T13:18:21.858Z</time></trkpt><trkpt lat="43.2992444" lon="11.3280639"><ele>216.0</ele><time>2026-03-29T13:18:22.852Z</time></trkpt><trkpt lat="43.2993549" lon="11.3281051"><ele>216.0</ele><time>2026-03-29T13:18:23.892Z</time></trkpt><trkpt lat="43.2994526" lon="11.3281081"><ele>216.00000000000003</ele><time>2026-03-29T13:18:24.853Z</time></trkpt><trkpt lat="43.2995631" lon="11.3280819"><ele>216.00000000000003</ele><time>2026-03-29T13:18:25.847Z</time></trkpt><trkpt lat="43.2996573" lon="11.3280257"><ele>216.0</ele><time>2026-03-29T13:18:26.838Z</time></trkpt><trkpt lat="43.2997452" lon="11.327945"><ele>216.0</ele><time>2026-03-29T13:18:27.841Z</time></trkpt><trkpt lat="43.2998062" lon="11.3278629"><ele>217.0</ele><time>2026-03-29T13:18:28.838Z</time></trkpt><trkpt lat="43.2998385" lon="11.3277677"><ele>218.0</ele><time>2026-03-29T13:18:29.85Z</time></trkpt><trkpt lat="43.2998639" lon="11.3275953"><ele>219.0</ele><time>2026-03-29T13:18:31.87Z</time></trkpt><trkpt lat="43.2998805" lon="11.3274873"><ele>220.0</ele><time>2026-03-29T13:18:32.848Z</time></trkpt><trkpt lat="43.2998941" lon="11.3273954"><ele>221.0</ele><time>2026-03-29T13:18:33.852Z</time></trkpt><trkpt lat="43.2999166" lon="11.3272886"><ele>222.0</ele><time>2026-03-29T13:18:34.847Z</time></trkpt><trkpt lat="43.2999372" lon="11.3271733"><ele>222.0</ele><time>2026-03-29T13:18:35.856Z</time></trkpt><trkpt lat="43.2999558" lon="11.3270536"><ele>222.0</ele><time>2026-03-29T13:18:36.84Z</time></trkpt><trkpt lat="43.2999778" lon="11.3269381"><ele>222.0</ele><time>2026-03-29T13:18:37.849Z</time></trkpt><trkpt lat="43.3000045" lon="11.3268365"><ele>222.0</ele><time>2026-03-29T13:18:38.839Z</time></trkpt><trkpt lat="43.3000418" lon="11.3267598"><ele>222.0</ele><time>2026-03-29T13:18:39.859Z</time></trkpt><trkpt lat="43.3001301" lon="11.3266878"><ele>222.0</ele><time>2026-03-29T13:18:41.853Z</time></trkpt><trkpt lat="43.3002157" lon="11.326679"><ele>222.0</ele><time>2026-03-29T13:18:44.851Z</time></trkpt><trkpt lat="43.3002893" lon="11.3267275"><ele>222.0</ele><time>2026-03-29T13:18:47.853Z</time></trkpt><trkpt lat="43.3003229" lon="11.3268186"><ele>222.0</ele><time>2026-03-29T13:18:49.851Z</time></trkpt><trkpt lat="43.3002862" lon="11.3269537"><ele>222.0</ele><time>2026-03-29T13:18:51.852Z</time></trkpt><trkpt lat="43.3002393" lon="11.3270176"><ele>222.0</ele><time>2026-03-29T13:18:52.845Z</time></trkpt><trkpt lat="43.3001831" lon="11.3270643"><ele>222.0</ele><time>2026-03-29T13:18:53.865Z</time></trkpt><trkpt lat="43.3001211" lon="11.3271129"><ele>222.0</ele><time>2026-03-29T13:18:54.841Z</time></trkpt><trkpt lat="43.3000747" lon="11.3271798"><ele>222.0</ele><time>2026-03-29T13:18:55.851Z</time></trkpt><trkpt lat="43.300033" lon="11.3272744"><ele>222.0</ele><time>2026-03-29T13:18:56.855Z</time></trkpt><trkpt lat="43.3000059" lon="11.327379"><ele>222.0</ele><time>2026-03-29T13:18:57.841Z</time></trkpt><trkpt lat="43.2999903" lon="11.3275032"><ele>222.0</ele><time>2026-03-29T13:18:58.879Z</time></trkpt><trkpt lat="43.2999748" lon="11.3276222"><ele>222.0</ele><time>2026-03-29T13:18:59.851Z</time></trkpt><trkpt lat="43.2999519" lon="11.3277413"><ele>222.2</ele><time>2026-03-29T13:19:00.844Z</time></trkpt><trkpt lat="43.2999179" lon="11.327837"><ele>222.39999999999998</ele><time>2026-03-29T13:19:01.863Z</time></trkpt><trkpt lat="43.299871" lon="11.3279403"><ele>222.60000000000002</ele><time>2026-03-29T13:19:02.867Z</time></trkpt><trkpt lat="43.2998217" lon="11.3280498"><ele>222.8</ele><time>2026-03-29T13:19:03.881Z</time></trkpt><trkpt lat="43.2997624" lon="11.3281629"><ele>223.0</ele><time>2026-03-29T13:19:04.866Z</time></trkpt><trkpt lat="43.2997085" lon="11.3282793"><ele>222.5</ele><time>2026-03-29T13:19:05.852Z</time></trkpt><trkpt lat="43.2996515" lon="11.3284147"><ele>222.0</ele><time>2026-03-29T13:19:06.864Z</time></trkpt><trkpt lat="43.2995926" lon="11.3285709"><ele>221.5</ele><time>2026-03-29T13:19:07.852Z</time></trkpt><trkpt lat="43.2995302" lon="11.3287387"><ele>221.0</ele><time>2026-03-29T13:19:08.844Z</time></trkpt><trkpt lat="43.2994751" lon="11.328897"><ele>221.8</ele><time>2026-03-29T13:19:09.845Z</time></trkpt><trkpt lat="43.299421" lon="11.3290526"><ele>222.60000000000002</ele><time>2026-03-29T13:19:10.861Z</time></trkpt><trkpt lat="43.2993685" lon="11.3291986"><ele>223.4</ele><time>2026-03-29T13:19:11.852Z</time></trkpt><trkpt lat="43.2993211" lon="11.3293324"><ele>224.2</ele><time>2026-03-29T13:19:12.867Z</time></trkpt><trkpt lat="43.2992836" lon="11.329448"><ele>225.0</ele><time>2026-03-29T13:19:13.859Z</time></trkpt><trkpt lat="43.2992444" lon="11.3295594"><ele>225.0</ele><time>2026-03-29T13:19:14.856Z</time></trkpt><trkpt lat="43.2992032" lon="11.3296753"><ele>225.0</ele><time>2026-03-29T13:19:15.849Z</time></trkpt><trkpt lat="43.2991561" lon="11.3297859"><ele>225.0</ele><time>2026-03-29T13:19:16.856Z</time></trkpt><trkpt lat="43.2990996" lon="11.3299024"><ele>225.0</ele><time>2026-03-29T13:19:17.855Z</time></trkpt><trkpt lat="43.2990375" lon="11.3300059"><ele>225.0</ele><time>2026-03-29T13:19:18.853Z</time></trkpt><trkpt lat="43.2989628" lon="11.3301126"><ele>224.5</ele><time>2026-03-29T13:19:19.858Z</time></trkpt><trkpt lat="43.2988809" lon="11.3302188"><ele>224.0</ele><time>2026-03-29T13:19:20.871Z</time></trkpt><trkpt lat="43.2987812" lon="11.3303399"><ele>223.5</ele><time>2026-03-29T13:19:21.834Z</time></trkpt><trkpt lat="43.2986609" lon="11.3304754"><ele>223.0</ele><time>2026-03-29T13:19:22.875Z</time></trkpt><trkpt lat="43.2985652" lon="11.3305995"><ele>224.0</ele><time>2026-03-29T13:19:23.87Z</time></trkpt><trkpt lat="43.2984768" lon="11.3307168"><ele>225.0</ele><time>2026-03-29T13:19:24.856Z</time></trkpt><trkpt lat="43.298372" lon="11.3308442"><ele>226.0</ele><time>2026-03-29T13:19:25.848Z</time></trkpt><trkpt lat="43.2982697" lon="11.3309863"><ele>227.0</ele><time>2026-03-29T13:19:26.874Z</time></trkpt><trkpt lat="43.2981811" lon="11.3311362"><ele>227.0</ele><time>2026-03-29T13:19:27.869Z</time></trkpt><trkpt lat="43.2981058" lon="11.3312836"><ele>227.0</ele><time>2026-03-29T13:19:28.847Z</time></trkpt><trkpt lat="43.2980426" lon="11.3314372"><ele>227.0</ele><time>2026-03-29T13:19:29.842Z</time></trkpt><trkpt lat="43.2979863" lon="11.3315917"><ele>227.0</ele><time>2026-03-29T13:19:30.852Z</time></trkpt><trkpt lat="43.2979353" lon="11.3317381"><ele>226.6</ele><time>2026-03-29T13:19:31.853Z</time></trkpt><trkpt lat="43.2978862" lon="11.3318677"><ele>226.2</ele><time>2026-03-29T13:19:32.861Z</time></trkpt><trkpt lat="43.2978394" lon="11.3319862"><ele>225.8</ele><time>2026-03-29T13:19:33.849Z</time></trkpt><trkpt lat="43.2977817" lon="11.3320987"><ele>225.4</ele><time>2026-03-29T13:19:34.861Z</time></trkpt><trkpt lat="43.2976996" lon="11.3322248"><ele>225.0</ele><time>2026-03-29T13:19:35.848Z</time></trkpt><trkpt lat="43.2976166" lon="11.3323281"><ele>225.0</ele><time>2026-03-29T13:19:36.859Z</time></trkpt><trkpt lat="43.2975209" lon="11.332419"><ele>225.0</ele><time>2026-03-29T13:19:37.859Z</time></trkpt><trkpt lat="43.2974222" lon="11.3324862"><ele>225.0</ele><time>2026-03-29T13:19:38.886Z</time></trkpt><trkpt lat="43.29732" lon="11.3325353"><ele>225.0</ele><time>2026-03-29T13:19:39.846Z</time></trkpt><trkpt lat="43.2972095" lon="11.3325886"><ele>223.25</ele><time>2026-03-29T13:19:40.849Z</time></trkpt><trkpt lat="43.2971427" lon="11.3326382"><ele>221.5</ele><time>2026-03-29T13:19:41.847Z</time></trkpt><trkpt lat="43.2970336" lon="11.3327147"><ele>219.75</ele><time>2026-03-29T13:19:42.873Z</time></trkpt><trkpt lat="43.2969379" lon="11.3328012"><ele>218.0</ele><time>2026-03-29T13:19:43.844Z</time></trkpt><trkpt lat="43.2968288" lon="11.3329163"><ele>218.0</ele><time>2026-03-29T13:19:44.849Z</time></trkpt><trkpt lat="43.2967279" lon="11.3330408"><ele>218.0</ele><time>2026-03-29T13:19:45.853Z</time></trkpt><trkpt lat="43.296644" lon="11.3331781"><ele>218.0</ele><time>2026-03-29T13:19:46.86Z</time></trkpt><trkpt lat="43.2965761" lon="11.3333112"><ele>218.0</ele><time>2026-03-29T13:19:47.853Z</time></trkpt><trkpt lat="43.2965212" lon="11.3334291"><ele>217.83333333333334</ele><time>2026-03-29T13:19:48.839Z</time></trkpt><trkpt lat="43.2964809" lon="11.3335306"><ele>217.66666666666669</ele><time>2026-03-29T13:19:49.857Z</time></trkpt><trkpt lat="43.2964485" lon="11.333622"><ele>217.5</ele><time>2026-03-29T13:19:50.855Z</time></trkpt><trkpt lat="43.2964211" lon="11.3337025"><ele>217.33333333333331</ele><time>2026-03-29T13:19:51.847Z</time></trkpt><trkpt lat="43.2963786" lon="11.3338523"><ele>217.16666666666666</ele><time>2026-03-29T13:19:53.854Z</time></trkpt><trkpt lat="43.2963513" lon="11.3339346"><ele>217.0</ele><time>2026-03-29T13:19:54.866Z</time></trkpt><trkpt lat="43.2963273" lon="11.3340228"><ele>216.2</ele><time>2026-03-29T13:19:55.864Z</time></trkpt><trkpt lat="43.2963005" lon="11.3341296"><ele>215.39999999999998</ele><time>2026-03-29T13:19:56.858Z</time></trkpt><trkpt lat="43.2962622" lon="11.3342394"><ele>214.60000000000002</ele><time>2026-03-29T13:19:57.841Z</time></trkpt><trkpt lat="43.2962021" lon="11.3343586"><ele>213.8</ele><time>2026-03-29T13:19:58.865Z</time></trkpt><trkpt lat="43.2961304" lon="11.3344862"><ele>213.0</ele><time>2026-03-29T13:19:59.849Z</time></trkpt><trkpt lat="43.2960376" lon="11.3346386"><ele>213.0</ele><time>2026-03-29T13:20:00.881Z</time></trkpt><trkpt lat="43.2959334" lon="11.3347924"><ele>213.0</ele><time>2026-03-29T13:20:01.887Z</time></trkpt><trkpt lat="43.2958203" lon="11.3349437"><ele>213.0</ele><time>2026-03-29T13:20:02.845Z</time></trkpt><trkpt lat="43.2957049" lon="11.335103"><ele>213.0</ele><time>2026-03-29T13:20:03.878Z</time></trkpt><trkpt lat="43.2956337" lon="11.3352322"><ele>213.0</ele><time>2026-03-29T13:20:04.864Z</time></trkpt><trkpt lat="43.2955225" lon="11.3353827"><ele>213.0</ele><time>2026-03-29T13:20:05.847Z</time></trkpt><trkpt lat="43.295426" lon="11.33555"><ele>213.0</ele><time>2026-03-29T13:20:06.845Z</time></trkpt><trkpt lat="43.2953348" lon="11.3357335"><ele>212.75</ele><time>2026-03-29T13:20:07.849Z</time></trkpt><trkpt lat="43.2952684" lon="11.3359085"><ele>212.5</ele><time>2026-03-29T13:20:08.909Z</time></trkpt><trkpt lat="43.2952424" lon="11.3360482"><ele>212.25</ele><time>2026-03-29T13:20:09.879Z</time></trkpt><trkpt lat="43.2952258" lon="11.3362112"><ele>212.0</ele><time>2026-03-29T13:20:10.847Z</time></trkpt><trkpt lat="43.2952295" lon="11.336371"><ele>212.2</ele><time>2026-03-29T13:20:11.856Z</time></trkpt><trkpt lat="43.2952421" lon="11.3365108"><ele>212.39999999999998</ele><time>2026-03-29T13:20:12.84Z</time></trkpt><trkpt lat="43.2952638" lon="11.3366409"><ele>212.60000000000002</ele><time>2026-03-29T13:20:13.855Z</time></trkpt><trkpt lat="43.2953047" lon="11.3367691"><ele>212.8</ele><time>2026-03-29T13:20:14.877Z</time></trkpt><trkpt lat="43.2953545" lon="11.3368911"><ele>213.0</ele><time>2026-03-29T13:20:15.872Z</time></trkpt><trkpt lat="43.2954045" lon="11.337004"><ele>213.0</ele><time>2026-03-29T13:20:16.855Z</time></trkpt><trkpt lat="43.2954862" lon="11.3371143"><ele>213.0</ele><time>2026-03-29T13:20:17.873Z</time></trkpt><trkpt lat="43.2955809" lon="11.3372563"><ele>213.0</ele><time>2026-03-29T13:20:19.859Z</time></trkpt><trkpt lat="43.2956645" lon="11.3373706"><ele>213.0</ele><time>2026-03-29T13:20:20.835Z</time></trkpt><trkpt lat="43.2957767" lon="11.3375228"><ele>215.0</ele><time>2026-03-29T13:20:22.849Z</time></trkpt><trkpt lat="43.2958517" lon="11.3376117"><ele>217.0</ele><time>2026-03-29T13:20:23.871Z</time></trkpt><trkpt lat="43.295982" lon="11.3377539"><ele>219.0</ele><time>2026-03-29T13:20:24.848Z</time></trkpt><trkpt lat="43.2965091" lon="11.3378655"><ele>220.39999999999998</ele><time>2026-03-29T13:20:25.88Z</time></trkpt><trkpt lat="43.2965799" lon="11.3379805"><ele>221.79999999999998</ele><time>2026-03-29T13:20:26.851Z</time></trkpt><trkpt lat="43.2966263" lon="11.3381149"><ele>223.20000000000002</ele><time>2026-03-29T13:20:27.847Z</time></trkpt><trkpt lat="43.2966419" lon="11.3382591"><ele>224.60000000000002</ele><time>2026-03-29T13:20:28.845Z</time></trkpt><trkpt lat="43.2966421" lon="11.3384052"><ele>226.0</ele><time>2026-03-29T13:20:29.891Z</time></trkpt><trkpt lat="43.2965777" lon="11.3384484"><ele>225.33333333333331</ele><time>2026-03-29T13:20:30.845Z</time></trkpt><trkpt lat="43.2964652" lon="11.3385505"><ele>224.66666666666669</ele><time>2026-03-29T13:20:32.858Z</time></trkpt><trkpt lat="43.2962838" lon="11.3386259"><ele>224.0</ele><time>2026-03-29T13:20:33.846Z</time></trkpt><trkpt lat="43.2961758" lon="11.3387261"><ele>224.0</ele><time>2026-03-29T13:20:34.848Z</time></trkpt><trkpt lat="43.2960684" lon="11.3388214"><ele>224.0</ele><time>2026-03-29T13:20:35.855Z</time></trkpt><trkpt lat="43.2959567" lon="11.3389758"><ele>224.0</ele><time>2026-03-29T13:20:36.854Z</time></trkpt><trkpt lat="43.2957727" lon="11.3392162"><ele>223.5</ele><time>2026-03-29T13:20:38.163Z</time></trkpt><trkpt lat="43.2957006" lon="11.3393791"><ele>223.0</ele><time>2026-03-29T13:20:39.916Z</time></trkpt><trkpt lat="43.2955644" lon="11.3395684"><ele>222.5</ele><time>2026-03-29T13:20:40.905Z</time></trkpt><trkpt lat="43.2954849" lon="11.3396476"><ele>222.0</ele><time>2026-03-29T13:20:42.896Z</time></trkpt><trkpt lat="43.2954397" lon="11.3397909"><ele>224.0</ele><time>2026-03-29T13:20:43.928Z</time></trkpt><trkpt lat="43.2953925" lon="11.3398562"><ele>226.0</ele><time>2026-03-29T13:20:44.844Z</time></trkpt><trkpt lat="43.2953349" lon="11.3399405"><ele>228.0</ele><time>2026-03-29T13:20:45.842Z</time></trkpt><trkpt lat="43.2952798" lon="11.3400534"><ele>230.0</ele><time>2026-03-29T13:20:46.864Z</time></trkpt><trkpt lat="43.2952358" lon="11.3402378"><ele>232.0</ele><time>2026-03-29T13:20:48.874Z</time></trkpt><trkpt lat="43.2952379" lon="11.3403471"><ele>231.99999999999997</ele><time>2026-03-29T13:20:49.851Z</time></trkpt><trkpt lat="43.2952246" lon="11.3404348"><ele>232.0</ele><time>2026-03-29T13:20:50.88Z</time></trkpt><trkpt lat="43.2952039" lon="11.3405241"><ele>232.0</ele><time>2026-03-29T13:20:51.856Z</time></trkpt><trkpt lat="43.2951691" lon="11.3406424"><ele>232.0</ele><time>2026-03-29T13:20:53.851Z</time></trkpt><trkpt lat="43.2951703" lon="11.340743"><ele>231.99999999999997</ele><time>2026-03-29T13:20:54.863Z</time></trkpt><trkpt lat="43.295189" lon="11.340912"><ele>232.0</ele><time>2026-03-29T13:20:55.846Z</time></trkpt><trkpt lat="43.2952367" lon="11.3409836"><ele>232.8</ele><time>2026-03-29T13:20:57.163Z</time></trkpt><trkpt lat="43.2953302" lon="11.3411079"><ele>233.6</ele><time>2026-03-29T13:20:58.916Z</time></trkpt><trkpt lat="43.2954167" lon="11.3411747"><ele>234.40000000000003</ele><time>2026-03-29T13:21:00.919Z</time></trkpt><trkpt lat="43.2954995" lon="11.3412017"><ele>235.20000000000002</ele><time>2026-03-29T13:21:02.919Z</time></trkpt><trkpt lat="43.2955646" lon="11.3412217"><ele>236.0</ele><time>2026-03-29T13:21:03.904Z</time></trkpt><trkpt lat="43.2956474" lon="11.3412569"><ele>237.8</ele><time>2026-03-29T13:21:05.899Z</time></trkpt><trkpt lat="43.2957214" lon="11.3413884"><ele>239.60000000000002</ele><time>2026-03-29T13:21:08.922Z</time></trkpt><trkpt lat="43.2957675" lon="11.3414678"><ele>241.4</ele><time>2026-03-29T13:21:10.905Z</time></trkpt><trkpt lat="43.2958276" lon="11.3415504"><ele>243.2</ele><time>2026-03-29T13:21:12.9Z</time></trkpt><trkpt lat="43.2958552" lon="11.3416652"><ele>245.0</ele><time>2026-03-29T13:21:14.919Z</time></trkpt><trkpt lat="43.2958293" lon="11.3417892"><ele>245.00000000000003</ele><time>2026-03-29T13:21:16.906Z</time></trkpt><trkpt lat="43.2957551" lon="11.3419141"><ele>245.0</ele><time>2026-03-29T13:21:18.899Z</time></trkpt><trkpt lat="43.2957083" lon="11.341979"><ele>245.0</ele><time>2026-03-29T13:21:19.902Z</time></trkpt><trkpt lat="43.2956518" lon="11.3420594"><ele>245.0</ele><time>2026-03-29T13:21:20.962Z</time></trkpt><trkpt lat="43.2956019" lon="11.3421361"><ele>245.00000000000003</ele><time>2026-03-29T13:21:21.922Z</time></trkpt><trkpt lat="43.2955298" lon="11.3422131"><ele>245.0</ele><time>2026-03-29T13:21:22.907Z</time></trkpt><trkpt lat="43.2954478" lon="11.342294"><ele>245.0</ele><time>2026-03-29T13:21:23.916Z</time></trkpt><trkpt lat="43.295361" lon="11.3423726"><ele>245.0</ele><time>2026-03-29T13:21:24.91Z</time></trkpt><trkpt lat="43.2952571" lon="11.3424436"><ele>245.0</ele><time>2026-03-29T13:21:25.905Z</time></trkpt><trkpt lat="43.2951544" lon="11.3425154"><ele>245.0</ele><time>2026-03-29T13:21:26.873Z</time></trkpt><trkpt lat="43.2950544" lon="11.3425739"><ele>245.0</ele><time>2026-03-29T13:21:27.846Z</time></trkpt><trkpt lat="43.2949457" lon="11.3426346"><ele>245.0</ele><time>2026-03-29T13:21:28.853Z</time></trkpt><trkpt lat="43.2948353" lon="11.3426974"><ele>245.0</ele><time>2026-03-29T13:21:29.851Z</time></trkpt><trkpt lat="43.2947364" lon="11.3427616"><ele>245.0</ele><time>2026-03-29T13:21:30.853Z</time></trkpt><trkpt lat="43.2946274" lon="11.3428204"><ele>245.0</ele><time>2026-03-29T13:21:31.859Z</time></trkpt><trkpt lat="43.2945176" lon="11.3428757"><ele>244.75</ele><time>2026-03-29T13:21:32.851Z</time></trkpt><trkpt lat="43.2944103" lon="11.3429266"><ele>244.5</ele><time>2026-03-29T13:21:33.853Z</time></trkpt><trkpt lat="43.2943015" lon="11.3429705"><ele>244.25</ele><time>2026-03-29T13:21:34.853Z</time></trkpt><trkpt lat="43.2941891" lon="11.3430158"><ele>244.0</ele><time>2026-03-29T13:21:35.867Z</time></trkpt><trkpt lat="43.2940848" lon="11.3430568"><ele>244.0</ele><time>2026-03-29T13:21:36.871Z</time></trkpt><trkpt lat="43.293979" lon="11.3430931"><ele>243.99999999999997</ele><time>2026-03-29T13:21:37.86Z</time></trkpt><trkpt lat="43.2938734" lon="11.3431236"><ele>243.99999999999997</ele><time>2026-03-29T13:21:38.848Z</time></trkpt><trkpt lat="43.2937604" lon="11.3431501"><ele>244.0</ele><time>2026-03-29T13:21:39.86Z</time></trkpt><trkpt lat="43.2936439" lon="11.3431729"><ele>244.0</ele><time>2026-03-29T13:21:40.858Z</time></trkpt><trkpt lat="43.2935333" lon="11.3432028"><ele>243.79999999999998</ele><time>2026-03-29T13:21:41.849Z</time></trkpt><trkpt lat="43.293432" lon="11.3432352"><ele>243.59999999999997</ele><time>2026-03-29T13:21:42.86Z</time></trkpt><trkpt lat="43.2933311" lon="11.3432681"><ele>243.4</ele><time>2026-03-29T13:21:43.854Z</time></trkpt><trkpt lat="43.2932319" lon="11.3433025"><ele>243.2</ele><time>2026-03-29T13:21:44.848Z</time></trkpt><trkpt lat="43.2931353" lon="11.3433369"><ele>243.0</ele><time>2026-03-29T13:21:45.846Z</time></trkpt><trkpt lat="43.2930525" lon="11.3433607"><ele>243.8</ele><time>2026-03-29T13:21:46.85Z</time></trkpt><trkpt lat="43.2929578" lon="11.3433835"><ele>244.60000000000002</ele><time>2026-03-29T13:21:47.865Z</time></trkpt><trkpt lat="43.2928567" lon="11.3434111"><ele>245.39999999999998</ele><time>2026-03-29T13:21:48.856Z</time></trkpt><trkpt lat="43.2927443" lon="11.3434474"><ele>246.2</ele><time>2026-03-29T13:21:49.895Z</time></trkpt><trkpt lat="43.2926348" lon="11.3434936"><ele>247.0</ele><time>2026-03-29T13:21:50.873Z</time></trkpt><trkpt lat="43.29253" lon="11.343544"><ele>247.0</ele><time>2026-03-29T13:21:51.861Z</time></trkpt><trkpt lat="43.2924263" lon="11.343603"><ele>247.0</ele><time>2026-03-29T13:21:52.846Z</time></trkpt><trkpt lat="43.292287" lon="11.3436652"><ele>247.0</ele><time>2026-03-29T13:21:53.848Z</time></trkpt><trkpt lat="43.2921338" lon="11.3437241"><ele>247.0</ele><time>2026-03-29T13:21:54.879Z</time></trkpt><trkpt lat="43.2919804" lon="11.3437794"><ele>246.0</ele><time>2026-03-29T13:21:55.86Z</time></trkpt><trkpt lat="43.2918296" lon="11.3438292"><ele>245.0</ele><time>2026-03-29T13:21:56.868Z</time></trkpt><trkpt lat="43.2916882" lon="11.3438819"><ele>244.0</ele><time>2026-03-29T13:21:57.85Z</time></trkpt><trkpt lat="43.2915351" lon="11.3439273"><ele>244.0</ele><time>2026-03-29T13:21:58.853Z</time></trkpt><trkpt lat="43.2913682" lon="11.3439652"><ele>244.0</ele><time>2026-03-29T13:21:59.857Z</time></trkpt><trkpt lat="43.2912107" lon="11.3439895"><ele>244.0</ele><time>2026-03-29T13:22:00.843Z</time></trkpt><trkpt lat="43.2910364" lon="11.3440026"><ele>244.0</ele><time>2026-03-29T13:22:01.868Z</time></trkpt><trkpt lat="43.2908658" lon="11.3440091"><ele>244.0</ele><time>2026-03-29T13:22:02.868Z</time></trkpt><trkpt lat="43.2907091" lon="11.3440028"><ele>244.0</ele><time>2026-03-29T13:22:03.847Z</time></trkpt><trkpt lat="43.2905387" lon="11.3439867"><ele>245.0</ele><time>2026-03-29T13:22:04.854Z</time></trkpt><trkpt lat="43.2903756" lon="11.3439657"><ele>246.0</ele><time>2026-03-29T13:22:05.843Z</time></trkpt><trkpt lat="43.2902173" lon="11.3439357"><ele>247.0</ele><time>2026-03-29T13:22:06.86Z</time></trkpt><trkpt lat="43.2900554" lon="11.3438842"><ele>247.0</ele><time>2026-03-29T13:22:07.866Z</time></trkpt><trkpt lat="43.2898972" lon="11.3438461"><ele>247.0</ele><time>2026-03-29T13:22:08.852Z</time></trkpt><trkpt lat="43.2897326" lon="11.3438108"><ele>247.0</ele><time>2026-03-29T13:22:09.861Z</time></trkpt><trkpt lat="43.289583" lon="11.3438017"><ele>247.25</ele><time>2026-03-29T13:22:10.865Z</time></trkpt><trkpt lat="43.2894469" lon="11.3437989"><ele>247.5</ele><time>2026-03-29T13:22:11.859Z</time></trkpt><trkpt lat="43.2893221" lon="11.3437922"><ele>247.75</ele><time>2026-03-29T13:22:12.862Z</time></trkpt><trkpt lat="43.2892021" lon="11.3437999"><ele>248.0</ele><time>2026-03-29T13:22:13.853Z</time></trkpt><trkpt lat="43.2890796" lon="11.3438138"><ele>248.0</ele><time>2026-03-29T13:22:14.867Z</time></trkpt><trkpt lat="43.2889612" lon="11.3438213"><ele>248.0</ele><time>2026-03-29T13:22:15.847Z</time></trkpt><trkpt lat="43.2888399" lon="11.3438211"><ele>248.0</ele><time>2026-03-29T13:22:16.872Z</time></trkpt><trkpt lat="43.2887365" lon="11.3438264"><ele>248.0</ele><time>2026-03-29T13:22:17.856Z</time></trkpt><trkpt lat="43.288635" lon="11.3438452"><ele>248.0</ele><time>2026-03-29T13:22:18.847Z</time></trkpt><trkpt lat="43.2885236" lon="11.3438683"><ele>248.0</ele><time>2026-03-29T13:22:19.877Z</time></trkpt><trkpt lat="43.2884087" lon="11.3438938"><ele>248.0</ele><time>2026-03-29T13:22:20.861Z</time></trkpt><trkpt lat="43.2882943" lon="11.3439257"><ele>248.0</ele><time>2026-03-29T13:22:21.891Z</time></trkpt><trkpt lat="43.2881745" lon="11.3439711"><ele>248.0</ele><time>2026-03-29T13:22:22.857Z</time></trkpt><trkpt lat="43.28804" lon="11.344032"><ele>248.0</ele><time>2026-03-29T13:22:23.85Z</time></trkpt><trkpt lat="43.2878943" lon="11.344116"><ele>248.0</ele><time>2026-03-29T13:22:24.843Z</time></trkpt><trkpt lat="43.2877421" lon="11.3442354"><ele>248.0</ele><time>2026-03-29T13:22:25.874Z</time></trkpt><trkpt lat="43.2876095" lon="11.3443602"><ele>248.0</ele><time>2026-03-29T13:22:26.835Z</time></trkpt><trkpt lat="43.2874435" lon="11.3445064"><ele>248.0</ele><time>2026-03-29T13:22:27.873Z</time></trkpt><trkpt lat="43.2872977" lon="11.3446558"><ele>248.0</ele><time>2026-03-29T13:22:28.85Z</time></trkpt><trkpt lat="43.287159" lon="11.3448102"><ele>246.66666666666669</ele><time>2026-03-29T13:22:29.853Z</time></trkpt><trkpt lat="43.2870336" lon="11.3449829"><ele>245.33333333333331</ele><time>2026-03-29T13:22:30.852Z</time></trkpt><trkpt lat="43.2869635" lon="11.3451578"><ele>244.0</ele><time>2026-03-29T13:22:31.861Z</time></trkpt><trkpt lat="43.2868771" lon="11.3453391"><ele>244.0</ele><time>2026-03-29T13:22:32.871Z</time></trkpt><trkpt lat="43.2868104" lon="11.3455186"><ele>244.0</ele><time>2026-03-29T13:22:33.849Z</time></trkpt><trkpt lat="43.286747" lon="11.3457078"><ele>244.0</ele><time>2026-03-29T13:22:34.857Z</time></trkpt><trkpt lat="43.2866987" lon="11.3459149"><ele>244.33333333333331</ele><time>2026-03-29T13:22:35.855Z</time></trkpt><trkpt lat="43.2866734" lon="11.3461459"><ele>244.66666666666669</ele><time>2026-03-29T13:22:36.85Z</time></trkpt><trkpt lat="43.2866531" lon="11.3463694"><ele>245.0</ele><time>2026-03-29T13:22:37.844Z</time></trkpt><trkpt lat="43.2866372" lon="11.3465936"><ele>243.66666666666669</ele><time>2026-03-29T13:22:38.858Z</time></trkpt><trkpt lat="43.2866313" lon="11.3468134"><ele>242.33333333333331</ele><time>2026-03-29T13:22:39.846Z</time></trkpt><trkpt lat="43.2866248" lon="11.3470453"><ele>241.0</ele><time>2026-03-29T13:22:40.848Z</time></trkpt><trkpt lat="43.2866197" lon="11.3472679"><ele>241.0</ele><time>2026-03-29T13:22:41.845Z</time></trkpt><trkpt lat="43.2865918" lon="11.3474951"><ele>241.0</ele><time>2026-03-29T13:22:42.85Z</time></trkpt><trkpt lat="43.2865567" lon="11.3477356"><ele>241.0</ele><time>2026-03-29T13:22:43.866Z</time></trkpt><trkpt lat="43.2865036" lon="11.3479689"><ele>241.33333333333331</ele><time>2026-03-29T13:22:44.853Z</time></trkpt><trkpt lat="43.286431" lon="11.3482188"><ele>241.66666666666669</ele><time>2026-03-29T13:22:45.869Z</time></trkpt><trkpt lat="43.286344" lon="11.3484828"><ele>242.0</ele><time>2026-03-29T13:22:46.859Z</time></trkpt><trkpt lat="43.286245" lon="11.3487684"><ele>238.0</ele><time>2026-03-29T13:22:47.858Z</time></trkpt><trkpt lat="43.2861329" lon="11.3490652"><ele>234.0</ele><time>2026-03-29T13:22:48.869Z</time></trkpt><trkpt lat="43.2860157" lon="11.3493697"><ele>234.0</ele><time>2026-03-29T13:22:49.86Z</time></trkpt><trkpt lat="43.285883" lon="11.3496865"><ele>234.0</ele><time>2026-03-29T13:22:50.87Z</time></trkpt><trkpt lat="43.2857649" lon="11.3499846"><ele>234.5</ele><time>2026-03-29T13:22:51.844Z</time></trkpt><trkpt lat="43.2856456" lon="11.3503023"><ele>235.0</ele><time>2026-03-29T13:22:52.868Z</time></trkpt><trkpt lat="43.2855379" lon="11.3506053"><ele>236.5</ele><time>2026-03-29T13:22:53.859Z</time></trkpt><trkpt lat="43.2854369" lon="11.3508905"><ele>238.0</ele><time>2026-03-29T13:22:54.857Z</time></trkpt><trkpt lat="43.2853365" lon="11.3511756"><ele>237.0</ele><time>2026-03-29T13:22:55.856Z</time></trkpt><trkpt lat="43.2852438" lon="11.3514393"><ele>236.0</ele><time>2026-03-29T13:22:56.84Z</time></trkpt><trkpt lat="43.2851528" lon="11.3517028"><ele>235.0</ele><time>2026-03-29T13:22:57.851Z</time></trkpt><trkpt lat="43.2850723" lon="11.3519523"><ele>235.0</ele><time>2026-03-29T13:22:58.861Z</time></trkpt><trkpt lat="43.2849946" lon="11.3521916"><ele>235.0</ele><time>2026-03-29T13:22:59.859Z</time></trkpt><trkpt lat="43.2849104" lon="11.3524077"><ele>235.0</ele><time>2026-03-29T13:23:00.865Z</time></trkpt><trkpt lat="43.284819" lon="11.3526156"><ele>235.25</ele><time>2026-03-29T13:23:01.859Z</time></trkpt><trkpt lat="43.2847217" lon="11.3527928"><ele>235.5</ele><time>2026-03-29T13:23:02.864Z</time></trkpt><trkpt lat="43.2846213" lon="11.3529324"><ele>235.75</ele><time>2026-03-29T13:23:03.876Z</time></trkpt><trkpt lat="43.2845128" lon="11.3530567"><ele>236.0</ele><time>2026-03-29T13:23:04.877Z</time></trkpt><trkpt lat="43.2844053" lon="11.3531691"><ele>236.0</ele><time>2026-03-29T13:23:05.864Z</time></trkpt><trkpt lat="43.2842858" lon="11.3532814"><ele>236.0</ele><time>2026-03-29T13:23:06.856Z</time></trkpt><trkpt lat="43.2841642" lon="11.3533834"><ele>236.0</ele><time>2026-03-29T13:23:07.856Z</time></trkpt><trkpt lat="43.284054" lon="11.3534538"><ele>236.0</ele><time>2026-03-29T13:23:08.844Z</time></trkpt><trkpt lat="43.283903" lon="11.3535299"><ele>236.5</ele><time>2026-03-29T13:23:09.886Z</time></trkpt><trkpt lat="43.2837735" lon="11.3535931"><ele>237.0</ele><time>2026-03-29T13:23:10.856Z</time></trkpt><trkpt lat="43.2836337" lon="11.3536542"><ele>237.5</ele><time>2026-03-29T13:23:11.846Z</time></trkpt><trkpt lat="43.2834788" lon="11.3536921"><ele>238.0</ele><time>2026-03-29T13:23:12.853Z</time></trkpt><trkpt lat="43.2833158" lon="11.3537051"><ele>238.0</ele><time>2026-03-29T13:23:13.856Z</time></trkpt><trkpt lat="43.2831515" lon="11.353696"><ele>238.0</ele><time>2026-03-29T13:23:14.864Z</time></trkpt><trkpt lat="43.2829933" lon="11.3536785"><ele>238.0</ele><time>2026-03-29T13:23:15.863Z</time></trkpt><trkpt lat="43.2828352" lon="11.3536621"><ele>238.0</ele><time>2026-03-29T13:23:16.854Z</time></trkpt><trkpt lat="43.2826809" lon="11.3536393"><ele>238.0</ele><time>2026-03-29T13:23:17.865Z</time></trkpt><trkpt lat="43.2825267" lon="11.3536005"><ele>238.0</ele><time>2026-03-29T13:23:18.849Z</time></trkpt><trkpt lat="43.2823696" lon="11.3535616"><ele>238.0</ele><time>2026-03-29T13:23:19.848Z</time></trkpt><trkpt lat="43.2822146" lon="11.3535167"><ele>238.0</ele><time>2026-03-29T13:23:20.862Z</time></trkpt><trkpt lat="43.2820643" lon="11.35346"><ele>238.0</ele><time>2026-03-29T13:23:21.869Z</time></trkpt><trkpt lat="43.2819255" lon="11.3534049"><ele>238.0</ele><time>2026-03-29T13:23:22.897Z</time></trkpt><trkpt lat="43.2818003" lon="11.353362"><ele>238.0</ele><time>2026-03-29T13:23:23.843Z</time></trkpt><trkpt lat="43.2816646" lon="11.3533236"><ele>238.0</ele><time>2026-03-29T13:23:24.849Z</time></trkpt><trkpt lat="43.2815299" lon="11.3532933"><ele>238.0</ele><time>2026-03-29T13:23:25.861Z</time></trkpt><trkpt lat="43.2813967" lon="11.3532631"><ele>238.0</ele><time>2026-03-29T13:23:26.852Z</time></trkpt><trkpt lat="43.2812561" lon="11.3532303"><ele>238.0</ele><time>2026-03-29T13:23:27.871Z</time></trkpt><trkpt lat="43.281121" lon="11.3531867"><ele>238.0</ele><time>2026-03-29T13:23:28.842Z</time></trkpt><trkpt lat="43.2809707" lon="11.3531329"><ele>238.0</ele><time>2026-03-29T13:23:29.849Z</time></trkpt><trkpt lat="43.2808328" lon="11.353091"><ele>238.0</ele><time>2026-03-29T13:23:30.845Z</time></trkpt><trkpt lat="43.2806784" lon="11.3530549"><ele>238.0</ele><time>2026-03-29T13:23:31.867Z</time></trkpt><trkpt lat="43.2805292" lon="11.3530175"><ele>238.0</ele><time>2026-03-29T13:23:32.858Z</time></trkpt><trkpt lat="43.2803909" lon="11.3529804"><ele>238.0</ele><time>2026-03-29T13:23:33.841Z</time></trkpt><trkpt lat="43.2802519" lon="11.3529542"><ele>235.33333333333331</ele><time>2026-03-29T13:23:34.859Z</time></trkpt><trkpt lat="43.2800851" lon="11.3529234"><ele>232.66666666666669</ele><time>2026-03-29T13:23:35.839Z</time></trkpt><trkpt lat="43.279888" lon="11.3528908"><ele>230.0</ele><time>2026-03-29T13:23:36.876Z</time></trkpt><trkpt lat="43.2796658" lon="11.3528585"><ele>229.0</ele><time>2026-03-29T13:23:37.871Z</time></trkpt><trkpt lat="43.2794503" lon="11.3528198"><ele>228.0</ele><time>2026-03-29T13:23:38.849Z</time></trkpt><trkpt lat="43.2792214" lon="11.3527766"><ele>227.0</ele><time>2026-03-29T13:23:39.875Z</time></trkpt><trkpt lat="43.2789864" lon="11.3527348"><ele>227.0</ele><time>2026-03-29T13:23:40.844Z</time></trkpt><trkpt lat="43.2787652" lon="11.3527481"><ele>227.0</ele><time>2026-03-29T13:23:41.853Z</time></trkpt><trkpt lat="43.2785618" lon="11.3527834"><ele>227.0</ele><time>2026-03-29T13:23:42.86Z</time></trkpt><trkpt lat="43.2783625" lon="11.3528561"><ele>227.0</ele><time>2026-03-29T13:23:43.874Z</time></trkpt><trkpt lat="43.2781668" lon="11.3529634"><ele>227.0</ele><time>2026-03-29T13:23:44.873Z</time></trkpt><trkpt lat="43.2779834" lon="11.353066"><ele>227.0</ele><time>2026-03-29T13:23:45.859Z</time></trkpt><trkpt lat="43.2778033" lon="11.3531753"><ele>228.33333333333334</ele><time>2026-03-29T13:23:46.867Z</time></trkpt><trkpt lat="43.2776372" lon="11.3532807"><ele>229.66666666666669</ele><time>2026-03-29T13:23:47.839Z</time></trkpt><trkpt lat="43.2774644" lon="11.3533848"><ele>231.0</ele><time>2026-03-29T13:23:48.859Z</time></trkpt><trkpt lat="43.2772928" lon="11.3534784"><ele>231.33333333333331</ele><time>2026-03-29T13:23:49.849Z</time></trkpt><trkpt lat="43.2771122" lon="11.3535645"><ele>231.66666666666666</ele><time>2026-03-29T13:23:50.851Z</time></trkpt><trkpt lat="43.2769269" lon="11.3536269"><ele>232.0</ele><time>2026-03-29T13:23:51.862Z</time></trkpt><trkpt lat="43.2767412" lon="11.3536704"><ele>232.0</ele><time>2026-03-29T13:23:52.845Z</time></trkpt><trkpt lat="43.276547" lon="11.3537107"><ele>232.0</ele><time>2026-03-29T13:23:53.854Z</time></trkpt><trkpt lat="43.276343" lon="11.3537439"><ele>232.0</ele><time>2026-03-29T13:23:54.858Z</time></trkpt><trkpt lat="43.2761263" lon="11.3537776"><ele>230.33333333333331</ele><time>2026-03-29T13:23:55.874Z</time></trkpt><trkpt lat="43.2759183" lon="11.3538064"><ele>228.66666666666669</ele><time>2026-03-29T13:23:56.85Z</time></trkpt><trkpt lat="43.2757091" lon="11.3538455"><ele>227.0</ele><time>2026-03-29T13:23:57.864Z</time></trkpt><trkpt lat="43.2755077" lon="11.3538873"><ele>225.33333333333334</ele><time>2026-03-29T13:23:58.869Z</time></trkpt><trkpt lat="43.2753242" lon="11.3539287"><ele>223.66666666666669</ele><time>2026-03-29T13:23:59.855Z</time></trkpt><trkpt lat="43.2751324" lon="11.3539661"><ele>222.0</ele><time>2026-03-29T13:24:00.877Z</time></trkpt><trkpt lat="43.2749647" lon="11.354014"><ele>222.0</ele><time>2026-03-29T13:24:01.843Z</time></trkpt><trkpt lat="43.2748504" lon="11.3541353"><ele>222.0</ele><time>2026-03-29T13:24:03.859Z</time></trkpt><trkpt lat="43.2747656" lon="11.3542189"><ele>222.0</ele><time>2026-03-29T13:24:04.87Z</time></trkpt><trkpt lat="43.2746765" lon="11.3543363"><ele>222.0</ele><time>2026-03-29T13:24:05.863Z</time></trkpt><trkpt lat="43.274591" lon="11.3544912"><ele>222.0</ele><time>2026-03-29T13:24:06.858Z</time></trkpt><trkpt lat="43.2744982" lon="11.3546804"><ele>222.0</ele><time>2026-03-29T13:24:07.849Z</time></trkpt><trkpt lat="43.2743565" lon="11.3549408"><ele>222.0</ele><time>2026-03-29T13:24:08.853Z</time></trkpt><trkpt lat="43.2742309" lon="11.3551416"><ele>222.0</ele><time>2026-03-29T13:24:09.847Z</time></trkpt><trkpt lat="43.2740996" lon="11.3553213"><ele>222.0</ele><time>2026-03-29T13:24:10.841Z</time></trkpt><trkpt lat="43.2739072" lon="11.3554886"><ele>222.0</ele><time>2026-03-29T13:24:11.859Z</time></trkpt><trkpt lat="43.2735131" lon="11.3555847"><ele>222.33333333333331</ele><time>2026-03-29T13:24:12.852Z</time></trkpt><trkpt lat="43.2733794" lon="11.3557221"><ele>222.66666666666666</ele><time>2026-03-29T13:24:13.85Z</time></trkpt><trkpt lat="43.2732395" lon="11.3558648"><ele>223.0</ele><time>2026-03-29T13:24:14.863Z</time></trkpt><trkpt lat="43.2730936" lon="11.3560206"><ele>224.33333333333331</ele><time>2026-03-29T13:24:15.919Z</time></trkpt><trkpt lat="43.2729691" lon="11.3561598"><ele>225.66666666666669</ele><time>2026-03-29T13:24:16.851Z</time></trkpt><trkpt lat="43.2728338" lon="11.3563185"><ele>227.0</ele><time>2026-03-29T13:24:17.859Z</time></trkpt><trkpt lat="43.2726883" lon="11.3564799"><ele>227.0</ele><time>2026-03-29T13:24:18.855Z</time></trkpt><trkpt lat="43.2725438" lon="11.3566434"><ele>227.0</ele><time>2026-03-29T13:24:19.871Z</time></trkpt><trkpt lat="43.2724039" lon="11.3567943"><ele>227.0</ele><time>2026-03-29T13:24:20.851Z</time></trkpt><trkpt lat="43.2722486" lon="11.3569598"><ele>225.66666666666669</ele><time>2026-03-29T13:24:21.887Z</time></trkpt><trkpt lat="43.2721125" lon="11.3571122"><ele>224.33333333333331</ele><time>2026-03-29T13:24:22.858Z</time></trkpt><trkpt lat="43.2719792" lon="11.3572592"><ele>223.0</ele><time>2026-03-29T13:24:23.855Z</time></trkpt><trkpt lat="43.2718536" lon="11.357396"><ele>223.0</ele><time>2026-03-29T13:24:24.848Z</time></trkpt><trkpt lat="43.2717275" lon="11.3575314"><ele>223.0</ele><time>2026-03-29T13:24:25.872Z</time></trkpt><trkpt lat="43.2716228" lon="11.3576548"><ele>223.0</ele><time>2026-03-29T13:24:26.847Z</time></trkpt><trkpt lat="43.271512" lon="11.3577799"><ele>223.0</ele><time>2026-03-29T13:24:27.871Z</time></trkpt><trkpt lat="43.2713996" lon="11.3579034"><ele>224.0</ele><time>2026-03-29T13:24:28.862Z</time></trkpt><trkpt lat="43.2712848" lon="11.3580337"><ele>225.0</ele><time>2026-03-29T13:24:29.849Z</time></trkpt><trkpt lat="43.2711648" lon="11.3581741"><ele>226.0</ele><time>2026-03-29T13:24:30.853Z</time></trkpt><trkpt lat="43.2710483" lon="11.3583256"><ele>226.33333333333331</ele><time>2026-03-29T13:24:31.858Z</time></trkpt><trkpt lat="43.2709278" lon="11.3584997"><ele>226.66666666666669</ele><time>2026-03-29T13:24:32.859Z</time></trkpt><trkpt lat="43.2708362" lon="11.3586948"><ele>227.0</ele><time>2026-03-29T13:24:33.863Z</time></trkpt><trkpt lat="43.2707547" lon="11.3589113"><ele>226.33333333333334</ele><time>2026-03-29T13:24:34.848Z</time></trkpt><trkpt lat="43.2706826" lon="11.359144"><ele>225.66666666666669</ele><time>2026-03-29T13:24:35.855Z</time></trkpt><trkpt lat="43.2706198" lon="11.35938"><ele>225.0</ele><time>2026-03-29T13:24:36.879Z</time></trkpt><trkpt lat="43.2705713" lon="11.3596017"><ele>224.33333333333331</ele><time>2026-03-29T13:24:37.849Z</time></trkpt><trkpt lat="43.270521" lon="11.3598165"><ele>223.66666666666666</ele><time>2026-03-29T13:24:38.868Z</time></trkpt><trkpt lat="43.2704678" lon="11.3600211"><ele>223.0</ele><time>2026-03-29T13:24:39.891Z</time></trkpt><trkpt lat="43.2704151" lon="11.360202"><ele>223.0</ele><time>2026-03-29T13:24:40.878Z</time></trkpt><trkpt lat="43.2703679" lon="11.3603799"><ele>223.0</ele><time>2026-03-29T13:24:41.872Z</time></trkpt><trkpt lat="43.2703252" lon="11.3605587"><ele>223.0</ele><time>2026-03-29T13:24:42.865Z</time></trkpt><trkpt lat="43.2702803" lon="11.3607445"><ele>223.0</ele><time>2026-03-29T13:24:43.851Z</time></trkpt><trkpt lat="43.2702288" lon="11.3609355"><ele>223.33333333333331</ele><time>2026-03-29T13:24:44.856Z</time></trkpt><trkpt lat="43.2701711" lon="11.3611293"><ele>223.66666666666669</ele><time>2026-03-29T13:24:45.861Z</time></trkpt><trkpt lat="43.2701053" lon="11.3613427"><ele>224.0</ele><time>2026-03-29T13:24:46.853Z</time></trkpt><trkpt lat="43.270041" lon="11.3615461"><ele>224.66666666666669</ele><time>2026-03-29T13:24:47.854Z</time></trkpt><trkpt lat="43.269952" lon="11.3617523"><ele>225.33333333333331</ele><time>2026-03-29T13:24:48.861Z</time></trkpt><trkpt lat="43.2698482" lon="11.3619422"><ele>226.0</ele><time>2026-03-29T13:24:49.856Z</time></trkpt><trkpt lat="43.2697578" lon="11.3621225"><ele>223.66666666666666</ele><time>2026-03-29T13:24:50.851Z</time></trkpt><trkpt lat="43.2696425" lon="11.3623159"><ele>221.33333333333331</ele><time>2026-03-29T13:24:51.851Z</time></trkpt><trkpt lat="43.2695244" lon="11.3624964"><ele>219.0</ele><time>2026-03-29T13:24:52.855Z</time></trkpt><trkpt lat="43.2694015" lon="11.3626786"><ele>219.0</ele><time>2026-03-29T13:24:53.861Z</time></trkpt><trkpt lat="43.2692603" lon="11.3628799"><ele>219.0</ele><time>2026-03-29T13:24:54.874Z</time></trkpt><trkpt lat="43.2691007" lon="11.3630749"><ele>219.0</ele><time>2026-03-29T13:24:55.875Z</time></trkpt><trkpt lat="43.2689477" lon="11.363278"><ele>218.66666666666669</ele><time>2026-03-29T13:24:56.842Z</time></trkpt><trkpt lat="43.2687954" lon="11.3634923"><ele>218.33333333333334</ele><time>2026-03-29T13:24:57.855Z</time></trkpt><trkpt lat="43.2686639" lon="11.3637077"><ele>218.0</ele><time>2026-03-29T13:24:58.854Z</time></trkpt><trkpt lat="43.268513" lon="11.3639473"><ele>217.0</ele><time>2026-03-29T13:24:59.878Z</time></trkpt><trkpt lat="43.2683681" lon="11.3641733"><ele>216.0</ele><time>2026-03-29T13:25:00.861Z</time></trkpt><trkpt lat="43.2682318" lon="11.3643861"><ele>215.0</ele><time>2026-03-29T13:25:01.85Z</time></trkpt><trkpt lat="43.2680776" lon="11.3646147"><ele>214.0</ele><time>2026-03-29T13:25:02.855Z</time></trkpt><trkpt lat="43.2679489" lon="11.3648144"><ele>213.0</ele><time>2026-03-29T13:25:03.846Z</time></trkpt><trkpt lat="43.2678349" lon="11.3649869"><ele>212.0</ele><time>2026-03-29T13:25:04.848Z</time></trkpt><trkpt lat="43.2677412" lon="11.3651217"><ele>212.0</ele><time>2026-03-29T13:25:05.855Z</time></trkpt><trkpt lat="43.2676566" lon="11.3652366"><ele>212.0</ele><time>2026-03-29T13:25:06.851Z</time></trkpt><trkpt lat="43.2675582" lon="11.365354"><ele>212.0</ele><time>2026-03-29T13:25:07.863Z</time></trkpt><trkpt lat="43.2674592" lon="11.3654455"><ele>212.0</ele><time>2026-03-29T13:25:08.847Z</time></trkpt><trkpt lat="43.2673463" lon="11.3655519"><ele>213.25</ele><time>2026-03-29T13:25:09.877Z</time></trkpt><trkpt lat="43.2672623" lon="11.3656498"><ele>214.5</ele><time>2026-03-29T13:25:10.855Z</time></trkpt><trkpt lat="43.2671769" lon="11.3657426"><ele>215.75</ele><time>2026-03-29T13:25:11.85Z</time></trkpt><trkpt lat="43.2670736" lon="11.3658448"><ele>217.0</ele><time>2026-03-29T13:25:12.849Z</time></trkpt><trkpt lat="43.2669598" lon="11.3659428"><ele>217.0</ele><time>2026-03-29T13:25:13.855Z</time></trkpt><trkpt lat="43.2668255" lon="11.3660304"><ele>217.0</ele><time>2026-03-29T13:25:14.846Z</time></trkpt><trkpt lat="43.2666508" lon="11.3661271"><ele>217.0</ele><time>2026-03-29T13:25:15.859Z</time></trkpt><trkpt lat="43.266467" lon="11.3662143"><ele>214.5</ele><time>2026-03-29T13:25:16.853Z</time></trkpt><trkpt lat="43.2662529" lon="11.3663004"><ele>212.0</ele><time>2026-03-29T13:25:17.856Z</time></trkpt><trkpt lat="43.2660292" lon="11.3663685"><ele>212.0</ele><time>2026-03-29T13:25:18.85Z</time></trkpt><trkpt lat="43.2657894" lon="11.3664317"><ele>212.0</ele><time>2026-03-29T13:25:19.857Z</time></trkpt><trkpt lat="43.2655454" lon="11.3664689"><ele>212.0</ele><time>2026-03-29T13:25:20.852Z</time></trkpt><trkpt lat="43.2653035" lon="11.3664793"><ele>212.0</ele><time>2026-03-29T13:25:21.863Z</time></trkpt><trkpt lat="43.2650822" lon="11.3664774"><ele>212.0</ele><time>2026-03-29T13:25:22.861Z</time></trkpt><trkpt lat="43.264869" lon="11.3664761"><ele>212.0</ele><time>2026-03-29T13:25:23.851Z</time></trkpt><trkpt lat="43.2646512" lon="11.3664806"><ele>212.0</ele><time>2026-03-29T13:25:24.843Z</time></trkpt><trkpt lat="43.2644411" lon="11.366505"><ele>210.33333333333334</ele><time>2026-03-29T13:25:25.856Z</time></trkpt><trkpt lat="43.2642731" lon="11.3665513"><ele>208.66666666666669</ele><time>2026-03-29T13:25:26.85Z</time></trkpt><trkpt lat="43.2640917" lon="11.3666441"><ele>207.0</ele><time>2026-03-29T13:25:27.864Z</time></trkpt><trkpt lat="43.2639278" lon="11.3667603"><ele>204.66666666666669</ele><time>2026-03-29T13:25:28.852Z</time></trkpt><trkpt lat="43.2637794" lon="11.3669078"><ele>202.33333333333334</ele><time>2026-03-29T13:25:29.847Z</time></trkpt><trkpt lat="43.2636506" lon="11.3670879"><ele>200.0</ele><time>2026-03-29T13:25:30.858Z</time></trkpt><trkpt lat="43.2635461" lon="11.3672805"><ele>200.0</ele><time>2026-03-29T13:25:31.86Z</time></trkpt><trkpt lat="43.263467" lon="11.3674822"><ele>200.0</ele><time>2026-03-29T13:25:32.874Z</time></trkpt><trkpt lat="43.2634072" lon="11.3677027"><ele>200.0</ele><time>2026-03-29T13:25:33.847Z</time></trkpt><trkpt lat="43.2633703" lon="11.3679638"><ele>200.0</ele><time>2026-03-29T13:25:34.842Z</time></trkpt><trkpt lat="43.2633512" lon="11.3682633"><ele>200.0</ele><time>2026-03-29T13:25:35.87Z</time></trkpt><trkpt lat="43.2633558" lon="11.368577"><ele>200.0</ele><time>2026-03-29T13:25:36.848Z</time></trkpt><trkpt lat="43.2633627" lon="11.3689178"><ele>198.5</ele><time>2026-03-29T13:25:37.875Z</time></trkpt><trkpt lat="43.2633881" lon="11.3692285"><ele>197.0</ele><time>2026-03-29T13:25:38.855Z</time></trkpt><trkpt lat="43.2634129" lon="11.369563"><ele>197.5</ele><time>2026-03-29T13:25:39.862Z</time></trkpt><trkpt lat="43.2634442" lon="11.3698841"><ele>198.0</ele><time>2026-03-29T13:25:40.85Z</time></trkpt><trkpt lat="43.2634769" lon="11.3701938"><ele>198.0</ele><time>2026-03-29T13:25:41.86Z</time></trkpt><trkpt lat="43.2635085" lon="11.3704814"><ele>198.0</ele><time>2026-03-29T13:25:42.85Z</time></trkpt><trkpt lat="43.2635345" lon="11.3707698"><ele>198.0</ele><time>2026-03-29T13:25:43.865Z</time></trkpt><trkpt lat="43.2635419" lon="11.3710448"><ele>198.0</ele><time>2026-03-29T13:25:44.849Z</time></trkpt><trkpt lat="43.2635264" lon="11.37131"><ele>198.0</ele><time>2026-03-29T13:25:45.849Z</time></trkpt><trkpt lat="43.2634808" lon="11.371571"><ele>198.0</ele><time>2026-03-29T13:25:46.852Z</time></trkpt><trkpt lat="43.2634093" lon="11.3718134"><ele>196.66666666666669</ele><time>2026-03-29T13:25:47.859Z</time></trkpt><trkpt lat="43.263307" lon="11.3720306"><ele>195.33333333333334</ele><time>2026-03-29T13:25:48.849Z</time></trkpt><trkpt lat="43.2631795" lon="11.3722324"><ele>194.0</ele><time>2026-03-29T13:25:49.86Z</time></trkpt><trkpt lat="43.2630421" lon="11.3724211"><ele>191.0</ele><time>2026-03-29T13:25:50.868Z</time></trkpt><trkpt lat="43.2629009" lon="11.3725937"><ele>188.0</ele><time>2026-03-29T13:25:51.85Z</time></trkpt><trkpt lat="43.2627579" lon="11.3727669"><ele>185.0</ele><time>2026-03-29T13:25:52.864Z</time></trkpt><trkpt lat="43.2626257" lon="11.3729244"><ele>184.25</ele><time>2026-03-29T13:25:53.847Z</time></trkpt><trkpt lat="43.262503" lon="11.3730661"><ele>183.5</ele><time>2026-03-29T13:25:54.852Z</time></trkpt><trkpt lat="43.2624016" lon="11.3731644"><ele>182.75</ele><time>2026-03-29T13:25:55.858Z</time></trkpt><trkpt lat="43.262304" lon="11.3732408"><ele>182.0</ele><time>2026-03-29T13:25:56.852Z</time></trkpt><trkpt lat="43.2621787" lon="11.3732801"><ele>181.2</ele><time>2026-03-29T13:25:58.874Z</time></trkpt><trkpt lat="43.2620925" lon="11.3733057"><ele>180.39999999999998</ele><time>2026-03-29T13:25:59.844Z</time></trkpt><trkpt lat="43.2619956" lon="11.3733691"><ele>179.60000000000002</ele><time>2026-03-29T13:26:00.854Z</time></trkpt><trkpt lat="43.2619189" lon="11.3734738"><ele>178.8</ele><time>2026-03-29T13:26:01.86Z</time></trkpt><trkpt lat="43.2618402" lon="11.3735884"><ele>178.0</ele><time>2026-03-29T13:26:02.859Z</time></trkpt><trkpt lat="43.2617516" lon="11.3737177"><ele>178.0</ele><time>2026-03-29T13:26:03.867Z</time></trkpt><trkpt lat="43.261638" lon="11.3738386"><ele>178.0</ele><time>2026-03-29T13:26:04.847Z</time></trkpt><trkpt lat="43.2614742" lon="11.3739652"><ele>178.0</ele><time>2026-03-29T13:26:05.901Z</time></trkpt><trkpt lat="43.2613307" lon="11.3740725"><ele>177.33333333333334</ele><time>2026-03-29T13:26:06.84Z</time></trkpt><trkpt lat="43.261199" lon="11.3741891"><ele>176.66666666666666</ele><time>2026-03-29T13:26:07.853Z</time></trkpt><trkpt lat="43.261085" lon="11.3743169"><ele>176.0</ele><time>2026-03-29T13:26:08.858Z</time></trkpt><trkpt lat="43.2610833" lon="11.3747148"><ele>175.75</ele><time>2026-03-29T13:26:09.863Z</time></trkpt><trkpt lat="43.2609533" lon="11.3748327"><ele>175.5</ele><time>2026-03-29T13:26:10.865Z</time></trkpt><trkpt lat="43.2608472" lon="11.3749351"><ele>175.25</ele><time>2026-03-29T13:26:11.857Z</time></trkpt><trkpt lat="43.2607596" lon="11.3750312"><ele>175.0</ele><time>2026-03-29T13:26:12.872Z</time></trkpt><trkpt lat="43.2606973" lon="11.3751235"><ele>175.0</ele><time>2026-03-29T13:26:13.868Z</time></trkpt><trkpt lat="43.260623" lon="11.3752193"><ele>175.0</ele><time>2026-03-29T13:26:14.866Z</time></trkpt><trkpt lat="43.2605351" lon="11.3753263"><ele>175.0</ele><time>2026-03-29T13:26:15.882Z</time></trkpt><trkpt lat="43.2604448" lon="11.3754379"><ele>175.0</ele><time>2026-03-29T13:26:16.839Z</time></trkpt><trkpt lat="43.2603438" lon="11.375566"><ele>175.0</ele><time>2026-03-29T13:26:17.848Z</time></trkpt><trkpt lat="43.2602345" lon="11.3756951"><ele>175.0</ele><time>2026-03-29T13:26:18.858Z</time></trkpt><trkpt lat="43.2601369" lon="11.375825"><ele>175.0</ele><time>2026-03-29T13:26:19.872Z</time></trkpt><trkpt lat="43.2600372" lon="11.3759713"><ele>175.0</ele><time>2026-03-29T13:26:20.854Z</time></trkpt><trkpt lat="43.2599796" lon="11.3761373"><ele>175.0</ele><time>2026-03-29T13:26:21.862Z</time></trkpt><trkpt lat="43.2599542" lon="11.3763217"><ele>175.0</ele><time>2026-03-29T13:26:22.846Z</time></trkpt><trkpt lat="43.2599455" lon="11.3765124"><ele>175.0</ele><time>2026-03-29T13:26:23.838Z</time></trkpt><trkpt lat="43.2599334" lon="11.3767063"><ele>175.0</ele><time>2026-03-29T13:26:24.841Z</time></trkpt><trkpt lat="43.2599569" lon="11.3768713"><ele>174.6</ele><time>2026-03-29T13:26:25.881Z</time></trkpt><trkpt lat="43.2599776" lon="11.3770181"><ele>174.2</ele><time>2026-03-29T13:26:26.86Z</time></trkpt><trkpt lat="43.2599847" lon="11.377162"><ele>173.8</ele><time>2026-03-29T13:26:27.845Z</time></trkpt><trkpt lat="43.259969" lon="11.377302"><ele>173.4</ele><time>2026-03-29T13:26:28.85Z</time></trkpt><trkpt lat="43.2599528" lon="11.3774446"><ele>173.0</ele><time>2026-03-29T13:26:29.863Z</time></trkpt><trkpt lat="43.2599306" lon="11.3776048"><ele>173.0</ele><time>2026-03-29T13:26:30.856Z</time></trkpt><trkpt lat="43.2599133" lon="11.377773"><ele>173.0</ele><time>2026-03-29T13:26:31.874Z</time></trkpt><trkpt lat="43.2598893" lon="11.3779435"><ele>173.0</ele><time>2026-03-29T13:26:32.858Z</time></trkpt><trkpt lat="43.2598628" lon="11.3781041"><ele>173.0</ele><time>2026-03-29T13:26:33.84Z</time></trkpt><trkpt lat="43.2598168" lon="11.3782623"><ele>173.25</ele><time>2026-03-29T13:26:34.874Z</time></trkpt><trkpt lat="43.2597445" lon="11.3784083"><ele>173.5</ele><time>2026-03-29T13:26:35.88Z</time></trkpt><trkpt lat="43.2596549" lon="11.378558"><ele>173.75</ele><time>2026-03-29T13:26:36.904Z</time></trkpt><trkpt lat="43.2595609" lon="11.3786861"><ele>174.0</ele><time>2026-03-29T13:26:37.849Z</time></trkpt><trkpt lat="43.2594493" lon="11.3788314"><ele>173.75</ele><time>2026-03-29T13:26:38.856Z</time></trkpt><trkpt lat="43.2593534" lon="11.3789839"><ele>173.5</ele><time>2026-03-29T13:26:39.851Z</time></trkpt><trkpt lat="43.2592486" lon="11.3791427"><ele>173.25</ele><time>2026-03-29T13:26:40.862Z</time></trkpt><trkpt lat="43.2591556" lon="11.3792813"><ele>173.0</ele><time>2026-03-29T13:26:41.854Z</time></trkpt><trkpt lat="43.2590592" lon="11.3794254"><ele>173.0</ele><time>2026-03-29T13:26:42.863Z</time></trkpt><trkpt lat="43.2589779" lon="11.3795682"><ele>173.0</ele><time>2026-03-29T13:26:43.856Z</time></trkpt><trkpt lat="43.2588891" lon="11.3797201"><ele>173.0</ele><time>2026-03-29T13:26:44.852Z</time></trkpt><trkpt lat="43.2588057" lon="11.3798638"><ele>173.0</ele><time>2026-03-29T13:26:45.865Z</time></trkpt><trkpt lat="43.2587197" lon="11.3800025"><ele>173.25</ele><time>2026-03-29T13:26:46.89Z</time></trkpt><trkpt lat="43.2586492" lon="11.3801357"><ele>173.5</ele><time>2026-03-29T13:26:47.896Z</time></trkpt><trkpt lat="43.2585772" lon="11.3802647"><ele>173.75</ele><time>2026-03-29T13:26:48.912Z</time></trkpt><trkpt lat="43.2585188" lon="11.3804066"><ele>174.0</ele><time>2026-03-29T13:26:49.902Z</time></trkpt><trkpt lat="43.2584508" lon="11.3805481"><ele>173.75</ele><time>2026-03-29T13:26:50.891Z</time></trkpt><trkpt lat="43.2583617" lon="11.3806769"><ele>173.5</ele><time>2026-03-29T13:26:51.872Z</time></trkpt><trkpt lat="43.258261" lon="11.38079"><ele>173.25</ele><time>2026-03-29T13:26:52.862Z</time></trkpt><trkpt lat="43.2581433" lon="11.3808695"><ele>173.0</ele><time>2026-03-29T13:26:53.868Z</time></trkpt><trkpt lat="43.2580193" lon="11.3809333"><ele>173.0</ele><time>2026-03-29T13:26:54.851Z</time></trkpt><trkpt lat="43.2578643" lon="11.3809861"><ele>173.0</ele><time>2026-03-29T13:26:55.871Z</time></trkpt><trkpt lat="43.2577072" lon="11.3810139"><ele>173.0</ele><time>2026-03-29T13:26:56.869Z</time></trkpt><trkpt lat="43.2575474" lon="11.3810288"><ele>173.0</ele><time>2026-03-29T13:26:57.855Z</time></trkpt><trkpt lat="43.2574023" lon="11.3810135"><ele>173.0</ele><time>2026-03-29T13:26:58.86Z</time></trkpt><trkpt lat="43.2572602" lon="11.3810022"><ele>173.0</ele><time>2026-03-29T13:26:59.856Z</time></trkpt><trkpt lat="43.2570951" lon="11.3810124"><ele>173.33333333333331</ele><time>2026-03-29T13:27:00.853Z</time></trkpt><trkpt lat="43.256938" lon="11.3810315"><ele>173.66666666666666</ele><time>2026-03-29T13:27:01.855Z</time></trkpt><trkpt lat="43.2567938" lon="11.381095"><ele>174.0</ele><time>2026-03-29T13:27:02.846Z</time></trkpt><trkpt lat="43.2566548" lon="11.3811965"><ele>174.0</ele><time>2026-03-29T13:27:03.873Z</time></trkpt><trkpt lat="43.2565333" lon="11.3813167"><ele>174.0</ele><time>2026-03-29T13:27:04.851Z</time></trkpt><trkpt lat="43.2564044" lon="11.3814701"><ele>174.0</ele><time>2026-03-29T13:27:05.876Z</time></trkpt><trkpt lat="43.2562881" lon="11.3816509"><ele>173.66666666666666</ele><time>2026-03-29T13:27:06.873Z</time></trkpt><trkpt lat="43.2562127" lon="11.3818416"><ele>173.33333333333331</ele><time>2026-03-29T13:27:07.853Z</time></trkpt><trkpt lat="43.256171" lon="11.3820456"><ele>173.0</ele><time>2026-03-29T13:27:08.877Z</time></trkpt><trkpt lat="43.2561266" lon="11.3822429"><ele>172.75</ele><time>2026-03-29T13:27:09.874Z</time></trkpt><trkpt lat="43.2560837" lon="11.3824256"><ele>172.5</ele><time>2026-03-29T13:27:10.86Z</time></trkpt><trkpt lat="43.2560548" lon="11.3826195"><ele>172.25</ele><time>2026-03-29T13:27:11.857Z</time></trkpt><trkpt lat="43.2560109" lon="11.3828378"><ele>172.0</ele><time>2026-03-29T13:27:12.863Z</time></trkpt><trkpt lat="43.2559646" lon="11.3830715"><ele>171.33333333333334</ele><time>2026-03-29T13:27:13.86Z</time></trkpt><trkpt lat="43.2559319" lon="11.3833183"><ele>170.66666666666666</ele><time>2026-03-29T13:27:14.864Z</time></trkpt><trkpt lat="43.2558939" lon="11.383573"><ele>170.0</ele><time>2026-03-29T13:27:15.863Z</time></trkpt><trkpt lat="43.2558361" lon="11.3838311"><ele>170.0</ele><time>2026-03-29T13:27:16.856Z</time></trkpt><trkpt lat="43.2557732" lon="11.3840963"><ele>170.0</ele><time>2026-03-29T13:27:17.853Z</time></trkpt><trkpt lat="43.2557042" lon="11.3843686"><ele>170.0</ele><time>2026-03-29T13:27:18.849Z</time></trkpt><trkpt lat="43.2556346" lon="11.3846508"><ele>170.66666666666666</ele><time>2026-03-29T13:27:19.855Z</time></trkpt><trkpt lat="43.2555748" lon="11.3849298"><ele>171.33333333333334</ele><time>2026-03-29T13:27:20.863Z</time></trkpt><trkpt lat="43.2555061" lon="11.3852079"><ele>172.0</ele><time>2026-03-29T13:27:21.86Z</time></trkpt><trkpt lat="43.2554333" lon="11.385492"><ele>172.33333333333334</ele><time>2026-03-29T13:27:22.864Z</time></trkpt><trkpt lat="43.2553659" lon="11.3857832"><ele>172.66666666666666</ele><time>2026-03-29T13:27:23.881Z</time></trkpt><trkpt lat="43.2553006" lon="11.3860641"><ele>173.0</ele><time>2026-03-29T13:27:24.858Z</time></trkpt><trkpt lat="43.2552372" lon="11.3863627"><ele>172.0</ele><time>2026-03-29T13:27:25.872Z</time></trkpt><trkpt lat="43.2551844" lon="11.386652"><ele>171.0</ele><time>2026-03-29T13:27:26.867Z</time></trkpt><trkpt lat="43.2551352" lon="11.3869393"><ele>170.0</ele><time>2026-03-29T13:27:27.87Z</time></trkpt><trkpt lat="43.2550831" lon="11.3872298"><ele>169.33333333333331</ele><time>2026-03-29T13:27:28.856Z</time></trkpt><trkpt lat="43.2550269" lon="11.3875153"><ele>168.66666666666666</ele><time>2026-03-29T13:27:29.855Z</time></trkpt><trkpt lat="43.2549691" lon="11.3878099"><ele>168.0</ele><time>2026-03-29T13:27:30.859Z</time></trkpt><trkpt lat="43.2549138" lon="11.3881058"><ele>167.66666666666666</ele><time>2026-03-29T13:27:31.864Z</time></trkpt><trkpt lat="43.2548577" lon="11.3884017"><ele>167.33333333333331</ele><time>2026-03-29T13:27:32.878Z</time></trkpt><trkpt lat="43.2547953" lon="11.3886902"><ele>167.0</ele><time>2026-03-29T13:27:33.853Z</time></trkpt><trkpt lat="43.2547201" lon="11.3889782"><ele>167.66666666666666</ele><time>2026-03-29T13:27:34.861Z</time></trkpt><trkpt lat="43.2546334" lon="11.3892556"><ele>168.33333333333334</ele><time>2026-03-29T13:27:35.859Z</time></trkpt><trkpt lat="43.2545269" lon="11.3895263"><ele>169.0</ele><time>2026-03-29T13:27:36.87Z</time></trkpt><trkpt lat="43.2544173" lon="11.3897857"><ele>169.33333333333334</ele><time>2026-03-29T13:27:37.861Z</time></trkpt><trkpt lat="43.254308" lon="11.3900461"><ele>169.66666666666666</ele><time>2026-03-29T13:27:38.864Z</time></trkpt><trkpt lat="43.2541971" lon="11.3903032"><ele>170.0</ele><time>2026-03-29T13:27:39.865Z</time></trkpt><trkpt lat="43.2540916" lon="11.39056"><ele>170.33333333333331</ele><time>2026-03-29T13:27:40.878Z</time></trkpt><trkpt lat="43.2539978" lon="11.3908029"><ele>170.66666666666666</ele><time>2026-03-29T13:27:41.857Z</time></trkpt><trkpt lat="43.2539137" lon="11.3910431"><ele>171.0</ele><time>2026-03-29T13:27:42.851Z</time></trkpt><trkpt lat="43.253837" lon="11.3912727"><ele>170.33333333333334</ele><time>2026-03-29T13:27:43.863Z</time></trkpt><trkpt lat="43.2537646" lon="11.391478"><ele>169.66666666666669</ele><time>2026-03-29T13:27:44.845Z</time></trkpt><trkpt lat="43.2536907" lon="11.3916858"><ele>169.0</ele><time>2026-03-29T13:27:45.864Z</time></trkpt><trkpt lat="43.2536239" lon="11.3918656"><ele>169.0</ele><time>2026-03-29T13:27:46.854Z</time></trkpt><trkpt lat="43.2535627" lon="11.3920315"><ele>169.0</ele><time>2026-03-29T13:27:47.898Z</time></trkpt><trkpt lat="43.2534902" lon="11.3921613"><ele>169.0</ele><time>2026-03-29T13:27:48.863Z</time></trkpt><trkpt lat="43.2534302" lon="11.3923004"><ele>169.0</ele><time>2026-03-29T13:27:49.855Z</time></trkpt><trkpt lat="43.2533627" lon="11.3924494"><ele>169.25</ele><time>2026-03-29T13:27:50.876Z</time></trkpt><trkpt lat="43.2532968" lon="11.3925905"><ele>169.5</ele><time>2026-03-29T13:27:51.876Z</time></trkpt><trkpt lat="43.2532287" lon="11.39273"><ele>169.75</ele><time>2026-03-29T13:27:52.883Z</time></trkpt><trkpt lat="43.2531699" lon="11.3928727"><ele>170.0</ele><time>2026-03-29T13:27:53.862Z</time></trkpt><trkpt lat="43.2531215" lon="11.3930174"><ele>170.25</ele><time>2026-03-29T13:27:54.86Z</time></trkpt><trkpt lat="43.2530698" lon="11.3931645"><ele>170.5</ele><time>2026-03-29T13:27:55.869Z</time></trkpt><trkpt lat="43.2530285" lon="11.3933105"><ele>170.75</ele><time>2026-03-29T13:27:56.861Z</time></trkpt><trkpt lat="43.2529845" lon="11.3934673"><ele>171.0</ele><time>2026-03-29T13:27:57.886Z</time></trkpt><trkpt lat="43.2529466" lon="11.3936185"><ele>171.0</ele><time>2026-03-29T13:27:58.865Z</time></trkpt><trkpt lat="43.2529045" lon="11.3937463"><ele>171.0</ele><time>2026-03-29T13:27:59.853Z</time></trkpt><trkpt lat="43.2528606" lon="11.3938838"><ele>171.0</ele><time>2026-03-29T13:28:00.865Z</time></trkpt><trkpt lat="43.2528088" lon="11.3940145"><ele>171.0</ele><time>2026-03-29T13:28:01.864Z</time></trkpt><trkpt lat="43.2527202" lon="11.3941424"><ele>171.0</ele><time>2026-03-29T13:28:02.889Z</time></trkpt><trkpt lat="43.2526332" lon="11.3942696"><ele>171.0</ele><time>2026-03-29T13:28:03.922Z</time></trkpt><trkpt lat="43.2525595" lon="11.3943975"><ele>171.0</ele><time>2026-03-29T13:28:04.867Z</time></trkpt><trkpt lat="43.2524722" lon="11.3945321"><ele>171.0</ele><time>2026-03-29T13:28:05.845Z</time></trkpt><trkpt lat="43.2523905" lon="11.3946759"><ele>171.0</ele><time>2026-03-29T13:28:06.896Z</time></trkpt><trkpt lat="43.2523002" lon="11.3948005"><ele>171.25</ele><time>2026-03-29T13:28:07.894Z</time></trkpt><trkpt lat="43.2522087" lon="11.3949271"><ele>171.5</ele><time>2026-03-29T13:28:08.908Z</time></trkpt><trkpt lat="43.2521259" lon="11.3950585"><ele>171.75</ele><time>2026-03-29T13:28:09.86Z</time></trkpt><trkpt lat="43.2520414" lon="11.3952021"><ele>172.0</ele><time>2026-03-29T13:28:10.871Z</time></trkpt><trkpt lat="43.2519642" lon="11.3953402"><ele>172.0</ele><time>2026-03-29T13:28:11.861Z</time></trkpt><trkpt lat="43.2518758" lon="11.3954974"><ele>172.0</ele><time>2026-03-29T13:28:12.868Z</time></trkpt><trkpt lat="43.251794" lon="11.395653"><ele>172.0</ele><time>2026-03-29T13:28:13.86Z</time></trkpt><trkpt lat="43.2517185" lon="11.3958011"><ele>172.0</ele><time>2026-03-29T13:28:14.858Z</time></trkpt><trkpt lat="43.2516517" lon="11.3959498"><ele>171.75</ele><time>2026-03-29T13:28:15.868Z</time></trkpt><trkpt lat="43.2515991" lon="11.3960901"><ele>171.5</ele><time>2026-03-29T13:28:16.865Z</time></trkpt><trkpt lat="43.2515499" lon="11.3962183"><ele>171.25</ele><time>2026-03-29T13:28:17.858Z</time></trkpt><trkpt lat="43.2514955" lon="11.3963611"><ele>171.0</ele><time>2026-03-29T13:28:18.855Z</time></trkpt><trkpt lat="43.2514452" lon="11.396498"><ele>171.0</ele><time>2026-03-29T13:28:19.853Z</time></trkpt><trkpt lat="43.2513891" lon="11.3966555"><ele>171.0</ele><time>2026-03-29T13:28:20.873Z</time></trkpt><trkpt lat="43.2513306" lon="11.396814"><ele>171.0</ele><time>2026-03-29T13:28:21.863Z</time></trkpt><trkpt lat="43.2512968" lon="11.3969544"><ele>171.0</ele><time>2026-03-29T13:28:22.855Z</time></trkpt><trkpt lat="43.2512502" lon="11.397116"><ele>171.0</ele><time>2026-03-29T13:28:23.846Z</time></trkpt><trkpt lat="43.2511969" lon="11.397283"><ele>171.0</ele><time>2026-03-29T13:28:24.874Z</time></trkpt><trkpt lat="43.2511364" lon="11.3974508"><ele>171.0</ele><time>2026-03-29T13:28:25.864Z</time></trkpt><trkpt lat="43.25108" lon="11.397617"><ele>171.0</ele><time>2026-03-29T13:28:26.853Z</time></trkpt><trkpt lat="43.2510316" lon="11.3977738"><ele>171.0</ele><time>2026-03-29T13:28:27.851Z</time></trkpt><trkpt lat="43.2509767" lon="11.3979423"><ele>171.0</ele><time>2026-03-29T13:28:28.882Z</time></trkpt><trkpt lat="43.2509217" lon="11.3980957"><ele>171.0</ele><time>2026-03-29T13:28:29.856Z</time></trkpt><trkpt lat="43.2508619" lon="11.3982501"><ele>171.0</ele><time>2026-03-29T13:28:30.853Z</time></trkpt><trkpt lat="43.2508056" lon="11.3983974"><ele>170.75</ele><time>2026-03-29T13:28:31.867Z</time></trkpt><trkpt lat="43.2507525" lon="11.3985345"><ele>170.5</ele><time>2026-03-29T13:28:32.847Z</time></trkpt><trkpt lat="43.2506937" lon="11.3986749"><ele>170.25</ele><time>2026-03-29T13:28:33.877Z</time></trkpt><trkpt lat="43.2506385" lon="11.3988079"><ele>170.0</ele><time>2026-03-29T13:28:34.854Z</time></trkpt><trkpt lat="43.2505829" lon="11.3989497"><ele>170.0</ele><time>2026-03-29T13:28:35.866Z</time></trkpt><trkpt lat="43.250527" lon="11.3991019"><ele>170.0</ele><time>2026-03-29T13:28:36.862Z</time></trkpt><trkpt lat="43.2504616" lon="11.3992624"><ele>170.0</ele><time>2026-03-29T13:28:37.866Z</time></trkpt><trkpt lat="43.250381" lon="11.3994233"><ele>170.0</ele><time>2026-03-29T13:28:38.883Z</time></trkpt><trkpt lat="43.2503013" lon="11.3995816"><ele>169.5</ele><time>2026-03-29T13:28:39.854Z</time></trkpt><trkpt lat="43.250216" lon="11.3997427"><ele>169.0</ele><time>2026-03-29T13:28:40.862Z</time></trkpt><trkpt lat="43.2501392" lon="11.3998912"><ele>168.5</ele><time>2026-03-29T13:28:41.846Z</time></trkpt><trkpt lat="43.2500617" lon="11.4000558"><ele>168.0</ele><time>2026-03-29T13:28:42.871Z</time></trkpt><trkpt lat="43.2499849" lon="11.4002078"><ele>168.0</ele><time>2026-03-29T13:28:43.862Z</time></trkpt><trkpt lat="43.2499072" lon="11.4003515"><ele>168.0</ele><time>2026-03-29T13:28:44.851Z</time></trkpt><trkpt lat="43.2498246" lon="11.4004878"><ele>168.0</ele><time>2026-03-29T13:28:45.852Z</time></trkpt><trkpt lat="43.2497343" lon="11.4006239"><ele>168.0</ele><time>2026-03-29T13:28:46.853Z</time></trkpt><trkpt lat="43.2496511" lon="11.4007608"><ele>168.0</ele><time>2026-03-29T13:28:47.854Z</time></trkpt><trkpt lat="43.2495737" lon="11.4008862"><ele>168.0</ele><time>2026-03-29T13:28:48.859Z</time></trkpt><trkpt lat="43.2494964" lon="11.4010127"><ele>168.0</ele><time>2026-03-29T13:28:49.849Z</time></trkpt><trkpt lat="43.2494292" lon="11.4011292"><ele>168.0</ele><time>2026-03-29T13:28:50.855Z</time></trkpt><trkpt lat="43.2493619" lon="11.4012562"><ele>167.8</ele><time>2026-03-29T13:28:51.864Z</time></trkpt><trkpt lat="43.2492969" lon="11.4013773"><ele>167.60000000000002</ele><time>2026-03-29T13:28:52.856Z</time></trkpt><trkpt lat="43.2492353" lon="11.4014956"><ele>167.39999999999998</ele><time>2026-03-29T13:28:53.891Z</time></trkpt><trkpt lat="43.2491718" lon="11.4016152"><ele>167.2</ele><time>2026-03-29T13:28:54.856Z</time></trkpt><trkpt lat="43.2491016" lon="11.401742"><ele>167.0</ele><time>2026-03-29T13:28:55.868Z</time></trkpt><trkpt lat="43.2490315" lon="11.4018658"><ele>167.2</ele><time>2026-03-29T13:28:56.865Z</time></trkpt><trkpt lat="43.2489588" lon="11.4019951"><ele>167.39999999999998</ele><time>2026-03-29T13:28:57.874Z</time></trkpt><trkpt lat="43.2488885" lon="11.402123"><ele>167.60000000000002</ele><time>2026-03-29T13:28:58.874Z</time></trkpt><trkpt lat="43.2488246" lon="11.4022423"><ele>167.8</ele><time>2026-03-29T13:28:59.857Z</time></trkpt><trkpt lat="43.2487667" lon="11.4023608"><ele>168.0</ele><time>2026-03-29T13:29:00.866Z</time></trkpt><trkpt lat="43.2487106" lon="11.4024812"><ele>168.2</ele><time>2026-03-29T13:29:01.865Z</time></trkpt><trkpt lat="43.2486575" lon="11.4025984"><ele>168.4</ele><time>2026-03-29T13:29:02.843Z</time></trkpt><trkpt lat="43.2486026" lon="11.4027166"><ele>168.6</ele><time>2026-03-29T13:29:03.85Z</time></trkpt><trkpt lat="43.2485553" lon="11.4028313"><ele>168.79999999999998</ele><time>2026-03-29T13:29:04.855Z</time></trkpt><trkpt lat="43.2485115" lon="11.4029527"><ele>169.0</ele><time>2026-03-29T13:29:05.885Z</time></trkpt><trkpt lat="43.248469" lon="11.4030732"><ele>169.0</ele><time>2026-03-29T13:29:06.874Z</time></trkpt><trkpt lat="43.2484245" lon="11.4031972"><ele>169.0</ele><time>2026-03-29T13:29:07.874Z</time></trkpt><trkpt lat="43.2483864" lon="11.4033208"><ele>169.0</ele><time>2026-03-29T13:29:08.872Z</time></trkpt><trkpt lat="43.2483402" lon="11.4034568"><ele>169.0</ele><time>2026-03-29T13:29:09.856Z</time></trkpt><trkpt lat="43.2482895" lon="11.4036063"><ele>169.0</ele><time>2026-03-29T13:29:10.862Z</time></trkpt><trkpt lat="43.2482385" lon="11.4037481"><ele>168.75</ele><time>2026-03-29T13:29:11.869Z</time></trkpt><trkpt lat="43.2481846" lon="11.40389"><ele>168.5</ele><time>2026-03-29T13:29:12.875Z</time></trkpt><trkpt lat="43.2481345" lon="11.4040242"><ele>168.25</ele><time>2026-03-29T13:29:13.854Z</time></trkpt><trkpt lat="43.2480827" lon="11.4041648"><ele>168.0</ele><time>2026-03-29T13:29:14.845Z</time></trkpt><trkpt lat="43.2480257" lon="11.4043137"><ele>168.0</ele><time>2026-03-29T13:29:15.863Z</time></trkpt><trkpt lat="43.247968" lon="11.4044357"><ele>168.0</ele><time>2026-03-29T13:29:16.859Z</time></trkpt><trkpt lat="43.247901" lon="11.4045629"><ele>168.0</ele><time>2026-03-29T13:29:17.875Z</time></trkpt><trkpt lat="43.2478345" lon="11.4046784"><ele>168.0</ele><time>2026-03-29T13:29:18.864Z</time></trkpt><trkpt lat="43.2477497" lon="11.4048094"><ele>168.0</ele><time>2026-03-29T13:29:19.866Z</time></trkpt><trkpt lat="43.2476628" lon="11.4049302"><ele>168.0</ele><time>2026-03-29T13:29:20.856Z</time></trkpt><trkpt lat="43.247564" lon="11.4050353"><ele>168.0</ele><time>2026-03-29T13:29:21.869Z</time></trkpt><trkpt lat="43.2474663" lon="11.4051318"><ele>168.0</ele><time>2026-03-29T13:29:22.859Z</time></trkpt><trkpt lat="43.2473484" lon="11.405238"><ele>168.0</ele><time>2026-03-29T13:29:23.856Z</time></trkpt><trkpt lat="43.2472332" lon="11.4053405"><ele>168.0</ele><time>2026-03-29T13:29:24.866Z</time></trkpt><trkpt lat="43.247124" lon="11.4054386"><ele>168.0</ele><time>2026-03-29T13:29:25.87Z</time></trkpt><trkpt lat="43.2470216" lon="11.4055391"><ele>168.0</ele><time>2026-03-29T13:29:26.876Z</time></trkpt><trkpt lat="43.2469239" lon="11.4056352"><ele>167.75</ele><time>2026-03-29T13:29:27.867Z</time></trkpt><trkpt lat="43.2468109" lon="11.4057337"><ele>167.5</ele><time>2026-03-29T13:29:28.85Z</time></trkpt><trkpt lat="43.2466991" lon="11.4058404"><ele>167.25</ele><time>2026-03-29T13:29:29.856Z</time></trkpt><trkpt lat="43.2465805" lon="11.4059487"><ele>167.0</ele><time>2026-03-29T13:29:30.86Z</time></trkpt><trkpt lat="43.2464754" lon="11.4060461"><ele>167.0</ele><time>2026-03-29T13:29:31.85Z</time></trkpt><trkpt lat="43.2463748" lon="11.4061359"><ele>167.0</ele><time>2026-03-29T13:29:32.842Z</time></trkpt><trkpt lat="43.2462831" lon="11.4062142"><ele>167.0</ele><time>2026-03-29T13:29:33.862Z</time></trkpt><trkpt lat="43.2462071" lon="11.406272"><ele>167.0</ele><time>2026-03-29T13:29:34.88Z</time></trkpt><trkpt lat="43.2461448" lon="11.4063159"><ele>167.0</ele><time>2026-03-29T13:29:35.851Z</time></trkpt><trkpt lat="43.2460893" lon="11.4063614"><ele>166.66666666666666</ele><time>2026-03-29T13:29:36.853Z</time></trkpt><trkpt lat="43.2460227" lon="11.4064386"><ele>166.33333333333331</ele><time>2026-03-29T13:29:38.851Z</time></trkpt><trkpt lat="43.2459866" lon="11.4065696"><ele>166.0</ele><time>2026-03-29T13:29:40.853Z</time></trkpt><trkpt lat="43.2459915" lon="11.4066559"><ele>165.66666666666666</ele><time>2026-03-29T13:29:41.85Z</time></trkpt><trkpt lat="43.2460237" lon="11.4067329"><ele>165.33333333333334</ele><time>2026-03-29T13:29:42.877Z</time></trkpt><trkpt lat="43.2460659" lon="11.406809"><ele>165.0</ele><time>2026-03-29T13:29:43.858Z</time></trkpt><trkpt lat="43.2461305" lon="11.406985"><ele>165.0</ele><time>2026-03-29T13:29:45.867Z</time></trkpt><trkpt lat="43.2461326" lon="11.4071084"><ele>165.0</ele><time>2026-03-29T13:29:46.857Z</time></trkpt><trkpt lat="43.2461002" lon="11.407276"><ele>165.0</ele><time>2026-03-29T13:29:47.86Z</time></trkpt><trkpt lat="43.2460476" lon="11.4074158"><ele>165.0</ele><time>2026-03-29T13:29:48.851Z</time></trkpt><trkpt lat="43.2459564" lon="11.4075459"><ele>164.75</ele><time>2026-03-29T13:29:49.864Z</time></trkpt><trkpt lat="43.2458467" lon="11.4076533"><ele>164.5</ele><time>2026-03-29T13:29:50.855Z</time></trkpt><trkpt lat="43.245727" lon="11.4077572"><ele>164.25</ele><time>2026-03-29T13:29:51.855Z</time></trkpt><trkpt lat="43.2455943" lon="11.407882"><ele>164.0</ele><time>2026-03-29T13:29:52.852Z</time></trkpt><trkpt lat="43.2454646" lon="11.4080128"><ele>164.0</ele><time>2026-03-29T13:29:53.854Z</time></trkpt><trkpt lat="43.2453317" lon="11.4081425"><ele>164.0</ele><time>2026-03-29T13:29:54.894Z</time></trkpt><trkpt lat="43.2451843" lon="11.4083053"><ele>164.0</ele><time>2026-03-29T13:29:56.878Z</time></trkpt><trkpt lat="43.2450688" lon="11.4083962"><ele>164.0</ele><time>2026-03-29T13:29:57.853Z</time></trkpt><trkpt lat="43.2449609" lon="11.4084869"><ele>164.0</ele><time>2026-03-29T13:29:58.852Z</time></trkpt><trkpt lat="43.244843" lon="11.4085923"><ele>164.0</ele><time>2026-03-29T13:29:59.853Z</time></trkpt><trkpt lat="43.2447086" lon="11.4087018"><ele>164.0</ele><time>2026-03-29T13:30:00.854Z</time></trkpt><trkpt lat="43.2445619" lon="11.4088071"><ele>163.33333333333331</ele><time>2026-03-29T13:30:01.857Z</time></trkpt><trkpt lat="43.2444104" lon="11.408917"><ele>162.66666666666666</ele><time>2026-03-29T13:30:02.854Z</time></trkpt><trkpt lat="43.2442262" lon="11.409034"><ele>162.0</ele><time>2026-03-29T13:30:03.889Z</time></trkpt><trkpt lat="43.2440908" lon="11.4090886"><ele>162.66666666666666</ele><time>2026-03-29T13:30:04.849Z</time></trkpt><trkpt lat="43.2439143" lon="11.4091875"><ele>163.33333333333331</ele><time>2026-03-29T13:30:05.847Z</time></trkpt><trkpt lat="43.2437393" lon="11.4092892"><ele>164.0</ele><time>2026-03-29T13:30:06.868Z</time></trkpt><trkpt lat="43.2435759" lon="11.4093848"><ele>164.0</ele><time>2026-03-29T13:30:07.854Z</time></trkpt><trkpt lat="43.2434278" lon="11.4095161"><ele>164.0</ele><time>2026-03-29T13:30:08.857Z</time></trkpt><trkpt lat="43.2432646" lon="11.4096409"><ele>164.0</ele><time>2026-03-29T13:30:09.847Z</time></trkpt><trkpt lat="43.243112" lon="11.40977"><ele>164.0</ele><time>2026-03-29T13:30:10.87Z</time></trkpt><trkpt lat="43.242948" lon="11.409914"><ele>164.0</ele><time>2026-03-29T13:30:11.855Z</time></trkpt><trkpt lat="43.2427632" lon="11.4100761"><ele>164.0</ele><time>2026-03-29T13:30:12.858Z</time></trkpt><trkpt lat="43.2425683" lon="11.4102593"><ele>164.0</ele><time>2026-03-29T13:30:13.889Z</time></trkpt><trkpt lat="43.2423771" lon="11.4104487"><ele>164.0</ele><time>2026-03-29T13:30:14.855Z</time></trkpt><trkpt lat="43.2421812" lon="11.4106611"><ele>164.0</ele><time>2026-03-29T13:30:15.859Z</time></trkpt><trkpt lat="43.2419852" lon="11.4108825"><ele>164.0</ele><time>2026-03-29T13:30:16.867Z</time></trkpt><trkpt lat="43.2418001" lon="11.4111107"><ele>163.5</ele><time>2026-03-29T13:30:17.857Z</time></trkpt><trkpt lat="43.2416207" lon="11.4113594"><ele>163.0</ele><time>2026-03-29T13:30:18.857Z</time></trkpt><trkpt lat="43.2414371" lon="11.4116178"><ele>163.0</ele><time>2026-03-29T13:30:19.857Z</time></trkpt><trkpt lat="43.241256" lon="11.4118888"><ele>163.0</ele><time>2026-03-29T13:30:20.863Z</time></trkpt><trkpt lat="43.2410676" lon="11.4121723"><ele>162.0</ele><time>2026-03-29T13:30:21.866Z</time></trkpt><trkpt lat="43.2408722" lon="11.4124625"><ele>161.0</ele><time>2026-03-29T13:30:22.856Z</time></trkpt><trkpt lat="43.2406712" lon="11.4127597"><ele>161.5</ele><time>2026-03-29T13:30:23.852Z</time></trkpt><trkpt lat="43.2404722" lon="11.4130532"><ele>162.0</ele><time>2026-03-29T13:30:24.86Z</time></trkpt><trkpt lat="43.2402711" lon="11.4133475"><ele>162.0</ele><time>2026-03-29T13:30:25.864Z</time></trkpt><trkpt lat="43.2400713" lon="11.4136478"><ele>162.0</ele><time>2026-03-29T13:30:26.87Z</time></trkpt><trkpt lat="43.239876" lon="11.413944"><ele>163.0</ele><time>2026-03-29T13:30:27.857Z</time></trkpt><trkpt lat="43.2396779" lon="11.414246"><ele>164.0</ele><time>2026-03-29T13:30:28.858Z</time></trkpt><trkpt lat="43.239474" lon="11.4145477"><ele>163.5</ele><time>2026-03-29T13:30:29.855Z</time></trkpt><trkpt lat="43.2392663" lon="11.4148547"><ele>163.0</ele><time>2026-03-29T13:30:30.862Z</time></trkpt><trkpt lat="43.2390582" lon="11.4151572"><ele>163.5</ele><time>2026-03-29T13:30:31.86Z</time></trkpt><trkpt lat="43.2388507" lon="11.4154661"><ele>164.0</ele><time>2026-03-29T13:30:32.868Z</time></trkpt><trkpt lat="43.238648" lon="11.4157662"><ele>164.0</ele><time>2026-03-29T13:30:33.862Z</time></trkpt><trkpt lat="43.2384433" lon="11.416066"><ele>164.0</ele><time>2026-03-29T13:30:34.852Z</time></trkpt><trkpt lat="43.2382258" lon="11.4163827"><ele>163.0</ele><time>2026-03-29T13:30:35.868Z</time></trkpt><trkpt lat="43.2380178" lon="11.4166837"><ele>162.0</ele><time>2026-03-29T13:30:36.855Z</time></trkpt><trkpt lat="43.2378005" lon="11.4169815"><ele>162.5</ele><time>2026-03-29T13:30:37.868Z</time></trkpt><trkpt lat="43.237597" lon="11.4172691"><ele>163.0</ele><time>2026-03-29T13:30:38.86Z</time></trkpt><trkpt lat="43.2373919" lon="11.4175472"><ele>162.0</ele><time>2026-03-29T13:30:39.852Z</time></trkpt><trkpt lat="43.2371774" lon="11.4178148"><ele>161.0</ele><time>2026-03-29T13:30:40.858Z</time></trkpt><trkpt lat="43.2369554" lon="11.4180652"><ele>160.5</ele><time>2026-03-29T13:30:41.855Z</time></trkpt><trkpt lat="43.236727" lon="11.4182956"><ele>160.0</ele><time>2026-03-29T13:30:42.86Z</time></trkpt><trkpt lat="43.2364921" lon="11.418511"><ele>161.5</ele><time>2026-03-29T13:30:43.855Z</time></trkpt><trkpt lat="43.236249" lon="11.418717"><ele>163.0</ele><time>2026-03-29T13:30:44.861Z</time></trkpt><trkpt lat="43.2360075" lon="11.418917"><ele>163.0</ele><time>2026-03-29T13:30:45.857Z</time></trkpt><trkpt lat="43.2357695" lon="11.4191131"><ele>163.0</ele><time>2026-03-29T13:30:46.842Z</time></trkpt><trkpt lat="43.2355205" lon="11.4193186"><ele>163.5</ele><time>2026-03-29T13:30:47.879Z</time></trkpt><trkpt lat="43.2352876" lon="11.4195206"><ele>164.0</ele><time>2026-03-29T13:30:48.868Z</time></trkpt><trkpt lat="43.2350581" lon="11.4197363"><ele>164.0</ele><time>2026-03-29T13:30:49.86Z</time></trkpt><trkpt lat="43.2348333" lon="11.4199533"><ele>164.0</ele><time>2026-03-29T13:30:50.858Z</time></trkpt><trkpt lat="43.2346118" lon="11.4201868"><ele>164.0</ele><time>2026-03-29T13:30:51.855Z</time></trkpt><trkpt lat="43.2344008" lon="11.4204383"><ele>164.0</ele><time>2026-03-29T13:30:52.858Z</time></trkpt><trkpt lat="43.2341951" lon="11.4207025"><ele>163.5</ele><time>2026-03-29T13:30:53.847Z</time></trkpt><trkpt lat="43.2339875" lon="11.4209917"><ele>163.0</ele><time>2026-03-29T13:30:54.887Z</time></trkpt><trkpt lat="43.2337991" lon="11.4212685"><ele>163.0</ele><time>2026-03-29T13:30:55.865Z</time></trkpt><trkpt lat="43.2336106" lon="11.4215689"><ele>163.0</ele><time>2026-03-29T13:30:56.868Z</time></trkpt><trkpt lat="43.233426" lon="11.4218688"><ele>163.5</ele><time>2026-03-29T13:30:57.865Z</time></trkpt><trkpt lat="43.2332323" lon="11.422173"><ele>164.0</ele><time>2026-03-29T13:30:58.86Z</time></trkpt><trkpt lat="43.233037" lon="11.4224653"><ele>164.5</ele><time>2026-03-29T13:30:59.859Z</time></trkpt><trkpt lat="43.2328312" lon="11.4227429"><ele>165.0</ele><time>2026-03-29T13:31:00.847Z</time></trkpt><trkpt lat="43.232609" lon="11.4230002"><ele>163.5</ele><time>2026-03-29T13:31:01.864Z</time></trkpt><trkpt lat="43.2323712" lon="11.4232441"><ele>162.0</ele><time>2026-03-29T13:31:02.863Z</time></trkpt><trkpt lat="43.2321232" lon="11.4234666"><ele>162.0</ele><time>2026-03-29T13:31:03.851Z</time></trkpt><trkpt lat="43.2318745" lon="11.4236751"><ele>162.0</ele><time>2026-03-29T13:31:04.856Z</time></trkpt><trkpt lat="43.2316152" lon="11.4238728"><ele>162.0</ele><time>2026-03-29T13:31:05.872Z</time></trkpt><trkpt lat="43.2313484" lon="11.4240606"><ele>162.0</ele><time>2026-03-29T13:31:06.877Z</time></trkpt><trkpt lat="43.2310855" lon="11.424236"><ele>162.0</ele><time>2026-03-29T13:31:07.854Z</time></trkpt><trkpt lat="43.2308076" lon="11.4244069"><ele>162.0</ele><time>2026-03-29T13:31:08.858Z</time></trkpt><trkpt lat="43.2305327" lon="11.4245884"><ele>162.0</ele><time>2026-03-29T13:31:09.867Z</time></trkpt><trkpt lat="43.2302669" lon="11.4247706"><ele>162.0</ele><time>2026-03-29T13:31:10.858Z</time></trkpt><trkpt lat="43.2300007" lon="11.4249552"><ele>162.0</ele><time>2026-03-29T13:31:11.857Z</time></trkpt><trkpt lat="43.2297419" lon="11.4251362"><ele>162.0</ele><time>2026-03-29T13:31:12.853Z</time></trkpt><trkpt lat="43.2294803" lon="11.425317"><ele>162.0</ele><time>2026-03-29T13:31:13.86Z</time></trkpt><trkpt lat="43.2292217" lon="11.4254888"><ele>162.0</ele><time>2026-03-29T13:31:14.854Z</time></trkpt><trkpt lat="43.2289542" lon="11.4256495"><ele>162.0</ele><time>2026-03-29T13:31:15.871Z</time></trkpt><trkpt lat="43.2286895" lon="11.4257857"><ele>162.0</ele><time>2026-03-29T13:31:16.85Z</time></trkpt><trkpt lat="43.2284169" lon="11.4258964"><ele>161.0</ele><time>2026-03-29T13:31:17.853Z</time></trkpt><trkpt lat="43.2281418" lon="11.4259935"><ele>160.0</ele><time>2026-03-29T13:31:18.857Z</time></trkpt><trkpt lat="43.2278637" lon="11.4260812"><ele>160.0</ele><time>2026-03-29T13:31:19.874Z</time></trkpt><trkpt lat="43.2275829" lon="11.4261604"><ele>160.0</ele><time>2026-03-29T13:31:20.867Z</time></trkpt><trkpt lat="43.2272933" lon="11.4262333"><ele>159.5</ele><time>2026-03-29T13:31:21.857Z</time></trkpt><trkpt lat="43.2269954" lon="11.4263052"><ele>159.0</ele><time>2026-03-29T13:31:22.852Z</time></trkpt><trkpt lat="43.2266915" lon="11.4263694"><ele>158.5</ele><time>2026-03-29T13:31:23.866Z</time></trkpt><trkpt lat="43.2264039" lon="11.4264456"><ele>158.0</ele><time>2026-03-29T13:31:24.854Z</time></trkpt><trkpt lat="43.2261113" lon="11.4265348"><ele>158.0</ele><time>2026-03-29T13:31:25.878Z</time></trkpt><trkpt lat="43.2258367" lon="11.4266295"><ele>158.0</ele><time>2026-03-29T13:31:26.854Z</time></trkpt><trkpt lat="43.2255593" lon="11.4267423"><ele>159.0</ele><time>2026-03-29T13:31:27.853Z</time></trkpt><trkpt lat="43.2253009" lon="11.4268729"><ele>160.0</ele><time>2026-03-29T13:31:28.868Z</time></trkpt><trkpt lat="43.2250593" lon="11.4270127"><ele>159.5</ele><time>2026-03-29T13:31:29.859Z</time></trkpt><trkpt lat="43.2248268" lon="11.4271814"><ele>159.0</ele><time>2026-03-29T13:31:30.863Z</time></trkpt><trkpt lat="43.224604" lon="11.4273739"><ele>158.5</ele><time>2026-03-29T13:31:31.857Z</time></trkpt><trkpt lat="43.2243777" lon="11.4275824"><ele>158.0</ele><time>2026-03-29T13:31:32.863Z</time></trkpt><trkpt lat="43.2241597" lon="11.4278014"><ele>158.5</ele><time>2026-03-29T13:31:33.862Z</time></trkpt><trkpt lat="43.2239428" lon="11.4280322"><ele>159.0</ele><time>2026-03-29T13:31:34.886Z</time></trkpt><trkpt lat="43.2237477" lon="11.4282531"><ele>159.0</ele><time>2026-03-29T13:31:35.864Z</time></trkpt><trkpt lat="43.2235439" lon="11.4284829"><ele>159.0</ele><time>2026-03-29T13:31:36.88Z</time></trkpt><trkpt lat="43.2233441" lon="11.4287009"><ele>160.0</ele><time>2026-03-29T13:31:37.857Z</time></trkpt><trkpt lat="43.2231318" lon="11.4289223"><ele>161.0</ele><time>2026-03-29T13:31:38.874Z</time></trkpt><trkpt lat="43.2229202" lon="11.4291408"><ele>161.0</ele><time>2026-03-29T13:31:39.863Z</time></trkpt><trkpt lat="43.2227013" lon="11.4293564"><ele>161.0</ele><time>2026-03-29T13:31:40.863Z</time></trkpt><trkpt lat="43.2224778" lon="11.4295591"><ele>160.0</ele><time>2026-03-29T13:31:41.881Z</time></trkpt><trkpt lat="43.2222373" lon="11.4297623"><ele>159.0</ele><time>2026-03-29T13:31:42.887Z</time></trkpt><trkpt lat="43.2219979" lon="11.4299611"><ele>159.0</ele><time>2026-03-29T13:31:43.854Z</time></trkpt><trkpt lat="43.2217456" lon="11.4301571"><ele>159.0</ele><time>2026-03-29T13:31:44.859Z</time></trkpt><trkpt lat="43.2214949" lon="11.4303471"><ele>158.5</ele><time>2026-03-29T13:31:45.877Z</time></trkpt><trkpt lat="43.2212572" lon="11.4305232"><ele>158.0</ele><time>2026-03-29T13:31:46.849Z</time></trkpt><trkpt lat="43.2210075" lon="11.430709"><ele>158.0</ele><time>2026-03-29T13:31:47.869Z</time></trkpt><trkpt lat="43.2207641" lon="11.4308849"><ele>158.0</ele><time>2026-03-29T13:31:48.855Z</time></trkpt><trkpt lat="43.220514" lon="11.4310629"><ele>158.0</ele><time>2026-03-29T13:31:49.868Z</time></trkpt><trkpt lat="43.2202698" lon="11.4312399"><ele>158.0</ele><time>2026-03-29T13:31:50.872Z</time></trkpt><trkpt lat="43.2200346" lon="11.4314134"><ele>159.0</ele><time>2026-03-29T13:31:51.854Z</time></trkpt><trkpt lat="43.2198039" lon="11.4315873"><ele>160.0</ele><time>2026-03-29T13:31:52.852Z</time></trkpt><trkpt lat="43.2195723" lon="11.4317653"><ele>160.0</ele><time>2026-03-29T13:31:53.846Z</time></trkpt><trkpt lat="43.21933" lon="11.4319493"><ele>160.0</ele><time>2026-03-29T13:31:54.888Z</time></trkpt><trkpt lat="43.2191106" lon="11.4321116"><ele>159.5</ele><time>2026-03-29T13:31:55.86Z</time></trkpt><trkpt lat="43.2188835" lon="11.4322833"><ele>159.0</ele><time>2026-03-29T13:31:56.866Z</time></trkpt><trkpt lat="43.2186557" lon="11.4324631"><ele>159.0</ele><time>2026-03-29T13:31:57.867Z</time></trkpt><trkpt lat="43.2184296" lon="11.4326465"><ele>159.0</ele><time>2026-03-29T13:31:58.877Z</time></trkpt><trkpt lat="43.2182154" lon="11.4328172"><ele>158.5</ele><time>2026-03-29T13:31:59.857Z</time></trkpt><trkpt lat="43.2180012" lon="11.4329823"><ele>158.0</ele><time>2026-03-29T13:32:00.867Z</time></trkpt><trkpt lat="43.2178024" lon="11.4331295"><ele>158.0</ele><time>2026-03-29T13:32:01.856Z</time></trkpt><trkpt lat="43.2176084" lon="11.4332629"><ele>158.0</ele><time>2026-03-29T13:32:02.884Z</time></trkpt><trkpt lat="43.2174256" lon="11.4333851"><ele>158.0</ele><time>2026-03-29T13:32:03.878Z</time></trkpt><trkpt lat="43.2172551" lon="11.4334781"><ele>158.33333333333331</ele><time>2026-03-29T13:32:04.864Z</time></trkpt><trkpt lat="43.2170897" lon="11.4335454"><ele>158.66666666666666</ele><time>2026-03-29T13:32:05.859Z</time></trkpt><trkpt lat="43.2169186" lon="11.4335848"><ele>159.0</ele><time>2026-03-29T13:32:06.875Z</time></trkpt><trkpt lat="43.2167529" lon="11.4335835"><ele>159.0</ele><time>2026-03-29T13:32:07.86Z</time></trkpt><trkpt lat="43.2166079" lon="11.4335472"><ele>159.0</ele><time>2026-03-29T13:32:08.849Z</time></trkpt><trkpt lat="43.2164678" lon="11.4334927"><ele>159.0</ele><time>2026-03-29T13:32:09.865Z</time></trkpt><trkpt lat="43.2163514" lon="11.4334339"><ele>159.0</ele><time>2026-03-29T13:32:10.853Z</time></trkpt><trkpt lat="43.2162412" lon="11.4333775"><ele>159.16666666666666</ele><time>2026-03-29T13:32:11.858Z</time></trkpt><trkpt lat="43.2161592" lon="11.4333228"><ele>159.33333333333334</ele><time>2026-03-29T13:32:12.857Z</time></trkpt><trkpt lat="43.2161032" lon="11.4332557"><ele>159.5</ele><time>2026-03-29T13:32:13.865Z</time></trkpt><trkpt lat="43.2160665" lon="11.4331672"><ele>159.66666666666669</ele><time>2026-03-29T13:32:14.853Z</time></trkpt><trkpt lat="43.216058" lon="11.4330717"><ele>159.83333333333334</ele><time>2026-03-29T13:32:15.851Z</time></trkpt><trkpt lat="43.2160428" lon="11.4329552"><ele>160.0</ele><time>2026-03-29T13:32:16.864Z</time></trkpt><trkpt lat="43.216024" lon="11.4328322"><ele>160.0</ele><time>2026-03-29T13:32:17.864Z</time></trkpt><trkpt lat="43.2159766" lon="11.4327103"><ele>160.0</ele><time>2026-03-29T13:32:18.854Z</time></trkpt><trkpt lat="43.2159073" lon="11.4326132"><ele>160.0</ele><time>2026-03-29T13:32:19.893Z</time></trkpt><trkpt lat="43.2158403" lon="11.432567"><ele>160.0</ele><time>2026-03-29T13:32:20.871Z</time></trkpt><trkpt lat="43.2157683" lon="11.4325315"><ele>160.0</ele><time>2026-03-29T13:32:21.854Z</time></trkpt><trkpt lat="43.21567" lon="11.4325264"><ele>160.25</ele><time>2026-03-29T13:32:22.867Z</time></trkpt><trkpt lat="43.2155535" lon="11.4325488"><ele>160.5</ele><time>2026-03-29T13:32:23.859Z</time></trkpt><trkpt lat="43.2154254" lon="11.4325948"><ele>160.75</ele><time>2026-03-29T13:32:24.867Z</time></trkpt><trkpt lat="43.2152883" lon="11.4326422"><ele>161.0</ele><time>2026-03-29T13:32:25.88Z</time></trkpt><trkpt lat="43.2151305" lon="11.4326465"><ele>161.0</ele><time>2026-03-29T13:32:26.89Z</time></trkpt><trkpt lat="43.21497" lon="11.432618"><ele>161.0</ele><time>2026-03-29T13:32:27.876Z</time></trkpt><trkpt lat="43.2147954" lon="11.4325738"><ele>161.0</ele><time>2026-03-29T13:32:28.853Z</time></trkpt><trkpt lat="43.2146147" lon="11.4325119"><ele>162.0</ele><time>2026-03-29T13:32:29.855Z</time></trkpt><trkpt lat="43.2144319" lon="11.43244"><ele>163.0</ele><time>2026-03-29T13:32:30.868Z</time></trkpt><trkpt lat="43.2142449" lon="11.4323679"><ele>164.0</ele><time>2026-03-29T13:32:31.876Z</time></trkpt><trkpt lat="43.2140813" lon="11.4322904"><ele>164.33333333333331</ele><time>2026-03-29T13:32:32.876Z</time></trkpt><trkpt lat="43.2138978" lon="11.4322244"><ele>164.66666666666666</ele><time>2026-03-29T13:32:33.881Z</time></trkpt><trkpt lat="43.2137464" lon="11.4321513"><ele>165.0</ele><time>2026-03-29T13:32:34.858Z</time></trkpt><trkpt lat="43.2135777" lon="11.4320832"><ele>165.0</ele><time>2026-03-29T13:32:35.882Z</time></trkpt><trkpt lat="43.2134275" lon="11.4320189"><ele>165.0</ele><time>2026-03-29T13:32:36.861Z</time></trkpt><trkpt lat="43.2132637" lon="11.4319577"><ele>165.0</ele><time>2026-03-29T13:32:37.88Z</time></trkpt><trkpt lat="43.2130999" lon="11.4319131"><ele>165.0</ele><time>2026-03-29T13:32:38.868Z</time></trkpt><trkpt lat="43.2129395" lon="11.4318745"><ele>165.0</ele><time>2026-03-29T13:32:39.877Z</time></trkpt><trkpt lat="43.2127789" lon="11.431854"><ele>165.0</ele><time>2026-03-29T13:32:40.867Z</time></trkpt><trkpt lat="43.2126253" lon="11.4318509"><ele>165.0</ele><time>2026-03-29T13:32:41.848Z</time></trkpt><trkpt lat="43.2124801" lon="11.4318565"><ele>165.0</ele><time>2026-03-29T13:32:42.852Z</time></trkpt><trkpt lat="43.2123429" lon="11.4318729"><ele>165.0</ele><time>2026-03-29T13:32:43.865Z</time></trkpt><trkpt lat="43.2121946" lon="11.4318835"><ele>165.0</ele><time>2026-03-29T13:32:44.881Z</time></trkpt><trkpt lat="43.2120435" lon="11.4318916"><ele>165.33333333333334</ele><time>2026-03-29T13:32:45.859Z</time></trkpt><trkpt lat="43.2118798" lon="11.4318982"><ele>165.66666666666669</ele><time>2026-03-29T13:32:46.87Z</time></trkpt><trkpt lat="43.2117165" lon="11.4319001"><ele>166.0</ele><time>2026-03-29T13:32:47.867Z</time></trkpt><trkpt lat="43.2115592" lon="11.4319037"><ele>165.66666666666669</ele><time>2026-03-29T13:32:48.863Z</time></trkpt><trkpt lat="43.2114041" lon="11.4319022"><ele>165.33333333333334</ele><time>2026-03-29T13:32:49.865Z</time></trkpt><trkpt lat="43.2112481" lon="11.4319005"><ele>165.0</ele><time>2026-03-29T13:32:50.869Z</time></trkpt><trkpt lat="43.2110986" lon="11.4318954"><ele>165.0</ele><time>2026-03-29T13:32:51.869Z</time></trkpt><trkpt lat="43.2109456" lon="11.4318947"><ele>165.0</ele><time>2026-03-29T13:32:52.857Z</time></trkpt><trkpt lat="43.2107817" lon="11.4318593"><ele>165.0</ele><time>2026-03-29T13:32:53.869Z</time></trkpt><trkpt lat="43.2106257" lon="11.4318329"><ele>165.33333333333334</ele><time>2026-03-29T13:32:54.866Z</time></trkpt><trkpt lat="43.2104613" lon="11.4318019"><ele>165.66666666666669</ele><time>2026-03-29T13:32:55.872Z</time></trkpt><trkpt lat="43.2103035" lon="11.4317787"><ele>166.0</ele><time>2026-03-29T13:32:56.861Z</time></trkpt><trkpt lat="43.2101558" lon="11.4317645"><ele>166.0</ele><time>2026-03-29T13:32:57.864Z</time></trkpt><trkpt lat="43.2100165" lon="11.431766"><ele>166.0</ele><time>2026-03-29T13:32:58.86Z</time></trkpt><trkpt lat="43.2098731" lon="11.4317757"><ele>166.0</ele><time>2026-03-29T13:32:59.879Z</time></trkpt><trkpt lat="43.2097353" lon="11.4317898"><ele>166.0</ele><time>2026-03-29T13:33:00.86Z</time></trkpt><trkpt lat="43.2095878" lon="11.431813"><ele>165.75</ele><time>2026-03-29T13:33:01.872Z</time></trkpt><trkpt lat="43.2094482" lon="11.4318588"><ele>165.5</ele><time>2026-03-29T13:33:02.858Z</time></trkpt><trkpt lat="43.209345" lon="11.4319396"><ele>165.25</ele><time>2026-03-29T13:33:03.865Z</time></trkpt><trkpt lat="43.2092308" lon="11.4320614"><ele>165.0</ele><time>2026-03-29T13:33:04.872Z</time></trkpt><trkpt lat="43.2091297" lon="11.4322094"><ele>165.0</ele><time>2026-03-29T13:33:05.872Z</time></trkpt><trkpt lat="43.2090406" lon="11.4324049"><ele>165.0</ele><time>2026-03-29T13:33:06.857Z</time></trkpt><trkpt lat="43.2089625" lon="11.4326237"><ele>165.0</ele><time>2026-03-29T13:33:07.865Z</time></trkpt><trkpt lat="43.2089038" lon="11.4328226"><ele>164.5</ele><time>2026-03-29T13:33:08.873Z</time></trkpt><trkpt lat="43.2088494" lon="11.4330178"><ele>164.0</ele><time>2026-03-29T13:33:09.869Z</time></trkpt><trkpt lat="43.2087924" lon="11.4331969"><ele>163.5</ele><time>2026-03-29T13:33:10.862Z</time></trkpt><trkpt lat="43.2087388" lon="11.433358"><ele>163.0</ele><time>2026-03-29T13:33:11.873Z</time></trkpt><trkpt lat="43.2086935" lon="11.4335066"><ele>163.0</ele><time>2026-03-29T13:33:12.862Z</time></trkpt><trkpt lat="43.208651" lon="11.4336535"><ele>163.0</ele><time>2026-03-29T13:33:13.88Z</time></trkpt><trkpt lat="43.2086151" lon="11.4338097"><ele>163.0</ele><time>2026-03-29T13:33:14.859Z</time></trkpt><trkpt lat="43.2086043" lon="11.4339868"><ele>163.0</ele><time>2026-03-29T13:33:15.861Z</time></trkpt><trkpt lat="43.2086133" lon="11.4341909"><ele>163.0</ele><time>2026-03-29T13:33:16.87Z</time></trkpt><trkpt lat="43.2086379" lon="11.4344042"><ele>163.0</ele><time>2026-03-29T13:33:17.85Z</time></trkpt><trkpt lat="43.2086622" lon="11.4346581"><ele>163.0</ele><time>2026-03-29T13:33:18.857Z</time></trkpt><trkpt lat="43.208682" lon="11.4349249"><ele>162.0</ele><time>2026-03-29T13:33:19.871Z</time></trkpt><trkpt lat="43.20868" lon="11.4351821"><ele>161.0</ele><time>2026-03-29T13:33:20.846Z</time></trkpt><trkpt lat="43.2086649" lon="11.435447"><ele>160.0</ele><time>2026-03-29T13:33:21.885Z</time></trkpt><trkpt lat="43.2086242" lon="11.4356714"><ele>159.75</ele><time>2026-03-29T13:33:22.88Z</time></trkpt><trkpt lat="43.2085799" lon="11.4358778"><ele>159.5</ele><time>2026-03-29T13:33:23.859Z</time></trkpt><trkpt lat="43.2085314" lon="11.4360779"><ele>159.25</ele><time>2026-03-29T13:33:24.872Z</time></trkpt><trkpt lat="43.2084853" lon="11.4362576"><ele>159.0</ele><time>2026-03-29T13:33:25.872Z</time></trkpt><trkpt lat="43.2084461" lon="11.4364201"><ele>159.0</ele><time>2026-03-29T13:33:26.866Z</time></trkpt><trkpt lat="43.2084062" lon="11.4365763"><ele>159.0</ele><time>2026-03-29T13:33:27.873Z</time></trkpt><trkpt lat="43.2083637" lon="11.4367411"><ele>159.0</ele><time>2026-03-29T13:33:28.878Z</time></trkpt><trkpt lat="43.2083138" lon="11.4368949"><ele>159.0</ele><time>2026-03-29T13:33:29.863Z</time></trkpt><trkpt lat="43.2082713" lon="11.4370531"><ele>158.66666666666666</ele><time>2026-03-29T13:33:30.883Z</time></trkpt><trkpt lat="43.2082209" lon="11.4372537"><ele>158.33333333333331</ele><time>2026-03-29T13:33:31.883Z</time></trkpt><trkpt lat="43.2081558" lon="11.4374616"><ele>158.0</ele><time>2026-03-29T13:33:32.863Z</time></trkpt><trkpt lat="43.2080737" lon="11.4376989"><ele>157.66666666666666</ele><time>2026-03-29T13:33:33.89Z</time></trkpt><trkpt lat="43.2079958" lon="11.4379255"><ele>157.33333333333334</ele><time>2026-03-29T13:33:34.856Z</time></trkpt><trkpt lat="43.2079102" lon="11.4381915"><ele>157.0</ele><time>2026-03-29T13:33:35.859Z</time></trkpt><trkpt lat="43.2078217" lon="11.4384588"><ele>157.0</ele><time>2026-03-29T13:33:36.887Z</time></trkpt><trkpt lat="43.2077416" lon="11.4386774"><ele>157.0</ele><time>2026-03-29T13:33:37.855Z</time></trkpt><trkpt lat="43.2076431" lon="11.4389064"><ele>157.0</ele><time>2026-03-29T13:33:38.876Z</time></trkpt><trkpt lat="43.2075208" lon="11.4391193"><ele>157.0</ele><time>2026-03-29T13:33:39.87Z</time></trkpt><trkpt lat="43.2073796" lon="11.4392833"><ele>157.0</ele><time>2026-03-29T13:33:40.866Z</time></trkpt><trkpt lat="43.2072145" lon="11.4394121"><ele>157.0</ele><time>2026-03-29T13:33:41.856Z</time></trkpt><trkpt lat="43.2070169" lon="11.4395323"><ele>157.0</ele><time>2026-03-29T13:33:42.871Z</time></trkpt><trkpt lat="43.2068154" lon="11.4396467"><ele>157.0</ele><time>2026-03-29T13:33:43.861Z</time></trkpt><trkpt lat="43.2066003" lon="11.4397773"><ele>157.0</ele><time>2026-03-29T13:33:44.871Z</time></trkpt><trkpt lat="43.2063822" lon="11.4399129"><ele>157.0</ele><time>2026-03-29T13:33:45.866Z</time></trkpt><trkpt lat="43.2061526" lon="11.4400538"><ele>157.0</ele><time>2026-03-29T13:33:46.86Z</time></trkpt><trkpt lat="43.2059086" lon="11.4401892"><ele>157.0</ele><time>2026-03-29T13:33:47.864Z</time></trkpt><trkpt lat="43.2056705" lon="11.4403268"><ele>157.5</ele><time>2026-03-29T13:33:48.871Z</time></trkpt><trkpt lat="43.2054398" lon="11.4404572"><ele>158.0</ele><time>2026-03-29T13:33:49.86Z</time></trkpt><trkpt lat="43.2052103" lon="11.4405886"><ele>158.0</ele><time>2026-03-29T13:33:50.865Z</time></trkpt><trkpt lat="43.204977" lon="11.4407169"><ele>158.0</ele><time>2026-03-29T13:33:51.871Z</time></trkpt><trkpt lat="43.2047534" lon="11.4408514"><ele>158.5</ele><time>2026-03-29T13:33:52.869Z</time></trkpt><trkpt lat="43.2045314" lon="11.4409826"><ele>159.0</ele><time>2026-03-29T13:33:53.869Z</time></trkpt><trkpt lat="43.2043256" lon="11.4411196"><ele>159.0</ele><time>2026-03-29T13:33:54.862Z</time></trkpt><trkpt lat="43.2041151" lon="11.4412725"><ele>159.0</ele><time>2026-03-29T13:33:55.859Z</time></trkpt><trkpt lat="43.2039117" lon="11.4414428"><ele>160.0</ele><time>2026-03-29T13:33:56.868Z</time></trkpt><trkpt lat="43.2037295" lon="11.4416216"><ele>161.0</ele><time>2026-03-29T13:33:57.852Z</time></trkpt><trkpt lat="43.2035533" lon="11.4418182"><ele>161.0</ele><time>2026-03-29T13:33:58.856Z</time></trkpt><trkpt lat="43.2033951" lon="11.4420237"><ele>161.0</ele><time>2026-03-29T13:33:59.863Z</time></trkpt><trkpt lat="43.2032488" lon="11.4422209"><ele>161.0</ele><time>2026-03-29T13:34:00.861Z</time></trkpt><trkpt lat="43.2031128" lon="11.4424026"><ele>160.66666666666666</ele><time>2026-03-29T13:34:01.878Z</time></trkpt><trkpt lat="43.2029889" lon="11.4425603"><ele>160.33333333333334</ele><time>2026-03-29T13:34:02.867Z</time></trkpt><trkpt lat="43.2028524" lon="11.4426869"><ele>160.0</ele><time>2026-03-29T13:34:03.871Z</time></trkpt><trkpt lat="43.2027165" lon="11.4427653"><ele>160.0</ele><time>2026-03-29T13:34:04.855Z</time></trkpt><trkpt lat="43.2025298" lon="11.4428183"><ele>160.0</ele><time>2026-03-29T13:34:05.848Z</time></trkpt><trkpt lat="43.2023338" lon="11.4428384"><ele>160.0</ele><time>2026-03-29T13:34:06.866Z</time></trkpt><trkpt lat="43.2021168" lon="11.4428596"><ele>159.5</ele><time>2026-03-29T13:34:07.862Z</time></trkpt><trkpt lat="43.2018831" lon="11.4428875"><ele>159.0</ele><time>2026-03-29T13:34:08.866Z</time></trkpt><trkpt lat="43.201626" lon="11.4429175"><ele>158.0</ele><time>2026-03-29T13:34:09.86Z</time></trkpt><trkpt lat="43.2013394" lon="11.4429437"><ele>157.0</ele><time>2026-03-29T13:34:10.901Z</time></trkpt><trkpt lat="43.2010659" lon="11.4429636"><ele>156.5</ele><time>2026-03-29T13:34:11.866Z</time></trkpt><trkpt lat="43.2007793" lon="11.4429899"><ele>156.0</ele><time>2026-03-29T13:34:12.856Z</time></trkpt><trkpt lat="43.2004955" lon="11.443017"><ele>157.0</ele><time>2026-03-29T13:34:13.862Z</time></trkpt><trkpt lat="43.2002193" lon="11.4430423"><ele>158.0</ele><time>2026-03-29T13:34:14.865Z</time></trkpt><trkpt lat="43.199954" lon="11.4430687"><ele>157.5</ele><time>2026-03-29T13:34:15.862Z</time></trkpt><trkpt lat="43.1996962" lon="11.4430931"><ele>157.0</ele><time>2026-03-29T13:34:16.857Z</time></trkpt><trkpt lat="43.1994525" lon="11.4431163"><ele>157.0</ele><time>2026-03-29T13:34:17.864Z</time></trkpt><trkpt lat="43.1992168" lon="11.4431382"><ele>157.0</ele><time>2026-03-29T13:34:18.859Z</time></trkpt><trkpt lat="43.1989881" lon="11.4431664"><ele>157.5</ele><time>2026-03-29T13:34:19.865Z</time></trkpt><trkpt lat="43.1987543" lon="11.4432148"><ele>158.0</ele><time>2026-03-29T13:34:20.864Z</time></trkpt><trkpt lat="43.1985172" lon="11.4432886"><ele>158.0</ele><time>2026-03-29T13:34:21.853Z</time></trkpt><trkpt lat="43.1982779" lon="11.4433959"><ele>158.0</ele><time>2026-03-29T13:34:22.858Z</time></trkpt><trkpt lat="43.1980263" lon="11.4435153"><ele>158.5</ele><time>2026-03-29T13:34:23.862Z</time></trkpt><trkpt lat="43.1977832" lon="11.4436429"><ele>159.0</ele><time>2026-03-29T13:34:24.873Z</time></trkpt><trkpt lat="43.1975565" lon="11.443757"><ele>158.5</ele><time>2026-03-29T13:34:25.85Z</time></trkpt><trkpt lat="43.1973241" lon="11.4438759"><ele>158.0</ele><time>2026-03-29T13:34:26.874Z</time></trkpt><trkpt lat="43.1971115" lon="11.4439835"><ele>158.0</ele><time>2026-03-29T13:34:27.876Z</time></trkpt><trkpt lat="43.1969" lon="11.444087"><ele>158.0</ele><time>2026-03-29T13:34:28.874Z</time></trkpt><trkpt lat="43.1967028" lon="11.4441895"><ele>158.0</ele><time>2026-03-29T13:34:29.869Z</time></trkpt><trkpt lat="43.1965352" lon="11.4442952"><ele>159.0</ele><time>2026-03-29T13:34:30.863Z</time></trkpt><trkpt lat="43.1963674" lon="11.4444276"><ele>160.0</ele><time>2026-03-29T13:34:31.879Z</time></trkpt><trkpt lat="43.1962132" lon="11.4445813"><ele>161.0</ele><time>2026-03-29T13:34:32.853Z</time></trkpt><trkpt lat="43.1960791" lon="11.4447651"><ele>161.0</ele><time>2026-03-29T13:34:33.866Z</time></trkpt><trkpt lat="43.1959426" lon="11.4449835"><ele>161.0</ele><time>2026-03-29T13:34:34.868Z</time></trkpt><trkpt lat="43.1958265" lon="11.4452389"><ele>161.0</ele><time>2026-03-29T13:34:35.868Z</time></trkpt><trkpt lat="43.1957285" lon="11.4455202"><ele>166.5</ele><time>2026-03-29T13:34:36.857Z</time></trkpt><trkpt lat="43.1956423" lon="11.4458455"><ele>172.0</ele><time>2026-03-29T13:34:37.872Z</time></trkpt><trkpt lat="43.1955648" lon="11.4461777"><ele>170.5</ele><time>2026-03-29T13:34:38.847Z</time></trkpt><trkpt lat="43.1955001" lon="11.4465325"><ele>169.0</ele><time>2026-03-29T13:34:39.869Z</time></trkpt><trkpt lat="43.1954313" lon="11.4468883"><ele>167.5</ele><time>2026-03-29T13:34:40.858Z</time></trkpt><trkpt lat="43.1953715" lon="11.4472273"><ele>166.0</ele><time>2026-03-29T13:34:41.858Z</time></trkpt><trkpt lat="43.1953136" lon="11.4475864"><ele>166.0</ele><time>2026-03-29T13:34:42.956Z</time></trkpt><trkpt lat="43.1952606" lon="11.4478788"><ele>166.0</ele><time>2026-03-29T13:34:43.893Z</time></trkpt><trkpt lat="43.1951951" lon="11.4481696"><ele>166.0</ele><time>2026-03-29T13:34:44.868Z</time></trkpt><trkpt lat="43.1951173" lon="11.4484448"><ele>166.66666666666669</ele><time>2026-03-29T13:34:45.881Z</time></trkpt><trkpt lat="43.1950244" lon="11.4486991"><ele>167.33333333333334</ele><time>2026-03-29T13:34:46.863Z</time></trkpt><trkpt lat="43.1948907" lon="11.4489567"><ele>168.0</ele><time>2026-03-29T13:34:47.86Z</time></trkpt><trkpt lat="43.1947417" lon="11.4492254"><ele>168.0</ele><time>2026-03-29T13:34:48.87Z</time></trkpt><trkpt lat="43.1945819" lon="11.4495062"><ele>168.0</ele><time>2026-03-29T13:34:49.874Z</time></trkpt><trkpt lat="43.1944129" lon="11.4498036"><ele>164.0</ele><time>2026-03-29T13:34:50.878Z</time></trkpt><trkpt lat="43.194231" lon="11.4501081"><ele>160.0</ele><time>2026-03-29T13:34:51.865Z</time></trkpt><trkpt lat="43.1940521" lon="11.4504069"><ele>159.0</ele><time>2026-03-29T13:34:52.852Z</time></trkpt><trkpt lat="43.1938735" lon="11.4507059"><ele>158.0</ele><time>2026-03-29T13:34:53.868Z</time></trkpt><trkpt lat="43.1937103" lon="11.4509825"><ele>158.0</ele><time>2026-03-29T13:34:54.853Z</time></trkpt><trkpt lat="43.1935474" lon="11.4512567"><ele>158.0</ele><time>2026-03-29T13:34:55.865Z</time></trkpt><trkpt lat="43.1933937" lon="11.4515043"><ele>156.66666666666666</ele><time>2026-03-29T13:34:56.86Z</time></trkpt><trkpt lat="43.1932508" lon="11.4517426"><ele>155.33333333333334</ele><time>2026-03-29T13:34:57.88Z</time></trkpt><trkpt lat="43.1931217" lon="11.4519636"><ele>154.0</ele><time>2026-03-29T13:34:58.868Z</time></trkpt><trkpt lat="43.1929954" lon="11.4521779"><ele>157.66666666666669</ele><time>2026-03-29T13:34:59.882Z</time></trkpt><trkpt lat="43.1928746" lon="11.452376"><ele>161.33333333333334</ele><time>2026-03-29T13:35:00.886Z</time></trkpt><trkpt lat="43.1927709" lon="11.4525541"><ele>165.0</ele><time>2026-03-29T13:35:01.887Z</time></trkpt><trkpt lat="43.1927016" lon="11.4527133"><ele>165.0</ele><time>2026-03-29T13:35:02.882Z</time></trkpt><trkpt lat="43.1926572" lon="11.4528917"><ele>165.0</ele><time>2026-03-29T13:35:03.889Z</time></trkpt><trkpt lat="43.1926517" lon="11.4530374"><ele>165.0</ele><time>2026-03-29T13:35:04.865Z</time></trkpt><trkpt lat="43.1926849" lon="11.4532069"><ele>165.0</ele><time>2026-03-29T13:35:05.892Z</time></trkpt><trkpt lat="43.19278" lon="11.4533608"><ele>165.5</ele><time>2026-03-29T13:35:06.866Z</time></trkpt><trkpt lat="43.1928802" lon="11.4535138"><ele>166.0</ele><time>2026-03-29T13:35:07.863Z</time></trkpt><trkpt lat="43.1929658" lon="11.4536831"><ele>166.5</ele><time>2026-03-29T13:35:08.866Z</time></trkpt><trkpt lat="43.193018" lon="11.4538749"><ele>167.0</ele><time>2026-03-29T13:35:09.859Z</time></trkpt><trkpt lat="43.1930637" lon="11.4540583"><ele>167.25</ele><time>2026-03-29T13:35:10.858Z</time></trkpt><trkpt lat="43.1931017" lon="11.4542268"><ele>167.5</ele><time>2026-03-29T13:35:11.868Z</time></trkpt><trkpt lat="43.1931169" lon="11.4543666"><ele>167.75</ele><time>2026-03-29T13:35:12.862Z</time></trkpt><trkpt lat="43.1931044" lon="11.4546509"><ele>168.0</ele><time>2026-03-29T13:35:13.867Z</time></trkpt><trkpt lat="43.1930472" lon="11.4547782"><ele>167.5</ele><time>2026-03-29T13:35:14.874Z</time></trkpt><trkpt lat="43.1929572" lon="11.4548723"><ele>167.0</ele><time>2026-03-29T13:35:15.86Z</time></trkpt><trkpt lat="43.1928298" lon="11.4549614"><ele>166.5</ele><time>2026-03-29T13:35:16.86Z</time></trkpt><trkpt lat="43.1926972" lon="11.4550116"><ele>166.0</ele><time>2026-03-29T13:35:17.871Z</time></trkpt><trkpt lat="43.1925599" lon="11.4550126"><ele>166.0</ele><time>2026-03-29T13:35:18.869Z</time></trkpt><trkpt lat="43.1924151" lon="11.4549718"><ele>166.0</ele><time>2026-03-29T13:35:19.915Z</time></trkpt><trkpt lat="43.1922841" lon="11.454913"><ele>166.0</ele><time>2026-03-29T13:35:20.898Z</time></trkpt><trkpt lat="43.192189" lon="11.4548329"><ele>166.0</ele><time>2026-03-29T13:35:21.9Z</time></trkpt><trkpt lat="43.1921185" lon="11.4547259"><ele>166.0</ele><time>2026-03-29T13:35:22.921Z</time></trkpt><trkpt lat="43.1920455" lon="11.4545918"><ele>166.0</ele><time>2026-03-29T13:35:23.906Z</time></trkpt><trkpt lat="43.1919855" lon="11.4544584"><ele>166.0</ele><time>2026-03-29T13:35:24.893Z</time></trkpt><trkpt lat="43.1919164" lon="11.4542851"><ele>166.0</ele><time>2026-03-29T13:35:25.873Z</time></trkpt><trkpt lat="43.1918379" lon="11.4540989"><ele>167.66666666666669</ele><time>2026-03-29T13:35:26.858Z</time></trkpt><trkpt lat="43.1917039" lon="11.4537813"><ele>169.33333333333334</ele><time>2026-03-29T13:35:27.869Z</time></trkpt><trkpt lat="43.1916044" lon="11.4535848"><ele>171.0</ele><time>2026-03-29T13:35:28.865Z</time></trkpt><trkpt lat="43.1914773" lon="11.4534103"><ele>171.0</ele><time>2026-03-29T13:35:29.863Z</time></trkpt><trkpt lat="43.1913915" lon="11.4533533"><ele>171.0</ele><time>2026-03-29T13:35:30.877Z</time></trkpt><trkpt lat="43.1912553" lon="11.4532789"><ele>171.0</ele><time>2026-03-29T13:35:31.873Z</time></trkpt><trkpt lat="43.1910735" lon="11.4532209"><ele>171.0</ele><time>2026-03-29T13:35:32.876Z</time></trkpt><trkpt lat="43.1908822" lon="11.4532072"><ele>174.0</ele><time>2026-03-29T13:35:33.869Z</time></trkpt><trkpt lat="43.1906739" lon="11.4532513"><ele>177.0</ele><time>2026-03-29T13:35:34.878Z</time></trkpt><trkpt lat="43.1904286" lon="11.453334"><ele>177.0</ele><time>2026-03-29T13:35:35.929Z</time></trkpt><trkpt lat="43.190212" lon="11.4534579"><ele>177.0</ele><time>2026-03-29T13:35:36.91Z</time></trkpt><trkpt lat="43.1899996" lon="11.4535798"><ele>177.0</ele><time>2026-03-29T13:35:37.869Z</time></trkpt><trkpt lat="43.1899168" lon="11.4536586"><ele>177.0</ele><time>2026-03-29T13:35:38.879Z</time></trkpt><trkpt lat="43.1897421" lon="11.4537454"><ele>177.0</ele><time>2026-03-29T13:35:39.966Z</time></trkpt><trkpt lat="43.1895954" lon="11.4538024"><ele>177.0</ele><time>2026-03-29T13:35:40.866Z</time></trkpt><trkpt lat="43.1894019" lon="11.4538385"><ele>177.0</ele><time>2026-03-29T13:35:41.896Z</time></trkpt><trkpt lat="43.1892081" lon="11.4538497"><ele>177.0</ele><time>2026-03-29T13:35:42.864Z</time></trkpt><trkpt lat="43.1889745" lon="11.4538302"><ele>177.0</ele><time>2026-03-29T13:35:43.867Z</time></trkpt><trkpt lat="43.188735" lon="11.4537996"><ele>179.0</ele><time>2026-03-29T13:35:44.873Z</time></trkpt><trkpt lat="43.188507" lon="11.4538166"><ele>181.0</ele><time>2026-03-29T13:35:45.867Z</time></trkpt><trkpt lat="43.188278" lon="11.4538937"><ele>181.0</ele><time>2026-03-29T13:35:46.884Z</time></trkpt><trkpt lat="43.1881916" lon="11.453955"><ele>181.0</ele><time>2026-03-29T13:35:47.872Z</time></trkpt><trkpt lat="43.1879933" lon="11.4540532"><ele>181.0</ele><time>2026-03-29T13:35:48.874Z</time></trkpt><trkpt lat="43.1877625" lon="11.4541893"><ele>180.0</ele><time>2026-03-29T13:35:49.873Z</time></trkpt><trkpt lat="43.1875215" lon="11.4543187"><ele>179.0</ele><time>2026-03-29T13:35:50.883Z</time></trkpt><trkpt lat="43.1872304" lon="11.4544963"><ele>174.5</ele><time>2026-03-29T13:35:51.874Z</time></trkpt><trkpt lat="43.1869599" lon="11.4546584"><ele>170.0</ele><time>2026-03-29T13:35:52.859Z</time></trkpt><trkpt lat="43.186706" lon="11.4547916"><ele>169.5</ele><time>2026-03-29T13:35:53.861Z</time></trkpt><trkpt lat="43.1864606" lon="11.4549351"><ele>169.0</ele><time>2026-03-29T13:35:54.89Z</time></trkpt><trkpt lat="43.1862455" lon="11.4550713"><ele>169.0</ele><time>2026-03-29T13:35:55.872Z</time></trkpt><trkpt lat="43.1860392" lon="11.4552164"><ele>169.0</ele><time>2026-03-29T13:35:56.858Z</time></trkpt><trkpt lat="43.1858496" lon="11.4553729"><ele>168.0</ele><time>2026-03-29T13:35:57.872Z</time></trkpt><trkpt lat="43.1856776" lon="11.4555384"><ele>167.0</ele><time>2026-03-29T13:35:58.874Z</time></trkpt><trkpt lat="43.1855238" lon="11.4557172"><ele>166.0</ele><time>2026-03-29T13:35:59.866Z</time></trkpt><trkpt lat="43.1853685" lon="11.4559074"><ele>166.0</ele><time>2026-03-29T13:36:00.873Z</time></trkpt><trkpt lat="43.1851981" lon="11.4561079"><ele>166.0</ele><time>2026-03-29T13:36:01.881Z</time></trkpt><trkpt lat="43.1850337" lon="11.4563117"><ele>166.0</ele><time>2026-03-29T13:36:02.867Z</time></trkpt><trkpt lat="43.1848819" lon="11.4565131"><ele>165.33333333333334</ele><time>2026-03-29T13:36:03.867Z</time></trkpt><trkpt lat="43.184731" lon="11.4567058"><ele>164.66666666666666</ele><time>2026-03-29T13:36:04.88Z</time></trkpt><trkpt lat="43.184593" lon="11.4568921"><ele>164.0</ele><time>2026-03-29T13:36:05.875Z</time></trkpt><trkpt lat="43.1844664" lon="11.4570724"><ele>163.66666666666666</ele><time>2026-03-29T13:36:06.856Z</time></trkpt><trkpt lat="43.1843305" lon="11.4572638"><ele>163.33333333333334</ele><time>2026-03-29T13:36:07.88Z</time></trkpt><trkpt lat="43.184187" lon="11.4574497"><ele>163.0</ele><time>2026-03-29T13:36:08.874Z</time></trkpt><trkpt lat="43.1840363" lon="11.4576381"><ele>163.0</ele><time>2026-03-29T13:36:09.886Z</time></trkpt><trkpt lat="43.1838871" lon="11.4578185"><ele>163.0</ele><time>2026-03-29T13:36:10.88Z</time></trkpt><trkpt lat="43.1837313" lon="11.4579953"><ele>163.0</ele><time>2026-03-29T13:36:11.872Z</time></trkpt><trkpt lat="43.1835692" lon="11.4581708"><ele>162.5</ele><time>2026-03-29T13:36:12.857Z</time></trkpt><trkpt lat="43.1833918" lon="11.4583582"><ele>162.0</ele><time>2026-03-29T13:36:13.87Z</time></trkpt><trkpt lat="43.1832094" lon="11.458548"><ele>162.33333333333334</ele><time>2026-03-29T13:36:14.887Z</time></trkpt><trkpt lat="43.1830295" lon="11.4587343"><ele>162.66666666666669</ele><time>2026-03-29T13:36:15.897Z</time></trkpt><trkpt lat="43.182854" lon="11.4589212"><ele>163.0</ele><time>2026-03-29T13:36:16.87Z</time></trkpt><trkpt lat="43.1826705" lon="11.4591085"><ele>162.0</ele><time>2026-03-29T13:36:17.867Z</time></trkpt><trkpt lat="43.1824891" lon="11.4592945"><ele>161.0</ele><time>2026-03-29T13:36:18.863Z</time></trkpt><trkpt lat="43.1823049" lon="11.4594831"><ele>160.5</ele><time>2026-03-29T13:36:19.863Z</time></trkpt><trkpt lat="43.1821221" lon="11.4596716"><ele>160.0</ele><time>2026-03-29T13:36:20.866Z</time></trkpt><trkpt lat="43.1819416" lon="11.4598577"><ele>160.0</ele><time>2026-03-29T13:36:21.874Z</time></trkpt><trkpt lat="43.181758" lon="11.4600349"><ele>160.0</ele><time>2026-03-29T13:36:22.878Z</time></trkpt><trkpt lat="43.1815763" lon="11.4602078"><ele>160.0</ele><time>2026-03-29T13:36:23.873Z</time></trkpt><trkpt lat="43.1813922" lon="11.4603864"><ele>160.66666666666669</ele><time>2026-03-29T13:36:24.877Z</time></trkpt><trkpt lat="43.1812158" lon="11.4605711"><ele>161.33333333333334</ele><time>2026-03-29T13:36:25.87Z</time></trkpt><trkpt lat="43.1810393" lon="11.4607597"><ele>162.0</ele><time>2026-03-29T13:36:26.865Z</time></trkpt><trkpt lat="43.1808689" lon="11.460943"><ele>162.0</ele><time>2026-03-29T13:36:27.863Z</time></trkpt><trkpt lat="43.1807075" lon="11.4611257"><ele>162.0</ele><time>2026-03-29T13:36:28.86Z</time></trkpt><trkpt lat="43.1805548" lon="11.4613177"><ele>162.0</ele><time>2026-03-29T13:36:29.859Z</time></trkpt><trkpt lat="43.1804302" lon="11.4615175"><ele>160.66666666666666</ele><time>2026-03-29T13:36:30.865Z</time></trkpt><trkpt lat="43.1803183" lon="11.4617286"><ele>159.33333333333331</ele><time>2026-03-29T13:36:31.879Z</time></trkpt><trkpt lat="43.1802376" lon="11.4619386"><ele>158.0</ele><time>2026-03-29T13:36:32.873Z</time></trkpt><trkpt lat="43.1801584" lon="11.4621489"><ele>158.0</ele><time>2026-03-29T13:36:33.872Z</time></trkpt><trkpt lat="43.1800702" lon="11.4623442"><ele>158.0</ele><time>2026-03-29T13:36:34.881Z</time></trkpt><trkpt lat="43.1799889" lon="11.462513"><ele>158.0</ele><time>2026-03-29T13:36:35.874Z</time></trkpt><trkpt lat="43.1798822" lon="11.462647"><ele>157.66666666666666</ele><time>2026-03-29T13:36:36.87Z</time></trkpt><trkpt lat="43.1797484" lon="11.4627416"><ele>157.33333333333334</ele><time>2026-03-29T13:36:37.876Z</time></trkpt><trkpt lat="43.1795961" lon="11.4628094"><ele>157.0</ele><time>2026-03-29T13:36:38.862Z</time></trkpt><trkpt lat="43.1794489" lon="11.4628334"><ele>157.0</ele><time>2026-03-29T13:36:39.875Z</time></trkpt><trkpt lat="43.1793057" lon="11.4628225"><ele>157.0</ele><time>2026-03-29T13:36:40.858Z</time></trkpt><trkpt lat="43.179139" lon="11.4627837"><ele>157.0</ele><time>2026-03-29T13:36:41.883Z</time></trkpt><trkpt lat="43.178984" lon="11.4627326"><ele>155.66666666666669</ele><time>2026-03-29T13:36:42.875Z</time></trkpt><trkpt lat="43.1788094" lon="11.4626654"><ele>154.33333333333334</ele><time>2026-03-29T13:36:43.91Z</time></trkpt><trkpt lat="43.1786735" lon="11.4626119"><ele>153.0</ele><time>2026-03-29T13:36:44.873Z</time></trkpt><trkpt lat="43.1785486" lon="11.462544"><ele>153.0</ele><time>2026-03-29T13:36:45.871Z</time></trkpt><trkpt lat="43.1784329" lon="11.4624763"><ele>153.0</ele><time>2026-03-29T13:36:46.856Z</time></trkpt><trkpt lat="43.178298" lon="11.462409"><ele>153.0</ele><time>2026-03-29T13:36:47.852Z</time></trkpt><trkpt lat="43.1781481" lon="11.4623646"><ele>153.0</ele><time>2026-03-29T13:36:48.871Z</time></trkpt><trkpt lat="43.178015" lon="11.4623752"><ele>153.33333333333334</ele><time>2026-03-29T13:36:49.863Z</time></trkpt><trkpt lat="43.1778445" lon="11.4624349"><ele>153.66666666666669</ele><time>2026-03-29T13:36:50.892Z</time></trkpt><trkpt lat="43.1776549" lon="11.4625373"><ele>154.0</ele><time>2026-03-29T13:36:51.867Z</time></trkpt><trkpt lat="43.1774393" lon="11.46263"><ele>153.5</ele><time>2026-03-29T13:36:52.874Z</time></trkpt><trkpt lat="43.1771962" lon="11.46275"><ele>153.0</ele><time>2026-03-29T13:36:53.871Z</time></trkpt><trkpt lat="43.1769316" lon="11.4628574"><ele>152.5</ele><time>2026-03-29T13:36:54.867Z</time></trkpt><trkpt lat="43.1766617" lon="11.4629673"><ele>152.0</ele><time>2026-03-29T13:36:55.867Z</time></trkpt><trkpt lat="43.1763835" lon="11.4630732"><ele>152.0</ele><time>2026-03-29T13:36:56.874Z</time></trkpt><trkpt lat="43.1761222" lon="11.4631723"><ele>152.0</ele><time>2026-03-29T13:36:57.863Z</time></trkpt><trkpt lat="43.1758647" lon="11.4632743"><ele>151.0</ele><time>2026-03-29T13:36:58.889Z</time></trkpt><trkpt lat="43.1756298" lon="11.4633658"><ele>150.0</ele><time>2026-03-29T13:36:59.881Z</time></trkpt><trkpt lat="43.1754039" lon="11.4634516"><ele>150.0</ele><time>2026-03-29T13:37:00.876Z</time></trkpt><trkpt lat="43.1751861" lon="11.4635358"><ele>150.0</ele><time>2026-03-29T13:37:01.863Z</time></trkpt><trkpt lat="43.1749676" lon="11.4636181"><ele>149.66666666666666</ele><time>2026-03-29T13:37:02.874Z</time></trkpt><trkpt lat="43.1747643" lon="11.4636998"><ele>149.33333333333331</ele><time>2026-03-29T13:37:03.866Z</time></trkpt><trkpt lat="43.1745597" lon="11.4637781"><ele>149.0</ele><time>2026-03-29T13:37:04.864Z</time></trkpt><trkpt lat="43.1743615" lon="11.4638587"><ele>148.66666666666666</ele><time>2026-03-29T13:37:05.875Z</time></trkpt><trkpt lat="43.1741857" lon="11.4639322"><ele>148.33333333333334</ele><time>2026-03-29T13:37:06.861Z</time></trkpt><trkpt lat="43.1740174" lon="11.4640008"><ele>148.0</ele><time>2026-03-29T13:37:07.882Z</time></trkpt><trkpt lat="43.1738572" lon="11.464066"><ele>148.66666666666669</ele><time>2026-03-29T13:37:08.869Z</time></trkpt><trkpt lat="43.1736846" lon="11.464135"><ele>149.33333333333334</ele><time>2026-03-29T13:37:09.906Z</time></trkpt><trkpt lat="43.1735116" lon="11.4642135"><ele>150.0</ele><time>2026-03-29T13:37:10.87Z</time></trkpt><trkpt lat="43.1733168" lon="11.4643029"><ele>150.0</ele><time>2026-03-29T13:37:11.9Z</time></trkpt><trkpt lat="43.1731358" lon="11.4643715"><ele>150.0</ele><time>2026-03-29T13:37:12.867Z</time></trkpt><trkpt lat="43.1729487" lon="11.4644408"><ele>150.0</ele><time>2026-03-29T13:37:13.868Z</time></trkpt><trkpt lat="43.1727631" lon="11.464501"><ele>150.0</ele><time>2026-03-29T13:37:14.892Z</time></trkpt><trkpt lat="43.1726028" lon="11.4645682"><ele>150.0</ele><time>2026-03-29T13:37:15.872Z</time></trkpt><trkpt lat="43.1724501" lon="11.4646261"><ele>150.0</ele><time>2026-03-29T13:37:16.875Z</time></trkpt><trkpt lat="43.1723049" lon="11.4646852"><ele>149.5</ele><time>2026-03-29T13:37:17.875Z</time></trkpt><trkpt lat="43.1721711" lon="11.4647375"><ele>149.0</ele><time>2026-03-29T13:37:18.859Z</time></trkpt><trkpt lat="43.172049" lon="11.4647831"><ele>148.5</ele><time>2026-03-29T13:37:19.865Z</time></trkpt><trkpt lat="43.1719284" lon="11.4648288"><ele>148.0</ele><time>2026-03-29T13:37:20.88Z</time></trkpt><trkpt lat="43.171824" lon="11.4648707"><ele>148.0</ele><time>2026-03-29T13:37:21.867Z</time></trkpt><trkpt lat="43.171726" lon="11.4649117"><ele>148.0</ele><time>2026-03-29T13:37:22.87Z</time></trkpt><trkpt lat="43.1716385" lon="11.464952"><ele>148.0</ele><time>2026-03-29T13:37:23.881Z</time></trkpt><trkpt lat="43.1715536" lon="11.4649854"><ele>148.0</ele><time>2026-03-29T13:37:24.858Z</time></trkpt><trkpt lat="43.1714691" lon="11.4650187"><ele>148.0</ele><time>2026-03-29T13:37:25.868Z</time></trkpt><trkpt lat="43.1713763" lon="11.4650511"><ele>148.20000000000002</ele><time>2026-03-29T13:37:26.858Z</time></trkpt><trkpt lat="43.1712729" lon="11.465086"><ele>148.4</ele><time>2026-03-29T13:37:27.884Z</time></trkpt><trkpt lat="43.1711733" lon="11.465121"><ele>148.60000000000002</ele><time>2026-03-29T13:37:28.851Z</time></trkpt><trkpt lat="43.1710689" lon="11.4651603"><ele>148.8</ele><time>2026-03-29T13:37:29.877Z</time></trkpt><trkpt lat="43.1709654" lon="11.4652043"><ele>149.0</ele><time>2026-03-29T13:37:30.874Z</time></trkpt><trkpt lat="43.1708625" lon="11.4652432"><ele>149.0</ele><time>2026-03-29T13:37:31.86Z</time></trkpt><trkpt lat="43.1707605" lon="11.4652819"><ele>149.0</ele><time>2026-03-29T13:37:32.87Z</time></trkpt><trkpt lat="43.1706627" lon="11.4653193"><ele>149.0</ele><time>2026-03-29T13:37:33.865Z</time></trkpt><trkpt lat="43.1705651" lon="11.465356"><ele>149.0</ele><time>2026-03-29T13:37:34.853Z</time></trkpt><trkpt lat="43.170469" lon="11.4653968"><ele>149.0</ele><time>2026-03-29T13:37:35.863Z</time></trkpt><trkpt lat="43.1703735" lon="11.4654396"><ele>149.0</ele><time>2026-03-29T13:37:36.878Z</time></trkpt><trkpt lat="43.1702809" lon="11.4654737"><ele>149.0</ele><time>2026-03-29T13:37:37.88Z</time></trkpt><trkpt lat="43.1701745" lon="11.465511"><ele>149.0</ele><time>2026-03-29T13:37:38.881Z</time></trkpt><trkpt lat="43.1700649" lon="11.4655525"><ele>149.0</ele><time>2026-03-29T13:37:39.91Z</time></trkpt><trkpt lat="43.169961" lon="11.4655959"><ele>149.0</ele><time>2026-03-29T13:37:40.862Z</time></trkpt><trkpt lat="43.1698446" lon="11.4656357"><ele>149.25</ele><time>2026-03-29T13:37:41.877Z</time></trkpt><trkpt lat="43.1697342" lon="11.46567"><ele>149.5</ele><time>2026-03-29T13:37:42.87Z</time></trkpt><trkpt lat="43.1696146" lon="11.4657041"><ele>149.75</ele><time>2026-03-29T13:37:43.874Z</time></trkpt><trkpt lat="43.1694978" lon="11.4657192"><ele>150.0</ele><time>2026-03-29T13:37:44.869Z</time></trkpt><trkpt lat="43.169379" lon="11.4657273"><ele>150.0</ele><time>2026-03-29T13:37:45.881Z</time></trkpt><trkpt lat="43.1692609" lon="11.4657265"><ele>150.0</ele><time>2026-03-29T13:37:46.869Z</time></trkpt><trkpt lat="43.1691445" lon="11.4657156"><ele>150.0</ele><time>2026-03-29T13:37:47.876Z</time></trkpt><trkpt lat="43.169023" lon="11.4656975"><ele>150.0</ele><time>2026-03-29T13:37:48.853Z</time></trkpt><trkpt lat="43.1688934" lon="11.4656785"><ele>149.75</ele><time>2026-03-29T13:37:49.859Z</time></trkpt><trkpt lat="43.1687519" lon="11.4656518"><ele>149.5</ele><time>2026-03-29T13:37:50.884Z</time></trkpt><trkpt lat="43.1686079" lon="11.4656151"><ele>149.25</ele><time>2026-03-29T13:37:51.877Z</time></trkpt><trkpt lat="43.1684584" lon="11.4655624"><ele>149.0</ele><time>2026-03-29T13:37:52.896Z</time></trkpt><trkpt lat="43.1683251" lon="11.4655006"><ele>149.0</ele><time>2026-03-29T13:37:53.875Z</time></trkpt><trkpt lat="43.1682065" lon="11.4654421"><ele>149.0</ele><time>2026-03-29T13:37:54.867Z</time></trkpt><trkpt lat="43.1680858" lon="11.4653656"><ele>149.0</ele><time>2026-03-29T13:37:55.877Z</time></trkpt><trkpt lat="43.1679619" lon="11.4652881"><ele>149.0</ele><time>2026-03-29T13:37:56.888Z</time></trkpt><trkpt lat="43.1678432" lon="11.4652044"><ele>149.0</ele><time>2026-03-29T13:37:57.872Z</time></trkpt><trkpt lat="43.1677142" lon="11.4651153"><ele>149.0</ele><time>2026-03-29T13:37:58.892Z</time></trkpt><trkpt lat="43.1675931" lon="11.4650477"><ele>149.0</ele><time>2026-03-29T13:37:59.865Z</time></trkpt><trkpt lat="43.1674709" lon="11.4650134"><ele>149.0</ele><time>2026-03-29T13:38:00.859Z</time></trkpt><trkpt lat="43.167342" lon="11.4649906"><ele>148.75</ele><time>2026-03-29T13:38:01.865Z</time></trkpt><trkpt lat="43.1672181" lon="11.4649866"><ele>148.5</ele><time>2026-03-29T13:38:02.861Z</time></trkpt><trkpt lat="43.167086" lon="11.4650084"><ele>148.25</ele><time>2026-03-29T13:38:03.877Z</time></trkpt><trkpt lat="43.1669551" lon="11.4650438"><ele>148.0</ele><time>2026-03-29T13:38:04.868Z</time></trkpt><trkpt lat="43.166812" lon="11.4651076"><ele>148.0</ele><time>2026-03-29T13:38:05.868Z</time></trkpt><trkpt lat="43.1666832" lon="11.4651998"><ele>148.0</ele><time>2026-03-29T13:38:06.872Z</time></trkpt><trkpt lat="43.1665606" lon="11.4652918"><ele>148.0</ele><time>2026-03-29T13:38:07.867Z</time></trkpt><trkpt lat="43.1664582" lon="11.4654012"><ele>148.0</ele><time>2026-03-29T13:38:08.865Z</time></trkpt><trkpt lat="43.1663427" lon="11.4655266"><ele>147.20000000000002</ele><time>2026-03-29T13:38:09.89Z</time></trkpt><trkpt lat="43.166255" lon="11.465644"><ele>146.4</ele><time>2026-03-29T13:38:10.882Z</time></trkpt><trkpt lat="43.1661789" lon="11.4657566"><ele>145.60000000000002</ele><time>2026-03-29T13:38:11.872Z</time></trkpt><trkpt lat="43.1661038" lon="11.465863"><ele>144.8</ele><time>2026-03-29T13:38:12.88Z</time></trkpt><trkpt lat="43.1660413" lon="11.4659631"><ele>144.0</ele><time>2026-03-29T13:38:13.88Z</time></trkpt><trkpt lat="43.1660024" lon="11.4660349"><ele>144.0</ele><time>2026-03-29T13:38:14.888Z</time></trkpt><trkpt lat="43.1659451" lon="11.4661266"><ele>144.0</ele><time>2026-03-29T13:38:15.862Z</time></trkpt><trkpt lat="43.1658803" lon="11.4662215"><ele>144.0</ele><time>2026-03-29T13:38:16.862Z</time></trkpt><trkpt lat="43.1657594" lon="11.4663574"><ele>144.0</ele><time>2026-03-29T13:38:17.886Z</time></trkpt><trkpt lat="43.1656468" lon="11.4664325"><ele>145.0</ele><time>2026-03-29T13:38:18.93Z</time></trkpt><trkpt lat="43.1655274" lon="11.4664918"><ele>146.0</ele><time>2026-03-29T13:38:19.906Z</time></trkpt><trkpt lat="43.1653922" lon="11.4665554"><ele>147.0</ele><time>2026-03-29T13:38:20.913Z</time></trkpt><trkpt lat="43.1652565" lon="11.4666281"><ele>148.0</ele><time>2026-03-29T13:38:21.871Z</time></trkpt><trkpt lat="43.1651065" lon="11.4667129"><ele>148.0</ele><time>2026-03-29T13:38:22.884Z</time></trkpt><trkpt lat="43.1649731" lon="11.4667993"><ele>148.0</ele><time>2026-03-29T13:38:23.861Z</time></trkpt><trkpt lat="43.1648361" lon="11.4668917"><ele>148.0</ele><time>2026-03-29T13:38:24.887Z</time></trkpt><trkpt lat="43.1647099" lon="11.4669874"><ele>148.0</ele><time>2026-03-29T13:38:25.882Z</time></trkpt><trkpt lat="43.164586" lon="11.4670818"><ele>147.5</ele><time>2026-03-29T13:38:26.859Z</time></trkpt><trkpt lat="43.1644567" lon="11.4671816"><ele>147.0</ele><time>2026-03-29T13:38:27.887Z</time></trkpt><trkpt lat="43.1643361" lon="11.4672771"><ele>146.5</ele><time>2026-03-29T13:38:28.863Z</time></trkpt><trkpt lat="43.1641969" lon="11.4673773"><ele>146.0</ele><time>2026-03-29T13:38:29.866Z</time></trkpt><trkpt lat="43.1640579" lon="11.467473"><ele>145.33333333333331</ele><time>2026-03-29T13:38:30.879Z</time></trkpt><trkpt lat="43.1639188" lon="11.4675715"><ele>144.66666666666666</ele><time>2026-03-29T13:38:31.864Z</time></trkpt><trkpt lat="43.1637725" lon="11.4676771"><ele>144.0</ele><time>2026-03-29T13:38:32.863Z</time></trkpt><trkpt lat="43.1636208" lon="11.4677827"><ele>144.0</ele><time>2026-03-29T13:38:33.872Z</time></trkpt><trkpt lat="43.1634662" lon="11.4678826"><ele>144.0</ele><time>2026-03-29T13:38:34.86Z</time></trkpt><trkpt lat="43.1633044" lon="11.4679977"><ele>144.0</ele><time>2026-03-29T13:38:35.876Z</time></trkpt><trkpt lat="43.1631413" lon="11.4681152"><ele>145.33333333333334</ele><time>2026-03-29T13:38:36.867Z</time></trkpt><trkpt lat="43.1629676" lon="11.4682275"><ele>146.66666666666669</ele><time>2026-03-29T13:38:37.872Z</time></trkpt><trkpt lat="43.1627787" lon="11.4683149"><ele>148.0</ele><time>2026-03-29T13:38:38.887Z</time></trkpt><trkpt lat="43.1625889" lon="11.4683666"><ele>148.0</ele><time>2026-03-29T13:38:39.865Z</time></trkpt><trkpt lat="43.162382" lon="11.4684051"><ele>148.0</ele><time>2026-03-29T13:38:40.873Z</time></trkpt><trkpt lat="43.1621728" lon="11.4684485"><ele>148.0</ele><time>2026-03-29T13:38:41.87Z</time></trkpt><trkpt lat="43.161949" lon="11.4684996"><ele>148.33333333333334</ele><time>2026-03-29T13:38:42.877Z</time></trkpt><trkpt lat="43.1617271" lon="11.4685459"><ele>148.66666666666666</ele><time>2026-03-29T13:38:43.876Z</time></trkpt><trkpt lat="43.1615253" lon="11.4685949"><ele>149.0</ele><time>2026-03-29T13:38:44.867Z</time></trkpt><trkpt lat="43.1613353" lon="11.4686551"><ele>149.0</ele><time>2026-03-29T13:38:45.866Z</time></trkpt><trkpt lat="43.161151" lon="11.468714"><ele>149.0</ele><time>2026-03-29T13:38:46.876Z</time></trkpt><trkpt lat="43.1609762" lon="11.4687691"><ele>149.0</ele><time>2026-03-29T13:38:47.863Z</time></trkpt><trkpt lat="43.1607894" lon="11.4688386"><ele>148.0</ele><time>2026-03-29T13:38:48.873Z</time></trkpt><trkpt lat="43.1606257" lon="11.4689271"><ele>147.0</ele><time>2026-03-29T13:38:49.866Z</time></trkpt><trkpt lat="43.1604656" lon="11.4690484"><ele>146.0</ele><time>2026-03-29T13:38:50.877Z</time></trkpt><trkpt lat="43.160293" lon="11.4691891"><ele>146.0</ele><time>2026-03-29T13:38:51.864Z</time></trkpt><trkpt lat="43.1600995" lon="11.4693324"><ele>146.0</ele><time>2026-03-29T13:38:52.878Z</time></trkpt><trkpt lat="43.1599017" lon="11.4695091"><ele>146.5</ele><time>2026-03-29T13:38:53.921Z</time></trkpt><trkpt lat="43.1597207" lon="11.4696817"><ele>147.0</ele><time>2026-03-29T13:38:54.875Z</time></trkpt><trkpt lat="43.159528" lon="11.4698642"><ele>147.0</ele><time>2026-03-29T13:38:55.879Z</time></trkpt><trkpt lat="43.1593356" lon="11.4700442"><ele>147.0</ele><time>2026-03-29T13:38:56.868Z</time></trkpt><trkpt lat="43.1591367" lon="11.47023"><ele>147.0</ele><time>2026-03-29T13:38:57.883Z</time></trkpt><trkpt lat="43.158937" lon="11.4704191"><ele>147.0</ele><time>2026-03-29T13:38:58.882Z</time></trkpt><trkpt lat="43.1587385" lon="11.4705917"><ele>147.0</ele><time>2026-03-29T13:38:59.887Z</time></trkpt><trkpt lat="43.1585336" lon="11.4707457"><ele>147.0</ele><time>2026-03-29T13:39:00.865Z</time></trkpt><trkpt lat="43.1583255" lon="11.4708981"><ele>146.5</ele><time>2026-03-29T13:39:01.865Z</time></trkpt><trkpt lat="43.1581055" lon="11.4710663"><ele>146.0</ele><time>2026-03-29T13:39:02.887Z</time></trkpt><trkpt lat="43.1578972" lon="11.471195"><ele>147.5</ele><time>2026-03-29T13:39:03.857Z</time></trkpt><trkpt lat="43.1576681" lon="11.4713012"><ele>149.0</ele><time>2026-03-29T13:39:04.886Z</time></trkpt><trkpt lat="43.1574378" lon="11.4713772"><ele>149.0</ele><time>2026-03-29T13:39:05.891Z</time></trkpt><trkpt lat="43.1572049" lon="11.4714305"><ele>149.0</ele><time>2026-03-29T13:39:06.882Z</time></trkpt><trkpt lat="43.1569852" lon="11.4714716"><ele>149.0</ele><time>2026-03-29T13:39:07.864Z</time></trkpt><trkpt lat="43.1567716" lon="11.4715206"><ele>149.0</ele><time>2026-03-29T13:39:08.86Z</time></trkpt><trkpt lat="43.1565592" lon="11.471566"><ele>149.0</ele><time>2026-03-29T13:39:09.872Z</time></trkpt><trkpt lat="43.1563527" lon="11.4716088"><ele>148.66666666666666</ele><time>2026-03-29T13:39:10.885Z</time></trkpt><trkpt lat="43.156154" lon="11.4716585"><ele>148.33333333333334</ele><time>2026-03-29T13:39:11.873Z</time></trkpt><trkpt lat="43.1559729" lon="11.4716931"><ele>148.0</ele><time>2026-03-29T13:39:12.857Z</time></trkpt><trkpt lat="43.1557934" lon="11.4717343"><ele>147.0</ele><time>2026-03-29T13:39:13.867Z</time></trkpt><trkpt lat="43.1556242" lon="11.4717646"><ele>146.0</ele><time>2026-03-29T13:39:14.863Z</time></trkpt><trkpt lat="43.1554509" lon="11.4718032"><ele>145.0</ele><time>2026-03-29T13:39:15.872Z</time></trkpt><trkpt lat="43.155267" lon="11.4718394"><ele>145.0</ele><time>2026-03-29T13:39:16.87Z</time></trkpt><trkpt lat="43.1550775" lon="11.4718716"><ele>145.0</ele><time>2026-03-29T13:39:17.876Z</time></trkpt><trkpt lat="43.1548855" lon="11.4719075"><ele>145.0</ele><time>2026-03-29T13:39:18.867Z</time></trkpt><trkpt lat="43.154688" lon="11.4719461"><ele>144.66666666666669</ele><time>2026-03-29T13:39:19.881Z</time></trkpt><trkpt lat="43.1544898" lon="11.4719906"><ele>144.33333333333334</ele><time>2026-03-29T13:39:20.882Z</time></trkpt><trkpt lat="43.1542995" lon="11.4720381"><ele>144.0</ele><time>2026-03-29T13:39:21.868Z</time></trkpt><trkpt lat="43.1541129" lon="11.4720829"><ele>143.66666666666666</ele><time>2026-03-29T13:39:22.859Z</time></trkpt><trkpt lat="43.1539174" lon="11.4721269"><ele>143.33333333333331</ele><time>2026-03-29T13:39:23.876Z</time></trkpt><trkpt lat="43.1537288" lon="11.4721679"><ele>143.0</ele><time>2026-03-29T13:39:24.871Z</time></trkpt><trkpt lat="43.1535445" lon="11.4722173"><ele>143.0</ele><time>2026-03-29T13:39:25.856Z</time></trkpt><trkpt lat="43.1533557" lon="11.4722605"><ele>143.0</ele><time>2026-03-29T13:39:26.882Z</time></trkpt><trkpt lat="43.1531723" lon="11.4723043"><ele>143.0</ele><time>2026-03-29T13:39:27.873Z</time></trkpt><trkpt lat="43.1529832" lon="11.4723513"><ele>143.0</ele><time>2026-03-29T13:39:28.873Z</time></trkpt><trkpt lat="43.1527897" lon="11.4723962"><ele>143.0</ele><time>2026-03-29T13:39:29.893Z</time></trkpt><trkpt lat="43.1526018" lon="11.4724387"><ele>143.0</ele><time>2026-03-29T13:39:30.888Z</time></trkpt><trkpt lat="43.1524226" lon="11.4724834"><ele>143.0</ele><time>2026-03-29T13:39:31.866Z</time></trkpt><trkpt lat="43.1522427" lon="11.4725431"><ele>143.0</ele><time>2026-03-29T13:39:32.876Z</time></trkpt><trkpt lat="43.1520597" lon="11.4726332"><ele>143.0</ele><time>2026-03-29T13:39:33.892Z</time></trkpt><trkpt lat="43.1518754" lon="11.4727259"><ele>143.0</ele><time>2026-03-29T13:39:34.871Z</time></trkpt><trkpt lat="43.1516881" lon="11.4728091"><ele>143.0</ele><time>2026-03-29T13:39:35.86Z</time></trkpt><trkpt lat="43.1515062" lon="11.4728954"><ele>143.0</ele><time>2026-03-29T13:39:36.874Z</time></trkpt><trkpt lat="43.1513282" lon="11.473015"><ele>144.66666666666666</ele><time>2026-03-29T13:39:37.874Z</time></trkpt><trkpt lat="43.1511402" lon="11.4731716"><ele>146.33333333333334</ele><time>2026-03-29T13:39:38.906Z</time></trkpt><trkpt lat="43.1509903" lon="11.4733174"><ele>148.0</ele><time>2026-03-29T13:39:39.873Z</time></trkpt><trkpt lat="43.1508211" lon="11.473494"><ele>147.66666666666669</ele><time>2026-03-29T13:39:40.873Z</time></trkpt><trkpt lat="43.1506667" lon="11.4736767"><ele>147.33333333333334</ele><time>2026-03-29T13:39:41.878Z</time></trkpt><trkpt lat="43.1505137" lon="11.4738655"><ele>147.0</ele><time>2026-03-29T13:39:42.873Z</time></trkpt><trkpt lat="43.1503535" lon="11.4740291"><ele>147.0</ele><time>2026-03-29T13:39:43.884Z</time></trkpt><trkpt lat="43.1501791" lon="11.4741698"><ele>147.0</ele><time>2026-03-29T13:39:44.871Z</time></trkpt><trkpt lat="43.1499967" lon="11.4742942"><ele>147.0</ele><time>2026-03-29T13:39:45.86Z</time></trkpt><trkpt lat="43.1498226" lon="11.4744134"><ele>147.33333333333334</ele><time>2026-03-29T13:39:46.865Z</time></trkpt><trkpt lat="43.1496455" lon="11.4745239"><ele>147.66666666666669</ele><time>2026-03-29T13:39:47.881Z</time></trkpt><trkpt lat="43.1494826" lon="11.4746349"><ele>148.0</ele><time>2026-03-29T13:39:48.867Z</time></trkpt><trkpt lat="43.1493124" lon="11.4747408"><ele>148.0</ele><time>2026-03-29T13:39:49.869Z</time></trkpt><trkpt lat="43.1491272" lon="11.4748537"><ele>148.0</ele><time>2026-03-29T13:39:50.885Z</time></trkpt><trkpt lat="43.1489446" lon="11.4749399"><ele>148.0</ele><time>2026-03-29T13:39:51.883Z</time></trkpt><trkpt lat="43.1487586" lon="11.475022"><ele>147.33333333333334</ele><time>2026-03-29T13:39:52.875Z</time></trkpt><trkpt lat="43.1485563" lon="11.4751128"><ele>146.66666666666666</ele><time>2026-03-29T13:39:53.877Z</time></trkpt><trkpt lat="43.1483437" lon="11.475214"><ele>146.0</ele><time>2026-03-29T13:39:54.863Z</time></trkpt><trkpt lat="43.1481147" lon="11.4753175"><ele>145.0</ele><time>2026-03-29T13:39:55.887Z</time></trkpt><trkpt lat="43.1478988" lon="11.4754045"><ele>144.0</ele><time>2026-03-29T13:39:56.864Z</time></trkpt><trkpt lat="43.1476722" lon="11.4754866"><ele>145.33333333333334</ele><time>2026-03-29T13:39:57.888Z</time></trkpt><trkpt lat="43.1474568" lon="11.4755566"><ele>146.66666666666669</ele><time>2026-03-29T13:39:58.866Z</time></trkpt><trkpt lat="43.1472442" lon="11.4756166"><ele>148.0</ele><time>2026-03-29T13:39:59.865Z</time></trkpt><trkpt lat="43.147036" lon="11.4756818"><ele>148.0</ele><time>2026-03-29T13:40:00.871Z</time></trkpt><trkpt lat="43.1468312" lon="11.475749"><ele>148.0</ele><time>2026-03-29T13:40:01.884Z</time></trkpt><trkpt lat="43.1466311" lon="11.4758108"><ele>148.0</ele><time>2026-03-29T13:40:02.889Z</time></trkpt><trkpt lat="43.146426" lon="11.4758732"><ele>147.0</ele><time>2026-03-29T13:40:03.907Z</time></trkpt><trkpt lat="43.1462269" lon="11.4759384"><ele>146.0</ele><time>2026-03-29T13:40:04.882Z</time></trkpt><trkpt lat="43.1460275" lon="11.4760055"><ele>145.0</ele><time>2026-03-29T13:40:05.874Z</time></trkpt><trkpt lat="43.1458241" lon="11.4760755"><ele>144.0</ele><time>2026-03-29T13:40:06.883Z</time></trkpt><trkpt lat="43.1456238" lon="11.4761388"><ele>143.0</ele><time>2026-03-29T13:40:07.891Z</time></trkpt><trkpt lat="43.1454403" lon="11.4761845"><ele>142.0</ele><time>2026-03-29T13:40:08.869Z</time></trkpt><trkpt lat="43.1452507" lon="11.4762232"><ele>142.0</ele><time>2026-03-29T13:40:09.891Z</time></trkpt><trkpt lat="43.1450805" lon="11.4762453"><ele>142.0</ele><time>2026-03-29T13:40:10.864Z</time></trkpt><trkpt lat="43.1449061" lon="11.476245"><ele>142.0</ele><time>2026-03-29T13:40:11.871Z</time></trkpt><trkpt lat="43.1447424" lon="11.4762223"><ele>142.0</ele><time>2026-03-29T13:40:12.874Z</time></trkpt><trkpt lat="43.1446047" lon="11.4761976"><ele>142.0</ele><time>2026-03-29T13:40:13.881Z</time></trkpt><trkpt lat="43.1444597" lon="11.4761874"><ele>142.0</ele><time>2026-03-29T13:40:14.887Z</time></trkpt><trkpt lat="43.1443196" lon="11.4762096"><ele>142.0</ele><time>2026-03-29T13:40:15.908Z</time></trkpt><trkpt lat="43.1441985" lon="11.4762718"><ele>142.25</ele><time>2026-03-29T13:40:16.895Z</time></trkpt><trkpt lat="43.1440831" lon="11.4763583"><ele>142.5</ele><time>2026-03-29T13:40:17.87Z</time></trkpt><trkpt lat="43.1439759" lon="11.4764577"><ele>142.75</ele><time>2026-03-29T13:40:18.874Z</time></trkpt><trkpt lat="43.1438702" lon="11.4765695"><ele>143.0</ele><time>2026-03-29T13:40:19.901Z</time></trkpt><trkpt lat="43.1437753" lon="11.4766777"><ele>143.0</ele><time>2026-03-29T13:40:20.869Z</time></trkpt><trkpt lat="43.1436806" lon="11.4767766"><ele>143.0</ele><time>2026-03-29T13:40:21.868Z</time></trkpt><trkpt lat="43.1435951" lon="11.4768725"><ele>143.0</ele><time>2026-03-29T13:40:22.865Z</time></trkpt><trkpt lat="43.143515" lon="11.4769632"><ele>143.0</ele><time>2026-03-29T13:40:23.867Z</time></trkpt><trkpt lat="43.1434399" lon="11.4770604"><ele>143.0</ele><time>2026-03-29T13:40:24.883Z</time></trkpt><trkpt lat="43.1433717" lon="11.4771607"><ele>143.0</ele><time>2026-03-29T13:40:25.863Z</time></trkpt><trkpt lat="43.1432797" lon="11.4773003"><ele>143.0</ele><time>2026-03-29T13:40:26.889Z</time></trkpt><trkpt lat="43.1432052" lon="11.4774712"><ele>143.0</ele><time>2026-03-29T13:40:27.884Z</time></trkpt><trkpt lat="43.1431352" lon="11.4776611"><ele>143.0</ele><time>2026-03-29T13:40:28.877Z</time></trkpt><trkpt lat="43.1430725" lon="11.4778892"><ele>143.0</ele><time>2026-03-29T13:40:29.896Z</time></trkpt><trkpt lat="43.1430186" lon="11.478121"><ele>143.0</ele><time>2026-03-29T13:40:30.867Z</time></trkpt><trkpt lat="43.1429714" lon="11.4783775"><ele>143.0</ele><time>2026-03-29T13:40:31.876Z</time></trkpt><trkpt lat="43.1429247" lon="11.4786348"><ele>143.0</ele><time>2026-03-29T13:40:32.872Z</time></trkpt><trkpt lat="43.1428819" lon="11.478892"><ele>143.0</ele><time>2026-03-29T13:40:33.879Z</time></trkpt><trkpt lat="43.1428411" lon="11.4791331"><ele>143.0</ele><time>2026-03-29T13:40:34.876Z</time></trkpt><trkpt lat="43.1427941" lon="11.4793633"><ele>143.0</ele><time>2026-03-29T13:40:35.877Z</time></trkpt><trkpt lat="43.1427467" lon="11.4795717"><ele>143.0</ele><time>2026-03-29T13:40:36.868Z</time></trkpt><trkpt lat="43.1426842" lon="11.4797691"><ele>143.0</ele><time>2026-03-29T13:40:37.878Z</time></trkpt><trkpt lat="43.1426046" lon="11.4799494"><ele>143.25</ele><time>2026-03-29T13:40:38.887Z</time></trkpt><trkpt lat="43.1425143" lon="11.4801116"><ele>143.5</ele><time>2026-03-29T13:40:39.904Z</time></trkpt><trkpt lat="43.1424195" lon="11.4802562"><ele>143.75</ele><time>2026-03-29T13:40:40.903Z</time></trkpt><trkpt lat="43.1423249" lon="11.4803809"><ele>144.0</ele><time>2026-03-29T13:40:41.884Z</time></trkpt><trkpt lat="43.1422166" lon="11.4805074"><ele>143.33333333333334</ele><time>2026-03-29T13:40:42.864Z</time></trkpt><trkpt lat="43.1420923" lon="11.4806382"><ele>142.66666666666669</ele><time>2026-03-29T13:40:43.883Z</time></trkpt><trkpt lat="43.141975" lon="11.4807664"><ele>142.0</ele><time>2026-03-29T13:40:44.872Z</time></trkpt><trkpt lat="43.1418509" lon="11.4809041"><ele>142.0</ele><time>2026-03-29T13:40:45.863Z</time></trkpt><trkpt lat="43.1417376" lon="11.4810364"><ele>142.0</ele><time>2026-03-29T13:40:46.883Z</time></trkpt><trkpt lat="43.1416256" lon="11.4811659"><ele>142.0</ele><time>2026-03-29T13:40:47.89Z</time></trkpt><trkpt lat="43.1415113" lon="11.4812827"><ele>142.0</ele><time>2026-03-29T13:40:48.903Z</time></trkpt><trkpt lat="43.1414125" lon="11.4813846"><ele>141.75</ele><time>2026-03-29T13:40:49.874Z</time></trkpt><trkpt lat="43.1413062" lon="11.481472"><ele>141.5</ele><time>2026-03-29T13:40:50.884Z</time></trkpt><trkpt lat="43.1411947" lon="11.4815527"><ele>141.25</ele><time>2026-03-29T13:40:51.866Z</time></trkpt><trkpt lat="43.1410781" lon="11.481634"><ele>141.0</ele><time>2026-03-29T13:40:52.888Z</time></trkpt><trkpt lat="43.1409925" lon="11.4816979"><ele>141.0</ele><time>2026-03-29T13:40:53.886Z</time></trkpt><trkpt lat="43.1408608" lon="11.4818035"><ele>141.0</ele><time>2026-03-29T13:40:54.871Z</time></trkpt><trkpt lat="43.1407147" lon="11.4819232"><ele>141.0</ele><time>2026-03-29T13:40:55.864Z</time></trkpt><trkpt lat="43.1405684" lon="11.4820242"><ele>141.66666666666666</ele><time>2026-03-29T13:40:56.86Z</time></trkpt><trkpt lat="43.1404122" lon="11.4821202"><ele>142.33333333333331</ele><time>2026-03-29T13:40:57.875Z</time></trkpt><trkpt lat="43.1402659" lon="11.4822192"><ele>143.0</ele><time>2026-03-29T13:40:58.876Z</time></trkpt><trkpt lat="43.1401276" lon="11.4823165"><ele>143.0</ele><time>2026-03-29T13:40:59.88Z</time></trkpt><trkpt lat="43.1399946" lon="11.4824088"><ele>143.0</ele><time>2026-03-29T13:41:00.879Z</time></trkpt><trkpt lat="43.1398763" lon="11.4824957"><ele>143.0</ele><time>2026-03-29T13:41:01.874Z</time></trkpt><trkpt lat="43.1397649" lon="11.4825783"><ele>143.0</ele><time>2026-03-29T13:41:02.871Z</time></trkpt><trkpt lat="43.1396634" lon="11.4826549"><ele>143.4</ele><time>2026-03-29T13:41:03.875Z</time></trkpt><trkpt lat="43.139563" lon="11.4827294"><ele>143.8</ele><time>2026-03-29T13:41:04.899Z</time></trkpt><trkpt lat="43.1394757" lon="11.4827965"><ele>144.2</ele><time>2026-03-29T13:41:05.872Z</time></trkpt><trkpt lat="43.1393853" lon="11.4828625"><ele>144.6</ele><time>2026-03-29T13:41:06.883Z</time></trkpt><trkpt lat="43.1393032" lon="11.4829256"><ele>145.0</ele><time>2026-03-29T13:41:07.858Z</time></trkpt><trkpt lat="43.1392152" lon="11.4829874"><ele>145.0</ele><time>2026-03-29T13:41:08.861Z</time></trkpt><trkpt lat="43.1391214" lon="11.4830505"><ele>145.0</ele><time>2026-03-29T13:41:09.863Z</time></trkpt><trkpt lat="43.1390187" lon="11.4831067"><ele>145.0</ele><time>2026-03-29T13:41:10.87Z</time></trkpt><trkpt lat="43.1389128" lon="11.4831632"><ele>145.0</ele><time>2026-03-29T13:41:11.871Z</time></trkpt><trkpt lat="43.1388073" lon="11.4832154"><ele>145.0</ele><time>2026-03-29T13:41:12.868Z</time></trkpt><trkpt lat="43.1386881" lon="11.4832682"><ele>145.25</ele><time>2026-03-29T13:41:13.874Z</time></trkpt><trkpt lat="43.138572" lon="11.4833036"><ele>145.5</ele><time>2026-03-29T13:41:14.865Z</time></trkpt><trkpt lat="43.1384503" lon="11.4833334"><ele>145.75</ele><time>2026-03-29T13:41:15.891Z</time></trkpt><trkpt lat="43.1383311" lon="11.4833511"><ele>146.0</ele><time>2026-03-29T13:41:16.874Z</time></trkpt><trkpt lat="43.1382194" lon="11.4833578"><ele>146.16666666666666</ele><time>2026-03-29T13:41:17.874Z</time></trkpt><trkpt lat="43.1381214" lon="11.4833557"><ele>146.33333333333331</ele><time>2026-03-29T13:41:18.872Z</time></trkpt><trkpt lat="43.1380301" lon="11.4833557"><ele>146.5</ele><time>2026-03-29T13:41:19.893Z</time></trkpt><trkpt lat="43.1379517" lon="11.4833546"><ele>146.66666666666666</ele><time>2026-03-29T13:41:20.879Z</time></trkpt><trkpt lat="43.1378814" lon="11.4833556"><ele>146.83333333333334</ele><time>2026-03-29T13:41:21.875Z</time></trkpt><trkpt lat="43.1378157" lon="11.4833555"><ele>147.0</ele><time>2026-03-29T13:41:22.863Z</time></trkpt><trkpt lat="43.1377474" lon="11.4833541"><ele>147.0</ele><time>2026-03-29T13:41:23.879Z</time></trkpt><trkpt lat="43.1376741" lon="11.483352"><ele>147.0</ele><time>2026-03-29T13:41:24.863Z</time></trkpt><trkpt lat="43.1375876" lon="11.4833502"><ele>147.0</ele><time>2026-03-29T13:41:25.876Z</time></trkpt><trkpt lat="43.1374926" lon="11.483349"><ele>147.0</ele><time>2026-03-29T13:41:26.878Z</time></trkpt><trkpt lat="43.1374123" lon="11.4833402"><ele>147.0</ele><time>2026-03-29T13:41:27.875Z</time></trkpt><trkpt lat="43.1372972" lon="11.4833359"><ele>146.75</ele><time>2026-03-29T13:41:28.869Z</time></trkpt><trkpt lat="43.1371832" lon="11.4833293"><ele>146.5</ele><time>2026-03-29T13:41:29.872Z</time></trkpt><trkpt lat="43.1370746" lon="11.4833285"><ele>146.25</ele><time>2026-03-29T13:41:30.865Z</time></trkpt><trkpt lat="43.1369479" lon="11.4833331"><ele>146.0</ele><time>2026-03-29T13:41:31.87Z</time></trkpt><trkpt lat="43.1368156" lon="11.4833391"><ele>146.0</ele><time>2026-03-29T13:41:32.879Z</time></trkpt><trkpt lat="43.1366946" lon="11.4833491"><ele>146.0</ele><time>2026-03-29T13:41:33.883Z</time></trkpt><trkpt lat="43.1365776" lon="11.4833595"><ele>146.0</ele><time>2026-03-29T13:41:34.867Z</time></trkpt><trkpt lat="43.1364645" lon="11.4833652"><ele>146.0</ele><time>2026-03-29T13:41:35.859Z</time></trkpt><trkpt lat="43.1363495" lon="11.4833683"><ele>146.0</ele><time>2026-03-29T13:41:36.884Z</time></trkpt><trkpt lat="43.1362442" lon="11.4833703"><ele>146.0</ele><time>2026-03-29T13:41:37.878Z</time></trkpt><trkpt lat="43.1361424" lon="11.4833778"><ele>146.0</ele><time>2026-03-29T13:41:38.88Z</time></trkpt><trkpt lat="43.1360299" lon="11.4833787"><ele>146.0</ele><time>2026-03-29T13:41:39.863Z</time></trkpt><trkpt lat="43.1359141" lon="11.4833748"><ele>146.0</ele><time>2026-03-29T13:41:40.872Z</time></trkpt><trkpt lat="43.1357992" lon="11.4833682"><ele>146.0</ele><time>2026-03-29T13:41:41.869Z</time></trkpt><trkpt lat="43.1356757" lon="11.4833599"><ele>146.0</ele><time>2026-03-29T13:41:42.884Z</time></trkpt><trkpt lat="43.135558" lon="11.4833462"><ele>146.0</ele><time>2026-03-29T13:41:43.875Z</time></trkpt><trkpt lat="43.1354416" lon="11.4833313"><ele>146.0</ele><time>2026-03-29T13:41:44.871Z</time></trkpt><trkpt lat="43.135328" lon="11.4833131"><ele>146.0</ele><time>2026-03-29T13:41:45.873Z</time></trkpt><trkpt lat="43.1352171" lon="11.4832915"><ele>146.0</ele><time>2026-03-29T13:41:46.88Z</time></trkpt><trkpt lat="43.1351113" lon="11.4832755"><ele>146.0</ele><time>2026-03-29T13:41:47.883Z</time></trkpt><trkpt lat="43.1349834" lon="11.4832575"><ele>146.0</ele><time>2026-03-29T13:41:48.906Z</time></trkpt><trkpt lat="43.1348581" lon="11.4832371"><ele>145.75</ele><time>2026-03-29T13:41:49.87Z</time></trkpt><trkpt lat="43.1347231" lon="11.4832134"><ele>145.5</ele><time>2026-03-29T13:41:50.889Z</time></trkpt><trkpt lat="43.1345829" lon="11.4831837"><ele>145.25</ele><time>2026-03-29T13:41:51.872Z</time></trkpt><trkpt lat="43.134452" lon="11.4831545"><ele>145.0</ele><time>2026-03-29T13:41:52.872Z</time></trkpt><trkpt lat="43.1343262" lon="11.483133"><ele>145.0</ele><time>2026-03-29T13:41:53.862Z</time></trkpt><trkpt lat="43.1341816" lon="11.4831027"><ele>145.0</ele><time>2026-03-29T13:41:54.889Z</time></trkpt><trkpt lat="43.1340438" lon="11.483067"><ele>145.0</ele><time>2026-03-29T13:41:55.875Z</time></trkpt><trkpt lat="43.1339031" lon="11.4830327"><ele>145.0</ele><time>2026-03-29T13:41:56.87Z</time></trkpt><trkpt lat="43.133763" lon="11.4829932"><ele>145.0</ele><time>2026-03-29T13:41:57.877Z</time></trkpt><trkpt lat="43.1336241" lon="11.4829497"><ele>145.0</ele><time>2026-03-29T13:41:58.861Z</time></trkpt><trkpt lat="43.1334846" lon="11.4829011"><ele>145.0</ele><time>2026-03-29T13:41:59.873Z</time></trkpt><trkpt lat="43.1333451" lon="11.482854"><ele>145.0</ele><time>2026-03-29T13:42:00.89Z</time></trkpt><trkpt lat="43.1332122" lon="11.4828084"><ele>144.5</ele><time>2026-03-29T13:42:01.891Z</time></trkpt><trkpt lat="43.1330674" lon="11.4827614"><ele>144.0</ele><time>2026-03-29T13:42:02.885Z</time></trkpt><trkpt lat="43.1329234" lon="11.4827097"><ele>143.5</ele><time>2026-03-29T13:42:03.891Z</time></trkpt><trkpt lat="43.132786" lon="11.4826552"><ele>143.0</ele><time>2026-03-29T13:42:04.87Z</time></trkpt><trkpt lat="43.1326481" lon="11.4826028"><ele>143.0</ele><time>2026-03-29T13:42:05.876Z</time></trkpt><trkpt lat="43.1325198" lon="11.4825557"><ele>143.0</ele><time>2026-03-29T13:42:06.867Z</time></trkpt><trkpt lat="43.1323986" lon="11.4825123"><ele>143.0</ele><time>2026-03-29T13:42:07.868Z</time></trkpt><trkpt lat="43.1322841" lon="11.4824654"><ele>143.0</ele><time>2026-03-29T13:42:08.9Z</time></trkpt><trkpt lat="43.1321817" lon="11.4824197"><ele>143.25</ele><time>2026-03-29T13:42:09.859Z</time></trkpt><trkpt lat="43.1320624" lon="11.482374"><ele>143.5</ele><time>2026-03-29T13:42:10.885Z</time></trkpt><trkpt lat="43.1319417" lon="11.4823458"><ele>143.75</ele><time>2026-03-29T13:42:11.877Z</time></trkpt><trkpt lat="43.1318213" lon="11.4823258"><ele>144.0</ele><time>2026-03-29T13:42:12.867Z</time></trkpt><trkpt lat="43.1316865" lon="11.482324"><ele>143.0</ele><time>2026-03-29T13:42:13.87Z</time></trkpt><trkpt lat="43.1315405" lon="11.4823367"><ele>142.0</ele><time>2026-03-29T13:42:14.862Z</time></trkpt><trkpt lat="43.1313946" lon="11.4823406"><ele>141.0</ele><time>2026-03-29T13:42:15.893Z</time></trkpt><trkpt lat="43.1312368" lon="11.4823492"><ele>141.0</ele><time>2026-03-29T13:42:16.885Z</time></trkpt><trkpt lat="43.1310763" lon="11.4823583"><ele>141.0</ele><time>2026-03-29T13:42:17.87Z</time></trkpt><trkpt lat="43.1309523" lon="11.4823618"><ele>141.0</ele><time>2026-03-29T13:42:18.879Z</time></trkpt><trkpt lat="43.1308049" lon="11.4823346"><ele>141.0</ele><time>2026-03-29T13:42:19.879Z</time></trkpt><trkpt lat="43.1306404" lon="11.4823232"><ele>141.33333333333334</ele><time>2026-03-29T13:42:20.887Z</time></trkpt><trkpt lat="43.1304817" lon="11.4823126"><ele>141.66666666666669</ele><time>2026-03-29T13:42:21.87Z</time></trkpt><trkpt lat="43.1303128" lon="11.4823149"><ele>142.0</ele><time>2026-03-29T13:42:22.879Z</time></trkpt><trkpt lat="43.1301565" lon="11.4823186"><ele>142.0</ele><time>2026-03-29T13:42:23.873Z</time></trkpt><trkpt lat="43.1299958" lon="11.4823353"><ele>142.0</ele><time>2026-03-29T13:42:24.868Z</time></trkpt><trkpt lat="43.1298353" lon="11.4823435"><ele>142.0</ele><time>2026-03-29T13:42:25.895Z</time></trkpt><trkpt lat="43.1297011" lon="11.4823693"><ele>142.66666666666669</ele><time>2026-03-29T13:42:26.877Z</time></trkpt><trkpt lat="43.1295406" lon="11.4824105"><ele>143.33333333333334</ele><time>2026-03-29T13:42:27.902Z</time></trkpt><trkpt lat="43.1293693" lon="11.4824344"><ele>144.0</ele><time>2026-03-29T13:42:28.887Z</time></trkpt><trkpt lat="43.1291931" lon="11.4824448"><ele>144.33333333333334</ele><time>2026-03-29T13:42:29.882Z</time></trkpt><trkpt lat="43.129005" lon="11.4824629"><ele>144.66666666666669</ele><time>2026-03-29T13:42:30.886Z</time></trkpt><trkpt lat="43.1288188" lon="11.4824861"><ele>145.0</ele><time>2026-03-29T13:42:31.872Z</time></trkpt><trkpt lat="43.1286319" lon="11.4825074"><ele>145.0</ele><time>2026-03-29T13:42:32.871Z</time></trkpt><trkpt lat="43.1284507" lon="11.4825254"><ele>145.0</ele><time>2026-03-29T13:42:33.863Z</time></trkpt><trkpt lat="43.1282707" lon="11.4825502"><ele>145.0</ele><time>2026-03-29T13:42:34.873Z</time></trkpt><trkpt lat="43.1280999" lon="11.4825746"><ele>145.0</ele><time>2026-03-29T13:42:35.864Z</time></trkpt><trkpt lat="43.1279159" lon="11.4826034"><ele>145.0</ele><time>2026-03-29T13:42:36.886Z</time></trkpt><trkpt lat="43.1277373" lon="11.4826295"><ele>145.0</ele><time>2026-03-29T13:42:37.855Z</time></trkpt><trkpt lat="43.1275516" lon="11.4826462"><ele>144.66666666666669</ele><time>2026-03-29T13:42:38.873Z</time></trkpt><trkpt lat="43.1273599" lon="11.4826668"><ele>144.33333333333334</ele><time>2026-03-29T13:42:39.87Z</time></trkpt><trkpt lat="43.1271693" lon="11.4826881"><ele>144.0</ele><time>2026-03-29T13:42:40.873Z</time></trkpt><trkpt lat="43.1269764" lon="11.48271"><ele>144.0</ele><time>2026-03-29T13:42:41.871Z</time></trkpt><trkpt lat="43.1267759" lon="11.4827322"><ele>144.0</ele><time>2026-03-29T13:42:42.873Z</time></trkpt><trkpt lat="43.1265754" lon="11.4827556"><ele>144.0</ele><time>2026-03-29T13:42:43.877Z</time></trkpt><trkpt lat="43.1263762" lon="11.4827787"><ele>143.33333333333334</ele><time>2026-03-29T13:42:44.869Z</time></trkpt><trkpt lat="43.1261699" lon="11.4827992"><ele>142.66666666666669</ele><time>2026-03-29T13:42:45.907Z</time></trkpt><trkpt lat="43.1259838" lon="11.4828198"><ele>142.0</ele><time>2026-03-29T13:42:46.865Z</time></trkpt><trkpt lat="43.125789" lon="11.4828395"><ele>141.66666666666669</ele><time>2026-03-29T13:42:47.883Z</time></trkpt><trkpt lat="43.1255998" lon="11.48286"><ele>141.33333333333334</ele><time>2026-03-29T13:42:48.882Z</time></trkpt><trkpt lat="43.1254143" lon="11.4828816"><ele>141.0</ele><time>2026-03-29T13:42:49.872Z</time></trkpt><trkpt lat="43.1252216" lon="11.4829009"><ele>141.0</ele><time>2026-03-29T13:42:50.901Z</time></trkpt><trkpt lat="43.125042" lon="11.4829186"><ele>141.0</ele><time>2026-03-29T13:42:51.862Z</time></trkpt><trkpt lat="43.124853" lon="11.4829362"><ele>141.0</ele><time>2026-03-29T13:42:52.871Z</time></trkpt><trkpt lat="43.1246677" lon="11.4829479"><ele>141.66666666666666</ele><time>2026-03-29T13:42:53.869Z</time></trkpt><trkpt lat="43.1244845" lon="11.4829634"><ele>142.33333333333331</ele><time>2026-03-29T13:42:54.874Z</time></trkpt><trkpt lat="43.1243284" lon="11.4829512"><ele>143.0</ele><time>2026-03-29T13:42:55.865Z</time></trkpt><trkpt lat="43.1241376" lon="11.4829683"><ele>143.66666666666666</ele><time>2026-03-29T13:42:56.896Z</time></trkpt><trkpt lat="43.1239746" lon="11.4829833"><ele>144.33333333333334</ele><time>2026-03-29T13:42:57.875Z</time></trkpt><trkpt lat="43.123804" lon="11.4830006"><ele>145.0</ele><time>2026-03-29T13:42:58.87Z</time></trkpt><trkpt lat="43.1236387" lon="11.4830212"><ele>145.0</ele><time>2026-03-29T13:42:59.885Z</time></trkpt><trkpt lat="43.1234931" lon="11.4830346"><ele>145.0</ele><time>2026-03-29T13:43:00.87Z</time></trkpt><trkpt lat="43.1233554" lon="11.4830506"><ele>145.0</ele><time>2026-03-29T13:43:01.91Z</time></trkpt><trkpt lat="43.1232399" lon="11.4830667"><ele>145.0</ele><time>2026-03-29T13:43:02.88Z</time></trkpt><trkpt lat="43.1231298" lon="11.4830805"><ele>145.4</ele><time>2026-03-29T13:43:03.871Z</time></trkpt><trkpt lat="43.1230246" lon="11.483092"><ele>145.8</ele><time>2026-03-29T13:43:04.865Z</time></trkpt><trkpt lat="43.1229235" lon="11.4830998"><ele>146.2</ele><time>2026-03-29T13:43:05.886Z</time></trkpt><trkpt lat="43.1228225" lon="11.4831123"><ele>146.6</ele><time>2026-03-29T13:43:06.879Z</time></trkpt><trkpt lat="43.1227247" lon="11.4831278"><ele>147.0</ele><time>2026-03-29T13:43:07.872Z</time></trkpt><trkpt lat="43.1226294" lon="11.4831415"><ele>147.0</ele><time>2026-03-29T13:43:08.89Z</time></trkpt><trkpt lat="43.1225341" lon="11.4831518"><ele>147.0</ele><time>2026-03-29T13:43:09.889Z</time></trkpt><trkpt lat="43.1224371" lon="11.4831624"><ele>147.0</ele><time>2026-03-29T13:43:10.878Z</time></trkpt><trkpt lat="43.122332" lon="11.4831721"><ele>147.0</ele><time>2026-03-29T13:43:11.89Z</time></trkpt><trkpt lat="43.122232" lon="11.4831783"><ele>147.0</ele><time>2026-03-29T13:43:12.865Z</time></trkpt><trkpt lat="43.1221246" lon="11.4831862"><ele>146.25</ele><time>2026-03-29T13:43:13.873Z</time></trkpt><trkpt lat="43.1220233" lon="11.4831908"><ele>145.5</ele><time>2026-03-29T13:43:14.869Z</time></trkpt><trkpt lat="43.1219095" lon="11.4832023"><ele>144.75</ele><time>2026-03-29T13:43:15.869Z</time></trkpt><trkpt lat="43.1217848" lon="11.4832101"><ele>144.0</ele><time>2026-03-29T13:43:16.91Z</time></trkpt><trkpt lat="43.1216691" lon="11.4832133"><ele>143.75</ele><time>2026-03-29T13:43:17.883Z</time></trkpt><trkpt lat="43.1215453" lon="11.4832219"><ele>143.5</ele><time>2026-03-29T13:43:18.889Z</time></trkpt><trkpt lat="43.1214266" lon="11.4832293"><ele>143.25</ele><time>2026-03-29T13:43:19.866Z</time></trkpt><trkpt lat="43.1213074" lon="11.4832369"><ele>143.0</ele><time>2026-03-29T13:43:20.889Z</time></trkpt><trkpt lat="43.1211973" lon="11.4832483"><ele>143.0</ele><time>2026-03-29T13:43:21.877Z</time></trkpt><trkpt lat="43.1210879" lon="11.48326"><ele>143.0</ele><time>2026-03-29T13:43:22.864Z</time></trkpt><trkpt lat="43.1209827" lon="11.483269"><ele>143.0</ele><time>2026-03-29T13:43:23.859Z</time></trkpt><trkpt lat="43.1208801" lon="11.4832784"><ele>143.0</ele><time>2026-03-29T13:43:24.876Z</time></trkpt><trkpt lat="43.1207922" lon="11.48329"><ele>143.0</ele><time>2026-03-29T13:43:25.865Z</time></trkpt><trkpt lat="43.1207018" lon="11.4833007"><ele>142.8</ele><time>2026-03-29T13:43:26.89Z</time></trkpt><trkpt lat="43.1206167" lon="11.4833046"><ele>142.60000000000002</ele><time>2026-03-29T13:43:27.86Z</time></trkpt><trkpt lat="43.1205183" lon="11.4833111"><ele>142.39999999999998</ele><time>2026-03-29T13:43:28.875Z</time></trkpt><trkpt lat="43.1204147" lon="11.4833181"><ele>142.2</ele><time>2026-03-29T13:43:29.868Z</time></trkpt><trkpt lat="43.1203053" lon="11.4833242"><ele>142.0</ele><time>2026-03-29T13:43:30.878Z</time></trkpt><trkpt lat="43.1201878" lon="11.4833321"><ele>142.0</ele><time>2026-03-29T13:43:31.87Z</time></trkpt><trkpt lat="43.120056" lon="11.4833468"><ele>142.0</ele><time>2026-03-29T13:43:32.867Z</time></trkpt><trkpt lat="43.1199246" lon="11.4833659"><ele>142.0</ele><time>2026-03-29T13:43:33.868Z</time></trkpt><trkpt lat="43.1197947" lon="11.4833854"><ele>142.0</ele><time>2026-03-29T13:43:34.879Z</time></trkpt><trkpt lat="43.1196564" lon="11.4834134"><ele>142.0</ele><time>2026-03-29T13:43:35.887Z</time></trkpt><trkpt lat="43.1195196" lon="11.4834435"><ele>142.0</ele><time>2026-03-29T13:43:36.88Z</time></trkpt><trkpt lat="43.1193821" lon="11.4834765"><ele>142.0</ele><time>2026-03-29T13:43:37.872Z</time></trkpt><trkpt lat="43.1192378" lon="11.4835089"><ele>142.0</ele><time>2026-03-29T13:43:38.862Z</time></trkpt><trkpt lat="43.1190897" lon="11.4835459"><ele>142.25</ele><time>2026-03-29T13:43:39.879Z</time></trkpt><trkpt lat="43.118948" lon="11.4835851"><ele>142.5</ele><time>2026-03-29T13:43:40.884Z</time></trkpt><trkpt lat="43.1188077" lon="11.4836187"><ele>142.75</ele><time>2026-03-29T13:43:41.867Z</time></trkpt><trkpt lat="43.1186528" lon="11.4836618"><ele>143.0</ele><time>2026-03-29T13:43:42.913Z</time></trkpt><trkpt lat="43.1185068" lon="11.4837006"><ele>143.0</ele><time>2026-03-29T13:43:43.878Z</time></trkpt><trkpt lat="43.1183504" lon="11.4837331"><ele>143.0</ele><time>2026-03-29T13:43:44.878Z</time></trkpt><trkpt lat="43.1181903" lon="11.483767"><ele>143.0</ele><time>2026-03-29T13:43:45.869Z</time></trkpt><trkpt lat="43.1180827" lon="11.4838313"><ele>143.0</ele><time>2026-03-29T13:43:47.869Z</time></trkpt><trkpt lat="43.1181468" lon="11.4837545"><ele>144.5</ele><time>2026-03-29T13:43:48.883Z</time></trkpt><trkpt lat="43.1181952" lon="11.4836845"><ele>146.0</ele><time>2026-03-29T13:43:50.875Z</time></trkpt><trkpt lat="43.1171927" lon="11.48389"><ele>148.66666666666666</ele><time>2026-03-29T13:43:51.897Z</time></trkpt><trkpt lat="43.1170269" lon="11.4838491"><ele>151.33333333333334</ele><time>2026-03-29T13:43:52.864Z</time></trkpt><trkpt lat="43.1168662" lon="11.4837678"><ele>154.0</ele><time>2026-03-29T13:43:53.879Z</time></trkpt><trkpt lat="43.1167324" lon="11.4836792"><ele>154.0</ele><time>2026-03-29T13:43:54.868Z</time></trkpt><trkpt lat="43.1166109" lon="11.4836023"><ele>154.0</ele><time>2026-03-29T13:43:55.89Z</time></trkpt><trkpt lat="43.1164944" lon="11.483557"><ele>154.0</ele><time>2026-03-29T13:43:56.875Z</time></trkpt><trkpt lat="43.1163796" lon="11.4835579"><ele>154.0</ele><time>2026-03-29T13:43:57.871Z</time></trkpt><trkpt lat="43.1162764" lon="11.4835978"><ele>156.5</ele><time>2026-03-29T13:43:58.878Z</time></trkpt><trkpt lat="43.1162072" lon="11.4836743"><ele>159.0</ele><time>2026-03-29T13:43:59.872Z</time></trkpt><trkpt lat="43.1161373" lon="11.4838227"><ele>161.5</ele><time>2026-03-29T13:44:00.886Z</time></trkpt><trkpt lat="43.1160858" lon="11.4840187"><ele>164.0</ele><time>2026-03-29T13:44:01.884Z</time></trkpt><trkpt lat="43.1160478" lon="11.4841993"><ele>164.66666666666666</ele><time>2026-03-29T13:44:02.896Z</time></trkpt><trkpt lat="43.1159979" lon="11.4843919"><ele>165.33333333333334</ele><time>2026-03-29T13:44:03.874Z</time></trkpt><trkpt lat="43.1159222" lon="11.4845836"><ele>166.0</ele><time>2026-03-29T13:44:04.871Z</time></trkpt><trkpt lat="43.1157892" lon="11.484768"><ele>168.0</ele><time>2026-03-29T13:44:05.889Z</time></trkpt><trkpt lat="43.1156458" lon="11.4849055"><ele>170.0</ele><time>2026-03-29T13:44:06.866Z</time></trkpt><trkpt lat="43.1154828" lon="11.4850303"><ele>172.0</ele><time>2026-03-29T13:44:07.89Z</time></trkpt><trkpt lat="43.1153435" lon="11.4851197"><ele>172.0</ele><time>2026-03-29T13:44:08.881Z</time></trkpt><trkpt lat="43.1151782" lon="11.4852555"><ele>172.0</ele><time>2026-03-29T13:44:09.87Z</time></trkpt><trkpt lat="43.1149992" lon="11.4854143"><ele>172.0</ele><time>2026-03-29T13:44:10.881Z</time></trkpt><trkpt lat="43.114806" lon="11.4855829"><ele>174.0</ele><time>2026-03-29T13:44:11.873Z</time></trkpt><trkpt lat="43.1145972" lon="11.4857564"><ele>176.0</ele><time>2026-03-29T13:44:12.887Z</time></trkpt><trkpt lat="43.1143849" lon="11.4859078"><ele>176.0</ele><time>2026-03-29T13:44:13.874Z</time></trkpt><trkpt lat="43.1141542" lon="11.4860675"><ele>176.0</ele><time>2026-03-29T13:44:14.867Z</time></trkpt><trkpt lat="43.1139535" lon="11.4862147"><ele>175.5</ele><time>2026-03-29T13:44:15.875Z</time></trkpt><trkpt lat="43.113741" lon="11.4863565"><ele>175.0</ele><time>2026-03-29T13:44:16.883Z</time></trkpt><trkpt lat="43.1135499" lon="11.4864983"><ele>175.0</ele><time>2026-03-29T13:44:17.878Z</time></trkpt><trkpt lat="43.1133655" lon="11.4866412"><ele>175.0</ele><time>2026-03-29T13:44:18.887Z</time></trkpt><trkpt lat="43.1132004" lon="11.486785"><ele>175.0</ele><time>2026-03-29T13:44:19.874Z</time></trkpt><trkpt lat="43.1130363" lon="11.4869282"><ele>174.33333333333334</ele><time>2026-03-29T13:44:20.885Z</time></trkpt><trkpt lat="43.1128928" lon="11.4870605"><ele>173.66666666666666</ele><time>2026-03-29T13:44:21.88Z</time></trkpt><trkpt lat="43.1127377" lon="11.487201"><ele>173.0</ele><time>2026-03-29T13:44:22.898Z</time></trkpt><trkpt lat="43.1125886" lon="11.4873368"><ele>173.0</ele><time>2026-03-29T13:44:23.878Z</time></trkpt><trkpt lat="43.1124355" lon="11.4874978"><ele>173.0</ele><time>2026-03-29T13:44:24.885Z</time></trkpt><trkpt lat="43.112295" lon="11.4876793"><ele>173.0</ele><time>2026-03-29T13:44:25.887Z</time></trkpt><trkpt lat="43.1121677" lon="11.4878844"><ele>171.0</ele><time>2026-03-29T13:44:26.869Z</time></trkpt><trkpt lat="43.1120399" lon="11.4881235"><ele>169.0</ele><time>2026-03-29T13:44:27.886Z</time></trkpt><trkpt lat="43.1119286" lon="11.4883518"><ele>167.0</ele><time>2026-03-29T13:44:28.87Z</time></trkpt><trkpt lat="43.1118136" lon="11.4886168"><ele>167.33333333333331</ele><time>2026-03-29T13:44:29.893Z</time></trkpt><trkpt lat="43.1117149" lon="11.488862"><ele>167.66666666666666</ele><time>2026-03-29T13:44:30.869Z</time></trkpt><trkpt lat="43.1116128" lon="11.489109"><ele>168.0</ele><time>2026-03-29T13:44:31.865Z</time></trkpt><trkpt lat="43.1115223" lon="11.4893669"><ele>166.66666666666666</ele><time>2026-03-29T13:44:32.871Z</time></trkpt><trkpt lat="43.1114335" lon="11.4896384"><ele>165.33333333333331</ele><time>2026-03-29T13:44:33.872Z</time></trkpt><trkpt lat="43.1113341" lon="11.4898858"><ele>164.0</ele><time>2026-03-29T13:44:34.87Z</time></trkpt><trkpt lat="43.1112243" lon="11.490121"><ele>164.0</ele><time>2026-03-29T13:44:35.87Z</time></trkpt><trkpt lat="43.1111017" lon="11.4903221"><ele>164.0</ele><time>2026-03-29T13:44:36.877Z</time></trkpt><trkpt lat="43.1109701" lon="11.4904999"><ele>164.0</ele><time>2026-03-29T13:44:37.858Z</time></trkpt><trkpt lat="43.1108318" lon="11.4906832"><ele>161.33333333333331</ele><time>2026-03-29T13:44:38.898Z</time></trkpt><trkpt lat="43.1107051" lon="11.4908552"><ele>158.66666666666666</ele><time>2026-03-29T13:44:39.877Z</time></trkpt><trkpt lat="43.1105791" lon="11.4910352"><ele>156.0</ele><time>2026-03-29T13:44:40.879Z</time></trkpt><trkpt lat="43.110468" lon="11.4912159"><ele>156.66666666666666</ele><time>2026-03-29T13:44:41.884Z</time></trkpt><trkpt lat="43.110372" lon="11.4913946"><ele>157.33333333333331</ele><time>2026-03-29T13:44:42.873Z</time></trkpt><trkpt lat="43.1102845" lon="11.4915772"><ele>158.0</ele><time>2026-03-29T13:44:43.889Z</time></trkpt><trkpt lat="43.1102026" lon="11.4917642"><ele>158.0</ele><time>2026-03-29T13:44:44.898Z</time></trkpt><trkpt lat="43.1101249" lon="11.4919655"><ele>158.0</ele><time>2026-03-29T13:44:45.892Z</time></trkpt><trkpt lat="43.1100582" lon="11.4921662"><ele>158.0</ele><time>2026-03-29T13:44:46.877Z</time></trkpt><trkpt lat="43.1100268" lon="11.4923685"><ele>158.0</ele><time>2026-03-29T13:44:47.879Z</time></trkpt><trkpt lat="43.110001" lon="11.4926058"><ele>158.0</ele><time>2026-03-29T13:44:48.869Z</time></trkpt><trkpt lat="43.1099795" lon="11.4928583"><ele>158.0</ele><time>2026-03-29T13:44:49.884Z</time></trkpt><trkpt lat="43.1099575" lon="11.4931199"><ele>157.33333333333331</ele><time>2026-03-29T13:44:50.882Z</time></trkpt><trkpt lat="43.1099402" lon="11.4933729"><ele>156.66666666666666</ele><time>2026-03-29T13:44:51.872Z</time></trkpt><trkpt lat="43.109925" lon="11.4936306"><ele>156.0</ele><time>2026-03-29T13:44:52.884Z</time></trkpt><trkpt lat="43.109906" lon="11.49389"><ele>153.0</ele><time>2026-03-29T13:44:53.877Z</time></trkpt><trkpt lat="43.1098785" lon="11.4941605"><ele>150.0</ele><time>2026-03-29T13:44:54.891Z</time></trkpt><trkpt lat="43.1098246" lon="11.4944159"><ele>147.0</ele><time>2026-03-29T13:44:55.879Z</time></trkpt><trkpt lat="43.1097589" lon="11.4946654"><ele>147.0</ele><time>2026-03-29T13:44:56.868Z</time></trkpt><trkpt lat="43.1096845" lon="11.4949048"><ele>147.0</ele><time>2026-03-29T13:44:57.888Z</time></trkpt><trkpt lat="43.1095961" lon="11.4951226"><ele>147.0</ele><time>2026-03-29T13:44:58.873Z</time></trkpt><trkpt lat="43.1095034" lon="11.495347"><ele>149.0</ele><time>2026-03-29T13:44:59.886Z</time></trkpt><trkpt lat="43.1094176" lon="11.4955655"><ele>151.0</ele><time>2026-03-29T13:45:00.874Z</time></trkpt><trkpt lat="43.1093306" lon="11.4957957"><ele>153.0</ele><time>2026-03-29T13:45:01.88Z</time></trkpt><trkpt lat="43.1092367" lon="11.4960302"><ele>153.0</ele><time>2026-03-29T13:45:02.885Z</time></trkpt><trkpt lat="43.1091452" lon="11.4962435"><ele>153.0</ele><time>2026-03-29T13:45:03.857Z</time></trkpt><trkpt lat="43.1090427" lon="11.4964697"><ele>153.0</ele><time>2026-03-29T13:45:04.911Z</time></trkpt><trkpt lat="43.1089431" lon="11.4966814"><ele>151.66666666666666</ele><time>2026-03-29T13:45:05.882Z</time></trkpt><trkpt lat="43.1088499" lon="11.4968996"><ele>150.33333333333331</ele><time>2026-03-29T13:45:06.889Z</time></trkpt><trkpt lat="43.1087578" lon="11.4971256"><ele>149.0</ele><time>2026-03-29T13:45:07.899Z</time></trkpt><trkpt lat="43.1086631" lon="11.4973354"><ele>149.0</ele><time>2026-03-29T13:45:08.893Z</time></trkpt><trkpt lat="43.1085487" lon="11.4975141"><ele>149.0</ele><time>2026-03-29T13:45:09.872Z</time></trkpt><trkpt lat="43.1084052" lon="11.4976736"><ele>149.0</ele><time>2026-03-29T13:45:10.875Z</time></trkpt><trkpt lat="43.1082415" lon="11.4978026"><ele>148.66666666666666</ele><time>2026-03-29T13:45:11.873Z</time></trkpt><trkpt lat="43.1080633" lon="11.4978988"><ele>148.33333333333334</ele><time>2026-03-29T13:45:12.871Z</time></trkpt><trkpt lat="43.1078724" lon="11.4979746"><ele>148.0</ele><time>2026-03-29T13:45:13.89Z</time></trkpt><trkpt lat="43.1076883" lon="11.4980422"><ele>148.0</ele><time>2026-03-29T13:45:14.889Z</time></trkpt><trkpt lat="43.107508" lon="11.4981028"><ele>148.0</ele><time>2026-03-29T13:45:15.887Z</time></trkpt><trkpt lat="43.1073199" lon="11.4981675"><ele>148.0</ele><time>2026-03-29T13:45:16.875Z</time></trkpt><trkpt lat="43.1071381" lon="11.4982282"><ele>149.33333333333334</ele><time>2026-03-29T13:45:17.896Z</time></trkpt><trkpt lat="43.1069725" lon="11.4982846"><ele>150.66666666666666</ele><time>2026-03-29T13:45:18.869Z</time></trkpt><trkpt lat="43.1068025" lon="11.4983371"><ele>152.0</ele><time>2026-03-29T13:45:19.873Z</time></trkpt><trkpt lat="43.1066431" lon="11.4984048"><ele>155.66666666666666</ele><time>2026-03-29T13:45:20.865Z</time></trkpt><trkpt lat="43.1064739" lon="11.4984984"><ele>159.33333333333334</ele><time>2026-03-29T13:45:21.882Z</time></trkpt><trkpt lat="43.1063288" lon="11.4986189"><ele>163.0</ele><time>2026-03-29T13:45:22.915Z</time></trkpt><trkpt lat="43.1062136" lon="11.4987624"><ele>163.0</ele><time>2026-03-29T13:45:23.882Z</time></trkpt><trkpt lat="43.1060924" lon="11.4989693"><ele>163.0</ele><time>2026-03-29T13:45:24.873Z</time></trkpt><trkpt lat="43.1060224" lon="11.4991903"><ele>163.0</ele><time>2026-03-29T13:45:25.88Z</time></trkpt><trkpt lat="43.1059727" lon="11.4994272"><ele>162.0</ele><time>2026-03-29T13:45:26.882Z</time></trkpt><trkpt lat="43.1059581" lon="11.4996936"><ele>161.0</ele><time>2026-03-29T13:45:27.894Z</time></trkpt><trkpt lat="43.1059384" lon="11.4999729"><ele>160.0</ele><time>2026-03-29T13:45:28.906Z</time></trkpt><trkpt lat="43.1059214" lon="11.5002666"><ele>159.66666666666669</ele><time>2026-03-29T13:45:29.91Z</time></trkpt><trkpt lat="43.1059287" lon="11.5005291"><ele>159.33333333333334</ele><time>2026-03-29T13:45:30.883Z</time></trkpt><trkpt lat="43.1059142" lon="11.5008172"><ele>159.0</ele><time>2026-03-29T13:45:31.876Z</time></trkpt><trkpt lat="43.1059051" lon="11.501118"><ele>158.0</ele><time>2026-03-29T13:45:32.89Z</time></trkpt><trkpt lat="43.1059054" lon="11.501409"><ele>157.0</ele><time>2026-03-29T13:45:33.918Z</time></trkpt><trkpt lat="43.1058993" lon="11.5016944"><ele>156.0</ele><time>2026-03-29T13:45:34.882Z</time></trkpt><trkpt lat="43.1058943" lon="11.5020056"><ele>155.0</ele><time>2026-03-29T13:45:35.924Z</time></trkpt><trkpt lat="43.1058932" lon="11.5022928"><ele>154.0</ele><time>2026-03-29T13:45:36.886Z</time></trkpt><trkpt lat="43.1058831" lon="11.5025809"><ele>153.0</ele><time>2026-03-29T13:45:37.872Z</time></trkpt><trkpt lat="43.1058682" lon="11.5028837"><ele>152.66666666666666</ele><time>2026-03-29T13:45:38.887Z</time></trkpt><trkpt lat="43.1058529" lon="11.5031666"><ele>152.33333333333331</ele><time>2026-03-29T13:45:39.862Z</time></trkpt><trkpt lat="43.1058401" lon="11.503452"><ele>152.0</ele><time>2026-03-29T13:45:40.884Z</time></trkpt><trkpt lat="43.1058333" lon="11.5037379"><ele>153.0</ele><time>2026-03-29T13:45:41.887Z</time></trkpt><trkpt lat="43.1058265" lon="11.5040147"><ele>154.0</ele><time>2026-03-29T13:45:42.872Z</time></trkpt><trkpt lat="43.1058213" lon="11.5042875"><ele>155.0</ele><time>2026-03-29T13:45:43.874Z</time></trkpt><trkpt lat="43.1058168" lon="11.5045519"><ele>155.33333333333331</ele><time>2026-03-29T13:45:44.88Z</time></trkpt><trkpt lat="43.1058086" lon="11.5048074"><ele>155.66666666666666</ele><time>2026-03-29T13:45:45.881Z</time></trkpt><trkpt lat="43.1057985" lon="11.5050563"><ele>156.0</ele><time>2026-03-29T13:45:46.892Z</time></trkpt><trkpt lat="43.1057833" lon="11.5052956"><ele>155.66666666666666</ele><time>2026-03-29T13:45:47.878Z</time></trkpt><trkpt lat="43.1057579" lon="11.5055319"><ele>155.33333333333331</ele><time>2026-03-29T13:45:48.883Z</time></trkpt><trkpt lat="43.1057183" lon="11.5057698"><ele>155.0</ele><time>2026-03-29T13:45:49.881Z</time></trkpt><trkpt lat="43.1056635" lon="11.5059945"><ele>159.33333333333331</ele><time>2026-03-29T13:45:50.881Z</time></trkpt><trkpt lat="43.1055978" lon="11.5062201"><ele>163.66666666666666</ele><time>2026-03-29T13:45:51.876Z</time></trkpt><trkpt lat="43.1055279" lon="11.5064499"><ele>168.0</ele><time>2026-03-29T13:45:52.873Z</time></trkpt><trkpt lat="43.1054551" lon="11.50669"><ele>168.0</ele><time>2026-03-29T13:45:53.874Z</time></trkpt><trkpt lat="43.1053864" lon="11.506931"><ele>168.0</ele><time>2026-03-29T13:45:54.864Z</time></trkpt><trkpt lat="43.1053127" lon="11.5071672"><ele>168.0</ele><time>2026-03-29T13:45:55.875Z</time></trkpt><trkpt lat="43.1052396" lon="11.5074154"><ele>166.33333333333334</ele><time>2026-03-29T13:45:56.893Z</time></trkpt><trkpt lat="43.1051681" lon="11.5076458"><ele>164.66666666666669</ele><time>2026-03-29T13:45:57.865Z</time></trkpt><trkpt lat="43.1050975" lon="11.5078801"><ele>163.0</ele><time>2026-03-29T13:45:58.881Z</time></trkpt><trkpt lat="43.1050277" lon="11.5081107"><ele>161.0</ele><time>2026-03-29T13:45:59.88Z</time></trkpt><trkpt lat="43.1049628" lon="11.5083393"><ele>159.0</ele><time>2026-03-29T13:46:00.877Z</time></trkpt><trkpt lat="43.1049024" lon="11.5085659"><ele>157.0</ele><time>2026-03-29T13:46:01.886Z</time></trkpt><trkpt lat="43.1048399" lon="11.5087943"><ele>162.33333333333334</ele><time>2026-03-29T13:46:02.89Z</time></trkpt><trkpt lat="43.1047722" lon="11.5090275"><ele>167.66666666666666</ele><time>2026-03-29T13:46:03.88Z</time></trkpt><trkpt lat="43.1047022" lon="11.5092656"><ele>173.0</ele><time>2026-03-29T13:46:04.883Z</time></trkpt><trkpt lat="43.1046368" lon="11.5095045"><ele>172.0</ele><time>2026-03-29T13:46:05.891Z</time></trkpt><trkpt lat="43.1045839" lon="11.5097403"><ele>171.0</ele><time>2026-03-29T13:46:06.896Z</time></trkpt><trkpt lat="43.1045364" lon="11.5099835"><ele>170.0</ele><time>2026-03-29T13:46:07.889Z</time></trkpt><trkpt lat="43.1045028" lon="11.5102282"><ele>168.0</ele><time>2026-03-29T13:46:08.876Z</time></trkpt><trkpt lat="43.1044678" lon="11.5104877"><ele>166.0</ele><time>2026-03-29T13:46:09.872Z</time></trkpt><trkpt lat="43.1044285" lon="11.510731"><ele>164.0</ele><time>2026-03-29T13:46:10.87Z</time></trkpt><trkpt lat="43.1043767" lon="11.51098"><ele>164.0</ele><time>2026-03-29T13:46:11.867Z</time></trkpt><trkpt lat="43.1043199" lon="11.5112167"><ele>164.0</ele><time>2026-03-29T13:46:12.872Z</time></trkpt><trkpt lat="43.1042633" lon="11.5114557"><ele>164.0</ele><time>2026-03-29T13:46:13.897Z</time></trkpt><trkpt lat="43.1042045" lon="11.511678"><ele>164.0</ele><time>2026-03-29T13:46:14.881Z</time></trkpt><trkpt lat="43.1041446" lon="11.5118919"><ele>164.0</ele><time>2026-03-29T13:46:15.877Z</time></trkpt><trkpt lat="43.1040814" lon="11.5121076"><ele>164.0</ele><time>2026-03-29T13:46:16.883Z</time></trkpt><trkpt lat="43.104016" lon="11.5123232"><ele>164.0</ele><time>2026-03-29T13:46:17.89Z</time></trkpt><trkpt lat="43.103951" lon="11.512537"><ele>164.0</ele><time>2026-03-29T13:46:18.89Z</time></trkpt><trkpt lat="43.1038789" lon="11.5127338"><ele>164.0</ele><time>2026-03-29T13:46:19.875Z</time></trkpt><trkpt lat="43.1038007" lon="11.5129399"><ele>161.66666666666666</ele><time>2026-03-29T13:46:20.906Z</time></trkpt><trkpt lat="43.103752" lon="11.5131261"><ele>159.33333333333334</ele><time>2026-03-29T13:46:21.872Z</time></trkpt><trkpt lat="43.103711" lon="11.5133516"><ele>157.0</ele><time>2026-03-29T13:46:22.872Z</time></trkpt><trkpt lat="43.1036643" lon="11.5135936"><ele>157.0</ele><time>2026-03-29T13:46:23.872Z</time></trkpt><trkpt lat="43.1036128" lon="11.5138418"><ele>157.0</ele><time>2026-03-29T13:46:24.861Z</time></trkpt><trkpt lat="43.1035392" lon="11.5140879"><ele>157.0</ele><time>2026-03-29T13:46:25.886Z</time></trkpt><trkpt lat="43.1034586" lon="11.5143282"><ele>157.0</ele><time>2026-03-29T13:46:26.872Z</time></trkpt><trkpt lat="43.1033866" lon="11.514565"><ele>157.0</ele><time>2026-03-29T13:46:27.876Z</time></trkpt><trkpt lat="43.1033312" lon="11.5148006"><ele>157.0</ele><time>2026-03-29T13:46:28.877Z</time></trkpt><trkpt lat="43.1032824" lon="11.5150451"><ele>157.0</ele><time>2026-03-29T13:46:29.878Z</time></trkpt><trkpt lat="43.1032504" lon="11.5152905"><ele>157.0</ele><time>2026-03-29T13:46:30.872Z</time></trkpt><trkpt lat="43.1032181" lon="11.5155392"><ele>157.0</ele><time>2026-03-29T13:46:31.876Z</time></trkpt><trkpt lat="43.1031855" lon="11.5157841"><ele>161.33333333333334</ele><time>2026-03-29T13:46:32.891Z</time></trkpt><trkpt lat="43.1031478" lon="11.5160406"><ele>165.66666666666666</ele><time>2026-03-29T13:46:33.914Z</time></trkpt><trkpt lat="43.1031125" lon="11.5162763"><ele>170.0</ele><time>2026-03-29T13:46:34.875Z</time></trkpt><trkpt lat="43.1030702" lon="11.5165175"><ele>170.0</ele><time>2026-03-29T13:46:35.879Z</time></trkpt><trkpt lat="43.1030332" lon="11.5167392"><ele>170.0</ele><time>2026-03-29T13:46:36.88Z</time></trkpt><trkpt lat="43.1029877" lon="11.516941"><ele>170.0</ele><time>2026-03-29T13:46:37.877Z</time></trkpt><trkpt lat="43.1029254" lon="11.5171373"><ele>168.33333333333331</ele><time>2026-03-29T13:46:38.883Z</time></trkpt><trkpt lat="43.1028478" lon="11.517318"><ele>166.66666666666666</ele><time>2026-03-29T13:46:39.894Z</time></trkpt><trkpt lat="43.1027573" lon="11.5174844"><ele>165.0</ele><time>2026-03-29T13:46:40.879Z</time></trkpt><trkpt lat="43.1026492" lon="11.5176413"><ele>165.0</ele><time>2026-03-29T13:46:41.875Z</time></trkpt><trkpt lat="43.1025356" lon="11.5177945"><ele>165.0</ele><time>2026-03-29T13:46:42.876Z</time></trkpt><trkpt lat="43.1024157" lon="11.5179542"><ele>165.0</ele><time>2026-03-29T13:46:43.886Z</time></trkpt><trkpt lat="43.1023248" lon="11.518112"><ele>165.66666666666666</ele><time>2026-03-29T13:46:44.897Z</time></trkpt><trkpt lat="43.1022324" lon="11.5182939"><ele>166.33333333333331</ele><time>2026-03-29T13:46:45.883Z</time></trkpt><trkpt lat="43.1021515" lon="11.5184884"><ele>167.0</ele><time>2026-03-29T13:46:46.882Z</time></trkpt><trkpt lat="43.1020558" lon="11.51866"><ele>166.25</ele><time>2026-03-29T13:46:47.881Z</time></trkpt><trkpt lat="43.1019529" lon="11.5188101"><ele>165.5</ele><time>2026-03-29T13:46:48.888Z</time></trkpt><trkpt lat="43.1018469" lon="11.5189347"><ele>164.75</ele><time>2026-03-29T13:46:49.871Z</time></trkpt><trkpt lat="43.1017522" lon="11.5190466"><ele>164.0</ele><time>2026-03-29T13:46:50.869Z</time></trkpt><trkpt lat="43.1016483" lon="11.5191634"><ele>166.66666666666666</ele><time>2026-03-29T13:46:51.877Z</time></trkpt><trkpt lat="43.1015053" lon="11.5192814"><ele>169.33333333333334</ele><time>2026-03-29T13:46:52.876Z</time></trkpt><trkpt lat="43.1014106" lon="11.519437"><ele>172.0</ele><time>2026-03-29T13:46:53.879Z</time></trkpt><trkpt lat="43.1013169" lon="11.5196281"><ele>172.0</ele><time>2026-03-29T13:46:54.877Z</time></trkpt><trkpt lat="43.1012344" lon="11.5198141"><ele>172.0</ele><time>2026-03-29T13:46:55.873Z</time></trkpt><trkpt lat="43.1011526" lon="11.5200021"><ele>172.0</ele><time>2026-03-29T13:46:56.881Z</time></trkpt><trkpt lat="43.1010762" lon="11.5201966"><ele>172.0</ele><time>2026-03-29T13:46:57.895Z</time></trkpt><trkpt lat="43.1010464" lon="11.5203691"><ele>172.0</ele><time>2026-03-29T13:46:58.877Z</time></trkpt><trkpt lat="43.1009938" lon="11.5205502"><ele>172.0</ele><time>2026-03-29T13:46:59.883Z</time></trkpt><trkpt lat="43.1009154" lon="11.520721"><ele>172.0</ele><time>2026-03-29T13:47:00.887Z</time></trkpt><trkpt lat="43.1008321" lon="11.5208878"><ele>169.0</ele><time>2026-03-29T13:47:01.871Z</time></trkpt><trkpt lat="43.1007293" lon="11.5210429"><ele>166.0</ele><time>2026-03-29T13:47:02.898Z</time></trkpt><trkpt lat="43.1006162" lon="11.5211874"><ele>163.0</ele><time>2026-03-29T13:47:03.872Z</time></trkpt><trkpt lat="43.1005317" lon="11.5213529"><ele>161.66666666666669</ele><time>2026-03-29T13:47:04.874Z</time></trkpt><trkpt lat="43.1004225" lon="11.5215328"><ele>160.33333333333334</ele><time>2026-03-29T13:47:05.88Z</time></trkpt><trkpt lat="43.1003329" lon="11.5216908"><ele>159.0</ele><time>2026-03-29T13:47:06.883Z</time></trkpt><trkpt lat="43.1002438" lon="11.5218405"><ele>159.0</ele><time>2026-03-29T13:47:07.877Z</time></trkpt><trkpt lat="43.1001405" lon="11.5219931"><ele>159.0</ele><time>2026-03-29T13:47:08.884Z</time></trkpt><trkpt lat="43.1000077" lon="11.522135"><ele>159.0</ele><time>2026-03-29T13:47:09.878Z</time></trkpt><trkpt lat="43.0998727" lon="11.5222498"><ele>161.33333333333334</ele><time>2026-03-29T13:47:10.896Z</time></trkpt><trkpt lat="43.0997334" lon="11.5223584"><ele>163.66666666666669</ele><time>2026-03-29T13:47:11.875Z</time></trkpt><trkpt lat="43.0995787" lon="11.522493"><ele>166.0</ele><time>2026-03-29T13:47:12.891Z</time></trkpt><trkpt lat="43.0994352" lon="11.5226241"><ele>166.0</ele><time>2026-03-29T13:47:13.872Z</time></trkpt><trkpt lat="43.099295" lon="11.5227595"><ele>166.0</ele><time>2026-03-29T13:47:14.872Z</time></trkpt><trkpt lat="43.099162" lon="11.5228974"><ele>166.0</ele><time>2026-03-29T13:47:15.866Z</time></trkpt><trkpt lat="43.0990242" lon="11.5230389"><ele>167.66666666666669</ele><time>2026-03-29T13:47:16.882Z</time></trkpt><trkpt lat="43.0988931" lon="11.5231743"><ele>169.33333333333334</ele><time>2026-03-29T13:47:17.87Z</time></trkpt><trkpt lat="43.098761" lon="11.5233049"><ele>171.0</ele><time>2026-03-29T13:47:18.888Z</time></trkpt><trkpt lat="43.0986401" lon="11.523421"><ele>171.0</ele><time>2026-03-29T13:47:19.876Z</time></trkpt><trkpt lat="43.0985331" lon="11.5235316"><ele>171.0</ele><time>2026-03-29T13:47:20.876Z</time></trkpt><trkpt lat="43.0984401" lon="11.5236327"><ele>171.0</ele><time>2026-03-29T13:47:21.892Z</time></trkpt><trkpt lat="43.0983525" lon="11.5237348"><ele>171.0</ele><time>2026-03-29T13:47:22.898Z</time></trkpt><trkpt lat="43.0982679" lon="11.5238366"><ele>171.0</ele><time>2026-03-29T13:47:23.91Z</time></trkpt><trkpt lat="43.0981794" lon="11.52395"><ele>171.0</ele><time>2026-03-29T13:47:24.884Z</time></trkpt><trkpt lat="43.0980821" lon="11.5240694"><ele>171.0</ele><time>2026-03-29T13:47:25.876Z</time></trkpt><trkpt lat="43.0979754" lon="11.5241897"><ele>171.0</ele><time>2026-03-29T13:47:26.877Z</time></trkpt><trkpt lat="43.0978577" lon="11.5243212"><ele>171.0</ele><time>2026-03-29T13:47:27.881Z</time></trkpt><trkpt lat="43.0977366" lon="11.5244551"><ele>171.0</ele><time>2026-03-29T13:47:28.876Z</time></trkpt><trkpt lat="43.0976015" lon="11.524597"><ele>171.0</ele><time>2026-03-29T13:47:29.877Z</time></trkpt><trkpt lat="43.0974577" lon="11.52475"><ele>168.66666666666666</ele><time>2026-03-29T13:47:30.885Z</time></trkpt><trkpt lat="43.09732" lon="11.5248965"><ele>166.33333333333331</ele><time>2026-03-29T13:47:31.894Z</time></trkpt><trkpt lat="43.0971877" lon="11.5250416"><ele>164.0</ele><time>2026-03-29T13:47:32.883Z</time></trkpt><trkpt lat="43.0970483" lon="11.5251873"><ele>164.0</ele><time>2026-03-29T13:47:33.885Z</time></trkpt><trkpt lat="43.0969028" lon="11.5253398"><ele>164.0</ele><time>2026-03-29T13:47:34.875Z</time></trkpt><trkpt lat="43.0967464" lon="11.5254996"><ele>164.0</ele><time>2026-03-29T13:47:35.886Z</time></trkpt><trkpt lat="43.0965935" lon="11.5256589"><ele>165.33333333333331</ele><time>2026-03-29T13:47:36.891Z</time></trkpt><trkpt lat="43.0964271" lon="11.5258204"><ele>166.66666666666666</ele><time>2026-03-29T13:47:37.881Z</time></trkpt><trkpt lat="43.0962778" lon="11.5259863"><ele>168.0</ele><time>2026-03-29T13:47:38.886Z</time></trkpt><trkpt lat="43.0961222" lon="11.5261599"><ele>167.0</ele><time>2026-03-29T13:47:39.884Z</time></trkpt><trkpt lat="43.0959655" lon="11.5263355"><ele>166.0</ele><time>2026-03-29T13:47:40.889Z</time></trkpt><trkpt lat="43.0958042" lon="11.5265181"><ele>165.0</ele><time>2026-03-29T13:47:41.887Z</time></trkpt><trkpt lat="43.0956475" lon="11.5267009"><ele>165.66666666666666</ele><time>2026-03-29T13:47:42.887Z</time></trkpt><trkpt lat="43.0954912" lon="11.5268952"><ele>166.33333333333331</ele><time>2026-03-29T13:47:43.883Z</time></trkpt><trkpt lat="43.0953386" lon="11.527107"><ele>167.0</ele><time>2026-03-29T13:47:44.886Z</time></trkpt><trkpt lat="43.095191" lon="11.5273238"><ele>167.0</ele><time>2026-03-29T13:47:45.881Z</time></trkpt><trkpt lat="43.0950632" lon="11.5275397"><ele>167.0</ele><time>2026-03-29T13:47:46.881Z</time></trkpt><trkpt lat="43.0949395" lon="11.5277615"><ele>167.0</ele><time>2026-03-29T13:47:47.867Z</time></trkpt><trkpt lat="43.0948123" lon="11.5279933"><ele>167.66666666666666</ele><time>2026-03-29T13:47:48.879Z</time></trkpt><trkpt lat="43.0946869" lon="11.5282362"><ele>168.33333333333334</ele><time>2026-03-29T13:47:49.866Z</time></trkpt><trkpt lat="43.0945746" lon="11.5284771"><ele>169.0</ele><time>2026-03-29T13:47:50.886Z</time></trkpt><trkpt lat="43.0944691" lon="11.5287104"><ele>167.33333333333334</ele><time>2026-03-29T13:47:51.879Z</time></trkpt><trkpt lat="43.0943625" lon="11.528948"><ele>165.66666666666666</ele><time>2026-03-29T13:47:52.889Z</time></trkpt><trkpt lat="43.0942689" lon="11.5291882"><ele>164.0</ele><time>2026-03-29T13:47:53.896Z</time></trkpt><trkpt lat="43.0941819" lon="11.5294256"><ele>163.66666666666666</ele><time>2026-03-29T13:47:54.874Z</time></trkpt><trkpt lat="43.0940959" lon="11.5296737"><ele>163.33333333333334</ele><time>2026-03-29T13:47:55.883Z</time></trkpt><trkpt lat="43.0940163" lon="11.5299217"><ele>163.0</ele><time>2026-03-29T13:47:56.874Z</time></trkpt><trkpt lat="43.0939393" lon="11.5301805"><ele>163.66666666666669</ele><time>2026-03-29T13:47:57.907Z</time></trkpt><trkpt lat="43.0938691" lon="11.5304254"><ele>164.33333333333334</ele><time>2026-03-29T13:47:58.887Z</time></trkpt><trkpt lat="43.0938056" lon="11.5306814"><ele>165.0</ele><time>2026-03-29T13:47:59.877Z</time></trkpt><trkpt lat="43.0937437" lon="11.5309509"><ele>166.33333333333334</ele><time>2026-03-29T13:48:00.881Z</time></trkpt><trkpt lat="43.093684" lon="11.5312256"><ele>167.66666666666669</ele><time>2026-03-29T13:48:01.885Z</time></trkpt><trkpt lat="43.0936296" lon="11.5315067"><ele>169.0</ele><time>2026-03-29T13:48:02.88Z</time></trkpt><trkpt lat="43.0935865" lon="11.5317792"><ele>170.66666666666669</ele><time>2026-03-29T13:48:03.874Z</time></trkpt><trkpt lat="43.0935468" lon="11.5320618"><ele>172.33333333333334</ele><time>2026-03-29T13:48:04.88Z</time></trkpt><trkpt lat="43.0935121" lon="11.5323337"><ele>174.0</ele><time>2026-03-29T13:48:05.889Z</time></trkpt><trkpt lat="43.0934834" lon="11.5325966"><ele>174.0</ele><time>2026-03-29T13:48:06.873Z</time></trkpt><trkpt lat="43.0934613" lon="11.5328693"><ele>174.0</ele><time>2026-03-29T13:48:07.907Z</time></trkpt><trkpt lat="43.0934441" lon="11.533132"><ele>174.0</ele><time>2026-03-29T13:48:08.893Z</time></trkpt><trkpt lat="43.0934311" lon="11.5333631"><ele>175.66666666666666</ele><time>2026-03-29T13:48:09.879Z</time></trkpt><trkpt lat="43.0934144" lon="11.5335978"><ele>177.33333333333331</ele><time>2026-03-29T13:48:10.89Z</time></trkpt><trkpt lat="43.0933907" lon="11.5338297"><ele>179.0</ele><time>2026-03-29T13:48:11.878Z</time></trkpt><trkpt lat="43.0933718" lon="11.5340583"><ele>181.0</ele><time>2026-03-29T13:48:12.888Z</time></trkpt><trkpt lat="43.093353" lon="11.5342726"><ele>183.0</ele><time>2026-03-29T13:48:13.883Z</time></trkpt><trkpt lat="43.0933341" lon="11.5344929"><ele>185.0</ele><time>2026-03-29T13:48:14.88Z</time></trkpt><trkpt lat="43.0933109" lon="11.5347132"><ele>185.0</ele><time>2026-03-29T13:48:15.9Z</time></trkpt><trkpt lat="43.0932873" lon="11.5349193"><ele>185.0</ele><time>2026-03-29T13:48:16.868Z</time></trkpt><trkpt lat="43.0932626" lon="11.535128"><ele>185.0</ele><time>2026-03-29T13:48:17.873Z</time></trkpt><trkpt lat="43.0932368" lon="11.5353413"><ele>186.33333333333331</ele><time>2026-03-29T13:48:18.882Z</time></trkpt><trkpt lat="43.0932078" lon="11.5355499"><ele>187.66666666666666</ele><time>2026-03-29T13:48:19.876Z</time></trkpt><trkpt lat="43.0931693" lon="11.5357435"><ele>189.0</ele><time>2026-03-29T13:48:20.868Z</time></trkpt><trkpt lat="43.0931228" lon="11.535954"><ele>189.0</ele><time>2026-03-29T13:48:21.871Z</time></trkpt><trkpt lat="43.0930714" lon="11.536158"><ele>189.0</ele><time>2026-03-29T13:48:22.878Z</time></trkpt><trkpt lat="43.0930178" lon="11.5363638"><ele>189.0</ele><time>2026-03-29T13:48:23.876Z</time></trkpt><trkpt lat="43.0929621" lon="11.5365624"><ele>190.33333333333331</ele><time>2026-03-29T13:48:24.876Z</time></trkpt><trkpt lat="43.0929032" lon="11.5367561"><ele>191.66666666666666</ele><time>2026-03-29T13:48:25.889Z</time></trkpt><trkpt lat="43.0928438" lon="11.5369326"><ele>193.0</ele><time>2026-03-29T13:48:26.885Z</time></trkpt><trkpt lat="43.0927727" lon="11.5371244"><ele>195.66666666666666</ele><time>2026-03-29T13:48:27.878Z</time></trkpt><trkpt lat="43.0926939" lon="11.5373158"><ele>198.33333333333331</ele><time>2026-03-29T13:48:28.888Z</time></trkpt><trkpt lat="43.0926154" lon="11.5374954"><ele>201.0</ele><time>2026-03-29T13:48:29.876Z</time></trkpt><trkpt lat="43.0925286" lon="11.5376755"><ele>201.0</ele><time>2026-03-29T13:48:30.873Z</time></trkpt><trkpt lat="43.092441" lon="11.5378597"><ele>201.0</ele><time>2026-03-29T13:48:31.881Z</time></trkpt><trkpt lat="43.0923435" lon="11.5380399"><ele>201.0</ele><time>2026-03-29T13:48:32.872Z</time></trkpt><trkpt lat="43.0922365" lon="11.5382294"><ele>203.33333333333331</ele><time>2026-03-29T13:48:33.878Z</time></trkpt><trkpt lat="43.0921226" lon="11.5384094"><ele>205.66666666666666</ele><time>2026-03-29T13:48:34.868Z</time></trkpt><trkpt lat="43.0920092" lon="11.5386284"><ele>208.0</ele><time>2026-03-29T13:48:35.879Z</time></trkpt><trkpt lat="43.0918736" lon="11.5388316"><ele>210.33333333333331</ele><time>2026-03-29T13:48:36.877Z</time></trkpt><trkpt lat="43.0917399" lon="11.5390285"><ele>212.66666666666669</ele><time>2026-03-29T13:48:37.891Z</time></trkpt><trkpt lat="43.0915968" lon="11.5392127"><ele>215.0</ele><time>2026-03-29T13:48:38.89Z</time></trkpt><trkpt lat="43.0914489" lon="11.5393833"><ele>215.0</ele><time>2026-03-29T13:48:39.886Z</time></trkpt><trkpt lat="43.0912991" lon="11.5395235"><ele>215.0</ele><time>2026-03-29T13:48:40.892Z</time></trkpt><trkpt lat="43.0911358" lon="11.5396729"><ele>215.0</ele><time>2026-03-29T13:48:41.895Z</time></trkpt><trkpt lat="43.0909521" lon="11.5398263"><ele>217.66666666666669</ele><time>2026-03-29T13:48:42.9Z</time></trkpt><trkpt lat="43.09076" lon="11.5399678"><ele>220.33333333333331</ele><time>2026-03-29T13:48:43.892Z</time></trkpt><trkpt lat="43.0905537" lon="11.5401055"><ele>223.0</ele><time>2026-03-29T13:48:44.884Z</time></trkpt><trkpt lat="43.0903395" lon="11.5402288"><ele>223.0</ele><time>2026-03-29T13:48:45.883Z</time></trkpt><trkpt lat="43.0901157" lon="11.540351"><ele>223.0</ele><time>2026-03-29T13:48:46.877Z</time></trkpt><trkpt lat="43.0898811" lon="11.5404712"><ele>228.5</ele><time>2026-03-29T13:48:47.902Z</time></trkpt><trkpt lat="43.0896509" lon="11.5405881"><ele>234.0</ele><time>2026-03-29T13:48:48.897Z</time></trkpt><trkpt lat="43.0894197" lon="11.5406965"><ele>234.0</ele><time>2026-03-29T13:48:49.898Z</time></trkpt><trkpt lat="43.0891974" lon="11.5408001"><ele>234.0</ele><time>2026-03-29T13:48:50.866Z</time></trkpt><trkpt lat="43.088982" lon="11.5408988"><ele>231.66666666666669</ele><time>2026-03-29T13:48:51.863Z</time></trkpt><trkpt lat="43.0887758" lon="11.5409961"><ele>229.33333333333334</ele><time>2026-03-29T13:48:52.879Z</time></trkpt><trkpt lat="43.0885834" lon="11.5410906"><ele>227.0</ele><time>2026-03-29T13:48:53.877Z</time></trkpt><trkpt lat="43.0884074" lon="11.5411773"><ele>231.33333333333334</ele><time>2026-03-29T13:48:54.885Z</time></trkpt><trkpt lat="43.0882285" lon="11.5412646"><ele>235.66666666666669</ele><time>2026-03-29T13:48:55.895Z</time></trkpt><trkpt lat="43.0880546" lon="11.5413469"><ele>240.0</ele><time>2026-03-29T13:48:56.887Z</time></trkpt><trkpt lat="43.087889" lon="11.5414142"><ele>240.0</ele><time>2026-03-29T13:48:57.872Z</time></trkpt><trkpt lat="43.0877158" lon="11.5414891"><ele>240.0</ele><time>2026-03-29T13:48:58.874Z</time></trkpt><trkpt lat="43.0875474" lon="11.5415652"><ele>240.0</ele><time>2026-03-29T13:48:59.864Z</time></trkpt><trkpt lat="43.0873805" lon="11.541639"><ele>240.33333333333331</ele><time>2026-03-29T13:49:00.873Z</time></trkpt><trkpt lat="43.0872239" lon="11.5417169"><ele>240.66666666666666</ele><time>2026-03-29T13:49:01.885Z</time></trkpt><trkpt lat="43.0871034" lon="11.5418055"><ele>241.0</ele><time>2026-03-29T13:49:02.881Z</time></trkpt><trkpt lat="43.0869399" lon="11.5419115"><ele>241.0</ele><time>2026-03-29T13:49:03.895Z</time></trkpt><trkpt lat="43.0867847" lon="11.5420109"><ele>241.0</ele><time>2026-03-29T13:49:04.881Z</time></trkpt><trkpt lat="43.0867046" lon="11.5421416"><ele>241.0</ele><time>2026-03-29T13:49:06.881Z</time></trkpt><trkpt lat="43.0866265" lon="11.5422343"><ele>241.0</ele><time>2026-03-29T13:49:07.874Z</time></trkpt><trkpt lat="43.0865251" lon="11.5423468"><ele>246.0</ele><time>2026-03-29T13:49:08.874Z</time></trkpt><trkpt lat="43.0864253" lon="11.5424791"><ele>251.0</ele><time>2026-03-29T13:49:09.88Z</time></trkpt><trkpt lat="43.0863106" lon="11.5426459"><ele>256.0</ele><time>2026-03-29T13:49:10.866Z</time></trkpt><trkpt lat="43.0862064" lon="11.5428106"><ele>260.0</ele><time>2026-03-29T13:49:11.915Z</time></trkpt><trkpt lat="43.0861356" lon="11.5429369"><ele>264.0</ele><time>2026-03-29T13:49:13.229Z</time></trkpt><trkpt lat="43.0854673" lon="11.543361"><ele>265.6666666666667</ele><time>2026-03-29T13:49:13.932Z</time></trkpt><trkpt lat="43.0853013" lon="11.5435958"><ele>267.33333333333337</ele><time>2026-03-29T13:49:14.928Z</time></trkpt><trkpt lat="43.085161" lon="11.5437838"><ele>269.0</ele><time>2026-03-29T13:49:15.923Z</time></trkpt><trkpt lat="43.0850139" lon="11.5439849"><ele>270.6666666666667</ele><time>2026-03-29T13:49:16.929Z</time></trkpt><trkpt lat="43.0848947" lon="11.5441005"><ele>272.3333333333333</ele><time>2026-03-29T13:49:17.945Z</time></trkpt><trkpt lat="43.0847237" lon="11.5443016"><ele>274.0</ele><time>2026-03-29T13:49:18.934Z</time></trkpt><trkpt lat="43.0846203" lon="11.5444627"><ele>271.0</ele><time>2026-03-29T13:49:19.933Z</time></trkpt><trkpt lat="43.0844909" lon="11.5446268"><ele>268.0</ele><time>2026-03-29T13:49:20.922Z</time></trkpt><trkpt lat="43.0843366" lon="11.5448246"><ele>265.0</ele><time>2026-03-29T13:49:21.92Z</time></trkpt><trkpt lat="43.0843736" lon="11.5450534"><ele>265.0</ele><time>2026-03-29T13:49:23.902Z</time></trkpt><trkpt lat="43.0843064" lon="11.5452431"><ele>265.0</ele><time>2026-03-29T13:49:24.907Z</time></trkpt><trkpt lat="43.0842125" lon="11.5454119"><ele>265.0</ele><time>2026-03-29T13:49:25.903Z</time></trkpt><trkpt lat="43.0841583" lon="11.5455531"><ele>265.0</ele><time>2026-03-29T13:49:26.913Z</time></trkpt><trkpt lat="43.0840528" lon="11.5457164"><ele>266.0</ele><time>2026-03-29T13:49:27.937Z</time></trkpt><trkpt lat="43.0839248" lon="11.545856"><ele>267.0</ele><time>2026-03-29T13:49:28.931Z</time></trkpt><trkpt lat="43.0838115" lon="11.5459945"><ele>268.0</ele><time>2026-03-29T13:49:29.915Z</time></trkpt><trkpt lat="43.0836839" lon="11.5461336"><ele>266.0</ele><time>2026-03-29T13:49:30.943Z</time></trkpt><trkpt lat="43.083556" lon="11.5462661"><ele>264.0</ele><time>2026-03-29T13:49:31.944Z</time></trkpt><trkpt lat="43.083417" lon="11.546395"><ele>262.0</ele><time>2026-03-29T13:49:32.942Z</time></trkpt><trkpt lat="43.0832658" lon="11.5465225"><ele>263.3333333333333</ele><time>2026-03-29T13:49:33.94Z</time></trkpt><trkpt lat="43.0831263" lon="11.5466385"><ele>264.6666666666667</ele><time>2026-03-29T13:49:34.894Z</time></trkpt><trkpt lat="43.082963" lon="11.5467569"><ele>266.0</ele><time>2026-03-29T13:49:35.907Z</time></trkpt><trkpt lat="43.0827946" lon="11.5468624"><ele>266.0</ele><time>2026-03-29T13:49:36.881Z</time></trkpt><trkpt lat="43.0826095" lon="11.5469658"><ele>266.0</ele><time>2026-03-29T13:49:37.874Z</time></trkpt><trkpt lat="43.0824072" lon="11.5470617"><ele>266.0</ele><time>2026-03-29T13:49:38.883Z</time></trkpt><trkpt lat="43.0822047" lon="11.5471395"><ele>261.0</ele><time>2026-03-29T13:49:39.879Z</time></trkpt><trkpt lat="43.0819903" lon="11.5472053"><ele>256.0</ele><time>2026-03-29T13:49:40.882Z</time></trkpt><trkpt lat="43.0817639" lon="11.5472564"><ele>251.0</ele><time>2026-03-29T13:49:41.884Z</time></trkpt><trkpt lat="43.0815409" lon="11.5472927"><ele>250.33333333333334</ele><time>2026-03-29T13:49:42.885Z</time></trkpt><trkpt lat="43.0813146" lon="11.5473149"><ele>249.66666666666669</ele><time>2026-03-29T13:49:43.897Z</time></trkpt><trkpt lat="43.0810964" lon="11.5473195"><ele>249.0</ele><time>2026-03-29T13:49:44.884Z</time></trkpt><trkpt lat="43.0808687" lon="11.5473056"><ele>246.5</ele><time>2026-03-29T13:49:45.881Z</time></trkpt><trkpt lat="43.0806472" lon="11.5472745"><ele>244.0</ele><time>2026-03-29T13:49:46.876Z</time></trkpt><trkpt lat="43.0804202" lon="11.5472321"><ele>244.0</ele><time>2026-03-29T13:49:47.871Z</time></trkpt><trkpt lat="43.0801949" lon="11.5471685"><ele>244.0</ele><time>2026-03-29T13:49:48.892Z</time></trkpt><trkpt lat="43.0799694" lon="11.5470715"><ele>244.0</ele><time>2026-03-29T13:49:49.887Z</time></trkpt><trkpt lat="43.0797443" lon="11.5469699"><ele>244.0</ele><time>2026-03-29T13:49:50.888Z</time></trkpt><trkpt lat="43.0795298" lon="11.5468597"><ele>244.0</ele><time>2026-03-29T13:49:51.882Z</time></trkpt><trkpt lat="43.0793032" lon="11.5467632"><ele>244.0</ele><time>2026-03-29T13:49:52.89Z</time></trkpt><trkpt lat="43.0790836" lon="11.5466853"><ele>243.66666666666666</ele><time>2026-03-29T13:49:53.885Z</time></trkpt><trkpt lat="43.0788752" lon="11.546622"><ele>243.33333333333331</ele><time>2026-03-29T13:49:54.885Z</time></trkpt><trkpt lat="43.0786709" lon="11.5465793"><ele>243.0</ele><time>2026-03-29T13:49:55.888Z</time></trkpt><trkpt lat="43.0784805" lon="11.5465353"><ele>243.0</ele><time>2026-03-29T13:49:56.879Z</time></trkpt><trkpt lat="43.0783027" lon="11.546508"><ele>243.0</ele><time>2026-03-29T13:49:57.887Z</time></trkpt><trkpt lat="43.0781509" lon="11.5465037"><ele>243.0</ele><time>2026-03-29T13:49:58.881Z</time></trkpt><trkpt lat="43.077999" lon="11.5464986"><ele>243.0</ele><time>2026-03-29T13:49:59.883Z</time></trkpt><trkpt lat="43.07785" lon="11.5464925"><ele>243.0</ele><time>2026-03-29T13:50:00.895Z</time></trkpt><trkpt lat="43.0777172" lon="11.5464883"><ele>243.0</ele><time>2026-03-29T13:50:01.878Z</time></trkpt><trkpt lat="43.0775798" lon="11.5464884"><ele>243.0</ele><time>2026-03-29T13:50:02.886Z</time></trkpt><trkpt lat="43.0774534" lon="11.5465016"><ele>243.5</ele><time>2026-03-29T13:50:03.879Z</time></trkpt><trkpt lat="43.0773433" lon="11.5465225"><ele>244.0</ele><time>2026-03-29T13:50:04.887Z</time></trkpt><trkpt lat="43.0772513" lon="11.5465471"><ele>244.5</ele><time>2026-03-29T13:50:05.905Z</time></trkpt><trkpt lat="43.0771863" lon="11.5465656"><ele>245.0</ele><time>2026-03-29T13:50:06.881Z</time></trkpt><trkpt lat="43.0771059" lon="11.5465809"><ele>245.5</ele><time>2026-03-29T13:50:08.884Z</time></trkpt><trkpt lat="43.0770224" lon="11.5465292"><ele>246.0</ele><time>2026-03-29T13:50:11.875Z</time></trkpt><trkpt lat="43.0769803" lon="11.5464259"><ele>246.00000000000003</ele><time>2026-03-29T13:50:13.874Z</time></trkpt><trkpt lat="43.0769058" lon="11.5463956"><ele>246.0</ele><time>2026-03-29T13:50:16.88Z</time></trkpt><trkpt lat="43.0768576" lon="11.5464514"><ele>246.00000000000003</ele><time>2026-03-29T13:50:44.877Z</time></trkpt><trkpt lat="43.0767947" lon="11.5465051"><ele>246.00000000000003</ele><time>2026-03-29T13:50:48.941Z</time></trkpt><trkpt lat="43.0767334" lon="11.5465275"><ele>246.0</ele><time>2026-03-29T13:50:50.877Z</time></trkpt><trkpt lat="43.0766949" lon="11.5464434"><ele>246.00000000000003</ele><time>2026-03-29T13:50:56.892Z</time></trkpt><trkpt lat="43.0766353" lon="11.5465006"><ele>246.00000000000003</ele><time>2026-03-29T13:55:16.899Z</time></trkpt><trkpt lat="43.0766236" lon="11.5465976"><ele>246.8</ele><time>2026-03-29T13:55:20.901Z</time></trkpt><trkpt lat="43.0765911" lon="11.5466901"><ele>247.60000000000002</ele><time>2026-03-29T13:55:25.905Z</time></trkpt><trkpt lat="43.0765041" lon="11.5467272"><ele>248.4</ele><time>2026-03-29T13:55:29.902Z</time></trkpt><trkpt lat="43.0764027" lon="11.5467514"><ele>249.2</ele><time>2026-03-29T13:55:32.009Z</time></trkpt><trkpt lat="43.076292" lon="11.5467781"><ele>250.0</ele><time>2026-03-29T13:55:33.929Z</time></trkpt><trkpt lat="43.0762133" lon="11.5468039"><ele>250.0</ele><time>2026-03-29T13:55:34.926Z</time></trkpt><trkpt lat="43.0761347" lon="11.5468322"><ele>250.0</ele><time>2026-03-29T13:55:35.936Z</time></trkpt><trkpt lat="43.0760401" lon="11.5468591"><ele>250.0</ele><time>2026-03-29T13:55:36.932Z</time></trkpt><trkpt lat="43.0759415" lon="11.5468828"><ele>250.0</ele><time>2026-03-29T13:55:37.925Z</time></trkpt><trkpt lat="43.0758218" lon="11.546916"><ele>250.0</ele><time>2026-03-29T13:55:38.944Z</time></trkpt><trkpt lat="43.0756899" lon="11.5469454"><ele>249.0</ele><time>2026-03-29T13:55:39.937Z</time></trkpt><trkpt lat="43.0755415" lon="11.5469901"><ele>248.0</ele><time>2026-03-29T13:55:40.926Z</time></trkpt><trkpt lat="43.0753936" lon="11.5470295"><ele>247.0</ele><time>2026-03-29T13:55:41.881Z</time></trkpt><trkpt lat="43.0752383" lon="11.547064"><ele>247.0</ele><time>2026-03-29T13:55:42.92Z</time></trkpt><trkpt lat="43.0751073" lon="11.5470999"><ele>247.0</ele><time>2026-03-29T13:55:43.915Z</time></trkpt><trkpt lat="43.0749668" lon="11.5471457"><ele>247.0</ele><time>2026-03-29T13:55:44.918Z</time></trkpt><trkpt lat="43.0747918" lon="11.5472043"><ele>248.0</ele><time>2026-03-29T13:55:46.069Z</time></trkpt><trkpt lat="43.0744672" lon="11.5472839"><ele>249.0</ele><time>2026-03-29T13:55:47.925Z</time></trkpt><trkpt lat="43.0742806" lon="11.5473239"><ele>248.66666666666669</ele><time>2026-03-29T13:55:48.924Z</time></trkpt><trkpt lat="43.0740932" lon="11.5473747"><ele>248.33333333333334</ele><time>2026-03-29T13:55:49.93Z</time></trkpt><trkpt lat="43.0739115" lon="11.547433"><ele>248.0</ele><time>2026-03-29T13:55:50.919Z</time></trkpt><trkpt lat="43.0737217" lon="11.5474844"><ele>248.0</ele><time>2026-03-29T13:55:51.923Z</time></trkpt><trkpt lat="43.0735289" lon="11.5475151"><ele>248.0</ele><time>2026-03-29T13:55:52.902Z</time></trkpt><trkpt lat="43.0733245" lon="11.5475368"><ele>248.0</ele><time>2026-03-29T13:55:53.902Z</time></trkpt><trkpt lat="43.0731116" lon="11.5475337"><ele>246.66666666666669</ele><time>2026-03-29T13:55:54.931Z</time></trkpt><trkpt lat="43.0729027" lon="11.5475222"><ele>245.33333333333331</ele><time>2026-03-29T13:55:55.938Z</time></trkpt><trkpt lat="43.0726925" lon="11.5475094"><ele>244.0</ele><time>2026-03-29T13:55:56.938Z</time></trkpt><trkpt lat="43.0724833" lon="11.547464"><ele>243.0</ele><time>2026-03-29T13:55:57.948Z</time></trkpt><trkpt lat="43.0722715" lon="11.5474081"><ele>242.0</ele><time>2026-03-29T13:55:58.925Z</time></trkpt><trkpt lat="43.0720508" lon="11.5473441"><ele>241.0</ele><time>2026-03-29T13:55:59.918Z</time></trkpt><trkpt lat="43.0718122" lon="11.5472634"><ele>241.5</ele><time>2026-03-29T13:56:00.939Z</time></trkpt><trkpt lat="43.0715928" lon="11.5471836"><ele>242.0</ele><time>2026-03-29T13:56:01.916Z</time></trkpt><trkpt lat="43.0713735" lon="11.5471059"><ele>242.0</ele><time>2026-03-29T13:56:02.919Z</time></trkpt><trkpt lat="43.0711489" lon="11.5470271"><ele>242.0</ele><time>2026-03-29T13:56:03.91Z</time></trkpt><trkpt lat="43.0709208" lon="11.5469513"><ele>242.33333333333334</ele><time>2026-03-29T13:56:04.947Z</time></trkpt><trkpt lat="43.070708" lon="11.5468927"><ele>242.66666666666669</ele><time>2026-03-29T13:56:05.933Z</time></trkpt><trkpt lat="43.0705025" lon="11.5468427"><ele>243.0</ele><time>2026-03-29T13:56:06.886Z</time></trkpt><trkpt lat="43.0702739" lon="11.5467941"><ele>243.0</ele><time>2026-03-29T13:56:07.923Z</time></trkpt><trkpt lat="43.0700474" lon="11.5467677"><ele>243.0</ele><time>2026-03-29T13:56:08.938Z</time></trkpt><trkpt lat="43.0698157" lon="11.5467494"><ele>245.0</ele><time>2026-03-29T13:56:09.929Z</time></trkpt><trkpt lat="43.0695784" lon="11.5467538"><ele>247.0</ele><time>2026-03-29T13:56:10.944Z</time></trkpt><trkpt lat="43.0693564" lon="11.5467772"><ele>247.0</ele><time>2026-03-29T13:56:11.882Z</time></trkpt><trkpt lat="43.0691187" lon="11.5468285"><ele>247.0</ele><time>2026-03-29T13:56:12.89Z</time></trkpt><trkpt lat="43.0688745" lon="11.5468941"><ele>246.5</ele><time>2026-03-29T13:56:13.898Z</time></trkpt><trkpt lat="43.0686337" lon="11.5469787"><ele>246.0</ele><time>2026-03-29T13:56:14.888Z</time></trkpt><trkpt lat="43.0683833" lon="11.5470799"><ele>242.5</ele><time>2026-03-29T13:56:15.92Z</time></trkpt><trkpt lat="43.0681534" lon="11.5471938"><ele>239.0</ele><time>2026-03-29T13:56:16.89Z</time></trkpt><trkpt lat="43.0679286" lon="11.5473258"><ele>239.0</ele><time>2026-03-29T13:56:17.895Z</time></trkpt><trkpt lat="43.0677108" lon="11.5474839"><ele>239.0</ele><time>2026-03-29T13:56:18.884Z</time></trkpt><trkpt lat="43.0675037" lon="11.5476525"><ele>239.5</ele><time>2026-03-29T13:56:19.886Z</time></trkpt><trkpt lat="43.0673021" lon="11.547828"><ele>240.0</ele><time>2026-03-29T13:56:20.892Z</time></trkpt><trkpt lat="43.0671113" lon="11.5480206"><ele>240.5</ele><time>2026-03-29T13:56:21.882Z</time></trkpt><trkpt lat="43.0669253" lon="11.5482312"><ele>241.0</ele><time>2026-03-29T13:56:22.898Z</time></trkpt><trkpt lat="43.066754" lon="11.5484462"><ele>239.5</ele><time>2026-03-29T13:56:23.889Z</time></trkpt><trkpt lat="43.0665833" lon="11.5486896"><ele>238.0</ele><time>2026-03-29T13:56:24.901Z</time></trkpt><trkpt lat="43.0664285" lon="11.5489504"><ele>238.0</ele><time>2026-03-29T13:56:25.887Z</time></trkpt><trkpt lat="43.0662764" lon="11.5492244"><ele>238.0</ele><time>2026-03-29T13:56:26.884Z</time></trkpt><trkpt lat="43.0661359" lon="11.5495143"><ele>237.5</ele><time>2026-03-29T13:56:27.895Z</time></trkpt><trkpt lat="43.0660039" lon="11.5498134"><ele>237.0</ele><time>2026-03-29T13:56:28.884Z</time></trkpt><trkpt lat="43.0658847" lon="11.5501348"><ele>234.5</ele><time>2026-03-29T13:56:29.908Z</time></trkpt><trkpt lat="43.0657745" lon="11.5504528"><ele>232.0</ele><time>2026-03-29T13:56:30.89Z</time></trkpt><trkpt lat="43.0656654" lon="11.5507813"><ele>232.0</ele><time>2026-03-29T13:56:31.889Z</time></trkpt><trkpt lat="43.065558" lon="11.5511149"><ele>232.0</ele><time>2026-03-29T13:56:32.886Z</time></trkpt><trkpt lat="43.0654543" lon="11.5514577"><ele>232.5</ele><time>2026-03-29T13:56:33.884Z</time></trkpt><trkpt lat="43.0653482" lon="11.5518102"><ele>233.0</ele><time>2026-03-29T13:56:34.908Z</time></trkpt><trkpt lat="43.0652472" lon="11.5521436"><ele>234.0</ele><time>2026-03-29T13:56:35.881Z</time></trkpt><trkpt lat="43.0651394" lon="11.5524905"><ele>235.0</ele><time>2026-03-29T13:56:36.885Z</time></trkpt><trkpt lat="43.065033" lon="11.5528296"><ele>235.0</ele><time>2026-03-29T13:56:37.877Z</time></trkpt><trkpt lat="43.0649245" lon="11.5531664"><ele>235.0</ele><time>2026-03-29T13:56:38.875Z</time></trkpt><trkpt lat="43.0648199" lon="11.553511"><ele>238.0</ele><time>2026-03-29T13:56:39.898Z</time></trkpt><trkpt lat="43.0647173" lon="11.5538406"><ele>241.0</ele><time>2026-03-29T13:56:40.894Z</time></trkpt><trkpt lat="43.0646136" lon="11.5541703"><ele>241.0</ele><time>2026-03-29T13:56:41.893Z</time></trkpt><trkpt lat="43.0645149" lon="11.554499"><ele>241.0</ele><time>2026-03-29T13:56:42.888Z</time></trkpt><trkpt lat="43.0644181" lon="11.5548377"><ele>245.5</ele><time>2026-03-29T13:56:43.89Z</time></trkpt><trkpt lat="43.0643359" lon="11.5551795"><ele>250.0</ele><time>2026-03-29T13:56:44.897Z</time></trkpt><trkpt lat="43.0642692" lon="11.5555184"><ele>250.0</ele><time>2026-03-29T13:56:45.888Z</time></trkpt><trkpt lat="43.0642126" lon="11.5558704"><ele>250.0</ele><time>2026-03-29T13:56:46.907Z</time></trkpt><trkpt lat="43.0641676" lon="11.5562248"><ele>248.5</ele><time>2026-03-29T13:56:47.904Z</time></trkpt><trkpt lat="43.0641355" lon="11.5565761"><ele>247.0</ele><time>2026-03-29T13:56:48.88Z</time></trkpt><trkpt lat="43.0641049" lon="11.5569388"><ele>244.5</ele><time>2026-03-29T13:56:49.888Z</time></trkpt><trkpt lat="43.0640815" lon="11.5573014"><ele>242.0</ele><time>2026-03-29T13:56:50.885Z</time></trkpt><trkpt lat="43.0640626" lon="11.5576705"><ele>245.0</ele><time>2026-03-29T13:56:51.904Z</time></trkpt><trkpt lat="43.0640407" lon="11.5580198"><ele>248.0</ele><time>2026-03-29T13:56:52.884Z</time></trkpt><trkpt lat="43.0640165" lon="11.5583813"><ele>250.0</ele><time>2026-03-29T13:56:53.897Z</time></trkpt><trkpt lat="43.0639929" lon="11.5587288"><ele>252.0</ele><time>2026-03-29T13:56:54.897Z</time></trkpt><trkpt lat="43.0639748" lon="11.5590653"><ele>252.0</ele><time>2026-03-29T13:56:55.89Z</time></trkpt><trkpt lat="43.0639542" lon="11.559409"><ele>252.0</ele><time>2026-03-29T13:56:56.893Z</time></trkpt><trkpt lat="43.063933" lon="11.55975"><ele>255.5</ele><time>2026-03-29T13:56:57.883Z</time></trkpt><trkpt lat="43.0639115" lon="11.5600948"><ele>259.0</ele><time>2026-03-29T13:56:58.903Z</time></trkpt><trkpt lat="43.0638895" lon="11.5604207"><ele>260.5</ele><time>2026-03-29T13:56:59.887Z</time></trkpt><trkpt lat="43.0638655" lon="11.5607449"><ele>262.0</ele><time>2026-03-29T13:57:00.89Z</time></trkpt><trkpt lat="43.0638434" lon="11.5610587"><ele>257.5</ele><time>2026-03-29T13:57:01.886Z</time></trkpt><trkpt lat="43.0638196" lon="11.5613802"><ele>253.0</ele><time>2026-03-29T13:57:02.904Z</time></trkpt><trkpt lat="43.0638026" lon="11.5616897"><ele>253.0</ele><time>2026-03-29T13:57:03.887Z</time></trkpt><trkpt lat="43.0637868" lon="11.5620091"><ele>253.0</ele><time>2026-03-29T13:57:04.897Z</time></trkpt><trkpt lat="43.0637778" lon="11.5623232"><ele>249.5</ele><time>2026-03-29T13:57:05.893Z</time></trkpt><trkpt lat="43.063776" lon="11.5626384"><ele>246.0</ele><time>2026-03-29T13:57:06.893Z</time></trkpt><trkpt lat="43.063779" lon="11.562968"><ele>244.5</ele><time>2026-03-29T13:57:07.917Z</time></trkpt><trkpt lat="43.0637905" lon="11.5632801"><ele>243.0</ele><time>2026-03-29T13:57:08.881Z</time></trkpt><trkpt lat="43.0638114" lon="11.5636115"><ele>243.5</ele><time>2026-03-29T13:57:09.902Z</time></trkpt><trkpt lat="43.0638496" lon="11.5639387"><ele>244.0</ele><time>2026-03-29T13:57:10.892Z</time></trkpt><trkpt lat="43.0639026" lon="11.5642623"><ele>244.5</ele><time>2026-03-29T13:57:11.895Z</time></trkpt><trkpt lat="43.0639695" lon="11.5645817"><ele>245.0</ele><time>2026-03-29T13:57:12.901Z</time></trkpt><trkpt lat="43.0640477" lon="11.5648958"><ele>248.0</ele><time>2026-03-29T13:57:13.897Z</time></trkpt><trkpt lat="43.0641392" lon="11.5652115"><ele>251.0</ele><time>2026-03-29T13:57:14.924Z</time></trkpt><trkpt lat="43.0642474" lon="11.5655078"><ele>251.0</ele><time>2026-03-29T13:57:15.908Z</time></trkpt><trkpt lat="43.0643809" lon="11.5658053"><ele>251.0</ele><time>2026-03-29T13:57:16.917Z</time></trkpt><trkpt lat="43.0645232" lon="11.5660931"><ele>249.0</ele><time>2026-03-29T13:57:17.917Z</time></trkpt><trkpt lat="43.0646729" lon="11.5663726"><ele>247.0</ele><time>2026-03-29T13:57:18.912Z</time></trkpt><trkpt lat="43.0648251" lon="11.5666377"><ele>246.0</ele><time>2026-03-29T13:57:19.878Z</time></trkpt><trkpt lat="43.0649964" lon="11.5669087"><ele>245.0</ele><time>2026-03-29T13:57:20.912Z</time></trkpt><trkpt lat="43.0651677" lon="11.5671661"><ele>245.0</ele><time>2026-03-29T13:57:21.912Z</time></trkpt><trkpt lat="43.0653371" lon="11.5674275"><ele>245.0</ele><time>2026-03-29T13:57:22.916Z</time></trkpt><trkpt lat="43.065516" lon="11.5676853"><ele>244.5</ele><time>2026-03-29T13:57:23.922Z</time></trkpt><trkpt lat="43.0656971" lon="11.5679424"><ele>244.0</ele><time>2026-03-29T13:57:24.94Z</time></trkpt><trkpt lat="43.0658778" lon="11.5681992"><ele>244.0</ele><time>2026-03-29T13:57:25.95Z</time></trkpt><trkpt lat="43.0660509" lon="11.5684541"><ele>244.0</ele><time>2026-03-29T13:57:26.932Z</time></trkpt><trkpt lat="43.0662222" lon="11.5687131"><ele>243.5</ele><time>2026-03-29T13:57:27.935Z</time></trkpt><trkpt lat="43.0663917" lon="11.5689634"><ele>243.0</ele><time>2026-03-29T13:57:28.933Z</time></trkpt><trkpt lat="43.0665637" lon="11.5692156"><ele>245.5</ele><time>2026-03-29T13:57:29.946Z</time></trkpt><trkpt lat="43.0667242" lon="11.569451"><ele>248.0</ele><time>2026-03-29T13:57:30.894Z</time></trkpt><trkpt lat="43.0669018" lon="11.5697008"><ele>248.0</ele><time>2026-03-29T13:57:31.92Z</time></trkpt><trkpt lat="43.0670666" lon="11.5699329"><ele>248.0</ele><time>2026-03-29T13:57:32.889Z</time></trkpt><trkpt lat="43.0672436" lon="11.5701831"><ele>248.5</ele><time>2026-03-29T13:57:33.926Z</time></trkpt><trkpt lat="43.0674007" lon="11.5704148"><ele>249.0</ele><time>2026-03-29T13:57:34.886Z</time></trkpt><trkpt lat="43.0675705" lon="11.5706579"><ele>249.0</ele><time>2026-03-29T13:57:35.886Z</time></trkpt><trkpt lat="43.0677424" lon="11.5709038"><ele>249.0</ele><time>2026-03-29T13:57:36.9Z</time></trkpt><trkpt lat="43.0679112" lon="11.571149"><ele>246.0</ele><time>2026-03-29T13:57:37.902Z</time></trkpt><trkpt lat="43.0680776" lon="11.5713927"><ele>243.0</ele><time>2026-03-29T13:57:38.892Z</time></trkpt><trkpt lat="43.068239" lon="11.5716317"><ele>244.0</ele><time>2026-03-29T13:57:39.89Z</time></trkpt><trkpt lat="43.0684029" lon="11.5718734"><ele>245.0</ele><time>2026-03-29T13:57:40.88Z</time></trkpt><trkpt lat="43.0685627" lon="11.5721238"><ele>245.0</ele><time>2026-03-29T13:57:41.905Z</time></trkpt><trkpt lat="43.0687154" lon="11.5723682"><ele>245.0</ele><time>2026-03-29T13:57:42.896Z</time></trkpt><trkpt lat="43.068871" lon="11.5726155"><ele>245.5</ele><time>2026-03-29T13:57:43.902Z</time></trkpt><trkpt lat="43.0690198" lon="11.5728665"><ele>246.0</ele><time>2026-03-29T13:57:44.888Z</time></trkpt><trkpt lat="43.0691622" lon="11.5731279"><ele>246.0</ele><time>2026-03-29T13:57:45.881Z</time></trkpt><trkpt lat="43.0693013" lon="11.5734075"><ele>246.0</ele><time>2026-03-29T13:57:46.913Z</time></trkpt><trkpt lat="43.0694281" lon="11.5736828"><ele>245.0</ele><time>2026-03-29T13:57:47.894Z</time></trkpt><trkpt lat="43.0695571" lon="11.5739612"><ele>244.0</ele><time>2026-03-29T13:57:48.886Z</time></trkpt><trkpt lat="43.0696793" lon="11.574249"><ele>244.5</ele><time>2026-03-29T13:57:49.881Z</time></trkpt><trkpt lat="43.0697931" lon="11.5745489"><ele>245.0</ele><time>2026-03-29T13:57:50.914Z</time></trkpt><trkpt lat="43.0698881" lon="11.5748344"><ele>245.0</ele><time>2026-03-29T13:57:51.892Z</time></trkpt><trkpt lat="43.069978" lon="11.5751245"><ele>245.0</ele><time>2026-03-29T13:57:52.897Z</time></trkpt><trkpt lat="43.0700555" lon="11.5754146"><ele>246.5</ele><time>2026-03-29T13:57:53.888Z</time></trkpt><trkpt lat="43.0701194" lon="11.5757102"><ele>248.0</ele><time>2026-03-29T13:57:54.882Z</time></trkpt><trkpt lat="43.0701737" lon="11.5760146"><ele>248.66666666666669</ele><time>2026-03-29T13:57:55.901Z</time></trkpt><trkpt lat="43.0702093" lon="11.5763119"><ele>249.33333333333331</ele><time>2026-03-29T13:57:56.891Z</time></trkpt><trkpt lat="43.0702385" lon="11.576609"><ele>250.0</ele><time>2026-03-29T13:57:57.904Z</time></trkpt><trkpt lat="43.0702557" lon="11.5768906"><ele>252.33333333333331</ele><time>2026-03-29T13:57:58.881Z</time></trkpt><trkpt lat="43.0702635" lon="11.5771829"><ele>254.66666666666669</ele><time>2026-03-29T13:57:59.905Z</time></trkpt><trkpt lat="43.0702651" lon="11.5774694"><ele>257.0</ele><time>2026-03-29T13:58:00.903Z</time></trkpt><trkpt lat="43.0702558" lon="11.5777509"><ele>259.6666666666667</ele><time>2026-03-29T13:58:01.885Z</time></trkpt><trkpt lat="43.0702481" lon="11.5780191"><ele>262.3333333333333</ele><time>2026-03-29T13:58:02.885Z</time></trkpt><trkpt lat="43.0702287" lon="11.5782862"><ele>265.0</ele><time>2026-03-29T13:58:03.883Z</time></trkpt><trkpt lat="43.0701634" lon="11.578574"><ele>268.0</ele><time>2026-03-29T13:58:04.89Z</time></trkpt><trkpt lat="43.0700537" lon="11.5788733"><ele>271.0</ele><time>2026-03-29T13:58:06.92Z</time></trkpt><trkpt lat="43.0699412" lon="11.5790977"><ele>274.0</ele><time>2026-03-29T13:58:07.884Z</time></trkpt><trkpt lat="43.0698362" lon="11.5793789"><ele>279.5</ele><time>2026-03-29T13:58:08.884Z</time></trkpt><trkpt lat="43.0696998" lon="11.5796962"><ele>285.0</ele><time>2026-03-29T13:58:09.913Z</time></trkpt><trkpt lat="43.0695747" lon="11.5799963"><ele>285.0</ele><time>2026-03-29T13:58:10.89Z</time></trkpt><trkpt lat="43.0695481" lon="11.5801211"><ele>285.0</ele><time>2026-03-29T13:58:11.91Z</time></trkpt><trkpt lat="43.0694267" lon="11.5803553"><ele>285.0</ele><time>2026-03-29T13:58:12.883Z</time></trkpt><trkpt lat="43.0693021" lon="11.5805838"><ele>286.5</ele><time>2026-03-29T13:58:13.889Z</time></trkpt><trkpt lat="43.0691577" lon="11.5808385"><ele>288.0</ele><time>2026-03-29T13:58:14.905Z</time></trkpt><trkpt lat="43.0690305" lon="11.5810941"><ele>288.0</ele><time>2026-03-29T13:58:15.896Z</time></trkpt><trkpt lat="43.069051" lon="11.5811868"><ele>288.0</ele><time>2026-03-29T13:58:16.908Z</time></trkpt><trkpt lat="43.0689569" lon="11.5813431"><ele>288.0</ele><time>2026-03-29T13:58:17.897Z</time></trkpt><trkpt lat="43.0688975" lon="11.5814918"><ele>288.0</ele><time>2026-03-29T13:58:18.895Z</time></trkpt><trkpt lat="43.0692286" lon="11.5809341"><ele>288.0</ele><time>2026-03-29T13:58:19.907Z</time></trkpt><trkpt lat="43.069331" lon="11.5807366"><ele>288.0</ele><time>2026-03-29T13:58:20.889Z</time></trkpt><trkpt lat="43.0694663" lon="11.5804663"><ele>288.0</ele><time>2026-03-29T13:58:21.897Z</time></trkpt><trkpt lat="43.0681477" lon="11.5825194"><ele>291.0</ele><time>2026-03-29T13:58:22.879Z</time></trkpt><trkpt lat="43.0679806" lon="11.5826708"><ele>294.0</ele><time>2026-03-29T13:58:23.902Z</time></trkpt><trkpt lat="43.06781" lon="11.5828249"><ele>297.0</ele><time>2026-03-29T13:58:24.89Z</time></trkpt><trkpt lat="43.0676288" lon="11.5829865"><ele>303.0</ele><time>2026-03-29T13:58:25.894Z</time></trkpt><trkpt lat="43.0674232" lon="11.5831467"><ele>309.0</ele><time>2026-03-29T13:58:26.899Z</time></trkpt><trkpt lat="43.0672015" lon="11.5832969"><ele>309.0</ele><time>2026-03-29T13:58:27.892Z</time></trkpt><trkpt lat="43.0669681" lon="11.5834375"><ele>309.0</ele><time>2026-03-29T13:58:28.891Z</time></trkpt><trkpt lat="43.0667226" lon="11.5835722"><ele>308.0</ele><time>2026-03-29T13:58:29.896Z</time></trkpt><trkpt lat="43.0664828" lon="11.5836952"><ele>307.0</ele><time>2026-03-29T13:58:30.898Z</time></trkpt><trkpt lat="43.0662578" lon="11.5838113"><ele>307.0</ele><time>2026-03-29T13:58:31.903Z</time></trkpt><trkpt lat="43.0660337" lon="11.5839452"><ele>307.0</ele><time>2026-03-29T13:58:32.922Z</time></trkpt><trkpt lat="43.0658239" lon="11.5840697"><ele>311.5</ele><time>2026-03-29T13:58:33.891Z</time></trkpt><trkpt lat="43.0656031" lon="11.5842011"><ele>316.0</ele><time>2026-03-29T13:58:34.889Z</time></trkpt><trkpt lat="43.0653681" lon="11.5843327"><ele>316.0</ele><time>2026-03-29T13:58:35.891Z</time></trkpt><trkpt lat="43.0651303" lon="11.5844568"><ele>316.0</ele><time>2026-03-29T13:58:36.883Z</time></trkpt><trkpt lat="43.0648832" lon="11.5845932"><ele>318.0</ele><time>2026-03-29T13:58:37.898Z</time></trkpt><trkpt lat="43.0646492" lon="11.5847291"><ele>320.0</ele><time>2026-03-29T13:58:38.884Z</time></trkpt><trkpt lat="43.0644139" lon="11.5848691"><ele>320.0</ele><time>2026-03-29T13:58:39.913Z</time></trkpt><trkpt lat="43.0642023" lon="11.5850168"><ele>320.0</ele><time>2026-03-29T13:58:40.887Z</time></trkpt><trkpt lat="43.0639831" lon="11.58518"><ele>320.0</ele><time>2026-03-29T13:58:41.887Z</time></trkpt><trkpt lat="43.0637715" lon="11.5853546"><ele>320.0</ele><time>2026-03-29T13:58:42.891Z</time></trkpt><trkpt lat="43.0635732" lon="11.5855472"><ele>320.0</ele><time>2026-03-29T13:58:43.899Z</time></trkpt><trkpt lat="43.0633797" lon="11.5857543"><ele>320.0</ele><time>2026-03-29T13:58:44.885Z</time></trkpt><trkpt lat="43.0631893" lon="11.5859901"><ele>323.5</ele><time>2026-03-29T13:58:45.894Z</time></trkpt><trkpt lat="43.0630122" lon="11.5862449"><ele>327.0</ele><time>2026-03-29T13:58:46.901Z</time></trkpt><trkpt lat="43.0628493" lon="11.5865278"><ele>327.0</ele><time>2026-03-29T13:58:47.913Z</time></trkpt><trkpt lat="43.0626939" lon="11.586824"><ele>327.0</ele><time>2026-03-29T13:58:48.897Z</time></trkpt><trkpt lat="43.0625446" lon="11.5871261"><ele>332.5</ele><time>2026-03-29T13:58:49.889Z</time></trkpt><trkpt lat="43.0624151" lon="11.5874426"><ele>338.0</ele><time>2026-03-29T13:58:50.89Z</time></trkpt><trkpt lat="43.0622908" lon="11.5877589"><ele>339.0</ele><time>2026-03-29T13:58:51.885Z</time></trkpt><trkpt lat="43.0621762" lon="11.5880794"><ele>340.0</ele><time>2026-03-29T13:58:52.89Z</time></trkpt><trkpt lat="43.0620666" lon="11.5883989"><ele>341.0</ele><time>2026-03-29T13:58:53.897Z</time></trkpt><trkpt lat="43.061959" lon="11.5887084"><ele>342.0</ele><time>2026-03-29T13:58:54.889Z</time></trkpt><trkpt lat="43.0618521" lon="11.5890192"><ele>342.0</ele><time>2026-03-29T13:58:55.891Z</time></trkpt><trkpt lat="43.0617387" lon="11.5893314"><ele>342.0</ele><time>2026-03-29T13:58:56.895Z</time></trkpt><trkpt lat="43.0616139" lon="11.5896493"><ele>347.0</ele><time>2026-03-29T13:58:57.912Z</time></trkpt><trkpt lat="43.0614794" lon="11.5899377"><ele>352.0</ele><time>2026-03-29T13:58:58.893Z</time></trkpt><trkpt lat="43.0613384" lon="11.5902282"><ele>349.0</ele><time>2026-03-29T13:58:59.916Z</time></trkpt><trkpt lat="43.0611968" lon="11.5904986"><ele>346.0</ele><time>2026-03-29T13:59:00.894Z</time></trkpt><trkpt lat="43.0610511" lon="11.5907726"><ele>346.0</ele><time>2026-03-29T13:59:01.897Z</time></trkpt><trkpt lat="43.0609082" lon="11.5910514"><ele>346.0</ele><time>2026-03-29T13:59:02.923Z</time></trkpt><trkpt lat="43.06077" lon="11.5913116"><ele>344.5</ele><time>2026-03-29T13:59:03.886Z</time></trkpt><trkpt lat="43.0606339" lon="11.5915893"><ele>343.0</ele><time>2026-03-29T13:59:04.89Z</time></trkpt><trkpt lat="43.0605018" lon="11.5918744"><ele>344.5</ele><time>2026-03-29T13:59:05.89Z</time></trkpt><trkpt lat="43.0603799" lon="11.59216"><ele>346.0</ele><time>2026-03-29T13:59:06.876Z</time></trkpt><trkpt lat="43.0602652" lon="11.5924579"><ele>346.0</ele><time>2026-03-29T13:59:07.886Z</time></trkpt><trkpt lat="43.0601624" lon="11.592757"><ele>346.0</ele><time>2026-03-29T13:59:08.906Z</time></trkpt><trkpt lat="43.0600754" lon="11.5930541"><ele>349.5</ele><time>2026-03-29T13:59:09.892Z</time></trkpt><trkpt lat="43.0599961" lon="11.5933571"><ele>353.0</ele><time>2026-03-29T13:59:10.892Z</time></trkpt><trkpt lat="43.0599269" lon="11.5936575"><ele>361.0</ele><time>2026-03-29T13:59:11.885Z</time></trkpt><trkpt lat="43.0598694" lon="11.5939671"><ele>369.0</ele><time>2026-03-29T13:59:12.891Z</time></trkpt><trkpt lat="43.0598278" lon="11.594289"><ele>373.0</ele><time>2026-03-29T13:59:13.91Z</time></trkpt><trkpt lat="43.0597949" lon="11.5946093"><ele>377.0</ele><time>2026-03-29T13:59:14.889Z</time></trkpt><trkpt lat="43.0597723" lon="11.594935"><ele>377.0</ele><time>2026-03-29T13:59:15.886Z</time></trkpt><trkpt lat="43.0597618" lon="11.5952678"><ele>377.0</ele><time>2026-03-29T13:59:16.887Z</time></trkpt><trkpt lat="43.0597649" lon="11.5956183"><ele>378.5</ele><time>2026-03-29T13:59:17.926Z</time></trkpt><trkpt lat="43.0597663" lon="11.5959456"><ele>380.0</ele><time>2026-03-29T13:59:18.897Z</time></trkpt><trkpt lat="43.0597657" lon="11.5962876"><ele>381.5</ele><time>2026-03-29T13:59:19.903Z</time></trkpt><trkpt lat="43.0597739" lon="11.5966156"><ele>383.0</ele><time>2026-03-29T13:59:20.899Z</time></trkpt><trkpt lat="43.0597904" lon="11.5969376"><ele>382.0</ele><time>2026-03-29T13:59:21.879Z</time></trkpt><trkpt lat="43.0598157" lon="11.5972797"><ele>381.0</ele><time>2026-03-29T13:59:22.884Z</time></trkpt><trkpt lat="43.0598548" lon="11.5976238"><ele>378.0</ele><time>2026-03-29T13:59:23.903Z</time></trkpt><trkpt lat="43.0599039" lon="11.5979506"><ele>375.0</ele><time>2026-03-29T13:59:24.892Z</time></trkpt><trkpt lat="43.0599667" lon="11.5982829"><ele>371.0</ele><time>2026-03-29T13:59:25.897Z</time></trkpt><trkpt lat="43.0600426" lon="11.5986081"><ele>367.0</ele><time>2026-03-29T13:59:26.89Z</time></trkpt><trkpt lat="43.0601324" lon="11.5989274"><ele>367.0</ele><time>2026-03-29T13:59:27.91Z</time></trkpt><trkpt lat="43.0602265" lon="11.5992389"><ele>367.0</ele><time>2026-03-29T13:59:28.898Z</time></trkpt><trkpt lat="43.0603261" lon="11.5995124"><ele>370.3333333333333</ele><time>2026-03-29T13:59:29.895Z</time></trkpt><trkpt lat="43.0604221" lon="11.5997555"><ele>373.6666666666667</ele><time>2026-03-29T13:59:30.89Z</time></trkpt><trkpt lat="43.0605122" lon="11.5999688"><ele>377.0</ele><time>2026-03-29T13:59:31.886Z</time></trkpt><trkpt lat="43.0605946" lon="11.6001588"><ele>377.0</ele><time>2026-03-29T13:59:32.889Z</time></trkpt><trkpt lat="43.0606706" lon="11.6003237"><ele>377.0</ele><time>2026-03-29T13:59:33.886Z</time></trkpt><trkpt lat="43.0607405" lon="11.6004718"><ele>377.0</ele><time>2026-03-29T13:59:34.893Z</time></trkpt><trkpt lat="43.06081" lon="11.6006066"><ele>377.0</ele><time>2026-03-29T13:59:35.897Z</time></trkpt><trkpt lat="43.0608683" lon="11.6007239"><ele>378.75</ele><time>2026-03-29T13:59:36.884Z</time></trkpt><trkpt lat="43.060932" lon="11.6008527"><ele>380.5</ele><time>2026-03-29T13:59:37.89Z</time></trkpt><trkpt lat="43.0609967" lon="11.6009806"><ele>382.25</ele><time>2026-03-29T13:59:38.888Z</time></trkpt><trkpt lat="43.0610592" lon="11.6011166"><ele>384.0</ele><time>2026-03-29T13:59:39.937Z</time></trkpt><trkpt lat="43.0611127" lon="11.6012437"><ele>386.25</ele><time>2026-03-29T13:59:40.877Z</time></trkpt><trkpt lat="43.0611691" lon="11.6013793"><ele>388.5</ele><time>2026-03-29T13:59:41.892Z</time></trkpt><trkpt lat="43.0612241" lon="11.601515"><ele>390.75</ele><time>2026-03-29T13:59:42.884Z</time></trkpt><trkpt lat="43.0612721" lon="11.6016545"><ele>393.0</ele><time>2026-03-29T13:59:43.901Z</time></trkpt><trkpt lat="43.0613137" lon="11.6017948"><ele>393.0</ele><time>2026-03-29T13:59:44.906Z</time></trkpt><trkpt lat="43.0613515" lon="11.6019363"><ele>393.0</ele><time>2026-03-29T13:59:45.892Z</time></trkpt><trkpt lat="43.0613817" lon="11.6020751"><ele>393.0</ele><time>2026-03-29T13:59:46.906Z</time></trkpt><trkpt lat="43.0614132" lon="11.6022179"><ele>393.0</ele><time>2026-03-29T13:59:47.897Z</time></trkpt><trkpt lat="43.0614356" lon="11.6023587"><ele>393.0</ele><time>2026-03-29T13:59:48.896Z</time></trkpt><trkpt lat="43.0614539" lon="11.6024927"><ele>394.3333333333333</ele><time>2026-03-29T13:59:49.886Z</time></trkpt><trkpt lat="43.0614712" lon="11.6026194"><ele>395.66666666666663</ele><time>2026-03-29T13:59:50.881Z</time></trkpt><trkpt lat="43.061488" lon="11.6027515"><ele>397.0</ele><time>2026-03-29T13:59:51.899Z</time></trkpt><trkpt lat="43.061505" lon="11.6028768"><ele>398.3333333333333</ele><time>2026-03-29T13:59:52.897Z</time></trkpt><trkpt lat="43.0615151" lon="11.6029875"><ele>399.66666666666663</ele><time>2026-03-29T13:59:53.902Z</time></trkpt><trkpt lat="43.0615188" lon="11.6030873"><ele>401.0</ele><time>2026-03-29T13:59:54.885Z</time></trkpt><trkpt lat="43.0615053" lon="11.6031832"><ele>402.4</ele><time>2026-03-29T13:59:55.895Z</time></trkpt><trkpt lat="43.0614703" lon="11.6032711"><ele>403.8</ele><time>2026-03-29T13:59:56.889Z</time></trkpt><trkpt lat="43.0614096" lon="11.6033387"><ele>405.2</ele><time>2026-03-29T13:59:57.896Z</time></trkpt><trkpt lat="43.0612685" lon="11.6033401"><ele>406.59999999999997</ele><time>2026-03-29T13:59:59.882Z</time></trkpt><trkpt lat="43.0611892" lon="11.603273"><ele>408.0</ele><time>2026-03-29T14:00:00.878Z</time></trkpt><trkpt lat="43.0611579" lon="11.6031846"><ele>408.0</ele><time>2026-03-29T14:00:01.915Z</time></trkpt><trkpt lat="43.0611452" lon="11.603064"><ele>408.0</ele><time>2026-03-29T14:00:02.886Z</time></trkpt><trkpt lat="43.0611679" lon="11.6029329"><ele>408.0</ele><time>2026-03-29T14:00:03.908Z</time></trkpt><trkpt lat="43.0611969" lon="11.6027986"><ele>408.0</ele><time>2026-03-29T14:00:04.889Z</time></trkpt><trkpt lat="43.061225" lon="11.60266"><ele>408.0</ele><time>2026-03-29T14:00:05.892Z</time></trkpt><trkpt lat="43.0612372" lon="11.6025289"><ele>406.8333333333333</ele><time>2026-03-29T14:00:06.884Z</time></trkpt><trkpt lat="43.0612263" lon="11.6024109"><ele>405.66666666666663</ele><time>2026-03-29T14:00:07.883Z</time></trkpt><trkpt lat="43.0611969" lon="11.6023144"><ele>404.5</ele><time>2026-03-29T14:00:08.9Z</time></trkpt><trkpt lat="43.0611424" lon="11.6022296"><ele>403.3333333333333</ele><time>2026-03-29T14:00:09.891Z</time></trkpt><trkpt lat="43.0610767" lon="11.6021787"><ele>402.16666666666663</ele><time>2026-03-29T14:00:10.892Z</time></trkpt><trkpt lat="43.0610051" lon="11.6021398"><ele>401.0</ele><time>2026-03-29T14:00:11.894Z</time></trkpt><trkpt lat="43.0609326" lon="11.6021362"><ele>400.99999999999994</ele><time>2026-03-29T14:00:13.896Z</time></trkpt><trkpt lat="43.0608798" lon="11.6021874"><ele>401.0</ele><time>2026-03-29T14:00:15.887Z</time></trkpt><trkpt lat="43.0608624" lon="11.6023558"><ele>401.0</ele><time>2026-03-29T14:00:17.898Z</time></trkpt><trkpt lat="43.060871" lon="11.602455"><ele>401.0</ele><time>2026-03-29T14:00:18.895Z</time></trkpt><trkpt lat="43.0608927" lon="11.6025487"><ele>400.99999999999994</ele><time>2026-03-29T14:00:19.893Z</time></trkpt><trkpt lat="43.0609184" lon="11.6026752"><ele>401.0</ele><time>2026-03-29T14:00:20.887Z</time></trkpt><trkpt lat="43.0609406" lon="11.6028214"><ele>402.75</ele><time>2026-03-29T14:00:21.897Z</time></trkpt><trkpt lat="43.0609596" lon="11.6029837"><ele>404.5</ele><time>2026-03-29T14:00:22.9Z</time></trkpt><trkpt lat="43.0609872" lon="11.6031838"><ele>406.25</ele><time>2026-03-29T14:00:23.889Z</time></trkpt><trkpt lat="43.061002" lon="11.603413"><ele>408.0</ele><time>2026-03-29T14:00:24.89Z</time></trkpt><trkpt lat="43.0609948" lon="11.603653"><ele>408.33333333333337</ele><time>2026-03-29T14:00:25.896Z</time></trkpt><trkpt lat="43.0609955" lon="11.6038848"><ele>408.6666666666667</ele><time>2026-03-29T14:00:26.896Z</time></trkpt><trkpt lat="43.0609927" lon="11.6041199"><ele>409.0</ele><time>2026-03-29T14:00:27.891Z</time></trkpt><trkpt lat="43.0609934" lon="11.6043491"><ele>409.0</ele><time>2026-03-29T14:00:28.89Z</time></trkpt><trkpt lat="43.0609921" lon="11.6045612"><ele>409.0</ele><time>2026-03-29T14:00:29.887Z</time></trkpt><trkpt lat="43.0609947" lon="11.6047661"><ele>409.0</ele><time>2026-03-29T14:00:30.888Z</time></trkpt><trkpt lat="43.0609881" lon="11.6049707"><ele>409.0</ele><time>2026-03-29T14:00:31.897Z</time></trkpt><trkpt lat="43.0609678" lon="11.6051708"><ele>409.0</ele><time>2026-03-29T14:00:32.908Z</time></trkpt><trkpt lat="43.0609391" lon="11.6053569"><ele>409.0</ele><time>2026-03-29T14:00:33.902Z</time></trkpt><trkpt lat="43.0608977" lon="11.6055111"><ele>409.0</ele><time>2026-03-29T14:00:34.891Z</time></trkpt><trkpt lat="43.0608468" lon="11.6056295"><ele>408.1666666666667</ele><time>2026-03-29T14:00:35.878Z</time></trkpt><trkpt lat="43.0608031" lon="11.6057328"><ele>407.33333333333337</ele><time>2026-03-29T14:00:36.887Z</time></trkpt><trkpt lat="43.0607694" lon="11.6058183"><ele>406.5</ele><time>2026-03-29T14:00:37.906Z</time></trkpt><trkpt lat="43.0607487" lon="11.6059472"><ele>405.66666666666663</ele><time>2026-03-29T14:00:39.883Z</time></trkpt><trkpt lat="43.0607655" lon="11.606042"><ele>404.8333333333333</ele><time>2026-03-29T14:00:40.912Z</time></trkpt><trkpt lat="43.0608022" lon="11.6061484"><ele>404.0</ele><time>2026-03-29T14:00:41.894Z</time></trkpt><trkpt lat="43.0608503" lon="11.6062851"><ele>403.25</ele><time>2026-03-29T14:00:42.913Z</time></trkpt><trkpt lat="43.0608991" lon="11.606427"><ele>402.5</ele><time>2026-03-29T14:00:43.886Z</time></trkpt><trkpt lat="43.0609402" lon="11.6065969"><ele>401.75</ele><time>2026-03-29T14:00:44.884Z</time></trkpt><trkpt lat="43.0609987" lon="11.6067911"><ele>401.0</ele><time>2026-03-29T14:00:45.898Z</time></trkpt><trkpt lat="43.061071" lon="11.6070062"><ele>400.0</ele><time>2026-03-29T14:00:46.888Z</time></trkpt><trkpt lat="43.0611561" lon="11.6072288"><ele>399.0</ele><time>2026-03-29T14:00:47.875Z</time></trkpt><trkpt lat="43.0612585" lon="11.607449"><ele>398.0</ele><time>2026-03-29T14:00:48.912Z</time></trkpt><trkpt lat="43.0613706" lon="11.6076664"><ele>397.66666666666663</ele><time>2026-03-29T14:00:49.911Z</time></trkpt><trkpt lat="43.0614887" lon="11.6078787"><ele>397.33333333333337</ele><time>2026-03-29T14:00:50.908Z</time></trkpt><trkpt lat="43.0616132" lon="11.6080905"><ele>397.0</ele><time>2026-03-29T14:00:51.903Z</time></trkpt><trkpt lat="43.0617534" lon="11.6083161"><ele>399.6666666666667</ele><time>2026-03-29T14:00:52.904Z</time></trkpt><trkpt lat="43.0618941" lon="11.6085303"><ele>402.33333333333337</ele><time>2026-03-29T14:00:53.892Z</time></trkpt><trkpt lat="43.0620316" lon="11.6087331"><ele>405.0</ele><time>2026-03-29T14:00:54.896Z</time></trkpt><trkpt lat="43.0621633" lon="11.6089108"><ele>405.33333333333337</ele><time>2026-03-29T14:00:55.893Z</time></trkpt><trkpt lat="43.0622965" lon="11.6090717"><ele>405.6666666666667</ele><time>2026-03-29T14:00:56.909Z</time></trkpt><trkpt lat="43.0624147" lon="11.6092088"><ele>406.0</ele><time>2026-03-29T14:00:57.881Z</time></trkpt><trkpt lat="43.062514" lon="11.6093398"><ele>407.5</ele><time>2026-03-29T14:00:58.903Z</time></trkpt><trkpt lat="43.0626152" lon="11.6094563"><ele>409.0</ele><time>2026-03-29T14:00:59.877Z</time></trkpt><trkpt lat="43.0627094" lon="11.6095671"><ele>410.5</ele><time>2026-03-29T14:01:00.889Z</time></trkpt><trkpt lat="43.0628341" lon="11.6096808"><ele>412.0</ele><time>2026-03-29T14:01:01.89Z</time></trkpt><trkpt lat="43.0629702" lon="11.6097778"><ele>412.0</ele><time>2026-03-29T14:01:02.887Z</time></trkpt><trkpt lat="43.0630586" lon="11.6098346"><ele>412.0</ele><time>2026-03-29T14:01:03.882Z</time></trkpt><trkpt lat="43.0631988" lon="11.6099238"><ele>412.0</ele><time>2026-03-29T14:01:04.884Z</time></trkpt><trkpt lat="43.063337" lon="11.6100123"><ele>412.0</ele><time>2026-03-29T14:01:05.898Z</time></trkpt><trkpt lat="43.0635288" lon="11.610114"><ele>413.0</ele><time>2026-03-29T14:01:06.899Z</time></trkpt><trkpt lat="43.0637322" lon="11.6102463"><ele>414.0</ele><time>2026-03-29T14:01:07.888Z</time></trkpt><trkpt lat="43.0639221" lon="11.6103755"><ele>415.0</ele><time>2026-03-29T14:01:08.882Z</time></trkpt><trkpt lat="43.0641153" lon="11.6105089"><ele>410.0</ele><time>2026-03-29T14:01:09.897Z</time></trkpt><trkpt lat="43.064307" lon="11.6106283"><ele>405.0</ele><time>2026-03-29T14:01:10.884Z</time></trkpt><trkpt lat="43.064493" lon="11.6107548"><ele>400.0</ele><time>2026-03-29T14:01:11.898Z</time></trkpt><trkpt lat="43.0646889" lon="11.6108985"><ele>400.0</ele><time>2026-03-29T14:01:12.914Z</time></trkpt><trkpt lat="43.0648633" lon="11.6110579"><ele>400.0</ele><time>2026-03-29T14:01:13.916Z</time></trkpt><trkpt lat="43.0650147" lon="11.6112371"><ele>400.0</ele><time>2026-03-29T14:01:14.887Z</time></trkpt><trkpt lat="43.0651318" lon="11.611422"><ele>399.6666666666667</ele><time>2026-03-29T14:01:15.894Z</time></trkpt><trkpt lat="43.0652378" lon="11.6116374"><ele>399.33333333333337</ele><time>2026-03-29T14:01:16.892Z</time></trkpt><trkpt lat="43.065323" lon="11.6118522"><ele>399.0</ele><time>2026-03-29T14:01:17.874Z</time></trkpt><trkpt lat="43.0654076" lon="11.6120773"><ele>399.0</ele><time>2026-03-29T14:01:18.892Z</time></trkpt><trkpt lat="43.0654902" lon="11.6123076"><ele>399.0</ele><time>2026-03-29T14:01:19.916Z</time></trkpt><trkpt lat="43.0655605" lon="11.6125471"><ele>399.0</ele><time>2026-03-29T14:01:20.885Z</time></trkpt><trkpt lat="43.0656317" lon="11.6128006"><ele>399.33333333333337</ele><time>2026-03-29T14:01:21.893Z</time></trkpt><trkpt lat="43.0657011" lon="11.6130317"><ele>399.6666666666667</ele><time>2026-03-29T14:01:22.889Z</time></trkpt><trkpt lat="43.0657714" lon="11.6132518"><ele>400.0</ele><time>2026-03-29T14:01:23.896Z</time></trkpt><trkpt lat="43.0658421" lon="11.613469"><ele>400.0</ele><time>2026-03-29T14:01:24.897Z</time></trkpt><trkpt lat="43.0659287" lon="11.6136828"><ele>400.0</ele><time>2026-03-29T14:01:25.895Z</time></trkpt><trkpt lat="43.066018" lon="11.6138551"><ele>400.0</ele><time>2026-03-29T14:01:26.92Z</time></trkpt><trkpt lat="43.0661367" lon="11.6140227"><ele>400.0</ele><time>2026-03-29T14:01:27.889Z</time></trkpt><trkpt lat="43.0662699" lon="11.6141864"><ele>400.0</ele><time>2026-03-29T14:01:28.893Z</time></trkpt><trkpt lat="43.0664236" lon="11.6143412"><ele>400.0</ele><time>2026-03-29T14:01:29.901Z</time></trkpt><trkpt lat="43.0665546" lon="11.6144977"><ele>399.0</ele><time>2026-03-29T14:01:30.895Z</time></trkpt><trkpt lat="43.0667117" lon="11.6146119"><ele>398.0</ele><time>2026-03-29T14:01:31.909Z</time></trkpt><trkpt lat="43.0668768" lon="11.6147066"><ele>397.0</ele><time>2026-03-29T14:01:32.908Z</time></trkpt><trkpt lat="43.0670484" lon="11.6148049"><ele>397.0</ele><time>2026-03-29T14:01:33.887Z</time></trkpt><trkpt lat="43.0672175" lon="11.6148873"><ele>397.0</ele><time>2026-03-29T14:01:34.896Z</time></trkpt><trkpt lat="43.0673851" lon="11.6149629"><ele>397.0</ele><time>2026-03-29T14:01:35.878Z</time></trkpt><trkpt lat="43.0675684" lon="11.6150334"><ele>396.5</ele><time>2026-03-29T14:01:36.902Z</time></trkpt><trkpt lat="43.0677381" lon="11.6150914"><ele>396.0</ele><time>2026-03-29T14:01:37.897Z</time></trkpt><trkpt lat="43.0682319" lon="11.6150021"><ele>395.0</ele><time>2026-03-29T14:01:38.891Z</time></trkpt><trkpt lat="43.0684207" lon="11.6150845"><ele>394.0</ele><time>2026-03-29T14:01:39.886Z</time></trkpt><trkpt lat="43.0686103" lon="11.6151551"><ele>393.0</ele><time>2026-03-29T14:01:40.896Z</time></trkpt><trkpt lat="43.06879" lon="11.6152244"><ele>393.0</ele><time>2026-03-29T14:01:41.895Z</time></trkpt><trkpt lat="43.0689864" lon="11.6153042"><ele>393.0</ele><time>2026-03-29T14:01:42.891Z</time></trkpt><trkpt lat="43.0691672" lon="11.6153934"><ele>393.0</ele><time>2026-03-29T14:01:43.888Z</time></trkpt><trkpt lat="43.0693448" lon="11.6155043"><ele>390.0</ele><time>2026-03-29T14:01:44.889Z</time></trkpt><trkpt lat="43.0695058" lon="11.6156397"><ele>387.0</ele><time>2026-03-29T14:01:45.892Z</time></trkpt><trkpt lat="43.0696246" lon="11.615808"><ele>384.0</ele><time>2026-03-29T14:01:46.895Z</time></trkpt><trkpt lat="43.069733" lon="11.6159879"><ele>382.6666666666667</ele><time>2026-03-29T14:01:47.908Z</time></trkpt><trkpt lat="43.0698099" lon="11.6162012"><ele>381.33333333333337</ele><time>2026-03-29T14:01:48.926Z</time></trkpt><trkpt lat="43.0698749" lon="11.6164163"><ele>380.0</ele><time>2026-03-29T14:01:49.885Z</time></trkpt><trkpt lat="43.0699377" lon="11.6166674"><ele>379.6666666666667</ele><time>2026-03-29T14:01:50.884Z</time></trkpt><trkpt lat="43.0699965" lon="11.6169126"><ele>379.3333333333333</ele><time>2026-03-29T14:01:51.895Z</time></trkpt><trkpt lat="43.0700479" lon="11.6171375"><ele>379.0</ele><time>2026-03-29T14:01:52.889Z</time></trkpt><trkpt lat="43.0701103" lon="11.6173604"><ele>379.0</ele><time>2026-03-29T14:01:53.887Z</time></trkpt><trkpt lat="43.0701793" lon="11.6175733"><ele>379.0</ele><time>2026-03-29T14:01:54.933Z</time></trkpt><trkpt lat="43.0702581" lon="11.6177546"><ele>379.0</ele><time>2026-03-29T14:01:55.891Z</time></trkpt><trkpt lat="43.0703655" lon="11.617926"><ele>378.66666666666663</ele><time>2026-03-29T14:01:56.89Z</time></trkpt><trkpt lat="43.0704883" lon="11.6181194"><ele>378.3333333333333</ele><time>2026-03-29T14:01:57.891Z</time></trkpt><trkpt lat="43.0706412" lon="11.618346"><ele>378.0</ele><time>2026-03-29T14:01:58.887Z</time></trkpt><trkpt lat="43.0708234" lon="11.618546"><ele>376.0</ele><time>2026-03-29T14:01:59.92Z</time></trkpt><trkpt lat="43.0709978" lon="11.618714"><ele>374.0</ele><time>2026-03-29T14:02:00.885Z</time></trkpt><trkpt lat="43.071176" lon="11.6188975"><ele>372.0</ele><time>2026-03-29T14:02:01.904Z</time></trkpt><trkpt lat="43.0713914" lon="11.6190955"><ele>372.0</ele><time>2026-03-29T14:02:02.95Z</time></trkpt><trkpt lat="43.0715866" lon="11.6192376"><ele>372.0</ele><time>2026-03-29T14:02:03.9Z</time></trkpt><trkpt lat="43.0717925" lon="11.6193955"><ele>369.0</ele><time>2026-03-29T14:02:04.918Z</time></trkpt><trkpt lat="43.0719852" lon="11.6195161"><ele>366.0</ele><time>2026-03-29T14:02:05.901Z</time></trkpt><trkpt lat="43.0724473" lon="11.6194137"><ele>367.0</ele><time>2026-03-29T14:02:06.896Z</time></trkpt><trkpt lat="43.0726586" lon="11.6195535"><ele>368.0</ele><time>2026-03-29T14:02:07.903Z</time></trkpt><trkpt lat="43.072842" lon="11.6196895"><ele>369.0</ele><time>2026-03-29T14:02:08.884Z</time></trkpt><trkpt lat="43.0730168" lon="11.6198509"><ele>369.0</ele><time>2026-03-29T14:02:09.93Z</time></trkpt><trkpt lat="43.0731599" lon="11.6200154"><ele>369.0</ele><time>2026-03-29T14:02:10.9Z</time></trkpt><trkpt lat="43.0732829" lon="11.6202221"><ele>369.0</ele><time>2026-03-29T14:02:11.897Z</time></trkpt><trkpt lat="43.0733797" lon="11.6204592"><ele>368.3333333333333</ele><time>2026-03-29T14:02:12.897Z</time></trkpt><trkpt lat="43.0734463" lon="11.6207353"><ele>367.66666666666663</ele><time>2026-03-29T14:02:13.904Z</time></trkpt><trkpt lat="43.0735019" lon="11.6209949"><ele>367.0</ele><time>2026-03-29T14:02:14.893Z</time></trkpt><trkpt lat="43.0735335" lon="11.621265"><ele>366.0</ele><time>2026-03-29T14:02:15.897Z</time></trkpt><trkpt lat="43.0735318" lon="11.6215398"><ele>365.0</ele><time>2026-03-29T14:02:16.894Z</time></trkpt><trkpt lat="43.0735053" lon="11.6218224"><ele>364.0</ele><time>2026-03-29T14:02:17.893Z</time></trkpt><trkpt lat="43.0734636" lon="11.6221094"><ele>363.3333333333333</ele><time>2026-03-29T14:02:18.917Z</time></trkpt><trkpt lat="43.0733981" lon="11.6223752"><ele>362.6666666666667</ele><time>2026-03-29T14:02:19.912Z</time></trkpt><trkpt lat="43.0733079" lon="11.6226521"><ele>362.0</ele><time>2026-03-29T14:02:20.91Z</time></trkpt><trkpt lat="43.0732305" lon="11.6229037"><ele>361.33333333333337</ele><time>2026-03-29T14:02:21.886Z</time></trkpt><trkpt lat="43.0731648" lon="11.6231584"><ele>360.6666666666667</ele><time>2026-03-29T14:02:22.892Z</time></trkpt><trkpt lat="43.0731176" lon="11.6234271"><ele>360.0</ele><time>2026-03-29T14:02:23.929Z</time></trkpt><trkpt lat="43.0730946" lon="11.6236916"><ele>360.0</ele><time>2026-03-29T14:02:24.916Z</time></trkpt><trkpt lat="43.0730876" lon="11.6239432"><ele>360.0</ele><time>2026-03-29T14:02:25.885Z</time></trkpt><trkpt lat="43.07311" lon="11.6241892"><ele>360.0</ele><time>2026-03-29T14:02:26.887Z</time></trkpt><trkpt lat="43.073149" lon="11.6244525"><ele>360.3333333333333</ele><time>2026-03-29T14:02:27.883Z</time></trkpt><trkpt lat="43.0732198" lon="11.6247104"><ele>360.66666666666663</ele><time>2026-03-29T14:02:28.919Z</time></trkpt><trkpt lat="43.0733059" lon="11.6249138"><ele>361.0</ele><time>2026-03-29T14:02:29.886Z</time></trkpt><trkpt lat="43.073425" lon="11.6251417"><ele>358.3333333333333</ele><time>2026-03-29T14:02:30.886Z</time></trkpt><trkpt lat="43.0735552" lon="11.6253702"><ele>355.6666666666667</ele><time>2026-03-29T14:02:31.898Z</time></trkpt><trkpt lat="43.0736804" lon="11.6255885"><ele>353.0</ele><time>2026-03-29T14:02:32.899Z</time></trkpt><trkpt lat="43.0738127" lon="11.6258253"><ele>353.0</ele><time>2026-03-29T14:02:33.925Z</time></trkpt><trkpt lat="43.0739404" lon="11.6260428"><ele>353.0</ele><time>2026-03-29T14:02:34.896Z</time></trkpt><trkpt lat="43.0740687" lon="11.6262549"><ele>353.0</ele><time>2026-03-29T14:02:35.893Z</time></trkpt><trkpt lat="43.0741925" lon="11.6264604"><ele>353.33333333333337</ele><time>2026-03-29T14:02:36.899Z</time></trkpt><trkpt lat="43.0743166" lon="11.6266557"><ele>353.6666666666667</ele><time>2026-03-29T14:02:37.902Z</time></trkpt><trkpt lat="43.0744427" lon="11.626825"><ele>354.0</ele><time>2026-03-29T14:02:38.904Z</time></trkpt><trkpt lat="43.0745786" lon="11.6269768"><ele>354.3333333333333</ele><time>2026-03-29T14:02:39.905Z</time></trkpt><trkpt lat="43.0747142" lon="11.6271036"><ele>354.66666666666663</ele><time>2026-03-29T14:02:40.908Z</time></trkpt><trkpt lat="43.0748578" lon="11.6272068"><ele>355.0</ele><time>2026-03-29T14:02:41.888Z</time></trkpt><trkpt lat="43.0750184" lon="11.6272854"><ele>355.0</ele><time>2026-03-29T14:02:42.902Z</time></trkpt><trkpt lat="43.07519" lon="11.6273629"><ele>355.0</ele><time>2026-03-29T14:02:43.936Z</time></trkpt><trkpt lat="43.0753671" lon="11.6274364"><ele>355.0</ele><time>2026-03-29T14:02:44.895Z</time></trkpt><trkpt lat="43.0755639" lon="11.6275187"><ele>355.0</ele><time>2026-03-29T14:02:45.905Z</time></trkpt><trkpt lat="43.0757644" lon="11.6275957"><ele>355.0</ele><time>2026-03-29T14:02:46.899Z</time></trkpt><trkpt lat="43.0759663" lon="11.6276793"><ele>355.0</ele><time>2026-03-29T14:02:47.897Z</time></trkpt><trkpt lat="43.0761722" lon="11.6277689"><ele>353.3333333333333</ele><time>2026-03-29T14:02:48.917Z</time></trkpt><trkpt lat="43.0763653" lon="11.6278506"><ele>351.6666666666667</ele><time>2026-03-29T14:02:49.896Z</time></trkpt><trkpt lat="43.0765753" lon="11.6279383"><ele>350.0</ele><time>2026-03-29T14:02:50.922Z</time></trkpt><trkpt lat="43.076768" lon="11.6280155"><ele>348.0</ele><time>2026-03-29T14:02:51.883Z</time></trkpt><trkpt lat="43.0769529" lon="11.6280926"><ele>346.0</ele><time>2026-03-29T14:02:52.88Z</time></trkpt><trkpt lat="43.0771355" lon="11.628169"><ele>344.0</ele><time>2026-03-29T14:02:53.881Z</time></trkpt><trkpt lat="43.0772994" lon="11.6282423"><ele>344.5</ele><time>2026-03-29T14:02:54.892Z</time></trkpt><trkpt lat="43.077442" lon="11.6283015"><ele>345.0</ele><time>2026-03-29T14:02:55.896Z</time></trkpt><trkpt lat="43.077572" lon="11.6283588"><ele>345.5</ele><time>2026-03-29T14:02:56.885Z</time></trkpt><trkpt lat="43.0777004" lon="11.6284212"><ele>346.0</ele><time>2026-03-29T14:02:57.904Z</time></trkpt><trkpt lat="43.0778303" lon="11.6284817"><ele>346.0</ele><time>2026-03-29T14:02:58.898Z</time></trkpt><trkpt lat="43.0779662" lon="11.6285462"><ele>346.0</ele><time>2026-03-29T14:02:59.901Z</time></trkpt><trkpt lat="43.078087" lon="11.6285978"><ele>346.0</ele><time>2026-03-29T14:03:00.905Z</time></trkpt><trkpt lat="43.078241" lon="11.6286394"><ele>346.0</ele><time>2026-03-29T14:03:01.884Z</time></trkpt><trkpt lat="43.0784063" lon="11.6286659"><ele>344.66666666666663</ele><time>2026-03-29T14:03:02.892Z</time></trkpt><trkpt lat="43.0786" lon="11.6286853"><ele>343.3333333333333</ele><time>2026-03-29T14:03:03.927Z</time></trkpt><trkpt lat="43.0787895" lon="11.628683"><ele>342.0</ele><time>2026-03-29T14:03:04.926Z</time></trkpt><trkpt lat="43.0789845" lon="11.6286662"><ele>342.3333333333333</ele><time>2026-03-29T14:03:05.913Z</time></trkpt><trkpt lat="43.0791692" lon="11.6286383"><ele>342.66666666666663</ele><time>2026-03-29T14:03:06.89Z</time></trkpt><trkpt lat="43.0793628" lon="11.6286286"><ele>343.0</ele><time>2026-03-29T14:03:07.902Z</time></trkpt><trkpt lat="43.0795302" lon="11.6286228"><ele>343.0</ele><time>2026-03-29T14:03:08.895Z</time></trkpt><trkpt lat="43.0796022" lon="11.628618"><ele>343.0</ele><time>2026-03-29T14:03:09.902Z</time></trkpt><trkpt lat="43.0797012" lon="11.6285907"><ele>343.0</ele><time>2026-03-29T14:03:10.887Z</time></trkpt><trkpt lat="43.0797765" lon="11.6285732"><ele>343.0</ele><time>2026-03-29T14:03:11.92Z</time></trkpt><trkpt lat="43.0799467" lon="11.6285346"><ele>343.0</ele><time>2026-03-29T14:03:12.916Z</time></trkpt><trkpt lat="43.0800406" lon="11.6285344"><ele>343.0</ele><time>2026-03-29T14:03:13.903Z</time></trkpt><trkpt lat="43.0801406" lon="11.6285515"><ele>343.0</ele><time>2026-03-29T14:03:14.89Z</time></trkpt><trkpt lat="43.0802635" lon="11.6285801"><ele>343.0</ele><time>2026-03-29T14:03:15.905Z</time></trkpt><trkpt lat="43.0804313" lon="11.6286201"><ele>343.0</ele><time>2026-03-29T14:03:16.908Z</time></trkpt><trkpt lat="43.0810812" lon="11.6288067"><ele>343.0</ele><time>2026-03-29T14:03:17.928Z</time></trkpt><trkpt lat="43.0812764" lon="11.6289594"><ele>343.0</ele><time>2026-03-29T14:03:18.89Z</time></trkpt><trkpt lat="43.0814752" lon="11.6291197"><ele>341.0</ele><time>2026-03-29T14:03:19.949Z</time></trkpt><trkpt lat="43.0816386" lon="11.6292069"><ele>339.0</ele><time>2026-03-29T14:03:20.905Z</time></trkpt><trkpt lat="43.081826" lon="11.6292378"><ele>337.0</ele><time>2026-03-29T14:03:21.901Z</time></trkpt><trkpt lat="43.0820153" lon="11.6292281"><ele>337.0</ele><time>2026-03-29T14:03:22.894Z</time></trkpt><trkpt lat="43.0822151" lon="11.6292123"><ele>337.0</ele><time>2026-03-29T14:03:23.897Z</time></trkpt><trkpt lat="43.0824037" lon="11.6292137"><ele>337.0</ele><time>2026-03-29T14:03:24.906Z</time></trkpt><trkpt lat="43.082582" lon="11.6292221"><ele>336.5</ele><time>2026-03-29T14:03:25.894Z</time></trkpt><trkpt lat="43.0827475" lon="11.6292326"><ele>336.0</ele><time>2026-03-29T14:03:26.913Z</time></trkpt><trkpt lat="43.0828936" lon="11.6292456"><ele>335.5</ele><time>2026-03-29T14:03:27.898Z</time></trkpt><trkpt lat="43.0830286" lon="11.6292631"><ele>335.0</ele><time>2026-03-29T14:03:28.886Z</time></trkpt><trkpt lat="43.0831703" lon="11.6292833"><ele>336.0</ele><time>2026-03-29T14:03:29.91Z</time></trkpt><trkpt lat="43.0833032" lon="11.6293223"><ele>337.0</ele><time>2026-03-29T14:03:30.912Z</time></trkpt><trkpt lat="43.0834321" lon="11.6293866"><ele>338.0</ele><time>2026-03-29T14:03:31.897Z</time></trkpt><trkpt lat="43.0835553" lon="11.6294852"><ele>339.0</ele><time>2026-03-29T14:03:32.905Z</time></trkpt><trkpt lat="43.0836607" lon="11.6296085"><ele>339.0</ele><time>2026-03-29T14:03:33.895Z</time></trkpt><trkpt lat="43.0837565" lon="11.629764"><ele>339.0</ele><time>2026-03-29T14:03:34.884Z</time></trkpt><trkpt lat="43.0838318" lon="11.6299472"><ele>339.0</ele><time>2026-03-29T14:03:35.893Z</time></trkpt><trkpt lat="43.083879" lon="11.6301924"><ele>339.0</ele><time>2026-03-29T14:03:36.887Z</time></trkpt><trkpt lat="43.0838804" lon="11.6304691"><ele>339.0</ele><time>2026-03-29T14:03:37.925Z</time></trkpt><trkpt lat="43.0838614" lon="11.6307351"><ele>339.0</ele><time>2026-03-29T14:03:38.901Z</time></trkpt><trkpt lat="43.0838354" lon="11.6309841"><ele>340.5</ele><time>2026-03-29T14:03:39.904Z</time></trkpt><trkpt lat="43.083805" lon="11.6311954"><ele>342.0</ele><time>2026-03-29T14:03:40.909Z</time></trkpt><trkpt lat="43.0837794" lon="11.6313834"><ele>343.5</ele><time>2026-03-29T14:03:41.899Z</time></trkpt><trkpt lat="43.0837652" lon="11.6315631"><ele>345.0</ele><time>2026-03-29T14:03:42.894Z</time></trkpt><trkpt lat="43.0837579" lon="11.6317367"><ele>345.0</ele><time>2026-03-29T14:03:43.889Z</time></trkpt><trkpt lat="43.0837546" lon="11.6319161"><ele>345.0</ele><time>2026-03-29T14:03:44.918Z</time></trkpt><trkpt lat="43.0837535" lon="11.6321028"><ele>345.0</ele><time>2026-03-29T14:03:45.887Z</time></trkpt><trkpt lat="43.0837466" lon="11.6322998"><ele>345.0</ele><time>2026-03-29T14:03:46.901Z</time></trkpt><trkpt lat="43.0837443" lon="11.632505"><ele>348.6666666666667</ele><time>2026-03-29T14:03:47.891Z</time></trkpt><trkpt lat="43.0837382" lon="11.6327387"><ele>352.33333333333337</ele><time>2026-03-29T14:03:48.923Z</time></trkpt><trkpt lat="43.083724" lon="11.6329766"><ele>356.0</ele><time>2026-03-29T14:03:49.907Z</time></trkpt><trkpt lat="43.083705" lon="11.6332146"><ele>356.33333333333337</ele><time>2026-03-29T14:03:50.936Z</time></trkpt><trkpt lat="43.083682" lon="11.633432"><ele>356.6666666666667</ele><time>2026-03-29T14:03:51.883Z</time></trkpt><trkpt lat="43.083648" lon="11.633668"><ele>357.0</ele><time>2026-03-29T14:03:52.89Z</time></trkpt><trkpt lat="43.0836049" lon="11.6339119"><ele>355.6666666666667</ele><time>2026-03-29T14:03:53.888Z</time></trkpt><trkpt lat="43.0835704" lon="11.6341535"><ele>354.33333333333337</ele><time>2026-03-29T14:03:54.899Z</time></trkpt><trkpt lat="43.0835389" lon="11.6343974"><ele>353.0</ele><time>2026-03-29T14:03:55.895Z</time></trkpt><trkpt lat="43.0835051" lon="11.6346582"><ele>351.6666666666667</ele><time>2026-03-29T14:03:56.902Z</time></trkpt><trkpt lat="43.0834803" lon="11.6349075"><ele>350.3333333333333</ele><time>2026-03-29T14:03:57.906Z</time></trkpt><trkpt lat="43.08347" lon="11.6351518"><ele>349.0</ele><time>2026-03-29T14:03:58.894Z</time></trkpt><trkpt lat="43.0834683" lon="11.6354142"><ele>349.0</ele><time>2026-03-29T14:03:59.91Z</time></trkpt><trkpt lat="43.0834658" lon="11.6356776"><ele>349.0</ele><time>2026-03-29T14:04:00.896Z</time></trkpt><trkpt lat="43.0834678" lon="11.6359527"><ele>349.0</ele><time>2026-03-29T14:04:01.906Z</time></trkpt><trkpt lat="43.0834676" lon="11.6362321"><ele>349.0</ele><time>2026-03-29T14:04:02.891Z</time></trkpt><trkpt lat="43.0834559" lon="11.6365129"><ele>349.0</ele><time>2026-03-29T14:04:03.916Z</time></trkpt><trkpt lat="43.0834415" lon="11.6367819"><ele>349.0</ele><time>2026-03-29T14:04:04.9Z</time></trkpt><trkpt lat="43.0834284" lon="11.6370405"><ele>350.0</ele><time>2026-03-29T14:04:05.896Z</time></trkpt><trkpt lat="43.0834158" lon="11.6373019"><ele>351.0</ele><time>2026-03-29T14:04:06.903Z</time></trkpt><trkpt lat="43.0834068" lon="11.6375523"><ele>352.0</ele><time>2026-03-29T14:04:07.908Z</time></trkpt><trkpt lat="43.0833882" lon="11.6378131"><ele>352.0</ele><time>2026-03-29T14:04:08.904Z</time></trkpt><trkpt lat="43.0833497" lon="11.6380858"><ele>352.0</ele><time>2026-03-29T14:04:09.91Z</time></trkpt><trkpt lat="43.0832776" lon="11.6383492"><ele>352.0</ele><time>2026-03-29T14:04:10.905Z</time></trkpt><trkpt lat="43.0832009" lon="11.6386026"><ele>355.0</ele><time>2026-03-29T14:04:11.905Z</time></trkpt><trkpt lat="43.0831139" lon="11.6388398"><ele>358.0</ele><time>2026-03-29T14:04:12.908Z</time></trkpt><trkpt lat="43.0830186" lon="11.6390762"><ele>361.0</ele><time>2026-03-29T14:04:13.912Z</time></trkpt><trkpt lat="43.0829241" lon="11.6393139"><ele>361.66666666666663</ele><time>2026-03-29T14:04:14.929Z</time></trkpt><trkpt lat="43.082839" lon="11.6395395"><ele>362.3333333333333</ele><time>2026-03-29T14:04:15.893Z</time></trkpt><trkpt lat="43.0827652" lon="11.6397621"><ele>363.0</ele><time>2026-03-29T14:04:16.895Z</time></trkpt><trkpt lat="43.0826927" lon="11.6399759"><ele>363.0</ele><time>2026-03-29T14:04:17.891Z</time></trkpt><trkpt lat="43.0826191" lon="11.6401738"><ele>363.0</ele><time>2026-03-29T14:04:18.889Z</time></trkpt><trkpt lat="43.0825292" lon="11.6403466"><ele>363.0</ele><time>2026-03-29T14:04:19.889Z</time></trkpt><trkpt lat="43.0824257" lon="11.6405129"><ele>365.3333333333333</ele><time>2026-03-29T14:04:20.906Z</time></trkpt><trkpt lat="43.08231" lon="11.6406666"><ele>367.66666666666663</ele><time>2026-03-29T14:04:21.912Z</time></trkpt><trkpt lat="43.0821866" lon="11.6408099"><ele>370.0</ele><time>2026-03-29T14:04:22.901Z</time></trkpt><trkpt lat="43.0820653" lon="11.6409554"><ele>370.0</ele><time>2026-03-29T14:04:23.92Z</time></trkpt><trkpt lat="43.0819614" lon="11.6411012"><ele>370.0</ele><time>2026-03-29T14:04:24.899Z</time></trkpt><trkpt lat="43.0818709" lon="11.64125"><ele>370.0</ele><time>2026-03-29T14:04:25.906Z</time></trkpt><trkpt lat="43.081791" lon="11.6414149"><ele>370.0</ele><time>2026-03-29T14:04:26.89Z</time></trkpt><trkpt lat="43.0817336" lon="11.6416107"><ele>369.66666666666663</ele><time>2026-03-29T14:04:27.923Z</time></trkpt><trkpt lat="43.0816792" lon="11.6418268"><ele>369.3333333333333</ele><time>2026-03-29T14:04:28.899Z</time></trkpt><trkpt lat="43.0816313" lon="11.6420475"><ele>369.0</ele><time>2026-03-29T14:04:29.913Z</time></trkpt><trkpt lat="43.0816202" lon="11.642283"><ele>369.6666666666667</ele><time>2026-03-29T14:04:30.896Z</time></trkpt><trkpt lat="43.081639" lon="11.6425317"><ele>370.33333333333337</ele><time>2026-03-29T14:04:31.896Z</time></trkpt><trkpt lat="43.0816429" lon="11.6427759"><ele>371.0</ele><time>2026-03-29T14:04:32.887Z</time></trkpt><trkpt lat="43.0816493" lon="11.6430283"><ele>371.33333333333337</ele><time>2026-03-29T14:04:33.886Z</time></trkpt><trkpt lat="43.0816442" lon="11.6432812"><ele>371.6666666666667</ele><time>2026-03-29T14:04:34.889Z</time></trkpt><trkpt lat="43.081636" lon="11.6435255"><ele>372.0</ele><time>2026-03-29T14:04:35.891Z</time></trkpt><trkpt lat="43.0816292" lon="11.6437625"><ele>372.3333333333333</ele><time>2026-03-29T14:04:36.884Z</time></trkpt><trkpt lat="43.0816315" lon="11.6439972"><ele>372.66666666666663</ele><time>2026-03-29T14:04:37.904Z</time></trkpt><trkpt lat="43.0816261" lon="11.6442117"><ele>373.0</ele><time>2026-03-29T14:04:38.902Z</time></trkpt><trkpt lat="43.081621" lon="11.6444215"><ele>372.66666666666663</ele><time>2026-03-29T14:04:39.891Z</time></trkpt><trkpt lat="43.0816239" lon="11.6446512"><ele>372.3333333333333</ele><time>2026-03-29T14:04:40.91Z</time></trkpt><trkpt lat="43.0816372" lon="11.64487"><ele>372.0</ele><time>2026-03-29T14:04:41.9Z</time></trkpt><trkpt lat="43.0816623" lon="11.6450919"><ele>371.3333333333333</ele><time>2026-03-29T14:04:42.896Z</time></trkpt><trkpt lat="43.0817074" lon="11.6453113"><ele>370.66666666666663</ele><time>2026-03-29T14:04:43.907Z</time></trkpt><trkpt lat="43.0817634" lon="11.6455212"><ele>370.0</ele><time>2026-03-29T14:04:44.892Z</time></trkpt><trkpt lat="43.0818286" lon="11.6457355"><ele>370.0</ele><time>2026-03-29T14:04:45.902Z</time></trkpt><trkpt lat="43.0819086" lon="11.6459315"><ele>370.0</ele><time>2026-03-29T14:04:46.892Z</time></trkpt><trkpt lat="43.0819999" lon="11.6461155"><ele>370.0</ele><time>2026-03-29T14:04:47.895Z</time></trkpt><trkpt lat="43.0821006" lon="11.6462942"><ele>369.3333333333333</ele><time>2026-03-29T14:04:48.917Z</time></trkpt><trkpt lat="43.0822098" lon="11.6464463"><ele>368.6666666666667</ele><time>2026-03-29T14:04:49.889Z</time></trkpt><trkpt lat="43.0823154" lon="11.6466081"><ele>368.0</ele><time>2026-03-29T14:04:50.931Z</time></trkpt><trkpt lat="43.0824168" lon="11.6467531"><ele>369.0</ele><time>2026-03-29T14:04:51.898Z</time></trkpt><trkpt lat="43.0825228" lon="11.6469287"><ele>370.0</ele><time>2026-03-29T14:04:52.907Z</time></trkpt><trkpt lat="43.0826277" lon="11.6471165"><ele>371.0</ele><time>2026-03-29T14:04:53.902Z</time></trkpt><trkpt lat="43.0827537" lon="11.647329"><ele>371.0</ele><time>2026-03-29T14:04:54.919Z</time></trkpt><trkpt lat="43.0828853" lon="11.6475384"><ele>371.0</ele><time>2026-03-29T14:04:55.89Z</time></trkpt><trkpt lat="43.0830326" lon="11.6477768"><ele>371.0</ele><time>2026-03-29T14:04:56.883Z</time></trkpt><trkpt lat="43.0831951" lon="11.6480286"><ele>370.0</ele><time>2026-03-29T14:04:57.898Z</time></trkpt><trkpt lat="43.083337" lon="11.648275"><ele>369.0</ele><time>2026-03-29T14:04:58.915Z</time></trkpt><trkpt lat="43.0834674" lon="11.6485043"><ele>368.0</ele><time>2026-03-29T14:04:59.903Z</time></trkpt><trkpt lat="43.0835835" lon="11.6487192"><ele>366.6666666666667</ele><time>2026-03-29T14:05:00.907Z</time></trkpt><trkpt lat="43.0837036" lon="11.6489317"><ele>365.3333333333333</ele><time>2026-03-29T14:05:01.894Z</time></trkpt><trkpt lat="43.083827" lon="11.649135"><ele>364.0</ele><time>2026-03-29T14:05:02.889Z</time></trkpt><trkpt lat="43.0839488" lon="11.6493348"><ele>364.3333333333333</ele><time>2026-03-29T14:05:03.897Z</time></trkpt><trkpt lat="43.0840683" lon="11.6495419"><ele>364.6666666666667</ele><time>2026-03-29T14:05:04.925Z</time></trkpt><trkpt lat="43.0841745" lon="11.6497254"><ele>365.0</ele><time>2026-03-29T14:05:05.888Z</time></trkpt><trkpt lat="43.0842844" lon="11.6499205"><ele>365.0</ele><time>2026-03-29T14:05:06.908Z</time></trkpt><trkpt lat="43.0844028" lon="11.6501069"><ele>365.0</ele><time>2026-03-29T14:05:07.91Z</time></trkpt><trkpt lat="43.0845308" lon="11.6502814"><ele>365.0</ele><time>2026-03-29T14:05:08.91Z</time></trkpt><trkpt lat="43.0846719" lon="11.6504366"><ele>366.33333333333337</ele><time>2026-03-29T14:05:09.919Z</time></trkpt><trkpt lat="43.0848152" lon="11.6505713"><ele>367.6666666666667</ele><time>2026-03-29T14:05:10.882Z</time></trkpt><trkpt lat="43.0849797" lon="11.6507076"><ele>369.0</ele><time>2026-03-29T14:05:11.933Z</time></trkpt><trkpt lat="43.0851338" lon="11.650837"><ele>369.0</ele><time>2026-03-29T14:05:12.905Z</time></trkpt><trkpt lat="43.0852939" lon="11.6509633"><ele>369.0</ele><time>2026-03-29T14:05:13.895Z</time></trkpt><trkpt lat="43.0854584" lon="11.6511003"><ele>369.0</ele><time>2026-03-29T14:05:14.893Z</time></trkpt><trkpt lat="43.085613" lon="11.6512406"><ele>369.0</ele><time>2026-03-29T14:05:15.881Z</time></trkpt><trkpt lat="43.0862648" lon="11.6518384"><ele>368.3333333333333</ele><time>2026-03-29T14:05:17.087Z</time></trkpt><trkpt lat="43.0864356" lon="11.6519619"><ele>367.66666666666663</ele><time>2026-03-29T14:05:18.087Z</time></trkpt><trkpt lat="43.0866081" lon="11.6520789"><ele>367.0</ele><time>2026-03-29T14:05:19.094Z</time></trkpt><trkpt lat="43.0867652" lon="11.6521743"><ele>367.0</ele><time>2026-03-29T14:05:20.083Z</time></trkpt><trkpt lat="43.086909" lon="11.6522691"><ele>367.0</ele><time>2026-03-29T14:05:21.082Z</time></trkpt><trkpt lat="43.0870316" lon="11.6523458"><ele>367.0</ele><time>2026-03-29T14:05:22.08Z</time></trkpt><trkpt lat="43.0871457" lon="11.6524022"><ele>367.0</ele><time>2026-03-29T14:05:23.085Z</time></trkpt><trkpt lat="43.0872722" lon="11.6524417"><ele>367.0</ele><time>2026-03-29T14:05:24.089Z</time></trkpt><trkpt lat="43.0873978" lon="11.6524539"><ele>367.0</ele><time>2026-03-29T14:05:25.088Z</time></trkpt><trkpt lat="43.0875419" lon="11.652443"><ele>367.0</ele><time>2026-03-29T14:05:26.117Z</time></trkpt><trkpt lat="43.0876789" lon="11.6523851"><ele>367.0</ele><time>2026-03-29T14:05:27.144Z</time></trkpt><trkpt lat="43.087812" lon="11.6522527"><ele>369.3333333333333</ele><time>2026-03-29T14:05:28.093Z</time></trkpt><trkpt lat="43.0879704" lon="11.652113"><ele>371.6666666666667</ele><time>2026-03-29T14:05:29.079Z</time></trkpt><trkpt lat="43.0881349" lon="11.6520181"><ele>374.0</ele><time>2026-03-29T14:05:30.09Z</time></trkpt><trkpt lat="43.0882648" lon="11.6519867"><ele>375.0</ele><time>2026-03-29T14:05:31.123Z</time></trkpt><trkpt lat="43.0883866" lon="11.6519997"><ele>376.0</ele><time>2026-03-29T14:05:32.079Z</time></trkpt><trkpt lat="43.0885159" lon="11.65202"><ele>377.0</ele><time>2026-03-29T14:05:33.092Z</time></trkpt><trkpt lat="43.088661" lon="11.652097"><ele>378.0</ele><time>2026-03-29T14:05:34.092Z</time></trkpt><trkpt lat="43.088802" lon="11.6522145"><ele>378.0</ele><time>2026-03-29T14:05:35.101Z</time></trkpt><trkpt lat="43.0888954" lon="11.6523335"><ele>378.0</ele><time>2026-03-29T14:05:36.085Z</time></trkpt><trkpt lat="43.0889361" lon="11.6525304"><ele>378.0</ele><time>2026-03-29T14:05:37.128Z</time></trkpt><trkpt lat="43.0889601" lon="11.6527787"><ele>379.3333333333333</ele><time>2026-03-29T14:05:38.097Z</time></trkpt><trkpt lat="43.0889466" lon="11.6530433"><ele>380.66666666666663</ele><time>2026-03-29T14:05:39.087Z</time></trkpt><trkpt lat="43.0889363" lon="11.6532726"><ele>382.0</ele><time>2026-03-29T14:05:40.093Z</time></trkpt><trkpt lat="43.0888989" lon="11.6534833"><ele>382.75</ele><time>2026-03-29T14:05:41.088Z</time></trkpt><trkpt lat="43.0888702" lon="11.6536623"><ele>383.5</ele><time>2026-03-29T14:05:42.101Z</time></trkpt><trkpt lat="43.0888882" lon="11.6538081"><ele>384.25</ele><time>2026-03-29T14:05:43.093Z</time></trkpt><trkpt lat="43.0889455" lon="11.6539176"><ele>385.0</ele><time>2026-03-29T14:05:44.138Z</time></trkpt><trkpt lat="43.0890426" lon="11.6539909"><ele>386.5</ele><time>2026-03-29T14:05:45.141Z</time></trkpt><trkpt lat="43.0891538" lon="11.6540232"><ele>388.0</ele><time>2026-03-29T14:05:46.091Z</time></trkpt><trkpt lat="43.0893036" lon="11.6540293"><ele>389.5</ele><time>2026-03-29T14:05:47.139Z</time></trkpt><trkpt lat="43.089476" lon="11.6540102"><ele>391.0</ele><time>2026-03-29T14:05:48.091Z</time></trkpt><trkpt lat="43.0896437" lon="11.653974"><ele>391.0</ele><time>2026-03-29T14:05:49.124Z</time></trkpt><trkpt lat="43.0897949" lon="11.6539388"><ele>391.0</ele><time>2026-03-29T14:05:50.138Z</time></trkpt><trkpt lat="43.0899348" lon="11.6538849"><ele>391.0</ele><time>2026-03-29T14:05:51.082Z</time></trkpt><trkpt lat="43.0900889" lon="11.6537969"><ele>392.20000000000005</ele><time>2026-03-29T14:05:52.102Z</time></trkpt><trkpt lat="43.0902044" lon="11.6536859"><ele>393.40000000000003</ele><time>2026-03-29T14:05:53.103Z</time></trkpt><trkpt lat="43.0902819" lon="11.6535946"><ele>394.6</ele><time>2026-03-29T14:05:54.115Z</time></trkpt><trkpt lat="43.0903489" lon="11.6535126"><ele>395.8</ele><time>2026-03-29T14:05:55.101Z</time></trkpt><trkpt lat="43.0904358" lon="11.653459"><ele>397.0</ele><time>2026-03-29T14:05:56.095Z</time></trkpt><trkpt lat="43.0905622" lon="11.6534141"><ele>395.33333333333337</ele><time>2026-03-29T14:05:57.118Z</time></trkpt><trkpt lat="43.0907057" lon="11.6533945"><ele>393.66666666666663</ele><time>2026-03-29T14:05:58.111Z</time></trkpt><trkpt lat="43.0908664" lon="11.6533901"><ele>392.0</ele><time>2026-03-29T14:05:59.103Z</time></trkpt><trkpt lat="43.0910209" lon="11.6533694"><ele>392.0</ele><time>2026-03-29T14:06:00.085Z</time></trkpt><trkpt lat="43.0911785" lon="11.6533544"><ele>392.0</ele><time>2026-03-29T14:06:01.087Z</time></trkpt><trkpt lat="43.0913235" lon="11.6533472"><ele>392.0</ele><time>2026-03-29T14:06:02.085Z</time></trkpt><trkpt lat="43.0914665" lon="11.6533336"><ele>392.0</ele><time>2026-03-29T14:06:03.102Z</time></trkpt><trkpt lat="43.0916135" lon="11.6533334"><ele>393.5</ele><time>2026-03-29T14:06:04.096Z</time></trkpt><trkpt lat="43.0917554" lon="11.6533508"><ele>395.0</ele><time>2026-03-29T14:06:05.101Z</time></trkpt><trkpt lat="43.0919061" lon="11.6533742"><ele>396.5</ele><time>2026-03-29T14:06:06.134Z</time></trkpt><trkpt lat="43.0920375" lon="11.6534348"><ele>398.0</ele><time>2026-03-29T14:06:07.136Z</time></trkpt><trkpt lat="43.0921836" lon="11.6534872"><ele>398.0</ele><time>2026-03-29T14:06:08.127Z</time></trkpt><trkpt lat="43.0923615" lon="11.653546"><ele>398.0</ele><time>2026-03-29T14:06:09.445Z</time></trkpt><trkpt lat="43.0925367" lon="11.6536617"><ele>398.0</ele><time>2026-03-29T14:06:11.167Z</time></trkpt><trkpt lat="43.0926338" lon="11.6537048"><ele>399.2</ele><time>2026-03-29T14:06:12.146Z</time></trkpt><trkpt lat="43.0927339" lon="11.6537181"><ele>400.4</ele><time>2026-03-29T14:06:13.149Z</time></trkpt><trkpt lat="43.0928271" lon="11.6537426"><ele>401.59999999999997</ele><time>2026-03-29T14:06:14.16Z</time></trkpt><trkpt lat="43.0929098" lon="11.6537956"><ele>402.79999999999995</ele><time>2026-03-29T14:06:15.083Z</time></trkpt><trkpt lat="43.0929934" lon="11.6538892"><ele>404.0</ele><time>2026-03-29T14:06:16.094Z</time></trkpt><trkpt lat="43.0930344" lon="11.6540253"><ele>404.0</ele><time>2026-03-29T14:06:17.101Z</time></trkpt><trkpt lat="43.0930111" lon="11.6541857"><ele>404.0</ele><time>2026-03-29T14:06:18.133Z</time></trkpt><trkpt lat="43.0929591" lon="11.6543199"><ele>404.0</ele><time>2026-03-29T14:06:19.089Z</time></trkpt><trkpt lat="43.0929545" lon="11.6544276"><ele>404.0</ele><time>2026-03-29T14:06:20.095Z</time></trkpt><trkpt lat="43.0929319" lon="11.6545717"><ele>404.0</ele><time>2026-03-29T14:06:21.417Z</time></trkpt><trkpt lat="43.0929459" lon="11.6543658"><ele>404.0</ele><time>2026-03-29T14:06:23.151Z</time></trkpt><trkpt lat="43.0928621" lon="11.6543309"><ele>404.0</ele><time>2026-03-29T14:06:24.139Z</time></trkpt><trkpt lat="43.0927448" lon="11.6542693"><ele>404.0</ele><time>2026-03-29T14:06:25.156Z</time></trkpt><trkpt lat="43.0925914" lon="11.6542024"><ele>404.0</ele><time>2026-03-29T14:06:26.143Z</time></trkpt><trkpt lat="43.0922642" lon="11.6541077"><ele>405.5</ele><time>2026-03-29T14:06:27.148Z</time></trkpt><trkpt lat="43.0918296" lon="11.6540599"><ele>407.0</ele><time>2026-03-29T14:06:28.16Z</time></trkpt><trkpt lat="43.0916348" lon="11.654113"><ele>406.0</ele><time>2026-03-29T14:06:29.155Z</time></trkpt><trkpt lat="43.091557" lon="11.6542004"><ele>405.0</ele><time>2026-03-29T14:06:30.153Z</time></trkpt><trkpt lat="43.091395" lon="11.6543017"><ele>404.0</ele><time>2026-03-29T14:06:31.16Z</time></trkpt><trkpt lat="43.0912043" lon="11.6544451"><ele>408.5</ele><time>2026-03-29T14:06:32.157Z</time></trkpt><trkpt lat="43.0909901" lon="11.6546051"><ele>413.0</ele><time>2026-03-29T14:06:33.156Z</time></trkpt><trkpt lat="43.0907919" lon="11.6547459"><ele>411.25</ele><time>2026-03-29T14:06:34.154Z</time></trkpt><trkpt lat="43.0906695" lon="11.6548199"><ele>409.5</ele><time>2026-03-29T14:06:35.133Z</time></trkpt><trkpt lat="43.0905591" lon="11.6548806"><ele>407.75</ele><time>2026-03-29T14:06:36.098Z</time></trkpt><trkpt lat="43.090453" lon="11.6549513"><ele>406.0</ele><time>2026-03-29T14:06:37.097Z</time></trkpt><trkpt lat="43.0903632" lon="11.6550512"><ele>406.0</ele><time>2026-03-29T14:06:38.086Z</time></trkpt><trkpt lat="43.0902755" lon="11.6551794"><ele>406.0</ele><time>2026-03-29T14:06:39.103Z</time></trkpt><trkpt lat="43.0902331" lon="11.6553292"><ele>406.0</ele><time>2026-03-29T14:06:40.088Z</time></trkpt><trkpt lat="43.0901977" lon="11.6554944"><ele>406.0</ele><time>2026-03-29T14:06:41.086Z</time></trkpt><trkpt lat="43.0901842" lon="11.6556821"><ele>407.75</ele><time>2026-03-29T14:06:42.13Z</time></trkpt><trkpt lat="43.0901817" lon="11.6558642"><ele>409.5</ele><time>2026-03-29T14:06:43.093Z</time></trkpt><trkpt lat="43.0901951" lon="11.6560361"><ele>411.25</ele><time>2026-03-29T14:06:44.101Z</time></trkpt><trkpt lat="43.0902192" lon="11.656211"><ele>413.0</ele><time>2026-03-29T14:06:45.127Z</time></trkpt><trkpt lat="43.0902499" lon="11.6563899"><ele>414.0</ele><time>2026-03-29T14:06:46.098Z</time></trkpt><trkpt lat="43.0902635" lon="11.6565657"><ele>415.0</ele><time>2026-03-29T14:06:47.092Z</time></trkpt><trkpt lat="43.0902598" lon="11.6567453"><ele>416.0</ele><time>2026-03-29T14:06:48.108Z</time></trkpt><trkpt lat="43.090235" lon="11.6569087"><ele>417.0</ele><time>2026-03-29T14:06:49.135Z</time></trkpt><trkpt lat="43.0901704" lon="11.657057"><ele>417.5</ele><time>2026-03-29T14:06:50.092Z</time></trkpt><trkpt lat="43.0900673" lon="11.6571613"><ele>418.0</ele><time>2026-03-29T14:06:51.111Z</time></trkpt><trkpt lat="43.0899509" lon="11.6572365"><ele>418.5</ele><time>2026-03-29T14:06:52.09Z</time></trkpt><trkpt lat="43.0898479" lon="11.6573129"><ele>419.0</ele><time>2026-03-29T14:06:53.095Z</time></trkpt><trkpt lat="43.0897344" lon="11.6574093"><ele>419.0</ele><time>2026-03-29T14:06:54.127Z</time></trkpt><trkpt lat="43.0896011" lon="11.657501"><ele>419.0</ele><time>2026-03-29T14:06:55.108Z</time></trkpt><trkpt lat="43.0895186" lon="11.657659"><ele>419.0</ele><time>2026-03-29T14:06:56.103Z</time></trkpt><trkpt lat="43.0894136" lon="11.6577867"><ele>419.0</ele><time>2026-03-29T14:06:57.098Z</time></trkpt><trkpt lat="43.0892863" lon="11.6579396"><ele>421.5</ele><time>2026-03-29T14:06:58.09Z</time></trkpt><trkpt lat="43.0891303" lon="11.6581316"><ele>424.0</ele><time>2026-03-29T14:06:59.405Z</time></trkpt><trkpt lat="43.0889325" lon="11.6583859"><ele>424.0</ele><time>2026-03-29T14:07:01.152Z</time></trkpt><trkpt lat="43.0888149" lon="11.6584891"><ele>424.0</ele><time>2026-03-29T14:07:02.164Z</time></trkpt><trkpt lat="43.0887132" lon="11.6586001"><ele>424.0</ele><time>2026-03-29T14:07:03.148Z</time></trkpt><trkpt lat="43.0885974" lon="11.6586948"><ele>424.0</ele><time>2026-03-29T14:07:04.172Z</time></trkpt><trkpt lat="43.0885089" lon="11.6588026"><ele>424.79999999999995</ele><time>2026-03-29T14:07:05.151Z</time></trkpt><trkpt lat="43.0884604" lon="11.6589208"><ele>425.59999999999997</ele><time>2026-03-29T14:07:06.152Z</time></trkpt><trkpt lat="43.0884131" lon="11.6590724"><ele>426.4</ele><time>2026-03-29T14:07:07.16Z</time></trkpt><trkpt lat="43.0884829" lon="11.6592038"><ele>427.2</ele><time>2026-03-29T14:07:08.146Z</time></trkpt><trkpt lat="43.0885129" lon="11.6593407"><ele>428.0</ele><time>2026-03-29T14:07:09.151Z</time></trkpt><trkpt lat="43.088555" lon="11.6594903"><ele>429.0</ele><time>2026-03-29T14:07:10.153Z</time></trkpt><trkpt lat="43.0885243" lon="11.6596411"><ele>429.99999999999994</ele><time>2026-03-29T14:07:11.16Z</time></trkpt><trkpt lat="43.0884813" lon="11.6597777"><ele>430.99999999999994</ele><time>2026-03-29T14:07:12.149Z</time></trkpt><trkpt lat="43.088424" lon="11.659885"><ele>432.0</ele><time>2026-03-29T14:07:13.169Z</time></trkpt><trkpt lat="43.0883413" lon="11.6599584"><ele>433.0</ele><time>2026-03-29T14:07:14.16Z</time></trkpt><trkpt lat="43.0881877" lon="11.6599778"><ele>434.33333333333337</ele><time>2026-03-29T14:07:15.145Z</time></trkpt><trkpt lat="43.0880268" lon="11.6599674"><ele>435.66666666666663</ele><time>2026-03-29T14:07:16.156Z</time></trkpt><trkpt lat="43.0878584" lon="11.6599407"><ele>437.0</ele><time>2026-03-29T14:07:17.155Z</time></trkpt><trkpt lat="43.0876942" lon="11.6599072"><ele>437.0</ele><time>2026-03-29T14:07:18.159Z</time></trkpt><trkpt lat="43.0875402" lon="11.6598834"><ele>437.0</ele><time>2026-03-29T14:07:19.151Z</time></trkpt><trkpt lat="43.0873623" lon="11.6598587"><ele>437.0</ele><time>2026-03-29T14:07:20.161Z</time></trkpt><trkpt lat="43.0872421" lon="11.6598304"><ele>437.40000000000003</ele><time>2026-03-29T14:07:21.145Z</time></trkpt><trkpt lat="43.0871196" lon="11.6598135"><ele>437.80000000000007</ele><time>2026-03-29T14:07:22.158Z</time></trkpt><trkpt lat="43.0870144" lon="11.6598126"><ele>438.2</ele><time>2026-03-29T14:07:23.166Z</time></trkpt><trkpt lat="43.0869132" lon="11.6598069"><ele>438.6</ele><time>2026-03-29T14:07:24.146Z</time></trkpt><trkpt lat="43.0868184" lon="11.6598225"><ele>439.0</ele><time>2026-03-29T14:07:25.147Z</time></trkpt><trkpt lat="43.0867145" lon="11.6598875"><ele>439.0</ele><time>2026-03-29T14:07:26.15Z</time></trkpt><trkpt lat="43.0866202" lon="11.6599744"><ele>439.0</ele><time>2026-03-29T14:07:27.152Z</time></trkpt><trkpt lat="43.0865351" lon="11.6600999"><ele>439.0</ele><time>2026-03-29T14:07:28.167Z</time></trkpt><trkpt lat="43.086461" lon="11.6602521"><ele>439.0</ele><time>2026-03-29T14:07:29.15Z</time></trkpt><trkpt lat="43.0863846" lon="11.6604326"><ele>440.0</ele><time>2026-03-29T14:07:30.17Z</time></trkpt><trkpt lat="43.0863056" lon="11.6606156"><ele>441.0</ele><time>2026-03-29T14:07:31.17Z</time></trkpt><trkpt lat="43.0862261" lon="11.6607999"><ele>442.0</ele><time>2026-03-29T14:07:32.143Z</time></trkpt><trkpt lat="43.0861442" lon="11.6610007"><ele>444.0</ele><time>2026-03-29T14:07:33.163Z</time></trkpt><trkpt lat="43.0860694" lon="11.661196"><ele>446.0</ele><time>2026-03-29T14:07:34.152Z</time></trkpt><trkpt lat="43.0859966" lon="11.6614014"><ele>448.0</ele><time>2026-03-29T14:07:35.165Z</time></trkpt><trkpt lat="43.0859267" lon="11.6615964"><ele>448.0</ele><time>2026-03-29T14:07:36.149Z</time></trkpt><trkpt lat="43.0858556" lon="11.6617869"><ele>448.0</ele><time>2026-03-29T14:07:37.15Z</time></trkpt><trkpt lat="43.0857901" lon="11.6619681"><ele>448.0</ele><time>2026-03-29T14:07:38.168Z</time></trkpt><trkpt lat="43.0857307" lon="11.6621345"><ele>448.0</ele><time>2026-03-29T14:07:39.138Z</time></trkpt><trkpt lat="43.0856663" lon="11.6623182"><ele>449.33333333333337</ele><time>2026-03-29T14:07:40.16Z</time></trkpt><trkpt lat="43.0856012" lon="11.6625208"><ele>450.66666666666663</ele><time>2026-03-29T14:07:41.157Z</time></trkpt><trkpt lat="43.0855378" lon="11.6627485"><ele>452.0</ele><time>2026-03-29T14:07:42.151Z</time></trkpt><trkpt lat="43.0854753" lon="11.6630031"><ele>453.3333333333333</ele><time>2026-03-29T14:07:43.163Z</time></trkpt><trkpt lat="43.0854118" lon="11.6632773"><ele>454.66666666666663</ele><time>2026-03-29T14:07:44.167Z</time></trkpt><trkpt lat="43.0853543" lon="11.6635373"><ele>456.0</ele><time>2026-03-29T14:07:45.086Z</time></trkpt><trkpt lat="43.0852905" lon="11.663829"><ele>456.33333333333337</ele><time>2026-03-29T14:07:46.097Z</time></trkpt><trkpt lat="43.0852243" lon="11.6641231"><ele>456.6666666666667</ele><time>2026-03-29T14:07:47.104Z</time></trkpt><trkpt lat="43.0851607" lon="11.6644009"><ele>457.0</ele><time>2026-03-29T14:07:48.115Z</time></trkpt><trkpt lat="43.0850865" lon="11.6646471"><ele>457.0</ele><time>2026-03-29T14:07:49.097Z</time></trkpt><trkpt lat="43.0849988" lon="11.664878"><ele>457.0</ele><time>2026-03-29T14:07:50.099Z</time></trkpt><trkpt lat="43.0848965" lon="11.6650973"><ele>457.0</ele><time>2026-03-29T14:07:51.096Z</time></trkpt><trkpt lat="43.0847765" lon="11.6653164"><ele>458.6666666666667</ele><time>2026-03-29T14:07:52.123Z</time></trkpt><trkpt lat="43.0846494" lon="11.6655344"><ele>460.33333333333337</ele><time>2026-03-29T14:07:53.092Z</time></trkpt><trkpt lat="43.0845168" lon="11.6657678"><ele>462.0</ele><time>2026-03-29T14:07:54.095Z</time></trkpt><trkpt lat="43.0843883" lon="11.6660164"><ele>462.5</ele><time>2026-03-29T14:07:55.099Z</time></trkpt><trkpt lat="43.0842538" lon="11.6662736"><ele>463.0</ele><time>2026-03-29T14:07:56.109Z</time></trkpt><trkpt lat="43.0841169" lon="11.6665244"><ele>463.6666666666667</ele><time>2026-03-29T14:07:57.099Z</time></trkpt><trkpt lat="43.08399" lon="11.6667859"><ele>464.33333333333337</ele><time>2026-03-29T14:07:58.097Z</time></trkpt><trkpt lat="43.0838796" lon="11.667041"><ele>465.0</ele><time>2026-03-29T14:07:59.088Z</time></trkpt><trkpt lat="43.0837841" lon="11.6673142"><ele>466.5</ele><time>2026-03-29T14:08:00.097Z</time></trkpt><trkpt lat="43.0837224" lon="11.6676084"><ele>468.0</ele><time>2026-03-29T14:08:01.094Z</time></trkpt><trkpt lat="43.083653" lon="11.6679038"><ele>468.0</ele><time>2026-03-29T14:08:02.107Z</time></trkpt><trkpt lat="43.0835742" lon="11.6681943"><ele>468.0</ele><time>2026-03-29T14:08:03.117Z</time></trkpt><trkpt lat="43.0834907" lon="11.6684775"><ele>468.0</ele><time>2026-03-29T14:08:04.118Z</time></trkpt><trkpt lat="43.0834121" lon="11.6687513"><ele>468.33333333333337</ele><time>2026-03-29T14:08:05.124Z</time></trkpt><trkpt lat="43.0833173" lon="11.6690074"><ele>468.6666666666667</ele><time>2026-03-29T14:08:06.085Z</time></trkpt><trkpt lat="43.0832189" lon="11.6692731"><ele>469.0</ele><time>2026-03-29T14:08:07.117Z</time></trkpt><trkpt lat="43.0831194" lon="11.669524"><ele>471.0</ele><time>2026-03-29T14:08:08.109Z</time></trkpt><trkpt lat="43.0830229" lon="11.6697729"><ele>473.0</ele><time>2026-03-29T14:08:09.083Z</time></trkpt><trkpt lat="43.0829315" lon="11.6700152"><ele>475.0</ele><time>2026-03-29T14:08:10.095Z</time></trkpt><trkpt lat="43.0828547" lon="11.6702287"><ele>475.25</ele><time>2026-03-29T14:08:11.099Z</time></trkpt><trkpt lat="43.0827887" lon="11.6704088"><ele>475.5</ele><time>2026-03-29T14:08:12.138Z</time></trkpt><trkpt lat="43.0827451" lon="11.670542"><ele>475.75</ele><time>2026-03-29T14:08:13.091Z</time></trkpt><trkpt lat="43.0826842" lon="11.6706662"><ele>476.0</ele><time>2026-03-29T14:08:14.111Z</time></trkpt><trkpt lat="43.0826241" lon="11.670771"><ele>476.0</ele><time>2026-03-29T14:08:15.095Z</time></trkpt><trkpt lat="43.0825619" lon="11.6708666"><ele>476.0</ele><time>2026-03-29T14:08:16.112Z</time></trkpt><trkpt lat="43.0825148" lon="11.6709284"><ele>476.0</ele><time>2026-03-29T14:08:17.094Z</time></trkpt><trkpt lat="43.0824294" lon="11.6710313"><ele>476.0</ele><time>2026-03-29T14:08:19.095Z</time></trkpt><trkpt lat="43.0823466" lon="11.6711095"><ele>476.0</ele><time>2026-03-29T14:08:21.098Z</time></trkpt><trkpt lat="43.0822836" lon="11.6712153"><ele>476.0</ele><time>2026-03-29T14:08:23.099Z</time></trkpt><trkpt lat="43.0823224" lon="11.6713695"><ele>476.0</ele><time>2026-03-29T14:08:25.109Z</time></trkpt><trkpt lat="43.082376" lon="11.6714401"><ele>476.0</ele><time>2026-03-29T14:08:26.099Z</time></trkpt><trkpt lat="43.0824608" lon="11.6715062"><ele>476.0</ele><time>2026-03-29T14:08:27.108Z</time></trkpt><trkpt lat="43.0825641" lon="11.6715815"><ele>476.0</ele><time>2026-03-29T14:08:28.094Z</time></trkpt><trkpt lat="43.0826614" lon="11.6716489"><ele>476.0</ele><time>2026-03-29T14:08:29.091Z</time></trkpt><trkpt lat="43.0828291" lon="11.6717965"><ele>476.0</ele><time>2026-03-29T14:08:30.1Z</time></trkpt><trkpt lat="43.0829553" lon="11.6719551"><ele>476.0</ele><time>2026-03-29T14:08:31.093Z</time></trkpt><trkpt lat="43.0830454" lon="11.6721782"><ele>474.66666666666663</ele><time>2026-03-29T14:08:32.104Z</time></trkpt><trkpt lat="43.0831271" lon="11.6724311"><ele>473.33333333333337</ele><time>2026-03-29T14:08:33.114Z</time></trkpt><trkpt lat="43.0831958" lon="11.6726833"><ele>472.0</ele><time>2026-03-29T14:08:34.096Z</time></trkpt><trkpt lat="43.0832568" lon="11.6729331"><ele>470.33333333333337</ele><time>2026-03-29T14:08:35.091Z</time></trkpt><trkpt lat="43.0833044" lon="11.6732"><ele>468.66666666666663</ele><time>2026-03-29T14:08:36.094Z</time></trkpt><trkpt lat="43.0833536" lon="11.673477"><ele>467.0</ele><time>2026-03-29T14:08:37.113Z</time></trkpt><trkpt lat="43.0834071" lon="11.6737496"><ele>465.66666666666663</ele><time>2026-03-29T14:08:38.086Z</time></trkpt><trkpt lat="43.0834837" lon="11.6740217"><ele>464.33333333333337</ele><time>2026-03-29T14:08:39.091Z</time></trkpt><trkpt lat="43.0835702" lon="11.6742918"><ele>463.0</ele><time>2026-03-29T14:08:40.1Z</time></trkpt><trkpt lat="43.0836823" lon="11.6745544"><ele>462.33333333333337</ele><time>2026-03-29T14:08:41.112Z</time></trkpt><trkpt lat="43.0838138" lon="11.6747851"><ele>461.66666666666663</ele><time>2026-03-29T14:08:42.101Z</time></trkpt><trkpt lat="43.0839567" lon="11.6749966"><ele>461.0</ele><time>2026-03-29T14:08:43.107Z</time></trkpt><trkpt lat="43.0840914" lon="11.6751957"><ele>458.66666666666663</ele><time>2026-03-29T14:08:44.097Z</time></trkpt><trkpt lat="43.0841974" lon="11.6753866"><ele>456.33333333333337</ele><time>2026-03-29T14:08:45.111Z</time></trkpt><trkpt lat="43.0842747" lon="11.6755633"><ele>454.0</ele><time>2026-03-29T14:08:46.091Z</time></trkpt><trkpt lat="43.0843189" lon="11.6757279"><ele>454.00000000000006</ele><time>2026-03-29T14:08:47.101Z</time></trkpt><trkpt lat="43.0843524" lon="11.6758816"><ele>454.0</ele><time>2026-03-29T14:08:48.097Z</time></trkpt><trkpt lat="43.0843689" lon="11.6760027"><ele>454.0</ele><time>2026-03-29T14:08:49.106Z</time></trkpt><trkpt lat="43.0843645" lon="11.6760941"><ele>454.0</ele><time>2026-03-29T14:08:50.095Z</time></trkpt><trkpt lat="43.0843877" lon="11.6761878"><ele>454.00000000000006</ele><time>2026-03-29T14:08:51.145Z</time></trkpt><trkpt lat="43.0843461" lon="11.6763063"><ele>454.0</ele><time>2026-03-29T14:08:55.091Z</time></trkpt><trkpt lat="43.0842825" lon="11.6764348"><ele>453.0</ele><time>2026-03-29T14:08:57.102Z</time></trkpt><trkpt lat="43.0842936" lon="11.6765746"><ele>452.0</ele><time>2026-03-29T14:08:59.106Z</time></trkpt><trkpt lat="43.0843729" lon="11.6766792"><ele>451.0</ele><time>2026-03-29T14:09:01.099Z</time></trkpt><trkpt lat="43.084468" lon="11.6767317"><ele>450.0</ele><time>2026-03-29T14:09:02.101Z</time></trkpt><trkpt lat="43.0846228" lon="11.6767995"><ele>449.33333333333337</ele><time>2026-03-29T14:09:03.105Z</time></trkpt><trkpt lat="43.0848172" lon="11.6769385"><ele>448.6666666666667</ele><time>2026-03-29T14:09:04.088Z</time></trkpt><trkpt lat="43.0849725" lon="11.6771407"><ele>448.0</ele><time>2026-03-29T14:09:05.102Z</time></trkpt><trkpt lat="43.0850737" lon="11.6773722"><ele>449.0</ele><time>2026-03-29T14:09:06.101Z</time></trkpt><trkpt lat="43.0851703" lon="11.6776078"><ele>450.0</ele><time>2026-03-29T14:09:07.118Z</time></trkpt><trkpt lat="43.0852831" lon="11.6778139"><ele>451.0</ele><time>2026-03-29T14:09:08.118Z</time></trkpt><trkpt lat="43.0854395" lon="11.6780168"><ele>451.0</ele><time>2026-03-29T14:09:09.103Z</time></trkpt><trkpt lat="43.0856146" lon="11.6781867"><ele>451.0</ele><time>2026-03-29T14:09:10.117Z</time></trkpt><trkpt lat="43.0857848" lon="11.6783205"><ele>451.0</ele><time>2026-03-29T14:09:11.101Z</time></trkpt><trkpt lat="43.0859913" lon="11.6784584"><ele>452.0</ele><time>2026-03-29T14:09:12.112Z</time></trkpt><trkpt lat="43.0861735" lon="11.6785919"><ele>453.0</ele><time>2026-03-29T14:09:13.1Z</time></trkpt><trkpt lat="43.0863513" lon="11.6787341"><ele>454.0</ele><time>2026-03-29T14:09:14.112Z</time></trkpt><trkpt lat="43.0865032" lon="11.6788679"><ele>454.75</ele><time>2026-03-29T14:09:15.093Z</time></trkpt><trkpt lat="43.0866404" lon="11.6789878"><ele>455.5</ele><time>2026-03-29T14:09:16.086Z</time></trkpt><trkpt lat="43.0867623" lon="11.6790894"><ele>456.25</ele><time>2026-03-29T14:09:17.093Z</time></trkpt><trkpt lat="43.0868617" lon="11.6791796"><ele>457.0</ele><time>2026-03-29T14:09:18.105Z</time></trkpt><trkpt lat="43.0869418" lon="11.6792506"><ele>457.0</ele><time>2026-03-29T14:09:19.116Z</time></trkpt><trkpt lat="43.087021" lon="11.6793256"><ele>457.00000000000006</ele><time>2026-03-29T14:09:20.115Z</time></trkpt><trkpt lat="43.0871029" lon="11.6794037"><ele>457.00000000000006</ele><time>2026-03-29T14:09:21.115Z</time></trkpt><trkpt lat="43.0871734" lon="11.6794919"><ele>457.0</ele><time>2026-03-29T14:09:22.104Z</time></trkpt><trkpt lat="43.0872533" lon="11.6796091"><ele>457.0</ele><time>2026-03-29T14:09:23.098Z</time></trkpt><trkpt lat="43.0873301" lon="11.6797495"><ele>457.0</ele><time>2026-03-29T14:09:24.115Z</time></trkpt><trkpt lat="43.0874136" lon="11.6799165"><ele>457.0</ele><time>2026-03-29T14:09:25.105Z</time></trkpt><trkpt lat="43.0874831" lon="11.6800964"><ele>457.0</ele><time>2026-03-29T14:09:26.1Z</time></trkpt><trkpt lat="43.0875511" lon="11.6802915"><ele>457.0</ele><time>2026-03-29T14:09:27.091Z</time></trkpt><trkpt lat="43.0876103" lon="11.680501"><ele>457.0</ele><time>2026-03-29T14:09:28.102Z</time></trkpt><trkpt lat="43.0876572" lon="11.6807195"><ele>457.0</ele><time>2026-03-29T14:09:29.1Z</time></trkpt><trkpt lat="43.0877001" lon="11.6809625"><ele>457.6666666666667</ele><time>2026-03-29T14:09:30.105Z</time></trkpt><trkpt lat="43.087741" lon="11.6812116"><ele>458.33333333333337</ele><time>2026-03-29T14:09:31.107Z</time></trkpt><trkpt lat="43.0877949" lon="11.6814661"><ele>459.0</ele><time>2026-03-29T14:09:32.099Z</time></trkpt><trkpt lat="43.087861" lon="11.6817161"><ele>459.66666666666663</ele><time>2026-03-29T14:09:33.11Z</time></trkpt><trkpt lat="43.0879255" lon="11.6819718"><ele>460.3333333333333</ele><time>2026-03-29T14:09:34.095Z</time></trkpt><trkpt lat="43.0879942" lon="11.6822361"><ele>461.0</ele><time>2026-03-29T14:09:35.098Z</time></trkpt><trkpt lat="43.0880725" lon="11.6824846"><ele>461.0</ele><time>2026-03-29T14:09:36.131Z</time></trkpt><trkpt lat="43.0881329" lon="11.6827229"><ele>461.0</ele><time>2026-03-29T14:09:37.107Z</time></trkpt><trkpt lat="43.0881923" lon="11.6829572"><ele>461.0</ele><time>2026-03-29T14:09:38.099Z</time></trkpt><trkpt lat="43.0882444" lon="11.683181"><ele>459.25</ele><time>2026-03-29T14:09:39.107Z</time></trkpt><trkpt lat="43.0882944" lon="11.6833898"><ele>457.5</ele><time>2026-03-29T14:09:40.105Z</time></trkpt><trkpt lat="43.0883445" lon="11.6835833"><ele>455.75</ele><time>2026-03-29T14:09:41.112Z</time></trkpt><trkpt lat="43.0884014" lon="11.6837428"><ele>454.0</ele><time>2026-03-29T14:09:42.094Z</time></trkpt><trkpt lat="43.0884645" lon="11.6838897"><ele>453.75</ele><time>2026-03-29T14:09:43.099Z</time></trkpt><trkpt lat="43.0885321" lon="11.6840236"><ele>453.5</ele><time>2026-03-29T14:09:44.103Z</time></trkpt><trkpt lat="43.0886178" lon="11.6841409"><ele>453.25</ele><time>2026-03-29T14:09:45.128Z</time></trkpt><trkpt lat="43.0887383" lon="11.6842531"><ele>453.0</ele><time>2026-03-29T14:09:46.124Z</time></trkpt><trkpt lat="43.0888853" lon="11.6843757"><ele>452.33333333333337</ele><time>2026-03-29T14:09:47.112Z</time></trkpt><trkpt lat="43.0890304" lon="11.6845242"><ele>451.6666666666667</ele><time>2026-03-29T14:09:48.117Z</time></trkpt><trkpt lat="43.0891947" lon="11.6847018"><ele>451.0</ele><time>2026-03-29T14:09:49.129Z</time></trkpt><trkpt lat="43.0893413" lon="11.6848787"><ele>449.6666666666667</ele><time>2026-03-29T14:09:50.092Z</time></trkpt><trkpt lat="43.0895008" lon="11.6850637"><ele>448.33333333333337</ele><time>2026-03-29T14:09:51.118Z</time></trkpt><trkpt lat="43.0896633" lon="11.6852432"><ele>447.0</ele><time>2026-03-29T14:09:52.094Z</time></trkpt><trkpt lat="43.0898371" lon="11.6854368"><ele>445.66666666666663</ele><time>2026-03-29T14:09:53.128Z</time></trkpt><trkpt lat="43.0900037" lon="11.6856151"><ele>444.3333333333333</ele><time>2026-03-29T14:09:54.105Z</time></trkpt><trkpt lat="43.0901692" lon="11.6857949"><ele>443.0</ele><time>2026-03-29T14:09:55.134Z</time></trkpt><trkpt lat="43.0903248" lon="11.6859585"><ele>442.3333333333333</ele><time>2026-03-29T14:09:56.107Z</time></trkpt><trkpt lat="43.0904764" lon="11.6861095"><ele>441.66666666666663</ele><time>2026-03-29T14:09:57.101Z</time></trkpt><trkpt lat="43.0906453" lon="11.6862358"><ele>441.0</ele><time>2026-03-29T14:09:58.105Z</time></trkpt><trkpt lat="43.0908229" lon="11.686341"><ele>441.0</ele><time>2026-03-29T14:09:59.103Z</time></trkpt><trkpt lat="43.0910065" lon="11.6864256"><ele>441.0</ele><time>2026-03-29T14:10:00.13Z</time></trkpt><trkpt lat="43.0911861" lon="11.6865089"><ele>441.0</ele><time>2026-03-29T14:10:01.113Z</time></trkpt><trkpt lat="43.091356" lon="11.6865956"><ele>441.0</ele><time>2026-03-29T14:10:02.104Z</time></trkpt><trkpt lat="43.0915058" lon="11.6866889"><ele>441.0</ele><time>2026-03-29T14:10:03.096Z</time></trkpt><trkpt lat="43.0916394" lon="11.686791"><ele>441.0</ele><time>2026-03-29T14:10:04.111Z</time></trkpt><trkpt lat="43.0917441" lon="11.6869029"><ele>439.75</ele><time>2026-03-29T14:10:05.092Z</time></trkpt><trkpt lat="43.0918324" lon="11.6870616"><ele>438.5</ele><time>2026-03-29T14:10:06.132Z</time></trkpt><trkpt lat="43.0918801" lon="11.6872564"><ele>437.25</ele><time>2026-03-29T14:10:07.106Z</time></trkpt><trkpt lat="43.0918997" lon="11.6874635"><ele>436.0</ele><time>2026-03-29T14:10:08.108Z</time></trkpt><trkpt lat="43.0919387" lon="11.6876546"><ele>436.25</ele><time>2026-03-29T14:10:09.127Z</time></trkpt><trkpt lat="43.0919944" lon="11.687834"><ele>436.5</ele><time>2026-03-29T14:10:10.146Z</time></trkpt><trkpt lat="43.0920479" lon="11.6879871"><ele>436.75</ele><time>2026-03-29T14:10:11.101Z</time></trkpt><trkpt lat="43.0921476" lon="11.6881284"><ele>437.0</ele><time>2026-03-29T14:10:12.1Z</time></trkpt><trkpt lat="43.092303" lon="11.688282"><ele>433.0</ele><time>2026-03-29T14:10:13.099Z</time></trkpt><trkpt lat="43.0925265" lon="11.6884103"><ele>429.0</ele><time>2026-03-29T14:10:14.099Z</time></trkpt><trkpt lat="43.0927641" lon="11.6885551"><ele>430.0</ele><time>2026-03-29T14:10:15.114Z</time></trkpt><trkpt lat="43.093029" lon="11.6887108"><ele>431.0</ele><time>2026-03-29T14:10:16.138Z</time></trkpt><trkpt lat="43.093264" lon="11.6888369"><ele>428.5</ele><time>2026-03-29T14:10:17.11Z</time></trkpt><trkpt lat="43.0934876" lon="11.6889474"><ele>426.0</ele><time>2026-03-29T14:10:18.105Z</time></trkpt><trkpt lat="43.0937149" lon="11.689028"><ele>426.0</ele><time>2026-03-29T14:10:19.114Z</time></trkpt><trkpt lat="43.0939475" lon="11.6890759"><ele>426.0</ele><time>2026-03-29T14:10:20.1Z</time></trkpt><trkpt lat="43.0941904" lon="11.6890821"><ele>426.5</ele><time>2026-03-29T14:10:21.1Z</time></trkpt><trkpt lat="43.094424" lon="11.6890923"><ele>427.0</ele><time>2026-03-29T14:10:22.101Z</time></trkpt><trkpt lat="43.0946455" lon="11.6891229"><ele>427.0</ele><time>2026-03-29T14:10:23.097Z</time></trkpt><trkpt lat="43.0948382" lon="11.6891925"><ele>427.0</ele><time>2026-03-29T14:10:24.099Z</time></trkpt><trkpt lat="43.0950368" lon="11.6892878"><ele>427.0</ele><time>2026-03-29T14:10:25.113Z</time></trkpt><trkpt lat="43.0952333" lon="11.689432"><ele>424.5</ele><time>2026-03-29T14:10:26.114Z</time></trkpt><trkpt lat="43.0954476" lon="11.6896249"><ele>422.0</ele><time>2026-03-29T14:10:27.103Z</time></trkpt><trkpt lat="43.0956541" lon="11.6898461"><ele>421.5</ele><time>2026-03-29T14:10:28.094Z</time></trkpt><trkpt lat="43.0958602" lon="11.6900822"><ele>421.0</ele><time>2026-03-29T14:10:29.106Z</time></trkpt><trkpt lat="43.0960291" lon="11.6903129"><ele>420.0</ele><time>2026-03-29T14:10:30.098Z</time></trkpt><trkpt lat="43.0961901" lon="11.6905033"><ele>419.0</ele><time>2026-03-29T14:10:31.104Z</time></trkpt><trkpt lat="43.0963124" lon="11.6906635"><ele>418.0</ele><time>2026-03-29T14:10:32.096Z</time></trkpt><trkpt lat="43.096418" lon="11.6908292"><ele>418.0</ele><time>2026-03-29T14:10:33.087Z</time></trkpt><trkpt lat="43.0965139" lon="11.6910079"><ele>418.0</ele><time>2026-03-29T14:10:34.101Z</time></trkpt><trkpt lat="43.0966002" lon="11.6912199"><ele>418.0</ele><time>2026-03-29T14:10:35.101Z</time></trkpt><trkpt lat="43.0966811" lon="11.6914496"><ele>418.33333333333337</ele><time>2026-03-29T14:10:36.12Z</time></trkpt><trkpt lat="43.0967398" lon="11.6916732"><ele>418.66666666666663</ele><time>2026-03-29T14:10:37.101Z</time></trkpt><trkpt lat="43.0967449" lon="11.6919871"><ele>419.0</ele><time>2026-03-29T14:10:38.127Z</time></trkpt><trkpt lat="43.096685" lon="11.6923597"><ele>419.0</ele><time>2026-03-29T14:10:39.114Z</time></trkpt><trkpt lat="43.0966315" lon="11.692659"><ele>419.0</ele><time>2026-03-29T14:10:40.096Z</time></trkpt><trkpt lat="43.0966205" lon="11.6928946"><ele>419.0</ele><time>2026-03-29T14:10:41.11Z</time></trkpt><trkpt lat="43.0966386" lon="11.6930897"><ele>418.66666666666663</ele><time>2026-03-29T14:10:42.095Z</time></trkpt><trkpt lat="43.0966969" lon="11.69328"><ele>418.33333333333337</ele><time>2026-03-29T14:10:43.116Z</time></trkpt><trkpt lat="43.0967879" lon="11.6934404"><ele>418.0</ele><time>2026-03-29T14:10:44.089Z</time></trkpt><trkpt lat="43.0969413" lon="11.693593"><ele>418.0</ele><time>2026-03-29T14:10:45.106Z</time></trkpt><trkpt lat="43.0971561" lon="11.6937456"><ele>418.0</ele><time>2026-03-29T14:10:46.112Z</time></trkpt><trkpt lat="43.097385" lon="11.6939299"><ele>420.0</ele><time>2026-03-29T14:10:47.115Z</time></trkpt><trkpt lat="43.0976106" lon="11.6941233"><ele>422.0</ele><time>2026-03-29T14:10:48.098Z</time></trkpt><trkpt lat="43.0977878" lon="11.6943374"><ele>424.0</ele><time>2026-03-29T14:10:49.095Z</time></trkpt><trkpt lat="43.0980071" lon="11.6945564"><ele>426.0</ele><time>2026-03-29T14:10:50.103Z</time></trkpt><trkpt lat="43.0982328" lon="11.6947827"><ele>426.5</ele><time>2026-03-29T14:10:51.114Z</time></trkpt><trkpt lat="43.098434" lon="11.6950109"><ele>427.0</ele><time>2026-03-29T14:10:52.099Z</time></trkpt><trkpt lat="43.0986311" lon="11.6952408"><ele>429.0</ele><time>2026-03-29T14:10:53.121Z</time></trkpt><trkpt lat="43.0988135" lon="11.6954496"><ele>431.0</ele><time>2026-03-29T14:10:54.097Z</time></trkpt><trkpt lat="43.0990114" lon="11.6956611"><ele>433.0</ele><time>2026-03-29T14:10:55.087Z</time></trkpt><trkpt lat="43.099195" lon="11.6958558"><ele>435.0</ele><time>2026-03-29T14:10:56.111Z</time></trkpt><trkpt lat="43.0993554" lon="11.6960298"><ele>437.0</ele><time>2026-03-29T14:10:57.101Z</time></trkpt><trkpt lat="43.0995086" lon="11.6961907"><ele>437.66666666666663</ele><time>2026-03-29T14:10:58.118Z</time></trkpt><trkpt lat="43.0996608" lon="11.6963266"><ele>438.33333333333337</ele><time>2026-03-29T14:10:59.097Z</time></trkpt><trkpt lat="43.0998535" lon="11.6964317"><ele>439.0</ele><time>2026-03-29T14:11:00.131Z</time></trkpt><trkpt lat="43.1000396" lon="11.6965101"><ele>443.0</ele><time>2026-03-29T14:11:01.103Z</time></trkpt><trkpt lat="43.1002615" lon="11.6965721"><ele>447.0</ele><time>2026-03-29T14:11:02.097Z</time></trkpt><trkpt lat="43.1004909" lon="11.6966037"><ele>447.0</ele><time>2026-03-29T14:11:03.132Z</time></trkpt><trkpt lat="43.1006953" lon="11.6966132"><ele>447.0</ele><time>2026-03-29T14:11:04.136Z</time></trkpt><trkpt lat="43.1008869" lon="11.6966409"><ele>447.0</ele><time>2026-03-29T14:11:05.137Z</time></trkpt><trkpt lat="43.1010582" lon="11.6966899"><ele>448.33333333333337</ele><time>2026-03-29T14:11:06.107Z</time></trkpt><trkpt lat="43.1012325" lon="11.696765"><ele>449.6666666666667</ele><time>2026-03-29T14:11:07.109Z</time></trkpt><trkpt lat="43.1014081" lon="11.6968726"><ele>451.0</ele><time>2026-03-29T14:11:08.111Z</time></trkpt><trkpt lat="43.1015803" lon="11.6970198"><ele>455.6666666666667</ele><time>2026-03-29T14:11:09.112Z</time></trkpt><trkpt lat="43.1017485" lon="11.697195"><ele>460.33333333333337</ele><time>2026-03-29T14:11:10.151Z</time></trkpt><trkpt lat="43.1019093" lon="11.6973714"><ele>465.0</ele><time>2026-03-29T14:11:11.14Z</time></trkpt><trkpt lat="43.1020856" lon="11.6975731"><ele>464.33333333333337</ele><time>2026-03-29T14:11:12.161Z</time></trkpt><trkpt lat="43.1022411" lon="11.697772"><ele>463.6666666666667</ele><time>2026-03-29T14:11:13.102Z</time></trkpt><trkpt lat="43.1023878" lon="11.6979843"><ele>463.0</ele><time>2026-03-29T14:11:14.085Z</time></trkpt><trkpt lat="43.1025029" lon="11.6982075"><ele>463.0</ele><time>2026-03-29T14:11:15.098Z</time></trkpt><trkpt lat="43.1025981" lon="11.6984216"><ele>463.0</ele><time>2026-03-29T14:11:16.094Z</time></trkpt><trkpt lat="43.1026902" lon="11.6986301"><ele>463.0</ele><time>2026-03-29T14:11:17.093Z</time></trkpt><trkpt lat="43.1027731" lon="11.698845"><ele>467.33333333333337</ele><time>2026-03-29T14:11:18.101Z</time></trkpt><trkpt lat="43.1028601" lon="11.6990575"><ele>471.66666666666663</ele><time>2026-03-29T14:11:19.118Z</time></trkpt><trkpt lat="43.1029527" lon="11.6992663"><ele>476.0</ele><time>2026-03-29T14:11:20.108Z</time></trkpt><trkpt lat="43.1030485" lon="11.699486"><ele>476.3333333333333</ele><time>2026-03-29T14:11:21.1Z</time></trkpt><trkpt lat="43.1031406" lon="11.6997097"><ele>476.66666666666663</ele><time>2026-03-29T14:11:22.103Z</time></trkpt><trkpt lat="43.103226" lon="11.6999323"><ele>477.0</ele><time>2026-03-29T14:11:23.099Z</time></trkpt><trkpt lat="43.1033174" lon="11.7001652"><ele>473.0</ele><time>2026-03-29T14:11:24.13Z</time></trkpt><trkpt lat="43.1034241" lon="11.7003608"><ele>469.0</ele><time>2026-03-29T14:11:25.136Z</time></trkpt><trkpt lat="43.1035358" lon="11.7005335"><ele>465.0</ele><time>2026-03-29T14:11:26.108Z</time></trkpt><trkpt lat="43.103666" lon="11.7006978"><ele>465.0</ele><time>2026-03-29T14:11:27.103Z</time></trkpt><trkpt lat="43.1037903" lon="11.7008679"><ele>465.0</ele><time>2026-03-29T14:11:28.128Z</time></trkpt><trkpt lat="43.1038952" lon="11.7010453"><ele>465.0</ele><time>2026-03-29T14:11:29.111Z</time></trkpt><trkpt lat="43.1039833" lon="11.7012307"><ele>466.0</ele><time>2026-03-29T14:11:30.101Z</time></trkpt><trkpt lat="43.1040618" lon="11.7014196"><ele>467.0</ele><time>2026-03-29T14:11:31.135Z</time></trkpt><trkpt lat="43.1041033" lon="11.7015946"><ele>468.0</ele><time>2026-03-29T14:11:32.096Z</time></trkpt><trkpt lat="43.1041424" lon="11.7017633"><ele>469.0</ele><time>2026-03-29T14:11:33.118Z</time></trkpt><trkpt lat="43.104178" lon="11.7019253"><ele>470.0</ele><time>2026-03-29T14:11:34.115Z</time></trkpt><trkpt lat="43.1042042" lon="11.7020882"><ele>471.0</ele><time>2026-03-29T14:11:35.094Z</time></trkpt><trkpt lat="43.1042226" lon="11.7022585"><ele>472.0</ele><time>2026-03-29T14:11:36.098Z</time></trkpt><trkpt lat="43.104233" lon="11.7024199"><ele>473.0</ele><time>2026-03-29T14:11:37.093Z</time></trkpt><trkpt lat="43.1042148" lon="11.7026013"><ele>473.0</ele><time>2026-03-29T14:11:38.139Z</time></trkpt><trkpt lat="43.1041758" lon="11.7027695"><ele>473.0</ele><time>2026-03-29T14:11:39.107Z</time></trkpt><trkpt lat="43.1041105" lon="11.7029418"><ele>473.0</ele><time>2026-03-29T14:11:40.1Z</time></trkpt><trkpt lat="43.1040163" lon="11.7031302"><ele>473.0</ele><time>2026-03-29T14:11:41.104Z</time></trkpt><trkpt lat="43.1039097" lon="11.7033282"><ele>473.0</ele><time>2026-03-29T14:11:42.106Z</time></trkpt><trkpt lat="43.1037606" lon="11.7035415"><ele>473.0</ele><time>2026-03-29T14:11:43.11Z</time></trkpt><trkpt lat="43.103593" lon="11.703754"><ele>473.0</ele><time>2026-03-29T14:11:44.113Z</time></trkpt><trkpt lat="43.1034772" lon="11.703948"><ele>473.75</ele><time>2026-03-29T14:11:45.103Z</time></trkpt><trkpt lat="43.1033809" lon="11.7041363"><ele>474.5</ele><time>2026-03-29T14:11:46.111Z</time></trkpt><trkpt lat="43.1033535" lon="11.7043187"><ele>475.25</ele><time>2026-03-29T14:11:47.106Z</time></trkpt><trkpt lat="43.103388" lon="11.7044933"><ele>476.0</ele><time>2026-03-29T14:11:48.098Z</time></trkpt><trkpt lat="43.1034557" lon="11.7046494"><ele>473.66666666666663</ele><time>2026-03-29T14:11:49.111Z</time></trkpt><trkpt lat="43.1035595" lon="11.7047755"><ele>471.33333333333337</ele><time>2026-03-29T14:11:50.105Z</time></trkpt><trkpt lat="43.1036897" lon="11.7048741"><ele>469.0</ele><time>2026-03-29T14:11:51.097Z</time></trkpt><trkpt lat="43.1038469" lon="11.7049339"><ele>469.0</ele><time>2026-03-29T14:11:52.095Z</time></trkpt><trkpt lat="43.1040741" lon="11.7049895"><ele>469.0</ele><time>2026-03-29T14:11:53.112Z</time></trkpt><trkpt lat="43.1043466" lon="11.7050384"><ele>471.0</ele><time>2026-03-29T14:11:54.104Z</time></trkpt><trkpt lat="43.1045692" lon="11.7050936"><ele>473.0</ele><time>2026-03-29T14:11:55.131Z</time></trkpt><trkpt lat="43.1047296" lon="11.7051826"><ele>475.0</ele><time>2026-03-29T14:11:56.144Z</time></trkpt><trkpt lat="43.1048657" lon="11.7053018"><ele>479.6666666666667</ele><time>2026-03-29T14:11:57.104Z</time></trkpt><trkpt lat="43.1049943" lon="11.7054451"><ele>484.33333333333337</ele><time>2026-03-29T14:11:58.107Z</time></trkpt><trkpt lat="43.1051083" lon="11.7056177"><ele>489.0</ele><time>2026-03-29T14:11:59.098Z</time></trkpt><trkpt lat="43.1052222" lon="11.7057965"><ele>489.0</ele><time>2026-03-29T14:12:00.101Z</time></trkpt><trkpt lat="43.1053293" lon="11.7059785"><ele>489.0</ele><time>2026-03-29T14:12:01.114Z</time></trkpt><trkpt lat="43.10541" lon="11.7061463"><ele>489.0</ele><time>2026-03-29T14:12:02.094Z</time></trkpt><trkpt lat="43.1054919" lon="11.7063123"><ele>486.75</ele><time>2026-03-29T14:12:03.099Z</time></trkpt><trkpt lat="43.1055829" lon="11.7064688"><ele>484.5</ele><time>2026-03-29T14:12:04.095Z</time></trkpt><trkpt lat="43.1056875" lon="11.7066154"><ele>482.25</ele><time>2026-03-29T14:12:05.112Z</time></trkpt><trkpt lat="43.1058072" lon="11.7067376"><ele>480.0</ele><time>2026-03-29T14:12:06.113Z</time></trkpt><trkpt lat="43.1059387" lon="11.7068388"><ele>482.0</ele><time>2026-03-29T14:12:07.101Z</time></trkpt><trkpt lat="43.1060719" lon="11.7069253"><ele>484.0</ele><time>2026-03-29T14:12:08.102Z</time></trkpt><trkpt lat="43.1062056" lon="11.7069819"><ele>486.0</ele><time>2026-03-29T14:12:09.096Z</time></trkpt><trkpt lat="43.1063523" lon="11.7070514"><ele>488.0</ele><time>2026-03-29T14:12:10.106Z</time></trkpt><trkpt lat="43.1064977" lon="11.7071551"><ele>490.0</ele><time>2026-03-29T14:12:11.1Z</time></trkpt><trkpt lat="43.1066273" lon="11.7072822"><ele>492.0</ele><time>2026-03-29T14:12:12.09Z</time></trkpt><trkpt lat="43.1067448" lon="11.7074558"><ele>494.0</ele><time>2026-03-29T14:12:13.107Z</time></trkpt><trkpt lat="43.1068416" lon="11.7076399"><ele>494.3333333333333</ele><time>2026-03-29T14:12:14.099Z</time></trkpt><trkpt lat="43.106931" lon="11.7078223"><ele>494.66666666666663</ele><time>2026-03-29T14:12:15.109Z</time></trkpt><trkpt lat="43.1070123" lon="11.7080083"><ele>495.0</ele><time>2026-03-29T14:12:16.099Z</time></trkpt><trkpt lat="43.1070632" lon="11.7082175"><ele>495.0</ele><time>2026-03-29T14:12:17.104Z</time></trkpt><trkpt lat="43.1070824" lon="11.7084088"><ele>495.0</ele><time>2026-03-29T14:12:18.106Z</time></trkpt><trkpt lat="43.1070857" lon="11.7085864"><ele>495.0</ele><time>2026-03-29T14:12:19.112Z</time></trkpt><trkpt lat="43.1070565" lon="11.7087354"><ele>495.0</ele><time>2026-03-29T14:12:20.121Z</time></trkpt><trkpt lat="43.1069177" lon="11.7088379"><ele>497.33333333333337</ele><time>2026-03-29T14:12:21.115Z</time></trkpt><trkpt lat="43.1067617" lon="11.7089093"><ele>499.6666666666667</ele><time>2026-03-29T14:12:22.094Z</time></trkpt><trkpt lat="43.1065789" lon="11.7089936"><ele>502.0</ele><time>2026-03-29T14:12:23.114Z</time></trkpt><trkpt lat="43.1064444" lon="11.7090934"><ele>499.75</ele><time>2026-03-29T14:12:24.103Z</time></trkpt><trkpt lat="43.1063616" lon="11.7092247"><ele>497.5</ele><time>2026-03-29T14:12:25.107Z</time></trkpt><trkpt lat="43.1063309" lon="11.7093866"><ele>495.25</ele><time>2026-03-29T14:12:26.116Z</time></trkpt><trkpt lat="43.1063218" lon="11.7095574"><ele>493.0</ele><time>2026-03-29T14:12:27.105Z</time></trkpt><trkpt lat="43.1063376" lon="11.7097455"><ele>493.0</ele><time>2026-03-29T14:12:28.161Z</time></trkpt><trkpt lat="43.1063623" lon="11.7099072"><ele>493.0</ele><time>2026-03-29T14:12:29.097Z</time></trkpt><trkpt lat="43.1063789" lon="11.7100857"><ele>493.0</ele><time>2026-03-29T14:12:30.114Z</time></trkpt><trkpt lat="43.1063909" lon="11.710273"><ele>493.0</ele><time>2026-03-29T14:12:31.115Z</time></trkpt><trkpt lat="43.1063967" lon="11.7104646"><ele>495.25</ele><time>2026-03-29T14:12:32.107Z</time></trkpt><trkpt lat="43.1063845" lon="11.7106462"><ele>497.5</ele><time>2026-03-29T14:12:33.101Z</time></trkpt><trkpt lat="43.1063626" lon="11.7108258"><ele>499.75</ele><time>2026-03-29T14:12:34.102Z</time></trkpt><trkpt lat="43.1063087" lon="11.7109951"><ele>502.0</ele><time>2026-03-29T14:12:35.115Z</time></trkpt><trkpt lat="43.1062394" lon="11.7111565"><ele>504.0</ele><time>2026-03-29T14:12:36.117Z</time></trkpt><trkpt lat="43.1061525" lon="11.7113229"><ele>506.0</ele><time>2026-03-29T14:12:37.106Z</time></trkpt><trkpt lat="43.1060625" lon="11.7114907"><ele>508.0</ele><time>2026-03-29T14:12:38.096Z</time></trkpt><trkpt lat="43.1059764" lon="11.7116613"><ele>508.0</ele><time>2026-03-29T14:12:39.105Z</time></trkpt><trkpt lat="43.1059008" lon="11.7118405"><ele>508.0</ele><time>2026-03-29T14:12:40.121Z</time></trkpt><trkpt lat="43.1058135" lon="11.7120343"><ele>508.0</ele><time>2026-03-29T14:12:41.122Z</time></trkpt><trkpt lat="43.1057274" lon="11.7122237"><ele>506.6666666666667</ele><time>2026-03-29T14:12:42.1Z</time></trkpt><trkpt lat="43.1056744" lon="11.7124316"><ele>505.33333333333337</ele><time>2026-03-29T14:12:43.103Z</time></trkpt><trkpt lat="43.1056307" lon="11.7126418"><ele>504.0</ele><time>2026-03-29T14:12:44.107Z</time></trkpt><trkpt lat="43.1055939" lon="11.7128421"><ele>502.25</ele><time>2026-03-29T14:12:45.095Z</time></trkpt><trkpt lat="43.1055475" lon="11.7130462"><ele>500.5</ele><time>2026-03-29T14:12:46.108Z</time></trkpt><trkpt lat="43.1054966" lon="11.7132339"><ele>498.75</ele><time>2026-03-29T14:12:47.097Z</time></trkpt><trkpt lat="43.1054539" lon="11.7134225"><ele>497.0</ele><time>2026-03-29T14:12:48.113Z</time></trkpt><trkpt lat="43.1054297" lon="11.7136125"><ele>497.0</ele><time>2026-03-29T14:12:49.111Z</time></trkpt><trkpt lat="43.1054201" lon="11.713816"><ele>497.0</ele><time>2026-03-29T14:12:50.101Z</time></trkpt><trkpt lat="43.1054234" lon="11.7140493"><ele>497.0</ele><time>2026-03-29T14:12:51.103Z</time></trkpt><trkpt lat="43.1054209" lon="11.7142885"><ele>498.0</ele><time>2026-03-29T14:12:52.098Z</time></trkpt><trkpt lat="43.1054248" lon="11.7145238"><ele>499.0</ele><time>2026-03-29T14:12:53.091Z</time></trkpt><trkpt lat="43.1054149" lon="11.7147703"><ele>500.0</ele><time>2026-03-29T14:12:54.104Z</time></trkpt><trkpt lat="43.1053946" lon="11.7150102"><ele>500.0</ele><time>2026-03-29T14:12:55.103Z</time></trkpt><trkpt lat="43.105377" lon="11.7152373"><ele>500.0</ele><time>2026-03-29T14:12:56.118Z</time></trkpt><trkpt lat="43.1053577" lon="11.7154457"><ele>500.0</ele><time>2026-03-29T14:12:57.122Z</time></trkpt><trkpt lat="43.1053513" lon="11.7156272"><ele>500.25</ele><time>2026-03-29T14:12:58.104Z</time></trkpt><trkpt lat="43.1053519" lon="11.7158081"><ele>500.5</ele><time>2026-03-29T14:12:59.111Z</time></trkpt><trkpt lat="43.1053708" lon="11.715961"><ele>500.75</ele><time>2026-03-29T14:13:00.099Z</time></trkpt><trkpt lat="43.1054182" lon="11.7161228"><ele>501.0</ele><time>2026-03-29T14:13:01.143Z</time></trkpt><trkpt lat="43.1054782" lon="11.7162755"><ele>501.0</ele><time>2026-03-29T14:13:02.113Z</time></trkpt><trkpt lat="43.1055643" lon="11.7164168"><ele>501.0</ele><time>2026-03-29T14:13:03.102Z</time></trkpt><trkpt lat="43.1056745" lon="11.716589"><ele>501.0</ele><time>2026-03-29T14:13:04.149Z</time></trkpt><trkpt lat="43.1058148" lon="11.7167246"><ele>501.0</ele><time>2026-03-29T14:13:05.093Z</time></trkpt><trkpt lat="43.1059726" lon="11.7168646"><ele>501.0</ele><time>2026-03-29T14:13:06.123Z</time></trkpt><trkpt lat="43.1060818" lon="11.7170098"><ele>501.0</ele><time>2026-03-29T14:13:07.11Z</time></trkpt><trkpt lat="43.1061835" lon="11.7171331"><ele>500.75</ele><time>2026-03-29T14:13:08.102Z</time></trkpt><trkpt lat="43.1062866" lon="11.7172547"><ele>500.5</ele><time>2026-03-29T14:13:09.097Z</time></trkpt><trkpt lat="43.1063873" lon="11.7173728"><ele>500.25</ele><time>2026-03-29T14:13:10.096Z</time></trkpt><trkpt lat="43.1064738" lon="11.7174797"><ele>500.0</ele><time>2026-03-29T14:13:11.106Z</time></trkpt><trkpt lat="43.1065633" lon="11.7175802"><ele>499.8</ele><time>2026-03-29T14:13:12.103Z</time></trkpt><trkpt lat="43.1066467" lon="11.7176846"><ele>499.6</ele><time>2026-03-29T14:13:13.112Z</time></trkpt><trkpt lat="43.1067284" lon="11.7177765"><ele>499.4</ele><time>2026-03-29T14:13:14.098Z</time></trkpt><trkpt lat="43.1068176" lon="11.7178717"><ele>499.2</ele><time>2026-03-29T14:13:15.125Z</time></trkpt><trkpt lat="43.1068981" lon="11.7179699"><ele>499.0</ele><time>2026-03-29T14:13:16.102Z</time></trkpt><trkpt lat="43.106976" lon="11.7180853"><ele>498.0</ele><time>2026-03-29T14:13:17.107Z</time></trkpt><trkpt lat="43.10705" lon="11.7182129"><ele>497.0</ele><time>2026-03-29T14:13:18.103Z</time></trkpt><trkpt lat="43.107121" lon="11.7183549"><ele>496.0</ele><time>2026-03-29T14:13:19.101Z</time></trkpt><trkpt lat="43.1071968" lon="11.7185179"><ele>495.0</ele><time>2026-03-29T14:13:20.12Z</time></trkpt><trkpt lat="43.1072789" lon="11.718684"><ele>494.75</ele><time>2026-03-29T14:13:21.123Z</time></trkpt><trkpt lat="43.1073618" lon="11.7188548"><ele>494.5</ele><time>2026-03-29T14:13:22.103Z</time></trkpt><trkpt lat="43.1074486" lon="11.7190274"><ele>494.25</ele><time>2026-03-29T14:13:23.101Z</time></trkpt><trkpt lat="43.1075287" lon="11.7191955"><ele>494.0</ele><time>2026-03-29T14:13:24.095Z</time></trkpt><trkpt lat="43.1076063" lon="11.719366"><ele>494.0</ele><time>2026-03-29T14:13:25.119Z</time></trkpt><trkpt lat="43.1076796" lon="11.7195246"><ele>494.0</ele><time>2026-03-29T14:13:26.091Z</time></trkpt><trkpt lat="43.1077563" lon="11.7196836"><ele>494.0</ele><time>2026-03-29T14:13:27.104Z</time></trkpt><trkpt lat="43.1078358" lon="11.7198398"><ele>494.0</ele><time>2026-03-29T14:13:28.116Z</time></trkpt><trkpt lat="43.1079157" lon="11.7199921"><ele>494.0</ele><time>2026-03-29T14:13:29.103Z</time></trkpt><trkpt lat="43.1079982" lon="11.7201561"><ele>494.0</ele><time>2026-03-29T14:13:30.136Z</time></trkpt><trkpt lat="43.10808" lon="11.720314"><ele>494.0</ele><time>2026-03-29T14:13:31.105Z</time></trkpt><trkpt lat="43.1081657" lon="11.7204801"><ele>494.0</ele><time>2026-03-29T14:13:32.126Z</time></trkpt><trkpt lat="43.1082472" lon="11.7206377"><ele>495.3333333333333</ele><time>2026-03-29T14:13:33.104Z</time></trkpt><trkpt lat="43.1083327" lon="11.7208031"><ele>496.66666666666663</ele><time>2026-03-29T14:13:34.099Z</time></trkpt><trkpt lat="43.1084209" lon="11.720977"><ele>498.0</ele><time>2026-03-29T14:13:35.101Z</time></trkpt><trkpt lat="43.1085053" lon="11.721159"><ele>498.0</ele><time>2026-03-29T14:13:36.103Z</time></trkpt><trkpt lat="43.1085786" lon="11.7213435"><ele>498.0</ele><time>2026-03-29T14:13:37.099Z</time></trkpt><trkpt lat="43.108643" lon="11.7215422"><ele>498.0</ele><time>2026-03-29T14:13:38.113Z</time></trkpt><trkpt lat="43.1087081" lon="11.7217536"><ele>497.0</ele><time>2026-03-29T14:13:39.135Z</time></trkpt><trkpt lat="43.1087621" lon="11.7219766"><ele>496.0</ele><time>2026-03-29T14:13:40.154Z</time></trkpt><trkpt lat="43.1088088" lon="11.7221937"><ele>495.0</ele><time>2026-03-29T14:13:41.141Z</time></trkpt><trkpt lat="43.1088509" lon="11.7224068"><ele>495.0</ele><time>2026-03-29T14:13:42.125Z</time></trkpt><trkpt lat="43.1088813" lon="11.7226281"><ele>495.0</ele><time>2026-03-29T14:13:43.106Z</time></trkpt><trkpt lat="43.1089061" lon="11.7228381"><ele>495.0</ele><time>2026-03-29T14:13:44.095Z</time></trkpt><trkpt lat="43.1089155" lon="11.7230536"><ele>494.0</ele><time>2026-03-29T14:13:45.096Z</time></trkpt><trkpt lat="43.1089034" lon="11.7232739"><ele>493.0</ele><time>2026-03-29T14:13:46.117Z</time></trkpt><trkpt lat="43.1088599" lon="11.7234857"><ele>492.0</ele><time>2026-03-29T14:13:47.153Z</time></trkpt><trkpt lat="43.1088082" lon="11.7236697"><ele>490.75</ele><time>2026-03-29T14:13:48.113Z</time></trkpt><trkpt lat="43.1087428" lon="11.7238307"><ele>489.5</ele><time>2026-03-29T14:13:49.108Z</time></trkpt><trkpt lat="43.1086612" lon="11.7239724"><ele>488.25</ele><time>2026-03-29T14:13:50.095Z</time></trkpt><trkpt lat="43.1085734" lon="11.7241207"><ele>487.0</ele><time>2026-03-29T14:13:51.111Z</time></trkpt><trkpt lat="43.1084775" lon="11.7242466"><ele>487.0</ele><time>2026-03-29T14:13:52.121Z</time></trkpt><trkpt lat="43.1083607" lon="11.7243054"><ele>487.0</ele><time>2026-03-29T14:13:53.121Z</time></trkpt><trkpt lat="43.1082127" lon="11.7243074"><ele>487.0</ele><time>2026-03-29T14:13:54.098Z</time></trkpt><trkpt lat="43.1079869" lon="11.7242701"><ele>487.0</ele><time>2026-03-29T14:13:55.123Z</time></trkpt><trkpt lat="43.1077683" lon="11.7242101"><ele>487.0</ele><time>2026-03-29T14:13:56.098Z</time></trkpt><trkpt lat="43.1075056" lon="11.7241268"><ele>487.5</ele><time>2026-03-29T14:13:57.112Z</time></trkpt><trkpt lat="43.1072206" lon="11.7240124"><ele>488.0</ele><time>2026-03-29T14:13:58.102Z</time></trkpt><trkpt lat="43.1069953" lon="11.7239397"><ele>488.0</ele><time>2026-03-29T14:13:59.089Z</time></trkpt><trkpt lat="43.1068567" lon="11.7239249"><ele>488.0</ele><time>2026-03-29T14:14:00.103Z</time></trkpt><trkpt lat="43.1067063" lon="11.723912"><ele>488.0</ele><time>2026-03-29T14:14:01.122Z</time></trkpt><trkpt lat="43.1065679" lon="11.7239169"><ele>488.0</ele><time>2026-03-29T14:14:02.149Z</time></trkpt><trkpt lat="43.1064396" lon="11.7239248"><ele>488.5</ele><time>2026-03-29T14:14:03.096Z</time></trkpt><trkpt lat="43.1063134" lon="11.7239167"><ele>489.0</ele><time>2026-03-29T14:14:04.113Z</time></trkpt><trkpt lat="43.1061711" lon="11.7239015"><ele>489.5</ele><time>2026-03-29T14:14:05.113Z</time></trkpt><trkpt lat="43.1060269" lon="11.7238735"><ele>490.0</ele><time>2026-03-29T14:14:06.103Z</time></trkpt><trkpt lat="43.105882" lon="11.7238116"><ele>489.33333333333337</ele><time>2026-03-29T14:14:07.132Z</time></trkpt><trkpt lat="43.1057388" lon="11.7237378"><ele>488.66666666666663</ele><time>2026-03-29T14:14:08.112Z</time></trkpt><trkpt lat="43.1055938" lon="11.7236589"><ele>488.0</ele><time>2026-03-29T14:14:09.13Z</time></trkpt><trkpt lat="43.1054416" lon="11.723585"><ele>489.0</ele><time>2026-03-29T14:14:10.158Z</time></trkpt><trkpt lat="43.1052939" lon="11.7235187"><ele>490.0</ele><time>2026-03-29T14:14:11.106Z</time></trkpt><trkpt lat="43.1051333" lon="11.7234497"><ele>491.0</ele><time>2026-03-29T14:14:12.096Z</time></trkpt><trkpt lat="43.1049591" lon="11.7233963"><ele>490.0</ele><time>2026-03-29T14:14:13.1Z</time></trkpt><trkpt lat="43.1047807" lon="11.7233629"><ele>489.0</ele><time>2026-03-29T14:14:14.104Z</time></trkpt><trkpt lat="43.1045914" lon="11.7233513"><ele>488.0</ele><time>2026-03-29T14:14:15.116Z</time></trkpt><trkpt lat="43.1043883" lon="11.7233472"><ele>488.0</ele><time>2026-03-29T14:14:16.121Z</time></trkpt><trkpt lat="43.1041813" lon="11.7233471"><ele>488.0</ele><time>2026-03-29T14:14:17.104Z</time></trkpt><trkpt lat="43.1039691" lon="11.7233447"><ele>488.0</ele><time>2026-03-29T14:14:18.103Z</time></trkpt><trkpt lat="43.1037614" lon="11.7233454"><ele>487.66666666666663</ele><time>2026-03-29T14:14:19.109Z</time></trkpt><trkpt lat="43.1035649" lon="11.723359"><ele>487.33333333333337</ele><time>2026-03-29T14:14:20.096Z</time></trkpt><trkpt lat="43.1033681" lon="11.7233697"><ele>487.0</ele><time>2026-03-29T14:14:21.109Z</time></trkpt><trkpt lat="43.1031881" lon="11.7233848"><ele>487.0</ele><time>2026-03-29T14:14:22.111Z</time></trkpt><trkpt lat="43.1030212" lon="11.7233947"><ele>487.0</ele><time>2026-03-29T14:14:23.096Z</time></trkpt><trkpt lat="43.1028667" lon="11.7233966"><ele>487.0</ele><time>2026-03-29T14:14:24.107Z</time></trkpt><trkpt lat="43.102728" lon="11.7233955"><ele>487.0</ele><time>2026-03-29T14:14:25.099Z</time></trkpt><trkpt lat="43.1025937" lon="11.7234001"><ele>487.0</ele><time>2026-03-29T14:14:26.113Z</time></trkpt><trkpt lat="43.1024766" lon="11.7234034"><ele>487.0</ele><time>2026-03-29T14:14:27.089Z</time></trkpt><trkpt lat="43.1023633" lon="11.7234035"><ele>487.0</ele><time>2026-03-29T14:14:28.094Z</time></trkpt><trkpt lat="43.102246" lon="11.7234201"><ele>487.5</ele><time>2026-03-29T14:14:29.112Z</time></trkpt><trkpt lat="43.1021383" lon="11.723474"><ele>488.0</ele><time>2026-03-29T14:14:30.106Z</time></trkpt><trkpt lat="43.1020352" lon="11.7235626"><ele>488.5</ele><time>2026-03-29T14:14:31.127Z</time></trkpt><trkpt lat="43.1019428" lon="11.7237057"><ele>489.0</ele><time>2026-03-29T14:14:32.103Z</time></trkpt><trkpt lat="43.1018715" lon="11.7238934"><ele>489.0</ele><time>2026-03-29T14:14:33.102Z</time></trkpt><trkpt lat="43.101795" lon="11.7240916"><ele>489.0</ele><time>2026-03-29T14:14:34.103Z</time></trkpt><trkpt lat="43.1017103" lon="11.724351"><ele>489.0</ele><time>2026-03-29T14:14:35.23Z</time></trkpt><trkpt lat="43.101558" lon="11.7247672"><ele>489.0</ele><time>2026-03-29T14:14:37.127Z</time></trkpt><trkpt lat="43.10148" lon="11.725019"><ele>489.0</ele><time>2026-03-29T14:14:38.115Z</time></trkpt><trkpt lat="43.1014091" lon="11.7252821"><ele>489.0</ele><time>2026-03-29T14:14:39.091Z</time></trkpt><trkpt lat="43.1013448" lon="11.7255682"><ele>490.66666666666663</ele><time>2026-03-29T14:14:40.101Z</time></trkpt><trkpt lat="43.1012909" lon="11.7258622"><ele>492.3333333333333</ele><time>2026-03-29T14:14:41.148Z</time></trkpt><trkpt lat="43.1012461" lon="11.7261137"><ele>494.0</ele><time>2026-03-29T14:14:42.1Z</time></trkpt><trkpt lat="43.1011974" lon="11.726378"><ele>493.66666666666663</ele><time>2026-03-29T14:14:43.109Z</time></trkpt><trkpt lat="43.1011527" lon="11.726629"><ele>493.33333333333337</ele><time>2026-03-29T14:14:44.111Z</time></trkpt><trkpt lat="43.101113" lon="11.7268654"><ele>493.0</ele><time>2026-03-29T14:14:45.107Z</time></trkpt><trkpt lat="43.1010649" lon="11.7270917"><ele>493.0</ele><time>2026-03-29T14:14:46.117Z</time></trkpt><trkpt lat="43.1010357" lon="11.7273076"><ele>493.0</ele><time>2026-03-29T14:14:47.104Z</time></trkpt><trkpt lat="43.1009855" lon="11.7275284"><ele>493.0</ele><time>2026-03-29T14:14:48.122Z</time></trkpt><trkpt lat="43.1009065" lon="11.7277287"><ele>493.0</ele><time>2026-03-29T14:14:49.117Z</time></trkpt><trkpt lat="43.1008253" lon="11.7279239"><ele>493.0</ele><time>2026-03-29T14:14:50.099Z</time></trkpt><trkpt lat="43.1007378" lon="11.7281381"><ele>493.0</ele><time>2026-03-29T14:14:51.126Z</time></trkpt><trkpt lat="43.1006573" lon="11.7283378"><ele>493.0</ele><time>2026-03-29T14:14:52.099Z</time></trkpt><trkpt lat="43.1005724" lon="11.7285467"><ele>493.0</ele><time>2026-03-29T14:14:53.102Z</time></trkpt><trkpt lat="43.1004808" lon="11.7287453"><ele>493.0</ele><time>2026-03-29T14:14:54.101Z</time></trkpt><trkpt lat="43.1003887" lon="11.7289431"><ele>491.6666666666667</ele><time>2026-03-29T14:14:55.092Z</time></trkpt><trkpt lat="43.1002798" lon="11.7291553"><ele>490.33333333333337</ele><time>2026-03-29T14:14:56.125Z</time></trkpt><trkpt lat="43.1001748" lon="11.7293584"><ele>489.0</ele><time>2026-03-29T14:14:57.114Z</time></trkpt><trkpt lat="43.1000654" lon="11.7295737"><ele>487.33333333333337</ele><time>2026-03-29T14:14:58.104Z</time></trkpt><trkpt lat="43.0999516" lon="11.729792"><ele>485.6666666666667</ele><time>2026-03-29T14:14:59.103Z</time></trkpt><trkpt lat="43.0998362" lon="11.7300107"><ele>484.0</ele><time>2026-03-29T14:15:00.097Z</time></trkpt><trkpt lat="43.0997238" lon="11.7302256"><ele>483.0</ele><time>2026-03-29T14:15:01.114Z</time></trkpt><trkpt lat="43.0996136" lon="11.7304189"><ele>482.0</ele><time>2026-03-29T14:15:02.104Z</time></trkpt><trkpt lat="43.099505" lon="11.7306092"><ele>481.0</ele><time>2026-03-29T14:15:03.128Z</time></trkpt><trkpt lat="43.0994025" lon="11.7307883"><ele>481.0</ele><time>2026-03-29T14:15:04.102Z</time></trkpt><trkpt lat="43.0992913" lon="11.7309823"><ele>481.0</ele><time>2026-03-29T14:15:05.1Z</time></trkpt><trkpt lat="43.0991821" lon="11.7311721"><ele>481.0</ele><time>2026-03-29T14:15:06.107Z</time></trkpt><trkpt lat="43.0990771" lon="11.7313591"><ele>481.0</ele><time>2026-03-29T14:15:07.12Z</time></trkpt><trkpt lat="43.0989757" lon="11.7315341"><ele>481.0</ele><time>2026-03-29T14:15:08.105Z</time></trkpt><trkpt lat="43.0988736" lon="11.7317033"><ele>481.0</ele><time>2026-03-29T14:15:09.109Z</time></trkpt><trkpt lat="43.0987775" lon="11.7318713"><ele>483.0</ele><time>2026-03-29T14:15:10.112Z</time></trkpt><trkpt lat="43.0986894" lon="11.7320305"><ele>485.0</ele><time>2026-03-29T14:15:11.095Z</time></trkpt><trkpt lat="43.0986033" lon="11.7321967"><ele>487.0</ele><time>2026-03-29T14:15:12.106Z</time></trkpt><trkpt lat="43.0985259" lon="11.7323656"><ele>489.0</ele><time>2026-03-29T14:15:13.117Z</time></trkpt><trkpt lat="43.0984667" lon="11.7325434"><ele>490.0</ele><time>2026-03-29T14:15:14.104Z</time></trkpt><trkpt lat="43.0984154" lon="11.732749"><ele>491.0</ele><time>2026-03-29T14:15:15.148Z</time></trkpt><trkpt lat="43.0983849" lon="11.73296"><ele>492.0</ele><time>2026-03-29T14:15:16.109Z</time></trkpt><trkpt lat="43.0983744" lon="11.7332096"><ele>492.0</ele><time>2026-03-29T14:15:17.107Z</time></trkpt><trkpt lat="43.0983581" lon="11.7334737"><ele>492.0</ele><time>2026-03-29T14:15:18.109Z</time></trkpt><trkpt lat="43.0983512" lon="11.7337286"><ele>492.0</ele><time>2026-03-29T14:15:19.097Z</time></trkpt><trkpt lat="43.0983301" lon="11.7339895"><ele>493.33333333333337</ele><time>2026-03-29T14:15:20.112Z</time></trkpt><trkpt lat="43.0983131" lon="11.7342455"><ele>494.6666666666667</ele><time>2026-03-29T14:15:21.097Z</time></trkpt><trkpt lat="43.0983066" lon="11.7344902"><ele>496.0</ele><time>2026-03-29T14:15:22.109Z</time></trkpt><trkpt lat="43.0982964" lon="11.7347373"><ele>496.6666666666667</ele><time>2026-03-29T14:15:23.131Z</time></trkpt><trkpt lat="43.0982973" lon="11.7349717"><ele>497.33333333333337</ele><time>2026-03-29T14:15:24.106Z</time></trkpt><trkpt lat="43.0983102" lon="11.7352219"><ele>498.0</ele><time>2026-03-29T14:15:25.144Z</time></trkpt><trkpt lat="43.0983567" lon="11.7354509"><ele>499.0</ele><time>2026-03-29T14:15:26.157Z</time></trkpt><trkpt lat="43.0983953" lon="11.7356768"><ele>500.0</ele><time>2026-03-29T14:15:27.14Z</time></trkpt><trkpt lat="43.0984537" lon="11.7359337"><ele>501.0</ele><time>2026-03-29T14:15:28.163Z</time></trkpt><trkpt lat="43.0985038" lon="11.7361682"><ele>501.0</ele><time>2026-03-29T14:15:29.119Z</time></trkpt><trkpt lat="43.0985406" lon="11.7364308"><ele>501.0</ele><time>2026-03-29T14:15:30.141Z</time></trkpt><trkpt lat="43.0985715" lon="11.7366838"><ele>501.0</ele><time>2026-03-29T14:15:31.111Z</time></trkpt><trkpt lat="43.0985826" lon="11.736937"><ele>500.33333333333337</ele><time>2026-03-29T14:15:32.112Z</time></trkpt><trkpt lat="43.0985953" lon="11.7371819"><ele>499.6666666666667</ele><time>2026-03-29T14:15:33.105Z</time></trkpt><trkpt lat="43.0986057" lon="11.7374269"><ele>499.0</ele><time>2026-03-29T14:15:34.112Z</time></trkpt><trkpt lat="43.0986223" lon="11.7376485"><ele>498.5</ele><time>2026-03-29T14:15:35.106Z</time></trkpt><trkpt lat="43.0986525" lon="11.7378485"><ele>498.0</ele><time>2026-03-29T14:15:36.113Z</time></trkpt><trkpt lat="43.098707" lon="11.7380214"><ele>497.5</ele><time>2026-03-29T14:15:37.155Z</time></trkpt><trkpt lat="43.0987747" lon="11.7381518"><ele>497.0</ele><time>2026-03-29T14:15:38.105Z</time></trkpt><trkpt lat="43.0988389" lon="11.7383104"><ele>497.0</ele><time>2026-03-29T14:15:39.133Z</time></trkpt><trkpt lat="43.0988934" lon="11.7384768"><ele>497.0</ele><time>2026-03-29T14:15:40.105Z</time></trkpt><trkpt lat="43.0989337" lon="11.7386575"><ele>497.0</ele><time>2026-03-29T14:15:41.113Z</time></trkpt><trkpt lat="43.0989621" lon="11.7388312"><ele>497.0</ele><time>2026-03-29T14:15:42.107Z</time></trkpt><trkpt lat="43.0989624" lon="11.7390142"><ele>496.75</ele><time>2026-03-29T14:15:43.106Z</time></trkpt><trkpt lat="43.0989461" lon="11.7391963"><ele>496.5</ele><time>2026-03-29T14:15:44.109Z</time></trkpt><trkpt lat="43.0989051" lon="11.7393836"><ele>496.25</ele><time>2026-03-29T14:15:45.1Z</time></trkpt><trkpt lat="43.0988278" lon="11.7395718"><ele>496.0</ele><time>2026-03-29T14:15:46.119Z</time></trkpt><trkpt lat="43.0987276" lon="11.7397701"><ele>496.0</ele><time>2026-03-29T14:15:47.113Z</time></trkpt><trkpt lat="43.0986547" lon="11.7399688"><ele>496.0</ele><time>2026-03-29T14:15:48.104Z</time></trkpt><trkpt lat="43.0986125" lon="11.740179"><ele>496.0</ele><time>2026-03-29T14:15:49.116Z</time></trkpt><trkpt lat="43.0986136" lon="11.7403853"><ele>496.0</ele><time>2026-03-29T14:15:50.106Z</time></trkpt><trkpt lat="43.0986383" lon="11.7405958"><ele>496.0</ele><time>2026-03-29T14:15:51.113Z</time></trkpt><trkpt lat="43.0986715" lon="11.7407855"><ele>496.0</ele><time>2026-03-29T14:15:52.107Z</time></trkpt><trkpt lat="43.0986972" lon="11.7409671"><ele>496.0</ele><time>2026-03-29T14:15:53.106Z</time></trkpt><trkpt lat="43.0987233" lon="11.7411309"><ele>496.4</ele><time>2026-03-29T14:15:54.107Z</time></trkpt><trkpt lat="43.0987491" lon="11.7412928"><ele>496.8</ele><time>2026-03-29T14:15:55.126Z</time></trkpt><trkpt lat="43.0987893" lon="11.7414374"><ele>497.19999999999993</ele><time>2026-03-29T14:15:56.119Z</time></trkpt><trkpt lat="43.0988415" lon="11.7415668"><ele>497.59999999999997</ele><time>2026-03-29T14:15:57.099Z</time></trkpt><trkpt lat="43.0989028" lon="11.741676"><ele>498.0</ele><time>2026-03-29T14:15:58.111Z</time></trkpt><trkpt lat="43.0990025" lon="11.7417481"><ele>499.0</ele><time>2026-03-29T14:15:59.107Z</time></trkpt><trkpt lat="43.0991295" lon="11.7417845"><ele>500.0</ele><time>2026-03-29T14:16:00.101Z</time></trkpt><trkpt lat="43.0992891" lon="11.7417958"><ele>501.0</ele><time>2026-03-29T14:16:01.123Z</time></trkpt><trkpt lat="43.0994441" lon="11.7418168"><ele>502.0</ele><time>2026-03-29T14:16:02.12Z</time></trkpt><trkpt lat="43.0995867" lon="11.7418711"><ele>502.6666666666667</ele><time>2026-03-29T14:16:03.105Z</time></trkpt><trkpt lat="43.0997266" lon="11.7419598"><ele>503.33333333333337</ele><time>2026-03-29T14:16:04.105Z</time></trkpt><trkpt lat="43.0998647" lon="11.7420777"><ele>504.0</ele><time>2026-03-29T14:16:05.106Z</time></trkpt><trkpt lat="43.0999921" lon="11.7422237"><ele>504.0</ele><time>2026-03-29T14:16:06.115Z</time></trkpt><trkpt lat="43.1001132" lon="11.7423822"><ele>504.0</ele><time>2026-03-29T14:16:07.118Z</time></trkpt><trkpt lat="43.100229" lon="11.7425255"><ele>504.0</ele><time>2026-03-29T14:16:08.125Z</time></trkpt><trkpt lat="43.1003427" lon="11.7426602"><ele>505.5</ele><time>2026-03-29T14:16:09.115Z</time></trkpt><trkpt lat="43.1004525" lon="11.7427926"><ele>507.0</ele><time>2026-03-29T14:16:10.099Z</time></trkpt><trkpt lat="43.1005604" lon="11.7429305"><ele>508.5</ele><time>2026-03-29T14:16:11.11Z</time></trkpt><trkpt lat="43.1006607" lon="11.7430729"><ele>510.0</ele><time>2026-03-29T14:16:12.101Z</time></trkpt><trkpt lat="43.1007451" lon="11.7432418"><ele>509.0</ele><time>2026-03-29T14:16:13.133Z</time></trkpt><trkpt lat="43.1008109" lon="11.7434127"><ele>508.0</ele><time>2026-03-29T14:16:14.099Z</time></trkpt><trkpt lat="43.1008584" lon="11.7436146"><ele>507.0</ele><time>2026-03-29T14:16:15.104Z</time></trkpt><trkpt lat="43.10089" lon="11.7438501"><ele>507.0</ele><time>2026-03-29T14:16:16.112Z</time></trkpt><trkpt lat="43.1008868" lon="11.7440815"><ele>507.0</ele><time>2026-03-29T14:16:17.108Z</time></trkpt><trkpt lat="43.100852" lon="11.7443096"><ele>507.0</ele><time>2026-03-29T14:16:18.11Z</time></trkpt><trkpt lat="43.1008255" lon="11.7445306"><ele>507.0</ele><time>2026-03-29T14:16:19.099Z</time></trkpt><trkpt lat="43.1008077" lon="11.7447463"><ele>507.0</ele><time>2026-03-29T14:16:20.112Z</time></trkpt><trkpt lat="43.1007754" lon="11.74494"><ele>507.0</ele><time>2026-03-29T14:16:21.097Z</time></trkpt><trkpt lat="43.1007549" lon="11.7451275"><ele>507.0</ele><time>2026-03-29T14:16:22.101Z</time></trkpt><trkpt lat="43.1007288" lon="11.7452855"><ele>507.20000000000005</ele><time>2026-03-29T14:16:23.103Z</time></trkpt><trkpt lat="43.1007018" lon="11.7454073"><ele>507.40000000000003</ele><time>2026-03-29T14:16:24.118Z</time></trkpt><trkpt lat="43.1006774" lon="11.7455249"><ele>507.59999999999997</ele><time>2026-03-29T14:16:25.097Z</time></trkpt><trkpt lat="43.1006254" lon="11.7456322"><ele>507.79999999999995</ele><time>2026-03-29T14:16:26.114Z</time></trkpt><trkpt lat="43.1005332" lon="11.7456971"><ele>508.0</ele><time>2026-03-29T14:16:27.126Z</time></trkpt><trkpt lat="43.1004083" lon="11.7457329"><ele>508.0</ele><time>2026-03-29T14:16:28.119Z</time></trkpt><trkpt lat="43.1002873" lon="11.7457379"><ele>508.0</ele><time>2026-03-29T14:16:29.106Z</time></trkpt><trkpt lat="43.1001693" lon="11.7457273"><ele>508.0</ele><time>2026-03-29T14:16:30.102Z</time></trkpt><trkpt lat="43.1000519" lon="11.7457167"><ele>508.0</ele><time>2026-03-29T14:16:31.113Z</time></trkpt><trkpt lat="43.0999313" lon="11.7457156"><ele>509.5</ele><time>2026-03-29T14:16:32.115Z</time></trkpt><trkpt lat="43.0998086" lon="11.7457349"><ele>511.0</ele><time>2026-03-29T14:16:33.104Z</time></trkpt><trkpt lat="43.0996977" lon="11.7457928"><ele>512.5</ele><time>2026-03-29T14:16:34.123Z</time></trkpt><trkpt lat="43.0996168" lon="11.7458878"><ele>514.0</ele><time>2026-03-29T14:16:35.114Z</time></trkpt><trkpt lat="43.099546" lon="11.7460242"><ele>514.2</ele><time>2026-03-29T14:16:36.115Z</time></trkpt><trkpt lat="43.099494" lon="11.7461654"><ele>514.4</ele><time>2026-03-29T14:16:37.115Z</time></trkpt><trkpt lat="43.0994562" lon="11.7462999"><ele>514.6</ele><time>2026-03-29T14:16:38.108Z</time></trkpt><trkpt lat="43.0994276" lon="11.7464306"><ele>514.8</ele><time>2026-03-29T14:16:39.105Z</time></trkpt><trkpt lat="43.0994025" lon="11.746555"><ele>515.0</ele><time>2026-03-29T14:16:40.126Z</time></trkpt><trkpt lat="43.0993693" lon="11.7466661"><ele>515.0</ele><time>2026-03-29T14:16:41.105Z</time></trkpt><trkpt lat="43.0993317" lon="11.7467821"><ele>515.0</ele><time>2026-03-29T14:16:42.117Z</time></trkpt><trkpt lat="43.0992916" lon="11.7468959"><ele>515.0</ele><time>2026-03-29T14:16:43.131Z</time></trkpt><trkpt lat="43.0992466" lon="11.7470044"><ele>515.0</ele><time>2026-03-29T14:16:44.1Z</time></trkpt><trkpt lat="43.09917" lon="11.7471083"><ele>515.0</ele><time>2026-03-29T14:16:45.103Z</time></trkpt><trkpt lat="43.0990723" lon="11.7472026"><ele>515.75</ele><time>2026-03-29T14:16:46.118Z</time></trkpt><trkpt lat="43.0989545" lon="11.7472931"><ele>516.5</ele><time>2026-03-29T14:16:47.143Z</time></trkpt><trkpt lat="43.0988484" lon="11.7473823"><ele>517.25</ele><time>2026-03-29T14:16:48.118Z</time></trkpt><trkpt lat="43.0987462" lon="11.747474"><ele>518.0</ele><time>2026-03-29T14:16:49.102Z</time></trkpt><trkpt lat="43.0986427" lon="11.7475697"><ele>518.0</ele><time>2026-03-29T14:16:50.113Z</time></trkpt><trkpt lat="43.0985365" lon="11.7476578"><ele>518.0</ele><time>2026-03-29T14:16:51.133Z</time></trkpt><trkpt lat="43.0984381" lon="11.7477359"><ele>518.0</ele><time>2026-03-29T14:16:52.107Z</time></trkpt><trkpt lat="43.0983267" lon="11.7478255"><ele>518.0</ele><time>2026-03-29T14:16:53.126Z</time></trkpt><trkpt lat="43.0982229" lon="11.7479428"><ele>518.75</ele><time>2026-03-29T14:16:54.115Z</time></trkpt><trkpt lat="43.0981147" lon="11.7480701"><ele>519.5</ele><time>2026-03-29T14:16:55.112Z</time></trkpt><trkpt lat="43.0980127" lon="11.7482016"><ele>520.25</ele><time>2026-03-29T14:16:56.15Z</time></trkpt><trkpt lat="43.0979034" lon="11.7483222"><ele>521.0</ele><time>2026-03-29T14:16:57.139Z</time></trkpt><trkpt lat="43.0978109" lon="11.7484445"><ele>517.25</ele><time>2026-03-29T14:16:58.132Z</time></trkpt><trkpt lat="43.0977189" lon="11.748557"><ele>513.5</ele><time>2026-03-29T14:16:59.135Z</time></trkpt><trkpt lat="43.097628" lon="11.7486614"><ele>509.75</ele><time>2026-03-29T14:17:00.103Z</time></trkpt><trkpt lat="43.0975351" lon="11.7487552"><ele>506.0</ele><time>2026-03-29T14:17:01.108Z</time></trkpt><trkpt lat="43.0974297" lon="11.7488328"><ele>506.25</ele><time>2026-03-29T14:17:02.105Z</time></trkpt><trkpt lat="43.0973208" lon="11.7488813"><ele>506.5</ele><time>2026-03-29T14:17:03.116Z</time></trkpt><trkpt lat="43.0972092" lon="11.7489089"><ele>506.75</ele><time>2026-03-29T14:17:04.107Z</time></trkpt><trkpt lat="43.0970996" lon="11.7489163"><ele>507.0</ele><time>2026-03-29T14:17:05.111Z</time></trkpt><trkpt lat="43.0969704" lon="11.7489044"><ele>507.0</ele><time>2026-03-29T14:17:06.101Z</time></trkpt><trkpt lat="43.0968366" lon="11.7488807"><ele>507.0</ele><time>2026-03-29T14:17:07.108Z</time></trkpt><trkpt lat="43.0967017" lon="11.7488643"><ele>507.0</ele><time>2026-03-29T14:17:08.126Z</time></trkpt><trkpt lat="43.0965727" lon="11.7488739"><ele>507.0</ele><time>2026-03-29T14:17:09.118Z</time></trkpt><trkpt lat="43.0964468" lon="11.7489079"><ele>508.0</ele><time>2026-03-29T14:17:10.104Z</time></trkpt><trkpt lat="43.0963251" lon="11.7489732"><ele>509.0</ele><time>2026-03-29T14:17:11.121Z</time></trkpt><trkpt lat="43.0962094" lon="11.7490538"><ele>510.0</ele><time>2026-03-29T14:17:12.119Z</time></trkpt><trkpt lat="43.0960966" lon="11.7491274"><ele>511.0</ele><time>2026-03-29T14:17:13.104Z</time></trkpt><trkpt lat="43.0959766" lon="11.7491849"><ele>511.0</ele><time>2026-03-29T14:17:14.103Z</time></trkpt><trkpt lat="43.095864" lon="11.74925"><ele>511.0</ele><time>2026-03-29T14:17:15.109Z</time></trkpt><trkpt lat="43.0957599" lon="11.7493448"><ele>511.0</ele><time>2026-03-29T14:17:16.136Z</time></trkpt><trkpt lat="43.0956627" lon="11.7494761"><ele>511.0</ele><time>2026-03-29T14:17:17.115Z</time></trkpt><trkpt lat="43.0955948" lon="11.7496285"><ele>511.0</ele><time>2026-03-29T14:17:18.123Z</time></trkpt><trkpt lat="43.0955545" lon="11.7498158"><ele>511.0</ele><time>2026-03-29T14:17:19.115Z</time></trkpt><trkpt lat="43.0954788" lon="11.7499689"><ele>511.0</ele><time>2026-03-29T14:17:20.11Z</time></trkpt><trkpt lat="43.0953616" lon="11.7500779"><ele>511.0</ele><time>2026-03-29T14:17:21.1Z</time></trkpt><trkpt lat="43.0952505" lon="11.7501552"><ele>511.75</ele><time>2026-03-29T14:17:22.111Z</time></trkpt><trkpt lat="43.0951189" lon="11.7502204"><ele>512.5</ele><time>2026-03-29T14:17:23.155Z</time></trkpt><trkpt lat="43.0949947" lon="11.7502685"><ele>513.25</ele><time>2026-03-29T14:17:24.118Z</time></trkpt><trkpt lat="43.0948805" lon="11.7503658"><ele>514.0</ele><time>2026-03-29T14:17:25.144Z</time></trkpt><trkpt lat="43.0947938" lon="11.7504815"><ele>514.0</ele><time>2026-03-29T14:17:26.104Z</time></trkpt><trkpt lat="43.0947042" lon="11.7506333"><ele>514.0</ele><time>2026-03-29T14:17:27.106Z</time></trkpt><trkpt lat="43.09464" lon="11.7508017"><ele>514.0</ele><time>2026-03-29T14:17:28.122Z</time></trkpt><trkpt lat="43.0945804" lon="11.750964"><ele>514.0</ele><time>2026-03-29T14:17:29.107Z</time></trkpt><trkpt lat="43.094527" lon="11.7511253"><ele>509.75</ele><time>2026-03-29T14:17:30.115Z</time></trkpt><trkpt lat="43.0944798" lon="11.751275"><ele>505.5</ele><time>2026-03-29T14:17:31.131Z</time></trkpt><trkpt lat="43.094442" lon="11.7514374"><ele>501.25</ele><time>2026-03-29T14:17:32.159Z</time></trkpt><trkpt lat="43.0944261" lon="11.7515856"><ele>497.0</ele><time>2026-03-29T14:17:33.119Z</time></trkpt><trkpt lat="43.0944039" lon="11.7517251"><ele>497.0</ele><time>2026-03-29T14:17:34.102Z</time></trkpt><trkpt lat="43.0943475" lon="11.7518494"><ele>497.0</ele><time>2026-03-29T14:17:35.112Z</time></trkpt><trkpt lat="43.0942506" lon="11.751945"><ele>497.0</ele><time>2026-03-29T14:17:36.098Z</time></trkpt><trkpt lat="43.0941377" lon="11.7520282"><ele>497.0</ele><time>2026-03-29T14:17:37.117Z</time></trkpt><trkpt lat="43.0940093" lon="11.7520662"><ele>495.0</ele><time>2026-03-29T14:17:38.102Z</time></trkpt><trkpt lat="43.0938672" lon="11.7520776"><ele>493.0</ele><time>2026-03-29T14:17:39.111Z</time></trkpt><trkpt lat="43.0937299" lon="11.7520897"><ele>491.0</ele><time>2026-03-29T14:17:40.107Z</time></trkpt><trkpt lat="43.0935953" lon="11.7521163"><ele>489.0</ele><time>2026-03-29T14:17:41.111Z</time></trkpt><trkpt lat="43.0934602" lon="11.7521446"><ele>489.0</ele><time>2026-03-29T14:17:42.111Z</time></trkpt><trkpt lat="43.0933296" lon="11.7521926"><ele>489.0</ele><time>2026-03-29T14:17:43.106Z</time></trkpt><trkpt lat="43.0931972" lon="11.7522516"><ele>489.0</ele><time>2026-03-29T14:17:44.104Z</time></trkpt><trkpt lat="43.093059" lon="11.7523177"><ele>489.0</ele><time>2026-03-29T14:17:45.154Z</time></trkpt><trkpt lat="43.0929344" lon="11.752385"><ele>490.0</ele><time>2026-03-29T14:17:46.119Z</time></trkpt><trkpt lat="43.0928026" lon="11.752458"><ele>491.0</ele><time>2026-03-29T14:17:47.106Z</time></trkpt><trkpt lat="43.0926692" lon="11.752543"><ele>492.0</ele><time>2026-03-29T14:17:48.122Z</time></trkpt><trkpt lat="43.0925386" lon="11.7526463"><ele>493.0</ele><time>2026-03-29T14:17:49.117Z</time></trkpt><trkpt lat="43.0924192" lon="11.7527566"><ele>493.0</ele><time>2026-03-29T14:17:50.115Z</time></trkpt><trkpt lat="43.0922991" lon="11.7528736"><ele>493.0</ele><time>2026-03-29T14:17:51.101Z</time></trkpt><trkpt lat="43.0921728" lon="11.7529971"><ele>493.0</ele><time>2026-03-29T14:17:52.113Z</time></trkpt><trkpt lat="43.0920481" lon="11.7531144"><ele>493.0</ele><time>2026-03-29T14:17:53.107Z</time></trkpt><trkpt lat="43.0919335" lon="11.7532252"><ele>493.0</ele><time>2026-03-29T14:17:54.104Z</time></trkpt><trkpt lat="43.0918286" lon="11.7533303"><ele>493.0</ele><time>2026-03-29T14:17:55.104Z</time></trkpt><trkpt lat="43.0917362" lon="11.7534369"><ele>493.0</ele><time>2026-03-29T14:17:56.111Z</time></trkpt><trkpt lat="43.0916506" lon="11.7535443"><ele>491.5</ele><time>2026-03-29T14:17:57.111Z</time></trkpt><trkpt lat="43.091571" lon="11.7536537"><ele>490.0</ele><time>2026-03-29T14:17:58.117Z</time></trkpt><trkpt lat="43.0914863" lon="11.7537675"><ele>488.5</ele><time>2026-03-29T14:17:59.117Z</time></trkpt><trkpt lat="43.0913905" lon="11.7538647"><ele>487.0</ele><time>2026-03-29T14:18:00.101Z</time></trkpt><trkpt lat="43.0912742" lon="11.7539662"><ele>487.0</ele><time>2026-03-29T14:18:01.113Z</time></trkpt><trkpt lat="43.0911402" lon="11.7540541"><ele>487.0</ele><time>2026-03-29T14:18:02.104Z</time></trkpt><trkpt lat="43.090982" lon="11.7541205"><ele>487.0</ele><time>2026-03-29T14:18:03.118Z</time></trkpt><trkpt lat="43.0908215" lon="11.7541584"><ele>488.6666666666667</ele><time>2026-03-29T14:18:04.115Z</time></trkpt><trkpt lat="43.0906648" lon="11.7541787"><ele>490.33333333333337</ele><time>2026-03-29T14:18:05.112Z</time></trkpt><trkpt lat="43.0905064" lon="11.7541954"><ele>492.0</ele><time>2026-03-29T14:18:06.11Z</time></trkpt><trkpt lat="43.0903538" lon="11.7542068"><ele>492.0</ele><time>2026-03-29T14:18:07.104Z</time></trkpt><trkpt lat="43.0902219" lon="11.7542325"><ele>492.0</ele><time>2026-03-29T14:18:08.116Z</time></trkpt><trkpt lat="43.0901023" lon="11.7542601"><ele>492.0</ele><time>2026-03-29T14:18:09.114Z</time></trkpt><trkpt lat="43.0899794" lon="11.7542868"><ele>492.0</ele><time>2026-03-29T14:18:10.124Z</time></trkpt><trkpt lat="43.089854" lon="11.7543147"><ele>491.75</ele><time>2026-03-29T14:18:11.123Z</time></trkpt><trkpt lat="43.0897431" lon="11.7543639"><ele>491.5</ele><time>2026-03-29T14:18:12.12Z</time></trkpt><trkpt lat="43.0896268" lon="11.7544276"><ele>491.25</ele><time>2026-03-29T14:18:13.129Z</time></trkpt><trkpt lat="43.0895299" lon="11.7545194"><ele>491.0</ele><time>2026-03-29T14:18:14.105Z</time></trkpt><trkpt lat="43.0894373" lon="11.7546423"><ele>491.0</ele><time>2026-03-29T14:18:15.102Z</time></trkpt><trkpt lat="43.0893508" lon="11.7547966"><ele>491.0</ele><time>2026-03-29T14:18:16.112Z</time></trkpt><trkpt lat="43.0892595" lon="11.7549587"><ele>491.0</ele><time>2026-03-29T14:18:17.099Z</time></trkpt><trkpt lat="43.08918" lon="11.7551274"><ele>491.0</ele><time>2026-03-29T14:18:18.125Z</time></trkpt><trkpt lat="43.0890907" lon="11.7553228"><ele>491.3333333333333</ele><time>2026-03-29T14:18:19.115Z</time></trkpt><trkpt lat="43.0889901" lon="11.7555442"><ele>491.66666666666663</ele><time>2026-03-29T14:18:20.121Z</time></trkpt><trkpt lat="43.0888957" lon="11.7557411"><ele>492.0</ele><time>2026-03-29T14:18:21.117Z</time></trkpt><trkpt lat="43.0888022" lon="11.7559219"><ele>490.0</ele><time>2026-03-29T14:18:22.14Z</time></trkpt><trkpt lat="43.0887147" lon="11.7560821"><ele>488.0</ele><time>2026-03-29T14:18:23.111Z</time></trkpt><trkpt lat="43.0886219" lon="11.7562411"><ele>486.0</ele><time>2026-03-29T14:18:24.107Z</time></trkpt><trkpt lat="43.0885269" lon="11.7563886"><ele>484.0</ele><time>2026-03-29T14:18:25.117Z</time></trkpt><trkpt lat="43.0884339" lon="11.7565261"><ele>484.0</ele><time>2026-03-29T14:18:26.119Z</time></trkpt><trkpt lat="43.088336" lon="11.7566635"><ele>484.0</ele><time>2026-03-29T14:18:27.102Z</time></trkpt><trkpt lat="43.0882235" lon="11.7567989"><ele>484.0</ele><time>2026-03-29T14:18:28.117Z</time></trkpt><trkpt lat="43.0881089" lon="11.7569195"><ele>484.0</ele><time>2026-03-29T14:18:29.114Z</time></trkpt><trkpt lat="43.0879934" lon="11.7570349"><ele>485.0</ele><time>2026-03-29T14:18:30.115Z</time></trkpt><trkpt lat="43.0878822" lon="11.7571529"><ele>486.0</ele><time>2026-03-29T14:18:31.118Z</time></trkpt><trkpt lat="43.0877826" lon="11.757265"><ele>487.0</ele><time>2026-03-29T14:18:32.119Z</time></trkpt><trkpt lat="43.0876817" lon="11.7573873"><ele>488.0</ele><time>2026-03-29T14:18:33.1Z</time></trkpt><trkpt lat="43.087594" lon="11.7575117"><ele>488.0</ele><time>2026-03-29T14:18:34.105Z</time></trkpt><trkpt lat="43.0875134" lon="11.7576571"><ele>488.0</ele><time>2026-03-29T14:18:35.131Z</time></trkpt><trkpt lat="43.087445" lon="11.7578014"><ele>488.0</ele><time>2026-03-29T14:18:36.113Z</time></trkpt><trkpt lat="43.0873729" lon="11.7579453"><ele>488.0</ele><time>2026-03-29T14:18:37.102Z</time></trkpt><trkpt lat="43.0873063" lon="11.7580955"><ele>488.75</ele><time>2026-03-29T14:18:38.115Z</time></trkpt><trkpt lat="43.0872304" lon="11.7582448"><ele>489.5</ele><time>2026-03-29T14:18:39.112Z</time></trkpt><trkpt lat="43.0871519" lon="11.7583896"><ele>490.25</ele><time>2026-03-29T14:18:40.137Z</time></trkpt><trkpt lat="43.0870757" lon="11.7585298"><ele>491.0</ele><time>2026-03-29T14:18:41.113Z</time></trkpt><trkpt lat="43.0869992" lon="11.7586767"><ele>491.0</ele><time>2026-03-29T14:18:42.109Z</time></trkpt><trkpt lat="43.0869185" lon="11.7588306"><ele>491.0</ele><time>2026-03-29T14:18:43.115Z</time></trkpt><trkpt lat="43.0868327" lon="11.7589864"><ele>491.0</ele><time>2026-03-29T14:18:44.117Z</time></trkpt><trkpt lat="43.0867497" lon="11.7591504"><ele>491.0</ele><time>2026-03-29T14:18:45.114Z</time></trkpt><trkpt lat="43.0866741" lon="11.7593314"><ele>490.66666666666663</ele><time>2026-03-29T14:18:46.116Z</time></trkpt><trkpt lat="43.0866016" lon="11.759531"><ele>490.33333333333337</ele><time>2026-03-29T14:18:47.102Z</time></trkpt><trkpt lat="43.0865387" lon="11.7597486"><ele>490.0</ele><time>2026-03-29T14:18:48.098Z</time></trkpt><trkpt lat="43.0864981" lon="11.7599668"><ele>490.0</ele><time>2026-03-29T14:18:49.106Z</time></trkpt><trkpt lat="43.0864843" lon="11.7601903"><ele>490.0</ele><time>2026-03-29T14:18:50.123Z</time></trkpt><trkpt lat="43.0864954" lon="11.7604126"><ele>490.0</ele><time>2026-03-29T14:18:51.144Z</time></trkpt><trkpt lat="43.0865422" lon="11.7606218"><ele>490.0</ele><time>2026-03-29T14:18:52.124Z</time></trkpt><trkpt lat="43.0865982" lon="11.7608261"><ele>490.0</ele><time>2026-03-29T14:18:53.107Z</time></trkpt><trkpt lat="43.0866718" lon="11.7610343"><ele>490.0</ele><time>2026-03-29T14:18:54.113Z</time></trkpt><trkpt lat="43.0867576" lon="11.7612635"><ele>490.0</ele><time>2026-03-29T14:18:55.113Z</time></trkpt><trkpt lat="43.0868273" lon="11.7615008"><ele>490.0</ele><time>2026-03-29T14:18:56.127Z</time></trkpt><trkpt lat="43.086885" lon="11.7617333"><ele>490.0</ele><time>2026-03-29T14:18:57.112Z</time></trkpt><trkpt lat="43.086937" lon="11.7619684"><ele>489.6666666666667</ele><time>2026-03-29T14:18:58.13Z</time></trkpt><trkpt lat="43.0869801" lon="11.762197"><ele>489.33333333333337</ele><time>2026-03-29T14:18:59.113Z</time></trkpt><trkpt lat="43.0869979" lon="11.7624327"><ele>489.0</ele><time>2026-03-29T14:19:00.122Z</time></trkpt><trkpt lat="43.086991" lon="11.7626673"><ele>489.33333333333337</ele><time>2026-03-29T14:19:01.111Z</time></trkpt><trkpt lat="43.0869655" lon="11.7629051"><ele>489.6666666666667</ele><time>2026-03-29T14:19:02.099Z</time></trkpt><trkpt lat="43.0869297" lon="11.7631522"><ele>490.0</ele><time>2026-03-29T14:19:03.114Z</time></trkpt><trkpt lat="43.0868998" lon="11.7634005"><ele>490.6666666666667</ele><time>2026-03-29T14:19:04.117Z</time></trkpt><trkpt lat="43.0868608" lon="11.7636437"><ele>491.33333333333337</ele><time>2026-03-29T14:19:05.125Z</time></trkpt><trkpt lat="43.0868245" lon="11.7638808"><ele>492.0</ele><time>2026-03-29T14:19:06.128Z</time></trkpt><trkpt lat="43.0867996" lon="11.7640996"><ele>492.0</ele><time>2026-03-29T14:19:07.11Z</time></trkpt><trkpt lat="43.0867696" lon="11.7642994"><ele>492.0</ele><time>2026-03-29T14:19:08.108Z</time></trkpt><trkpt lat="43.0867454" lon="11.7645062"><ele>492.0</ele><time>2026-03-29T14:19:09.114Z</time></trkpt><trkpt lat="43.0867277" lon="11.7646972"><ele>492.0</ele><time>2026-03-29T14:19:10.101Z</time></trkpt><trkpt lat="43.08671" lon="11.7648824"><ele>493.0</ele><time>2026-03-29T14:19:11.11Z</time></trkpt><trkpt lat="43.0866937" lon="11.7650546"><ele>494.0</ele><time>2026-03-29T14:19:12.102Z</time></trkpt><trkpt lat="43.0866723" lon="11.7652436"><ele>495.0</ele><time>2026-03-29T14:19:13.113Z</time></trkpt><trkpt lat="43.086657" lon="11.7654569"><ele>496.0</ele><time>2026-03-29T14:19:14.119Z</time></trkpt><trkpt lat="43.0866414" lon="11.7657039"><ele>496.33333333333337</ele><time>2026-03-29T14:19:15.115Z</time></trkpt><trkpt lat="43.0866183" lon="11.7659588"><ele>496.66666666666663</ele><time>2026-03-29T14:19:16.108Z</time></trkpt><trkpt lat="43.0865935" lon="11.766247"><ele>497.0</ele><time>2026-03-29T14:19:17.11Z</time></trkpt><trkpt lat="43.0865569" lon="11.7665501"><ele>497.0</ele><time>2026-03-29T14:19:18.122Z</time></trkpt><trkpt lat="43.0865257" lon="11.7668379"><ele>497.0</ele><time>2026-03-29T14:19:19.109Z</time></trkpt><trkpt lat="43.0864963" lon="11.7671392"><ele>497.0</ele><time>2026-03-29T14:19:20.103Z</time></trkpt><trkpt lat="43.086475" lon="11.7674155"><ele>498.3333333333333</ele><time>2026-03-29T14:19:21.096Z</time></trkpt><trkpt lat="43.0864529" lon="11.7676777"><ele>499.66666666666663</ele><time>2026-03-29T14:19:22.109Z</time></trkpt><trkpt lat="43.0864301" lon="11.7679125"><ele>501.0</ele><time>2026-03-29T14:19:23.103Z</time></trkpt><trkpt lat="43.0864095" lon="11.7681382"><ele>502.5</ele><time>2026-03-29T14:19:24.126Z</time></trkpt><trkpt lat="43.0863848" lon="11.7683469"><ele>504.0</ele><time>2026-03-29T14:19:25.105Z</time></trkpt><trkpt lat="43.0863668" lon="11.7685522"><ele>505.5</ele><time>2026-03-29T14:19:26.116Z</time></trkpt><trkpt lat="43.0863416" lon="11.7687429"><ele>507.0</ele><time>2026-03-29T14:19:27.107Z</time></trkpt><trkpt lat="43.0863276" lon="11.7689365"><ele>508.0</ele><time>2026-03-29T14:19:28.104Z</time></trkpt><trkpt lat="43.0863195" lon="11.7691257"><ele>509.0</ele><time>2026-03-29T14:19:29.119Z</time></trkpt><trkpt lat="43.0863319" lon="11.769288"><ele>510.0</ele><time>2026-03-29T14:19:30.1Z</time></trkpt><trkpt lat="43.0863556" lon="11.7694585"><ele>511.0</ele><time>2026-03-29T14:19:31.117Z</time></trkpt><trkpt lat="43.0863863" lon="11.7696549"><ele>512.0</ele><time>2026-03-29T14:19:32.11Z</time></trkpt><trkpt lat="43.0864339" lon="11.7698818"><ele>513.0</ele><time>2026-03-29T14:19:33.115Z</time></trkpt><trkpt lat="43.0864732" lon="11.7701446"><ele>514.0</ele><time>2026-03-29T14:19:34.123Z</time></trkpt><trkpt lat="43.0864857" lon="11.7704058"><ele>516.0</ele><time>2026-03-29T14:19:35.122Z</time></trkpt><trkpt lat="43.0865036" lon="11.770673"><ele>518.0</ele><time>2026-03-29T14:19:36.112Z</time></trkpt><trkpt lat="43.0865065" lon="11.7709293"><ele>520.0</ele><time>2026-03-29T14:19:37.12Z</time></trkpt><trkpt lat="43.0865151" lon="11.7711688"><ele>522.0</ele><time>2026-03-29T14:19:38.112Z</time></trkpt><trkpt lat="43.0865246" lon="11.771396"><ele>524.0</ele><time>2026-03-29T14:19:39.11Z</time></trkpt><trkpt lat="43.086537" lon="11.7716248"><ele>526.0</ele><time>2026-03-29T14:19:40.12Z</time></trkpt><trkpt lat="43.0865443" lon="11.7718311"><ele>525.6666666666667</ele><time>2026-03-29T14:19:41.115Z</time></trkpt><trkpt lat="43.0865469" lon="11.7720383"><ele>525.3333333333334</ele><time>2026-03-29T14:19:42.132Z</time></trkpt><trkpt lat="43.0865405" lon="11.7722472"><ele>525.0</ele><time>2026-03-29T14:19:43.111Z</time></trkpt><trkpt lat="43.0865232" lon="11.772466"><ele>525.0</ele><time>2026-03-29T14:19:44.107Z</time></trkpt><trkpt lat="43.0865045" lon="11.772676"><ele>525.0</ele><time>2026-03-29T14:19:45.139Z</time></trkpt><trkpt lat="43.0864834" lon="11.7728896"><ele>525.0</ele><time>2026-03-29T14:19:46.123Z</time></trkpt><trkpt lat="43.0864767" lon="11.7730946"><ele>523.0</ele><time>2026-03-29T14:19:47.11Z</time></trkpt><trkpt lat="43.0865031" lon="11.7733079"><ele>521.0</ele><time>2026-03-29T14:19:48.127Z</time></trkpt><trkpt lat="43.0865611" lon="11.7735118"><ele>519.0</ele><time>2026-03-29T14:19:49.118Z</time></trkpt><trkpt lat="43.0866408" lon="11.7737171"><ele>517.0</ele><time>2026-03-29T14:19:50.113Z</time></trkpt><trkpt lat="43.0867323" lon="11.7739088"><ele>515.0</ele><time>2026-03-29T14:19:51.1Z</time></trkpt><trkpt lat="43.0868258" lon="11.7741006"><ele>513.0</ele><time>2026-03-29T14:19:52.114Z</time></trkpt><trkpt lat="43.0869064" lon="11.7742797"><ele>511.75</ele><time>2026-03-29T14:19:53.143Z</time></trkpt><trkpt lat="43.0869539" lon="11.7744372"><ele>510.5</ele><time>2026-03-29T14:19:54.101Z</time></trkpt><trkpt lat="43.087013" lon="11.7746151"><ele>509.25</ele><time>2026-03-29T14:19:55.111Z</time></trkpt><trkpt lat="43.0870675" lon="11.7747844"><ele>508.0</ele><time>2026-03-29T14:19:56.125Z</time></trkpt><trkpt lat="43.0871191" lon="11.7749326"><ele>508.0</ele><time>2026-03-29T14:19:57.133Z</time></trkpt><trkpt lat="43.0871603" lon="11.7750661"><ele>507.99999999999994</ele><time>2026-03-29T14:19:58.103Z</time></trkpt><trkpt lat="43.0871976" lon="11.7752034"><ele>507.99999999999994</ele><time>2026-03-29T14:19:59.102Z</time></trkpt><trkpt lat="43.0872288" lon="11.7753289"><ele>508.0</ele><time>2026-03-29T14:20:00.111Z</time></trkpt><trkpt lat="43.087244" lon="11.775432"><ele>508.0</ele><time>2026-03-29T14:20:01.107Z</time></trkpt><trkpt lat="43.087267" lon="11.7755271"><ele>507.6666666666667</ele><time>2026-03-29T14:20:02.13Z</time></trkpt><trkpt lat="43.0873039" lon="11.7756377"><ele>507.33333333333337</ele><time>2026-03-29T14:20:04.11Z</time></trkpt><trkpt lat="43.0873289" lon="11.7757522"><ele>507.0</ele><time>2026-03-29T14:20:06.101Z</time></trkpt><trkpt lat="43.0873456" lon="11.775855"><ele>506.66666666666663</ele><time>2026-03-29T14:20:08.12Z</time></trkpt><trkpt lat="43.0873523" lon="11.7759486"><ele>506.3333333333333</ele><time>2026-03-29T14:20:10.107Z</time></trkpt><trkpt lat="43.0873231" lon="11.7760658"><ele>506.0</ele><time>2026-03-29T14:20:12.106Z</time></trkpt><trkpt lat="43.0873238" lon="11.7761859"><ele>505.6</ele><time>2026-03-29T14:20:14.109Z</time></trkpt><trkpt lat="43.087382" lon="11.7763623"><ele>505.20000000000005</ele><time>2026-03-29T14:20:16.118Z</time></trkpt><trkpt lat="43.0874223" lon="11.776466"><ele>504.79999999999995</ele><time>2026-03-29T14:20:17.114Z</time></trkpt><trkpt lat="43.0874606" lon="11.7765922"><ele>504.4</ele><time>2026-03-29T14:20:18.117Z</time></trkpt><trkpt lat="43.0874881" lon="11.7767337"><ele>504.0</ele><time>2026-03-29T14:20:19.117Z</time></trkpt><trkpt lat="43.0875207" lon="11.7768993"><ele>505.75</ele><time>2026-03-29T14:20:20.145Z</time></trkpt><trkpt lat="43.0875446" lon="11.7770652"><ele>507.5</ele><time>2026-03-29T14:20:21.107Z</time></trkpt><trkpt lat="43.087584" lon="11.7772588"><ele>509.25</ele><time>2026-03-29T14:20:22.172Z</time></trkpt><trkpt lat="43.0876361" lon="11.7774275"><ele>511.0</ele><time>2026-03-29T14:20:23.147Z</time></trkpt><trkpt lat="43.0877021" lon="11.7776061"><ele>509.33333333333337</ele><time>2026-03-29T14:20:24.15Z</time></trkpt><trkpt lat="43.087764" lon="11.7777871"><ele>507.66666666666663</ele><time>2026-03-29T14:20:25.104Z</time></trkpt><trkpt lat="43.0878233" lon="11.7779888"><ele>506.0</ele><time>2026-03-29T14:20:26.109Z</time></trkpt><trkpt lat="43.0878643" lon="11.7782007"><ele>506.0</ele><time>2026-03-29T14:20:27.121Z</time></trkpt><trkpt lat="43.087896" lon="11.7784085"><ele>506.0</ele><time>2026-03-29T14:20:28.11Z</time></trkpt><trkpt lat="43.0879256" lon="11.778619"><ele>506.0</ele><time>2026-03-29T14:20:29.102Z</time></trkpt><trkpt lat="43.0879639" lon="11.7788214"><ele>503.66666666666663</ele><time>2026-03-29T14:20:30.101Z</time></trkpt><trkpt lat="43.0880196" lon="11.7790127"><ele>501.33333333333337</ele><time>2026-03-29T14:20:31.109Z</time></trkpt><trkpt lat="43.0881066" lon="11.7792252"><ele>499.0</ele><time>2026-03-29T14:20:32.169Z</time></trkpt><trkpt lat="43.0882085" lon="11.7794028"><ele>504.0</ele><time>2026-03-29T14:20:33.116Z</time></trkpt><trkpt lat="43.0883174" lon="11.7795734"><ele>509.0</ele><time>2026-03-29T14:20:34.133Z</time></trkpt><trkpt lat="43.0884382" lon="11.7797506"><ele>514.0</ele><time>2026-03-29T14:20:35.113Z</time></trkpt><trkpt lat="43.0885593" lon="11.7799368"><ele>514.0</ele><time>2026-03-29T14:20:36.112Z</time></trkpt><trkpt lat="43.0886928" lon="11.7801251"><ele>514.0</ele><time>2026-03-29T14:20:37.109Z</time></trkpt><trkpt lat="43.088842" lon="11.7803206"><ele>514.0</ele><time>2026-03-29T14:20:38.109Z</time></trkpt><trkpt lat="43.0889791" lon="11.7805229"><ele>516.3333333333334</ele><time>2026-03-29T14:20:39.112Z</time></trkpt><trkpt lat="43.0891385" lon="11.7807488"><ele>518.6666666666666</ele><time>2026-03-29T14:20:40.108Z</time></trkpt><trkpt lat="43.0892622" lon="11.7809751"><ele>521.0</ele><time>2026-03-29T14:20:41.115Z</time></trkpt><trkpt lat="43.0893637" lon="11.7812116"><ele>521.0</ele><time>2026-03-29T14:20:42.147Z</time></trkpt><trkpt lat="43.0894332" lon="11.7814376"><ele>521.0</ele><time>2026-03-29T14:20:43.167Z</time></trkpt><trkpt lat="43.0894669" lon="11.7816624"><ele>521.0</ele><time>2026-03-29T14:20:44.12Z</time></trkpt><trkpt lat="43.0894577" lon="11.7818798"><ele>517.0</ele><time>2026-03-29T14:20:45.115Z</time></trkpt><trkpt lat="43.0894535" lon="11.7820866"><ele>513.0</ele><time>2026-03-29T14:20:46.118Z</time></trkpt><trkpt lat="43.0894368" lon="11.78228"><ele>509.0</ele><time>2026-03-29T14:20:47.147Z</time></trkpt><trkpt lat="43.0894526" lon="11.782405"><ele>505.0</ele><time>2026-03-29T14:20:48.134Z</time></trkpt><trkpt lat="43.0894915" lon="11.7825146"><ele>505.0</ele><time>2026-03-29T14:20:49.138Z</time></trkpt><trkpt lat="43.0895455" lon="11.7826234"><ele>505.0</ele><time>2026-03-29T14:20:50.112Z</time></trkpt><trkpt lat="43.0896168" lon="11.7827079"><ele>505.0</ele><time>2026-03-29T14:20:51.146Z</time></trkpt><trkpt lat="43.0897114" lon="11.7827517"><ele>505.0</ele><time>2026-03-29T14:20:52.142Z</time></trkpt><trkpt lat="43.0898339" lon="11.7827835"><ele>505.0</ele><time>2026-03-29T14:20:53.157Z</time></trkpt><trkpt lat="43.0899352" lon="11.7828255"><ele>505.6666666666667</ele><time>2026-03-29T14:20:54.108Z</time></trkpt><trkpt lat="43.0900809" lon="11.7828815"><ele>506.33333333333337</ele><time>2026-03-29T14:20:55.107Z</time></trkpt><trkpt lat="43.0902418" lon="11.7829438"><ele>507.0</ele><time>2026-03-29T14:20:56.163Z</time></trkpt><trkpt lat="43.090411" lon="11.7830199"><ele>507.0</ele><time>2026-03-29T14:20:57.118Z</time></trkpt><trkpt lat="43.0906704" lon="11.7831239"><ele>507.0</ele><time>2026-03-29T14:20:58.155Z</time></trkpt><trkpt lat="43.0909631" lon="11.783193"><ele>512.3333333333334</ele><time>2026-03-29T14:20:59.143Z</time></trkpt><trkpt lat="43.0912122" lon="11.7832331"><ele>517.6666666666667</ele><time>2026-03-29T14:21:00.113Z</time></trkpt><trkpt lat="43.0913713" lon="11.7833028"><ele>523.0</ele><time>2026-03-29T14:21:01.11Z</time></trkpt><trkpt lat="43.0915302" lon="11.7833562"><ele>523.0</ele><time>2026-03-29T14:21:02.109Z</time></trkpt><trkpt lat="43.0917003" lon="11.7834254"><ele>523.0</ele><time>2026-03-29T14:21:03.117Z</time></trkpt><trkpt lat="43.0918603" lon="11.7834995"><ele>523.0</ele><time>2026-03-29T14:21:04.109Z</time></trkpt><trkpt lat="43.0920343" lon="11.7835701"><ele>523.0</ele><time>2026-03-29T14:21:05.118Z</time></trkpt><trkpt lat="43.0922104" lon="11.783669"><ele>523.0</ele><time>2026-03-29T14:21:06.113Z</time></trkpt><trkpt lat="43.0924009" lon="11.783774"><ele>523.0</ele><time>2026-03-29T14:21:07.164Z</time></trkpt><trkpt lat="43.0925759" lon="11.7838724"><ele>524.3333333333334</ele><time>2026-03-29T14:21:08.15Z</time></trkpt><trkpt lat="43.0927355" lon="11.7839482"><ele>525.6666666666666</ele><time>2026-03-29T14:21:09.119Z</time></trkpt><trkpt lat="43.0928845" lon="11.7840079"><ele>527.0</ele><time>2026-03-29T14:21:10.102Z</time></trkpt><trkpt lat="43.0930374" lon="11.7840498"><ele>527.0</ele><time>2026-03-29T14:21:11.138Z</time></trkpt><trkpt lat="43.093166" lon="11.7840403"><ele>527.0</ele><time>2026-03-29T14:21:12.116Z</time></trkpt><trkpt lat="43.0933087" lon="11.7839617"><ele>527.0</ele><time>2026-03-29T14:21:13.113Z</time></trkpt><trkpt lat="43.0934509" lon="11.7838485"><ele>527.0</ele><time>2026-03-29T14:21:14.121Z</time></trkpt><trkpt lat="43.0935742" lon="11.7836954"><ele>526.0</ele><time>2026-03-29T14:21:15.117Z</time></trkpt><trkpt lat="43.0937002" lon="11.783531"><ele>525.0</ele><time>2026-03-29T14:21:16.158Z</time></trkpt><trkpt lat="43.0937844" lon="11.7833767"><ele>524.0</ele><time>2026-03-29T14:21:17.132Z</time></trkpt><trkpt lat="43.0938773" lon="11.7832422"><ele>526.75</ele><time>2026-03-29T14:21:18.103Z</time></trkpt><trkpt lat="43.0939782" lon="11.7831264"><ele>529.5</ele><time>2026-03-29T14:21:19.119Z</time></trkpt><trkpt lat="43.094066" lon="11.7830337"><ele>532.25</ele><time>2026-03-29T14:21:20.103Z</time></trkpt><trkpt lat="43.0941634" lon="11.7830121"><ele>535.0</ele><time>2026-03-29T14:21:21.121Z</time></trkpt><trkpt lat="43.0942722" lon="11.7830037"><ele>535.0</ele><time>2026-03-29T14:21:22.117Z</time></trkpt><trkpt lat="43.0943759" lon="11.7830227"><ele>535.0</ele><time>2026-03-29T14:21:23.172Z</time></trkpt><trkpt lat="43.0945104" lon="11.7831191"><ele>535.0</ele><time>2026-03-29T14:21:24.138Z</time></trkpt><trkpt lat="43.0947358" lon="11.7833245"><ele>535.0</ele><time>2026-03-29T14:21:25.146Z</time></trkpt><trkpt lat="43.094891" lon="11.7834903"><ele>535.0</ele><time>2026-03-29T14:21:26.121Z</time></trkpt><trkpt lat="43.0950078" lon="11.7836778"><ele>535.0</ele><time>2026-03-29T14:21:27.107Z</time></trkpt><trkpt lat="43.0950894" lon="11.7838364"><ele>535.5</ele><time>2026-03-29T14:21:28.115Z</time></trkpt><trkpt lat="43.0951472" lon="11.7839905"><ele>536.0</ele><time>2026-03-29T14:21:29.109Z</time></trkpt><trkpt lat="43.0951936" lon="11.7841692"><ele>536.5</ele><time>2026-03-29T14:21:30.125Z</time></trkpt><trkpt lat="43.0952108" lon="11.7843518"><ele>537.0</ele><time>2026-03-29T14:21:31.125Z</time></trkpt><trkpt lat="43.095216" lon="11.7845217"><ele>536.0</ele><time>2026-03-29T14:21:32.115Z</time></trkpt><trkpt lat="43.0952258" lon="11.7846776"><ele>535.0</ele><time>2026-03-29T14:21:33.101Z</time></trkpt><trkpt lat="43.0952317" lon="11.7848285"><ele>534.0</ele><time>2026-03-29T14:21:34.129Z</time></trkpt><trkpt lat="43.0952379" lon="11.7849452"><ele>533.0</ele><time>2026-03-29T14:21:35.108Z</time></trkpt><trkpt lat="43.0952228" lon="11.7850306"><ele>532.0</ele><time>2026-03-29T14:21:36.111Z</time></trkpt><trkpt lat="43.0952724" lon="11.7851924"><ele>530.6</ele><time>2026-03-29T14:21:38.12Z</time></trkpt><trkpt lat="43.0953099" lon="11.7852775"><ele>529.2</ele><time>2026-03-29T14:21:39.101Z</time></trkpt><trkpt lat="43.0953723" lon="11.7853641"><ele>527.8</ele><time>2026-03-29T14:21:40.106Z</time></trkpt><trkpt lat="43.0954545" lon="11.785467"><ele>526.4</ele><time>2026-03-29T14:21:41.111Z</time></trkpt><trkpt lat="43.0955553" lon="11.7855727"><ele>525.0</ele><time>2026-03-29T14:21:42.133Z</time></trkpt><trkpt lat="43.0956767" lon="11.785673"><ele>526.5</ele><time>2026-03-29T14:21:43.115Z</time></trkpt><trkpt lat="43.0957991" lon="11.7857718"><ele>528.0</ele><time>2026-03-29T14:21:44.119Z</time></trkpt><trkpt lat="43.0959198" lon="11.7858756"><ele>529.5</ele><time>2026-03-29T14:21:45.12Z</time></trkpt><trkpt lat="43.0960403" lon="11.7859857"><ele>531.0</ele><time>2026-03-29T14:21:46.11Z</time></trkpt><trkpt lat="43.0961655" lon="11.7860979"><ele>526.3333333333334</ele><time>2026-03-29T14:21:47.108Z</time></trkpt><trkpt lat="43.0963153" lon="11.786215"><ele>521.6666666666667</ele><time>2026-03-29T14:21:48.126Z</time></trkpt><trkpt lat="43.0964637" lon="11.7863194"><ele>517.0</ele><time>2026-03-29T14:21:49.104Z</time></trkpt><trkpt lat="43.0966023" lon="11.7864306"><ele>517.0</ele><time>2026-03-29T14:21:50.116Z</time></trkpt><trkpt lat="43.0967295" lon="11.7865406"><ele>517.0</ele><time>2026-03-29T14:21:51.117Z</time></trkpt><trkpt lat="43.0968528" lon="11.7866437"><ele>517.0</ele><time>2026-03-29T14:21:52.107Z</time></trkpt><trkpt lat="43.0969737" lon="11.786731"><ele>517.0</ele><time>2026-03-29T14:21:53.126Z</time></trkpt><trkpt lat="43.0970895" lon="11.7867947"><ele>517.0</ele><time>2026-03-29T14:21:54.148Z</time></trkpt><trkpt lat="43.0972034" lon="11.7868363"><ele>517.0</ele><time>2026-03-29T14:21:55.137Z</time></trkpt><trkpt lat="43.0973225" lon="11.7868308"><ele>517.0</ele><time>2026-03-29T14:21:56.148Z</time></trkpt><trkpt lat="43.0974453" lon="11.7867839"><ele>517.0</ele><time>2026-03-29T14:21:57.151Z</time></trkpt><trkpt lat="43.0975594" lon="11.7867172"><ele>517.0</ele><time>2026-03-29T14:21:58.127Z</time></trkpt><trkpt lat="43.0976697" lon="11.7866281"><ele>517.0</ele><time>2026-03-29T14:21:59.129Z</time></trkpt><trkpt lat="43.0977708" lon="11.7865304"><ele>517.0</ele><time>2026-03-29T14:22:00.123Z</time></trkpt><trkpt lat="43.0978581" lon="11.7864331"><ele>517.0</ele><time>2026-03-29T14:22:01.121Z</time></trkpt><trkpt lat="43.0979302" lon="11.7863356"><ele>517.0</ele><time>2026-03-29T14:22:02.11Z</time></trkpt><trkpt lat="43.0979807" lon="11.7862334"><ele>517.0</ele><time>2026-03-29T14:22:03.108Z</time></trkpt><trkpt lat="43.0980288" lon="11.7861442"><ele>517.0</ele><time>2026-03-29T14:22:04.105Z</time></trkpt><trkpt lat="43.0980646" lon="11.786051"><ele>517.0</ele><time>2026-03-29T14:22:05.121Z</time></trkpt><trkpt lat="43.0980935" lon="11.7859578"><ele>517.0</ele><time>2026-03-29T14:22:06.1Z</time></trkpt><trkpt lat="43.0981128" lon="11.7858646"><ele>517.0</ele><time>2026-03-29T14:22:07.132Z</time></trkpt><trkpt lat="43.0980986" lon="11.7857097"><ele>517.6</ele><time>2026-03-29T14:22:09.113Z</time></trkpt><trkpt lat="43.098078" lon="11.7855639"><ele>518.2</ele><time>2026-03-29T14:22:11.118Z</time></trkpt><trkpt lat="43.0980667" lon="11.7854293"><ele>518.8</ele><time>2026-03-29T14:22:13.112Z</time></trkpt><trkpt lat="43.0980902" lon="11.7853228"><ele>519.4</ele><time>2026-03-29T14:22:15.132Z</time></trkpt><trkpt lat="43.098203" lon="11.7853071"><ele>520.0</ele><time>2026-03-29T14:22:17.122Z</time></trkpt><trkpt lat="43.0983035" lon="11.7853214"><ele>520.0</ele><time>2026-03-29T14:22:18.148Z</time></trkpt><trkpt lat="43.0983952" lon="11.785316"><ele>520.0</ele><time>2026-03-29T14:22:19.145Z</time></trkpt><trkpt lat="43.098485" lon="11.7853082"><ele>520.0</ele><time>2026-03-29T14:22:20.163Z</time></trkpt><trkpt lat="43.0985698" lon="11.7853066"><ele>520.0</ele><time>2026-03-29T14:22:21.15Z</time></trkpt><trkpt lat="43.0986928" lon="11.785306"><ele>520.0</ele><time>2026-03-29T14:22:22.477Z</time></trkpt><trkpt lat="43.0988818" lon="11.7853434"><ele>520.0</ele><time>2026-03-29T14:22:24.16Z</time></trkpt><trkpt lat="43.0989999" lon="11.7853595"><ele>520.0</ele><time>2026-03-29T14:22:25.183Z</time></trkpt><trkpt lat="43.0991225" lon="11.7853769"><ele>520.0</ele><time>2026-03-29T14:22:26.169Z</time></trkpt><trkpt lat="43.0992427" lon="11.7853872"><ele>520.0</ele><time>2026-03-29T14:22:27.164Z</time></trkpt><trkpt lat="43.0993638" lon="11.7853998"><ele>518.25</ele><time>2026-03-29T14:22:28.201Z</time></trkpt><trkpt lat="43.0994819" lon="11.7854071"><ele>516.5</ele><time>2026-03-29T14:22:29.154Z</time></trkpt><trkpt lat="43.0996127" lon="11.7854175"><ele>514.75</ele><time>2026-03-29T14:22:30.111Z</time></trkpt><trkpt lat="43.0997443" lon="11.7854287"><ele>513.0</ele><time>2026-03-29T14:22:31.112Z</time></trkpt><trkpt lat="43.0998798" lon="11.7854417"><ele>509.0</ele><time>2026-03-29T14:22:32.104Z</time></trkpt><trkpt lat="43.1000126" lon="11.7854551"><ele>505.0</ele><time>2026-03-29T14:22:33.151Z</time></trkpt><trkpt lat="43.1001298" lon="11.7854715"><ele>501.0</ele><time>2026-03-29T14:22:34.1Z</time></trkpt><trkpt lat="43.1002563" lon="11.7854888"><ele>497.0</ele><time>2026-03-29T14:22:35.111Z</time></trkpt><trkpt lat="43.1003776" lon="11.7854993"><ele>497.0</ele><time>2026-03-29T14:22:36.109Z</time></trkpt><trkpt lat="43.1004948" lon="11.7855099"><ele>497.0</ele><time>2026-03-29T14:22:37.123Z</time></trkpt><trkpt lat="43.1006084" lon="11.7855202"><ele>497.0</ele><time>2026-03-29T14:22:38.096Z</time></trkpt><trkpt lat="43.1007316" lon="11.7855258"><ele>497.0</ele><time>2026-03-29T14:22:39.109Z</time></trkpt><trkpt lat="43.1008634" lon="11.7855437"><ele>495.75</ele><time>2026-03-29T14:22:40.118Z</time></trkpt><trkpt lat="43.100997" lon="11.785555"><ele>494.5</ele><time>2026-03-29T14:22:41.154Z</time></trkpt><trkpt lat="43.1011214" lon="11.7855648"><ele>493.25</ele><time>2026-03-29T14:22:42.12Z</time></trkpt><trkpt lat="43.1012459" lon="11.7855782"><ele>492.0</ele><time>2026-03-29T14:22:43.15Z</time></trkpt><trkpt lat="43.1013606" lon="11.7855909"><ele>492.0</ele><time>2026-03-29T14:22:44.156Z</time></trkpt><trkpt lat="43.1014709" lon="11.7855968"><ele>492.0</ele><time>2026-03-29T14:22:45.107Z</time></trkpt><trkpt lat="43.1016" lon="11.7856156"><ele>492.0</ele><time>2026-03-29T14:22:46.115Z</time></trkpt><trkpt lat="43.1017363" lon="11.7856306"><ele>492.0</ele><time>2026-03-29T14:22:47.103Z</time></trkpt><trkpt lat="43.1018858" lon="11.7856455"><ele>491.25</ele><time>2026-03-29T14:22:48.116Z</time></trkpt><trkpt lat="43.102039" lon="11.7856607"><ele>490.5</ele><time>2026-03-29T14:22:49.135Z</time></trkpt><trkpt lat="43.1021846" lon="11.7856854"><ele>489.75</ele><time>2026-03-29T14:22:50.125Z</time></trkpt><trkpt lat="43.1023333" lon="11.7857001"><ele>489.0</ele><time>2026-03-29T14:22:51.107Z</time></trkpt><trkpt lat="43.102488" lon="11.7857148"><ele>488.25</ele><time>2026-03-29T14:22:52.134Z</time></trkpt><trkpt lat="43.1026383" lon="11.78573"><ele>487.5</ele><time>2026-03-29T14:22:53.149Z</time></trkpt><trkpt lat="43.1027793" lon="11.7857482"><ele>486.75</ele><time>2026-03-29T14:22:54.165Z</time></trkpt><trkpt lat="43.1029177" lon="11.7857588"><ele>486.0</ele><time>2026-03-29T14:22:55.147Z</time></trkpt><trkpt lat="43.1030484" lon="11.7857678"><ele>486.0</ele><time>2026-03-29T14:22:56.155Z</time></trkpt><trkpt lat="43.1031749" lon="11.7857754"><ele>486.0</ele><time>2026-03-29T14:22:57.15Z</time></trkpt><trkpt lat="43.1032967" lon="11.7857815"><ele>486.0</ele><time>2026-03-29T14:22:58.114Z</time></trkpt><trkpt lat="43.1034358" lon="11.7857895"><ele>486.0</ele><time>2026-03-29T14:22:59.155Z</time></trkpt><trkpt lat="43.1035753" lon="11.7857874"><ele>484.75</ele><time>2026-03-29T14:23:00.149Z</time></trkpt><trkpt lat="43.1037169" lon="11.7857862"><ele>483.5</ele><time>2026-03-29T14:23:01.17Z</time></trkpt><trkpt lat="43.1038417" lon="11.7857949"><ele>482.25</ele><time>2026-03-29T14:23:02.153Z</time></trkpt><trkpt lat="43.1039503" lon="11.7858019"><ele>481.0</ele><time>2026-03-29T14:23:03.164Z</time></trkpt><trkpt lat="43.1040466" lon="11.7858075"><ele>481.8</ele><time>2026-03-29T14:23:04.143Z</time></trkpt><trkpt lat="43.1041336" lon="11.7858109"><ele>482.6</ele><time>2026-03-29T14:23:05.107Z</time></trkpt><trkpt lat="43.1042274" lon="11.7858161"><ele>483.4</ele><time>2026-03-29T14:23:06.152Z</time></trkpt><trkpt lat="43.10431" lon="11.7858191"><ele>484.2</ele><time>2026-03-29T14:23:07.137Z</time></trkpt><trkpt lat="43.1044051" lon="11.7858318"><ele>485.0</ele><time>2026-03-29T14:23:08.158Z</time></trkpt><trkpt lat="43.1045027" lon="11.7858446"><ele>485.0</ele><time>2026-03-29T14:23:09.161Z</time></trkpt><trkpt lat="43.1046054" lon="11.7858677"><ele>485.0</ele><time>2026-03-29T14:23:10.111Z</time></trkpt><trkpt lat="43.1047233" lon="11.7858815"><ele>485.0</ele><time>2026-03-29T14:23:11.11Z</time></trkpt><trkpt lat="43.1048358" lon="11.7858929"><ele>485.0</ele><time>2026-03-29T14:23:12.115Z</time></trkpt><trkpt lat="43.1049563" lon="11.7859095"><ele>484.75</ele><time>2026-03-29T14:23:13.137Z</time></trkpt><trkpt lat="43.105066" lon="11.7859304"><ele>484.5</ele><time>2026-03-29T14:23:14.117Z</time></trkpt><trkpt lat="43.1051817" lon="11.7859476"><ele>484.25</ele><time>2026-03-29T14:23:15.121Z</time></trkpt><trkpt lat="43.105303" lon="11.7859631"><ele>484.0</ele><time>2026-03-29T14:23:16.115Z</time></trkpt><trkpt lat="43.1054365" lon="11.7859725"><ele>484.0</ele><time>2026-03-29T14:23:17.165Z</time></trkpt><trkpt lat="43.1055599" lon="11.785984"><ele>484.0</ele><time>2026-03-29T14:23:18.108Z</time></trkpt><trkpt lat="43.1056875" lon="11.7859959"><ele>484.0</ele><time>2026-03-29T14:23:19.144Z</time></trkpt><trkpt lat="43.1058102" lon="11.7860139"><ele>484.0</ele><time>2026-03-29T14:23:20.157Z</time></trkpt><trkpt lat="43.1059321" lon="11.7860321"><ele>484.25</ele><time>2026-03-29T14:23:21.152Z</time></trkpt><trkpt lat="43.1060517" lon="11.7860529"><ele>484.5</ele><time>2026-03-29T14:23:22.105Z</time></trkpt><trkpt lat="43.1061766" lon="11.7860669"><ele>484.75</ele><time>2026-03-29T14:23:23.164Z</time></trkpt><trkpt lat="43.1062921" lon="11.7860801"><ele>485.0</ele><time>2026-03-29T14:23:24.162Z</time></trkpt><trkpt lat="43.1063985" lon="11.7860926"><ele>485.0</ele><time>2026-03-29T14:23:25.141Z</time></trkpt><trkpt lat="43.106508" lon="11.7861061"><ele>485.0</ele><time>2026-03-29T14:23:26.118Z</time></trkpt><trkpt lat="43.1066228" lon="11.7861201"><ele>485.0</ele><time>2026-03-29T14:23:27.116Z</time></trkpt><trkpt lat="43.1067456" lon="11.7861343"><ele>485.0</ele><time>2026-03-29T14:23:28.151Z</time></trkpt><trkpt lat="43.1068626" lon="11.7861573"><ele>484.75</ele><time>2026-03-29T14:23:29.119Z</time></trkpt><trkpt lat="43.1069812" lon="11.7861812"><ele>484.5</ele><time>2026-03-29T14:23:30.14Z</time></trkpt><trkpt lat="43.1071023" lon="11.7862172"><ele>484.25</ele><time>2026-03-29T14:23:31.167Z</time></trkpt><trkpt lat="43.107202" lon="11.7862654"><ele>484.0</ele><time>2026-03-29T14:23:32.14Z</time></trkpt><trkpt lat="43.107325" lon="11.7863278"><ele>483.25</ele><time>2026-03-29T14:23:33.112Z</time></trkpt><trkpt lat="43.1074586" lon="11.786404"><ele>482.5</ele><time>2026-03-29T14:23:34.18Z</time></trkpt><trkpt lat="43.1075814" lon="11.7864818"><ele>481.75</ele><time>2026-03-29T14:23:35.132Z</time></trkpt><trkpt lat="43.1077104" lon="11.7865616"><ele>481.0</ele><time>2026-03-29T14:23:36.113Z</time></trkpt><trkpt lat="43.1078561" lon="11.7866541"><ele>481.0</ele><time>2026-03-29T14:23:37.16Z</time></trkpt><trkpt lat="43.1079953" lon="11.7867387"><ele>481.0</ele><time>2026-03-29T14:23:38.15Z</time></trkpt><trkpt lat="43.1081297" lon="11.7868246"><ele>481.0</ele><time>2026-03-29T14:23:39.117Z</time></trkpt><trkpt lat="43.1082673" lon="11.7869198"><ele>476.33333333333337</ele><time>2026-03-29T14:23:40.139Z</time></trkpt><trkpt lat="43.1084082" lon="11.7870135"><ele>471.66666666666663</ele><time>2026-03-29T14:23:41.12Z</time></trkpt><trkpt lat="43.1085508" lon="11.7871107"><ele>467.0</ele><time>2026-03-29T14:23:42.119Z</time></trkpt><trkpt lat="43.1086892" lon="11.7872269"><ele>467.0</ele><time>2026-03-29T14:23:43.128Z</time></trkpt><trkpt lat="43.1088038" lon="11.7873491"><ele>467.0</ele><time>2026-03-29T14:23:44.117Z</time></trkpt><trkpt lat="43.1089203" lon="11.7875012"><ele>467.0</ele><time>2026-03-29T14:23:45.127Z</time></trkpt><trkpt lat="43.109026" lon="11.787666"><ele>468.3333333333333</ele><time>2026-03-29T14:23:46.108Z</time></trkpt><trkpt lat="43.1091228" lon="11.7878636"><ele>469.66666666666663</ele><time>2026-03-29T14:23:47.161Z</time></trkpt><trkpt lat="43.1092122" lon="11.7880298"><ele>471.0</ele><time>2026-03-29T14:23:48.128Z</time></trkpt><trkpt lat="43.1093004" lon="11.7882011"><ele>471.0</ele><time>2026-03-29T14:23:49.121Z</time></trkpt><trkpt lat="43.1093872" lon="11.7883687"><ele>471.0</ele><time>2026-03-29T14:23:50.133Z</time></trkpt><trkpt lat="43.1094752" lon="11.788531"><ele>471.0</ele><time>2026-03-29T14:23:51.156Z</time></trkpt><trkpt lat="43.1095616" lon="11.788673"><ele>471.0</ele><time>2026-03-29T14:23:52.159Z</time></trkpt><trkpt lat="43.109649" lon="11.7888176"><ele>470.5</ele><time>2026-03-29T14:23:53.118Z</time></trkpt><trkpt lat="43.1097412" lon="11.7889721"><ele>470.0</ele><time>2026-03-29T14:23:54.138Z</time></trkpt><trkpt lat="43.1098294" lon="11.7891118"><ele>469.5</ele><time>2026-03-29T14:23:55.108Z</time></trkpt><trkpt lat="43.1099203" lon="11.7892569"><ele>469.0</ele><time>2026-03-29T14:23:56.118Z</time></trkpt><trkpt lat="43.1100137" lon="11.7894037"><ele>468.75</ele><time>2026-03-29T14:23:57.13Z</time></trkpt><trkpt lat="43.1101048" lon="11.7895471"><ele>468.5</ele><time>2026-03-29T14:23:58.128Z</time></trkpt><trkpt lat="43.1101913" lon="11.7896923"><ele>468.25</ele><time>2026-03-29T14:23:59.144Z</time></trkpt><trkpt lat="43.1102647" lon="11.7898379"><ele>468.0</ele><time>2026-03-29T14:24:00.112Z</time></trkpt><trkpt lat="43.1103519" lon="11.7899941"><ele>468.0</ele><time>2026-03-29T14:24:01.108Z</time></trkpt><trkpt lat="43.1104477" lon="11.7901492"><ele>468.0</ele><time>2026-03-29T14:24:02.175Z</time></trkpt><trkpt lat="43.1105389" lon="11.7902554"><ele>468.0</ele><time>2026-03-29T14:24:03.122Z</time></trkpt><trkpt lat="43.1106711" lon="11.7903852"><ele>468.0</ele><time>2026-03-29T14:24:04.145Z</time></trkpt><trkpt lat="43.1108377" lon="11.7904829"><ele>464.33333333333337</ele><time>2026-03-29T14:24:05.155Z</time></trkpt><trkpt lat="43.1110017" lon="11.790592"><ele>460.6666666666667</ele><time>2026-03-29T14:24:06.15Z</time></trkpt><trkpt lat="43.1111585" lon="11.7906955"><ele>457.0</ele><time>2026-03-29T14:24:07.146Z</time></trkpt><trkpt lat="43.1113071" lon="11.7907902"><ele>457.0</ele><time>2026-03-29T14:24:08.153Z</time></trkpt><trkpt lat="43.1114438" lon="11.790882"><ele>457.0</ele><time>2026-03-29T14:24:09.111Z</time></trkpt><trkpt lat="43.1115881" lon="11.7909858"><ele>457.0</ele><time>2026-03-29T14:24:10.158Z</time></trkpt><trkpt lat="43.111693" lon="11.7911002"><ele>457.0</ele><time>2026-03-29T14:24:11.112Z</time></trkpt><trkpt lat="43.1117564" lon="11.7912186"><ele>454.0</ele><time>2026-03-29T14:24:12.122Z</time></trkpt><trkpt lat="43.1118031" lon="11.791368"><ele>451.0</ele><time>2026-03-29T14:24:13.114Z</time></trkpt><trkpt lat="43.1118217" lon="11.7915693"><ele>448.0</ele><time>2026-03-29T14:24:14.12Z</time></trkpt><trkpt lat="43.1118325" lon="11.791771"><ele>445.0</ele><time>2026-03-29T14:24:15.141Z</time></trkpt><trkpt lat="43.1118442" lon="11.7919737"><ele>443.75</ele><time>2026-03-29T14:24:16.139Z</time></trkpt><trkpt lat="43.1118691" lon="11.7921804"><ele>442.5</ele><time>2026-03-29T14:24:17.13Z</time></trkpt><trkpt lat="43.1118978" lon="11.7923697"><ele>441.25</ele><time>2026-03-29T14:24:18.124Z</time></trkpt><trkpt lat="43.1119465" lon="11.7925628"><ele>440.0</ele><time>2026-03-29T14:24:19.115Z</time></trkpt><trkpt lat="43.1120148" lon="11.7927892"><ele>436.66666666666663</ele><time>2026-03-29T14:24:20.126Z</time></trkpt><trkpt lat="43.1120835" lon="11.7930261"><ele>433.33333333333337</ele><time>2026-03-29T14:24:21.133Z</time></trkpt><trkpt lat="43.1121358" lon="11.7932908"><ele>430.0</ele><time>2026-03-29T14:24:22.126Z</time></trkpt><trkpt lat="43.112168" lon="11.7935866"><ele>426.33333333333337</ele><time>2026-03-29T14:24:23.153Z</time></trkpt><trkpt lat="43.1121857" lon="11.7938776"><ele>422.66666666666663</ele><time>2026-03-29T14:24:24.16Z</time></trkpt><trkpt lat="43.1122062" lon="11.7941523"><ele>419.0</ele><time>2026-03-29T14:24:25.134Z</time></trkpt><trkpt lat="43.1122389" lon="11.7944304"><ele>416.0</ele><time>2026-03-29T14:24:26.136Z</time></trkpt><trkpt lat="43.1122674" lon="11.7946935"><ele>413.0</ele><time>2026-03-29T14:24:27.116Z</time></trkpt><trkpt lat="43.1123059" lon="11.7949603"><ele>410.0</ele><time>2026-03-29T14:24:28.148Z</time></trkpt><trkpt lat="43.112351" lon="11.7951357"><ele>411.66666666666663</ele><time>2026-03-29T14:24:29.118Z</time></trkpt><trkpt lat="43.1124217" lon="11.7953433"><ele>413.33333333333337</ele><time>2026-03-29T14:24:30.113Z</time></trkpt><trkpt lat="43.1125057" lon="11.7955441"><ele>415.0</ele><time>2026-03-29T14:24:31.118Z</time></trkpt><trkpt lat="43.1126059" lon="11.7957449"><ele>415.0</ele><time>2026-03-29T14:24:32.111Z</time></trkpt><trkpt lat="43.1127189" lon="11.7959383"><ele>415.0</ele><time>2026-03-29T14:24:33.118Z</time></trkpt><trkpt lat="43.1128566" lon="11.7961211"><ele>415.0</ele><time>2026-03-29T14:24:34.13Z</time></trkpt><trkpt lat="43.1130027" lon="11.7962946"><ele>413.0</ele><time>2026-03-29T14:24:35.144Z</time></trkpt><trkpt lat="43.113157" lon="11.7964552"><ele>411.0</ele><time>2026-03-29T14:24:36.105Z</time></trkpt><trkpt lat="43.1133264" lon="11.7966266"><ele>409.0</ele><time>2026-03-29T14:24:37.176Z</time></trkpt><trkpt lat="43.1134938" lon="11.7968008"><ele>403.6666666666667</ele><time>2026-03-29T14:24:38.148Z</time></trkpt><trkpt lat="43.1136582" lon="11.796983"><ele>398.33333333333337</ele><time>2026-03-29T14:24:39.105Z</time></trkpt><trkpt lat="43.113822" lon="11.7971669"><ele>393.0</ele><time>2026-03-29T14:24:40.107Z</time></trkpt><trkpt lat="43.1139824" lon="11.7973452"><ele>393.33333333333337</ele><time>2026-03-29T14:24:41.106Z</time></trkpt><trkpt lat="43.1141522" lon="11.797506"><ele>393.6666666666667</ele><time>2026-03-29T14:24:42.114Z</time></trkpt><trkpt lat="43.1143329" lon="11.7976461"><ele>394.0</ele><time>2026-03-29T14:24:43.171Z</time></trkpt><trkpt lat="43.1144984" lon="11.7977572"><ele>394.0</ele><time>2026-03-29T14:24:44.141Z</time></trkpt><trkpt lat="43.114672" lon="11.7978556"><ele>394.0</ele><time>2026-03-29T14:24:45.134Z</time></trkpt><trkpt lat="43.114813" lon="11.7979433"><ele>394.0</ele><time>2026-03-29T14:24:46.146Z</time></trkpt><trkpt lat="43.1149762" lon="11.7980483"><ele>393.6666666666667</ele><time>2026-03-29T14:24:47.126Z</time></trkpt><trkpt lat="43.1151451" lon="11.798174"><ele>393.33333333333337</ele><time>2026-03-29T14:24:48.128Z</time></trkpt><trkpt lat="43.1152896" lon="11.7983302"><ele>393.0</ele><time>2026-03-29T14:24:49.114Z</time></trkpt><trkpt lat="43.1154185" lon="11.7985362"><ele>389.3333333333333</ele><time>2026-03-29T14:24:50.124Z</time></trkpt><trkpt lat="43.1155296" lon="11.7987762"><ele>385.66666666666663</ele><time>2026-03-29T14:24:51.121Z</time></trkpt><trkpt lat="43.1156234" lon="11.7990521"><ele>382.0</ele><time>2026-03-29T14:24:52.132Z</time></trkpt><trkpt lat="43.1156949" lon="11.7993351"><ele>382.0</ele><time>2026-03-29T14:24:53.121Z</time></trkpt><trkpt lat="43.1157477" lon="11.799612"><ele>382.0</ele><time>2026-03-29T14:24:54.105Z</time></trkpt><trkpt lat="43.1157814" lon="11.7999064"><ele>382.0</ele><time>2026-03-29T14:24:55.111Z</time></trkpt><trkpt lat="43.115792" lon="11.8002013"><ele>382.0</ele><time>2026-03-29T14:24:56.112Z</time></trkpt><trkpt lat="43.1157848" lon="11.8004942"><ele>382.0</ele><time>2026-03-29T14:24:57.154Z</time></trkpt><trkpt lat="43.1157528" lon="11.8007569"><ele>382.0</ele><time>2026-03-29T14:24:58.112Z</time></trkpt><trkpt lat="43.1156948" lon="11.8010196"><ele>376.66666666666663</ele><time>2026-03-29T14:24:59.119Z</time></trkpt><trkpt lat="43.1156171" lon="11.8012745"><ele>371.3333333333333</ele><time>2026-03-29T14:25:00.149Z</time></trkpt><trkpt lat="43.1155423" lon="11.801502"><ele>366.0</ele><time>2026-03-29T14:25:01.125Z</time></trkpt><trkpt lat="43.1154767" lon="11.8017332"><ele>365.6666666666667</ele><time>2026-03-29T14:25:02.124Z</time></trkpt><trkpt lat="43.1154225" lon="11.8019544"><ele>365.33333333333337</ele><time>2026-03-29T14:25:03.115Z</time></trkpt><trkpt lat="43.115396" lon="11.8021607"><ele>365.0</ele><time>2026-03-29T14:25:04.127Z</time></trkpt><trkpt lat="43.115406" lon="11.8023454"><ele>365.0</ele><time>2026-03-29T14:25:05.128Z</time></trkpt><trkpt lat="43.1154447" lon="11.802491"><ele>365.0</ele><time>2026-03-29T14:25:06.134Z</time></trkpt><trkpt lat="43.1155177" lon="11.8026381"><ele>365.0</ele><time>2026-03-29T14:25:07.159Z</time></trkpt><trkpt lat="43.1156176" lon="11.8027676"><ele>365.0</ele><time>2026-03-29T14:25:08.147Z</time></trkpt><trkpt lat="43.1157293" lon="11.8028977"><ele>367.33333333333337</ele><time>2026-03-29T14:25:09.117Z</time></trkpt><trkpt lat="43.1158133" lon="11.8030392"><ele>369.6666666666667</ele><time>2026-03-29T14:25:10.142Z</time></trkpt><trkpt lat="43.1159419" lon="11.803229"><ele>372.0</ele><time>2026-03-29T14:25:11.128Z</time></trkpt><trkpt lat="43.1160092" lon="11.8034066"><ele>372.6666666666667</ele><time>2026-03-29T14:25:12.129Z</time></trkpt><trkpt lat="43.1160505" lon="11.803603"><ele>373.33333333333337</ele><time>2026-03-29T14:25:13.108Z</time></trkpt><trkpt lat="43.1160571" lon="11.8038145"><ele>374.0</ele><time>2026-03-29T14:25:14.125Z</time></trkpt><trkpt lat="43.1160671" lon="11.8040682"><ele>373.5</ele><time>2026-03-29T14:25:15.152Z</time></trkpt><trkpt lat="43.1160847" lon="11.8046208"><ele>373.0</ele><time>2026-03-29T14:25:17.136Z</time></trkpt><trkpt lat="43.116103" lon="11.8049131"><ele>371.3333333333333</ele><time>2026-03-29T14:25:18.157Z</time></trkpt><trkpt lat="43.1161002" lon="11.8052048"><ele>369.6666666666667</ele><time>2026-03-29T14:25:19.126Z</time></trkpt><trkpt lat="43.1160913" lon="11.8055197"><ele>368.0</ele><time>2026-03-29T14:25:20.157Z</time></trkpt><trkpt lat="43.1160884" lon="11.8057974"><ele>367.0</ele><time>2026-03-29T14:25:21.118Z</time></trkpt><trkpt lat="43.1160908" lon="11.8060879"><ele>366.0</ele><time>2026-03-29T14:25:22.136Z</time></trkpt><trkpt lat="43.1160929" lon="11.8063708"><ele>365.0</ele><time>2026-03-29T14:25:23.108Z</time></trkpt><trkpt lat="43.1160934" lon="11.8066526"><ele>365.33333333333337</ele><time>2026-03-29T14:25:24.116Z</time></trkpt><trkpt lat="43.1160882" lon="11.8069328"><ele>365.6666666666667</ele><time>2026-03-29T14:25:25.129Z</time></trkpt><trkpt lat="43.1160841" lon="11.8071908"><ele>366.0</ele><time>2026-03-29T14:25:26.104Z</time></trkpt><trkpt lat="43.1160834" lon="11.80744"><ele>364.3333333333333</ele><time>2026-03-29T14:25:27.115Z</time></trkpt><trkpt lat="43.116083" lon="11.8076844"><ele>362.66666666666663</ele><time>2026-03-29T14:25:28.12Z</time></trkpt><trkpt lat="43.1160814" lon="11.8079229"><ele>361.0</ele><time>2026-03-29T14:25:29.122Z</time></trkpt><trkpt lat="43.1160791" lon="11.8081528"><ele>361.0</ele><time>2026-03-29T14:25:30.141Z</time></trkpt><trkpt lat="43.1160688" lon="11.8083696"><ele>361.0</ele><time>2026-03-29T14:25:31.14Z</time></trkpt><trkpt lat="43.1160355" lon="11.808572"><ele>361.0</ele><time>2026-03-29T14:25:32.115Z</time></trkpt><trkpt lat="43.1159719" lon="11.8087811"><ele>359.3333333333333</ele><time>2026-03-29T14:25:33.127Z</time></trkpt><trkpt lat="43.1158811" lon="11.8089711"><ele>357.6666666666667</ele><time>2026-03-29T14:25:34.125Z</time></trkpt><trkpt lat="43.1157633" lon="11.8091456"><ele>356.0</ele><time>2026-03-29T14:25:35.112Z</time></trkpt><trkpt lat="43.1156225" lon="11.8092927"><ele>354.0</ele><time>2026-03-29T14:25:36.158Z</time></trkpt><trkpt lat="43.1154793" lon="11.8094072"><ele>352.0</ele><time>2026-03-29T14:25:37.126Z</time></trkpt><trkpt lat="43.1153364" lon="11.8095039"><ele>350.0</ele><time>2026-03-29T14:25:38.15Z</time></trkpt><trkpt lat="43.1151955" lon="11.8095782"><ele>350.0</ele><time>2026-03-29T14:25:39.134Z</time></trkpt><trkpt lat="43.1150473" lon="11.8096627"><ele>350.0</ele><time>2026-03-29T14:25:40.116Z</time></trkpt><trkpt lat="43.1149362" lon="11.8097344"><ele>350.0</ele><time>2026-03-29T14:25:41.116Z</time></trkpt><trkpt lat="43.1148702" lon="11.8098045"><ele>350.0</ele><time>2026-03-29T14:25:42.116Z</time></trkpt><trkpt lat="43.1148122" lon="11.8099091"><ele>349.4</ele><time>2026-03-29T14:25:43.113Z</time></trkpt><trkpt lat="43.1147891" lon="11.8100296"><ele>348.8</ele><time>2026-03-29T14:25:44.12Z</time></trkpt><trkpt lat="43.1148023" lon="11.8101753"><ele>348.20000000000005</ele><time>2026-03-29T14:25:45.112Z</time></trkpt><trkpt lat="43.1148603" lon="11.8102924"><ele>347.6</ele><time>2026-03-29T14:25:46.121Z</time></trkpt><trkpt lat="43.1149483" lon="11.8103876"><ele>347.0</ele><time>2026-03-29T14:25:47.127Z</time></trkpt><trkpt lat="43.1150411" lon="11.8104467"><ele>347.0</ele><time>2026-03-29T14:25:48.115Z</time></trkpt><trkpt lat="43.115168" lon="11.8104929"><ele>347.0</ele><time>2026-03-29T14:25:49.119Z</time></trkpt><trkpt lat="43.1153135" lon="11.8105207"><ele>347.0</ele><time>2026-03-29T14:25:50.115Z</time></trkpt><trkpt lat="43.115461" lon="11.8105598"><ele>347.0</ele><time>2026-03-29T14:25:51.172Z</time></trkpt><trkpt lat="43.11559" lon="11.8106081"><ele>347.0</ele><time>2026-03-29T14:25:52.122Z</time></trkpt><trkpt lat="43.1157024" lon="11.8106811"><ele>347.0</ele><time>2026-03-29T14:25:53.113Z</time></trkpt><trkpt lat="43.1157938" lon="11.8107941"><ele>347.0</ele><time>2026-03-29T14:25:54.121Z</time></trkpt><trkpt lat="43.1158646" lon="11.8109336"><ele>347.0</ele><time>2026-03-29T14:25:55.119Z</time></trkpt><trkpt lat="43.1159319" lon="11.8110799"><ele>345.5</ele><time>2026-03-29T14:25:56.11Z</time></trkpt><trkpt lat="43.1160344" lon="11.8111971"><ele>344.0</ele><time>2026-03-29T14:25:57.135Z</time></trkpt><trkpt lat="43.1161497" lon="11.8112991"><ele>342.5</ele><time>2026-03-29T14:25:58.169Z</time></trkpt><trkpt lat="43.1162698" lon="11.811347"><ele>341.0</ele><time>2026-03-29T14:25:59.112Z</time></trkpt><trkpt lat="43.1163945" lon="11.811352"><ele>341.0</ele><time>2026-03-29T14:26:00.119Z</time></trkpt><trkpt lat="43.1165272" lon="11.8113133"><ele>341.0</ele><time>2026-03-29T14:26:01.157Z</time></trkpt><trkpt lat="43.116676" lon="11.8112159"><ele>341.0</ele><time>2026-03-29T14:26:02.152Z</time></trkpt><trkpt lat="43.1168287" lon="11.8110851"><ele>341.6666666666667</ele><time>2026-03-29T14:26:03.127Z</time></trkpt><trkpt lat="43.1169919" lon="11.8109458"><ele>342.3333333333333</ele><time>2026-03-29T14:26:04.13Z</time></trkpt><trkpt lat="43.1171463" lon="11.8107961"><ele>343.0</ele><time>2026-03-29T14:26:05.135Z</time></trkpt><trkpt lat="43.1173073" lon="11.8106546"><ele>340.66666666666663</ele><time>2026-03-29T14:26:06.112Z</time></trkpt><trkpt lat="43.1174763" lon="11.8105091"><ele>338.3333333333333</ele><time>2026-03-29T14:26:07.123Z</time></trkpt><trkpt lat="43.1176164" lon="11.8103966"><ele>336.0</ele><time>2026-03-29T14:26:08.122Z</time></trkpt><trkpt lat="43.1177801" lon="11.8103016"><ele>336.0</ele><time>2026-03-29T14:26:09.111Z</time></trkpt><trkpt lat="43.1179623" lon="11.8102404"><ele>336.0</ele><time>2026-03-29T14:26:10.115Z</time></trkpt><trkpt lat="43.1181439" lon="11.8102316"><ele>336.0</ele><time>2026-03-29T14:26:11.111Z</time></trkpt><trkpt lat="43.1183544" lon="11.8102801"><ele>334.6666666666667</ele><time>2026-03-29T14:26:12.177Z</time></trkpt><trkpt lat="43.1185451" lon="11.8103359"><ele>333.33333333333337</ele><time>2026-03-29T14:26:13.112Z</time></trkpt><trkpt lat="43.1187468" lon="11.8104223"><ele>332.0</ele><time>2026-03-29T14:26:14.133Z</time></trkpt><trkpt lat="43.1189213" lon="11.8105391"><ele>330.33333333333337</ele><time>2026-03-29T14:26:15.137Z</time></trkpt><trkpt lat="43.1190834" lon="11.8106915"><ele>328.6666666666667</ele><time>2026-03-29T14:26:16.135Z</time></trkpt><trkpt lat="43.1192431" lon="11.8108536"><ele>327.0</ele><time>2026-03-29T14:26:17.122Z</time></trkpt><trkpt lat="43.1193947" lon="11.8110472"><ele>325.0</ele><time>2026-03-29T14:26:18.162Z</time></trkpt><trkpt lat="43.1195439" lon="11.8112515"><ele>323.0</ele><time>2026-03-29T14:26:19.144Z</time></trkpt><trkpt lat="43.1196955" lon="11.8114439"><ele>321.0</ele><time>2026-03-29T14:26:20.141Z</time></trkpt><trkpt lat="43.1198367" lon="11.8116291"><ele>321.0</ele><time>2026-03-29T14:26:21.126Z</time></trkpt><trkpt lat="43.1199668" lon="11.8118139"><ele>321.0</ele><time>2026-03-29T14:26:22.116Z</time></trkpt><trkpt lat="43.1200754" lon="11.8119924"><ele>321.0</ele><time>2026-03-29T14:26:23.121Z</time></trkpt><trkpt lat="43.1201637" lon="11.8121815"><ele>318.6666666666667</ele><time>2026-03-29T14:26:24.113Z</time></trkpt><trkpt lat="43.1202338" lon="11.8123944"><ele>316.33333333333337</ele><time>2026-03-29T14:26:25.127Z</time></trkpt><trkpt lat="43.1202831" lon="11.8126046"><ele>314.0</ele><time>2026-03-29T14:26:26.122Z</time></trkpt><trkpt lat="43.1203224" lon="11.8128088"><ele>313.0</ele><time>2026-03-29T14:26:27.115Z</time></trkpt><trkpt lat="43.1203609" lon="11.8130198"><ele>312.0</ele><time>2026-03-29T14:26:28.121Z</time></trkpt><trkpt lat="43.1204055" lon="11.8132508"><ele>311.0</ele><time>2026-03-29T14:26:29.124Z</time></trkpt><trkpt lat="43.1204533" lon="11.8135022"><ele>310.33333333333337</ele><time>2026-03-29T14:26:30.117Z</time></trkpt><trkpt lat="43.1204962" lon="11.8137555"><ele>309.6666666666667</ele><time>2026-03-29T14:26:31.112Z</time></trkpt><trkpt lat="43.1205461" lon="11.8140312"><ele>309.0</ele><time>2026-03-29T14:26:32.125Z</time></trkpt><trkpt lat="43.1206004" lon="11.8143157"><ele>307.5</ele><time>2026-03-29T14:26:33.124Z</time></trkpt><trkpt lat="43.120654" lon="11.8146182"><ele>306.0</ele><time>2026-03-29T14:26:34.135Z</time></trkpt><trkpt lat="43.120704" lon="11.8149224"><ele>308.5</ele><time>2026-03-29T14:26:35.137Z</time></trkpt><trkpt lat="43.1207353" lon="11.8152287"><ele>311.0</ele><time>2026-03-29T14:26:36.132Z</time></trkpt><trkpt lat="43.1207579" lon="11.8155546"><ele>311.0</ele><time>2026-03-29T14:26:37.174Z</time></trkpt><trkpt lat="43.1207811" lon="11.8158304"><ele>311.0</ele><time>2026-03-29T14:26:38.127Z</time></trkpt><trkpt lat="43.120807" lon="11.8161066"><ele>311.0</ele><time>2026-03-29T14:26:39.138Z</time></trkpt><trkpt lat="43.1208236" lon="11.8163556"><ele>312.0</ele><time>2026-03-29T14:26:40.106Z</time></trkpt><trkpt lat="43.1208397" lon="11.8166036"><ele>313.0</ele><time>2026-03-29T14:26:41.117Z</time></trkpt><trkpt lat="43.120853" lon="11.8168516"><ele>314.0</ele><time>2026-03-29T14:26:42.15Z</time></trkpt><trkpt lat="43.1208577" lon="11.8170733"><ele>314.0</ele><time>2026-03-29T14:26:43.102Z</time></trkpt><trkpt lat="43.1208486" lon="11.817325"><ele>314.0</ele><time>2026-03-29T14:26:44.148Z</time></trkpt><trkpt lat="43.1208266" lon="11.8175674"><ele>314.0</ele><time>2026-03-29T14:26:45.126Z</time></trkpt><trkpt lat="43.12079" lon="11.817798"><ele>313.6666666666667</ele><time>2026-03-29T14:26:46.112Z</time></trkpt><trkpt lat="43.1207435" lon="11.8180226"><ele>313.3333333333333</ele><time>2026-03-29T14:26:47.11Z</time></trkpt><trkpt lat="43.120691" lon="11.8182322"><ele>313.0</ele><time>2026-03-29T14:26:48.122Z</time></trkpt><trkpt lat="43.1206361" lon="11.8184336"><ele>314.3333333333333</ele><time>2026-03-29T14:26:49.118Z</time></trkpt><trkpt lat="43.1205894" lon="11.8186298"><ele>315.6666666666667</ele><time>2026-03-29T14:26:50.127Z</time></trkpt><trkpt lat="43.1205359" lon="11.8188367"><ele>317.0</ele><time>2026-03-29T14:26:51.117Z</time></trkpt><trkpt lat="43.1205146" lon="11.8190251"><ele>317.0</ele><time>2026-03-29T14:26:52.126Z</time></trkpt><trkpt lat="43.1205113" lon="11.819218"><ele>317.0</ele><time>2026-03-29T14:26:53.117Z</time></trkpt><trkpt lat="43.120521" lon="11.8194222"><ele>317.0</ele><time>2026-03-29T14:26:54.142Z</time></trkpt><trkpt lat="43.1205361" lon="11.8196314"><ele>317.0</ele><time>2026-03-29T14:26:55.141Z</time></trkpt><trkpt lat="43.1205508" lon="11.8198397"><ele>316.0</ele><time>2026-03-29T14:26:56.11Z</time></trkpt><trkpt lat="43.1205692" lon="11.820056"><ele>315.0</ele><time>2026-03-29T14:26:57.124Z</time></trkpt><trkpt lat="43.12058" lon="11.8202769"><ele>314.0</ele><time>2026-03-29T14:26:58.122Z</time></trkpt><trkpt lat="43.1205888" lon="11.8204913"><ele>313.0</ele><time>2026-03-29T14:26:59.105Z</time></trkpt><trkpt lat="43.1205993" lon="11.8207129"><ele>312.0</ele><time>2026-03-29T14:27:00.132Z</time></trkpt><trkpt lat="43.1206092" lon="11.8209272"><ele>311.0</ele><time>2026-03-29T14:27:01.13Z</time></trkpt><trkpt lat="43.1206201" lon="11.8211417"><ele>311.0</ele><time>2026-03-29T14:27:02.124Z</time></trkpt><trkpt lat="43.1206393" lon="11.8213563"><ele>311.0</ele><time>2026-03-29T14:27:03.12Z</time></trkpt><trkpt lat="43.1206568" lon="11.8215615"><ele>311.0</ele><time>2026-03-29T14:27:04.111Z</time></trkpt><trkpt lat="43.1206677" lon="11.8217693"><ele>310.75</ele><time>2026-03-29T14:27:05.111Z</time></trkpt><trkpt lat="43.1206809" lon="11.8219686"><ele>310.5</ele><time>2026-03-29T14:27:06.129Z</time></trkpt><trkpt lat="43.1206949" lon="11.8221505"><ele>310.25</ele><time>2026-03-29T14:27:07.135Z</time></trkpt><trkpt lat="43.120711" lon="11.8223332"><ele>310.0</ele><time>2026-03-29T14:27:08.114Z</time></trkpt><trkpt lat="43.1207384" lon="11.8224971"><ele>310.25</ele><time>2026-03-29T14:27:09.111Z</time></trkpt><trkpt lat="43.1207794" lon="11.8226499"><ele>310.5</ele><time>2026-03-29T14:27:10.12Z</time></trkpt><trkpt lat="43.1208244" lon="11.8228"><ele>310.75</ele><time>2026-03-29T14:27:11.113Z</time></trkpt><trkpt lat="43.1208708" lon="11.822947"><ele>311.0</ele><time>2026-03-29T14:27:12.12Z</time></trkpt><trkpt lat="43.1209152" lon="11.8230791"><ele>311.0</ele><time>2026-03-29T14:27:13.117Z</time></trkpt><trkpt lat="43.1209657" lon="11.8232122"><ele>311.0</ele><time>2026-03-29T14:27:14.125Z</time></trkpt><trkpt lat="43.1210121" lon="11.8233429"><ele>311.0</ele><time>2026-03-29T14:27:15.134Z</time></trkpt><trkpt lat="43.1210567" lon="11.8234761"><ele>311.0</ele><time>2026-03-29T14:27:16.113Z</time></trkpt><trkpt lat="43.1211061" lon="11.823614"><ele>311.0</ele><time>2026-03-29T14:27:17.105Z</time></trkpt><trkpt lat="43.1211502" lon="11.823749"><ele>311.0</ele><time>2026-03-29T14:27:18.115Z</time></trkpt><trkpt lat="43.1211947" lon="11.8238777"><ele>311.0</ele><time>2026-03-29T14:27:19.131Z</time></trkpt><trkpt lat="43.121234" lon="11.8240069"><ele>311.0</ele><time>2026-03-29T14:27:20.12Z</time></trkpt><trkpt lat="43.1212782" lon="11.8241352"><ele>311.0</ele><time>2026-03-29T14:27:21.131Z</time></trkpt><trkpt lat="43.1213286" lon="11.8242598"><ele>311.0</ele><time>2026-03-29T14:27:22.131Z</time></trkpt><trkpt lat="43.1213824" lon="11.8243811"><ele>310.25</ele><time>2026-03-29T14:27:23.11Z</time></trkpt><trkpt lat="43.1214454" lon="11.824517"><ele>309.5</ele><time>2026-03-29T14:27:24.12Z</time></trkpt><trkpt lat="43.1215133" lon="11.8246516"><ele>308.75</ele><time>2026-03-29T14:27:25.129Z</time></trkpt><trkpt lat="43.1215898" lon="11.8247887"><ele>308.0</ele><time>2026-03-29T14:27:26.119Z</time></trkpt><trkpt lat="43.1216699" lon="11.824928"><ele>308.0</ele><time>2026-03-29T14:27:27.124Z</time></trkpt><trkpt lat="43.1217511" lon="11.8250712"><ele>308.0</ele><time>2026-03-29T14:27:28.114Z</time></trkpt><trkpt lat="43.1218458" lon="11.825235"><ele>308.0</ele><time>2026-03-29T14:27:29.122Z</time></trkpt><trkpt lat="43.1219388" lon="11.8253931"><ele>308.0</ele><time>2026-03-29T14:27:30.121Z</time></trkpt><trkpt lat="43.1220409" lon="11.8255665"><ele>309.33333333333337</ele><time>2026-03-29T14:27:31.126Z</time></trkpt><trkpt lat="43.1221387" lon="11.8257359"><ele>310.6666666666667</ele><time>2026-03-29T14:27:32.129Z</time></trkpt><trkpt lat="43.1222388" lon="11.8259099"><ele>312.0</ele><time>2026-03-29T14:27:33.154Z</time></trkpt><trkpt lat="43.122312" lon="11.826088"><ele>312.2</ele><time>2026-03-29T14:27:34.151Z</time></trkpt><trkpt lat="43.1223668" lon="11.8262773"><ele>312.4</ele><time>2026-03-29T14:27:35.125Z</time></trkpt><trkpt lat="43.1223575" lon="11.8263948"><ele>312.6</ele><time>2026-03-29T14:27:37.152Z</time></trkpt><trkpt lat="43.1223377" lon="11.8265435"><ele>312.8</ele><time>2026-03-29T14:27:39.104Z</time></trkpt><trkpt lat="43.1223195" lon="11.8266638"><ele>313.0</ele><time>2026-03-29T14:27:40.115Z</time></trkpt><trkpt lat="43.1224391" lon="11.8276331"><ele>314.66666666666663</ele><time>2026-03-29T14:27:41.125Z</time></trkpt><trkpt lat="43.1224403" lon="11.827895"><ele>316.3333333333333</ele><time>2026-03-29T14:27:42.139Z</time></trkpt><trkpt lat="43.1224506" lon="11.8281642"><ele>318.0</ele><time>2026-03-29T14:27:43.124Z</time></trkpt><trkpt lat="43.1224846" lon="11.8284469"><ele>319.6666666666667</ele><time>2026-03-29T14:27:44.156Z</time></trkpt><trkpt lat="43.1225351" lon="11.8286851"><ele>321.33333333333337</ele><time>2026-03-29T14:27:45.133Z</time></trkpt><trkpt lat="43.1225856" lon="11.8289144"><ele>323.0</ele><time>2026-03-29T14:27:46.164Z</time></trkpt><trkpt lat="43.1226237" lon="11.82911"><ele>323.0</ele><time>2026-03-29T14:27:47.159Z</time></trkpt><trkpt lat="43.1226268" lon="11.8292679"><ele>323.0</ele><time>2026-03-29T14:27:48.147Z</time></trkpt><trkpt lat="43.1226547" lon="11.8294665"><ele>323.0</ele><time>2026-03-29T14:27:49.146Z</time></trkpt><trkpt lat="43.122683" lon="11.8296575"><ele>323.0</ele><time>2026-03-29T14:27:50.165Z</time></trkpt><trkpt lat="43.1226975" lon="11.8298306"><ele>323.25</ele><time>2026-03-29T14:27:51.113Z</time></trkpt><trkpt lat="43.1227147" lon="11.8300162"><ele>323.5</ele><time>2026-03-29T14:27:52.157Z</time></trkpt><trkpt lat="43.122724" lon="11.8301865"><ele>323.75</ele><time>2026-03-29T14:27:53.132Z</time></trkpt><trkpt lat="43.1227401" lon="11.8303656"><ele>324.0</ele><time>2026-03-29T14:27:54.124Z</time></trkpt><trkpt lat="43.1227538" lon="11.8305449"><ele>324.25</ele><time>2026-03-29T14:27:55.118Z</time></trkpt><trkpt lat="43.1227792" lon="11.8307154"><ele>324.5</ele><time>2026-03-29T14:27:56.12Z</time></trkpt><trkpt lat="43.1227978" lon="11.8308971"><ele>324.75</ele><time>2026-03-29T14:27:57.116Z</time></trkpt><trkpt lat="43.1228159" lon="11.831097"><ele>325.0</ele><time>2026-03-29T14:27:58.157Z</time></trkpt><trkpt lat="43.1228334" lon="11.831281"><ele>324.3333333333333</ele><time>2026-03-29T14:27:59.155Z</time></trkpt><trkpt lat="43.1228429" lon="11.8314726"><ele>323.6666666666667</ele><time>2026-03-29T14:28:00.13Z</time></trkpt><trkpt lat="43.1228589" lon="11.8316712"><ele>323.0</ele><time>2026-03-29T14:28:01.164Z</time></trkpt><trkpt lat="43.1228579" lon="11.831908"><ele>321.0</ele><time>2026-03-29T14:28:02.125Z</time></trkpt><trkpt lat="43.122855" lon="11.8321266"><ele>319.0</ele><time>2026-03-29T14:28:03.123Z</time></trkpt><trkpt lat="43.1228514" lon="11.8323668"><ele>317.0</ele><time>2026-03-29T14:28:04.104Z</time></trkpt><trkpt lat="43.1228508" lon="11.8326142"><ele>315.33333333333337</ele><time>2026-03-29T14:28:05.103Z</time></trkpt><trkpt lat="43.1228496" lon="11.8328856"><ele>313.6666666666667</ele><time>2026-03-29T14:28:06.124Z</time></trkpt><trkpt lat="43.1228492" lon="11.8331724"><ele>312.0</ele><time>2026-03-29T14:28:07.125Z</time></trkpt><trkpt lat="43.1228467" lon="11.8334625"><ele>312.0</ele><time>2026-03-29T14:28:08.121Z</time></trkpt><trkpt lat="43.1228396" lon="11.8337727"><ele>312.0</ele><time>2026-03-29T14:28:09.142Z</time></trkpt><trkpt lat="43.1228399" lon="11.8340849"><ele>314.5</ele><time>2026-03-29T14:28:10.109Z</time></trkpt><trkpt lat="43.1228492" lon="11.834448"><ele>317.0</ele><time>2026-03-29T14:28:11.147Z</time></trkpt><trkpt lat="43.1228668" lon="11.8348021"><ele>318.5</ele><time>2026-03-29T14:28:12.116Z</time></trkpt><trkpt lat="43.1228879" lon="11.8352268"><ele>320.0</ele><time>2026-03-29T14:28:13.115Z</time></trkpt><trkpt lat="43.1229245" lon="11.8356189"><ele>320.0</ele><time>2026-03-29T14:28:14.128Z</time></trkpt><trkpt lat="43.1229572" lon="11.8359993"><ele>320.0</ele><time>2026-03-29T14:28:15.155Z</time></trkpt><trkpt lat="43.1229297" lon="11.8361045"><ele>320.0</ele><time>2026-03-29T14:28:16.116Z</time></trkpt><trkpt lat="43.1229235" lon="11.8363901"><ele>320.0</ele><time>2026-03-29T14:28:17.133Z</time></trkpt><trkpt lat="43.1228871" lon="11.8366425"><ele>320.0</ele><time>2026-03-29T14:28:18.116Z</time></trkpt><trkpt lat="43.1228577" lon="11.8369112"><ele>320.0</ele><time>2026-03-29T14:28:19.119Z</time></trkpt><trkpt lat="43.1228205" lon="11.8371754"><ele>318.6666666666667</ele><time>2026-03-29T14:28:20.145Z</time></trkpt><trkpt lat="43.1227737" lon="11.8374331"><ele>317.3333333333333</ele><time>2026-03-29T14:28:21.12Z</time></trkpt><trkpt lat="43.122725" lon="11.8377093"><ele>316.0</ele><time>2026-03-29T14:28:22.118Z</time></trkpt><trkpt lat="43.1226695" lon="11.8379826"><ele>316.0</ele><time>2026-03-29T14:28:23.132Z</time></trkpt><trkpt lat="43.1226039" lon="11.8382363"><ele>316.0</ele><time>2026-03-29T14:28:24.125Z</time></trkpt><trkpt lat="43.122528" lon="11.8384872"><ele>316.0</ele><time>2026-03-29T14:28:25.154Z</time></trkpt><trkpt lat="43.1224376" lon="11.838734"><ele>313.66666666666663</ele><time>2026-03-29T14:28:26.106Z</time></trkpt><trkpt lat="43.1223315" lon="11.8389961"><ele>311.3333333333333</ele><time>2026-03-29T14:28:27.13Z</time></trkpt><trkpt lat="43.1222282" lon="11.8392451"><ele>309.0</ele><time>2026-03-29T14:28:28.112Z</time></trkpt><trkpt lat="43.12212" lon="11.8394971"><ele>309.0</ele><time>2026-03-29T14:28:29.118Z</time></trkpt><trkpt lat="43.1220566" lon="11.8395831"><ele>309.0</ele><time>2026-03-29T14:28:30.121Z</time></trkpt><trkpt lat="43.1219433" lon="11.839734"><ele>309.0</ele><time>2026-03-29T14:28:31.107Z</time></trkpt><trkpt lat="43.1218261" lon="11.8398641"><ele>309.0</ele><time>2026-03-29T14:28:32.128Z</time></trkpt><trkpt lat="43.1217179" lon="11.8399349"><ele>309.0</ele><time>2026-03-29T14:28:33.132Z</time></trkpt><trkpt lat="43.1216229" lon="11.8399823"><ele>309.0</ele><time>2026-03-29T14:28:34.108Z</time></trkpt><trkpt lat="43.1215151" lon="11.840018"><ele>309.0</ele><time>2026-03-29T14:28:35.109Z</time></trkpt><trkpt lat="43.1213881" lon="11.8400512"><ele>309.0</ele><time>2026-03-29T14:28:36.121Z</time></trkpt><trkpt lat="43.1211986" lon="11.8400916"><ele>309.3333333333333</ele><time>2026-03-29T14:28:37.121Z</time></trkpt><trkpt lat="43.1210686" lon="11.8401174"><ele>309.66666666666663</ele><time>2026-03-29T14:28:38.108Z</time></trkpt><trkpt lat="43.1208009" lon="11.8401721"><ele>310.0</ele><time>2026-03-29T14:28:39.121Z</time></trkpt><trkpt lat="43.1205404" lon="11.8402248"><ele>309.25</ele><time>2026-03-29T14:28:40.129Z</time></trkpt><trkpt lat="43.1206895" lon="11.8401687"><ele>308.5</ele><time>2026-03-29T14:28:41.129Z</time></trkpt><trkpt lat="43.1205515" lon="11.8402105"><ele>307.75</ele><time>2026-03-29T14:28:42.114Z</time></trkpt><trkpt lat="43.1205008" lon="11.8403707"><ele>307.0</ele><time>2026-03-29T14:28:43.114Z</time></trkpt><trkpt lat="43.1200346" lon="11.8405246"><ele>307.0</ele><time>2026-03-29T14:28:44.122Z</time></trkpt><trkpt lat="43.1199903" lon="11.8407119"><ele>307.0</ele><time>2026-03-29T14:28:45.123Z</time></trkpt><trkpt lat="43.1199568" lon="11.840936"><ele>307.0</ele><time>2026-03-29T14:28:46.151Z</time></trkpt><trkpt lat="43.1199633" lon="11.8412049"><ele>306.0</ele><time>2026-03-29T14:28:47.145Z</time></trkpt><trkpt lat="43.1199729" lon="11.8414752"><ele>305.0</ele><time>2026-03-29T14:28:48.123Z</time></trkpt><trkpt lat="43.1199569" lon="11.8417591"><ele>304.0</ele><time>2026-03-29T14:28:49.125Z</time></trkpt><trkpt lat="43.1199274" lon="11.8420546"><ele>307.0</ele><time>2026-03-29T14:28:50.111Z</time></trkpt><trkpt lat="43.1198949" lon="11.8423746"><ele>310.0</ele><time>2026-03-29T14:28:51.121Z</time></trkpt><trkpt lat="43.1198589" lon="11.842687"><ele>310.0</ele><time>2026-03-29T14:28:52.126Z</time></trkpt><trkpt lat="43.1198112" lon="11.8430375"><ele>310.0</ele><time>2026-03-29T14:28:53.128Z</time></trkpt><trkpt lat="43.1197744" lon="11.8433638"><ele>311.3333333333333</ele><time>2026-03-29T14:28:54.114Z</time></trkpt><trkpt lat="43.1197541" lon="11.8436727"><ele>312.6666666666667</ele><time>2026-03-29T14:28:55.111Z</time></trkpt><trkpt lat="43.1197461" lon="11.8439678"><ele>314.0</ele><time>2026-03-29T14:28:56.114Z</time></trkpt><trkpt lat="43.1197517" lon="11.8442473"><ele>312.0</ele><time>2026-03-29T14:28:57.125Z</time></trkpt><trkpt lat="43.1197362" lon="11.8444843"><ele>310.0</ele><time>2026-03-29T14:28:58.168Z</time></trkpt><trkpt lat="43.1197182" lon="11.8446894"><ele>308.0</ele><time>2026-03-29T14:28:59.162Z</time></trkpt><trkpt lat="43.1196796" lon="11.8449029"><ele>308.0</ele><time>2026-03-29T14:29:00.153Z</time></trkpt><trkpt lat="43.1196087" lon="11.8451138"><ele>308.0</ele><time>2026-03-29T14:29:01.138Z</time></trkpt><trkpt lat="43.1194838" lon="11.8452846"><ele>308.0</ele><time>2026-03-29T14:29:02.129Z</time></trkpt><trkpt lat="43.1193254" lon="11.8454184"><ele>306.33333333333337</ele><time>2026-03-29T14:29:03.124Z</time></trkpt><trkpt lat="43.1191475" lon="11.8455783"><ele>304.6666666666667</ele><time>2026-03-29T14:29:04.131Z</time></trkpt><trkpt lat="43.1189618" lon="11.8456639"><ele>303.0</ele><time>2026-03-29T14:29:05.112Z</time></trkpt><trkpt lat="43.1187607" lon="11.8456875"><ele>300.6666666666667</ele><time>2026-03-29T14:29:06.121Z</time></trkpt><trkpt lat="43.1185257" lon="11.8457427"><ele>298.33333333333337</ele><time>2026-03-29T14:29:07.124Z</time></trkpt><trkpt lat="43.1183321" lon="11.8458339"><ele>296.0</ele><time>2026-03-29T14:29:08.125Z</time></trkpt><trkpt lat="43.1181761" lon="11.8459521"><ele>295.0</ele><time>2026-03-29T14:29:09.132Z</time></trkpt><trkpt lat="43.1180285" lon="11.846132"><ele>294.0</ele><time>2026-03-29T14:29:10.123Z</time></trkpt><trkpt lat="43.1178992" lon="11.8463542"><ele>293.0</ele><time>2026-03-29T14:29:11.127Z</time></trkpt><trkpt lat="43.1177788" lon="11.8465855"><ele>294.0</ele><time>2026-03-29T14:29:12.123Z</time></trkpt><trkpt lat="43.1176532" lon="11.8468073"><ele>295.0</ele><time>2026-03-29T14:29:13.118Z</time></trkpt><trkpt lat="43.1175426" lon="11.8470372"><ele>296.0</ele><time>2026-03-29T14:29:14.139Z</time></trkpt><trkpt lat="43.1174523" lon="11.847272"><ele>293.0</ele><time>2026-03-29T14:29:15.124Z</time></trkpt><trkpt lat="43.1173867" lon="11.8475391"><ele>290.0</ele><time>2026-03-29T14:29:16.145Z</time></trkpt><trkpt lat="43.1173693" lon="11.8477913"><ele>287.0</ele><time>2026-03-29T14:29:17.112Z</time></trkpt><trkpt lat="43.1173732" lon="11.8480659"><ele>286.6666666666667</ele><time>2026-03-29T14:29:18.117Z</time></trkpt><trkpt lat="43.1173803" lon="11.8483401"><ele>286.3333333333333</ele><time>2026-03-29T14:29:19.123Z</time></trkpt><trkpt lat="43.1174007" lon="11.8485658"><ele>286.0</ele><time>2026-03-29T14:29:20.117Z</time></trkpt><trkpt lat="43.1174139" lon="11.8487826"><ele>288.3333333333333</ele><time>2026-03-29T14:29:21.132Z</time></trkpt><trkpt lat="43.1174396" lon="11.8489808"><ele>290.6666666666667</ele><time>2026-03-29T14:29:22.111Z</time></trkpt><trkpt lat="43.1174406" lon="11.849182"><ele>293.0</ele><time>2026-03-29T14:29:23.13Z</time></trkpt><trkpt lat="43.1174208" lon="11.8493963"><ele>290.0</ele><time>2026-03-29T14:29:24.173Z</time></trkpt><trkpt lat="43.1173549" lon="11.8495715"><ele>287.0</ele><time>2026-03-29T14:29:25.155Z</time></trkpt><trkpt lat="43.1172381" lon="11.8497554"><ele>284.0</ele><time>2026-03-29T14:29:26.144Z</time></trkpt><trkpt lat="43.1171291" lon="11.8499385"><ele>283.6666666666667</ele><time>2026-03-29T14:29:27.129Z</time></trkpt><trkpt lat="43.1170022" lon="11.8501399"><ele>283.3333333333333</ele><time>2026-03-29T14:29:28.131Z</time></trkpt><trkpt lat="43.1168875" lon="11.8503452"><ele>283.0</ele><time>2026-03-29T14:29:29.114Z</time></trkpt><trkpt lat="43.1168086" lon="11.8505626"><ele>283.0</ele><time>2026-03-29T14:29:30.121Z</time></trkpt><trkpt lat="43.116747" lon="11.8508092"><ele>283.0</ele><time>2026-03-29T14:29:31.243Z</time></trkpt><trkpt lat="43.1167344" lon="11.8512226"><ele>283.66666666666663</ele><time>2026-03-29T14:29:33.122Z</time></trkpt><trkpt lat="43.1167577" lon="11.851437"><ele>284.3333333333333</ele><time>2026-03-29T14:29:34.119Z</time></trkpt><trkpt lat="43.1168096" lon="11.8516396"><ele>285.0</ele><time>2026-03-29T14:29:35.127Z</time></trkpt><trkpt lat="43.1169104" lon="11.8518424"><ele>286.3333333333333</ele><time>2026-03-29T14:29:36.124Z</time></trkpt><trkpt lat="43.1170244" lon="11.8520167"><ele>287.66666666666663</ele><time>2026-03-29T14:29:37.118Z</time></trkpt><trkpt lat="43.1171602" lon="11.8521793"><ele>289.0</ele><time>2026-03-29T14:29:38.125Z</time></trkpt><trkpt lat="43.1172739" lon="11.8523536"><ele>289.0</ele><time>2026-03-29T14:29:39.151Z</time></trkpt><trkpt lat="43.1173498" lon="11.8525488"><ele>289.0</ele><time>2026-03-29T14:29:40.155Z</time></trkpt><trkpt lat="43.1174078" lon="11.8527872"><ele>289.0</ele><time>2026-03-29T14:29:41.127Z</time></trkpt><trkpt lat="43.1174357" lon="11.8530402"><ele>288.3333333333333</ele><time>2026-03-29T14:29:42.131Z</time></trkpt><trkpt lat="43.1174113" lon="11.853312"><ele>287.6666666666667</ele><time>2026-03-29T14:29:43.113Z</time></trkpt><trkpt lat="43.1173511" lon="11.8535931"><ele>287.0</ele><time>2026-03-29T14:29:44.125Z</time></trkpt><trkpt lat="43.1172481" lon="11.8538707"><ele>287.0</ele><time>2026-03-29T14:29:45.113Z</time></trkpt><trkpt lat="43.1171394" lon="11.8541314"><ele>287.0</ele><time>2026-03-29T14:29:46.116Z</time></trkpt><trkpt lat="43.1170282" lon="11.8543762"><ele>287.0</ele><time>2026-03-29T14:29:47.125Z</time></trkpt><trkpt lat="43.1169363" lon="11.8546001"><ele>287.6666666666667</ele><time>2026-03-29T14:29:48.115Z</time></trkpt><trkpt lat="43.1168534" lon="11.8548306"><ele>288.3333333333333</ele><time>2026-03-29T14:29:49.122Z</time></trkpt><trkpt lat="43.1167997" lon="11.8550626"><ele>289.0</ele><time>2026-03-29T14:29:50.118Z</time></trkpt><trkpt lat="43.116753" lon="11.855286"><ele>289.0</ele><time>2026-03-29T14:29:51.125Z</time></trkpt><trkpt lat="43.1167185" lon="11.8555021"><ele>289.0</ele><time>2026-03-29T14:29:52.123Z</time></trkpt><trkpt lat="43.1166882" lon="11.855712"><ele>289.0</ele><time>2026-03-29T14:29:53.142Z</time></trkpt><trkpt lat="43.1166656" lon="11.855925"><ele>290.66666666666663</ele><time>2026-03-29T14:29:54.116Z</time></trkpt><trkpt lat="43.1166395" lon="11.8561446"><ele>292.3333333333333</ele><time>2026-03-29T14:29:55.124Z</time></trkpt><trkpt lat="43.1166221" lon="11.8563501"><ele>294.0</ele><time>2026-03-29T14:29:56.134Z</time></trkpt><trkpt lat="43.1166069" lon="11.8565442"><ele>294.0</ele><time>2026-03-29T14:29:57.119Z</time></trkpt><trkpt lat="43.1166132" lon="11.8567336"><ele>294.0</ele><time>2026-03-29T14:29:58.142Z</time></trkpt><trkpt lat="43.1166558" lon="11.8568976"><ele>294.0</ele><time>2026-03-29T14:29:59.125Z</time></trkpt><trkpt lat="43.1167215" lon="11.8570663"><ele>294.0</ele><time>2026-03-29T14:30:00.126Z</time></trkpt><trkpt lat="43.1168059" lon="11.8572248"><ele>294.0</ele><time>2026-03-29T14:30:01.116Z</time></trkpt><trkpt lat="43.116878" lon="11.857396"><ele>294.0</ele><time>2026-03-29T14:30:02.151Z</time></trkpt><trkpt lat="43.116902" lon="11.857551"><ele>294.0</ele><time>2026-03-29T14:30:03.121Z</time></trkpt><trkpt lat="43.1169093" lon="11.8577087"><ele>294.0</ele><time>2026-03-29T14:30:04.124Z</time></trkpt><trkpt lat="43.1168976" lon="11.8578624"><ele>294.25</ele><time>2026-03-29T14:30:05.114Z</time></trkpt><trkpt lat="43.1168914" lon="11.8580442"><ele>294.5</ele><time>2026-03-29T14:30:06.118Z</time></trkpt><trkpt lat="43.1168655" lon="11.8582086"><ele>294.75</ele><time>2026-03-29T14:30:07.104Z</time></trkpt><trkpt lat="43.116825" lon="11.8583684"><ele>295.0</ele><time>2026-03-29T14:30:08.134Z</time></trkpt><trkpt lat="43.1167677" lon="11.8585096"><ele>295.4</ele><time>2026-03-29T14:30:09.111Z</time></trkpt><trkpt lat="43.1167057" lon="11.8586478"><ele>295.8</ele><time>2026-03-29T14:30:10.126Z</time></trkpt><trkpt lat="43.1166597" lon="11.8587725"><ele>296.2</ele><time>2026-03-29T14:30:11.117Z</time></trkpt><trkpt lat="43.1166183" lon="11.8588946"><ele>296.6</ele><time>2026-03-29T14:30:12.108Z</time></trkpt><trkpt lat="43.1165807" lon="11.8590159"><ele>297.0</ele><time>2026-03-29T14:30:13.129Z</time></trkpt><trkpt lat="43.116551" lon="11.8591338"><ele>296.8</ele><time>2026-03-29T14:30:14.114Z</time></trkpt><trkpt lat="43.1165081" lon="11.8592608"><ele>296.6</ele><time>2026-03-29T14:30:15.166Z</time></trkpt><trkpt lat="43.1164586" lon="11.8593886"><ele>296.40000000000003</ele><time>2026-03-29T14:30:16.161Z</time></trkpt><trkpt lat="43.1163926" lon="11.8594951"><ele>296.2</ele><time>2026-03-29T14:30:17.116Z</time></trkpt><trkpt lat="43.1163223" lon="11.8596246"><ele>296.0</ele><time>2026-03-29T14:30:18.125Z</time></trkpt><trkpt lat="43.1162546" lon="11.8597632"><ele>296.0</ele><time>2026-03-29T14:30:19.13Z</time></trkpt><trkpt lat="43.1161918" lon="11.8599005"><ele>296.0</ele><time>2026-03-29T14:30:20.143Z</time></trkpt><trkpt lat="43.1161327" lon="11.8600336"><ele>296.0</ele><time>2026-03-29T14:30:21.15Z</time></trkpt><trkpt lat="43.1160825" lon="11.8601693"><ele>296.0</ele><time>2026-03-29T14:30:22.104Z</time></trkpt><trkpt lat="43.1160329" lon="11.8603132"><ele>296.0</ele><time>2026-03-29T14:30:23.127Z</time></trkpt><trkpt lat="43.1159891" lon="11.8604625"><ele>296.0</ele><time>2026-03-29T14:30:24.153Z</time></trkpt><trkpt lat="43.1159485" lon="11.8605997"><ele>296.0</ele><time>2026-03-29T14:30:25.134Z</time></trkpt><trkpt lat="43.1159041" lon="11.860738"><ele>296.0</ele><time>2026-03-29T14:30:26.126Z</time></trkpt><trkpt lat="43.1158738" lon="11.8608802"><ele>296.0</ele><time>2026-03-29T14:30:27.133Z</time></trkpt><trkpt lat="43.1157997" lon="11.8610276"><ele>295.75</ele><time>2026-03-29T14:30:28.175Z</time></trkpt><trkpt lat="43.115738" lon="11.8611586"><ele>295.5</ele><time>2026-03-29T14:30:29.142Z</time></trkpt><trkpt lat="43.1156754" lon="11.8612962"><ele>295.25</ele><time>2026-03-29T14:30:30.124Z</time></trkpt><trkpt lat="43.1155943" lon="11.8614262"><ele>295.0</ele><time>2026-03-29T14:30:31.107Z</time></trkpt><trkpt lat="43.1154991" lon="11.8615476"><ele>294.0</ele><time>2026-03-29T14:30:32.128Z</time></trkpt><trkpt lat="43.1154112" lon="11.8616565"><ele>293.0</ele><time>2026-03-29T14:30:33.126Z</time></trkpt><trkpt lat="43.1153297" lon="11.8617566"><ele>292.0</ele><time>2026-03-29T14:30:34.122Z</time></trkpt><trkpt lat="43.1152536" lon="11.8618501"><ele>291.0</ele><time>2026-03-29T14:30:35.127Z</time></trkpt><trkpt lat="43.1151782" lon="11.8619552"><ele>290.0</ele><time>2026-03-29T14:30:36.126Z</time></trkpt><trkpt lat="43.115109" lon="11.8620522"><ele>289.8</ele><time>2026-03-29T14:30:37.119Z</time></trkpt><trkpt lat="43.1150293" lon="11.8621482"><ele>289.6</ele><time>2026-03-29T14:30:38.135Z</time></trkpt><trkpt lat="43.1149619" lon="11.862263"><ele>289.4</ele><time>2026-03-29T14:30:39.153Z</time></trkpt><trkpt lat="43.114897" lon="11.8623648"><ele>289.2</ele><time>2026-03-29T14:30:40.124Z</time></trkpt><trkpt lat="43.114838" lon="11.8624647"><ele>289.0</ele><time>2026-03-29T14:30:41.122Z</time></trkpt><trkpt lat="43.1147582" lon="11.8625602"><ele>289.8</ele><time>2026-03-29T14:30:42.159Z</time></trkpt><trkpt lat="43.1146846" lon="11.8626555"><ele>290.59999999999997</ele><time>2026-03-29T14:30:43.141Z</time></trkpt><trkpt lat="43.1146079" lon="11.862759"><ele>291.4</ele><time>2026-03-29T14:30:44.126Z</time></trkpt><trkpt lat="43.1145381" lon="11.8628779"><ele>292.2</ele><time>2026-03-29T14:30:45.117Z</time></trkpt><trkpt lat="43.1144779" lon="11.8629985"><ele>293.0</ele><time>2026-03-29T14:30:46.13Z</time></trkpt><trkpt lat="43.1144202" lon="11.8631154"><ele>293.0</ele><time>2026-03-29T14:30:47.123Z</time></trkpt><trkpt lat="43.1143619" lon="11.863227"><ele>293.0</ele><time>2026-03-29T14:30:48.119Z</time></trkpt><trkpt lat="43.1143049" lon="11.8633414"><ele>293.0</ele><time>2026-03-29T14:30:49.133Z</time></trkpt><trkpt lat="43.1142309" lon="11.8634392"><ele>293.0</ele><time>2026-03-29T14:30:50.117Z</time></trkpt><trkpt lat="43.1141796" lon="11.8635441"><ele>293.0</ele><time>2026-03-29T14:30:51.128Z</time></trkpt><trkpt lat="43.1141281" lon="11.863657"><ele>292.8</ele><time>2026-03-29T14:30:52.125Z</time></trkpt><trkpt lat="43.1140825" lon="11.863774"><ele>292.6</ele><time>2026-03-29T14:30:53.143Z</time></trkpt><trkpt lat="43.1140197" lon="11.8638896"><ele>292.4</ele><time>2026-03-29T14:30:54.179Z</time></trkpt><trkpt lat="43.1139586" lon="11.8639921"><ele>292.2</ele><time>2026-03-29T14:30:55.135Z</time></trkpt><trkpt lat="43.1138831" lon="11.8640994"><ele>292.0</ele><time>2026-03-29T14:30:56.122Z</time></trkpt><trkpt lat="43.1137914" lon="11.8642072"><ele>292.25</ele><time>2026-03-29T14:30:57.114Z</time></trkpt><trkpt lat="43.1137139" lon="11.8643194"><ele>292.5</ele><time>2026-03-29T14:30:58.126Z</time></trkpt><trkpt lat="43.1136432" lon="11.8644403"><ele>292.75</ele><time>2026-03-29T14:30:59.132Z</time></trkpt><trkpt lat="43.1135844" lon="11.8645695"><ele>293.0</ele><time>2026-03-29T14:31:00.136Z</time></trkpt><trkpt lat="43.1135299" lon="11.8647074"><ele>293.0</ele><time>2026-03-29T14:31:01.158Z</time></trkpt><trkpt lat="43.1134636" lon="11.8648497"><ele>293.0</ele><time>2026-03-29T14:31:02.117Z</time></trkpt><trkpt lat="43.1133898" lon="11.8649917"><ele>293.0</ele><time>2026-03-29T14:31:03.136Z</time></trkpt><trkpt lat="43.113313" lon="11.8651283"><ele>293.0</ele><time>2026-03-29T14:31:04.146Z</time></trkpt><trkpt lat="43.1132376" lon="11.8652396"><ele>295.75</ele><time>2026-03-29T14:31:05.126Z</time></trkpt><trkpt lat="43.1131693" lon="11.8653746"><ele>298.5</ele><time>2026-03-29T14:31:06.134Z</time></trkpt><trkpt lat="43.1130989" lon="11.8655219"><ele>301.25</ele><time>2026-03-29T14:31:07.124Z</time></trkpt><trkpt lat="43.1130377" lon="11.8656791"><ele>304.0</ele><time>2026-03-29T14:31:08.137Z</time></trkpt><trkpt lat="43.1129825" lon="11.8658461"><ele>303.25</ele><time>2026-03-29T14:31:09.122Z</time></trkpt><trkpt lat="43.112959" lon="11.8660349"><ele>302.5</ele><time>2026-03-29T14:31:10.119Z</time></trkpt><trkpt lat="43.1129418" lon="11.8662253"><ele>301.75</ele><time>2026-03-29T14:31:11.148Z</time></trkpt><trkpt lat="43.1129612" lon="11.8664147"><ele>301.0</ele><time>2026-03-29T14:31:12.157Z</time></trkpt><trkpt lat="43.1129697" lon="11.8666083"><ele>299.0</ele><time>2026-03-29T14:31:13.121Z</time></trkpt><trkpt lat="43.1129928" lon="11.8667886"><ele>297.0</ele><time>2026-03-29T14:31:14.118Z</time></trkpt><trkpt lat="43.113001" lon="11.8669788"><ele>295.0</ele><time>2026-03-29T14:31:15.111Z</time></trkpt><trkpt lat="43.11301" lon="11.8671627"><ele>293.0</ele><time>2026-03-29T14:31:16.127Z</time></trkpt><trkpt lat="43.1130303" lon="11.8673403"><ele>293.0</ele><time>2026-03-29T14:31:17.148Z</time></trkpt><trkpt lat="43.1130545" lon="11.867523"><ele>293.0</ele><time>2026-03-29T14:31:18.122Z</time></trkpt><trkpt lat="43.113041" lon="11.8677087"><ele>293.0</ele><time>2026-03-29T14:31:19.115Z</time></trkpt><trkpt lat="43.1130253" lon="11.8679041"><ele>293.0</ele><time>2026-03-29T14:31:20.122Z</time></trkpt><trkpt lat="43.1129758" lon="11.8681017"><ele>290.33333333333337</ele><time>2026-03-29T14:31:21.123Z</time></trkpt><trkpt lat="43.1128971" lon="11.8682887"><ele>287.6666666666667</ele><time>2026-03-29T14:31:22.112Z</time></trkpt><trkpt lat="43.1128045" lon="11.8684816"><ele>285.0</ele><time>2026-03-29T14:31:23.148Z</time></trkpt><trkpt lat="43.112694" lon="11.8686479"><ele>284.0</ele><time>2026-03-29T14:31:24.115Z</time></trkpt><trkpt lat="43.1125784" lon="11.868769"><ele>283.0</ele><time>2026-03-29T14:31:25.128Z</time></trkpt><trkpt lat="43.1124768" lon="11.8688383"><ele>282.0</ele><time>2026-03-29T14:31:26.123Z</time></trkpt><trkpt lat="43.1123719" lon="11.868916"><ele>281.0</ele><time>2026-03-29T14:31:27.123Z</time></trkpt><trkpt lat="43.1122705" lon="11.8689726"><ele>281.0</ele><time>2026-03-29T14:31:28.122Z</time></trkpt><trkpt lat="43.1121874" lon="11.8690247"><ele>281.0</ele><time>2026-03-29T14:31:29.117Z</time></trkpt><trkpt lat="43.1121021" lon="11.8690809"><ele>281.0</ele><time>2026-03-29T14:31:30.138Z</time></trkpt><trkpt lat="43.112029" lon="11.8691529"><ele>281.0</ele><time>2026-03-29T14:31:31.116Z</time></trkpt><trkpt lat="43.1119566" lon="11.8692594"><ele>281.0</ele><time>2026-03-29T14:31:32.121Z</time></trkpt><trkpt lat="43.1119059" lon="11.8694047"><ele>279.75</ele><time>2026-03-29T14:31:33.127Z</time></trkpt><trkpt lat="43.1118665" lon="11.8695661"><ele>278.5</ele><time>2026-03-29T14:31:34.123Z</time></trkpt><trkpt lat="43.111845" lon="11.8697429"><ele>277.25</ele><time>2026-03-29T14:31:35.126Z</time></trkpt><trkpt lat="43.1118161" lon="11.8699089"><ele>276.0</ele><time>2026-03-29T14:31:36.131Z</time></trkpt><trkpt lat="43.1117869" lon="11.8700551"><ele>275.2</ele><time>2026-03-29T14:31:37.127Z</time></trkpt><trkpt lat="43.1117476" lon="11.8701877"><ele>274.40000000000003</ele><time>2026-03-29T14:31:38.15Z</time></trkpt><trkpt lat="43.111712" lon="11.8703177"><ele>273.6</ele><time>2026-03-29T14:31:39.139Z</time></trkpt><trkpt lat="43.1116738" lon="11.8704495"><ele>272.8</ele><time>2026-03-29T14:31:40.124Z</time></trkpt><trkpt lat="43.1116365" lon="11.870592"><ele>272.0</ele><time>2026-03-29T14:31:41.131Z</time></trkpt><trkpt lat="43.1115982" lon="11.8707335"><ele>273.5</ele><time>2026-03-29T14:31:42.118Z</time></trkpt><trkpt lat="43.1115575" lon="11.8708834"><ele>275.0</ele><time>2026-03-29T14:31:43.112Z</time></trkpt><trkpt lat="43.1115157" lon="11.8710457"><ele>276.5</ele><time>2026-03-29T14:31:44.128Z</time></trkpt><trkpt lat="43.1114703" lon="11.8712145"><ele>278.0</ele><time>2026-03-29T14:31:45.135Z</time></trkpt><trkpt lat="43.1114295" lon="11.8713828"><ele>278.0</ele><time>2026-03-29T14:31:46.128Z</time></trkpt><trkpt lat="43.1113863" lon="11.8715509"><ele>278.0</ele><time>2026-03-29T14:31:47.111Z</time></trkpt><trkpt lat="43.1113453" lon="11.8717325"><ele>278.0</ele><time>2026-03-29T14:31:48.145Z</time></trkpt><trkpt lat="43.111312" lon="11.8719098"><ele>278.0</ele><time>2026-03-29T14:31:49.12Z</time></trkpt><trkpt lat="43.1112878" lon="11.8720937"><ele>276.5</ele><time>2026-03-29T14:31:50.126Z</time></trkpt><trkpt lat="43.1112768" lon="11.872272"><ele>275.0</ele><time>2026-03-29T14:31:51.12Z</time></trkpt><trkpt lat="43.1112828" lon="11.8724703"><ele>273.5</ele><time>2026-03-29T14:31:52.128Z</time></trkpt><trkpt lat="43.1113116" lon="11.8726952"><ele>272.0</ele><time>2026-03-29T14:31:53.176Z</time></trkpt><trkpt lat="43.1113403" lon="11.8728906"><ele>271.33333333333337</ele><time>2026-03-29T14:31:54.149Z</time></trkpt><trkpt lat="43.1114018" lon="11.8730803"><ele>270.6666666666667</ele><time>2026-03-29T14:31:55.159Z</time></trkpt><trkpt lat="43.1114516" lon="11.8732786"><ele>270.0</ele><time>2026-03-29T14:31:56.113Z</time></trkpt><trkpt lat="43.1115026" lon="11.8734777"><ele>269.3333333333333</ele><time>2026-03-29T14:31:57.119Z</time></trkpt><trkpt lat="43.1115514" lon="11.8736839"><ele>268.66666666666663</ele><time>2026-03-29T14:31:58.116Z</time></trkpt><trkpt lat="43.1116018" lon="11.8738774"><ele>268.0</ele><time>2026-03-29T14:31:59.106Z</time></trkpt><trkpt lat="43.1116493" lon="11.8740712"><ele>267.25</ele><time>2026-03-29T14:32:00.133Z</time></trkpt><trkpt lat="43.1116937" lon="11.8742566"><ele>266.5</ele><time>2026-03-29T14:32:01.114Z</time></trkpt><trkpt lat="43.1117399" lon="11.8744382"><ele>265.75</ele><time>2026-03-29T14:32:02.129Z</time></trkpt><trkpt lat="43.1117759" lon="11.8746122"><ele>265.0</ele><time>2026-03-29T14:32:03.121Z</time></trkpt><trkpt lat="43.1118088" lon="11.8747895"><ele>265.0</ele><time>2026-03-29T14:32:04.154Z</time></trkpt><trkpt lat="43.1118383" lon="11.8749627"><ele>265.0</ele><time>2026-03-29T14:32:05.131Z</time></trkpt><trkpt lat="43.1118649" lon="11.8751372"><ele>265.0</ele><time>2026-03-29T14:32:06.126Z</time></trkpt><trkpt lat="43.111894" lon="11.8753093"><ele>265.0</ele><time>2026-03-29T14:32:07.128Z</time></trkpt><trkpt lat="43.1119218" lon="11.8754762"><ele>264.75</ele><time>2026-03-29T14:32:08.109Z</time></trkpt><trkpt lat="43.111955" lon="11.8756517"><ele>264.5</ele><time>2026-03-29T14:32:09.166Z</time></trkpt><trkpt lat="43.1119842" lon="11.8758085"><ele>264.25</ele><time>2026-03-29T14:32:10.145Z</time></trkpt><trkpt lat="43.1120114" lon="11.8759684"><ele>264.0</ele><time>2026-03-29T14:32:11.143Z</time></trkpt><trkpt lat="43.1120324" lon="11.8761152"><ele>263.75</ele><time>2026-03-29T14:32:12.112Z</time></trkpt><trkpt lat="43.1120364" lon="11.8762741"><ele>263.5</ele><time>2026-03-29T14:32:13.128Z</time></trkpt><trkpt lat="43.1120307" lon="11.8764378"><ele>263.25</ele><time>2026-03-29T14:32:14.126Z</time></trkpt><trkpt lat="43.1119984" lon="11.8765882"><ele>263.0</ele><time>2026-03-29T14:32:15.123Z</time></trkpt><trkpt lat="43.1119822" lon="11.8767477"><ele>262.5</ele><time>2026-03-29T14:32:16.121Z</time></trkpt><trkpt lat="43.1119667" lon="11.8769074"><ele>262.0</ele><time>2026-03-29T14:32:17.135Z</time></trkpt><trkpt lat="43.1119757" lon="11.8770467"><ele>261.5</ele><time>2026-03-29T14:32:18.124Z</time></trkpt><trkpt lat="43.1120001" lon="11.8771991"><ele>261.0</ele><time>2026-03-29T14:32:19.148Z</time></trkpt><trkpt lat="43.1120372" lon="11.8773512"><ele>261.0</ele><time>2026-03-29T14:32:20.136Z</time></trkpt><trkpt lat="43.112072" lon="11.8774988"><ele>261.0</ele><time>2026-03-29T14:32:21.13Z</time></trkpt><trkpt lat="43.1121079" lon="11.8776304"><ele>261.0</ele><time>2026-03-29T14:32:22.123Z</time></trkpt><trkpt lat="43.1121458" lon="11.8777493"><ele>261.0</ele><time>2026-03-29T14:32:23.114Z</time></trkpt><trkpt lat="43.1121795" lon="11.8778627"><ele>261.0</ele><time>2026-03-29T14:32:24.126Z</time></trkpt><trkpt lat="43.1122151" lon="11.8779681"><ele>261.40000000000003</ele><time>2026-03-29T14:32:25.124Z</time></trkpt><trkpt lat="43.1122488" lon="11.8780776"><ele>261.8</ele><time>2026-03-29T14:32:26.115Z</time></trkpt><trkpt lat="43.1122972" lon="11.8782009"><ele>262.20000000000005</ele><time>2026-03-29T14:32:27.149Z</time></trkpt><trkpt lat="43.1123522" lon="11.878331"><ele>262.6</ele><time>2026-03-29T14:32:28.114Z</time></trkpt><trkpt lat="43.1124046" lon="11.8784622"><ele>263.0</ele><time>2026-03-29T14:32:29.123Z</time></trkpt><trkpt lat="43.1124474" lon="11.8785826"><ele>261.8</ele><time>2026-03-29T14:32:30.121Z</time></trkpt><trkpt lat="43.112485" lon="11.8787014"><ele>260.6</ele><time>2026-03-29T14:32:31.129Z</time></trkpt><trkpt lat="43.1125166" lon="11.8788173"><ele>259.4</ele><time>2026-03-29T14:32:32.128Z</time></trkpt><trkpt lat="43.1125399" lon="11.878935"><ele>258.2</ele><time>2026-03-29T14:32:33.145Z</time></trkpt><trkpt lat="43.1125513" lon="11.8790564"><ele>257.0</ele><time>2026-03-29T14:32:34.118Z</time></trkpt><trkpt lat="43.112555" lon="11.8791837"><ele>256.5</ele><time>2026-03-29T14:32:35.134Z</time></trkpt><trkpt lat="43.1125446" lon="11.8793037"><ele>256.0</ele><time>2026-03-29T14:32:36.128Z</time></trkpt><trkpt lat="43.1125309" lon="11.8794189"><ele>255.5</ele><time>2026-03-29T14:32:37.115Z</time></trkpt><trkpt lat="43.1125136" lon="11.8795306"><ele>255.0</ele><time>2026-03-29T14:32:38.117Z</time></trkpt><trkpt lat="43.1124954" lon="11.8796212"><ele>254.50000000000003</ele><time>2026-03-29T14:32:39.13Z</time></trkpt><trkpt lat="43.1124803" lon="11.8797088"><ele>254.0</ele><time>2026-03-29T14:32:40.139Z</time></trkpt><trkpt lat="43.1124377" lon="11.8798877"><ele>254.0</ele><time>2026-03-29T14:32:42.141Z</time></trkpt><trkpt lat="43.1124103" lon="11.8799976"><ele>253.99999999999997</ele><time>2026-03-29T14:32:43.127Z</time></trkpt><trkpt lat="43.1123871" lon="11.8801159"><ele>253.99999999999997</ele><time>2026-03-29T14:32:44.127Z</time></trkpt><trkpt lat="43.1123614" lon="11.8802516"><ele>254.0</ele><time>2026-03-29T14:32:45.117Z</time></trkpt><trkpt lat="43.1123276" lon="11.880395"><ele>254.0</ele><time>2026-03-29T14:32:46.118Z</time></trkpt><trkpt lat="43.1122866" lon="11.8805333"><ele>253.0</ele><time>2026-03-29T14:32:47.128Z</time></trkpt><trkpt lat="43.1122393" lon="11.8806665"><ele>252.0</ele><time>2026-03-29T14:32:48.118Z</time></trkpt><trkpt lat="43.1121673" lon="11.880832"><ele>251.0</ele><time>2026-03-29T14:32:49.126Z</time></trkpt><trkpt lat="43.1120739" lon="11.8809784"><ele>250.0</ele><time>2026-03-29T14:32:50.139Z</time></trkpt><trkpt lat="43.1119554" lon="11.8810885"><ele>250.0</ele><time>2026-03-29T14:32:51.132Z</time></trkpt><trkpt lat="43.1118462" lon="11.8811823"><ele>250.0</ele><time>2026-03-29T14:32:52.118Z</time></trkpt><trkpt lat="43.1117348" lon="11.8812814"><ele>250.0</ele><time>2026-03-29T14:32:53.154Z</time></trkpt><trkpt lat="43.1116302" lon="11.8813834"><ele>250.0</ele><time>2026-03-29T14:32:54.123Z</time></trkpt><trkpt lat="43.1115298" lon="11.8814702"><ele>250.75</ele><time>2026-03-29T14:32:55.116Z</time></trkpt><trkpt lat="43.1114203" lon="11.8815511"><ele>251.5</ele><time>2026-03-29T14:32:56.129Z</time></trkpt><trkpt lat="43.1113282" lon="11.8816283"><ele>252.25</ele><time>2026-03-29T14:32:57.113Z</time></trkpt><trkpt lat="43.1112293" lon="11.8817176"><ele>253.0</ele><time>2026-03-29T14:32:58.136Z</time></trkpt><trkpt lat="43.1111361" lon="11.8817871"><ele>253.0</ele><time>2026-03-29T14:32:59.124Z</time></trkpt><trkpt lat="43.1110662" lon="11.8818523"><ele>253.0</ele><time>2026-03-29T14:33:00.114Z</time></trkpt><trkpt lat="43.11101" lon="11.8819042"><ele>253.0</ele><time>2026-03-29T14:33:01.141Z</time></trkpt><trkpt lat="43.1109177" lon="11.882004"><ele>253.0</ele><time>2026-03-29T14:33:03.134Z</time></trkpt><trkpt lat="43.1108057" lon="11.8820905"><ele>253.0</ele><time>2026-03-29T14:33:05.113Z</time></trkpt><trkpt lat="43.1107423" lon="11.882129"><ele>253.16666666666666</ele><time>2026-03-29T14:33:06.117Z</time></trkpt><trkpt lat="43.1106754" lon="11.8821751"><ele>253.33333333333331</ele><time>2026-03-29T14:33:07.152Z</time></trkpt><trkpt lat="43.1106124" lon="11.8822269"><ele>253.5</ele><time>2026-03-29T14:33:08.134Z</time></trkpt><trkpt lat="43.1105504" lon="11.8822781"><ele>253.66666666666669</ele><time>2026-03-29T14:33:09.127Z</time></trkpt><trkpt lat="43.1104933" lon="11.8823454"><ele>253.83333333333334</ele><time>2026-03-29T14:33:10.114Z</time></trkpt><trkpt lat="43.1104466" lon="11.8824162"><ele>254.0</ele><time>2026-03-29T14:33:11.13Z</time></trkpt><trkpt lat="43.1103973" lon="11.8825605"><ele>254.0</ele><time>2026-03-29T14:33:13.109Z</time></trkpt><trkpt lat="43.1103951" lon="11.8826577"><ele>253.99999999999997</ele><time>2026-03-29T14:33:14.121Z</time></trkpt><trkpt lat="43.1104064" lon="11.8827708"><ele>253.99999999999997</ele><time>2026-03-29T14:33:15.124Z</time></trkpt><trkpt lat="43.1104185" lon="11.8829111"><ele>254.0</ele><time>2026-03-29T14:33:16.122Z</time></trkpt><trkpt lat="43.1104237" lon="11.8830391"><ele>254.0</ele><time>2026-03-29T14:33:17.139Z</time></trkpt><trkpt lat="43.1103787" lon="11.8831799"><ele>254.0</ele><time>2026-03-29T14:33:18.116Z</time></trkpt><trkpt lat="43.1103133" lon="11.8833029"><ele>253.99999999999997</ele><time>2026-03-29T14:33:19.127Z</time></trkpt><trkpt lat="43.1102507" lon="11.8833963"><ele>253.99999999999997</ele><time>2026-03-29T14:33:20.107Z</time></trkpt><trkpt lat="43.1101797" lon="11.8834726"><ele>254.0</ele><time>2026-03-29T14:33:21.111Z</time></trkpt><trkpt lat="43.1100833" lon="11.883548"><ele>254.0</ele><time>2026-03-29T14:33:22.116Z</time></trkpt><trkpt lat="43.1099833" lon="11.8836329"><ele>253.5</ele><time>2026-03-29T14:33:23.127Z</time></trkpt><trkpt lat="43.1098812" lon="11.883736"><ele>253.0</ele><time>2026-03-29T14:33:24.13Z</time></trkpt><trkpt lat="43.1097572" lon="11.8838416"><ele>252.5</ele><time>2026-03-29T14:33:25.118Z</time></trkpt><trkpt lat="43.1096299" lon="11.8839481"><ele>252.0</ele><time>2026-03-29T14:33:26.141Z</time></trkpt><trkpt lat="43.1094817" lon="11.8840519"><ele>252.0</ele><time>2026-03-29T14:33:27.137Z</time></trkpt><trkpt lat="43.1093263" lon="11.8841565"><ele>252.0</ele><time>2026-03-29T14:33:28.119Z</time></trkpt><trkpt lat="43.10919" lon="11.8842572"><ele>252.0</ele><time>2026-03-29T14:33:29.134Z</time></trkpt><trkpt lat="43.1090281" lon="11.8843693"><ele>252.0</ele><time>2026-03-29T14:33:30.118Z</time></trkpt><trkpt lat="43.1088683" lon="11.884489"><ele>252.0</ele><time>2026-03-29T14:33:31.15Z</time></trkpt><trkpt lat="43.1086914" lon="11.8846151"><ele>252.0</ele><time>2026-03-29T14:33:32.135Z</time></trkpt><trkpt lat="43.1084744" lon="11.8847547"><ele>252.0</ele><time>2026-03-29T14:33:33.121Z</time></trkpt><trkpt lat="43.1082457" lon="11.884908"><ele>252.0</ele><time>2026-03-29T14:33:34.111Z</time></trkpt><trkpt lat="43.1080748" lon="11.8850492"><ele>253.0</ele><time>2026-03-29T14:33:35.115Z</time></trkpt><trkpt lat="43.1079366" lon="11.885216"><ele>254.0</ele><time>2026-03-29T14:33:36.131Z</time></trkpt><trkpt lat="43.1078121" lon="11.8854009"><ele>255.0</ele><time>2026-03-29T14:33:37.117Z</time></trkpt><trkpt lat="43.1077024" lon="11.8856069"><ele>255.0</ele><time>2026-03-29T14:33:38.125Z</time></trkpt><trkpt lat="43.1076089" lon="11.8858286"><ele>255.0</ele><time>2026-03-29T14:33:39.121Z</time></trkpt><trkpt lat="43.1075626" lon="11.8860345"><ele>255.0</ele><time>2026-03-29T14:33:40.121Z</time></trkpt><trkpt lat="43.1075162" lon="11.8862794"><ele>254.66666666666669</ele><time>2026-03-29T14:33:41.128Z</time></trkpt><trkpt lat="43.1074819" lon="11.8865418"><ele>254.33333333333334</ele><time>2026-03-29T14:33:42.115Z</time></trkpt><trkpt lat="43.107479" lon="11.886781"><ele>254.0</ele><time>2026-03-29T14:33:43.132Z</time></trkpt><trkpt lat="43.1074928" lon="11.8870869"><ele>253.5</ele><time>2026-03-29T14:33:44.147Z</time></trkpt><trkpt lat="43.107527" lon="11.8874083"><ele>253.0</ele><time>2026-03-29T14:33:45.138Z</time></trkpt><trkpt lat="43.1075695" lon="11.8877083"><ele>252.5</ele><time>2026-03-29T14:33:46.121Z</time></trkpt><trkpt lat="43.1076171" lon="11.88802"><ele>252.0</ele><time>2026-03-29T14:33:47.116Z</time></trkpt><trkpt lat="43.1076665" lon="11.8883255"><ele>252.0</ele><time>2026-03-29T14:33:48.135Z</time></trkpt><trkpt lat="43.1077114" lon="11.8886232"><ele>252.0</ele><time>2026-03-29T14:33:49.121Z</time></trkpt><trkpt lat="43.1077604" lon="11.888926"><ele>252.0</ele><time>2026-03-29T14:33:50.167Z</time></trkpt><trkpt lat="43.1077996" lon="11.8891749"><ele>252.33333333333331</ele><time>2026-03-29T14:33:51.134Z</time></trkpt><trkpt lat="43.1078322" lon="11.8894055"><ele>252.66666666666666</ele><time>2026-03-29T14:33:52.123Z</time></trkpt><trkpt lat="43.1078684" lon="11.8896395"><ele>253.0</ele><time>2026-03-29T14:33:53.19Z</time></trkpt><trkpt lat="43.1078901" lon="11.8898085"><ele>253.0</ele><time>2026-03-29T14:33:54.132Z</time></trkpt><trkpt lat="43.1079194" lon="11.8900239"><ele>253.0</ele><time>2026-03-29T14:33:55.123Z</time></trkpt><trkpt lat="43.1079516" lon="11.8902487"><ele>253.0</ele><time>2026-03-29T14:33:56.124Z</time></trkpt><trkpt lat="43.1079831" lon="11.8904828"><ele>253.66666666666666</ele><time>2026-03-29T14:33:57.132Z</time></trkpt><trkpt lat="43.1080163" lon="11.8907343"><ele>254.33333333333331</ele><time>2026-03-29T14:33:58.137Z</time></trkpt><trkpt lat="43.1080546" lon="11.8909955"><ele>255.0</ele><time>2026-03-29T14:33:59.156Z</time></trkpt><trkpt lat="43.1080983" lon="11.8912801"><ele>253.0</ele><time>2026-03-29T14:34:00.136Z</time></trkpt><trkpt lat="43.1081524" lon="11.891581"><ele>251.0</ele><time>2026-03-29T14:34:01.119Z</time></trkpt><trkpt lat="43.1082093" lon="11.891894"><ele>251.0</ele><time>2026-03-29T14:34:02.15Z</time></trkpt><trkpt lat="43.1082687" lon="11.892214"><ele>251.0</ele><time>2026-03-29T14:34:03.132Z</time></trkpt><trkpt lat="43.1083275" lon="11.8925456"><ele>250.5</ele><time>2026-03-29T14:34:04.127Z</time></trkpt><trkpt lat="43.1083875" lon="11.892881"><ele>250.0</ele><time>2026-03-29T14:34:05.136Z</time></trkpt><trkpt lat="43.1084386" lon="11.8932196"><ele>250.0</ele><time>2026-03-29T14:34:06.151Z</time></trkpt><trkpt lat="43.1084869" lon="11.893531"><ele>250.0</ele><time>2026-03-29T14:34:07.127Z</time></trkpt><trkpt lat="43.1085379" lon="11.8938483"><ele>250.0</ele><time>2026-03-29T14:34:08.171Z</time></trkpt><trkpt lat="43.10858" lon="11.8941151"><ele>250.0</ele><time>2026-03-29T14:34:09.154Z</time></trkpt><trkpt lat="43.1086173" lon="11.8943646"><ele>250.0</ele><time>2026-03-29T14:34:10.125Z</time></trkpt><trkpt lat="43.1086524" lon="11.8946059"><ele>250.0</ele><time>2026-03-29T14:34:11.131Z</time></trkpt><trkpt lat="43.108683" lon="11.894832"><ele>250.0</ele><time>2026-03-29T14:34:12.137Z</time></trkpt><trkpt lat="43.1087167" lon="11.8950921"><ele>250.0</ele><time>2026-03-29T14:34:13.174Z</time></trkpt><trkpt lat="43.1087358" lon="11.8953133"><ele>250.0</ele><time>2026-03-29T14:34:14.129Z</time></trkpt><trkpt lat="43.1087571" lon="11.895629"><ele>250.0</ele><time>2026-03-29T14:34:15.142Z</time></trkpt><trkpt lat="43.1087695" lon="11.8959521"><ele>250.0</ele><time>2026-03-29T14:34:16.136Z</time></trkpt><trkpt lat="43.1087765" lon="11.8962826"><ele>250.0</ele><time>2026-03-29T14:34:17.133Z</time></trkpt><trkpt lat="43.1087754" lon="11.8966253"><ele>250.5</ele><time>2026-03-29T14:34:18.122Z</time></trkpt><trkpt lat="43.1087754" lon="11.8969523"><ele>251.0</ele><time>2026-03-29T14:34:19.125Z</time></trkpt><trkpt lat="43.1087766" lon="11.8972986"><ele>250.0</ele><time>2026-03-29T14:34:20.162Z</time></trkpt><trkpt lat="43.1087819" lon="11.8976207"><ele>249.0</ele><time>2026-03-29T14:34:21.134Z</time></trkpt><trkpt lat="43.108799" lon="11.8979172"><ele>249.0</ele><time>2026-03-29T14:34:22.142Z</time></trkpt><trkpt lat="43.1088308" lon="11.8982464"><ele>249.0</ele><time>2026-03-29T14:34:23.161Z</time></trkpt><trkpt lat="43.1088734" lon="11.8985741"><ele>248.5</ele><time>2026-03-29T14:34:24.114Z</time></trkpt><trkpt lat="43.1089271" lon="11.8989454"><ele>248.0</ele><time>2026-03-29T14:34:25.145Z</time></trkpt><trkpt lat="43.1089766" lon="11.8992907"><ele>247.5</ele><time>2026-03-29T14:34:26.127Z</time></trkpt><trkpt lat="43.1090274" lon="11.8996158"><ele>247.0</ele><time>2026-03-29T14:34:27.12Z</time></trkpt><trkpt lat="43.1090837" lon="11.8999087"><ele>247.33333333333331</ele><time>2026-03-29T14:34:28.125Z</time></trkpt><trkpt lat="43.1091505" lon="11.9001661"><ele>247.66666666666669</ele><time>2026-03-29T14:34:29.122Z</time></trkpt><trkpt lat="43.1092378" lon="11.9004113"><ele>248.0</ele><time>2026-03-29T14:34:30.16Z</time></trkpt><trkpt lat="43.1093409" lon="11.9006733"><ele>248.0</ele><time>2026-03-29T14:34:31.14Z</time></trkpt><trkpt lat="43.1094604" lon="11.9008923"><ele>248.0</ele><time>2026-03-29T14:34:32.116Z</time></trkpt><trkpt lat="43.1096059" lon="11.9011345"><ele>248.0</ele><time>2026-03-29T14:34:33.142Z</time></trkpt><trkpt lat="43.109756" lon="11.9013835"><ele>248.0</ele><time>2026-03-29T14:34:34.113Z</time></trkpt><trkpt lat="43.1099217" lon="11.9016497"><ele>248.0</ele><time>2026-03-29T14:34:35.126Z</time></trkpt><trkpt lat="43.1100801" lon="11.9019174"><ele>248.0</ele><time>2026-03-29T14:34:36.13Z</time></trkpt><trkpt lat="43.1102438" lon="11.9021921"><ele>248.0</ele><time>2026-03-29T14:34:37.125Z</time></trkpt><trkpt lat="43.1104168" lon="11.9024719"><ele>248.5</ele><time>2026-03-29T14:34:38.126Z</time></trkpt><trkpt lat="43.1105998" lon="11.9027533"><ele>249.0</ele><time>2026-03-29T14:34:39.144Z</time></trkpt><trkpt lat="43.1107837" lon="11.9030143"><ele>249.0</ele><time>2026-03-29T14:34:40.124Z</time></trkpt><trkpt lat="43.1109778" lon="11.9032809"><ele>249.0</ele><time>2026-03-29T14:34:41.121Z</time></trkpt><trkpt lat="43.1111836" lon="11.9035471"><ele>249.0</ele><time>2026-03-29T14:34:42.128Z</time></trkpt><trkpt lat="43.1113911" lon="11.9038097"><ele>249.0</ele><time>2026-03-29T14:34:43.126Z</time></trkpt><trkpt lat="43.1116009" lon="11.9040731"><ele>249.0</ele><time>2026-03-29T14:34:44.122Z</time></trkpt><trkpt lat="43.1118143" lon="11.9043379"><ele>249.0</ele><time>2026-03-29T14:34:45.127Z</time></trkpt><trkpt lat="43.1120238" lon="11.9045968"><ele>249.0</ele><time>2026-03-29T14:34:46.124Z</time></trkpt><trkpt lat="43.1122364" lon="11.9048492"><ele>249.0</ele><time>2026-03-29T14:34:47.136Z</time></trkpt><trkpt lat="43.1124529" lon="11.9050898"><ele>249.0</ele><time>2026-03-29T14:34:48.137Z</time></trkpt><trkpt lat="43.1126692" lon="11.9053331"><ele>249.0</ele><time>2026-03-29T14:34:49.149Z</time></trkpt><trkpt lat="43.1128764" lon="11.9055698"><ele>249.0</ele><time>2026-03-29T14:34:50.142Z</time></trkpt><trkpt lat="43.1130738" lon="11.9057868"><ele>249.0</ele><time>2026-03-29T14:34:51.116Z</time></trkpt><trkpt lat="43.1132806" lon="11.9060122"><ele>249.0</ele><time>2026-03-29T14:34:52.122Z</time></trkpt><trkpt lat="43.1134771" lon="11.9062314"><ele>249.0</ele><time>2026-03-29T14:34:53.129Z</time></trkpt><trkpt lat="43.113661" lon="11.9064393"><ele>249.0</ele><time>2026-03-29T14:34:54.138Z</time></trkpt><trkpt lat="43.1138254" lon="11.9066342"><ele>249.0</ele><time>2026-03-29T14:34:55.124Z</time></trkpt><trkpt lat="43.1139863" lon="11.9068167"><ele>249.0</ele><time>2026-03-29T14:34:56.143Z</time></trkpt><trkpt lat="43.1141371" lon="11.9069841"><ele>249.33333333333331</ele><time>2026-03-29T14:34:57.13Z</time></trkpt><trkpt lat="43.1142801" lon="11.9071551"><ele>249.66666666666666</ele><time>2026-03-29T14:34:58.148Z</time></trkpt><trkpt lat="43.1144003" lon="11.9073071"><ele>250.0</ele><time>2026-03-29T14:34:59.131Z</time></trkpt><trkpt lat="43.1145051" lon="11.90747"><ele>250.25</ele><time>2026-03-29T14:35:00.131Z</time></trkpt><trkpt lat="43.1146" lon="11.9076542"><ele>250.5</ele><time>2026-03-29T14:35:01.12Z</time></trkpt><trkpt lat="43.1146471" lon="11.9077888"><ele>250.75</ele><time>2026-03-29T14:35:02.151Z</time></trkpt><trkpt lat="43.1146987" lon="11.9080035"><ele>251.0</ele><time>2026-03-29T14:35:03.112Z</time></trkpt><trkpt lat="43.1147357" lon="11.9082492"><ele>251.0</ele><time>2026-03-29T14:35:04.123Z</time></trkpt><trkpt lat="43.1147556" lon="11.9085102"><ele>251.0</ele><time>2026-03-29T14:35:05.112Z</time></trkpt><trkpt lat="43.1147617" lon="11.9087704"><ele>251.0</ele><time>2026-03-29T14:35:06.143Z</time></trkpt><trkpt lat="43.1147762" lon="11.9090133"><ele>250.66666666666669</ele><time>2026-03-29T14:35:07.128Z</time></trkpt><trkpt lat="43.1147838" lon="11.9092885"><ele>250.33333333333331</ele><time>2026-03-29T14:35:08.112Z</time></trkpt><trkpt lat="43.1147926" lon="11.9096079"><ele>250.0</ele><time>2026-03-29T14:35:09.124Z</time></trkpt><trkpt lat="43.114804" lon="11.9099698"><ele>249.0</ele><time>2026-03-29T14:35:10.139Z</time></trkpt><trkpt lat="43.114814" lon="11.9103751"><ele>248.0</ele><time>2026-03-29T14:35:11.127Z</time></trkpt><trkpt lat="43.1148222" lon="11.9107845"><ele>248.5</ele><time>2026-03-29T14:35:12.132Z</time></trkpt><trkpt lat="43.1148405" lon="11.9111761"><ele>249.0</ele><time>2026-03-29T14:35:13.115Z</time></trkpt><trkpt lat="43.1148431" lon="11.9116255"><ele>249.0</ele><time>2026-03-29T14:35:14.145Z</time></trkpt><trkpt lat="43.114844" lon="11.9120097"><ele>249.0</ele><time>2026-03-29T14:35:15.118Z</time></trkpt><trkpt lat="43.114847" lon="11.9123869"><ele>249.0</ele><time>2026-03-29T14:35:16.127Z</time></trkpt><trkpt lat="43.1148508" lon="11.9127463"><ele>249.0</ele><time>2026-03-29T14:35:17.127Z</time></trkpt><trkpt lat="43.1148463" lon="11.9131041"><ele>248.5</ele><time>2026-03-29T14:35:18.126Z</time></trkpt><trkpt lat="43.1148317" lon="11.9134607"><ele>248.0</ele><time>2026-03-29T14:35:19.129Z</time></trkpt><trkpt lat="43.1148083" lon="11.9138084"><ele>248.0</ele><time>2026-03-29T14:35:20.121Z</time></trkpt><trkpt lat="43.1147808" lon="11.9141686"><ele>248.0</ele><time>2026-03-29T14:35:21.146Z</time></trkpt><trkpt lat="43.1147549" lon="11.9145155"><ele>248.5</ele><time>2026-03-29T14:35:22.119Z</time></trkpt><trkpt lat="43.1147178" lon="11.9148726"><ele>249.0</ele><time>2026-03-29T14:35:23.125Z</time></trkpt><trkpt lat="43.1146832" lon="11.9152239"><ele>249.0</ele><time>2026-03-29T14:35:24.136Z</time></trkpt><trkpt lat="43.1146456" lon="11.9155704"><ele>249.0</ele><time>2026-03-29T14:35:25.133Z</time></trkpt><trkpt lat="43.1146032" lon="11.9159156"><ele>249.0</ele><time>2026-03-29T14:35:26.152Z</time></trkpt><trkpt lat="43.1145624" lon="11.9162131"><ele>249.0</ele><time>2026-03-29T14:35:27.117Z</time></trkpt><trkpt lat="43.1145234" lon="11.9164933"><ele>249.0</ele><time>2026-03-29T14:35:28.144Z</time></trkpt><trkpt lat="43.1145069" lon="11.9167319"><ele>249.0</ele><time>2026-03-29T14:35:29.122Z</time></trkpt><trkpt lat="43.1145084" lon="11.9169734"><ele>249.0</ele><time>2026-03-29T14:35:30.129Z</time></trkpt><trkpt lat="43.1145348" lon="11.9171893"><ele>249.0</ele><time>2026-03-29T14:35:31.127Z</time></trkpt><trkpt lat="43.11458" lon="11.917444"><ele>249.0</ele><time>2026-03-29T14:35:32.167Z</time></trkpt><trkpt lat="43.1146316" lon="11.917736"><ele>249.0</ele><time>2026-03-29T14:35:33.171Z</time></trkpt><trkpt lat="43.1147015" lon="11.9180513"><ele>249.0</ele><time>2026-03-29T14:35:34.17Z</time></trkpt><trkpt lat="43.1147807" lon="11.9183705"><ele>249.0</ele><time>2026-03-29T14:35:35.122Z</time></trkpt><trkpt lat="43.1148744" lon="11.9187309"><ele>248.5</ele><time>2026-03-29T14:35:36.127Z</time></trkpt><trkpt lat="43.1149625" lon="11.9190939"><ele>248.0</ele><time>2026-03-29T14:35:37.133Z</time></trkpt><trkpt lat="43.1150489" lon="11.9194595"><ele>248.0</ele><time>2026-03-29T14:35:38.143Z</time></trkpt><trkpt lat="43.1151418" lon="11.9198282"><ele>248.0</ele><time>2026-03-29T14:35:39.197Z</time></trkpt><trkpt lat="43.1152223" lon="11.9201558"><ele>248.5</ele><time>2026-03-29T14:35:40.166Z</time></trkpt><trkpt lat="43.1152956" lon="11.9204674"><ele>249.0</ele><time>2026-03-29T14:35:41.122Z</time></trkpt><trkpt lat="43.1153675" lon="11.9207844"><ele>249.0</ele><time>2026-03-29T14:35:42.123Z</time></trkpt><trkpt lat="43.1154399" lon="11.9210962"><ele>249.0</ele><time>2026-03-29T14:35:43.137Z</time></trkpt><trkpt lat="43.1155084" lon="11.9213953"><ele>249.0</ele><time>2026-03-29T14:35:44.17Z</time></trkpt><trkpt lat="43.1155718" lon="11.9216442"><ele>249.0</ele><time>2026-03-29T14:35:45.127Z</time></trkpt><trkpt lat="43.1156237" lon="11.9219074"><ele>249.0</ele><time>2026-03-29T14:35:46.156Z</time></trkpt><trkpt lat="43.1156431" lon="11.9221135"><ele>249.33333333333331</ele><time>2026-03-29T14:35:47.125Z</time></trkpt><trkpt lat="43.1156343" lon="11.9223627"><ele>249.66666666666666</ele><time>2026-03-29T14:35:48.135Z</time></trkpt><trkpt lat="43.1155878" lon="11.922622"><ele>250.0</ele><time>2026-03-29T14:35:49.169Z</time></trkpt><trkpt lat="43.1154585" lon="11.9227643"><ele>251.66666666666666</ele><time>2026-03-29T14:35:51.134Z</time></trkpt><trkpt lat="43.1153464" lon="11.9228903"><ele>253.33333333333331</ele><time>2026-03-29T14:35:52.139Z</time></trkpt><trkpt lat="43.1152253" lon="11.9229979"><ele>255.0</ele><time>2026-03-29T14:35:53.112Z</time></trkpt><trkpt lat="43.1150568" lon="11.923085"><ele>254.0</ele><time>2026-03-29T14:35:54.118Z</time></trkpt><trkpt lat="43.1149037" lon="11.9231527"><ele>253.0</ele><time>2026-03-29T14:35:55.121Z</time></trkpt><trkpt lat="43.1146657" lon="11.9232419"><ele>252.0</ele><time>2026-03-29T14:35:56.126Z</time></trkpt><trkpt lat="43.1144943" lon="11.9233189"><ele>252.0</ele><time>2026-03-29T14:35:57.134Z</time></trkpt><trkpt lat="43.1143859" lon="11.9233884"><ele>252.0</ele><time>2026-03-29T14:35:58.123Z</time></trkpt><trkpt lat="43.1142742" lon="11.9234833"><ele>252.0</ele><time>2026-03-29T14:35:59.146Z</time></trkpt><trkpt lat="43.11417" lon="11.9237489"><ele>252.0</ele><time>2026-03-29T14:36:01.128Z</time></trkpt><trkpt lat="43.1141655" lon="11.9238767"><ele>252.0</ele><time>2026-03-29T14:36:02.125Z</time></trkpt><trkpt lat="43.1141996" lon="11.9240007"><ele>252.0</ele><time>2026-03-29T14:36:03.131Z</time></trkpt><trkpt lat="43.1142977" lon="11.9241882"><ele>252.0</ele><time>2026-03-29T14:36:04.127Z</time></trkpt><trkpt lat="43.1141098" lon="11.9246377"><ele>252.0</ele><time>2026-03-29T14:36:05.123Z</time></trkpt><trkpt lat="43.1141774" lon="11.9248337"><ele>252.0</ele><time>2026-03-29T14:36:06.129Z</time></trkpt><trkpt lat="43.1142755" lon="11.9250255"><ele>252.0</ele><time>2026-03-29T14:36:07.115Z</time></trkpt><trkpt lat="43.1144203" lon="11.9252276"><ele>252.0</ele><time>2026-03-29T14:36:08.146Z</time></trkpt><trkpt lat="43.1147108" lon="11.9254092"><ele>252.0</ele><time>2026-03-29T14:36:09.131Z</time></trkpt><trkpt lat="43.1149732" lon="11.9256216"><ele>252.0</ele><time>2026-03-29T14:36:10.116Z</time></trkpt><trkpt lat="43.1152658" lon="11.9258263"><ele>252.0</ele><time>2026-03-29T14:36:11.125Z</time></trkpt><trkpt lat="43.1156002" lon="11.9260423"><ele>251.5</ele><time>2026-03-29T14:36:12.129Z</time></trkpt><trkpt lat="43.1158072" lon="11.9262665"><ele>251.0</ele><time>2026-03-29T14:36:13.119Z</time></trkpt><trkpt lat="43.1159875" lon="11.9265138"><ele>252.0</ele><time>2026-03-29T14:36:14.135Z</time></trkpt><trkpt lat="43.1161673" lon="11.9267602"><ele>253.0</ele><time>2026-03-29T14:36:15.11Z</time></trkpt><trkpt lat="43.1163717" lon="11.9270332"><ele>253.0</ele><time>2026-03-29T14:36:16.135Z</time></trkpt><trkpt lat="43.1165713" lon="11.9272967"><ele>253.0</ele><time>2026-03-29T14:36:17.125Z</time></trkpt><trkpt lat="43.1167852" lon="11.9275585"><ele>254.5</ele><time>2026-03-29T14:36:18.126Z</time></trkpt><trkpt lat="43.1169983" lon="11.9278187"><ele>256.0</ele><time>2026-03-29T14:36:19.124Z</time></trkpt><trkpt lat="43.1172039" lon="11.9280614"><ele>256.0</ele><time>2026-03-29T14:36:20.133Z</time></trkpt><trkpt lat="43.1173944" lon="11.9282763"><ele>256.0</ele><time>2026-03-29T14:36:21.123Z</time></trkpt><trkpt lat="43.1175797" lon="11.928472"><ele>261.0</ele><time>2026-03-29T14:36:22.132Z</time></trkpt><trkpt lat="43.1177532" lon="11.9286505"><ele>266.0</ele><time>2026-03-29T14:36:23.131Z</time></trkpt><trkpt lat="43.1179224" lon="11.9288332"><ele>271.0</ele><time>2026-03-29T14:36:24.123Z</time></trkpt><trkpt lat="43.1180791" lon="11.9290435"><ele>270.0</ele><time>2026-03-29T14:36:25.137Z</time></trkpt><trkpt lat="43.1182231" lon="11.9292678"><ele>269.0</ele><time>2026-03-29T14:36:26.132Z</time></trkpt><trkpt lat="43.1183496" lon="11.9295344"><ele>269.0</ele><time>2026-03-29T14:36:27.152Z</time></trkpt><trkpt lat="43.1184475" lon="11.9298159"><ele>269.0</ele><time>2026-03-29T14:36:28.137Z</time></trkpt><trkpt lat="43.1185483" lon="11.9301306"><ele>273.5</ele><time>2026-03-29T14:36:29.132Z</time></trkpt><trkpt lat="43.1186504" lon="11.9304917"><ele>278.0</ele><time>2026-03-29T14:36:30.169Z</time></trkpt><trkpt lat="43.1187588" lon="11.9308382"><ele>282.0</ele><time>2026-03-29T14:36:31.158Z</time></trkpt><trkpt lat="43.118855" lon="11.9311807"><ele>286.0</ele><time>2026-03-29T14:36:32.138Z</time></trkpt><trkpt lat="43.118952" lon="11.9315136"><ele>289.0</ele><time>2026-03-29T14:36:33.117Z</time></trkpt><trkpt lat="43.1190532" lon="11.931844"><ele>292.0</ele><time>2026-03-29T14:36:34.165Z</time></trkpt><trkpt lat="43.1191469" lon="11.9321541"><ele>287.5</ele><time>2026-03-29T14:36:35.136Z</time></trkpt><trkpt lat="43.1192402" lon="11.9324727"><ele>283.0</ele><time>2026-03-29T14:36:36.154Z</time></trkpt><trkpt lat="43.119334" lon="11.9327529"><ele>283.0</ele><time>2026-03-29T14:36:37.13Z</time></trkpt><trkpt lat="43.1194268" lon="11.9330366"><ele>283.0</ele><time>2026-03-29T14:36:38.122Z</time></trkpt><trkpt lat="43.1195285" lon="11.9333081"><ele>286.3333333333333</ele><time>2026-03-29T14:36:39.142Z</time></trkpt><trkpt lat="43.1196333" lon="11.9335728"><ele>289.6666666666667</ele><time>2026-03-29T14:36:40.141Z</time></trkpt><trkpt lat="43.1197468" lon="11.9338177"><ele>293.0</ele><time>2026-03-29T14:36:41.124Z</time></trkpt><trkpt lat="43.1198558" lon="11.9340068"><ele>291.33333333333337</ele><time>2026-03-29T14:36:42.116Z</time></trkpt><trkpt lat="43.1199648" lon="11.9341751"><ele>289.6666666666667</ele><time>2026-03-29T14:36:43.126Z</time></trkpt><trkpt lat="43.1200917" lon="11.9342958"><ele>288.0</ele><time>2026-03-29T14:36:44.13Z</time></trkpt><trkpt lat="43.1202369" lon="11.934396"><ele>290.6666666666667</ele><time>2026-03-29T14:36:45.132Z</time></trkpt><trkpt lat="43.1204138" lon="11.934451"><ele>293.33333333333337</ele><time>2026-03-29T14:36:46.159Z</time></trkpt><trkpt lat="43.1206108" lon="11.9344947"><ele>296.0</ele><time>2026-03-29T14:36:47.12Z</time></trkpt><trkpt lat="43.1208152" lon="11.934548"><ele>296.0</ele><time>2026-03-29T14:36:48.146Z</time></trkpt><trkpt lat="43.1210566" lon="11.9345578"><ele>296.0</ele><time>2026-03-29T14:36:49.163Z</time></trkpt><trkpt lat="43.1212968" lon="11.9346184"><ele>296.0</ele><time>2026-03-29T14:36:50.168Z</time></trkpt><trkpt lat="43.1215217" lon="11.9346871"><ele>296.0</ele><time>2026-03-29T14:36:51.137Z</time></trkpt><trkpt lat="43.1217362" lon="11.9348305"><ele>298.5</ele><time>2026-03-29T14:36:52.142Z</time></trkpt><trkpt lat="43.1219426" lon="11.935003"><ele>301.0</ele><time>2026-03-29T14:36:53.12Z</time></trkpt><trkpt lat="43.1221614" lon="11.9351659"><ele>301.0</ele><time>2026-03-29T14:36:54.149Z</time></trkpt><trkpt lat="43.122366" lon="11.9352945"><ele>301.0</ele><time>2026-03-29T14:36:55.117Z</time></trkpt><trkpt lat="43.1225987" lon="11.9354129"><ele>301.66666666666663</ele><time>2026-03-29T14:36:56.16Z</time></trkpt><trkpt lat="43.1228053" lon="11.935504"><ele>302.3333333333333</ele><time>2026-03-29T14:36:57.126Z</time></trkpt><trkpt lat="43.12301" lon="11.9355977"><ele>303.0</ele><time>2026-03-29T14:36:58.132Z</time></trkpt><trkpt lat="43.1232197" lon="11.9356855"><ele>303.3333333333333</ele><time>2026-03-29T14:36:59.174Z</time></trkpt><trkpt lat="43.1234036" lon="11.9357734"><ele>303.66666666666663</ele><time>2026-03-29T14:37:00.128Z</time></trkpt><trkpt lat="43.1235935" lon="11.935856"><ele>304.0</ele><time>2026-03-29T14:37:01.164Z</time></trkpt><trkpt lat="43.1237815" lon="11.9359316"><ele>307.3333333333333</ele><time>2026-03-29T14:37:02.16Z</time></trkpt><trkpt lat="43.1239436" lon="11.9359963"><ele>310.6666666666667</ele><time>2026-03-29T14:37:03.146Z</time></trkpt><trkpt lat="43.1241021" lon="11.936064"><ele>314.0</ele><time>2026-03-29T14:37:04.144Z</time></trkpt><trkpt lat="43.124263" lon="11.9361368"><ele>314.33333333333337</ele><time>2026-03-29T14:37:05.14Z</time></trkpt><trkpt lat="43.1244246" lon="11.9362385"><ele>314.6666666666667</ele><time>2026-03-29T14:37:06.157Z</time></trkpt><trkpt lat="43.1245671" lon="11.9363721"><ele>315.0</ele><time>2026-03-29T14:37:07.128Z</time></trkpt><trkpt lat="43.124716" lon="11.9365492"><ele>316.0</ele><time>2026-03-29T14:37:08.125Z</time></trkpt><trkpt lat="43.1248545" lon="11.9367644"><ele>317.0</ele><time>2026-03-29T14:37:09.176Z</time></trkpt><trkpt lat="43.1249566" lon="11.9370013"><ele>318.0</ele><time>2026-03-29T14:37:10.124Z</time></trkpt><trkpt lat="43.1250727" lon="11.937241"><ele>318.0</ele><time>2026-03-29T14:37:11.12Z</time></trkpt><trkpt lat="43.1251868" lon="11.9374865"><ele>318.0</ele><time>2026-03-29T14:37:12.167Z</time></trkpt><trkpt lat="43.1252929" lon="11.9377014"><ele>318.0</ele><time>2026-03-29T14:37:13.159Z</time></trkpt><trkpt lat="43.1254005" lon="11.9379007"><ele>318.6666666666667</ele><time>2026-03-29T14:37:14.161Z</time></trkpt><trkpt lat="43.1254779" lon="11.9380993"><ele>319.33333333333337</ele><time>2026-03-29T14:37:15.125Z</time></trkpt><trkpt lat="43.1255488" lon="11.9382987"><ele>320.0</ele><time>2026-03-29T14:37:16.156Z</time></trkpt><trkpt lat="43.125639" lon="11.9384615"><ele>321.0</ele><time>2026-03-29T14:37:17.125Z</time></trkpt><trkpt lat="43.125734" lon="11.9386229"><ele>322.0</ele><time>2026-03-29T14:37:18.135Z</time></trkpt><trkpt lat="43.1258422" lon="11.9387695"><ele>323.0</ele><time>2026-03-29T14:37:19.126Z</time></trkpt><trkpt lat="43.1259625" lon="11.9389146"><ele>323.0</ele><time>2026-03-29T14:37:20.141Z</time></trkpt><trkpt lat="43.1260766" lon="11.9390608"><ele>323.0</ele><time>2026-03-29T14:37:21.126Z</time></trkpt><trkpt lat="43.1261954" lon="11.9392115"><ele>323.0</ele><time>2026-03-29T14:37:22.166Z</time></trkpt><trkpt lat="43.126309" lon="11.9393649"><ele>322.33333333333337</ele><time>2026-03-29T14:37:23.13Z</time></trkpt><trkpt lat="43.1264227" lon="11.9395393"><ele>321.6666666666667</ele><time>2026-03-29T14:37:24.15Z</time></trkpt><trkpt lat="43.1265213" lon="11.9397292"><ele>321.0</ele><time>2026-03-29T14:37:25.133Z</time></trkpt><trkpt lat="43.1266189" lon="11.9399185"><ele>320.6666666666667</ele><time>2026-03-29T14:37:26.14Z</time></trkpt><trkpt lat="43.1267173" lon="11.9401064"><ele>320.33333333333337</ele><time>2026-03-29T14:37:27.128Z</time></trkpt><trkpt lat="43.1268219" lon="11.9402876"><ele>320.0</ele><time>2026-03-29T14:37:28.119Z</time></trkpt><trkpt lat="43.1269361" lon="11.9404629"><ele>320.0</ele><time>2026-03-29T14:37:29.127Z</time></trkpt><trkpt lat="43.1270571" lon="11.9406352"><ele>320.0</ele><time>2026-03-29T14:37:30.132Z</time></trkpt><trkpt lat="43.1271886" lon="11.9408042"><ele>320.0</ele><time>2026-03-29T14:37:31.142Z</time></trkpt><trkpt lat="43.1273186" lon="11.9409709"><ele>319.33333333333337</ele><time>2026-03-29T14:37:32.134Z</time></trkpt><trkpt lat="43.1274525" lon="11.9411349"><ele>318.6666666666667</ele><time>2026-03-29T14:37:33.156Z</time></trkpt><trkpt lat="43.127568" lon="11.9412905"><ele>318.0</ele><time>2026-03-29T14:37:34.134Z</time></trkpt><trkpt lat="43.127692" lon="11.9414499"><ele>318.0</ele><time>2026-03-29T14:37:35.144Z</time></trkpt><trkpt lat="43.12781" lon="11.9415929"><ele>318.0</ele><time>2026-03-29T14:37:36.149Z</time></trkpt><trkpt lat="43.127927" lon="11.9417316"><ele>318.0</ele><time>2026-03-29T14:37:37.165Z</time></trkpt><trkpt lat="43.1280286" lon="11.9418548"><ele>318.0</ele><time>2026-03-29T14:37:38.128Z</time></trkpt><trkpt lat="43.128132" lon="11.9419899"><ele>317.3333333333333</ele><time>2026-03-29T14:37:39.116Z</time></trkpt><trkpt lat="43.1282369" lon="11.9421386"><ele>316.66666666666663</ele><time>2026-03-29T14:37:40.131Z</time></trkpt><trkpt lat="43.128327" lon="11.9423148"><ele>316.0</ele><time>2026-03-29T14:37:41.131Z</time></trkpt><trkpt lat="43.1284039" lon="11.9425094"><ele>316.0</ele><time>2026-03-29T14:37:42.129Z</time></trkpt><trkpt lat="43.1284574" lon="11.942738"><ele>316.0</ele><time>2026-03-29T14:37:43.139Z</time></trkpt><trkpt lat="43.1284781" lon="11.9429938"><ele>316.0</ele><time>2026-03-29T14:37:44.148Z</time></trkpt><trkpt lat="43.128465" lon="11.9432708"><ele>317.0</ele><time>2026-03-29T14:37:45.17Z</time></trkpt><trkpt lat="43.1284078" lon="11.9435617"><ele>318.0</ele><time>2026-03-29T14:37:46.138Z</time></trkpt><trkpt lat="43.1283512" lon="11.9438421"><ele>319.0</ele><time>2026-03-29T14:37:47.116Z</time></trkpt><trkpt lat="43.1282974" lon="11.9440753"><ele>320.66666666666663</ele><time>2026-03-29T14:37:48.117Z</time></trkpt><trkpt lat="43.1282313" lon="11.9442887"><ele>322.3333333333333</ele><time>2026-03-29T14:37:49.147Z</time></trkpt><trkpt lat="43.1281378" lon="11.9444819"><ele>324.0</ele><time>2026-03-29T14:37:50.147Z</time></trkpt><trkpt lat="43.1280192" lon="11.9446456"><ele>324.0</ele><time>2026-03-29T14:37:51.128Z</time></trkpt><trkpt lat="43.1278858" lon="11.9447909"><ele>324.0</ele><time>2026-03-29T14:37:52.135Z</time></trkpt><trkpt lat="43.127733" lon="11.9448972"><ele>324.0</ele><time>2026-03-29T14:37:53.145Z</time></trkpt><trkpt lat="43.1275352" lon="11.9449729"><ele>320.0</ele><time>2026-03-29T14:37:54.132Z</time></trkpt><trkpt lat="43.1273513" lon="11.9450541"><ele>316.0</ele><time>2026-03-29T14:37:55.137Z</time></trkpt><trkpt lat="43.1272132" lon="11.9451714"><ele>312.0</ele><time>2026-03-29T14:37:56.14Z</time></trkpt><trkpt lat="43.1271269" lon="11.945313"><ele>312.0</ele><time>2026-03-29T14:37:57.136Z</time></trkpt><trkpt lat="43.1270705" lon="11.9454885"><ele>312.0</ele><time>2026-03-29T14:37:58.127Z</time></trkpt><trkpt lat="43.1270523" lon="11.9457183"><ele>312.0</ele><time>2026-03-29T14:37:59.152Z</time></trkpt><trkpt lat="43.1270692" lon="11.9459684"><ele>316.5</ele><time>2026-03-29T14:38:00.138Z</time></trkpt><trkpt lat="43.1271215" lon="11.9462381"><ele>321.0</ele><time>2026-03-29T14:38:01.127Z</time></trkpt><trkpt lat="43.1272463" lon="11.9465469"><ele>330.0</ele><time>2026-03-29T14:38:02.166Z</time></trkpt><trkpt lat="43.1274119" lon="11.9468635"><ele>339.0</ele><time>2026-03-29T14:38:03.126Z</time></trkpt><trkpt lat="43.1274986" lon="11.9471026"><ele>339.0</ele><time>2026-03-29T14:38:04.133Z</time></trkpt><trkpt lat="43.1275391" lon="11.9473146"><ele>339.0</ele><time>2026-03-29T14:38:05.112Z</time></trkpt><trkpt lat="43.1275414" lon="11.9475629"><ele>339.0</ele><time>2026-03-29T14:38:06.172Z</time></trkpt><trkpt lat="43.127516" lon="11.9478025"><ele>341.0</ele><time>2026-03-29T14:38:07.123Z</time></trkpt><trkpt lat="43.1274316" lon="11.9480825"><ele>343.0</ele><time>2026-03-29T14:38:08.144Z</time></trkpt><trkpt lat="43.1272833" lon="11.9483517"><ele>345.3333333333333</ele><time>2026-03-29T14:38:09.131Z</time></trkpt><trkpt lat="43.1271639" lon="11.9485916"><ele>347.6666666666667</ele><time>2026-03-29T14:38:10.143Z</time></trkpt><trkpt lat="43.1270515" lon="11.9487958"><ele>350.0</ele><time>2026-03-29T14:38:11.129Z</time></trkpt><trkpt lat="43.1269677" lon="11.9489813"><ele>350.0</ele><time>2026-03-29T14:38:12.145Z</time></trkpt><trkpt lat="43.1269019" lon="11.9491311"><ele>350.0</ele><time>2026-03-29T14:38:13.134Z</time></trkpt><trkpt lat="43.1268303" lon="11.949246"><ele>350.0</ele><time>2026-03-29T14:38:14.125Z</time></trkpt><trkpt lat="43.1267394" lon="11.9493427"><ele>350.0</ele><time>2026-03-29T14:38:15.13Z</time></trkpt><trkpt lat="43.126635" lon="11.9494146"><ele>351.0</ele><time>2026-03-29T14:38:16.151Z</time></trkpt><trkpt lat="43.1265233" lon="11.9494921"><ele>352.0</ele><time>2026-03-29T14:38:17.122Z</time></trkpt><trkpt lat="43.12639" lon="11.9495707"><ele>353.0</ele><time>2026-03-29T14:38:18.131Z</time></trkpt><trkpt lat="43.1262536" lon="11.9496718"><ele>354.0</ele><time>2026-03-29T14:38:19.135Z</time></trkpt><trkpt lat="43.1261253" lon="11.9498165"><ele>354.0</ele><time>2026-03-29T14:38:20.121Z</time></trkpt><trkpt lat="43.1260164" lon="11.95"><ele>354.0</ele><time>2026-03-29T14:38:21.133Z</time></trkpt><trkpt lat="43.1259176" lon="11.950172"><ele>354.0</ele><time>2026-03-29T14:38:22.127Z</time></trkpt><trkpt lat="43.1258197" lon="11.950347"><ele>353.75</ele><time>2026-03-29T14:38:23.136Z</time></trkpt><trkpt lat="43.1257169" lon="11.9505098"><ele>353.5</ele><time>2026-03-29T14:38:24.136Z</time></trkpt><trkpt lat="43.1256224" lon="11.9506633"><ele>353.25</ele><time>2026-03-29T14:38:25.162Z</time></trkpt><trkpt lat="43.1255304" lon="11.9508065"><ele>353.0</ele><time>2026-03-29T14:38:26.152Z</time></trkpt><trkpt lat="43.1254339" lon="11.9509264"><ele>353.0</ele><time>2026-03-29T14:38:27.142Z</time></trkpt><trkpt lat="43.1253453" lon="11.9510432"><ele>353.0</ele><time>2026-03-29T14:38:28.127Z</time></trkpt><trkpt lat="43.1252488" lon="11.951166"><ele>353.0</ele><time>2026-03-29T14:38:29.136Z</time></trkpt><trkpt lat="43.1251472" lon="11.9512783"><ele>353.0</ele><time>2026-03-29T14:38:30.122Z</time></trkpt><trkpt lat="43.1250418" lon="11.9513811"><ele>353.0</ele><time>2026-03-29T14:38:31.122Z</time></trkpt><trkpt lat="43.1249354" lon="11.9514836"><ele>353.0</ele><time>2026-03-29T14:38:32.138Z</time></trkpt><trkpt lat="43.1248275" lon="11.9515772"><ele>353.0</ele><time>2026-03-29T14:38:33.134Z</time></trkpt><trkpt lat="43.1247272" lon="11.9516725"><ele>353.0</ele><time>2026-03-29T14:38:34.137Z</time></trkpt><trkpt lat="43.1246337" lon="11.951764"><ele>351.5</ele><time>2026-03-29T14:38:35.13Z</time></trkpt><trkpt lat="43.1245379" lon="11.9518606"><ele>350.0</ele><time>2026-03-29T14:38:36.13Z</time></trkpt><trkpt lat="43.1244436" lon="11.9519696"><ele>348.5</ele><time>2026-03-29T14:38:37.134Z</time></trkpt><trkpt lat="43.1243498" lon="11.9520983"><ele>347.0</ele><time>2026-03-29T14:38:38.152Z</time></trkpt><trkpt lat="43.124266" lon="11.9522425"><ele>347.0</ele><time>2026-03-29T14:38:39.125Z</time></trkpt><trkpt lat="43.1241835" lon="11.9523859"><ele>347.0</ele><time>2026-03-29T14:38:40.128Z</time></trkpt><trkpt lat="43.1241141" lon="11.9525285"><ele>347.0</ele><time>2026-03-29T14:38:41.132Z</time></trkpt><trkpt lat="43.1240521" lon="11.9526738"><ele>347.0</ele><time>2026-03-29T14:38:42.131Z</time></trkpt><trkpt lat="43.1240048" lon="11.9528116"><ele>346.1666666666667</ele><time>2026-03-29T14:38:43.14Z</time></trkpt><trkpt lat="43.1239836" lon="11.9529368"><ele>345.33333333333337</ele><time>2026-03-29T14:38:44.125Z</time></trkpt><trkpt lat="43.1239669" lon="11.9530475"><ele>344.5</ele><time>2026-03-29T14:38:45.129Z</time></trkpt><trkpt lat="43.1239493" lon="11.9531381"><ele>343.6666666666667</ele><time>2026-03-29T14:38:46.122Z</time></trkpt><trkpt lat="43.1239531" lon="11.9532544"><ele>342.8333333333333</ele><time>2026-03-29T14:38:48.136Z</time></trkpt><trkpt lat="43.1239257" lon="11.9533502"><ele>342.0</ele><time>2026-03-29T14:38:51.153Z</time></trkpt><trkpt lat="43.1238857" lon="11.9534532"><ele>342.0</ele><time>2026-03-29T14:38:53.156Z</time></trkpt><trkpt lat="43.1238308" lon="11.9536169"><ele>342.0</ele><time>2026-03-29T14:38:55.138Z</time></trkpt><trkpt lat="43.1237971" lon="11.9537058"><ele>342.0</ele><time>2026-03-29T14:38:56.128Z</time></trkpt><trkpt lat="43.1237513" lon="11.9538205"><ele>342.0</ele><time>2026-03-29T14:38:57.133Z</time></trkpt><trkpt lat="43.1236881" lon="11.953932"><ele>342.0</ele><time>2026-03-29T14:38:58.137Z</time></trkpt><trkpt lat="43.1236076" lon="11.9540558"><ele>342.0</ele><time>2026-03-29T14:38:59.127Z</time></trkpt><trkpt lat="43.1235059" lon="11.9541901"><ele>342.0</ele><time>2026-03-29T14:39:00.145Z</time></trkpt><trkpt lat="43.1234179" lon="11.9543267"><ele>342.0</ele><time>2026-03-29T14:39:01.132Z</time></trkpt><trkpt lat="43.1233207" lon="11.9544805"><ele>342.0</ele><time>2026-03-29T14:39:02.136Z</time></trkpt><trkpt lat="43.123197" lon="11.9546477"><ele>343.6666666666667</ele><time>2026-03-29T14:39:03.13Z</time></trkpt><trkpt lat="43.1230823" lon="11.9548202"><ele>345.33333333333337</ele><time>2026-03-29T14:39:04.129Z</time></trkpt><trkpt lat="43.1229791" lon="11.9549799"><ele>347.0</ele><time>2026-03-29T14:39:05.13Z</time></trkpt><trkpt lat="43.1228998" lon="11.9551343"><ele>348.25</ele><time>2026-03-29T14:39:06.125Z</time></trkpt><trkpt lat="43.1227832" lon="11.9552926"><ele>349.5</ele><time>2026-03-29T14:39:07.172Z</time></trkpt><trkpt lat="43.1226856" lon="11.9553991"><ele>350.75</ele><time>2026-03-29T14:39:08.173Z</time></trkpt><trkpt lat="43.1225925" lon="11.9554795"><ele>352.0</ele><time>2026-03-29T14:39:09.155Z</time></trkpt><trkpt lat="43.1225029" lon="11.9555567"><ele>352.0</ele><time>2026-03-29T14:39:10.167Z</time></trkpt><trkpt lat="43.1224028" lon="11.9556385"><ele>352.0</ele><time>2026-03-29T14:39:11.149Z</time></trkpt><trkpt lat="43.1222861" lon="11.955743"><ele>352.0</ele><time>2026-03-29T14:39:12.177Z</time></trkpt><trkpt lat="43.1221709" lon="11.9558443"><ele>352.0</ele><time>2026-03-29T14:39:13.191Z</time></trkpt><trkpt lat="43.1220542" lon="11.9559277"><ele>352.8</ele><time>2026-03-29T14:39:14.123Z</time></trkpt><trkpt lat="43.1219433" lon="11.9560084"><ele>353.6</ele><time>2026-03-29T14:39:15.157Z</time></trkpt><trkpt lat="43.1218383" lon="11.9560758"><ele>354.40000000000003</ele><time>2026-03-29T14:39:16.182Z</time></trkpt><trkpt lat="43.1217422" lon="11.9561325"><ele>355.20000000000005</ele><time>2026-03-29T14:39:17.113Z</time></trkpt><trkpt lat="43.1216609" lon="11.9561959"><ele>356.0</ele><time>2026-03-29T14:39:18.119Z</time></trkpt><trkpt lat="43.1215772" lon="11.9562561"><ele>356.8</ele><time>2026-03-29T14:39:19.163Z</time></trkpt><trkpt lat="43.1215034" lon="11.9563227"><ele>357.6</ele><time>2026-03-29T14:39:20.129Z</time></trkpt><trkpt lat="43.1214378" lon="11.9563953"><ele>358.4</ele><time>2026-03-29T14:39:21.176Z</time></trkpt><trkpt lat="43.1213595" lon="11.9564836"><ele>359.2</ele><time>2026-03-29T14:39:22.131Z</time></trkpt><trkpt lat="43.1212702" lon="11.9565961"><ele>360.0</ele><time>2026-03-29T14:39:23.182Z</time></trkpt><trkpt lat="43.1211969" lon="11.9567131"><ele>360.0</ele><time>2026-03-29T14:39:24.177Z</time></trkpt><trkpt lat="43.1211035" lon="11.956819"><ele>360.0</ele><time>2026-03-29T14:39:25.156Z</time></trkpt><trkpt lat="43.1210258" lon="11.9569363"><ele>360.0</ele><time>2026-03-29T14:39:26.166Z</time></trkpt><trkpt lat="43.1209739" lon="11.9570943"><ele>360.0</ele><time>2026-03-29T14:39:27.13Z</time></trkpt><trkpt lat="43.1209242" lon="11.9572574"><ele>360.0</ele><time>2026-03-29T14:39:28.136Z</time></trkpt><trkpt lat="43.1208971" lon="11.9574268"><ele>360.0</ele><time>2026-03-29T14:39:29.126Z</time></trkpt><trkpt lat="43.1208679" lon="11.9576119"><ele>360.0</ele><time>2026-03-29T14:39:30.172Z</time></trkpt><trkpt lat="43.1208541" lon="11.9578238"><ele>360.0</ele><time>2026-03-29T14:39:31.169Z</time></trkpt><trkpt lat="43.1208683" lon="11.9580494"><ele>359.3333333333333</ele><time>2026-03-29T14:39:32.174Z</time></trkpt><trkpt lat="43.1209045" lon="11.958312"><ele>358.66666666666663</ele><time>2026-03-29T14:39:33.161Z</time></trkpt><trkpt lat="43.120944" lon="11.9585694"><ele>358.0</ele><time>2026-03-29T14:39:34.191Z</time></trkpt><trkpt lat="43.1209765" lon="11.9587963"><ele>358.0</ele><time>2026-03-29T14:39:35.168Z</time></trkpt><trkpt lat="43.120991" lon="11.9589835"><ele>358.0</ele><time>2026-03-29T14:39:36.129Z</time></trkpt><trkpt lat="43.1209808" lon="11.9591834"><ele>358.0</ele><time>2026-03-29T14:39:37.185Z</time></trkpt><trkpt lat="43.1209704" lon="11.9593628"><ele>358.0</ele><time>2026-03-29T14:39:38.127Z</time></trkpt><trkpt lat="43.1209731" lon="11.9595598"><ele>357.5</ele><time>2026-03-29T14:39:39.166Z</time></trkpt><trkpt lat="43.1209719" lon="11.9597565"><ele>357.0</ele><time>2026-03-29T14:39:40.175Z</time></trkpt><trkpt lat="43.1209563" lon="11.9599603"><ele>356.5</ele><time>2026-03-29T14:39:41.177Z</time></trkpt><trkpt lat="43.1209482" lon="11.9601475"><ele>356.0</ele><time>2026-03-29T14:39:42.137Z</time></trkpt><trkpt lat="43.1209347" lon="11.9603582"><ele>355.6666666666667</ele><time>2026-03-29T14:39:43.154Z</time></trkpt><trkpt lat="43.1209213" lon="11.9605744"><ele>355.3333333333333</ele><time>2026-03-29T14:39:44.158Z</time></trkpt><trkpt lat="43.1209159" lon="11.96078"><ele>355.0</ele><time>2026-03-29T14:39:45.17Z</time></trkpt><trkpt lat="43.1209147" lon="11.9609931"><ele>354.75</ele><time>2026-03-29T14:39:46.166Z</time></trkpt><trkpt lat="43.1209056" lon="11.9612013"><ele>354.5</ele><time>2026-03-29T14:39:47.139Z</time></trkpt><trkpt lat="43.1208941" lon="11.9614053"><ele>354.25</ele><time>2026-03-29T14:39:48.133Z</time></trkpt><trkpt lat="43.120878" lon="11.9616043"><ele>354.0</ele><time>2026-03-29T14:39:49.129Z</time></trkpt><trkpt lat="43.1208658" lon="11.9618024"><ele>354.0</ele><time>2026-03-29T14:39:50.137Z</time></trkpt><trkpt lat="43.1208573" lon="11.9620022"><ele>354.0</ele><time>2026-03-29T14:39:51.138Z</time></trkpt><trkpt lat="43.1208544" lon="11.9622066"><ele>354.0</ele><time>2026-03-29T14:39:52.161Z</time></trkpt><trkpt lat="43.120846" lon="11.9623948"><ele>354.0</ele><time>2026-03-29T14:39:53.125Z</time></trkpt><trkpt lat="43.1208413" lon="11.9625858"><ele>353.75</ele><time>2026-03-29T14:39:54.125Z</time></trkpt><trkpt lat="43.1208294" lon="11.9627613"><ele>353.5</ele><time>2026-03-29T14:39:55.128Z</time></trkpt><trkpt lat="43.1208185" lon="11.9629581"><ele>353.25</ele><time>2026-03-29T14:39:56.127Z</time></trkpt><trkpt lat="43.1208115" lon="11.9631359"><ele>353.0</ele><time>2026-03-29T14:39:57.121Z</time></trkpt><trkpt lat="43.1207962" lon="11.9633218"><ele>352.0</ele><time>2026-03-29T14:39:58.169Z</time></trkpt><trkpt lat="43.1207748" lon="11.963514"><ele>351.0</ele><time>2026-03-29T14:39:59.16Z</time></trkpt><trkpt lat="43.1207541" lon="11.9637692"><ele>350.0</ele><time>2026-03-29T14:40:00.469Z</time></trkpt><trkpt lat="43.1207359" lon="11.9641235"><ele>349.33333333333337</ele><time>2026-03-29T14:40:02.209Z</time></trkpt><trkpt lat="43.1207267" lon="11.9643219"><ele>348.6666666666667</ele><time>2026-03-29T14:40:03.202Z</time></trkpt><trkpt lat="43.1207059" lon="11.9645327"><ele>348.0</ele><time>2026-03-29T14:40:04.2Z</time></trkpt><trkpt lat="43.1206554" lon="11.9647453"><ele>348.0</ele><time>2026-03-29T14:40:05.192Z</time></trkpt><trkpt lat="43.1206034" lon="11.9649705"><ele>348.0</ele><time>2026-03-29T14:40:06.22Z</time></trkpt><trkpt lat="43.1205461" lon="11.9651896"><ele>348.0</ele><time>2026-03-29T14:40:07.221Z</time></trkpt><trkpt lat="43.1204801" lon="11.9654096"><ele>347.0</ele><time>2026-03-29T14:40:08.193Z</time></trkpt><trkpt lat="43.1204222" lon="11.9656376"><ele>346.0</ele><time>2026-03-29T14:40:09.193Z</time></trkpt><trkpt lat="43.1203705" lon="11.9658659"><ele>345.0</ele><time>2026-03-29T14:40:10.205Z</time></trkpt><trkpt lat="43.1203288" lon="11.9661138"><ele>344.3333333333333</ele><time>2026-03-29T14:40:11.233Z</time></trkpt><trkpt lat="43.1203136" lon="11.966347"><ele>343.66666666666663</ele><time>2026-03-29T14:40:12.187Z</time></trkpt><trkpt lat="43.1203019" lon="11.9665998"><ele>343.0</ele><time>2026-03-29T14:40:13.193Z</time></trkpt><trkpt lat="43.120293" lon="11.9668363"><ele>342.0</ele><time>2026-03-29T14:40:14.17Z</time></trkpt><trkpt lat="43.1202842" lon="11.9670752"><ele>341.0</ele><time>2026-03-29T14:40:15.192Z</time></trkpt><trkpt lat="43.1202814" lon="11.9672972"><ele>340.0</ele><time>2026-03-29T14:40:16.183Z</time></trkpt><trkpt lat="43.1202825" lon="11.9675254"><ele>340.3333333333333</ele><time>2026-03-29T14:40:17.201Z</time></trkpt><trkpt lat="43.1202975" lon="11.967731"><ele>340.6666666666667</ele><time>2026-03-29T14:40:18.186Z</time></trkpt><trkpt lat="43.1203431" lon="11.967928"><ele>341.0</ele><time>2026-03-29T14:40:19.202Z</time></trkpt><trkpt lat="43.120417" lon="11.9681174"><ele>341.0</ele><time>2026-03-29T14:40:20.201Z</time></trkpt><trkpt lat="43.1204988" lon="11.968321"><ele>341.0</ele><time>2026-03-29T14:40:21.201Z</time></trkpt><trkpt lat="43.1205897" lon="11.9685322"><ele>341.0</ele><time>2026-03-29T14:40:22.194Z</time></trkpt><trkpt lat="43.1206805" lon="11.9687492"><ele>339.0</ele><time>2026-03-29T14:40:23.191Z</time></trkpt><trkpt lat="43.1207699" lon="11.9689678"><ele>337.0</ele><time>2026-03-29T14:40:24.18Z</time></trkpt><trkpt lat="43.1208616" lon="11.9691899"><ele>335.0</ele><time>2026-03-29T14:40:25.186Z</time></trkpt><trkpt lat="43.1209539" lon="11.9694092"><ele>335.0</ele><time>2026-03-29T14:40:26.191Z</time></trkpt><trkpt lat="43.1210434" lon="11.969619"><ele>335.0</ele><time>2026-03-29T14:40:27.187Z</time></trkpt><trkpt lat="43.1211314" lon="11.9698239"><ele>335.0</ele><time>2026-03-29T14:40:28.192Z</time></trkpt><trkpt lat="43.1212148" lon="11.9700197"><ele>334.6666666666667</ele><time>2026-03-29T14:40:29.187Z</time></trkpt><trkpt lat="43.1212991" lon="11.9702135"><ele>334.3333333333333</ele><time>2026-03-29T14:40:30.205Z</time></trkpt><trkpt lat="43.1213573" lon="11.97041"><ele>334.0</ele><time>2026-03-29T14:40:31.186Z</time></trkpt><trkpt lat="43.1214031" lon="11.9706124"><ele>334.0</ele><time>2026-03-29T14:40:32.178Z</time></trkpt><trkpt lat="43.1214293" lon="11.9708233"><ele>334.0</ele><time>2026-03-29T14:40:33.215Z</time></trkpt><trkpt lat="43.1213831" lon="11.9710292"><ele>334.0</ele><time>2026-03-29T14:40:34.189Z</time></trkpt><trkpt lat="43.1213353" lon="11.9712354"><ele>333.3333333333333</ele><time>2026-03-29T14:40:35.182Z</time></trkpt><trkpt lat="43.1212659" lon="11.9714751"><ele>332.6666666666667</ele><time>2026-03-29T14:40:36.193Z</time></trkpt><trkpt lat="43.1211853" lon="11.9717358"><ele>332.0</ele><time>2026-03-29T14:40:37.189Z</time></trkpt><trkpt lat="43.1211087" lon="11.971998"><ele>332.0</ele><time>2026-03-29T14:40:38.188Z</time></trkpt><trkpt lat="43.121027" lon="11.972264"><ele>332.0</ele><time>2026-03-29T14:40:39.196Z</time></trkpt><trkpt lat="43.1209546" lon="11.9725203"><ele>332.0</ele><time>2026-03-29T14:40:40.194Z</time></trkpt><trkpt lat="43.1208774" lon="11.972764"><ele>332.0</ele><time>2026-03-29T14:40:41.19Z</time></trkpt><trkpt lat="43.1208026" lon="11.9730001"><ele>332.0</ele><time>2026-03-29T14:40:42.179Z</time></trkpt><trkpt lat="43.1207278" lon="11.9732522"><ele>332.0</ele><time>2026-03-29T14:40:43.232Z</time></trkpt><trkpt lat="43.1206607" lon="11.9734767"><ele>331.33333333333337</ele><time>2026-03-29T14:40:44.175Z</time></trkpt><trkpt lat="43.1205908" lon="11.9737149"><ele>330.6666666666667</ele><time>2026-03-29T14:40:45.186Z</time></trkpt><trkpt lat="43.1205195" lon="11.9739569"><ele>330.0</ele><time>2026-03-29T14:40:46.204Z</time></trkpt><trkpt lat="43.1204516" lon="11.9741976"><ele>330.0</ele><time>2026-03-29T14:40:47.192Z</time></trkpt><trkpt lat="43.1203885" lon="11.9744508"><ele>330.0</ele><time>2026-03-29T14:40:48.182Z</time></trkpt><trkpt lat="43.1203365" lon="11.9747231"><ele>330.0</ele><time>2026-03-29T14:40:49.188Z</time></trkpt><trkpt lat="43.120299" lon="11.9750024"><ele>330.3333333333333</ele><time>2026-03-29T14:40:50.186Z</time></trkpt><trkpt lat="43.1202747" lon="11.9752916"><ele>330.66666666666663</ele><time>2026-03-29T14:40:51.192Z</time></trkpt><trkpt lat="43.1202688" lon="11.9755858"><ele>331.0</ele><time>2026-03-29T14:40:52.2Z</time></trkpt><trkpt lat="43.1202795" lon="11.9758797"><ele>331.3333333333333</ele><time>2026-03-29T14:40:53.196Z</time></trkpt><trkpt lat="43.1203039" lon="11.9761758"><ele>331.6666666666667</ele><time>2026-03-29T14:40:54.199Z</time></trkpt><trkpt lat="43.120331" lon="11.9764649"><ele>332.0</ele><time>2026-03-29T14:40:55.187Z</time></trkpt><trkpt lat="43.1203583" lon="11.9767605"><ele>332.0</ele><time>2026-03-29T14:40:56.221Z</time></trkpt><trkpt lat="43.1203829" lon="11.9770314"><ele>332.0</ele><time>2026-03-29T14:40:57.191Z</time></trkpt><trkpt lat="43.1204079" lon="11.977307"><ele>332.0</ele><time>2026-03-29T14:40:58.193Z</time></trkpt><trkpt lat="43.1204302" lon="11.9775757"><ele>331.33333333333337</ele><time>2026-03-29T14:40:59.191Z</time></trkpt><trkpt lat="43.1204539" lon="11.9778425"><ele>330.6666666666667</ele><time>2026-03-29T14:41:00.19Z</time></trkpt><trkpt lat="43.120476" lon="11.9781081"><ele>330.0</ele><time>2026-03-29T14:41:01.209Z</time></trkpt><trkpt lat="43.1204966" lon="11.9783626"><ele>329.0</ele><time>2026-03-29T14:41:02.197Z</time></trkpt><trkpt lat="43.1205169" lon="11.978632"><ele>328.0</ele><time>2026-03-29T14:41:03.223Z</time></trkpt><trkpt lat="43.120533" lon="11.9788879"><ele>327.0</ele><time>2026-03-29T14:41:04.188Z</time></trkpt><trkpt lat="43.1205525" lon="11.9791515"><ele>326.6666666666667</ele><time>2026-03-29T14:41:05.191Z</time></trkpt><trkpt lat="43.1205753" lon="11.9794163"><ele>326.33333333333337</ele><time>2026-03-29T14:41:06.181Z</time></trkpt><trkpt lat="43.1206007" lon="11.9796884"><ele>326.0</ele><time>2026-03-29T14:41:07.194Z</time></trkpt><trkpt lat="43.1206264" lon="11.9799613"><ele>325.33333333333337</ele><time>2026-03-29T14:41:08.198Z</time></trkpt><trkpt lat="43.1206487" lon="11.9802318"><ele>324.6666666666667</ele><time>2026-03-29T14:41:09.194Z</time></trkpt><trkpt lat="43.1206736" lon="11.9804998"><ele>324.0</ele><time>2026-03-29T14:41:10.19Z</time></trkpt><trkpt lat="43.1206959" lon="11.9807702"><ele>324.0</ele><time>2026-03-29T14:41:11.186Z</time></trkpt><trkpt lat="43.1207216" lon="11.9810387"><ele>324.0</ele><time>2026-03-29T14:41:12.203Z</time></trkpt><trkpt lat="43.1207458" lon="11.9812988"><ele>324.0</ele><time>2026-03-29T14:41:13.201Z</time></trkpt><trkpt lat="43.120768" lon="11.981549"><ele>325.0</ele><time>2026-03-29T14:41:14.169Z</time></trkpt><trkpt lat="43.1207942" lon="11.9818117"><ele>326.0</ele><time>2026-03-29T14:41:15.21Z</time></trkpt><trkpt lat="43.1208152" lon="11.9820664"><ele>327.0</ele><time>2026-03-29T14:41:16.205Z</time></trkpt><trkpt lat="43.120839" lon="11.982321"><ele>326.3333333333333</ele><time>2026-03-29T14:41:17.206Z</time></trkpt><trkpt lat="43.1208584" lon="11.982567"><ele>325.66666666666663</ele><time>2026-03-29T14:41:18.193Z</time></trkpt><trkpt lat="43.1208765" lon="11.9828263"><ele>325.0</ele><time>2026-03-29T14:41:19.209Z</time></trkpt><trkpt lat="43.120899" lon="11.9830783"><ele>325.0</ele><time>2026-03-29T14:41:20.19Z</time></trkpt><trkpt lat="43.1209151" lon="11.9833389"><ele>325.0</ele><time>2026-03-29T14:41:21.197Z</time></trkpt><trkpt lat="43.1209348" lon="11.9836"><ele>325.0</ele><time>2026-03-29T14:41:22.192Z</time></trkpt><trkpt lat="43.1209549" lon="11.9838672"><ele>324.3333333333333</ele><time>2026-03-29T14:41:23.185Z</time></trkpt><trkpt lat="43.120978" lon="11.9841261"><ele>323.6666666666667</ele><time>2026-03-29T14:41:24.181Z</time></trkpt><trkpt lat="43.1210028" lon="11.9843888"><ele>323.0</ele><time>2026-03-29T14:41:25.182Z</time></trkpt><trkpt lat="43.1210287" lon="11.9846535"><ele>323.0</ele><time>2026-03-29T14:41:26.136Z</time></trkpt><trkpt lat="43.1210514" lon="11.9849316"><ele>323.0</ele><time>2026-03-29T14:41:27.171Z</time></trkpt><trkpt lat="43.1210739" lon="11.985201"><ele>323.0</ele><time>2026-03-29T14:41:28.17Z</time></trkpt><trkpt lat="43.1210897" lon="11.9854635"><ele>323.0</ele><time>2026-03-29T14:41:29.125Z</time></trkpt><trkpt lat="43.1211241" lon="11.9857426"><ele>323.0</ele><time>2026-03-29T14:41:30.175Z</time></trkpt><trkpt lat="43.1211728" lon="11.9860004"><ele>323.0</ele><time>2026-03-29T14:41:31.145Z</time></trkpt><trkpt lat="43.1212378" lon="11.9862569"><ele>320.33333333333337</ele><time>2026-03-29T14:41:32.126Z</time></trkpt><trkpt lat="43.1213226" lon="11.9865078"><ele>317.6666666666667</ele><time>2026-03-29T14:41:33.14Z</time></trkpt><trkpt lat="43.1214292" lon="11.9867647"><ele>315.0</ele><time>2026-03-29T14:41:34.131Z</time></trkpt><trkpt lat="43.121548" lon="11.9870267"><ele>314.5</ele><time>2026-03-29T14:41:35.123Z</time></trkpt><trkpt lat="43.1216949" lon="11.9872871"><ele>314.0</ele><time>2026-03-29T14:41:36.14Z</time></trkpt><trkpt lat="43.1218713" lon="11.9875339"><ele>314.0</ele><time>2026-03-29T14:41:37.151Z</time></trkpt><trkpt lat="43.1220336" lon="11.9877589"><ele>314.0</ele><time>2026-03-29T14:41:38.13Z</time></trkpt><trkpt lat="43.1222643" lon="11.987963"><ele>313.6666666666667</ele><time>2026-03-29T14:41:39.143Z</time></trkpt><trkpt lat="43.1224233" lon="11.9881838"><ele>313.3333333333333</ele><time>2026-03-29T14:41:40.143Z</time></trkpt><trkpt lat="43.1225627" lon="11.9884184"><ele>313.0</ele><time>2026-03-29T14:41:41.155Z</time></trkpt><trkpt lat="43.122681" lon="11.9886229"><ele>313.0</ele><time>2026-03-29T14:41:42.13Z</time></trkpt><trkpt lat="43.1227914" lon="11.9888288"><ele>313.0</ele><time>2026-03-29T14:41:43.125Z</time></trkpt><trkpt lat="43.1228967" lon="11.989032"><ele>313.0</ele><time>2026-03-29T14:41:44.128Z</time></trkpt><trkpt lat="43.1230091" lon="11.9892318"><ele>312.0</ele><time>2026-03-29T14:41:45.141Z</time></trkpt><trkpt lat="43.1230828" lon="11.9894375"><ele>311.0</ele><time>2026-03-29T14:41:46.134Z</time></trkpt><trkpt lat="43.1231446" lon="11.9896504"><ele>310.0</ele><time>2026-03-29T14:41:47.135Z</time></trkpt><trkpt lat="43.123191" lon="11.9898708"><ele>308.66666666666663</ele><time>2026-03-29T14:41:48.142Z</time></trkpt><trkpt lat="43.1232159" lon="11.9901095"><ele>307.3333333333333</ele><time>2026-03-29T14:41:49.133Z</time></trkpt><trkpt lat="43.1232007" lon="11.9903788"><ele>306.0</ele><time>2026-03-29T14:41:50.132Z</time></trkpt><trkpt lat="43.1231642" lon="11.9906515"><ele>306.0</ele><time>2026-03-29T14:41:51.137Z</time></trkpt><trkpt lat="43.1231016" lon="11.9909433"><ele>306.0</ele><time>2026-03-29T14:41:52.136Z</time></trkpt><trkpt lat="43.1230299" lon="11.9912478"><ele>306.0</ele><time>2026-03-29T14:41:53.146Z</time></trkpt><trkpt lat="43.1229516" lon="11.9915458"><ele>306.0</ele><time>2026-03-29T14:41:54.141Z</time></trkpt><trkpt lat="43.122882" lon="11.9918486"><ele>306.0</ele><time>2026-03-29T14:41:55.159Z</time></trkpt><trkpt lat="43.1228364" lon="11.9921215"><ele>306.0</ele><time>2026-03-29T14:41:56.145Z</time></trkpt><trkpt lat="43.1227761" lon="11.992392"><ele>306.0</ele><time>2026-03-29T14:41:57.126Z</time></trkpt><trkpt lat="43.1227176" lon="11.9926628"><ele>305.0</ele><time>2026-03-29T14:41:58.131Z</time></trkpt><trkpt lat="43.1226726" lon="11.9929094"><ele>304.0</ele><time>2026-03-29T14:41:59.141Z</time></trkpt><trkpt lat="43.1226083" lon="11.9931785"><ele>303.0</ele><time>2026-03-29T14:42:00.153Z</time></trkpt><trkpt lat="43.1225435" lon="11.9934187"><ele>302.3333333333333</ele><time>2026-03-29T14:42:01.125Z</time></trkpt><trkpt lat="43.1225126" lon="11.9936706"><ele>301.66666666666663</ele><time>2026-03-29T14:42:02.167Z</time></trkpt><trkpt lat="43.1225151" lon="11.9939101"><ele>301.0</ele><time>2026-03-29T14:42:03.14Z</time></trkpt><trkpt lat="43.122548" lon="11.9941893"><ele>300.0</ele><time>2026-03-29T14:42:04.138Z</time></trkpt><trkpt lat="43.1225932" lon="11.9944977"><ele>299.0</ele><time>2026-03-29T14:42:05.171Z</time></trkpt><trkpt lat="43.1226421" lon="11.9947846"><ele>298.0</ele><time>2026-03-29T14:42:06.124Z</time></trkpt><trkpt lat="43.1226858" lon="11.9950682"><ele>296.66666666666663</ele><time>2026-03-29T14:42:07.154Z</time></trkpt><trkpt lat="43.1227345" lon="11.9953246"><ele>295.3333333333333</ele><time>2026-03-29T14:42:08.129Z</time></trkpt><trkpt lat="43.1227759" lon="11.9955893"><ele>294.0</ele><time>2026-03-29T14:42:09.173Z</time></trkpt><trkpt lat="43.1228163" lon="11.9958409"><ele>292.3333333333333</ele><time>2026-03-29T14:42:10.138Z</time></trkpt><trkpt lat="43.1228835" lon="11.9961144"><ele>290.66666666666663</ele><time>2026-03-29T14:42:11.181Z</time></trkpt><trkpt lat="43.1229735" lon="11.9963711"><ele>289.0</ele><time>2026-03-29T14:42:12.133Z</time></trkpt><trkpt lat="43.1230659" lon="11.9966515"><ele>289.3333333333333</ele><time>2026-03-29T14:42:13.135Z</time></trkpt><trkpt lat="43.1231477" lon="11.996939"><ele>289.6666666666667</ele><time>2026-03-29T14:42:14.151Z</time></trkpt><trkpt lat="43.1232202" lon="11.9972153"><ele>290.0</ele><time>2026-03-29T14:42:15.134Z</time></trkpt><trkpt lat="43.1232956" lon="11.9974851"><ele>289.33333333333337</ele><time>2026-03-29T14:42:16.129Z</time></trkpt><trkpt lat="43.1233776" lon="11.9977583"><ele>288.6666666666667</ele><time>2026-03-29T14:42:17.146Z</time></trkpt><trkpt lat="43.1234628" lon="11.9980349"><ele>288.0</ele><time>2026-03-29T14:42:18.141Z</time></trkpt><trkpt lat="43.1235453" lon="11.9983135"><ele>287.3333333333333</ele><time>2026-03-29T14:42:19.146Z</time></trkpt><trkpt lat="43.1236202" lon="11.9985898"><ele>286.66666666666663</ele><time>2026-03-29T14:42:20.13Z</time></trkpt><trkpt lat="43.1236771" lon="11.9988548"><ele>286.0</ele><time>2026-03-29T14:42:21.134Z</time></trkpt><trkpt lat="43.1237147" lon="11.9991137"><ele>285.66666666666663</ele><time>2026-03-29T14:42:22.136Z</time></trkpt><trkpt lat="43.1237318" lon="11.9993821"><ele>285.3333333333333</ele><time>2026-03-29T14:42:23.148Z</time></trkpt><trkpt lat="43.1237149" lon="11.9996364"><ele>285.0</ele><time>2026-03-29T14:42:24.132Z</time></trkpt><trkpt lat="43.123663" lon="11.9998883"><ele>285.0</ele><time>2026-03-29T14:42:25.148Z</time></trkpt><trkpt lat="43.1235837" lon="12.000111"><ele>285.0</ele><time>2026-03-29T14:42:26.129Z</time></trkpt><trkpt lat="43.1234881" lon="12.000361"><ele>285.0</ele><time>2026-03-29T14:42:27.175Z</time></trkpt><trkpt lat="43.1233755" lon="12.0005985"><ele>285.0</ele><time>2026-03-29T14:42:28.127Z</time></trkpt><trkpt lat="43.1232368" lon="12.0008515"><ele>285.0</ele><time>2026-03-29T14:42:29.136Z</time></trkpt><trkpt lat="43.1230884" lon="12.0011228"><ele>285.0</ele><time>2026-03-29T14:42:30.134Z</time></trkpt><trkpt lat="43.1229503" lon="12.0013838"><ele>285.0</ele><time>2026-03-29T14:42:31.134Z</time></trkpt><trkpt lat="43.122814" lon="12.0016377"><ele>286.0</ele><time>2026-03-29T14:42:32.128Z</time></trkpt><trkpt lat="43.1226888" lon="12.0018902"><ele>287.0</ele><time>2026-03-29T14:42:33.136Z</time></trkpt><trkpt lat="43.1225642" lon="12.002136"><ele>288.0</ele><time>2026-03-29T14:42:34.142Z</time></trkpt><trkpt lat="43.1224373" lon="12.0023908"><ele>287.6666666666667</ele><time>2026-03-29T14:42:35.139Z</time></trkpt><trkpt lat="43.1223133" lon="12.0026309"><ele>287.33333333333337</ele><time>2026-03-29T14:42:36.13Z</time></trkpt><trkpt lat="43.1221929" lon="12.002873"><ele>287.0</ele><time>2026-03-29T14:42:37.12Z</time></trkpt><trkpt lat="43.1220693" lon="12.0031248"><ele>288.0</ele><time>2026-03-29T14:42:38.156Z</time></trkpt><trkpt lat="43.1219561" lon="12.0033487"><ele>289.0</ele><time>2026-03-29T14:42:39.158Z</time></trkpt><trkpt lat="43.121865" lon="12.00357"><ele>290.0</ele><time>2026-03-29T14:42:40.134Z</time></trkpt><trkpt lat="43.1217735" lon="12.0038166"><ele>290.0</ele><time>2026-03-29T14:42:41.155Z</time></trkpt><trkpt lat="43.1217136" lon="12.0040712"><ele>290.0</ele><time>2026-03-29T14:42:42.153Z</time></trkpt><trkpt lat="43.1216705" lon="12.0043356"><ele>290.0</ele><time>2026-03-29T14:42:43.132Z</time></trkpt><trkpt lat="43.1216435" lon="12.0046204"><ele>290.6666666666667</ele><time>2026-03-29T14:42:44.15Z</time></trkpt><trkpt lat="43.1216072" lon="12.0049051"><ele>291.3333333333333</ele><time>2026-03-29T14:42:45.151Z</time></trkpt><trkpt lat="43.1215602" lon="12.0051952"><ele>292.0</ele><time>2026-03-29T14:42:46.164Z</time></trkpt><trkpt lat="43.1215183" lon="12.0054557"><ele>292.0</ele><time>2026-03-29T14:42:47.133Z</time></trkpt><trkpt lat="43.1214715" lon="12.0057136"><ele>292.0</ele><time>2026-03-29T14:42:48.131Z</time></trkpt><trkpt lat="43.1214288" lon="12.0059683"><ele>292.0</ele><time>2026-03-29T14:42:49.16Z</time></trkpt><trkpt lat="43.121419" lon="12.0062119"><ele>292.0</ele><time>2026-03-29T14:42:50.139Z</time></trkpt><trkpt lat="43.1214247" lon="12.0064674"><ele>292.0</ele><time>2026-03-29T14:42:51.131Z</time></trkpt><trkpt lat="43.1214509" lon="12.0067362"><ele>292.0</ele><time>2026-03-29T14:42:52.143Z</time></trkpt><trkpt lat="43.1215045" lon="12.0070119"><ele>292.5</ele><time>2026-03-29T14:42:53.14Z</time></trkpt><trkpt lat="43.1215667" lon="12.00731"><ele>293.0</ele><time>2026-03-29T14:42:54.143Z</time></trkpt><trkpt lat="43.1216131" lon="12.0076121"><ele>293.0</ele><time>2026-03-29T14:42:55.174Z</time></trkpt><trkpt lat="43.1216544" lon="12.0079045"><ele>293.0</ele><time>2026-03-29T14:42:56.181Z</time></trkpt><trkpt lat="43.1216935" lon="12.0081933"><ele>293.0</ele><time>2026-03-29T14:42:57.198Z</time></trkpt><trkpt lat="43.1217317" lon="12.0084566"><ele>293.0</ele><time>2026-03-29T14:42:58.15Z</time></trkpt><trkpt lat="43.1217716" lon="12.0087332"><ele>293.0</ele><time>2026-03-29T14:42:59.144Z</time></trkpt><trkpt lat="43.1218065" lon="12.0089953"><ele>293.0</ele><time>2026-03-29T14:43:00.156Z</time></trkpt><trkpt lat="43.1218385" lon="12.0092507"><ele>293.0</ele><time>2026-03-29T14:43:01.137Z</time></trkpt><trkpt lat="43.1218664" lon="12.0095122"><ele>293.0</ele><time>2026-03-29T14:43:02.177Z</time></trkpt><trkpt lat="43.1218976" lon="12.0097634"><ele>293.0</ele><time>2026-03-29T14:43:03.152Z</time></trkpt><trkpt lat="43.1219312" lon="12.0100189"><ele>292.33333333333337</ele><time>2026-03-29T14:43:04.166Z</time></trkpt><trkpt lat="43.121962" lon="12.0102725"><ele>291.6666666666667</ele><time>2026-03-29T14:43:05.148Z</time></trkpt><trkpt lat="43.1219976" lon="12.0105365"><ele>291.0</ele><time>2026-03-29T14:43:06.148Z</time></trkpt><trkpt lat="43.1220335" lon="12.0107986"><ele>289.3333333333333</ele><time>2026-03-29T14:43:07.155Z</time></trkpt><trkpt lat="43.1220724" lon="12.0110442"><ele>287.66666666666663</ele><time>2026-03-29T14:43:08.142Z</time></trkpt><trkpt lat="43.1221049" lon="12.0112943"><ele>286.0</ele><time>2026-03-29T14:43:09.145Z</time></trkpt><trkpt lat="43.1221334" lon="12.0115454"><ele>285.0</ele><time>2026-03-29T14:43:10.164Z</time></trkpt><trkpt lat="43.122163" lon="12.0117809"><ele>284.0</ele><time>2026-03-29T14:43:11.148Z</time></trkpt><trkpt lat="43.122197" lon="12.0120195"><ele>283.0</ele><time>2026-03-29T14:43:12.185Z</time></trkpt><trkpt lat="43.1222283" lon="12.0122329"><ele>283.0</ele><time>2026-03-29T14:43:13.123Z</time></trkpt><trkpt lat="43.1222555" lon="12.0124636"><ele>283.0</ele><time>2026-03-29T14:43:14.123Z</time></trkpt><trkpt lat="43.1222589" lon="12.0126701"><ele>283.0</ele><time>2026-03-29T14:43:15.132Z</time></trkpt><trkpt lat="43.1222905" lon="12.0128603"><ele>282.66666666666663</ele><time>2026-03-29T14:43:16.143Z</time></trkpt><trkpt lat="43.1223326" lon="12.0130721"><ele>282.3333333333333</ele><time>2026-03-29T14:43:17.128Z</time></trkpt><trkpt lat="43.1223686" lon="12.0133113"><ele>282.0</ele><time>2026-03-29T14:43:18.145Z</time></trkpt><trkpt lat="43.1223972" lon="12.0135341"><ele>280.6666666666667</ele><time>2026-03-29T14:43:19.133Z</time></trkpt><trkpt lat="43.1224376" lon="12.0137628"><ele>279.33333333333337</ele><time>2026-03-29T14:43:20.163Z</time></trkpt><trkpt lat="43.1224662" lon="12.0139829"><ele>278.0</ele><time>2026-03-29T14:43:21.173Z</time></trkpt><trkpt lat="43.1224905" lon="12.0141882"><ele>278.0</ele><time>2026-03-29T14:43:22.141Z</time></trkpt><trkpt lat="43.1225144" lon="12.0144089"><ele>278.0</ele><time>2026-03-29T14:43:23.137Z</time></trkpt><trkpt lat="43.1225409" lon="12.0146209"><ele>278.0</ele><time>2026-03-29T14:43:24.14Z</time></trkpt><trkpt lat="43.1225668" lon="12.0148453"><ele>278.0</ele><time>2026-03-29T14:43:25.118Z</time></trkpt><trkpt lat="43.1225959" lon="12.0150741"><ele>278.0</ele><time>2026-03-29T14:43:26.135Z</time></trkpt><trkpt lat="43.1226193" lon="12.0152922"><ele>278.0</ele><time>2026-03-29T14:43:27.136Z</time></trkpt><trkpt lat="43.1226375" lon="12.015494"><ele>278.0</ele><time>2026-03-29T14:43:28.138Z</time></trkpt><trkpt lat="43.1226569" lon="12.0156744"><ele>278.0</ele><time>2026-03-29T14:43:29.13Z</time></trkpt><trkpt lat="43.1226743" lon="12.0158526"><ele>278.0</ele><time>2026-03-29T14:43:30.139Z</time></trkpt><trkpt lat="43.1226916" lon="12.0160137"><ele>278.0</ele><time>2026-03-29T14:43:31.143Z</time></trkpt><trkpt lat="43.1227056" lon="12.0161562"><ele>278.6</ele><time>2026-03-29T14:43:32.134Z</time></trkpt><trkpt lat="43.1227217" lon="12.0162964"><ele>279.20000000000005</ele><time>2026-03-29T14:43:33.146Z</time></trkpt><trkpt lat="43.1227353" lon="12.0163934"><ele>279.8</ele><time>2026-03-29T14:43:34.126Z</time></trkpt><trkpt lat="43.1227507" lon="12.0165299"><ele>280.40000000000003</ele><time>2026-03-29T14:43:35.135Z</time></trkpt><trkpt lat="43.1227658" lon="12.0166642"><ele>281.0</ele><time>2026-03-29T14:43:36.135Z</time></trkpt><trkpt lat="43.1227812" lon="12.0167903"><ele>281.40000000000003</ele><time>2026-03-29T14:43:37.138Z</time></trkpt><trkpt lat="43.122798" lon="12.0169257"><ele>281.8</ele><time>2026-03-29T14:43:38.133Z</time></trkpt><trkpt lat="43.1228127" lon="12.0170756"><ele>282.20000000000005</ele><time>2026-03-29T14:43:39.16Z</time></trkpt><trkpt lat="43.1228319" lon="12.0172258"><ele>282.6</ele><time>2026-03-29T14:43:40.136Z</time></trkpt><trkpt lat="43.1228542" lon="12.0173868"><ele>283.0</ele><time>2026-03-29T14:43:41.158Z</time></trkpt><trkpt lat="43.1228738" lon="12.0175435"><ele>283.0</ele><time>2026-03-29T14:43:42.145Z</time></trkpt><trkpt lat="43.1228955" lon="12.0177058"><ele>283.0</ele><time>2026-03-29T14:43:43.147Z</time></trkpt><trkpt lat="43.1229158" lon="12.0178681"><ele>283.0</ele><time>2026-03-29T14:43:44.132Z</time></trkpt><trkpt lat="43.1229363" lon="12.0180262"><ele>283.0</ele><time>2026-03-29T14:43:45.148Z</time></trkpt><trkpt lat="43.1229566" lon="12.0181848"><ele>282.2</ele><time>2026-03-29T14:43:46.196Z</time></trkpt><trkpt lat="43.1229734" lon="12.0183341"><ele>281.4</ele><time>2026-03-29T14:43:47.171Z</time></trkpt><trkpt lat="43.1229887" lon="12.0184917"><ele>280.59999999999997</ele><time>2026-03-29T14:43:48.175Z</time></trkpt><trkpt lat="43.1229996" lon="12.0186304"><ele>279.8</ele><time>2026-03-29T14:43:49.121Z</time></trkpt><trkpt lat="43.1230111" lon="12.0187782"><ele>279.0</ele><time>2026-03-29T14:43:50.14Z</time></trkpt><trkpt lat="43.1230245" lon="12.0189186"><ele>279.0</ele><time>2026-03-29T14:43:51.138Z</time></trkpt><trkpt lat="43.1230388" lon="12.0190641"><ele>279.0</ele><time>2026-03-29T14:43:52.126Z</time></trkpt><trkpt lat="43.1230497" lon="12.0192085"><ele>279.0</ele><time>2026-03-29T14:43:53.147Z</time></trkpt><trkpt lat="43.1230582" lon="12.0193436"><ele>279.0</ele><time>2026-03-29T14:43:54.157Z</time></trkpt><trkpt lat="43.1230742" lon="12.0194744"><ele>279.0</ele><time>2026-03-29T14:43:55.131Z</time></trkpt><trkpt lat="43.1230966" lon="12.0196183"><ele>278.8</ele><time>2026-03-29T14:43:56.156Z</time></trkpt><trkpt lat="43.1231168" lon="12.0197624"><ele>278.59999999999997</ele><time>2026-03-29T14:43:57.19Z</time></trkpt><trkpt lat="43.1231387" lon="12.0199005"><ele>278.4</ele><time>2026-03-29T14:43:58.163Z</time></trkpt><trkpt lat="43.1231566" lon="12.0200547"><ele>278.2</ele><time>2026-03-29T14:43:59.166Z</time></trkpt><trkpt lat="43.1231697" lon="12.0202092"><ele>278.0</ele><time>2026-03-29T14:44:00.126Z</time></trkpt><trkpt lat="43.12318" lon="12.0203592"><ele>277.8</ele><time>2026-03-29T14:44:01.14Z</time></trkpt><trkpt lat="43.1231932" lon="12.0204963"><ele>277.6</ele><time>2026-03-29T14:44:02.139Z</time></trkpt><trkpt lat="43.123209" lon="12.0206374"><ele>277.4</ele><time>2026-03-29T14:44:03.14Z</time></trkpt><trkpt lat="43.1232312" lon="12.0207754"><ele>277.2</ele><time>2026-03-29T14:44:04.13Z</time></trkpt><trkpt lat="43.1232535" lon="12.0209217"><ele>277.0</ele><time>2026-03-29T14:44:05.153Z</time></trkpt><trkpt lat="43.1232745" lon="12.0210773"><ele>276.25</ele><time>2026-03-29T14:44:06.148Z</time></trkpt><trkpt lat="43.1232968" lon="12.0212344"><ele>275.5</ele><time>2026-03-29T14:44:07.165Z</time></trkpt><trkpt lat="43.1233157" lon="12.0213837"><ele>274.75</ele><time>2026-03-29T14:44:08.131Z</time></trkpt><trkpt lat="43.1233369" lon="12.0215452"><ele>274.0</ele><time>2026-03-29T14:44:09.14Z</time></trkpt><trkpt lat="43.1233562" lon="12.0217039"><ele>273.75</ele><time>2026-03-29T14:44:10.136Z</time></trkpt><trkpt lat="43.1233751" lon="12.0218603"><ele>273.5</ele><time>2026-03-29T14:44:11.131Z</time></trkpt><trkpt lat="43.1233928" lon="12.0220299"><ele>273.25</ele><time>2026-03-29T14:44:12.19Z</time></trkpt><trkpt lat="43.1234123" lon="12.0221977"><ele>273.0</ele><time>2026-03-29T14:44:13.181Z</time></trkpt><trkpt lat="43.1234315" lon="12.0223692"><ele>272.5</ele><time>2026-03-29T14:44:14.19Z</time></trkpt><trkpt lat="43.1234499" lon="12.0225328"><ele>272.0</ele><time>2026-03-29T14:44:15.147Z</time></trkpt><trkpt lat="43.1234676" lon="12.0227191"><ele>271.5</ele><time>2026-03-29T14:44:16.183Z</time></trkpt><trkpt lat="43.1234832" lon="12.02288"><ele>271.0</ele><time>2026-03-29T14:44:17.145Z</time></trkpt><trkpt lat="43.1235008" lon="12.0230638"><ele>271.0</ele><time>2026-03-29T14:44:18.155Z</time></trkpt><trkpt lat="43.1235181" lon="12.0232405"><ele>271.0</ele><time>2026-03-29T14:44:19.14Z</time></trkpt><trkpt lat="43.1235357" lon="12.0234124"><ele>271.0</ele><time>2026-03-29T14:44:20.134Z</time></trkpt><trkpt lat="43.1235546" lon="12.0235865"><ele>271.0</ele><time>2026-03-29T14:44:21.134Z</time></trkpt><trkpt lat="43.1235739" lon="12.0237601"><ele>271.0</ele><time>2026-03-29T14:44:22.138Z</time></trkpt><trkpt lat="43.123591" lon="12.023921"><ele>271.0</ele><time>2026-03-29T14:44:23.129Z</time></trkpt><trkpt lat="43.1236092" lon="12.0240821"><ele>271.0</ele><time>2026-03-29T14:44:24.135Z</time></trkpt><trkpt lat="43.1236342" lon="12.0242563"><ele>271.0</ele><time>2026-03-29T14:44:25.135Z</time></trkpt><trkpt lat="43.1236541" lon="12.0244322"><ele>270.5</ele><time>2026-03-29T14:44:26.132Z</time></trkpt><trkpt lat="43.1236837" lon="12.024626"><ele>270.0</ele><time>2026-03-29T14:44:27.162Z</time></trkpt><trkpt lat="43.1237111" lon="12.0248039"><ele>269.5</ele><time>2026-03-29T14:44:28.129Z</time></trkpt><trkpt lat="43.1237439" lon="12.0249967"><ele>269.0</ele><time>2026-03-29T14:44:29.143Z</time></trkpt><trkpt lat="43.1237725" lon="12.0251841"><ele>269.0</ele><time>2026-03-29T14:44:30.133Z</time></trkpt><trkpt lat="43.1237941" lon="12.0253636"><ele>269.0</ele><time>2026-03-29T14:44:31.137Z</time></trkpt><trkpt lat="43.1238129" lon="12.0255652"><ele>269.0</ele><time>2026-03-29T14:44:32.129Z</time></trkpt><trkpt lat="43.1238329" lon="12.0257501"><ele>269.0</ele><time>2026-03-29T14:44:33.147Z</time></trkpt><trkpt lat="43.1238492" lon="12.0259288"><ele>268.59999999999997</ele><time>2026-03-29T14:44:34.161Z</time></trkpt><trkpt lat="43.123864" lon="12.0260972"><ele>268.2</ele><time>2026-03-29T14:44:35.172Z</time></trkpt><trkpt lat="43.1238827" lon="12.0262581"><ele>267.79999999999995</ele><time>2026-03-29T14:44:36.147Z</time></trkpt><trkpt lat="43.1239017" lon="12.0264071"><ele>267.4</ele><time>2026-03-29T14:44:37.167Z</time></trkpt><trkpt lat="43.1239183" lon="12.0265334"><ele>267.0</ele><time>2026-03-29T14:44:38.143Z</time></trkpt><trkpt lat="43.1239325" lon="12.0266535"><ele>266.6666666666667</ele><time>2026-03-29T14:44:39.127Z</time></trkpt><trkpt lat="43.1239462" lon="12.0267643"><ele>266.3333333333333</ele><time>2026-03-29T14:44:40.126Z</time></trkpt><trkpt lat="43.1239574" lon="12.0268576"><ele>266.0</ele><time>2026-03-29T14:44:41.139Z</time></trkpt><trkpt lat="43.1239713" lon="12.0270063"><ele>265.66666666666663</ele><time>2026-03-29T14:44:43.14Z</time></trkpt><trkpt lat="43.1239786" lon="12.0271221"><ele>265.3333333333333</ele><time>2026-03-29T14:44:45.134Z</time></trkpt><trkpt lat="43.1239804" lon="12.0272093"><ele>265.0</ele><time>2026-03-29T14:44:47.127Z</time></trkpt><trkpt lat="43.123989" lon="12.0273187"><ele>265.0</ele><time>2026-03-29T14:44:50.133Z</time></trkpt><trkpt lat="43.1240029" lon="12.0274131"><ele>265.0</ele><time>2026-03-29T14:44:54.145Z</time></trkpt><trkpt lat="43.1240197" lon="12.0275165"><ele>265.0</ele><time>2026-03-29T14:45:30.151Z</time></trkpt><trkpt lat="43.1240345" lon="12.0277073"><ele>265.0</ele><time>2026-03-29T14:45:32.134Z</time></trkpt><trkpt lat="43.1240536" lon="12.0278327"><ele>265.0</ele><time>2026-03-29T14:45:33.168Z</time></trkpt><trkpt lat="43.1240686" lon="12.0279647"><ele>265.2</ele><time>2026-03-29T14:45:34.176Z</time></trkpt><trkpt lat="43.1240881" lon="12.0281103"><ele>265.4</ele><time>2026-03-29T14:45:35.184Z</time></trkpt><trkpt lat="43.1241111" lon="12.0282195"><ele>265.6</ele><time>2026-03-29T14:45:36.133Z</time></trkpt><trkpt lat="43.124127" lon="12.0283673"><ele>265.8</ele><time>2026-03-29T14:45:37.139Z</time></trkpt><trkpt lat="43.1241432" lon="12.0285224"><ele>266.0</ele><time>2026-03-29T14:45:38.185Z</time></trkpt><trkpt lat="43.1241578" lon="12.0286518"><ele>265.6</ele><time>2026-03-29T14:45:39.134Z</time></trkpt><trkpt lat="43.1241742" lon="12.0287909"><ele>265.20000000000005</ele><time>2026-03-29T14:45:40.155Z</time></trkpt><trkpt lat="43.1241908" lon="12.0289215"><ele>264.79999999999995</ele><time>2026-03-29T14:45:41.155Z</time></trkpt><trkpt lat="43.1242058" lon="12.0290486"><ele>264.4</ele><time>2026-03-29T14:45:42.153Z</time></trkpt><trkpt lat="43.1242224" lon="12.0291747"><ele>264.0</ele><time>2026-03-29T14:45:43.131Z</time></trkpt><trkpt lat="43.1242391" lon="12.0293042"><ele>263.75</ele><time>2026-03-29T14:45:44.136Z</time></trkpt><trkpt lat="43.1242546" lon="12.0294523"><ele>263.5</ele><time>2026-03-29T14:45:45.153Z</time></trkpt><trkpt lat="43.124272" lon="12.0296064"><ele>263.25</ele><time>2026-03-29T14:45:46.136Z</time></trkpt><trkpt lat="43.1242947" lon="12.0297741"><ele>263.0</ele><time>2026-03-29T14:45:47.132Z</time></trkpt><trkpt lat="43.1243068" lon="12.0299645"><ele>262.75</ele><time>2026-03-29T14:45:48.142Z</time></trkpt><trkpt lat="43.1243164" lon="12.0301571"><ele>262.5</ele><time>2026-03-29T14:45:49.124Z</time></trkpt><trkpt lat="43.1243323" lon="12.0303649"><ele>262.25</ele><time>2026-03-29T14:45:50.15Z</time></trkpt><trkpt lat="43.1243496" lon="12.030577"><ele>262.0</ele><time>2026-03-29T14:45:51.135Z</time></trkpt><trkpt lat="43.1243703" lon="12.0308007"><ele>262.66666666666663</ele><time>2026-03-29T14:45:52.171Z</time></trkpt><trkpt lat="43.124375" lon="12.0310309"><ele>263.3333333333333</ele><time>2026-03-29T14:45:53.156Z</time></trkpt><trkpt lat="43.1243873" lon="12.0312767"><ele>264.0</ele><time>2026-03-29T14:45:54.193Z</time></trkpt><trkpt lat="43.1243963" lon="12.0315056"><ele>264.0</ele><time>2026-03-29T14:45:55.17Z</time></trkpt><trkpt lat="43.1244144" lon="12.0317318"><ele>264.0</ele><time>2026-03-29T14:45:56.178Z</time></trkpt><trkpt lat="43.1244157" lon="12.0319812"><ele>264.0</ele><time>2026-03-29T14:45:57.5Z</time></trkpt><trkpt lat="43.124454" lon="12.0324265"><ele>264.3333333333333</ele><time>2026-03-29T14:45:59.185Z</time></trkpt><trkpt lat="43.1245035" lon="12.0326627"><ele>264.66666666666663</ele><time>2026-03-29T14:46:00.197Z</time></trkpt><trkpt lat="43.1245384" lon="12.0328555"><ele>265.0</ele><time>2026-03-29T14:46:01.188Z</time></trkpt><trkpt lat="43.1245743" lon="12.0330327"><ele>265.0</ele><time>2026-03-29T14:46:02.18Z</time></trkpt><trkpt lat="43.1245952" lon="12.0331912"><ele>265.0</ele><time>2026-03-29T14:46:03.141Z</time></trkpt><trkpt lat="43.1246194" lon="12.033353"><ele>265.0</ele><time>2026-03-29T14:46:04.18Z</time></trkpt><trkpt lat="43.1246405" lon="12.0335013"><ele>265.0</ele><time>2026-03-29T14:46:05.147Z</time></trkpt><trkpt lat="43.1246688" lon="12.033664"><ele>265.0</ele><time>2026-03-29T14:46:06.15Z</time></trkpt><trkpt lat="43.1246964" lon="12.0338351"><ele>265.0</ele><time>2026-03-29T14:46:07.16Z</time></trkpt><trkpt lat="43.1247269" lon="12.0340023"><ele>265.0</ele><time>2026-03-29T14:46:08.167Z</time></trkpt><trkpt lat="43.1247627" lon="12.0341748"><ele>265.0</ele><time>2026-03-29T14:46:09.141Z</time></trkpt><trkpt lat="43.1247913" lon="12.0343361"><ele>265.25</ele><time>2026-03-29T14:46:10.141Z</time></trkpt><trkpt lat="43.124824" lon="12.0345001"><ele>265.5</ele><time>2026-03-29T14:46:11.176Z</time></trkpt><trkpt lat="43.1248532" lon="12.0346492"><ele>265.75</ele><time>2026-03-29T14:46:12.13Z</time></trkpt><trkpt lat="43.1248845" lon="12.0348055"><ele>266.0</ele><time>2026-03-29T14:46:13.129Z</time></trkpt><trkpt lat="43.1249131" lon="12.0349623"><ele>265.40000000000003</ele><time>2026-03-29T14:46:14.149Z</time></trkpt><trkpt lat="43.1249383" lon="12.0351118"><ele>264.8</ele><time>2026-03-29T14:46:15.153Z</time></trkpt><trkpt lat="43.1249577" lon="12.0352552"><ele>264.20000000000005</ele><time>2026-03-29T14:46:16.152Z</time></trkpt><trkpt lat="43.1249822" lon="12.0354036"><ele>263.6</ele><time>2026-03-29T14:46:17.137Z</time></trkpt><trkpt lat="43.1249991" lon="12.0355597"><ele>263.0</ele><time>2026-03-29T14:46:18.138Z</time></trkpt><trkpt lat="43.125026" lon="12.0357177"><ele>263.5</ele><time>2026-03-29T14:46:19.212Z</time></trkpt><trkpt lat="43.1250488" lon="12.0358603"><ele>264.0</ele><time>2026-03-29T14:46:20.142Z</time></trkpt><trkpt lat="43.1250777" lon="12.0360163"><ele>264.5</ele><time>2026-03-29T14:46:21.17Z</time></trkpt><trkpt lat="43.1251031" lon="12.0361629"><ele>265.0</ele><time>2026-03-29T14:46:22.13Z</time></trkpt><trkpt lat="43.1251309" lon="12.0363277"><ele>265.0</ele><time>2026-03-29T14:46:23.142Z</time></trkpt><trkpt lat="43.1251527" lon="12.0364939"><ele>265.0</ele><time>2026-03-29T14:46:24.135Z</time></trkpt><trkpt lat="43.1251754" lon="12.0366498"><ele>265.0</ele><time>2026-03-29T14:46:25.181Z</time></trkpt><trkpt lat="43.1251954" lon="12.0368015"><ele>265.0</ele><time>2026-03-29T14:46:26.14Z</time></trkpt><trkpt lat="43.1252121" lon="12.0369737"><ele>265.0</ele><time>2026-03-29T14:46:27.172Z</time></trkpt><trkpt lat="43.1252297" lon="12.0371355"><ele>265.0</ele><time>2026-03-29T14:46:28.194Z</time></trkpt><trkpt lat="43.1252418" lon="12.037285"><ele>265.0</ele><time>2026-03-29T14:46:29.146Z</time></trkpt><trkpt lat="43.1252608" lon="12.0374386"><ele>265.0</ele><time>2026-03-29T14:46:30.159Z</time></trkpt><trkpt lat="43.1252807" lon="12.0375921"><ele>265.2</ele><time>2026-03-29T14:46:31.192Z</time></trkpt><trkpt lat="43.1252925" lon="12.0377435"><ele>265.4</ele><time>2026-03-29T14:46:32.191Z</time></trkpt><trkpt lat="43.1253033" lon="12.0378925"><ele>265.6</ele><time>2026-03-29T14:46:33.127Z</time></trkpt><trkpt lat="43.1253162" lon="12.0380497"><ele>265.8</ele><time>2026-03-29T14:46:34.145Z</time></trkpt><trkpt lat="43.1253287" lon="12.0382031"><ele>266.0</ele><time>2026-03-29T14:46:35.151Z</time></trkpt><trkpt lat="43.1253385" lon="12.0383515"><ele>266.0</ele><time>2026-03-29T14:46:36.138Z</time></trkpt><trkpt lat="43.1253521" lon="12.0385045"><ele>266.0</ele><time>2026-03-29T14:46:37.154Z</time></trkpt><trkpt lat="43.1253618" lon="12.0386538"><ele>266.0</ele><time>2026-03-29T14:46:38.164Z</time></trkpt><trkpt lat="43.1253771" lon="12.0388009"><ele>266.0</ele><time>2026-03-29T14:46:39.168Z</time></trkpt><trkpt lat="43.1253918" lon="12.0389484"><ele>266.0</ele><time>2026-03-29T14:46:40.164Z</time></trkpt><trkpt lat="43.125404" lon="12.0390875"><ele>265.8</ele><time>2026-03-29T14:46:41.132Z</time></trkpt><trkpt lat="43.1254212" lon="12.0392362"><ele>265.6</ele><time>2026-03-29T14:46:42.169Z</time></trkpt><trkpt lat="43.1254356" lon="12.0393766"><ele>265.4</ele><time>2026-03-29T14:46:43.141Z</time></trkpt><trkpt lat="43.125449" lon="12.0395107"><ele>265.2</ele><time>2026-03-29T14:46:44.123Z</time></trkpt><trkpt lat="43.1254619" lon="12.0396451"><ele>265.0</ele><time>2026-03-29T14:46:45.135Z</time></trkpt><trkpt lat="43.1254777" lon="12.03979"><ele>265.0</ele><time>2026-03-29T14:46:46.183Z</time></trkpt><trkpt lat="43.1254949" lon="12.0399318"><ele>265.0</ele><time>2026-03-29T14:46:47.191Z</time></trkpt><trkpt lat="43.1255075" lon="12.0400836"><ele>265.0</ele><time>2026-03-29T14:46:48.198Z</time></trkpt><trkpt lat="43.1255246" lon="12.0402309"><ele>265.0</ele><time>2026-03-29T14:46:49.182Z</time></trkpt><trkpt lat="43.1255422" lon="12.0403641"><ele>265.0</ele><time>2026-03-29T14:46:50.131Z</time></trkpt><trkpt lat="43.1255573" lon="12.0405132"><ele>265.0</ele><time>2026-03-29T14:46:51.134Z</time></trkpt><trkpt lat="43.1255693" lon="12.0406771"><ele>265.0</ele><time>2026-03-29T14:46:52.135Z</time></trkpt><trkpt lat="43.1255819" lon="12.0408516"><ele>265.0</ele><time>2026-03-29T14:46:53.172Z</time></trkpt><trkpt lat="43.125601" lon="12.0409974"><ele>265.0</ele><time>2026-03-29T14:46:54.165Z</time></trkpt><trkpt lat="43.1256166" lon="12.0411264"><ele>265.0</ele><time>2026-03-29T14:46:55.135Z</time></trkpt><trkpt lat="43.1256351" lon="12.0412614"><ele>265.0</ele><time>2026-03-29T14:46:56.138Z</time></trkpt><trkpt lat="43.1256473" lon="12.0413873"><ele>265.0</ele><time>2026-03-29T14:46:57.144Z</time></trkpt><trkpt lat="43.1256616" lon="12.0414964"><ele>265.0</ele><time>2026-03-29T14:46:58.132Z</time></trkpt><trkpt lat="43.1256756" lon="12.0415864"><ele>265.0</ele><time>2026-03-29T14:46:59.132Z</time></trkpt><trkpt lat="43.125693" lon="12.0416779"><ele>265.0</ele><time>2026-03-29T14:47:00.148Z</time></trkpt><trkpt lat="43.1257236" lon="12.0418195"><ele>265.0</ele><time>2026-03-29T14:47:02.145Z</time></trkpt><trkpt lat="43.125745" lon="12.0419534"><ele>265.0</ele><time>2026-03-29T14:47:04.151Z</time></trkpt><trkpt lat="43.1257425" lon="12.042078"><ele>265.0</ele><time>2026-03-29T14:47:06.154Z</time></trkpt><trkpt lat="43.1256665" lon="12.0421793"><ele>265.0</ele><time>2026-03-29T14:47:08.132Z</time></trkpt><trkpt lat="43.1255968" lon="12.0422047"><ele>265.0</ele><time>2026-03-29T14:47:09.146Z</time></trkpt><trkpt lat="43.1255114" lon="12.0422066"><ele>265.0</ele><time>2026-03-29T14:47:10.134Z</time></trkpt><trkpt lat="43.1254233" lon="12.0422049"><ele>265.0</ele><time>2026-03-29T14:47:11.146Z</time></trkpt><trkpt lat="43.1253259" lon="12.0422072"><ele>265.0</ele><time>2026-03-29T14:47:12.181Z</time></trkpt><trkpt lat="43.1251694" lon="12.0422198"><ele>265.0</ele><time>2026-03-29T14:47:14.127Z</time></trkpt><trkpt lat="43.1250316" lon="12.0422242"><ele>264.66666666666663</ele><time>2026-03-29T14:47:15.14Z</time></trkpt><trkpt lat="43.1248616" lon="12.0422366"><ele>264.3333333333333</ele><time>2026-03-29T14:47:16.144Z</time></trkpt><trkpt lat="43.1246395" lon="12.0422682"><ele>264.0</ele><time>2026-03-29T14:47:18.127Z</time></trkpt><trkpt lat="43.1245431" lon="12.042295"><ele>264.0</ele><time>2026-03-29T14:47:19.116Z</time></trkpt><trkpt lat="43.1244463" lon="12.0423134"><ele>264.0</ele><time>2026-03-29T14:47:20.13Z</time></trkpt><trkpt lat="43.1243554" lon="12.0423467"><ele>264.0</ele><time>2026-03-29T14:47:21.143Z</time></trkpt><trkpt lat="43.124254" lon="12.0423834"><ele>264.0</ele><time>2026-03-29T14:47:22.151Z</time></trkpt><trkpt lat="43.1241813" lon="12.0424385"><ele>264.0</ele><time>2026-03-29T14:47:23.133Z</time></trkpt><trkpt lat="43.1241175" lon="12.0425316"><ele>263.59999999999997</ele><time>2026-03-29T14:47:24.131Z</time></trkpt><trkpt lat="43.1240453" lon="12.0426586"><ele>263.2</ele><time>2026-03-29T14:47:25.142Z</time></trkpt><trkpt lat="43.1239719" lon="12.0427766"><ele>262.79999999999995</ele><time>2026-03-29T14:47:26.132Z</time></trkpt><trkpt lat="43.1239105" lon="12.0428862"><ele>262.4</ele><time>2026-03-29T14:47:27.14Z</time></trkpt><trkpt lat="43.123853" lon="12.0429976"><ele>262.0</ele><time>2026-03-29T14:47:28.143Z</time></trkpt><trkpt lat="43.1237975" lon="12.0430995"><ele>262.0</ele><time>2026-03-29T14:47:29.132Z</time></trkpt><trkpt lat="43.1237548" lon="12.0431942"><ele>262.0</ele><time>2026-03-29T14:47:30.147Z</time></trkpt><trkpt lat="43.1237177" lon="12.0432663"><ele>262.0</ele><time>2026-03-29T14:47:31.143Z</time></trkpt><trkpt lat="43.1236532" lon="12.0433775"><ele>262.0</ele><time>2026-03-29T14:47:33.152Z</time></trkpt><trkpt lat="43.1235257" lon="12.0434132"><ele>262.0</ele><time>2026-03-29T14:47:35.145Z</time></trkpt><trkpt lat="43.1234349" lon="12.0432902"><ele>262.0</ele><time>2026-03-29T14:47:37.176Z</time></trkpt><trkpt lat="43.1233847" lon="12.0431971"><ele>262.0</ele><time>2026-03-29T14:47:38.169Z</time></trkpt><trkpt lat="43.1233301" lon="12.0430949"><ele>262.0</ele><time>2026-03-29T14:47:39.179Z</time></trkpt><trkpt lat="43.1232696" lon="12.0429868"><ele>262.0</ele><time>2026-03-29T14:47:40.165Z</time></trkpt><trkpt lat="43.1232168" lon="12.0428855"><ele>262.0</ele><time>2026-03-29T14:47:41.133Z</time></trkpt><trkpt lat="43.1231432" lon="12.0427219"><ele>261.66666666666663</ele><time>2026-03-29T14:47:42.138Z</time></trkpt><trkpt lat="43.1230485" lon="12.0425156"><ele>261.3333333333333</ele><time>2026-03-29T14:47:43.189Z</time></trkpt><trkpt lat="43.1229564" lon="12.0423271"><ele>261.0</ele><time>2026-03-29T14:47:44.153Z</time></trkpt><trkpt lat="43.1228509" lon="12.0421622"><ele>261.0</ele><time>2026-03-29T14:47:45.147Z</time></trkpt><trkpt lat="43.1227374" lon="12.0419846"><ele>261.0</ele><time>2026-03-29T14:47:46.15Z</time></trkpt><trkpt lat="43.1226366" lon="12.0418243"><ele>261.0</ele><time>2026-03-29T14:47:47.135Z</time></trkpt><trkpt lat="43.1225188" lon="12.0416381"><ele>260.6666666666667</ele><time>2026-03-29T14:47:48.126Z</time></trkpt><trkpt lat="43.1223885" lon="12.0414417"><ele>260.33333333333337</ele><time>2026-03-29T14:47:49.127Z</time></trkpt><trkpt lat="43.1222718" lon="12.0412525"><ele>260.0</ele><time>2026-03-29T14:47:50.134Z</time></trkpt><trkpt lat="43.1221472" lon="12.0410661"><ele>260.0</ele><time>2026-03-29T14:47:51.132Z</time></trkpt><trkpt lat="43.1220122" lon="12.0408734"><ele>260.0</ele><time>2026-03-29T14:47:52.15Z</time></trkpt><trkpt lat="43.1218849" lon="12.0406788"><ele>260.0</ele><time>2026-03-29T14:47:53.134Z</time></trkpt><trkpt lat="43.1217612" lon="12.0404665"><ele>260.0</ele><time>2026-03-29T14:47:54.132Z</time></trkpt><trkpt lat="43.1216381" lon="12.0402594"><ele>260.0</ele><time>2026-03-29T14:47:55.141Z</time></trkpt><trkpt lat="43.1215162" lon="12.0400759"><ele>260.0</ele><time>2026-03-29T14:47:56.15Z</time></trkpt><trkpt lat="43.1213904" lon="12.0398931"><ele>260.0</ele><time>2026-03-29T14:47:57.152Z</time></trkpt><trkpt lat="43.1212762" lon="12.0397333"><ele>260.0</ele><time>2026-03-29T14:47:58.136Z</time></trkpt><trkpt lat="43.1211676" lon="12.0396091"><ele>260.0</ele><time>2026-03-29T14:47:59.151Z</time></trkpt><trkpt lat="43.1210497" lon="12.0395231"><ele>260.0</ele><time>2026-03-29T14:48:00.143Z</time></trkpt><trkpt lat="43.1209236" lon="12.0394789"><ele>260.0</ele><time>2026-03-29T14:48:01.139Z</time></trkpt><trkpt lat="43.1208015" lon="12.0394579"><ele>260.0</ele><time>2026-03-29T14:48:02.131Z</time></trkpt><trkpt lat="43.1206546" lon="12.0394546"><ele>260.0</ele><time>2026-03-29T14:48:03.136Z</time></trkpt><trkpt lat="43.1205096" lon="12.0394667"><ele>260.0</ele><time>2026-03-29T14:48:04.127Z</time></trkpt><trkpt lat="43.1203503" lon="12.0394698"><ele>260.25</ele><time>2026-03-29T14:48:05.147Z</time></trkpt><trkpt lat="43.1202117" lon="12.0394858"><ele>260.5</ele><time>2026-03-29T14:48:06.154Z</time></trkpt><trkpt lat="43.1200602" lon="12.0395158"><ele>260.75</ele><time>2026-03-29T14:48:07.129Z</time></trkpt><trkpt lat="43.1199198" lon="12.039521"><ele>261.0</ele><time>2026-03-29T14:48:08.133Z</time></trkpt><trkpt lat="43.1197938" lon="12.0394866"><ele>261.0</ele><time>2026-03-29T14:48:09.149Z</time></trkpt><trkpt lat="43.119681" lon="12.0394159"><ele>261.0</ele><time>2026-03-29T14:48:10.155Z</time></trkpt><trkpt lat="43.1195955" lon="12.0393854"><ele>261.0</ele><time>2026-03-29T14:48:11.135Z</time></trkpt><trkpt lat="43.1195298" lon="12.0393923"><ele>261.0</ele><time>2026-03-29T14:48:12.172Z</time></trkpt><trkpt lat="43.1194193" lon="12.0394554"><ele>261.0</ele><time>2026-03-29T14:48:14.126Z</time></trkpt><trkpt lat="43.1193364" lon="12.0395255"><ele>261.0</ele><time>2026-03-29T14:48:15.131Z</time></trkpt><trkpt lat="43.1192297" lon="12.0395883"><ele>261.0</ele><time>2026-03-29T14:48:16.139Z</time></trkpt><trkpt lat="43.1190862" lon="12.0396136"><ele>261.0</ele><time>2026-03-29T14:48:17.137Z</time></trkpt><trkpt lat="43.1189098" lon="12.0396375"><ele>261.0</ele><time>2026-03-29T14:48:18.147Z</time></trkpt><trkpt lat="43.1187623" lon="12.0396497"><ele>261.0</ele><time>2026-03-29T14:48:19.147Z</time></trkpt><trkpt lat="43.1186039" lon="12.0397263"><ele>261.0</ele><time>2026-03-29T14:48:20.151Z</time></trkpt><trkpt lat="43.1184342" lon="12.0397879"><ele>261.0</ele><time>2026-03-29T14:48:21.13Z</time></trkpt><trkpt lat="43.1182541" lon="12.0398421"><ele>261.3333333333333</ele><time>2026-03-29T14:48:22.146Z</time></trkpt><trkpt lat="43.1180685" lon="12.039894"><ele>261.66666666666663</ele><time>2026-03-29T14:48:23.139Z</time></trkpt><trkpt lat="43.1178892" lon="12.0399298"><ele>262.0</ele><time>2026-03-29T14:48:24.152Z</time></trkpt><trkpt lat="43.1177197" lon="12.0399416"><ele>262.0</ele><time>2026-03-29T14:48:25.144Z</time></trkpt><trkpt lat="43.1175888" lon="12.0394725"><ele>262.0</ele><time>2026-03-29T14:48:26.138Z</time></trkpt><trkpt lat="43.1174252" lon="12.0394732"><ele>262.0</ele><time>2026-03-29T14:48:27.169Z</time></trkpt><trkpt lat="43.1172689" lon="12.0394811"><ele>262.0</ele><time>2026-03-29T14:48:28.156Z</time></trkpt><trkpt lat="43.1171081" lon="12.0394898"><ele>262.0</ele><time>2026-03-29T14:48:29.145Z</time></trkpt><trkpt lat="43.1169597" lon="12.039486"><ele>262.0</ele><time>2026-03-29T14:48:30.146Z</time></trkpt><trkpt lat="43.1167932" lon="12.039491"><ele>262.0</ele><time>2026-03-29T14:48:31.133Z</time></trkpt><trkpt lat="43.1166251" lon="12.0395008"><ele>262.0</ele><time>2026-03-29T14:48:32.139Z</time></trkpt><trkpt lat="43.1164595" lon="12.0395048"><ele>262.0</ele><time>2026-03-29T14:48:33.124Z</time></trkpt><trkpt lat="43.1162803" lon="12.0395025"><ele>262.0</ele><time>2026-03-29T14:48:34.147Z</time></trkpt><trkpt lat="43.1161163" lon="12.0394887"><ele>262.0</ele><time>2026-03-29T14:48:35.136Z</time></trkpt><trkpt lat="43.1159426" lon="12.0394744"><ele>262.0</ele><time>2026-03-29T14:48:36.14Z</time></trkpt><trkpt lat="43.1157713" lon="12.0394694"><ele>262.0</ele><time>2026-03-29T14:48:37.147Z</time></trkpt><trkpt lat="43.1155973" lon="12.0394741"><ele>262.0</ele><time>2026-03-29T14:48:38.141Z</time></trkpt><trkpt lat="43.1154191" lon="12.039482"><ele>261.66666666666663</ele><time>2026-03-29T14:48:39.139Z</time></trkpt><trkpt lat="43.1152401" lon="12.0394856"><ele>261.3333333333333</ele><time>2026-03-29T14:48:40.145Z</time></trkpt><trkpt lat="43.1150687" lon="12.0394951"><ele>261.0</ele><time>2026-03-29T14:48:41.141Z</time></trkpt><trkpt lat="43.1148928" lon="12.0394987"><ele>261.0</ele><time>2026-03-29T14:48:42.139Z</time></trkpt><trkpt lat="43.1147054" lon="12.0394994"><ele>261.0</ele><time>2026-03-29T14:48:43.16Z</time></trkpt><trkpt lat="43.1145102" lon="12.0395014"><ele>261.0</ele><time>2026-03-29T14:48:44.133Z</time></trkpt><trkpt lat="43.114297" lon="12.0394929"><ele>261.0</ele><time>2026-03-29T14:48:45.151Z</time></trkpt><trkpt lat="43.1140838" lon="12.0394855"><ele>261.0</ele><time>2026-03-29T14:48:46.14Z</time></trkpt><trkpt lat="43.113859" lon="12.0394836"><ele>261.0</ele><time>2026-03-29T14:48:47.14Z</time></trkpt><trkpt lat="43.1136311" lon="12.0394816"><ele>262.0</ele><time>2026-03-29T14:48:48.151Z</time></trkpt><trkpt lat="43.1134068" lon="12.0394814"><ele>263.0</ele><time>2026-03-29T14:48:49.134Z</time></trkpt><trkpt lat="43.1131607" lon="12.0394857"><ele>263.5</ele><time>2026-03-29T14:48:50.14Z</time></trkpt><trkpt lat="43.1129209" lon="12.0394944"><ele>264.0</ele><time>2026-03-29T14:48:51.133Z</time></trkpt><trkpt lat="43.1126605" lon="12.0394913"><ele>264.0</ele><time>2026-03-29T14:48:52.157Z</time></trkpt><trkpt lat="43.112411" lon="12.0394909"><ele>264.0</ele><time>2026-03-29T14:48:53.137Z</time></trkpt><trkpt lat="43.1121652" lon="12.0394898"><ele>265.5</ele><time>2026-03-29T14:48:54.142Z</time></trkpt><trkpt lat="43.1119275" lon="12.0394946"><ele>267.0</ele><time>2026-03-29T14:48:55.135Z</time></trkpt><trkpt lat="43.1117017" lon="12.0395019"><ele>266.6666666666667</ele><time>2026-03-29T14:48:56.135Z</time></trkpt><trkpt lat="43.1114807" lon="12.0395044"><ele>266.33333333333337</ele><time>2026-03-29T14:48:57.133Z</time></trkpt><trkpt lat="43.1112563" lon="12.0395068"><ele>266.0</ele><time>2026-03-29T14:48:58.135Z</time></trkpt><trkpt lat="43.1110406" lon="12.039507"><ele>266.0</ele><time>2026-03-29T14:48:59.138Z</time></trkpt><trkpt lat="43.1108283" lon="12.0395067"><ele>266.0</ele><time>2026-03-29T14:49:00.145Z</time></trkpt><trkpt lat="43.1106212" lon="12.0394994"><ele>266.0</ele><time>2026-03-29T14:49:01.156Z</time></trkpt><trkpt lat="43.1104276" lon="12.0394984"><ele>266.33333333333337</ele><time>2026-03-29T14:49:02.141Z</time></trkpt><trkpt lat="43.1102213" lon="12.0394878"><ele>266.6666666666667</ele><time>2026-03-29T14:49:03.139Z</time></trkpt><trkpt lat="43.1100232" lon="12.0394892"><ele>267.0</ele><time>2026-03-29T14:49:04.142Z</time></trkpt><trkpt lat="43.1098242" lon="12.039493"><ele>267.3333333333333</ele><time>2026-03-29T14:49:05.139Z</time></trkpt><trkpt lat="43.1096331" lon="12.0394938"><ele>267.66666666666663</ele><time>2026-03-29T14:49:06.141Z</time></trkpt><trkpt lat="43.1094533" lon="12.0394939"><ele>268.0</ele><time>2026-03-29T14:49:07.133Z</time></trkpt><trkpt lat="43.1092612" lon="12.0394954"><ele>268.0</ele><time>2026-03-29T14:49:08.154Z</time></trkpt><trkpt lat="43.1090835" lon="12.0394921"><ele>268.0</ele><time>2026-03-29T14:49:09.139Z</time></trkpt><trkpt lat="43.1088932" lon="12.0394948"><ele>268.0</ele><time>2026-03-29T14:49:10.141Z</time></trkpt><trkpt lat="43.1087116" lon="12.0394987"><ele>268.3333333333333</ele><time>2026-03-29T14:49:11.143Z</time></trkpt><trkpt lat="43.1085359" lon="12.0395009"><ele>268.6666666666667</ele><time>2026-03-29T14:49:12.141Z</time></trkpt><trkpt lat="43.1083692" lon="12.0395077"><ele>269.0</ele><time>2026-03-29T14:49:13.147Z</time></trkpt><trkpt lat="43.1082049" lon="12.0395275"><ele>269.0</ele><time>2026-03-29T14:49:14.144Z</time></trkpt><trkpt lat="43.1080459" lon="12.0395698"><ele>269.0</ele><time>2026-03-29T14:49:15.156Z</time></trkpt><trkpt lat="43.1079041" lon="12.0396521"><ele>269.0</ele><time>2026-03-29T14:49:16.136Z</time></trkpt><trkpt lat="43.1077485" lon="12.0397878"><ele>269.0</ele><time>2026-03-29T14:49:17.143Z</time></trkpt><trkpt lat="43.1075894" lon="12.0399283"><ele>269.0</ele><time>2026-03-29T14:49:18.137Z</time></trkpt><trkpt lat="43.107428" lon="12.0400784"><ele>269.0</ele><time>2026-03-29T14:49:19.14Z</time></trkpt><trkpt lat="43.1072662" lon="12.0402201"><ele>269.0</ele><time>2026-03-29T14:49:20.145Z</time></trkpt><trkpt lat="43.107107" lon="12.0403576"><ele>269.0</ele><time>2026-03-29T14:49:21.136Z</time></trkpt><trkpt lat="43.1069573" lon="12.0404747"><ele>269.0</ele><time>2026-03-29T14:49:22.149Z</time></trkpt><trkpt lat="43.1068143" lon="12.0405884"><ele>269.0</ele><time>2026-03-29T14:49:23.128Z</time></trkpt><trkpt lat="43.1066676" lon="12.0407104"><ele>269.0</ele><time>2026-03-29T14:49:24.16Z</time></trkpt><trkpt lat="43.1065174" lon="12.0408219"><ele>269.0</ele><time>2026-03-29T14:49:25.159Z</time></trkpt><trkpt lat="43.1063686" lon="12.0409331"><ele>268.0</ele><time>2026-03-29T14:49:26.151Z</time></trkpt><trkpt lat="43.1062221" lon="12.0410408"><ele>267.0</ele><time>2026-03-29T14:49:27.149Z</time></trkpt><trkpt lat="43.1060832" lon="12.0411512"><ele>266.0</ele><time>2026-03-29T14:49:28.137Z</time></trkpt><trkpt lat="43.1059479" lon="12.0412533"><ele>266.0</ele><time>2026-03-29T14:49:29.13Z</time></trkpt><trkpt lat="43.1058107" lon="12.0413689"><ele>266.0</ele><time>2026-03-29T14:49:30.155Z</time></trkpt><trkpt lat="43.1056858" lon="12.041476"><ele>266.0</ele><time>2026-03-29T14:49:31.134Z</time></trkpt><trkpt lat="43.1055485" lon="12.0415867"><ele>267.0</ele><time>2026-03-29T14:49:32.148Z</time></trkpt><trkpt lat="43.1054098" lon="12.0416962"><ele>268.0</ele><time>2026-03-29T14:49:33.131Z</time></trkpt><trkpt lat="43.10526" lon="12.041813"><ele>269.0</ele><time>2026-03-29T14:49:34.133Z</time></trkpt><trkpt lat="43.1051088" lon="12.0419274"><ele>269.0</ele><time>2026-03-29T14:49:35.138Z</time></trkpt><trkpt lat="43.1049603" lon="12.0420441"><ele>269.0</ele><time>2026-03-29T14:49:36.147Z</time></trkpt><trkpt lat="43.1048167" lon="12.0421583"><ele>269.0</ele><time>2026-03-29T14:49:37.129Z</time></trkpt><trkpt lat="43.1046585" lon="12.0422827"><ele>268.6666666666667</ele><time>2026-03-29T14:49:38.166Z</time></trkpt><trkpt lat="43.1045045" lon="12.0423986"><ele>268.3333333333333</ele><time>2026-03-29T14:49:39.139Z</time></trkpt><trkpt lat="43.1043429" lon="12.0425174"><ele>268.0</ele><time>2026-03-29T14:49:40.134Z</time></trkpt><trkpt lat="43.1041771" lon="12.0426431"><ele>267.3333333333333</ele><time>2026-03-29T14:49:41.152Z</time></trkpt><trkpt lat="43.104012" lon="12.0427705"><ele>266.6666666666667</ele><time>2026-03-29T14:49:42.146Z</time></trkpt><trkpt lat="43.1038492" lon="12.0428996"><ele>266.0</ele><time>2026-03-29T14:49:43.142Z</time></trkpt><trkpt lat="43.1036914" lon="12.0430243"><ele>266.0</ele><time>2026-03-29T14:49:44.143Z</time></trkpt><trkpt lat="43.1035472" lon="12.0431456"><ele>266.0</ele><time>2026-03-29T14:49:45.138Z</time></trkpt><trkpt lat="43.1034027" lon="12.0432638"><ele>266.0</ele><time>2026-03-29T14:49:46.143Z</time></trkpt><trkpt lat="43.1032572" lon="12.0433861"><ele>265.6666666666667</ele><time>2026-03-29T14:49:47.157Z</time></trkpt><trkpt lat="43.1031114" lon="12.0435015"><ele>265.3333333333333</ele><time>2026-03-29T14:49:48.151Z</time></trkpt><trkpt lat="43.1029615" lon="12.0436164"><ele>265.0</ele><time>2026-03-29T14:49:49.134Z</time></trkpt><trkpt lat="43.1028115" lon="12.0437387"><ele>265.0</ele><time>2026-03-29T14:49:50.13Z</time></trkpt><trkpt lat="43.1026509" lon="12.0438629"><ele>265.0</ele><time>2026-03-29T14:49:51.13Z</time></trkpt><trkpt lat="43.1024894" lon="12.0439891"><ele>265.0</ele><time>2026-03-29T14:49:52.133Z</time></trkpt><trkpt lat="43.1023252" lon="12.0441238"><ele>264.0</ele><time>2026-03-29T14:49:53.13Z</time></trkpt><trkpt lat="43.1021492" lon="12.0442528"><ele>263.0</ele><time>2026-03-29T14:49:54.154Z</time></trkpt><trkpt lat="43.1019852" lon="12.0443785"><ele>262.0</ele><time>2026-03-29T14:49:55.134Z</time></trkpt><trkpt lat="43.101828" lon="12.0445048"><ele>262.0</ele><time>2026-03-29T14:49:56.131Z</time></trkpt><trkpt lat="43.1016712" lon="12.0446315"><ele>262.0</ele><time>2026-03-29T14:49:57.16Z</time></trkpt><trkpt lat="43.1015255" lon="12.0447509"><ele>262.0</ele><time>2026-03-29T14:49:58.136Z</time></trkpt><trkpt lat="43.1013769" lon="12.0448769"><ele>263.3333333333333</ele><time>2026-03-29T14:49:59.157Z</time></trkpt><trkpt lat="43.1012342" lon="12.0449881"><ele>264.6666666666667</ele><time>2026-03-29T14:50:00.139Z</time></trkpt><trkpt lat="43.1010864" lon="12.0451002"><ele>266.0</ele><time>2026-03-29T14:50:01.147Z</time></trkpt><trkpt lat="43.1009565" lon="12.0452071"><ele>266.0</ele><time>2026-03-29T14:50:02.134Z</time></trkpt><trkpt lat="43.1008227" lon="12.0453172"><ele>266.0</ele><time>2026-03-29T14:50:03.139Z</time></trkpt><trkpt lat="43.1006916" lon="12.0454329"><ele>266.0</ele><time>2026-03-29T14:50:04.133Z</time></trkpt><trkpt lat="43.100566" lon="12.0455624"><ele>266.0</ele><time>2026-03-29T14:50:05.14Z</time></trkpt><trkpt lat="43.1004479" lon="12.0457081"><ele>266.0</ele><time>2026-03-29T14:50:06.131Z</time></trkpt><trkpt lat="43.1003255" lon="12.0458639"><ele>266.0</ele><time>2026-03-29T14:50:07.144Z</time></trkpt><trkpt lat="43.1002076" lon="12.0460301"><ele>266.33333333333337</ele><time>2026-03-29T14:50:08.145Z</time></trkpt><trkpt lat="43.1000933" lon="12.0461943"><ele>266.6666666666667</ele><time>2026-03-29T14:50:09.14Z</time></trkpt><trkpt lat="43.0999735" lon="12.0463661"><ele>267.0</ele><time>2026-03-29T14:50:10.143Z</time></trkpt><trkpt lat="43.09986" lon="12.0465543"><ele>266.0</ele><time>2026-03-29T14:50:11.148Z</time></trkpt><trkpt lat="43.0997548" lon="12.0467512"><ele>265.0</ele><time>2026-03-29T14:50:12.16Z</time></trkpt><trkpt lat="43.0996518" lon="12.0469549"><ele>264.0</ele><time>2026-03-29T14:50:13.145Z</time></trkpt><trkpt lat="43.0995471" lon="12.0471691"><ele>264.0</ele><time>2026-03-29T14:50:14.139Z</time></trkpt><trkpt lat="43.0994471" lon="12.0473824"><ele>264.0</ele><time>2026-03-29T14:50:15.142Z</time></trkpt><trkpt lat="43.0993483" lon="12.0475948"><ele>264.0</ele><time>2026-03-29T14:50:16.136Z</time></trkpt><trkpt lat="43.0992475" lon="12.0478087"><ele>264.0</ele><time>2026-03-29T14:50:17.156Z</time></trkpt><trkpt lat="43.099141" lon="12.0480321"><ele>264.0</ele><time>2026-03-29T14:50:18.148Z</time></trkpt><trkpt lat="43.099034" lon="12.048256"><ele>264.0</ele><time>2026-03-29T14:50:19.136Z</time></trkpt><trkpt lat="43.0989234" lon="12.0484876"><ele>264.6666666666667</ele><time>2026-03-29T14:50:20.16Z</time></trkpt><trkpt lat="43.0988209" lon="12.048703"><ele>265.33333333333337</ele><time>2026-03-29T14:50:21.128Z</time></trkpt><trkpt lat="43.098713" lon="12.0489213"><ele>266.0</ele><time>2026-03-29T14:50:22.139Z</time></trkpt><trkpt lat="43.0986103" lon="12.0491305"><ele>266.0</ele><time>2026-03-29T14:50:23.146Z</time></trkpt><trkpt lat="43.0985138" lon="12.0493306"><ele>266.0</ele><time>2026-03-29T14:50:24.134Z</time></trkpt><trkpt lat="43.0984138" lon="12.0495347"><ele>266.0</ele><time>2026-03-29T14:50:25.157Z</time></trkpt><trkpt lat="43.0983156" lon="12.0497422"><ele>265.6666666666667</ele><time>2026-03-29T14:50:26.154Z</time></trkpt><trkpt lat="43.0982153" lon="12.0499545"><ele>265.3333333333333</ele><time>2026-03-29T14:50:27.162Z</time></trkpt><trkpt lat="43.0981168" lon="12.0501704"><ele>265.0</ele><time>2026-03-29T14:50:28.155Z</time></trkpt><trkpt lat="43.0980136" lon="12.0503748"><ele>265.0</ele><time>2026-03-29T14:50:29.157Z</time></trkpt><trkpt lat="43.0979242" lon="12.0505778"><ele>265.0</ele><time>2026-03-29T14:50:30.137Z</time></trkpt><trkpt lat="43.097828" lon="12.0507745"><ele>265.0</ele><time>2026-03-29T14:50:31.139Z</time></trkpt><trkpt lat="43.0977244" lon="12.0509755"><ele>264.66666666666663</ele><time>2026-03-29T14:50:32.161Z</time></trkpt><trkpt lat="43.0976289" lon="12.0511742"><ele>264.3333333333333</ele><time>2026-03-29T14:50:33.153Z</time></trkpt><trkpt lat="43.0975355" lon="12.0513684"><ele>264.0</ele><time>2026-03-29T14:50:34.146Z</time></trkpt><trkpt lat="43.0974442" lon="12.0515659"><ele>264.0</ele><time>2026-03-29T14:50:35.14Z</time></trkpt><trkpt lat="43.0973449" lon="12.0517641"><ele>264.0</ele><time>2026-03-29T14:50:36.158Z</time></trkpt><trkpt lat="43.0972507" lon="12.0519617"><ele>264.0</ele><time>2026-03-29T14:50:37.149Z</time></trkpt><trkpt lat="43.0971612" lon="12.0521595"><ele>264.0</ele><time>2026-03-29T14:50:38.161Z</time></trkpt><trkpt lat="43.0970727" lon="12.052343"><ele>264.0</ele><time>2026-03-29T14:50:39.132Z</time></trkpt><trkpt lat="43.0969844" lon="12.0525228"><ele>264.0</ele><time>2026-03-29T14:50:40.137Z</time></trkpt><trkpt lat="43.0969021" lon="12.0526991"><ele>263.75</ele><time>2026-03-29T14:50:41.139Z</time></trkpt><trkpt lat="43.0968237" lon="12.0528663"><ele>263.5</ele><time>2026-03-29T14:50:42.143Z</time></trkpt><trkpt lat="43.0967512" lon="12.0530294"><ele>263.25</ele><time>2026-03-29T14:50:43.13Z</time></trkpt><trkpt lat="43.0966763" lon="12.0531915"><ele>263.0</ele><time>2026-03-29T14:50:44.146Z</time></trkpt><trkpt lat="43.0965882" lon="12.0533496"><ele>262.5</ele><time>2026-03-29T14:50:45.141Z</time></trkpt><trkpt lat="43.0965077" lon="12.0535078"><ele>262.0</ele><time>2026-03-29T14:50:46.135Z</time></trkpt><trkpt lat="43.0964292" lon="12.0536712"><ele>261.5</ele><time>2026-03-29T14:50:47.128Z</time></trkpt><trkpt lat="43.0963435" lon="12.053843"><ele>261.0</ele><time>2026-03-29T14:50:48.137Z</time></trkpt><trkpt lat="43.0962528" lon="12.0540214"><ele>262.0</ele><time>2026-03-29T14:50:49.16Z</time></trkpt><trkpt lat="43.0961497" lon="12.0541985"><ele>263.0</ele><time>2026-03-29T14:50:50.145Z</time></trkpt><trkpt lat="43.0960438" lon="12.0543826"><ele>264.0</ele><time>2026-03-29T14:50:51.158Z</time></trkpt><trkpt lat="43.0959411" lon="12.0545553"><ele>264.0</ele><time>2026-03-29T14:50:52.147Z</time></trkpt><trkpt lat="43.095837" lon="12.0547248"><ele>264.0</ele><time>2026-03-29T14:50:53.134Z</time></trkpt><trkpt lat="43.0957235" lon="12.0548999"><ele>264.0</ele><time>2026-03-29T14:50:54.143Z</time></trkpt><trkpt lat="43.0956075" lon="12.055072"><ele>264.5</ele><time>2026-03-29T14:50:55.151Z</time></trkpt><trkpt lat="43.0954985" lon="12.0552313"><ele>265.0</ele><time>2026-03-29T14:50:56.14Z</time></trkpt><trkpt lat="43.0953941" lon="12.0553823"><ele>265.5</ele><time>2026-03-29T14:50:57.151Z</time></trkpt><trkpt lat="43.0953035" lon="12.0555099"><ele>266.0</ele><time>2026-03-29T14:50:58.143Z</time></trkpt><trkpt lat="43.0952119" lon="12.0556403"><ele>266.0</ele><time>2026-03-29T14:50:59.145Z</time></trkpt><trkpt lat="43.0951249" lon="12.0557586"><ele>266.0</ele><time>2026-03-29T14:51:00.147Z</time></trkpt><trkpt lat="43.0950417" lon="12.0558701"><ele>266.0</ele><time>2026-03-29T14:51:01.136Z</time></trkpt><trkpt lat="43.0949658" lon="12.0559657"><ele>266.0</ele><time>2026-03-29T14:51:02.153Z</time></trkpt><trkpt lat="43.094896" lon="12.0560213"><ele>266.0</ele><time>2026-03-29T14:51:03.137Z</time></trkpt><trkpt lat="43.0948313" lon="12.056049"><ele>265.8</ele><time>2026-03-29T14:51:04.145Z</time></trkpt><trkpt lat="43.094761" lon="12.0560436"><ele>265.6</ele><time>2026-03-29T14:51:05.138Z</time></trkpt><trkpt lat="43.0946658" lon="12.0560196"><ele>265.4</ele><time>2026-03-29T14:51:06.175Z</time></trkpt><trkpt lat="43.094567" lon="12.0559956"><ele>265.2</ele><time>2026-03-29T14:51:07.153Z</time></trkpt><trkpt lat="43.0944746" lon="12.0559917"><ele>265.0</ele><time>2026-03-29T14:51:08.139Z</time></trkpt><trkpt lat="43.0943811" lon="12.0560079"><ele>265.0</ele><time>2026-03-29T14:51:09.154Z</time></trkpt><trkpt lat="43.094307" lon="12.0560513"><ele>265.0</ele><time>2026-03-29T14:51:10.135Z</time></trkpt><trkpt lat="43.0942631" lon="12.0561334"><ele>265.0</ele><time>2026-03-29T14:51:11.139Z</time></trkpt><trkpt lat="43.0942209" lon="12.0562435"><ele>265.0</ele><time>2026-03-29T14:51:12.145Z</time></trkpt><trkpt lat="43.0942208" lon="12.0563722"><ele>265.0</ele><time>2026-03-29T14:51:13.129Z</time></trkpt><trkpt lat="43.0942557" lon="12.0565214"><ele>265.5</ele><time>2026-03-29T14:51:14.149Z</time></trkpt><trkpt lat="43.0942985" lon="12.0566484"><ele>266.0</ele><time>2026-03-29T14:51:15.141Z</time></trkpt><trkpt lat="43.094363" lon="12.0567521"><ele>266.5</ele><time>2026-03-29T14:51:16.142Z</time></trkpt><trkpt lat="43.0944764" lon="12.0568296"><ele>267.0</ele><time>2026-03-29T14:51:17.138Z</time></trkpt><trkpt lat="43.0945875" lon="12.0568961"><ele>267.0</ele><time>2026-03-29T14:51:18.137Z</time></trkpt><trkpt lat="43.0946657" lon="12.0569818"><ele>267.0</ele><time>2026-03-29T14:51:19.151Z</time></trkpt><trkpt lat="43.0947244" lon="12.0570825"><ele>267.0</ele><time>2026-03-29T14:51:20.146Z</time></trkpt><trkpt lat="43.0947536" lon="12.0572256"><ele>267.0</ele><time>2026-03-29T14:51:21.134Z</time></trkpt><trkpt lat="43.0947387" lon="12.0574046"><ele>267.0</ele><time>2026-03-29T14:51:22.142Z</time></trkpt><trkpt lat="43.094676" lon="12.0576092"><ele>267.0</ele><time>2026-03-29T14:51:23.142Z</time></trkpt><trkpt lat="43.0945744" lon="12.0578429"><ele>267.0</ele><time>2026-03-29T14:51:24.146Z</time></trkpt><trkpt lat="43.0944522" lon="12.0580684"><ele>267.0</ele><time>2026-03-29T14:51:25.135Z</time></trkpt><trkpt lat="43.0943253" lon="12.0583092"><ele>266.6666666666667</ele><time>2026-03-29T14:51:26.172Z</time></trkpt><trkpt lat="43.0942182" lon="12.0585111"><ele>266.33333333333337</ele><time>2026-03-29T14:51:27.139Z</time></trkpt><trkpt lat="43.094093" lon="12.0587349"><ele>266.0</ele><time>2026-03-29T14:51:28.138Z</time></trkpt><trkpt lat="43.0939699" lon="12.0589733"><ele>266.0</ele><time>2026-03-29T14:51:29.159Z</time></trkpt><trkpt lat="43.0938469" lon="12.0592202"><ele>266.0</ele><time>2026-03-29T14:51:30.141Z</time></trkpt><trkpt lat="43.0937173" lon="12.0594871"><ele>266.0</ele><time>2026-03-29T14:51:31.145Z</time></trkpt><trkpt lat="43.0935897" lon="12.0597594"><ele>266.0</ele><time>2026-03-29T14:51:32.14Z</time></trkpt><trkpt lat="43.0934579" lon="12.0600409"><ele>266.0</ele><time>2026-03-29T14:51:33.156Z</time></trkpt><trkpt lat="43.0933281" lon="12.0603182"><ele>266.0</ele><time>2026-03-29T14:51:34.128Z</time></trkpt><trkpt lat="43.0931834" lon="12.0606274"><ele>266.5</ele><time>2026-03-29T14:51:35.149Z</time></trkpt><trkpt lat="43.0930425" lon="12.0609163"><ele>267.0</ele><time>2026-03-29T14:51:36.141Z</time></trkpt><trkpt lat="43.0928926" lon="12.0612116"><ele>267.0</ele><time>2026-03-29T14:51:37.16Z</time></trkpt><trkpt lat="43.09274" lon="12.0615182"><ele>267.0</ele><time>2026-03-29T14:51:38.156Z</time></trkpt><trkpt lat="43.0926014" lon="12.061804"><ele>267.0</ele><time>2026-03-29T14:51:39.14Z</time></trkpt><trkpt lat="43.0924595" lon="12.0620984"><ele>267.0</ele><time>2026-03-29T14:51:40.143Z</time></trkpt><trkpt lat="43.0923183" lon="12.0623921"><ele>268.0</ele><time>2026-03-29T14:51:41.153Z</time></trkpt><trkpt lat="43.0921821" lon="12.0626722"><ele>269.0</ele><time>2026-03-29T14:51:42.137Z</time></trkpt><trkpt lat="43.0920536" lon="12.0629536"><ele>269.0</ele><time>2026-03-29T14:51:43.14Z</time></trkpt><trkpt lat="43.0919189" lon="12.063243"><ele>269.0</ele><time>2026-03-29T14:51:44.149Z</time></trkpt><trkpt lat="43.0917892" lon="12.0635222"><ele>269.5</ele><time>2026-03-29T14:51:45.153Z</time></trkpt><trkpt lat="43.091654" lon="12.063804"><ele>270.0</ele><time>2026-03-29T14:51:46.163Z</time></trkpt><trkpt lat="43.0915126" lon="12.0640787"><ele>268.0</ele><time>2026-03-29T14:51:47.139Z</time></trkpt><trkpt lat="43.0913786" lon="12.0643594"><ele>266.0</ele><time>2026-03-29T14:51:48.149Z</time></trkpt><trkpt lat="43.0912418" lon="12.0646506"><ele>266.0</ele><time>2026-03-29T14:51:49.139Z</time></trkpt><trkpt lat="43.091103" lon="12.0649448"><ele>266.0</ele><time>2026-03-29T14:51:50.143Z</time></trkpt><trkpt lat="43.0909566" lon="12.0652448"><ele>265.5</ele><time>2026-03-29T14:51:51.142Z</time></trkpt><trkpt lat="43.0908006" lon="12.0655492"><ele>265.0</ele><time>2026-03-29T14:51:52.143Z</time></trkpt><trkpt lat="43.0906383" lon="12.065872"><ele>265.0</ele><time>2026-03-29T14:51:53.15Z</time></trkpt><trkpt lat="43.0904731" lon="12.0662079"><ele>265.0</ele><time>2026-03-29T14:51:54.165Z</time></trkpt><trkpt lat="43.0903099" lon="12.0665375"><ele>264.5</ele><time>2026-03-29T14:51:55.142Z</time></trkpt><trkpt lat="43.0901328" lon="12.0668848"><ele>264.0</ele><time>2026-03-29T14:51:56.189Z</time></trkpt><trkpt lat="43.0899873" lon="12.0671877"><ele>265.0</ele><time>2026-03-29T14:51:57.145Z</time></trkpt><trkpt lat="43.0898288" lon="12.0675051"><ele>266.0</ele><time>2026-03-29T14:51:58.15Z</time></trkpt><trkpt lat="43.0896829" lon="12.0678107"><ele>266.0</ele><time>2026-03-29T14:51:59.151Z</time></trkpt><trkpt lat="43.0895424" lon="12.0681137"><ele>266.0</ele><time>2026-03-29T14:52:00.166Z</time></trkpt><trkpt lat="43.0894071" lon="12.068396"><ele>267.5</ele><time>2026-03-29T14:52:01.143Z</time></trkpt><trkpt lat="43.0892711" lon="12.0686723"><ele>269.0</ele><time>2026-03-29T14:52:02.14Z</time></trkpt><trkpt lat="43.0891388" lon="12.0689438"><ele>269.0</ele><time>2026-03-29T14:52:03.144Z</time></trkpt><trkpt lat="43.0890157" lon="12.0692084"><ele>269.0</ele><time>2026-03-29T14:52:04.139Z</time></trkpt><trkpt lat="43.088894" lon="12.0694723"><ele>269.0</ele><time>2026-03-29T14:52:05.132Z</time></trkpt><trkpt lat="43.0887624" lon="12.0697394"><ele>269.0</ele><time>2026-03-29T14:52:06.148Z</time></trkpt><trkpt lat="43.0886355" lon="12.069998"><ele>268.0</ele><time>2026-03-29T14:52:07.132Z</time></trkpt><trkpt lat="43.0885022" lon="12.0702615"><ele>267.0</ele><time>2026-03-29T14:52:08.15Z</time></trkpt><trkpt lat="43.0883726" lon="12.0705178"><ele>267.0</ele><time>2026-03-29T14:52:09.149Z</time></trkpt><trkpt lat="43.088244" lon="12.0707794"><ele>267.0</ele><time>2026-03-29T14:52:10.162Z</time></trkpt><trkpt lat="43.0881258" lon="12.0710275"><ele>267.0</ele><time>2026-03-29T14:52:11.146Z</time></trkpt><trkpt lat="43.0880012" lon="12.0712775"><ele>267.0</ele><time>2026-03-29T14:52:12.166Z</time></trkpt><trkpt lat="43.0878869" lon="12.0715109"><ele>267.0</ele><time>2026-03-29T14:52:13.133Z</time></trkpt><trkpt lat="43.0877894" lon="12.0716974"><ele>267.0</ele><time>2026-03-29T14:52:14.138Z</time></trkpt><trkpt lat="43.0876612" lon="12.0719395"><ele>266.3333333333333</ele><time>2026-03-29T14:52:15.141Z</time></trkpt><trkpt lat="43.0875836" lon="12.0721963"><ele>265.66666666666663</ele><time>2026-03-29T14:52:16.148Z</time></trkpt><trkpt lat="43.0874879" lon="12.0724085"><ele>265.0</ele><time>2026-03-29T14:52:17.165Z</time></trkpt><trkpt lat="43.0873771" lon="12.0726335"><ele>264.66666666666663</ele><time>2026-03-29T14:52:18.143Z</time></trkpt><trkpt lat="43.0872556" lon="12.0728611"><ele>264.3333333333333</ele><time>2026-03-29T14:52:19.141Z</time></trkpt><trkpt lat="43.0871278" lon="12.07311"><ele>264.0</ele><time>2026-03-29T14:52:20.143Z</time></trkpt><trkpt lat="43.0870024" lon="12.0733503"><ele>263.6666666666667</ele><time>2026-03-29T14:52:21.148Z</time></trkpt><trkpt lat="43.0868823" lon="12.0735788"><ele>263.33333333333337</ele><time>2026-03-29T14:52:22.152Z</time></trkpt><trkpt lat="43.0867594" lon="12.0738219"><ele>263.0</ele><time>2026-03-29T14:52:23.14Z</time></trkpt><trkpt lat="43.0866307" lon="12.0740804"><ele>262.5</ele><time>2026-03-29T14:52:24.148Z</time></trkpt><trkpt lat="43.086497" lon="12.0743315"><ele>262.0</ele><time>2026-03-29T14:52:25.134Z</time></trkpt><trkpt lat="43.0863633" lon="12.074589"><ele>262.0</ele><time>2026-03-29T14:52:26.158Z</time></trkpt><trkpt lat="43.0862458" lon="12.0748251"><ele>262.0</ele><time>2026-03-29T14:52:27.139Z</time></trkpt><trkpt lat="43.0861262" lon="12.0750646"><ele>262.0</ele><time>2026-03-29T14:52:28.157Z</time></trkpt><trkpt lat="43.086009" lon="12.0752967"><ele>262.0</ele><time>2026-03-29T14:52:29.143Z</time></trkpt><trkpt lat="43.0858879" lon="12.0755318"><ele>262.0</ele><time>2026-03-29T14:52:30.146Z</time></trkpt><trkpt lat="43.0857707" lon="12.0757663"><ele>262.0</ele><time>2026-03-29T14:52:31.154Z</time></trkpt><trkpt lat="43.0856527" lon="12.076006"><ele>262.0</ele><time>2026-03-29T14:52:32.153Z</time></trkpt><trkpt lat="43.0855259" lon="12.0762631"><ele>262.0</ele><time>2026-03-29T14:52:33.157Z</time></trkpt><trkpt lat="43.0854031" lon="12.076512"><ele>262.0</ele><time>2026-03-29T14:52:34.141Z</time></trkpt><trkpt lat="43.085284" lon="12.0767696"><ele>262.0</ele><time>2026-03-29T14:52:35.146Z</time></trkpt><trkpt lat="43.0851649" lon="12.077026"><ele>262.0</ele><time>2026-03-29T14:52:36.149Z</time></trkpt><trkpt lat="43.0850438" lon="12.0772766"><ele>262.0</ele><time>2026-03-29T14:52:37.155Z</time></trkpt><trkpt lat="43.0849254" lon="12.0775298"><ele>262.3333333333333</ele><time>2026-03-29T14:52:38.144Z</time></trkpt><trkpt lat="43.0848152" lon="12.077771"><ele>262.6666666666667</ele><time>2026-03-29T14:52:39.146Z</time></trkpt><trkpt lat="43.0847061" lon="12.0780167"><ele>263.0</ele><time>2026-03-29T14:52:40.143Z</time></trkpt><trkpt lat="43.0846006" lon="12.0782563"><ele>262.33333333333337</ele><time>2026-03-29T14:52:41.144Z</time></trkpt><trkpt lat="43.0844962" lon="12.0784799"><ele>261.6666666666667</ele><time>2026-03-29T14:52:42.149Z</time></trkpt><trkpt lat="43.0843812" lon="12.0787146"><ele>261.0</ele><time>2026-03-29T14:52:43.144Z</time></trkpt><trkpt lat="43.0842625" lon="12.0789538"><ele>261.0</ele><time>2026-03-29T14:52:44.152Z</time></trkpt><trkpt lat="43.0841635" lon="12.0791715"><ele>261.0</ele><time>2026-03-29T14:52:45.142Z</time></trkpt><trkpt lat="43.084047" lon="12.0794339"><ele>261.0</ele><time>2026-03-29T14:52:46.126Z</time></trkpt><trkpt lat="43.0839239" lon="12.0797156"><ele>261.0</ele><time>2026-03-29T14:52:47.164Z</time></trkpt><trkpt lat="43.0838052" lon="12.0799808"><ele>261.0</ele><time>2026-03-29T14:52:48.165Z</time></trkpt><trkpt lat="43.0836925" lon="12.0802261"><ele>261.0</ele><time>2026-03-29T14:52:49.156Z</time></trkpt><trkpt lat="43.0835705" lon="12.0804795"><ele>261.0</ele><time>2026-03-29T14:52:50.151Z</time></trkpt><trkpt lat="43.0834472" lon="12.080741"><ele>261.0</ele><time>2026-03-29T14:52:51.148Z</time></trkpt><trkpt lat="43.0833154" lon="12.0810121"><ele>261.5</ele><time>2026-03-29T14:52:52.139Z</time></trkpt><trkpt lat="43.0831697" lon="12.0812938"><ele>262.0</ele><time>2026-03-29T14:52:53.163Z</time></trkpt><trkpt lat="43.0830368" lon="12.0815568"><ele>263.0</ele><time>2026-03-29T14:52:54.139Z</time></trkpt><trkpt lat="43.0828973" lon="12.0818315"><ele>264.0</ele><time>2026-03-29T14:52:55.167Z</time></trkpt><trkpt lat="43.0827569" lon="12.0820991"><ele>264.0</ele><time>2026-03-29T14:52:56.147Z</time></trkpt><trkpt lat="43.0826086" lon="12.0823861"><ele>264.0</ele><time>2026-03-29T14:52:57.166Z</time></trkpt><trkpt lat="43.0824615" lon="12.082675"><ele>263.0</ele><time>2026-03-29T14:52:58.159Z</time></trkpt><trkpt lat="43.0823208" lon="12.082967"><ele>262.0</ele><time>2026-03-29T14:52:59.139Z</time></trkpt><trkpt lat="43.0821833" lon="12.0832593"><ele>262.5</ele><time>2026-03-29T14:53:00.14Z</time></trkpt><trkpt lat="43.0820379" lon="12.0835606"><ele>263.0</ele><time>2026-03-29T14:53:01.166Z</time></trkpt><trkpt lat="43.0818978" lon="12.0838484"><ele>261.5</ele><time>2026-03-29T14:53:02.14Z</time></trkpt><trkpt lat="43.0817566" lon="12.0841346"><ele>260.0</ele><time>2026-03-29T14:53:03.137Z</time></trkpt><trkpt lat="43.0816151" lon="12.084426"><ele>260.0</ele><time>2026-03-29T14:53:04.156Z</time></trkpt><trkpt lat="43.0814833" lon="12.0847055"><ele>260.0</ele><time>2026-03-29T14:53:05.156Z</time></trkpt><trkpt lat="43.0813529" lon="12.0849742"><ele>260.0</ele><time>2026-03-29T14:53:06.138Z</time></trkpt><trkpt lat="43.0812165" lon="12.0852463"><ele>260.0</ele><time>2026-03-29T14:53:07.156Z</time></trkpt><trkpt lat="43.08109" lon="12.0854995"><ele>260.0</ele><time>2026-03-29T14:53:08.131Z</time></trkpt><trkpt lat="43.0809626" lon="12.0857566"><ele>260.0</ele><time>2026-03-29T14:53:09.146Z</time></trkpt><trkpt lat="43.0808403" lon="12.086001"><ele>260.0</ele><time>2026-03-29T14:53:10.136Z</time></trkpt><trkpt lat="43.080721" lon="12.0862391"><ele>260.0</ele><time>2026-03-29T14:53:11.153Z</time></trkpt><trkpt lat="43.0806029" lon="12.086467"><ele>260.0</ele><time>2026-03-29T14:53:12.141Z</time></trkpt><trkpt lat="43.0804912" lon="12.0866826"><ele>260.0</ele><time>2026-03-29T14:53:13.135Z</time></trkpt><trkpt lat="43.080384" lon="12.0868934"><ele>260.0</ele><time>2026-03-29T14:53:14.139Z</time></trkpt><trkpt lat="43.0802806" lon="12.0870973"><ele>260.0</ele><time>2026-03-29T14:53:15.148Z</time></trkpt><trkpt lat="43.0801902" lon="12.0872899"><ele>260.0</ele><time>2026-03-29T14:53:16.148Z</time></trkpt><trkpt lat="43.0801015" lon="12.0874799"><ele>260.0</ele><time>2026-03-29T14:53:17.148Z</time></trkpt><trkpt lat="43.0800074" lon="12.0876799"><ele>260.0</ele><time>2026-03-29T14:53:18.159Z</time></trkpt><trkpt lat="43.0799139" lon="12.0878814"><ele>260.0</ele><time>2026-03-29T14:53:19.149Z</time></trkpt><trkpt lat="43.0798216" lon="12.0880767"><ele>259.33333333333337</ele><time>2026-03-29T14:53:20.14Z</time></trkpt><trkpt lat="43.0797272" lon="12.0882721"><ele>258.6666666666667</ele><time>2026-03-29T14:53:21.145Z</time></trkpt><trkpt lat="43.0796361" lon="12.0884586"><ele>258.0</ele><time>2026-03-29T14:53:22.148Z</time></trkpt><trkpt lat="43.0795416" lon="12.0886425"><ele>258.0</ele><time>2026-03-29T14:53:23.143Z</time></trkpt><trkpt lat="43.079444" lon="12.0888272"><ele>258.0</ele><time>2026-03-29T14:53:24.163Z</time></trkpt><trkpt lat="43.0793554" lon="12.0890019"><ele>258.0</ele><time>2026-03-29T14:53:25.145Z</time></trkpt><trkpt lat="43.0792782" lon="12.0891859"><ele>258.25</ele><time>2026-03-29T14:53:26.153Z</time></trkpt><trkpt lat="43.0792227" lon="12.0893857"><ele>258.5</ele><time>2026-03-29T14:53:27.155Z</time></trkpt><trkpt lat="43.0792145" lon="12.0895014"><ele>258.75</ele><time>2026-03-29T14:53:28.174Z</time></trkpt><trkpt lat="43.0791755" lon="12.0897259"><ele>259.0</ele><time>2026-03-29T14:53:29.157Z</time></trkpt><trkpt lat="43.0791978" lon="12.0899917"><ele>259.0</ele><time>2026-03-29T14:53:30.155Z</time></trkpt><trkpt lat="43.0791859" lon="12.0902681"><ele>259.0</ele><time>2026-03-29T14:53:31.146Z</time></trkpt><trkpt lat="43.0791672" lon="12.0905378"><ele>259.0</ele><time>2026-03-29T14:53:32.152Z</time></trkpt><trkpt lat="43.0791616" lon="12.090793"><ele>259.0</ele><time>2026-03-29T14:53:33.137Z</time></trkpt><trkpt lat="43.0791716" lon="12.0910716"><ele>259.0</ele><time>2026-03-29T14:53:34.153Z</time></trkpt><trkpt lat="43.0791815" lon="12.0913542"><ele>259.0</ele><time>2026-03-29T14:53:35.145Z</time></trkpt><trkpt lat="43.0791958" lon="12.0916459"><ele>259.0</ele><time>2026-03-29T14:53:36.141Z</time></trkpt><trkpt lat="43.0792082" lon="12.0919427"><ele>259.0</ele><time>2026-03-29T14:53:37.146Z</time></trkpt><trkpt lat="43.0792195" lon="12.0922516"><ele>259.0</ele><time>2026-03-29T14:53:38.151Z</time></trkpt><trkpt lat="43.0792236" lon="12.0925566"><ele>261.0</ele><time>2026-03-29T14:53:39.144Z</time></trkpt><trkpt lat="43.0792297" lon="12.0928661"><ele>263.0</ele><time>2026-03-29T14:53:40.145Z</time></trkpt><trkpt lat="43.0792355" lon="12.0931818"><ele>263.5</ele><time>2026-03-29T14:53:41.156Z</time></trkpt><trkpt lat="43.0792322" lon="12.0934943"><ele>264.0</ele><time>2026-03-29T14:53:42.148Z</time></trkpt><trkpt lat="43.0792324" lon="12.0938193"><ele>262.0</ele><time>2026-03-29T14:53:43.15Z</time></trkpt><trkpt lat="43.0792304" lon="12.0941352"><ele>260.0</ele><time>2026-03-29T14:53:44.151Z</time></trkpt><trkpt lat="43.07923" lon="12.0944405"><ele>260.0</ele><time>2026-03-29T14:53:45.142Z</time></trkpt><trkpt lat="43.079237" lon="12.0947492"><ele>260.0</ele><time>2026-03-29T14:53:46.168Z</time></trkpt><trkpt lat="43.0792411" lon="12.0950384"><ele>260.0</ele><time>2026-03-29T14:53:47.162Z</time></trkpt><trkpt lat="43.0792476" lon="12.0953143"><ele>260.0</ele><time>2026-03-29T14:53:48.136Z</time></trkpt><trkpt lat="43.079248" lon="12.0955986"><ele>260.0</ele><time>2026-03-29T14:53:49.158Z</time></trkpt><trkpt lat="43.0792501" lon="12.0958653"><ele>260.0</ele><time>2026-03-29T14:53:50.145Z</time></trkpt><trkpt lat="43.0792444" lon="12.0961263"><ele>260.0</ele><time>2026-03-29T14:53:51.138Z</time></trkpt><trkpt lat="43.0792371" lon="12.0963976"><ele>260.0</ele><time>2026-03-29T14:53:52.161Z</time></trkpt><trkpt lat="43.0792448" lon="12.0962858"><ele>260.0</ele><time>2026-03-29T14:53:53.144Z</time></trkpt><trkpt lat="43.0792813" lon="12.0963915"><ele>260.0</ele><time>2026-03-29T14:53:55.146Z</time></trkpt><trkpt lat="43.0790783" lon="12.097778"><ele>260.0</ele><time>2026-03-29T14:53:57.153Z</time></trkpt><trkpt lat="43.0790107" lon="12.0980627"><ele>260.0</ele><time>2026-03-29T14:53:58.15Z</time></trkpt><trkpt lat="43.0789386" lon="12.098355"><ele>260.0</ele><time>2026-03-29T14:53:59.155Z</time></trkpt><trkpt lat="43.0788675" lon="12.0986424"><ele>260.33333333333337</ele><time>2026-03-29T14:54:00.16Z</time></trkpt><trkpt lat="43.0788038" lon="12.0989074"><ele>260.6666666666667</ele><time>2026-03-29T14:54:01.142Z</time></trkpt><trkpt lat="43.0787362" lon="12.0991667"><ele>261.0</ele><time>2026-03-29T14:54:02.139Z</time></trkpt><trkpt lat="43.0786728" lon="12.0994109"><ele>260.3333333333333</ele><time>2026-03-29T14:54:03.144Z</time></trkpt><trkpt lat="43.0786107" lon="12.0996509"><ele>259.66666666666663</ele><time>2026-03-29T14:54:04.144Z</time></trkpt><trkpt lat="43.0785596" lon="12.0998835"><ele>259.0</ele><time>2026-03-29T14:54:05.139Z</time></trkpt><trkpt lat="43.0785131" lon="12.1001291"><ele>258.66666666666663</ele><time>2026-03-29T14:54:06.148Z</time></trkpt><trkpt lat="43.0784634" lon="12.1003709"><ele>258.3333333333333</ele><time>2026-03-29T14:54:07.14Z</time></trkpt><trkpt lat="43.0784109" lon="12.1006296"><ele>258.0</ele><time>2026-03-29T14:54:08.142Z</time></trkpt><trkpt lat="43.0783495" lon="12.100895"><ele>258.3333333333333</ele><time>2026-03-29T14:54:09.131Z</time></trkpt><trkpt lat="43.0782907" lon="12.1011699"><ele>258.66666666666663</ele><time>2026-03-29T14:54:10.143Z</time></trkpt><trkpt lat="43.0782355" lon="12.1014505"><ele>259.0</ele><time>2026-03-29T14:54:11.154Z</time></trkpt><trkpt lat="43.0781875" lon="12.1017275"><ele>259.0</ele><time>2026-03-29T14:54:12.158Z</time></trkpt><trkpt lat="43.078142" lon="12.1019994"><ele>259.0</ele><time>2026-03-29T14:54:13.141Z</time></trkpt><trkpt lat="43.0780895" lon="12.1022672"><ele>259.0</ele><time>2026-03-29T14:54:14.151Z</time></trkpt><trkpt lat="43.0780423" lon="12.102526"><ele>259.0</ele><time>2026-03-29T14:54:15.131Z</time></trkpt><trkpt lat="43.0779997" lon="12.1027941"><ele>259.0</ele><time>2026-03-29T14:54:16.155Z</time></trkpt><trkpt lat="43.0779562" lon="12.1030565"><ele>259.0</ele><time>2026-03-29T14:54:17.143Z</time></trkpt><trkpt lat="43.0779124" lon="12.1033059"><ele>258.66666666666663</ele><time>2026-03-29T14:54:18.128Z</time></trkpt><trkpt lat="43.0778736" lon="12.1035688"><ele>258.3333333333333</ele><time>2026-03-29T14:54:19.153Z</time></trkpt><trkpt lat="43.0778335" lon="12.1038138"><ele>258.0</ele><time>2026-03-29T14:54:20.14Z</time></trkpt><trkpt lat="43.0777948" lon="12.1040554"><ele>258.0</ele><time>2026-03-29T14:54:21.152Z</time></trkpt><trkpt lat="43.0777597" lon="12.1042812"><ele>258.0</ele><time>2026-03-29T14:54:22.147Z</time></trkpt><trkpt lat="43.0777229" lon="12.1044944"><ele>258.0</ele><time>2026-03-29T14:54:23.139Z</time></trkpt><trkpt lat="43.0776889" lon="12.1047082"><ele>258.0</ele><time>2026-03-29T14:54:24.143Z</time></trkpt><trkpt lat="43.0776537" lon="12.1049023"><ele>258.0</ele><time>2026-03-29T14:54:25.146Z</time></trkpt><trkpt lat="43.0776144" lon="12.1050903"><ele>258.0</ele><time>2026-03-29T14:54:26.15Z</time></trkpt><trkpt lat="43.0775786" lon="12.1052976"><ele>258.0</ele><time>2026-03-29T14:54:27.176Z</time></trkpt><trkpt lat="43.07754" lon="12.1054833"><ele>258.0</ele><time>2026-03-29T14:54:28.162Z</time></trkpt><trkpt lat="43.0775116" lon="12.1056701"><ele>258.0</ele><time>2026-03-29T14:54:29.152Z</time></trkpt><trkpt lat="43.077485" lon="12.1058465"><ele>258.0</ele><time>2026-03-29T14:54:30.141Z</time></trkpt><trkpt lat="43.0774546" lon="12.1060171"><ele>258.0</ele><time>2026-03-29T14:54:31.144Z</time></trkpt><trkpt lat="43.0774206" lon="12.1061764"><ele>258.25</ele><time>2026-03-29T14:54:32.144Z</time></trkpt><trkpt lat="43.0773215" lon="12.106289"><ele>258.5</ele><time>2026-03-29T14:54:33.144Z</time></trkpt><trkpt lat="43.0772334" lon="12.1064143"><ele>258.75</ele><time>2026-03-29T14:54:34.147Z</time></trkpt><trkpt lat="43.0771271" lon="12.1065302"><ele>259.0</ele><time>2026-03-29T14:54:35.143Z</time></trkpt><trkpt lat="43.0770112" lon="12.1066388"><ele>258.75</ele><time>2026-03-29T14:54:36.155Z</time></trkpt><trkpt lat="43.0768889" lon="12.1067169"><ele>258.5</ele><time>2026-03-29T14:54:37.135Z</time></trkpt><trkpt lat="43.0767675" lon="12.106776"><ele>258.25</ele><time>2026-03-29T14:54:38.145Z</time></trkpt><trkpt lat="43.0766587" lon="12.1068099"><ele>258.0</ele><time>2026-03-29T14:54:39.154Z</time></trkpt><trkpt lat="43.0765736" lon="12.1068388"><ele>258.0</ele><time>2026-03-29T14:54:40.142Z</time></trkpt><trkpt lat="43.0765078" lon="12.1068585"><ele>258.0</ele><time>2026-03-29T14:54:41.139Z</time></trkpt><trkpt lat="43.076431" lon="12.1068636"><ele>258.0</ele><time>2026-03-29T14:54:43.171Z</time></trkpt><trkpt lat="43.0763425" lon="12.1068674"><ele>258.0</ele><time>2026-03-29T14:54:46.153Z</time></trkpt><trkpt lat="43.0762732" lon="12.1068772"><ele>258.0</ele><time>2026-03-29T14:54:48.176Z</time></trkpt><trkpt lat="43.0761977" lon="12.1069633"><ele>258.0</ele><time>2026-03-29T14:54:50.132Z</time></trkpt><trkpt lat="43.0761948" lon="12.1071209"><ele>258.0</ele><time>2026-03-29T14:54:52.142Z</time></trkpt><trkpt lat="43.0762147" lon="12.1072352"><ele>258.0</ele><time>2026-03-29T14:54:53.16Z</time></trkpt><trkpt lat="43.0762326" lon="12.1073663"><ele>258.0</ele><time>2026-03-29T14:54:54.161Z</time></trkpt><trkpt lat="43.0762475" lon="12.1075241"><ele>258.0</ele><time>2026-03-29T14:54:55.143Z</time></trkpt><trkpt lat="43.0762826" lon="12.1076939"><ele>258.0</ele><time>2026-03-29T14:54:56.147Z</time></trkpt><trkpt lat="43.0763235" lon="12.1078997"><ele>258.3333333333333</ele><time>2026-03-29T14:54:57.137Z</time></trkpt><trkpt lat="43.0763658" lon="12.1081183"><ele>258.66666666666663</ele><time>2026-03-29T14:54:58.141Z</time></trkpt><trkpt lat="43.0764039" lon="12.1083661"><ele>259.0</ele><time>2026-03-29T14:54:59.148Z</time></trkpt><trkpt lat="43.076428" lon="12.1086291"><ele>259.0</ele><time>2026-03-29T14:55:00.155Z</time></trkpt><trkpt lat="43.0764361" lon="12.1088989"><ele>259.0</ele><time>2026-03-29T14:55:01.146Z</time></trkpt><trkpt lat="43.0764372" lon="12.1092001"><ele>259.0</ele><time>2026-03-29T14:55:02.153Z</time></trkpt><trkpt lat="43.0764305" lon="12.1094869"><ele>259.0</ele><time>2026-03-29T14:55:03.161Z</time></trkpt><trkpt lat="43.0764188" lon="12.1097564"><ele>259.0</ele><time>2026-03-29T14:55:04.135Z</time></trkpt><trkpt lat="43.0764054" lon="12.1100434"><ele>259.0</ele><time>2026-03-29T14:55:05.159Z</time></trkpt><trkpt lat="43.0763852" lon="12.1103333"><ele>259.3333333333333</ele><time>2026-03-29T14:55:06.158Z</time></trkpt><trkpt lat="43.0763692" lon="12.1106233"><ele>259.6666666666667</ele><time>2026-03-29T14:55:07.165Z</time></trkpt><trkpt lat="43.0763477" lon="12.1109247"><ele>260.0</ele><time>2026-03-29T14:55:08.141Z</time></trkpt><trkpt lat="43.0763288" lon="12.1112041"><ele>260.0</ele><time>2026-03-29T14:55:09.147Z</time></trkpt><trkpt lat="43.0763106" lon="12.1114918"><ele>260.0</ele><time>2026-03-29T14:55:10.135Z</time></trkpt><trkpt lat="43.0762926" lon="12.1117591"><ele>260.0</ele><time>2026-03-29T14:55:11.141Z</time></trkpt><trkpt lat="43.0762722" lon="12.1120417"><ele>260.0</ele><time>2026-03-29T14:55:12.144Z</time></trkpt><trkpt lat="43.0762463" lon="12.1123456"><ele>260.0</ele><time>2026-03-29T14:55:13.145Z</time></trkpt><trkpt lat="43.0762235" lon="12.1126239"><ele>260.0</ele><time>2026-03-29T14:55:14.157Z</time></trkpt><trkpt lat="43.0762057" lon="12.1128454"><ele>260.0</ele><time>2026-03-29T14:55:15.145Z</time></trkpt><trkpt lat="43.0761907" lon="12.113052"><ele>260.0</ele><time>2026-03-29T14:55:16.145Z</time></trkpt><trkpt lat="43.0761825" lon="12.1132214"><ele>260.0</ele><time>2026-03-29T14:55:17.138Z</time></trkpt><trkpt lat="43.0761777" lon="12.1133797"><ele>260.0</ele><time>2026-03-29T14:55:18.15Z</time></trkpt><trkpt lat="43.0761767" lon="12.1135236"><ele>260.0</ele><time>2026-03-29T14:55:19.147Z</time></trkpt><trkpt lat="43.0761747" lon="12.1136652"><ele>260.0</ele><time>2026-03-29T14:55:20.136Z</time></trkpt><trkpt lat="43.0761781" lon="12.1137852"><ele>260.0</ele><time>2026-03-29T14:55:21.143Z</time></trkpt><trkpt lat="43.076182" lon="12.113923"><ele>260.0</ele><time>2026-03-29T14:55:22.157Z</time></trkpt><trkpt lat="43.0761857" lon="12.1140659"><ele>260.0</ele><time>2026-03-29T14:55:23.156Z</time></trkpt><trkpt lat="43.0761923" lon="12.1142053"><ele>260.0</ele><time>2026-03-29T14:55:24.148Z</time></trkpt><trkpt lat="43.0762014" lon="12.1143528"><ele>260.0</ele><time>2026-03-29T14:55:25.15Z</time></trkpt><trkpt lat="43.0762193" lon="12.1145152"><ele>260.0</ele><time>2026-03-29T14:55:26.138Z</time></trkpt><trkpt lat="43.0762312" lon="12.1146941"><ele>260.0</ele><time>2026-03-29T14:55:27.168Z</time></trkpt><trkpt lat="43.0762383" lon="12.1148629"><ele>260.0</ele><time>2026-03-29T14:55:28.148Z</time></trkpt><trkpt lat="43.076244" lon="12.1150271"><ele>260.0</ele><time>2026-03-29T14:55:29.163Z</time></trkpt><trkpt lat="43.0762492" lon="12.1151789"><ele>260.0</ele><time>2026-03-29T14:55:30.156Z</time></trkpt><trkpt lat="43.0762546" lon="12.1153273"><ele>260.0</ele><time>2026-03-29T14:55:31.145Z</time></trkpt><trkpt lat="43.0762599" lon="12.1154619"><ele>260.0</ele><time>2026-03-29T14:55:32.155Z</time></trkpt><trkpt lat="43.0762697" lon="12.1155849"><ele>260.0</ele><time>2026-03-29T14:55:33.156Z</time></trkpt><trkpt lat="43.0762724" lon="12.1157058"><ele>260.0</ele><time>2026-03-29T14:55:34.151Z</time></trkpt><trkpt lat="43.0762808" lon="12.1158247"><ele>260.0</ele><time>2026-03-29T14:55:35.151Z</time></trkpt><trkpt lat="43.0762918" lon="12.1159762"><ele>260.0</ele><time>2026-03-29T14:55:36.152Z</time></trkpt><trkpt lat="43.0763085" lon="12.116138"><ele>260.0</ele><time>2026-03-29T14:55:37.142Z</time></trkpt><trkpt lat="43.076325" lon="12.1163393"><ele>260.0</ele><time>2026-03-29T14:55:38.144Z</time></trkpt><trkpt lat="43.0763478" lon="12.1165564"><ele>260.0</ele><time>2026-03-29T14:55:39.152Z</time></trkpt><trkpt lat="43.076373" lon="12.1168117"><ele>260.0</ele><time>2026-03-29T14:55:40.15Z</time></trkpt><trkpt lat="43.0764008" lon="12.1170846"><ele>259.6666666666667</ele><time>2026-03-29T14:55:41.149Z</time></trkpt><trkpt lat="43.0764286" lon="12.1173792"><ele>259.3333333333333</ele><time>2026-03-29T14:55:42.164Z</time></trkpt><trkpt lat="43.0764554" lon="12.117687"><ele>259.0</ele><time>2026-03-29T14:55:43.151Z</time></trkpt><trkpt lat="43.0764733" lon="12.118011"><ele>259.5</ele><time>2026-03-29T14:55:44.145Z</time></trkpt><trkpt lat="43.0764787" lon="12.1183322"><ele>260.0</ele><time>2026-03-29T14:55:45.154Z</time></trkpt><trkpt lat="43.0764763" lon="12.1186598"><ele>260.0</ele><time>2026-03-29T14:55:46.131Z</time></trkpt><trkpt lat="43.0764655" lon="12.1190022"><ele>260.0</ele><time>2026-03-29T14:55:47.147Z</time></trkpt><trkpt lat="43.0764493" lon="12.1193451"><ele>259.5</ele><time>2026-03-29T14:55:48.158Z</time></trkpt><trkpt lat="43.0764352" lon="12.1196862"><ele>259.0</ele><time>2026-03-29T14:55:49.16Z</time></trkpt><trkpt lat="43.0764203" lon="12.1200148"><ele>259.0</ele><time>2026-03-29T14:55:50.13Z</time></trkpt><trkpt lat="43.0764048" lon="12.1203524"><ele>259.0</ele><time>2026-03-29T14:55:51.148Z</time></trkpt><trkpt lat="43.076393" lon="12.120672"><ele>259.0</ele><time>2026-03-29T14:55:52.145Z</time></trkpt><trkpt lat="43.0763882" lon="12.1209844"><ele>259.0</ele><time>2026-03-29T14:55:53.142Z</time></trkpt><trkpt lat="43.0763875" lon="12.1212872"><ele>259.0</ele><time>2026-03-29T14:55:54.151Z</time></trkpt><trkpt lat="43.0763976" lon="12.1215822"><ele>259.0</ele><time>2026-03-29T14:55:55.146Z</time></trkpt><trkpt lat="43.0764305" lon="12.1218908"><ele>259.0</ele><time>2026-03-29T14:55:56.184Z</time></trkpt><trkpt lat="43.0764756" lon="12.1221764"><ele>259.0</ele><time>2026-03-29T14:55:57.148Z</time></trkpt><trkpt lat="43.0765357" lon="12.1224776"><ele>258.5</ele><time>2026-03-29T14:55:58.153Z</time></trkpt><trkpt lat="43.0766014" lon="12.1227991"><ele>258.0</ele><time>2026-03-29T14:55:59.147Z</time></trkpt><trkpt lat="43.0766734" lon="12.1231324"><ele>258.0</ele><time>2026-03-29T14:56:00.142Z</time></trkpt><trkpt lat="43.0767493" lon="12.1234724"><ele>258.0</ele><time>2026-03-29T14:56:01.132Z</time></trkpt><trkpt lat="43.0768284" lon="12.1238205"><ele>258.5</ele><time>2026-03-29T14:56:02.134Z</time></trkpt><trkpt lat="43.0769085" lon="12.1241776"><ele>259.0</ele><time>2026-03-29T14:56:03.143Z</time></trkpt><trkpt lat="43.0769887" lon="12.1245421"><ele>259.0</ele><time>2026-03-29T14:56:04.149Z</time></trkpt><trkpt lat="43.077072" lon="12.1249016"><ele>259.0</ele><time>2026-03-29T14:56:05.152Z</time></trkpt><trkpt lat="43.0771535" lon="12.1252547"><ele>259.0</ele><time>2026-03-29T14:56:06.14Z</time></trkpt><trkpt lat="43.0772337" lon="12.1256148"><ele>259.0</ele><time>2026-03-29T14:56:07.152Z</time></trkpt><trkpt lat="43.0773039" lon="12.1259698"><ele>259.0</ele><time>2026-03-29T14:56:08.131Z</time></trkpt><trkpt lat="43.0773765" lon="12.1263329"><ele>259.0</ele><time>2026-03-29T14:56:09.147Z</time></trkpt><trkpt lat="43.0774528" lon="12.126689"><ele>258.5</ele><time>2026-03-29T14:56:10.137Z</time></trkpt><trkpt lat="43.0775326" lon="12.1270479"><ele>258.0</ele><time>2026-03-29T14:56:11.135Z</time></trkpt><trkpt lat="43.0776109" lon="12.1274093"><ele>259.0</ele><time>2026-03-29T14:56:12.145Z</time></trkpt><trkpt lat="43.0776889" lon="12.1277632"><ele>260.0</ele><time>2026-03-29T14:56:13.154Z</time></trkpt><trkpt lat="43.0777683" lon="12.1281024"><ele>259.5</ele><time>2026-03-29T14:56:14.145Z</time></trkpt><trkpt lat="43.0778398" lon="12.1284392"><ele>259.0</ele><time>2026-03-29T14:56:15.142Z</time></trkpt><trkpt lat="43.0779142" lon="12.1287852"><ele>259.5</ele><time>2026-03-29T14:56:16.139Z</time></trkpt><trkpt lat="43.0779883" lon="12.1291423"><ele>260.0</ele><time>2026-03-29T14:56:17.157Z</time></trkpt><trkpt lat="43.078069" lon="12.1295075"><ele>260.0</ele><time>2026-03-29T14:56:18.166Z</time></trkpt><trkpt lat="43.0781496" lon="12.1298679"><ele>260.0</ele><time>2026-03-29T14:56:19.163Z</time></trkpt><trkpt lat="43.0782299" lon="12.1302183"><ele>260.0</ele><time>2026-03-29T14:56:20.18Z</time></trkpt><trkpt lat="43.0783051" lon="12.1305537"><ele>260.0</ele><time>2026-03-29T14:56:21.137Z</time></trkpt><trkpt lat="43.0783872" lon="12.1309068"><ele>260.0</ele><time>2026-03-29T14:56:22.161Z</time></trkpt><trkpt lat="43.0784615" lon="12.1312392"><ele>260.0</ele><time>2026-03-29T14:56:23.16Z</time></trkpt><trkpt lat="43.0785312" lon="12.1315754"><ele>260.5</ele><time>2026-03-29T14:56:24.165Z</time></trkpt><trkpt lat="43.0785992" lon="12.1318984"><ele>261.0</ele><time>2026-03-29T14:56:25.148Z</time></trkpt><trkpt lat="43.0786705" lon="12.1322138"><ele>260.5</ele><time>2026-03-29T14:56:26.155Z</time></trkpt><trkpt lat="43.0787398" lon="12.1325094"><ele>260.0</ele><time>2026-03-29T14:56:27.141Z</time></trkpt><trkpt lat="43.0788052" lon="12.1328019"><ele>260.0</ele><time>2026-03-29T14:56:28.139Z</time></trkpt><trkpt lat="43.0788694" lon="12.1330871"><ele>260.0</ele><time>2026-03-29T14:56:29.149Z</time></trkpt><trkpt lat="43.0789325" lon="12.1333547"><ele>260.0</ele><time>2026-03-29T14:56:30.146Z</time></trkpt><trkpt lat="43.0789962" lon="12.13362"><ele>261.0</ele><time>2026-03-29T14:56:31.15Z</time></trkpt><trkpt lat="43.0790604" lon="12.1338512"><ele>262.0</ele><time>2026-03-29T14:56:32.142Z</time></trkpt><trkpt lat="43.0791377" lon="12.1340662"><ele>263.0</ele><time>2026-03-29T14:56:33.148Z</time></trkpt><trkpt lat="43.0792216" lon="12.134261"><ele>263.6666666666667</ele><time>2026-03-29T14:56:34.149Z</time></trkpt><trkpt lat="43.0793544" lon="12.1344654"><ele>264.3333333333333</ele><time>2026-03-29T14:56:35.155Z</time></trkpt><trkpt lat="43.0794936" lon="12.134599"><ele>265.0</ele><time>2026-03-29T14:56:36.172Z</time></trkpt><trkpt lat="43.0795193" lon="12.1344679"><ele>262.0</ele><time>2026-03-29T14:56:40.186Z</time></trkpt><trkpt lat="43.0805095" lon="12.1347548"><ele>262.0</ele><time>2026-03-29T14:56:42.151Z</time></trkpt><trkpt lat="43.0806858" lon="12.1347598"><ele>262.0</ele><time>2026-03-29T14:56:43.148Z</time></trkpt><trkpt lat="43.0808597" lon="12.1347706"><ele>262.0</ele><time>2026-03-29T14:56:44.183Z</time></trkpt><trkpt lat="43.0810328" lon="12.13482"><ele>267.0</ele><time>2026-03-29T14:56:45.18Z</time></trkpt><trkpt lat="43.0811921" lon="12.1349047"><ele>272.0</ele><time>2026-03-29T14:56:46.149Z</time></trkpt><trkpt lat="43.0813418" lon="12.1350071"><ele>277.0</ele><time>2026-03-29T14:56:47.143Z</time></trkpt><trkpt lat="43.0814862" lon="12.1351219"><ele>277.0</ele><time>2026-03-29T14:56:48.146Z</time></trkpt><trkpt lat="43.0815863" lon="12.1352521"><ele>277.0</ele><time>2026-03-29T14:56:49.144Z</time></trkpt><trkpt lat="43.0816806" lon="12.1354128"><ele>277.0</ele><time>2026-03-29T14:56:50.142Z</time></trkpt><trkpt lat="43.0817479" lon="12.135581"><ele>277.0</ele><time>2026-03-29T14:56:51.144Z</time></trkpt><trkpt lat="43.0818045" lon="12.135822"><ele>277.0</ele><time>2026-03-29T14:56:52.205Z</time></trkpt><trkpt lat="43.0818212" lon="12.1360517"><ele>277.0</ele><time>2026-03-29T14:56:53.198Z</time></trkpt><trkpt lat="43.0817885" lon="12.1362891"><ele>277.0</ele><time>2026-03-29T14:56:54.161Z</time></trkpt><trkpt lat="43.0816885" lon="12.136556"><ele>283.0</ele><time>2026-03-29T14:56:55.178Z</time></trkpt><trkpt lat="43.0815697" lon="12.1368201"><ele>289.0</ele><time>2026-03-29T14:56:56.146Z</time></trkpt><trkpt lat="43.0814081" lon="12.1368006"><ele>295.0</ele><time>2026-03-29T14:56:57.153Z</time></trkpt><trkpt lat="43.0812836" lon="12.1369911"><ele>295.0</ele><time>2026-03-29T14:56:58.155Z</time></trkpt><trkpt lat="43.0811417" lon="12.1371955"><ele>295.0</ele><time>2026-03-29T14:56:59.141Z</time></trkpt><trkpt lat="43.080977" lon="12.137461"><ele>303.0</ele><time>2026-03-29T14:57:00.149Z</time></trkpt><trkpt lat="43.0805779" lon="12.13802"><ele>298.6666666666667</ele><time>2026-03-29T14:57:01.143Z</time></trkpt><trkpt lat="43.0804643" lon="12.1382342"><ele>294.33333333333337</ele><time>2026-03-29T14:57:02.159Z</time></trkpt><trkpt lat="43.080362" lon="12.1384397"><ele>290.0</ele><time>2026-03-29T14:57:03.135Z</time></trkpt><trkpt lat="43.0802463" lon="12.1386484"><ele>290.0</ele><time>2026-03-29T14:57:04.146Z</time></trkpt><trkpt lat="43.0801293" lon="12.1388804"><ele>290.0</ele><time>2026-03-29T14:57:05.152Z</time></trkpt><trkpt lat="43.0800408" lon="12.1391288"><ele>290.0</ele><time>2026-03-29T14:57:06.138Z</time></trkpt><trkpt lat="43.0799353" lon="12.1394158"><ele>287.0</ele><time>2026-03-29T14:57:07.18Z</time></trkpt><trkpt lat="43.0798585" lon="12.1397076"><ele>284.0</ele><time>2026-03-29T14:57:08.156Z</time></trkpt><trkpt lat="43.0798102" lon="12.1400212"><ele>284.0</ele><time>2026-03-29T14:57:09.146Z</time></trkpt><trkpt lat="43.0798044" lon="12.1403111"><ele>284.0</ele><time>2026-03-29T14:57:10.135Z</time></trkpt><trkpt lat="43.0798416" lon="12.1404947"><ele>284.0</ele><time>2026-03-29T14:57:11.15Z</time></trkpt><trkpt lat="43.079894" lon="12.1407707"><ele>278.6666666666667</ele><time>2026-03-29T14:57:12.189Z</time></trkpt><trkpt lat="43.0799649" lon="12.1410268"><ele>273.3333333333333</ele><time>2026-03-29T14:57:13.151Z</time></trkpt><trkpt lat="43.0800658" lon="12.1412594"><ele>268.0</ele><time>2026-03-29T14:57:14.161Z</time></trkpt><trkpt lat="43.0801861" lon="12.1414936"><ele>267.0</ele><time>2026-03-29T14:57:15.138Z</time></trkpt><trkpt lat="43.0803382" lon="12.1417055"><ele>266.0</ele><time>2026-03-29T14:57:16.16Z</time></trkpt><trkpt lat="43.080509" lon="12.1419114"><ele>265.0</ele><time>2026-03-29T14:57:17.136Z</time></trkpt><trkpt lat="43.080687" lon="12.142114"><ele>265.0</ele><time>2026-03-29T14:57:18.146Z</time></trkpt><trkpt lat="43.0808373" lon="12.1422962"><ele>265.0</ele><time>2026-03-29T14:57:19.14Z</time></trkpt><trkpt lat="43.0807409" lon="12.1421929"><ele>265.0</ele><time>2026-03-29T14:57:23.166Z</time></trkpt><trkpt lat="43.0813472" lon="12.1435399"><ele>264.0</ele><time>2026-03-29T14:57:24.161Z</time></trkpt><trkpt lat="43.0813979" lon="12.1438481"><ele>263.0</ele><time>2026-03-29T14:57:25.19Z</time></trkpt><trkpt lat="43.0814365" lon="12.1441321"><ele>262.0</ele><time>2026-03-29T14:57:26.145Z</time></trkpt><trkpt lat="43.0814935" lon="12.1444218"><ele>262.0</ele><time>2026-03-29T14:57:27.151Z</time></trkpt><trkpt lat="43.0815479" lon="12.1447228"><ele>262.0</ele><time>2026-03-29T14:57:28.151Z</time></trkpt><trkpt lat="43.0816066" lon="12.1450294"><ele>261.0</ele><time>2026-03-29T14:57:29.139Z</time></trkpt><trkpt lat="43.0816737" lon="12.1453382"><ele>260.0</ele><time>2026-03-29T14:57:30.142Z</time></trkpt><trkpt lat="43.081746" lon="12.1456332"><ele>260.33333333333337</ele><time>2026-03-29T14:57:31.141Z</time></trkpt><trkpt lat="43.0818167" lon="12.1459214"><ele>260.6666666666667</ele><time>2026-03-29T14:57:32.14Z</time></trkpt><trkpt lat="43.0818799" lon="12.1461957"><ele>261.0</ele><time>2026-03-29T14:57:33.148Z</time></trkpt><trkpt lat="43.0819322" lon="12.1464525"><ele>261.6666666666667</ele><time>2026-03-29T14:57:34.148Z</time></trkpt><trkpt lat="43.0819811" lon="12.146697"><ele>262.33333333333337</ele><time>2026-03-29T14:57:35.137Z</time></trkpt><trkpt lat="43.0820232" lon="12.1469384"><ele>263.0</ele><time>2026-03-29T14:57:36.159Z</time></trkpt><trkpt lat="43.0820496" lon="12.1471649"><ele>263.0</ele><time>2026-03-29T14:57:37.156Z</time></trkpt><trkpt lat="43.0820444" lon="12.1473925"><ele>263.0</ele><time>2026-03-29T14:57:38.133Z</time></trkpt><trkpt lat="43.0820405" lon="12.1476222"><ele>263.0</ele><time>2026-03-29T14:57:39.136Z</time></trkpt><trkpt lat="43.0820256" lon="12.1478453"><ele>263.0</ele><time>2026-03-29T14:57:40.138Z</time></trkpt><trkpt lat="43.0820053" lon="12.1480603"><ele>263.0</ele><time>2026-03-29T14:57:41.148Z</time></trkpt><trkpt lat="43.0819847" lon="12.1482587"><ele>263.0</ele><time>2026-03-29T14:57:42.14Z</time></trkpt><trkpt lat="43.0819632" lon="12.1484432"><ele>263.0</ele><time>2026-03-29T14:57:43.14Z</time></trkpt><trkpt lat="43.0819443" lon="12.1486214"><ele>263.5</ele><time>2026-03-29T14:57:44.143Z</time></trkpt><trkpt lat="43.0819335" lon="12.1487837"><ele>264.0</ele><time>2026-03-29T14:57:45.16Z</time></trkpt><trkpt lat="43.0819289" lon="12.1489424"><ele>264.5</ele><time>2026-03-29T14:57:46.147Z</time></trkpt><trkpt lat="43.0819242" lon="12.1490987"><ele>265.0</ele><time>2026-03-29T14:57:47.147Z</time></trkpt><trkpt lat="43.0819126" lon="12.14927"><ele>265.0</ele><time>2026-03-29T14:57:48.149Z</time></trkpt><trkpt lat="43.0819089" lon="12.1494133"><ele>265.0</ele><time>2026-03-29T14:57:49.161Z</time></trkpt><trkpt lat="43.0818973" lon="12.1496054"><ele>265.0</ele><time>2026-03-29T14:57:50.159Z</time></trkpt><trkpt lat="43.0818841" lon="12.1498175"><ele>265.0</ele><time>2026-03-29T14:57:51.154Z</time></trkpt><trkpt lat="43.0818682" lon="12.1500373"><ele>265.0</ele><time>2026-03-29T14:57:52.155Z</time></trkpt><trkpt lat="43.0818575" lon="12.1502603"><ele>265.0</ele><time>2026-03-29T14:57:53.162Z</time></trkpt><trkpt lat="43.0818492" lon="12.1504737"><ele>265.0</ele><time>2026-03-29T14:57:54.142Z</time></trkpt><trkpt lat="43.0818383" lon="12.1506979"><ele>265.3333333333333</ele><time>2026-03-29T14:57:55.156Z</time></trkpt><trkpt lat="43.0818253" lon="12.1509235"><ele>265.6666666666667</ele><time>2026-03-29T14:57:56.16Z</time></trkpt><trkpt lat="43.0818114" lon="12.1511468"><ele>266.0</ele><time>2026-03-29T14:57:57.151Z</time></trkpt><trkpt lat="43.0818006" lon="12.1513684"><ele>265.75</ele><time>2026-03-29T14:57:58.137Z</time></trkpt><trkpt lat="43.081785" lon="12.1515954"><ele>265.5</ele><time>2026-03-29T14:57:59.147Z</time></trkpt><trkpt lat="43.0817842" lon="12.1517406"><ele>265.25</ele><time>2026-03-29T14:58:00.158Z</time></trkpt><trkpt lat="43.0817829" lon="12.1519529"><ele>265.0</ele><time>2026-03-29T14:58:01.17Z</time></trkpt><trkpt lat="43.0817805" lon="12.1521774"><ele>265.66666666666663</ele><time>2026-03-29T14:58:02.165Z</time></trkpt><trkpt lat="43.0817778" lon="12.1524125"><ele>266.3333333333333</ele><time>2026-03-29T14:58:03.135Z</time></trkpt><trkpt lat="43.0817771" lon="12.1526569"><ele>267.0</ele><time>2026-03-29T14:58:04.142Z</time></trkpt><trkpt lat="43.0817843" lon="12.1528958"><ele>267.0</ele><time>2026-03-29T14:58:05.139Z</time></trkpt><trkpt lat="43.0818031" lon="12.153107"><ele>267.0</ele><time>2026-03-29T14:58:06.151Z</time></trkpt><trkpt lat="43.0818251" lon="12.1533058"><ele>267.0</ele><time>2026-03-29T14:58:07.145Z</time></trkpt><trkpt lat="43.0818601" lon="12.1534913"><ele>267.0</ele><time>2026-03-29T14:58:08.161Z</time></trkpt><trkpt lat="43.0818999" lon="12.1536615"><ele>267.2</ele><time>2026-03-29T14:58:09.166Z</time></trkpt><trkpt lat="43.0819373" lon="12.1538143"><ele>267.4</ele><time>2026-03-29T14:58:10.149Z</time></trkpt><trkpt lat="43.0819791" lon="12.1539644"><ele>267.6</ele><time>2026-03-29T14:58:11.161Z</time></trkpt><trkpt lat="43.0820183" lon="12.1540944"><ele>267.8</ele><time>2026-03-29T14:58:12.164Z</time></trkpt><trkpt lat="43.0820519" lon="12.1542084"><ele>268.0</ele><time>2026-03-29T14:58:13.158Z</time></trkpt><trkpt lat="43.0820825" lon="12.1543193"><ele>268.3333333333333</ele><time>2026-03-29T14:58:14.137Z</time></trkpt><trkpt lat="43.0821129" lon="12.1544302"><ele>268.66666666666663</ele><time>2026-03-29T14:58:15.144Z</time></trkpt><trkpt lat="43.0821466" lon="12.1545394"><ele>269.0</ele><time>2026-03-29T14:58:16.141Z</time></trkpt><trkpt lat="43.0821787" lon="12.154646"><ele>269.3333333333333</ele><time>2026-03-29T14:58:17.162Z</time></trkpt><trkpt lat="43.082211" lon="12.1547568"><ele>269.6666666666667</ele><time>2026-03-29T14:58:18.143Z</time></trkpt><trkpt lat="43.0822447" lon="12.1548726"><ele>270.0</ele><time>2026-03-29T14:58:19.148Z</time></trkpt><trkpt lat="43.0822774" lon="12.1549916"><ele>270.0</ele><time>2026-03-29T14:58:20.143Z</time></trkpt><trkpt lat="43.0823141" lon="12.1551237"><ele>270.0</ele><time>2026-03-29T14:58:21.155Z</time></trkpt><trkpt lat="43.0823548" lon="12.1552698"><ele>270.0</ele><time>2026-03-29T14:58:22.16Z</time></trkpt><trkpt lat="43.0823957" lon="12.1554252"><ele>270.0</ele><time>2026-03-29T14:58:23.144Z</time></trkpt><trkpt lat="43.0824365" lon="12.1555954"><ele>269.5</ele><time>2026-03-29T14:58:24.159Z</time></trkpt><trkpt lat="43.0824808" lon="12.1557784"><ele>269.0</ele><time>2026-03-29T14:58:25.147Z</time></trkpt><trkpt lat="43.0825265" lon="12.1559712"><ele>268.5</ele><time>2026-03-29T14:58:26.15Z</time></trkpt><trkpt lat="43.0825845" lon="12.1561596"><ele>268.0</ele><time>2026-03-29T14:58:27.162Z</time></trkpt><trkpt lat="43.0826452" lon="12.1563508"><ele>268.0</ele><time>2026-03-29T14:58:28.167Z</time></trkpt><trkpt lat="43.0827014" lon="12.1565312"><ele>268.0</ele><time>2026-03-29T14:58:29.153Z</time></trkpt><trkpt lat="43.0827583" lon="12.1567088"><ele>268.0</ele><time>2026-03-29T14:58:30.15Z</time></trkpt><trkpt lat="43.0828132" lon="12.1568787"><ele>268.0</ele><time>2026-03-29T14:58:31.171Z</time></trkpt><trkpt lat="43.0828584" lon="12.1570249"><ele>268.25</ele><time>2026-03-29T14:58:32.151Z</time></trkpt><trkpt lat="43.0829106" lon="12.157177"><ele>268.5</ele><time>2026-03-29T14:58:33.172Z</time></trkpt><trkpt lat="43.0829596" lon="12.1573229"><ele>268.75</ele><time>2026-03-29T14:58:34.157Z</time></trkpt><trkpt lat="43.0830064" lon="12.1574718"><ele>269.0</ele><time>2026-03-29T14:58:35.141Z</time></trkpt><trkpt lat="43.0830623" lon="12.1576416"><ele>269.5</ele><time>2026-03-29T14:58:36.156Z</time></trkpt><trkpt lat="43.0831181" lon="12.1578059"><ele>270.0</ele><time>2026-03-29T14:58:37.157Z</time></trkpt><trkpt lat="43.0831757" lon="12.1579843"><ele>270.5</ele><time>2026-03-29T14:58:38.167Z</time></trkpt><trkpt lat="43.0832277" lon="12.1581521"><ele>271.0</ele><time>2026-03-29T14:58:39.149Z</time></trkpt><trkpt lat="43.0832773" lon="12.1583125"><ele>271.0</ele><time>2026-03-29T14:58:40.155Z</time></trkpt><trkpt lat="43.0833425" lon="12.1584691"><ele>271.0</ele><time>2026-03-29T14:58:41.159Z</time></trkpt><trkpt lat="43.0834247" lon="12.1586283"><ele>271.0</ele><time>2026-03-29T14:58:42.148Z</time></trkpt><trkpt lat="43.0835181" lon="12.1587994"><ele>271.0</ele><time>2026-03-29T14:58:43.148Z</time></trkpt><trkpt lat="43.0836202" lon="12.158938"><ele>271.5</ele><time>2026-03-29T14:58:44.14Z</time></trkpt><trkpt lat="43.0837211" lon="12.1590791"><ele>272.0</ele><time>2026-03-29T14:58:45.151Z</time></trkpt><trkpt lat="43.0838223" lon="12.159212"><ele>272.5</ele><time>2026-03-29T14:58:46.159Z</time></trkpt><trkpt lat="43.083915" lon="12.1593243"><ele>273.0</ele><time>2026-03-29T14:58:47.143Z</time></trkpt><trkpt lat="43.0840104" lon="12.1594279"><ele>273.0</ele><time>2026-03-29T14:58:48.164Z</time></trkpt><trkpt lat="43.0840892" lon="12.159514"><ele>273.0</ele><time>2026-03-29T14:58:49.144Z</time></trkpt><trkpt lat="43.0841808" lon="12.1596049"><ele>273.0</ele><time>2026-03-29T14:58:50.165Z</time></trkpt><trkpt lat="43.0842641" lon="12.159702"><ele>273.0</ele><time>2026-03-29T14:58:51.151Z</time></trkpt><trkpt lat="43.0843497" lon="12.1598063"><ele>273.0</ele><time>2026-03-29T14:58:52.153Z</time></trkpt><trkpt lat="43.0844374" lon="12.1599051"><ele>273.25</ele><time>2026-03-29T14:58:53.144Z</time></trkpt><trkpt lat="43.0845175" lon="12.1600051"><ele>273.5</ele><time>2026-03-29T14:58:54.149Z</time></trkpt><trkpt lat="43.0846102" lon="12.1601086"><ele>273.75</ele><time>2026-03-29T14:58:55.143Z</time></trkpt><trkpt lat="43.0847008" lon="12.160212"><ele>274.0</ele><time>2026-03-29T14:58:56.155Z</time></trkpt><trkpt lat="43.0847905" lon="12.1602941"><ele>274.0</ele><time>2026-03-29T14:58:57.153Z</time></trkpt><trkpt lat="43.0848892" lon="12.1603636"><ele>274.0</ele><time>2026-03-29T14:58:58.142Z</time></trkpt><trkpt lat="43.0850002" lon="12.1604116"><ele>274.0</ele><time>2026-03-29T14:58:59.153Z</time></trkpt><trkpt lat="43.0851154" lon="12.1604342"><ele>274.0</ele><time>2026-03-29T14:59:00.147Z</time></trkpt><trkpt lat="43.0852415" lon="12.1604288"><ele>272.75</ele><time>2026-03-29T14:59:01.156Z</time></trkpt><trkpt lat="43.0853659" lon="12.1604043"><ele>271.5</ele><time>2026-03-29T14:59:02.161Z</time></trkpt><trkpt lat="43.0854956" lon="12.1603683"><ele>270.25</ele><time>2026-03-29T14:59:03.152Z</time></trkpt><trkpt lat="43.0856341" lon="12.1603298"><ele>269.0</ele><time>2026-03-29T14:59:04.153Z</time></trkpt><trkpt lat="43.0857645" lon="12.1602893"><ele>268.75</ele><time>2026-03-29T14:59:05.147Z</time></trkpt><trkpt lat="43.0858896" lon="12.1602457"><ele>268.5</ele><time>2026-03-29T14:59:06.165Z</time></trkpt><trkpt lat="43.0860204" lon="12.1602057"><ele>268.25</ele><time>2026-03-29T14:59:07.143Z</time></trkpt><trkpt lat="43.0861369" lon="12.1601606"><ele>268.0</ele><time>2026-03-29T14:59:08.144Z</time></trkpt><trkpt lat="43.0862728" lon="12.160121"><ele>268.0</ele><time>2026-03-29T14:59:09.148Z</time></trkpt><trkpt lat="43.0864094" lon="12.1601005"><ele>268.0</ele><time>2026-03-29T14:59:10.159Z</time></trkpt><trkpt lat="43.0865528" lon="12.1601225"><ele>268.0</ele><time>2026-03-29T14:59:11.156Z</time></trkpt><trkpt lat="43.0866939" lon="12.1601848"><ele>268.0</ele><time>2026-03-29T14:59:12.172Z</time></trkpt><trkpt lat="43.0868366" lon="12.1602841"><ele>267.3333333333333</ele><time>2026-03-29T14:59:13.15Z</time></trkpt><trkpt lat="43.0869756" lon="12.1603978"><ele>266.6666666666667</ele><time>2026-03-29T14:59:14.156Z</time></trkpt><trkpt lat="43.0871121" lon="12.1605131"><ele>266.0</ele><time>2026-03-29T14:59:15.182Z</time></trkpt><trkpt lat="43.0872413" lon="12.1606375"><ele>266.33333333333337</ele><time>2026-03-29T14:59:16.16Z</time></trkpt><trkpt lat="43.0873774" lon="12.1607646"><ele>266.6666666666667</ele><time>2026-03-29T14:59:17.215Z</time></trkpt><trkpt lat="43.0874998" lon="12.160891"><ele>267.0</ele><time>2026-03-29T14:59:18.178Z</time></trkpt><trkpt lat="43.0876298" lon="12.1610327"><ele>267.0</ele><time>2026-03-29T14:59:19.193Z</time></trkpt><trkpt lat="43.0877704" lon="12.1611712"><ele>267.0</ele><time>2026-03-29T14:59:20.197Z</time></trkpt><trkpt lat="43.0879103" lon="12.1613002"><ele>267.0</ele><time>2026-03-29T14:59:21.144Z</time></trkpt><trkpt lat="43.0880571" lon="12.16144"><ele>268.3333333333333</ele><time>2026-03-29T14:59:22.141Z</time></trkpt><trkpt lat="43.0881946" lon="12.1615782"><ele>269.66666666666663</ele><time>2026-03-29T14:59:23.149Z</time></trkpt><trkpt lat="43.0883312" lon="12.16172"><ele>271.0</ele><time>2026-03-29T14:59:24.146Z</time></trkpt><trkpt lat="43.0884746" lon="12.1618583"><ele>271.0</ele><time>2026-03-29T14:59:25.198Z</time></trkpt><trkpt lat="43.0885974" lon="12.1619753"><ele>271.0</ele><time>2026-03-29T14:59:26.152Z</time></trkpt><trkpt lat="43.0887233" lon="12.1620964"><ele>271.0</ele><time>2026-03-29T14:59:27.14Z</time></trkpt><trkpt lat="43.0888505" lon="12.1622203"><ele>271.0</ele><time>2026-03-29T14:59:28.152Z</time></trkpt><trkpt lat="43.0889779" lon="12.1623479"><ele>271.0</ele><time>2026-03-29T14:59:29.148Z</time></trkpt><trkpt lat="43.0891025" lon="12.1624787"><ele>271.0</ele><time>2026-03-29T14:59:30.147Z</time></trkpt><trkpt lat="43.0892246" lon="12.1626128"><ele>270.0</ele><time>2026-03-29T14:59:31.16Z</time></trkpt><trkpt lat="43.0893511" lon="12.1627453"><ele>269.0</ele><time>2026-03-29T14:59:32.147Z</time></trkpt><trkpt lat="43.0894865" lon="12.162884"><ele>268.0</ele><time>2026-03-29T14:59:33.214Z</time></trkpt><trkpt lat="43.0896007" lon="12.1629892"><ele>268.0</ele><time>2026-03-29T14:59:34.191Z</time></trkpt><trkpt lat="43.0897189" lon="12.1630975"><ele>268.0</ele><time>2026-03-29T14:59:35.151Z</time></trkpt><trkpt lat="43.0898379" lon="12.1632136"><ele>268.0</ele><time>2026-03-29T14:59:36.147Z</time></trkpt><trkpt lat="43.0899642" lon="12.1633392"><ele>268.0</ele><time>2026-03-29T14:59:37.15Z</time></trkpt><trkpt lat="43.0900714" lon="12.1634612"><ele>268.25</ele><time>2026-03-29T14:59:38.168Z</time></trkpt><trkpt lat="43.0901588" lon="12.1636052"><ele>268.5</ele><time>2026-03-29T14:59:39.148Z</time></trkpt><trkpt lat="43.0902327" lon="12.1637764"><ele>268.75</ele><time>2026-03-29T14:59:40.159Z</time></trkpt><trkpt lat="43.0902973" lon="12.1639498"><ele>269.0</ele><time>2026-03-29T14:59:41.147Z</time></trkpt><trkpt lat="43.0903458" lon="12.1640993"><ele>274.0</ele><time>2026-03-29T14:59:42.145Z</time></trkpt><trkpt lat="43.0904185" lon="12.164292"><ele>279.0</ele><time>2026-03-29T14:59:43.144Z</time></trkpt><trkpt lat="43.0904935" lon="12.1645193"><ele>284.0</ele><time>2026-03-29T14:59:44.206Z</time></trkpt><trkpt lat="43.0905579" lon="12.1647162"><ele>286.33333333333337</ele><time>2026-03-29T14:59:45.15Z</time></trkpt><trkpt lat="43.090629" lon="12.1649235"><ele>288.6666666666667</ele><time>2026-03-29T14:59:46.188Z</time></trkpt><trkpt lat="43.0906979" lon="12.1651152"><ele>291.0</ele><time>2026-03-29T14:59:47.147Z</time></trkpt><trkpt lat="43.0907615" lon="12.1653127"><ele>284.0</ele><time>2026-03-29T14:59:48.161Z</time></trkpt><trkpt lat="43.0908079" lon="12.1655109"><ele>277.0</ele><time>2026-03-29T14:59:49.154Z</time></trkpt><trkpt lat="43.090835" lon="12.1657217"><ele>270.0</ele><time>2026-03-29T14:59:50.146Z</time></trkpt><trkpt lat="43.0908327" lon="12.1659014"><ele>263.0</ele><time>2026-03-29T14:59:51.151Z</time></trkpt><trkpt lat="43.0908226" lon="12.1661183"><ele>263.0</ele><time>2026-03-29T14:59:52.151Z</time></trkpt><trkpt lat="43.0907965" lon="12.1663486"><ele>263.0</ele><time>2026-03-29T14:59:53.181Z</time></trkpt><trkpt lat="43.0907938" lon="12.1665138"><ele>263.0</ele><time>2026-03-29T14:59:54.145Z</time></trkpt><trkpt lat="43.0907834" lon="12.1667296"><ele>263.0</ele><time>2026-03-29T14:59:55.197Z</time></trkpt><trkpt lat="43.0907712" lon="12.1669309"><ele>266.6666666666667</ele><time>2026-03-29T14:59:56.149Z</time></trkpt><trkpt lat="43.0907511" lon="12.1671469"><ele>270.3333333333333</ele><time>2026-03-29T14:59:57.149Z</time></trkpt><trkpt lat="43.0907368" lon="12.1673639"><ele>274.0</ele><time>2026-03-29T14:59:58.155Z</time></trkpt><trkpt lat="43.0907198" lon="12.167565"><ele>274.0</ele><time>2026-03-29T14:59:59.148Z</time></trkpt><trkpt lat="43.0906904" lon="12.1677619"><ele>274.0</ele><time>2026-03-29T15:00:00.142Z</time></trkpt><trkpt lat="43.0906538" lon="12.1679675"><ele>274.0</ele><time>2026-03-29T15:00:01.158Z</time></trkpt><trkpt lat="43.0906149" lon="12.168165"><ele>275.0</ele><time>2026-03-29T15:00:02.157Z</time></trkpt><trkpt lat="43.0905783" lon="12.1683585"><ele>276.0</ele><time>2026-03-29T15:00:03.148Z</time></trkpt><trkpt lat="43.0905266" lon="12.1685509"><ele>277.0</ele><time>2026-03-29T15:00:04.142Z</time></trkpt><trkpt lat="43.0904608" lon="12.1687309"><ele>278.0</ele><time>2026-03-29T15:00:05.162Z</time></trkpt><trkpt lat="43.0903725" lon="12.1689124"><ele>275.0</ele><time>2026-03-29T15:00:06.149Z</time></trkpt><trkpt lat="43.0902602" lon="12.169104"><ele>272.0</ele><time>2026-03-29T15:00:07.157Z</time></trkpt><trkpt lat="43.0901507" lon="12.169287"><ele>269.0</ele><time>2026-03-29T15:00:08.145Z</time></trkpt><trkpt lat="43.0900356" lon="12.1694799"><ele>269.0</ele><time>2026-03-29T15:00:09.167Z</time></trkpt><trkpt lat="43.0899308" lon="12.1696613"><ele>269.0</ele><time>2026-03-29T15:00:10.151Z</time></trkpt><trkpt lat="43.0898223" lon="12.1698182"><ele>269.0</ele><time>2026-03-29T15:00:11.16Z</time></trkpt><trkpt lat="43.0897278" lon="12.1699493"><ele>269.5</ele><time>2026-03-29T15:00:12.142Z</time></trkpt><trkpt lat="43.0896337" lon="12.1700953"><ele>270.0</ele><time>2026-03-29T15:00:13.149Z</time></trkpt><trkpt lat="43.0895452" lon="12.1702388"><ele>270.5</ele><time>2026-03-29T15:00:14.154Z</time></trkpt><trkpt lat="43.089459" lon="12.1703849"><ele>271.0</ele><time>2026-03-29T15:00:15.147Z</time></trkpt><trkpt lat="43.0893678" lon="12.1705343"><ele>271.0</ele><time>2026-03-29T15:00:16.153Z</time></trkpt><trkpt lat="43.0892833" lon="12.1706856"><ele>271.0</ele><time>2026-03-29T15:00:17.16Z</time></trkpt><trkpt lat="43.0892003" lon="12.1708286"><ele>271.0</ele><time>2026-03-29T15:00:18.147Z</time></trkpt><trkpt lat="43.0891208" lon="12.1709772"><ele>271.0</ele><time>2026-03-29T15:00:19.152Z</time></trkpt><trkpt lat="43.0890388" lon="12.17113"><ele>271.0</ele><time>2026-03-29T15:00:20.166Z</time></trkpt><trkpt lat="43.0889595" lon="12.1712711"><ele>271.0</ele><time>2026-03-29T15:00:21.157Z</time></trkpt><trkpt lat="43.0888882" lon="12.1714072"><ele>271.0</ele><time>2026-03-29T15:00:22.181Z</time></trkpt><trkpt lat="43.0888054" lon="12.1715548"><ele>271.0</ele><time>2026-03-29T15:00:23.15Z</time></trkpt><trkpt lat="43.088723" lon="12.1717062"><ele>271.0</ele><time>2026-03-29T15:00:24.142Z</time></trkpt><trkpt lat="43.0886502" lon="12.1718554"><ele>271.0</ele><time>2026-03-29T15:00:25.171Z</time></trkpt><trkpt lat="43.0885779" lon="12.171994"><ele>271.0</ele><time>2026-03-29T15:00:26.158Z</time></trkpt><trkpt lat="43.0885026" lon="12.1721291"><ele>271.0</ele><time>2026-03-29T15:00:27.164Z</time></trkpt><trkpt lat="43.0884378" lon="12.1722627"><ele>272.2</ele><time>2026-03-29T15:00:28.152Z</time></trkpt><trkpt lat="43.0883801" lon="12.1723995"><ele>273.40000000000003</ele><time>2026-03-29T15:00:29.152Z</time></trkpt><trkpt lat="43.088329" lon="12.1725423"><ele>274.6</ele><time>2026-03-29T15:00:30.138Z</time></trkpt><trkpt lat="43.0882902" lon="12.1726787"><ele>275.8</ele><time>2026-03-29T15:00:31.142Z</time></trkpt><trkpt lat="43.0882598" lon="12.1728154"><ele>277.0</ele><time>2026-03-29T15:00:32.144Z</time></trkpt><trkpt lat="43.0882341" lon="12.1729489"><ele>277.0</ele><time>2026-03-29T15:00:33.164Z</time></trkpt><trkpt lat="43.0882166" lon="12.1730823"><ele>277.0</ele><time>2026-03-29T15:00:34.148Z</time></trkpt><trkpt lat="43.0882064" lon="12.1732048"><ele>277.0</ele><time>2026-03-29T15:00:35.156Z</time></trkpt><trkpt lat="43.0881961" lon="12.1733273"><ele>277.0</ele><time>2026-03-29T15:00:36.147Z</time></trkpt><trkpt lat="43.0881862" lon="12.1734501"><ele>277.0</ele><time>2026-03-29T15:00:37.16Z</time></trkpt><trkpt lat="43.0881758" lon="12.1735793"><ele>275.4</ele><time>2026-03-29T15:00:38.159Z</time></trkpt><trkpt lat="43.088167" lon="12.173705"><ele>273.79999999999995</ele><time>2026-03-29T15:00:39.155Z</time></trkpt><trkpt lat="43.0881567" lon="12.1738482"><ele>272.2</ele><time>2026-03-29T15:00:40.158Z</time></trkpt><trkpt lat="43.0881414" lon="12.1740034"><ele>270.59999999999997</ele><time>2026-03-29T15:00:41.167Z</time></trkpt><trkpt lat="43.0881289" lon="12.1741534"><ele>269.0</ele><time>2026-03-29T15:00:42.173Z</time></trkpt><trkpt lat="43.088117" lon="12.174319"><ele>268.5</ele><time>2026-03-29T15:00:43.157Z</time></trkpt><trkpt lat="43.0881053" lon="12.1744922"><ele>268.0</ele><time>2026-03-29T15:00:44.145Z</time></trkpt><trkpt lat="43.088105" lon="12.1746535"><ele>267.5</ele><time>2026-03-29T15:00:45.148Z</time></trkpt><trkpt lat="43.0880961" lon="12.1748533"><ele>267.0</ele><time>2026-03-29T15:00:46.157Z</time></trkpt><trkpt lat="43.0880881" lon="12.1750619"><ele>267.0</ele><time>2026-03-29T15:00:47.171Z</time></trkpt><trkpt lat="43.0880754" lon="12.1752644"><ele>267.0</ele><time>2026-03-29T15:00:48.171Z</time></trkpt><trkpt lat="43.0880713" lon="12.1754692"><ele>267.0</ele><time>2026-03-29T15:00:49.157Z</time></trkpt><trkpt lat="43.0880724" lon="12.1756875"><ele>267.3333333333333</ele><time>2026-03-29T15:00:50.27Z</time></trkpt><trkpt lat="43.0880577" lon="12.1760599"><ele>267.66666666666663</ele><time>2026-03-29T15:00:52.169Z</time></trkpt><trkpt lat="43.0880487" lon="12.1762678"><ele>268.0</ele><time>2026-03-29T15:00:53.155Z</time></trkpt><trkpt lat="43.0880413" lon="12.176456"><ele>267.75</ele><time>2026-03-29T15:00:54.155Z</time></trkpt><trkpt lat="43.0880303" lon="12.1766447"><ele>267.5</ele><time>2026-03-29T15:00:55.152Z</time></trkpt><trkpt lat="43.0880249" lon="12.1768409"><ele>267.25</ele><time>2026-03-29T15:00:56.148Z</time></trkpt><trkpt lat="43.0880129" lon="12.1770532"><ele>267.0</ele><time>2026-03-29T15:00:57.15Z</time></trkpt><trkpt lat="43.0879989" lon="12.1772811"><ele>267.3333333333333</ele><time>2026-03-29T15:00:58.147Z</time></trkpt><trkpt lat="43.0879797" lon="12.1775213"><ele>267.66666666666663</ele><time>2026-03-29T15:00:59.172Z</time></trkpt><trkpt lat="43.0879603" lon="12.1777389"><ele>268.0</ele><time>2026-03-29T15:01:00.147Z</time></trkpt><trkpt lat="43.0879402" lon="12.1779555"><ele>268.0</ele><time>2026-03-29T15:01:01.15Z</time></trkpt><trkpt lat="43.0879098" lon="12.1781715"><ele>268.0</ele><time>2026-03-29T15:01:02.161Z</time></trkpt><trkpt lat="43.0878806" lon="12.1783786"><ele>268.0</ele><time>2026-03-29T15:01:03.163Z</time></trkpt><trkpt lat="43.0878567" lon="12.1785701"><ele>268.0</ele><time>2026-03-29T15:01:04.174Z</time></trkpt><trkpt lat="43.087834" lon="12.1787567"><ele>268.0</ele><time>2026-03-29T15:01:05.157Z</time></trkpt><trkpt lat="43.0878085" lon="12.1789537"><ele>268.0</ele><time>2026-03-29T15:01:06.147Z</time></trkpt><trkpt lat="43.0877816" lon="12.1791634"><ele>268.0</ele><time>2026-03-29T15:01:07.159Z</time></trkpt><trkpt lat="43.0877558" lon="12.1793711"><ele>268.3333333333333</ele><time>2026-03-29T15:01:08.135Z</time></trkpt><trkpt lat="43.0877317" lon="12.1795892"><ele>268.6666666666667</ele><time>2026-03-29T15:01:09.161Z</time></trkpt><trkpt lat="43.0877104" lon="12.1797942"><ele>269.0</ele><time>2026-03-29T15:01:10.151Z</time></trkpt><trkpt lat="43.0876965" lon="12.1800107"><ele>267.33333333333337</ele><time>2026-03-29T15:01:11.151Z</time></trkpt><trkpt lat="43.0876636" lon="12.1802324"><ele>265.6666666666667</ele><time>2026-03-29T15:01:12.154Z</time></trkpt><trkpt lat="43.0876367" lon="12.1804451"><ele>264.0</ele><time>2026-03-29T15:01:13.147Z</time></trkpt><trkpt lat="43.0876067" lon="12.1806804"><ele>264.0</ele><time>2026-03-29T15:01:14.151Z</time></trkpt><trkpt lat="43.0875823" lon="12.1809238"><ele>264.0</ele><time>2026-03-29T15:01:15.167Z</time></trkpt><trkpt lat="43.0875574" lon="12.1811608"><ele>264.0</ele><time>2026-03-29T15:01:16.154Z</time></trkpt><trkpt lat="43.087533" lon="12.1813977"><ele>262.6666666666667</ele><time>2026-03-29T15:01:17.151Z</time></trkpt><trkpt lat="43.087509" lon="12.181636"><ele>261.33333333333337</ele><time>2026-03-29T15:01:18.152Z</time></trkpt><trkpt lat="43.0874887" lon="12.1818688"><ele>260.0</ele><time>2026-03-29T15:01:19.152Z</time></trkpt><trkpt lat="43.0874695" lon="12.1820943"><ele>260.0</ele><time>2026-03-29T15:01:20.155Z</time></trkpt><trkpt lat="43.087454" lon="12.1823172"><ele>260.0</ele><time>2026-03-29T15:01:21.147Z</time></trkpt><trkpt lat="43.0874385" lon="12.1825387"><ele>260.0</ele><time>2026-03-29T15:01:22.144Z</time></trkpt><trkpt lat="43.087421" lon="12.1827577"><ele>262.25</ele><time>2026-03-29T15:01:23.157Z</time></trkpt><trkpt lat="43.0874068" lon="12.1829658"><ele>264.5</ele><time>2026-03-29T15:01:24.199Z</time></trkpt><trkpt lat="43.0873971" lon="12.1831403"><ele>266.75</ele><time>2026-03-29T15:01:25.15Z</time></trkpt><trkpt lat="43.0873813" lon="12.1833148"><ele>269.0</ele><time>2026-03-29T15:01:26.15Z</time></trkpt><trkpt lat="43.0873654" lon="12.1834776"><ele>269.0</ele><time>2026-03-29T15:01:27.153Z</time></trkpt><trkpt lat="43.0873482" lon="12.1836392"><ele>269.0</ele><time>2026-03-29T15:01:28.159Z</time></trkpt><trkpt lat="43.0873373" lon="12.1837972"><ele>269.0</ele><time>2026-03-29T15:01:29.143Z</time></trkpt><trkpt lat="43.0873233" lon="12.1839596"><ele>269.0</ele><time>2026-03-29T15:01:30.152Z</time></trkpt><trkpt lat="43.0873128" lon="12.1841267"><ele>268.75</ele><time>2026-03-29T15:01:31.156Z</time></trkpt><trkpt lat="43.087303" lon="12.1842856"><ele>268.5</ele><time>2026-03-29T15:01:32.151Z</time></trkpt><trkpt lat="43.0872999" lon="12.1844296"><ele>268.25</ele><time>2026-03-29T15:01:33.152Z</time></trkpt><trkpt lat="43.087285" lon="12.1845919"><ele>268.0</ele><time>2026-03-29T15:01:34.153Z</time></trkpt><trkpt lat="43.0872735" lon="12.1847536"><ele>267.8</ele><time>2026-03-29T15:01:35.148Z</time></trkpt><trkpt lat="43.0872597" lon="12.1849069"><ele>267.6</ele><time>2026-03-29T15:01:36.149Z</time></trkpt><trkpt lat="43.0872492" lon="12.1850703"><ele>267.4</ele><time>2026-03-29T15:01:37.15Z</time></trkpt><trkpt lat="43.0872399" lon="12.185225"><ele>267.2</ele><time>2026-03-29T15:01:38.145Z</time></trkpt><trkpt lat="43.0872339" lon="12.1853632"><ele>267.0</ele><time>2026-03-29T15:01:39.144Z</time></trkpt><trkpt lat="43.0872294" lon="12.1854794"><ele>267.0</ele><time>2026-03-29T15:01:40.158Z</time></trkpt><trkpt lat="43.0872253" lon="12.1855732"><ele>267.0</ele><time>2026-03-29T15:01:41.147Z</time></trkpt><trkpt lat="43.0872158" lon="12.185699"><ele>267.0</ele><time>2026-03-29T15:01:43.16Z</time></trkpt><trkpt lat="43.0872244" lon="12.1858033"><ele>267.0</ele><time>2026-03-29T15:01:46.161Z</time></trkpt><trkpt lat="43.0872488" lon="12.1859205"><ele>267.0</ele><time>2026-03-29T15:01:49.144Z</time></trkpt><trkpt lat="43.087267" lon="12.1860376"><ele>267.0</ele><time>2026-03-29T15:01:52.19Z</time></trkpt><trkpt lat="43.0872826" lon="12.1861237"><ele>267.8571428571429</ele><time>2026-03-29T15:01:56.158Z</time></trkpt><trkpt lat="43.0872339" lon="12.1861796"><ele>268.7142857142857</ele><time>2026-03-29T15:03:43.146Z</time></trkpt><trkpt lat="43.0871555" lon="12.1862272"><ele>269.57142857142856</ele><time>2026-03-29T15:03:59.147Z</time></trkpt><trkpt lat="43.0872212" lon="12.186195"><ele>270.42857142857144</ele><time>2026-03-29T15:04:04.188Z</time></trkpt><trkpt lat="43.0871585" lon="12.1861836"><ele>271.2857142857143</ele><time>2026-03-29T15:04:30.187Z</time></trkpt><trkpt lat="43.0871504" lon="12.1860807"><ele>272.14285714285717</ele><time>2026-03-29T15:04:48.245Z</time></trkpt><trkpt lat="43.0871437" lon="12.1859757"><ele>273.0</ele><time>2026-03-29T15:10:16.578Z</time></trkpt><trkpt lat="43.0871149" lon="12.1858947"><ele>273.0</ele><time>2026-03-29T15:10:23.137Z</time></trkpt><trkpt lat="43.0870529" lon="12.1858649"><ele>273.0</ele><time>2026-03-29T15:10:32.213Z</time></trkpt><trkpt lat="43.0871209" lon="12.1858643"><ele>273.0</ele><time>2026-03-29T15:12:32.358Z</time></trkpt><trkpt lat="43.0871496" lon="12.1859467"><ele>273.0</ele><time>2026-03-29T15:12:46.416Z</time></trkpt><trkpt lat="43.0871458" lon="12.1860373"><ele>273.0</ele><time>2026-03-29T15:35:27.274Z</time></trkpt><trkpt lat="43.087176" lon="12.1861195"><ele>273.0</ele><time>2026-03-29T15:35:34.075Z</time></trkpt><trkpt lat="43.0871954" lon="12.1862054"><ele>273.0</ele><time>2026-03-29T15:39:50.257Z</time></trkpt><trkpt lat="43.0872563" lon="12.1862301"><ele>271.5</ele><time>2026-03-29T15:42:00.246Z</time></trkpt><trkpt lat="43.087497" lon="12.1867103"><ele>270.0</ele><time>2026-03-29T15:42:05.248Z</time></trkpt><trkpt lat="43.0875258" lon="12.1868235"><ele>270.0</ele><time>2026-03-29T15:42:06.287Z</time></trkpt><trkpt lat="43.0875526" lon="12.1869419"><ele>270.0</ele><time>2026-03-29T15:42:07.265Z</time></trkpt><trkpt lat="43.0875811" lon="12.1870707"><ele>270.0</ele><time>2026-03-29T15:42:08.255Z</time></trkpt><trkpt lat="43.0876074" lon="12.1872136"><ele>270.0</ele><time>2026-03-29T15:42:09.256Z</time></trkpt><trkpt lat="43.0876439" lon="12.1873589"><ele>270.0</ele><time>2026-03-29T15:42:10.24Z</time></trkpt><trkpt lat="43.0876509" lon="12.1875059"><ele>271.25</ele><time>2026-03-29T15:42:11.263Z</time></trkpt><trkpt lat="43.0876468" lon="12.1876589"><ele>272.5</ele><time>2026-03-29T15:42:12.26Z</time></trkpt><trkpt lat="43.0876323" lon="12.1878182"><ele>273.75</ele><time>2026-03-29T15:42:13.247Z</time></trkpt><trkpt lat="43.0876015" lon="12.1879866"><ele>275.0</ele><time>2026-03-29T15:42:14.243Z</time></trkpt><trkpt lat="43.0875619" lon="12.1881661"><ele>275.25</ele><time>2026-03-29T15:42:15.266Z</time></trkpt><trkpt lat="43.0875204" lon="12.18834"><ele>275.5</ele><time>2026-03-29T15:42:16.265Z</time></trkpt><trkpt lat="43.0874774" lon="12.188511"><ele>275.75</ele><time>2026-03-29T15:42:17.253Z</time></trkpt><trkpt lat="43.087435" lon="12.1886936"><ele>276.0</ele><time>2026-03-29T15:42:18.26Z</time></trkpt><trkpt lat="43.0873873" lon="12.1888795"><ele>281.0</ele><time>2026-03-29T15:42:19.258Z</time></trkpt><trkpt lat="43.0873422" lon="12.1890743"><ele>286.0</ele><time>2026-03-29T15:42:20.268Z</time></trkpt><trkpt lat="43.0872953" lon="12.1892646"><ele>291.0</ele><time>2026-03-29T15:42:21.248Z</time></trkpt><trkpt lat="43.0872448" lon="12.1894606"><ele>296.0</ele><time>2026-03-29T15:42:22.256Z</time></trkpt><trkpt lat="43.087195" lon="12.1896536"><ele>294.5</ele><time>2026-03-29T15:42:23.266Z</time></trkpt><trkpt lat="43.0871485" lon="12.1898454"><ele>293.0</ele><time>2026-03-29T15:42:24.256Z</time></trkpt><trkpt lat="43.0871059" lon="12.1900374"><ele>291.5</ele><time>2026-03-29T15:42:25.252Z</time></trkpt><trkpt lat="43.0870793" lon="12.1902287"><ele>290.0</ele><time>2026-03-29T15:42:26.251Z</time></trkpt><trkpt lat="43.0870791" lon="12.1904255"><ele>290.0</ele><time>2026-03-29T15:42:27.26Z</time></trkpt><trkpt lat="43.0871119" lon="12.1906182"><ele>290.0</ele><time>2026-03-29T15:42:28.268Z</time></trkpt><trkpt lat="43.0871598" lon="12.1908172"><ele>290.0</ele><time>2026-03-29T15:42:29.251Z</time></trkpt><trkpt lat="43.0872277" lon="12.1909894"><ele>290.0</ele><time>2026-03-29T15:42:30.253Z</time></trkpt><trkpt lat="43.0873107" lon="12.1911687"><ele>290.33333333333337</ele><time>2026-03-29T15:42:31.252Z</time></trkpt><trkpt lat="43.0873902" lon="12.191347"><ele>290.6666666666667</ele><time>2026-03-29T15:42:32.248Z</time></trkpt><trkpt lat="43.0874684" lon="12.1915227"><ele>291.0</ele><time>2026-03-29T15:42:33.251Z</time></trkpt><trkpt lat="43.0875449" lon="12.191702"><ele>290.0</ele><time>2026-03-29T15:42:34.286Z</time></trkpt><trkpt lat="43.0876121" lon="12.1918683"><ele>289.0</ele><time>2026-03-29T15:42:35.252Z</time></trkpt><trkpt lat="43.0876577" lon="12.1920443"><ele>288.0</ele><time>2026-03-29T15:42:36.251Z</time></trkpt><trkpt lat="43.0876803" lon="12.192244"><ele>287.0</ele><time>2026-03-29T15:42:37.251Z</time></trkpt><trkpt lat="43.0876672" lon="12.1924864"><ele>287.0</ele><time>2026-03-29T15:42:38.253Z</time></trkpt><trkpt lat="43.0876481" lon="12.1926963"><ele>287.0</ele><time>2026-03-29T15:42:39.254Z</time></trkpt><trkpt lat="43.087631" lon="12.1929115"><ele>287.0</ele><time>2026-03-29T15:42:40.258Z</time></trkpt><trkpt lat="43.0876138" lon="12.1931148"><ele>286.25</ele><time>2026-03-29T15:42:41.253Z</time></trkpt><trkpt lat="43.0875975" lon="12.1933063"><ele>285.5</ele><time>2026-03-29T15:42:42.252Z</time></trkpt><trkpt lat="43.0875829" lon="12.1934968"><ele>284.75</ele><time>2026-03-29T15:42:43.285Z</time></trkpt><trkpt lat="43.0875677" lon="12.1936706"><ele>284.0</ele><time>2026-03-29T15:42:44.259Z</time></trkpt><trkpt lat="43.0875546" lon="12.1938394"><ele>284.0</ele><time>2026-03-29T15:42:45.267Z</time></trkpt><trkpt lat="43.0875406" lon="12.1939922"><ele>284.0</ele><time>2026-03-29T15:42:46.255Z</time></trkpt><trkpt lat="43.0875064" lon="12.1941203"><ele>284.0</ele><time>2026-03-29T15:42:47.256Z</time></trkpt><trkpt lat="43.0874544" lon="12.1942187"><ele>284.0</ele><time>2026-03-29T15:42:48.269Z</time></trkpt><trkpt lat="43.0873827" lon="12.1942876"><ele>284.0</ele><time>2026-03-29T15:42:49.264Z</time></trkpt><trkpt lat="43.087305" lon="12.1943561"><ele>289.0</ele><time>2026-03-29T15:42:50.261Z</time></trkpt><trkpt lat="43.0871769" lon="12.1944208"><ele>294.0</ele><time>2026-03-29T15:42:51.267Z</time></trkpt><trkpt lat="43.0870832" lon="12.1945227"><ele>299.0</ele><time>2026-03-29T15:42:52.28Z</time></trkpt><trkpt lat="43.0870023" lon="12.1946441"><ele>304.0</ele><time>2026-03-29T15:42:53.258Z</time></trkpt><trkpt lat="43.0869178" lon="12.1947865"><ele>302.66666666666663</ele><time>2026-03-29T15:42:54.268Z</time></trkpt><trkpt lat="43.0868222" lon="12.1949445"><ele>301.3333333333333</ele><time>2026-03-29T15:42:55.276Z</time></trkpt><trkpt lat="43.0867282" lon="12.1951171"><ele>300.0</ele><time>2026-03-29T15:42:56.25Z</time></trkpt><trkpt lat="43.0866463" lon="12.1952874"><ele>305.6666666666667</ele><time>2026-03-29T15:42:57.258Z</time></trkpt><trkpt lat="43.0865437" lon="12.1954522"><ele>311.33333333333337</ele><time>2026-03-29T15:42:58.276Z</time></trkpt><trkpt lat="43.0864512" lon="12.1956239"><ele>317.0</ele><time>2026-03-29T15:42:59.259Z</time></trkpt><trkpt lat="43.0863195" lon="12.1957726"><ele>317.0</ele><time>2026-03-29T15:43:00.277Z</time></trkpt><trkpt lat="43.0862046" lon="12.1959404"><ele>317.0</ele><time>2026-03-29T15:43:01.259Z</time></trkpt><trkpt lat="43.0860968" lon="12.1961061"><ele>317.0</ele><time>2026-03-29T15:43:02.266Z</time></trkpt><trkpt lat="43.0859851" lon="12.1962648"><ele>317.0</ele><time>2026-03-29T15:43:03.265Z</time></trkpt><trkpt lat="43.0858912" lon="12.1964163"><ele>317.0</ele><time>2026-03-29T15:43:04.257Z</time></trkpt><trkpt lat="43.0857812" lon="12.1966235"><ele>317.0</ele><time>2026-03-29T15:43:05.292Z</time></trkpt><trkpt lat="43.0856855" lon="12.196812"><ele>318.6666666666667</ele><time>2026-03-29T15:43:06.253Z</time></trkpt><trkpt lat="43.0855809" lon="12.1970068"><ele>320.3333333333333</ele><time>2026-03-29T15:43:07.259Z</time></trkpt><trkpt lat="43.085488" lon="12.1971975"><ele>322.0</ele><time>2026-03-29T15:43:08.256Z</time></trkpt><trkpt lat="43.0854014" lon="12.1973891"><ele>322.0</ele><time>2026-03-29T15:43:09.261Z</time></trkpt><trkpt lat="43.0852824" lon="12.1975458"><ele>322.0</ele><time>2026-03-29T15:43:10.265Z</time></trkpt><trkpt lat="43.0851762" lon="12.1977034"><ele>322.0</ele><time>2026-03-29T15:43:11.253Z</time></trkpt><trkpt lat="43.0850536" lon="12.1977976"><ele>321.66666666666663</ele><time>2026-03-29T15:43:12.252Z</time></trkpt><trkpt lat="43.0849112" lon="12.1978977"><ele>321.3333333333333</ele><time>2026-03-29T15:43:13.268Z</time></trkpt><trkpt lat="43.0847229" lon="12.1980436"><ele>321.0</ele><time>2026-03-29T15:43:14.255Z</time></trkpt><trkpt lat="43.0845409" lon="12.1981868"><ele>315.0</ele><time>2026-03-29T15:43:15.245Z</time></trkpt><trkpt lat="43.0843605" lon="12.1983299"><ele>309.0</ele><time>2026-03-29T15:43:16.265Z</time></trkpt><trkpt lat="43.0841753" lon="12.198469"><ele>303.0</ele><time>2026-03-29T15:43:17.268Z</time></trkpt><trkpt lat="43.0839885" lon="12.1986079"><ele>302.0</ele><time>2026-03-29T15:43:18.276Z</time></trkpt><trkpt lat="43.0838034" lon="12.1987482"><ele>301.0</ele><time>2026-03-29T15:43:19.266Z</time></trkpt><trkpt lat="43.083611" lon="12.1988887"><ele>300.0</ele><time>2026-03-29T15:43:20.265Z</time></trkpt><trkpt lat="43.0834198" lon="12.1990285"><ele>295.0</ele><time>2026-03-29T15:43:21.272Z</time></trkpt><trkpt lat="43.0832325" lon="12.1991646"><ele>290.0</ele><time>2026-03-29T15:43:22.263Z</time></trkpt><trkpt lat="43.0830423" lon="12.1993032"><ele>285.0</ele><time>2026-03-29T15:43:23.263Z</time></trkpt><trkpt lat="43.0828447" lon="12.1994319"><ele>285.0</ele><time>2026-03-29T15:43:24.267Z</time></trkpt><trkpt lat="43.0826556" lon="12.1995418"><ele>285.0</ele><time>2026-03-29T15:43:25.259Z</time></trkpt><trkpt lat="43.0824304" lon="12.1996406"><ele>285.0</ele><time>2026-03-29T15:43:26.267Z</time></trkpt><trkpt lat="43.0822111" lon="12.1997291"><ele>283.5</ele><time>2026-03-29T15:43:27.272Z</time></trkpt><trkpt lat="43.0819991" lon="12.199819"><ele>282.0</ele><time>2026-03-29T15:43:28.252Z</time></trkpt><trkpt lat="43.0817802" lon="12.1999085"><ele>279.3333333333333</ele><time>2026-03-29T15:43:29.259Z</time></trkpt><trkpt lat="43.0815673" lon="12.1999961"><ele>276.66666666666663</ele><time>2026-03-29T15:43:30.263Z</time></trkpt><trkpt lat="43.0813575" lon="12.2000815"><ele>274.0</ele><time>2026-03-29T15:43:31.266Z</time></trkpt><trkpt lat="43.0811527" lon="12.2001705"><ele>274.0</ele><time>2026-03-29T15:43:32.258Z</time></trkpt><trkpt lat="43.0809519" lon="12.2002779"><ele>274.0</ele><time>2026-03-29T15:43:33.249Z</time></trkpt><trkpt lat="43.0807498" lon="12.2004287"><ele>274.0</ele><time>2026-03-29T15:43:34.248Z</time></trkpt><trkpt lat="43.0805626" lon="12.2005836"><ele>273.0</ele><time>2026-03-29T15:43:35.264Z</time></trkpt><trkpt lat="43.0803775" lon="12.2007419"><ele>272.0</ele><time>2026-03-29T15:43:36.259Z</time></trkpt><trkpt lat="43.0801887" lon="12.2009163"><ele>271.0</ele><time>2026-03-29T15:43:37.264Z</time></trkpt><trkpt lat="43.0799926" lon="12.2010796"><ele>268.5</ele><time>2026-03-29T15:43:38.262Z</time></trkpt><trkpt lat="43.0798005" lon="12.2012518"><ele>266.0</ele><time>2026-03-29T15:43:39.256Z</time></trkpt><trkpt lat="43.0795977" lon="12.2014288"><ele>265.0</ele><time>2026-03-29T15:43:40.286Z</time></trkpt><trkpt lat="43.0794031" lon="12.2016004"><ele>264.0</ele><time>2026-03-29T15:43:41.269Z</time></trkpt><trkpt lat="43.0792066" lon="12.2017751"><ele>263.0</ele><time>2026-03-29T15:43:42.26Z</time></trkpt><trkpt lat="43.0790098" lon="12.2019475"><ele>262.0</ele><time>2026-03-29T15:43:43.249Z</time></trkpt><trkpt lat="43.0788015" lon="12.202132"><ele>262.0</ele><time>2026-03-29T15:43:44.296Z</time></trkpt><trkpt lat="43.0786096" lon="12.2023011"><ele>262.0</ele><time>2026-03-29T15:43:45.25Z</time></trkpt><trkpt lat="43.0784102" lon="12.2024759"><ele>260.0</ele><time>2026-03-29T15:43:46.252Z</time></trkpt><trkpt lat="43.0782108" lon="12.2026516"><ele>258.0</ele><time>2026-03-29T15:43:47.26Z</time></trkpt><trkpt lat="43.0780156" lon="12.2028269"><ele>258.0</ele><time>2026-03-29T15:43:48.259Z</time></trkpt><trkpt lat="43.0778176" lon="12.2030054"><ele>258.0</ele><time>2026-03-29T15:43:49.278Z</time></trkpt><trkpt lat="43.0776313" lon="12.2031726"><ele>258.0</ele><time>2026-03-29T15:43:50.249Z</time></trkpt><trkpt lat="43.0774331" lon="12.2033472"><ele>258.0</ele><time>2026-03-29T15:43:51.289Z</time></trkpt><trkpt lat="43.0772505" lon="12.2035125"><ele>258.0</ele><time>2026-03-29T15:43:52.266Z</time></trkpt><trkpt lat="43.0770578" lon="12.2036824"><ele>258.0</ele><time>2026-03-29T15:43:53.293Z</time></trkpt><trkpt lat="43.0768765" lon="12.2038401"><ele>258.0</ele><time>2026-03-29T15:43:54.254Z</time></trkpt><trkpt lat="43.0766893" lon="12.2040022"><ele>257.6666666666667</ele><time>2026-03-29T15:43:55.248Z</time></trkpt><trkpt lat="43.0764987" lon="12.2041672"><ele>257.33333333333337</ele><time>2026-03-29T15:43:56.264Z</time></trkpt><trkpt lat="43.0763108" lon="12.2043263"><ele>257.0</ele><time>2026-03-29T15:43:57.259Z</time></trkpt><trkpt lat="43.0761172" lon="12.2044853"><ele>257.0</ele><time>2026-03-29T15:43:58.268Z</time></trkpt><trkpt lat="43.0759244" lon="12.204639"><ele>257.0</ele><time>2026-03-29T15:43:59.262Z</time></trkpt><trkpt lat="43.0757272" lon="12.2047912"><ele>257.0</ele><time>2026-03-29T15:44:00.268Z</time></trkpt><trkpt lat="43.0755309" lon="12.2049327"><ele>255.0</ele><time>2026-03-29T15:44:01.25Z</time></trkpt><trkpt lat="43.0753247" lon="12.2050609"><ele>253.0</ele><time>2026-03-29T15:44:02.257Z</time></trkpt><trkpt lat="43.075114" lon="12.2051774"><ele>252.66666666666666</ele><time>2026-03-29T15:44:03.265Z</time></trkpt><trkpt lat="43.0749077" lon="12.2052869"><ele>252.33333333333331</ele><time>2026-03-29T15:44:04.254Z</time></trkpt><trkpt lat="43.0746998" lon="12.2053982"><ele>252.0</ele><time>2026-03-29T15:44:05.256Z</time></trkpt><trkpt lat="43.0744888" lon="12.2055146"><ele>252.0</ele><time>2026-03-29T15:44:06.28Z</time></trkpt><trkpt lat="43.0742862" lon="12.2056253"><ele>252.0</ele><time>2026-03-29T15:44:07.264Z</time></trkpt><trkpt lat="43.074077" lon="12.2057398"><ele>252.0</ele><time>2026-03-29T15:44:08.271Z</time></trkpt><trkpt lat="43.0738676" lon="12.2058522"><ele>251.33333333333331</ele><time>2026-03-29T15:44:09.275Z</time></trkpt><trkpt lat="43.0736537" lon="12.2059548"><ele>250.66666666666666</ele><time>2026-03-29T15:44:10.281Z</time></trkpt><trkpt lat="43.0734527" lon="12.2060489"><ele>250.0</ele><time>2026-03-29T15:44:11.232Z</time></trkpt><trkpt lat="43.0732467" lon="12.2061444"><ele>249.0</ele><time>2026-03-29T15:44:12.22Z</time></trkpt><trkpt lat="43.0730435" lon="12.2062448"><ele>248.0</ele><time>2026-03-29T15:44:13.207Z</time></trkpt><trkpt lat="43.072847" lon="12.2063416"><ele>247.0</ele><time>2026-03-29T15:44:14.202Z</time></trkpt><trkpt lat="43.0726522" lon="12.2064349"><ele>247.33333333333331</ele><time>2026-03-29T15:44:15.228Z</time></trkpt><trkpt lat="43.0724584" lon="12.2065175"><ele>247.66666666666669</ele><time>2026-03-29T15:44:16.211Z</time></trkpt><trkpt lat="43.0722518" lon="12.2066035"><ele>248.0</ele><time>2026-03-29T15:44:17.204Z</time></trkpt><trkpt lat="43.0720483" lon="12.2066818"><ele>247.33333333333334</ele><time>2026-03-29T15:44:18.213Z</time></trkpt><trkpt lat="43.0718444" lon="12.2067593"><ele>246.66666666666669</ele><time>2026-03-29T15:44:19.197Z</time></trkpt><trkpt lat="43.0716523" lon="12.206832"><ele>246.0</ele><time>2026-03-29T15:44:20.205Z</time></trkpt><trkpt lat="43.0714384" lon="12.206911"><ele>246.0</ele><time>2026-03-29T15:44:21.204Z</time></trkpt><trkpt lat="43.0712279" lon="12.2069871"><ele>246.0</ele><time>2026-03-29T15:44:22.201Z</time></trkpt><trkpt lat="43.0710111" lon="12.2070662"><ele>246.0</ele><time>2026-03-29T15:44:23.219Z</time></trkpt><trkpt lat="43.0708138" lon="12.2071469"><ele>246.0</ele><time>2026-03-29T15:44:24.187Z</time></trkpt><trkpt lat="43.070608" lon="12.2072279"><ele>246.0</ele><time>2026-03-29T15:44:25.206Z</time></trkpt><trkpt lat="43.0704188" lon="12.2072971"><ele>246.0</ele><time>2026-03-29T15:44:26.192Z</time></trkpt><trkpt lat="43.0702077" lon="12.207371"><ele>245.33333333333331</ele><time>2026-03-29T15:44:27.234Z</time></trkpt><trkpt lat="43.0700115" lon="12.2074397"><ele>244.66666666666666</ele><time>2026-03-29T15:44:28.187Z</time></trkpt><trkpt lat="43.0698045" lon="12.207499"><ele>244.0</ele><time>2026-03-29T15:44:29.197Z</time></trkpt><trkpt lat="43.0695884" lon="12.2075569"><ele>243.66666666666666</ele><time>2026-03-29T15:44:30.216Z</time></trkpt><trkpt lat="43.0693782" lon="12.2076222"><ele>243.33333333333331</ele><time>2026-03-29T15:44:31.19Z</time></trkpt><trkpt lat="43.0691756" lon="12.2076849"><ele>243.0</ele><time>2026-03-29T15:44:32.193Z</time></trkpt><trkpt lat="43.0689705" lon="12.2077506"><ele>242.66666666666669</ele><time>2026-03-29T15:44:33.213Z</time></trkpt><trkpt lat="43.0688094" lon="12.2078066"><ele>242.33333333333334</ele><time>2026-03-29T15:44:34.206Z</time></trkpt><trkpt lat="43.0686198" lon="12.2078764"><ele>242.0</ele><time>2026-03-29T15:44:35.211Z</time></trkpt><trkpt lat="43.0684454" lon="12.2079423"><ele>241.33333333333334</ele><time>2026-03-29T15:44:36.191Z</time></trkpt><trkpt lat="43.068276" lon="12.208004"><ele>240.66666666666669</ele><time>2026-03-29T15:44:37.217Z</time></trkpt><trkpt lat="43.0681228" lon="12.2080616"><ele>240.0</ele><time>2026-03-29T15:44:38.199Z</time></trkpt><trkpt lat="43.0679684" lon="12.208113"><ele>240.0</ele><time>2026-03-29T15:44:39.204Z</time></trkpt><trkpt lat="43.0678583" lon="12.2081573"><ele>240.0</ele><time>2026-03-29T15:44:40.215Z</time></trkpt><trkpt lat="43.067713" lon="12.2082063"><ele>240.0</ele><time>2026-03-29T15:44:41.209Z</time></trkpt><trkpt lat="43.0675644" lon="12.2082646"><ele>240.0</ele><time>2026-03-29T15:44:42.192Z</time></trkpt><trkpt lat="43.0673933" lon="12.2083217"><ele>240.0</ele><time>2026-03-29T15:44:43.205Z</time></trkpt><trkpt lat="43.0672232" lon="12.2083768"><ele>240.0</ele><time>2026-03-29T15:44:44.203Z</time></trkpt><trkpt lat="43.0670345" lon="12.2084378"><ele>240.0</ele><time>2026-03-29T15:44:45.227Z</time></trkpt><trkpt lat="43.0668549" lon="12.2084915"><ele>240.0</ele><time>2026-03-29T15:44:46.2Z</time></trkpt><trkpt lat="43.0666572" lon="12.2085659"><ele>240.0</ele><time>2026-03-29T15:44:47.209Z</time></trkpt><trkpt lat="43.0664676" lon="12.2086395"><ele>240.0</ele><time>2026-03-29T15:44:48.203Z</time></trkpt><trkpt lat="43.0662968" lon="12.2087115"><ele>240.0</ele><time>2026-03-29T15:44:49.203Z</time></trkpt><trkpt lat="43.0661096" lon="12.2088358"><ele>240.0</ele><time>2026-03-29T15:44:50.249Z</time></trkpt><trkpt lat="43.0659748" lon="12.208972"><ele>240.0</ele><time>2026-03-29T15:44:51.221Z</time></trkpt><trkpt lat="43.0658133" lon="12.2091567"><ele>239.66666666666669</ele><time>2026-03-29T15:44:52.208Z</time></trkpt><trkpt lat="43.0656574" lon="12.2093683"><ele>239.33333333333334</ele><time>2026-03-29T15:44:53.194Z</time></trkpt><trkpt lat="43.0655191" lon="12.2095763"><ele>239.0</ele><time>2026-03-29T15:44:54.201Z</time></trkpt><trkpt lat="43.065357" lon="12.2097823"><ele>239.0</ele><time>2026-03-29T15:44:55.197Z</time></trkpt><trkpt lat="43.0651893" lon="12.210004"><ele>239.0</ele><time>2026-03-29T15:44:56.215Z</time></trkpt><trkpt lat="43.0650227" lon="12.2102328"><ele>238.33333333333334</ele><time>2026-03-29T15:44:57.204Z</time></trkpt><trkpt lat="43.0648686" lon="12.2104649"><ele>237.66666666666669</ele><time>2026-03-29T15:44:58.23Z</time></trkpt><trkpt lat="43.0647379" lon="12.210649"><ele>237.0</ele><time>2026-03-29T15:44:59.204Z</time></trkpt><trkpt lat="43.0645998" lon="12.2108396"><ele>237.0</ele><time>2026-03-29T15:45:00.21Z</time></trkpt><trkpt lat="43.0644689" lon="12.2109884"><ele>237.0</ele><time>2026-03-29T15:45:01.199Z</time></trkpt><trkpt lat="43.0643287" lon="12.2111042"><ele>237.0</ele><time>2026-03-29T15:45:02.207Z</time></trkpt><trkpt lat="43.0641513" lon="12.2112167"><ele>237.33333333333331</ele><time>2026-03-29T15:45:03.21Z</time></trkpt><trkpt lat="43.0639768" lon="12.2112903"><ele>237.66666666666666</ele><time>2026-03-29T15:45:04.2Z</time></trkpt><trkpt lat="43.0637895" lon="12.2113835"><ele>238.0</ele><time>2026-03-29T15:45:05.196Z</time></trkpt><trkpt lat="43.0635732" lon="12.2115004"><ele>238.0</ele><time>2026-03-29T15:45:06.198Z</time></trkpt><trkpt lat="43.0633464" lon="12.2116099"><ele>238.0</ele><time>2026-03-29T15:45:07.208Z</time></trkpt><trkpt lat="43.0631134" lon="12.2117183"><ele>237.0</ele><time>2026-03-29T15:45:08.199Z</time></trkpt><trkpt lat="43.0628927" lon="12.2118254"><ele>236.0</ele><time>2026-03-29T15:45:09.209Z</time></trkpt><trkpt lat="43.0626792" lon="12.2119416"><ele>236.0</ele><time>2026-03-29T15:45:10.205Z</time></trkpt><trkpt lat="43.0624682" lon="12.2120572"><ele>236.0</ele><time>2026-03-29T15:45:11.196Z</time></trkpt><trkpt lat="43.0622645" lon="12.2121643"><ele>236.0</ele><time>2026-03-29T15:45:12.227Z</time></trkpt><trkpt lat="43.0620806" lon="12.2122725"><ele>236.33333333333334</ele><time>2026-03-29T15:45:13.201Z</time></trkpt><trkpt lat="43.0618927" lon="12.2123922"><ele>236.66666666666669</ele><time>2026-03-29T15:45:14.203Z</time></trkpt><trkpt lat="43.0617014" lon="12.2125262"><ele>237.0</ele><time>2026-03-29T15:45:15.202Z</time></trkpt><trkpt lat="43.0615113" lon="12.212695"><ele>237.0</ele><time>2026-03-29T15:45:16.209Z</time></trkpt><trkpt lat="43.0613237" lon="12.2128926"><ele>237.0</ele><time>2026-03-29T15:45:17.238Z</time></trkpt><trkpt lat="43.0611601" lon="12.2130778"><ele>237.0</ele><time>2026-03-29T15:45:18.205Z</time></trkpt><trkpt lat="43.0610055" lon="12.213261"><ele>237.0</ele><time>2026-03-29T15:45:19.195Z</time></trkpt><trkpt lat="43.060845" lon="12.2134584"><ele>237.0</ele><time>2026-03-29T15:45:20.2Z</time></trkpt><trkpt lat="43.0606929" lon="12.2136543"><ele>237.0</ele><time>2026-03-29T15:45:21.197Z</time></trkpt><trkpt lat="43.0605499" lon="12.2138363"><ele>236.33333333333331</ele><time>2026-03-29T15:45:22.199Z</time></trkpt><trkpt lat="43.0604174" lon="12.214003"><ele>235.66666666666666</ele><time>2026-03-29T15:45:23.209Z</time></trkpt><trkpt lat="43.060298" lon="12.2141405"><ele>235.0</ele><time>2026-03-29T15:45:24.209Z</time></trkpt><trkpt lat="43.0601875" lon="12.2142349"><ele>235.0</ele><time>2026-03-29T15:45:25.19Z</time></trkpt><trkpt lat="43.0600783" lon="12.214287"><ele>235.0</ele><time>2026-03-29T15:45:26.206Z</time></trkpt><trkpt lat="43.0599754" lon="12.2142861"><ele>235.0</ele><time>2026-03-29T15:45:27.207Z</time></trkpt><trkpt lat="43.0598577" lon="12.214264"><ele>235.0</ele><time>2026-03-29T15:45:28.205Z</time></trkpt><trkpt lat="43.0597662" lon="12.2142179"><ele>235.0</ele><time>2026-03-29T15:45:29.2Z</time></trkpt><trkpt lat="43.0596289" lon="12.2141713"><ele>235.0</ele><time>2026-03-29T15:45:30.214Z</time></trkpt><trkpt lat="43.0594632" lon="12.2141061"><ele>235.0</ele><time>2026-03-29T15:45:31.221Z</time></trkpt><trkpt lat="43.0592303" lon="12.2140094"><ele>235.0</ele><time>2026-03-29T15:45:32.239Z</time></trkpt><trkpt lat="43.0589708" lon="12.2139073"><ele>233.0</ele><time>2026-03-29T15:45:33.219Z</time></trkpt><trkpt lat="43.0586571" lon="12.2138035"><ele>231.0</ele><time>2026-03-29T15:45:34.211Z</time></trkpt><trkpt lat="43.0583692" lon="12.2137377"><ele>231.5</ele><time>2026-03-29T15:45:35.203Z</time></trkpt><trkpt lat="43.0581084" lon="12.2136834"><ele>232.0</ele><time>2026-03-29T15:45:36.212Z</time></trkpt><trkpt lat="43.0578801" lon="12.2136288"><ele>232.0</ele><time>2026-03-29T15:45:37.202Z</time></trkpt><trkpt lat="43.0576525" lon="12.2135569"><ele>232.0</ele><time>2026-03-29T15:45:38.199Z</time></trkpt><trkpt lat="43.0574311" lon="12.2134958"><ele>232.33333333333331</ele><time>2026-03-29T15:45:39.205Z</time></trkpt><trkpt lat="43.0572431" lon="12.2134441"><ele>232.66666666666669</ele><time>2026-03-29T15:45:40.215Z</time></trkpt><trkpt lat="43.0570848" lon="12.2134126"><ele>233.0</ele><time>2026-03-29T15:45:41.199Z</time></trkpt><trkpt lat="43.05698" lon="12.2134924"><ele>233.0</ele><time>2026-03-29T15:45:43.199Z</time></trkpt><trkpt lat="43.0568312" lon="12.2135664"><ele>233.0</ele><time>2026-03-29T15:45:44.199Z</time></trkpt><trkpt lat="43.0567082" lon="12.213656"><ele>233.0</ele><time>2026-03-29T15:45:45.196Z</time></trkpt><trkpt lat="43.0565888" lon="12.2137743"><ele>233.0</ele><time>2026-03-29T15:45:46.211Z</time></trkpt><trkpt lat="43.0564726" lon="12.2139246"><ele>233.33333333333334</ele><time>2026-03-29T15:45:47.206Z</time></trkpt><trkpt lat="43.0563581" lon="12.2140858"><ele>233.66666666666669</ele><time>2026-03-29T15:45:48.202Z</time></trkpt><trkpt lat="43.0562519" lon="12.2142447"><ele>234.0</ele><time>2026-03-29T15:45:49.201Z</time></trkpt><trkpt lat="43.0561504" lon="12.2143971"><ele>234.0</ele><time>2026-03-29T15:45:50.199Z</time></trkpt><trkpt lat="43.0560452" lon="12.2145502"><ele>234.0</ele><time>2026-03-29T15:45:51.194Z</time></trkpt><trkpt lat="43.0559273" lon="12.2147255"><ele>234.0</ele><time>2026-03-29T15:45:52.211Z</time></trkpt><trkpt lat="43.0557922" lon="12.2149493"><ele>234.0</ele><time>2026-03-29T15:45:53.235Z</time></trkpt><trkpt lat="43.0556652" lon="12.2151771"><ele>234.0</ele><time>2026-03-29T15:45:54.212Z</time></trkpt><trkpt lat="43.0555094" lon="12.2154468"><ele>233.66666666666669</ele><time>2026-03-29T15:45:55.199Z</time></trkpt><trkpt lat="43.0553684" lon="12.2156983"><ele>233.33333333333334</ele><time>2026-03-29T15:45:56.201Z</time></trkpt><trkpt lat="43.0552894" lon="12.2158305"><ele>233.0</ele><time>2026-03-29T15:45:57.205Z</time></trkpt><trkpt lat="43.0551708" lon="12.2160008"><ele>233.0</ele><time>2026-03-29T15:45:58.2Z</time></trkpt><trkpt lat="43.0550604" lon="12.2161121"><ele>233.0</ele><time>2026-03-29T15:45:59.202Z</time></trkpt><trkpt lat="43.0549195" lon="12.2162446"><ele>233.0</ele><time>2026-03-29T15:46:00.2Z</time></trkpt><trkpt lat="43.0547449" lon="12.2163851"><ele>232.33333333333334</ele><time>2026-03-29T15:46:01.215Z</time></trkpt><trkpt lat="43.0546281" lon="12.216487"><ele>231.66666666666669</ele><time>2026-03-29T15:46:02.201Z</time></trkpt><trkpt lat="43.0544626" lon="12.216625"><ele>231.0</ele><time>2026-03-29T15:46:03.211Z</time></trkpt><trkpt lat="43.0540533" lon="12.2170849"><ele>231.0</ele><time>2026-03-29T15:46:04.207Z</time></trkpt><trkpt lat="43.0538449" lon="12.2172293"><ele>231.0</ele><time>2026-03-29T15:46:05.202Z</time></trkpt><trkpt lat="43.0536418" lon="12.2173711"><ele>231.0</ele><time>2026-03-29T15:46:06.214Z</time></trkpt><trkpt lat="43.0534439" lon="12.2175096"><ele>231.0</ele><time>2026-03-29T15:46:07.207Z</time></trkpt><trkpt lat="43.053266" lon="12.2176529"><ele>231.0</ele><time>2026-03-29T15:46:08.192Z</time></trkpt><trkpt lat="43.0530932" lon="12.2178093"><ele>230.66666666666669</ele><time>2026-03-29T15:46:09.219Z</time></trkpt><trkpt lat="43.0529378" lon="12.2179778"><ele>230.33333333333334</ele><time>2026-03-29T15:46:10.201Z</time></trkpt><trkpt lat="43.0528284" lon="12.2181613"><ele>230.0</ele><time>2026-03-29T15:46:11.223Z</time></trkpt><trkpt lat="43.0527214" lon="12.2183613"><ele>230.0</ele><time>2026-03-29T15:46:12.216Z</time></trkpt><trkpt lat="43.0526112" lon="12.2186173"><ele>230.0</ele><time>2026-03-29T15:46:13.247Z</time></trkpt><trkpt lat="43.0525193" lon="12.2188579"><ele>230.0</ele><time>2026-03-29T15:46:14.209Z</time></trkpt><trkpt lat="43.0524329" lon="12.2191082"><ele>230.0</ele><time>2026-03-29T15:46:15.205Z</time></trkpt><trkpt lat="43.0523743" lon="12.2193581"><ele>230.0</ele><time>2026-03-29T15:46:16.205Z</time></trkpt><trkpt lat="43.0523393" lon="12.2196261"><ele>230.0</ele><time>2026-03-29T15:46:17.211Z</time></trkpt><trkpt lat="43.0523406" lon="12.2198895"><ele>230.0</ele><time>2026-03-29T15:46:18.202Z</time></trkpt><trkpt lat="43.0523553" lon="12.2201698"><ele>230.0</ele><time>2026-03-29T15:46:19.219Z</time></trkpt><trkpt lat="43.0523549" lon="12.2204539"><ele>230.0</ele><time>2026-03-29T15:46:20.221Z</time></trkpt><trkpt lat="43.0523854" lon="12.2207355"><ele>231.0</ele><time>2026-03-29T15:46:21.204Z</time></trkpt><trkpt lat="43.0524233" lon="12.2210322"><ele>232.0</ele><time>2026-03-29T15:46:22.24Z</time></trkpt><trkpt lat="43.0524749" lon="12.2213058"><ele>233.0</ele><time>2026-03-29T15:46:23.2Z</time></trkpt><trkpt lat="43.0525257" lon="12.2215809"><ele>233.33333333333334</ele><time>2026-03-29T15:46:24.203Z</time></trkpt><trkpt lat="43.0525965" lon="12.2218499"><ele>233.66666666666669</ele><time>2026-03-29T15:46:25.199Z</time></trkpt><trkpt lat="43.0526793" lon="12.2221288"><ele>234.0</ele><time>2026-03-29T15:46:26.209Z</time></trkpt><trkpt lat="43.0527677" lon="12.2224083"><ele>234.66666666666669</ele><time>2026-03-29T15:46:27.211Z</time></trkpt><trkpt lat="43.0528544" lon="12.2226865"><ele>235.33333333333334</ele><time>2026-03-29T15:46:28.215Z</time></trkpt><trkpt lat="43.052942" lon="12.2229711"><ele>236.0</ele><time>2026-03-29T15:46:29.216Z</time></trkpt><trkpt lat="43.0530445" lon="12.2232683"><ele>240.0</ele><time>2026-03-29T15:46:30.214Z</time></trkpt><trkpt lat="43.0531343" lon="12.2235583"><ele>244.0</ele><time>2026-03-29T15:46:31.198Z</time></trkpt><trkpt lat="43.0532098" lon="12.2238634"><ele>242.5</ele><time>2026-03-29T15:46:32.201Z</time></trkpt><trkpt lat="43.0532965" lon="12.2241676"><ele>241.0</ele><time>2026-03-29T15:46:33.216Z</time></trkpt><trkpt lat="43.0533847" lon="12.2244672"><ele>241.0</ele><time>2026-03-29T15:46:34.203Z</time></trkpt><trkpt lat="43.0534702" lon="12.2247581"><ele>241.0</ele><time>2026-03-29T15:46:35.218Z</time></trkpt><trkpt lat="43.0535379" lon="12.2250196"><ele>241.0</ele><time>2026-03-29T15:46:36.2Z</time></trkpt><trkpt lat="43.0536012" lon="12.2252728"><ele>243.33333333333331</ele><time>2026-03-29T15:46:37.21Z</time></trkpt><trkpt lat="43.053643" lon="12.2255019"><ele>245.66666666666669</ele><time>2026-03-29T15:46:38.2Z</time></trkpt><trkpt lat="43.0536554" lon="12.2257145"><ele>248.0</ele><time>2026-03-29T15:46:39.204Z</time></trkpt><trkpt lat="43.0536376" lon="12.2259125"><ele>247.66666666666669</ele><time>2026-03-29T15:46:40.202Z</time></trkpt><trkpt lat="43.0535962" lon="12.2260972"><ele>247.33333333333331</ele><time>2026-03-29T15:46:41.215Z</time></trkpt><trkpt lat="43.0535113" lon="12.2263248"><ele>247.0</ele><time>2026-03-29T15:46:42.212Z</time></trkpt><trkpt lat="43.053408" lon="12.2265395"><ele>247.0</ele><time>2026-03-29T15:46:43.212Z</time></trkpt><trkpt lat="43.0533302" lon="12.2267662"><ele>247.0</ele><time>2026-03-29T15:46:44.19Z</time></trkpt><trkpt lat="43.0532269" lon="12.2270587"><ele>247.0</ele><time>2026-03-29T15:46:45.221Z</time></trkpt><trkpt lat="43.0531324" lon="12.2273634"><ele>252.0</ele><time>2026-03-29T15:46:46.204Z</time></trkpt><trkpt lat="43.0530474" lon="12.227669"><ele>257.0</ele><time>2026-03-29T15:46:47.201Z</time></trkpt><trkpt lat="43.0529511" lon="12.2280109"><ele>261.0</ele><time>2026-03-29T15:46:48.208Z</time></trkpt><trkpt lat="43.0528594" lon="12.2283531"><ele>265.0</ele><time>2026-03-29T15:46:49.212Z</time></trkpt><trkpt lat="43.0527729" lon="12.228683"><ele>266.5</ele><time>2026-03-29T15:46:50.197Z</time></trkpt><trkpt lat="43.0526772" lon="12.2290225"><ele>268.0</ele><time>2026-03-29T15:46:51.214Z</time></trkpt><trkpt lat="43.0526103" lon="12.229354"><ele>268.0</ele><time>2026-03-29T15:46:52.218Z</time></trkpt><trkpt lat="43.0525466" lon="12.2296756"><ele>268.0</ele><time>2026-03-29T15:46:53.198Z</time></trkpt><trkpt lat="43.0524937" lon="12.2300054"><ele>273.3333333333333</ele><time>2026-03-29T15:46:54.259Z</time></trkpt><trkpt lat="43.0524528" lon="12.2302834"><ele>278.6666666666667</ele><time>2026-03-29T15:46:55.203Z</time></trkpt><trkpt lat="43.052397" lon="12.2305126"><ele>284.0</ele><time>2026-03-29T15:46:56.218Z</time></trkpt><trkpt lat="43.0523233" lon="12.2307034"><ele>284.0</ele><time>2026-03-29T15:46:57.205Z</time></trkpt><trkpt lat="43.0522458" lon="12.2308913"><ele>284.0</ele><time>2026-03-29T15:46:58.211Z</time></trkpt><trkpt lat="43.0521396" lon="12.2311028"><ele>284.0</ele><time>2026-03-29T15:46:59.208Z</time></trkpt><trkpt lat="43.0520213" lon="12.2313045"><ele>283.33333333333337</ele><time>2026-03-29T15:47:00.199Z</time></trkpt><trkpt lat="43.051878" lon="12.2315204"><ele>282.6666666666667</ele><time>2026-03-29T15:47:01.221Z</time></trkpt><trkpt lat="43.0517393" lon="12.2317367"><ele>282.0</ele><time>2026-03-29T15:47:02.201Z</time></trkpt><trkpt lat="43.0515941" lon="12.2319527"><ele>282.0</ele><time>2026-03-29T15:47:03.197Z</time></trkpt><trkpt lat="43.0514437" lon="12.2321743"><ele>282.0</ele><time>2026-03-29T15:47:04.205Z</time></trkpt><trkpt lat="43.0512937" lon="12.2323905"><ele>282.0</ele><time>2026-03-29T15:47:05.212Z</time></trkpt><trkpt lat="43.0511452" lon="12.2326016"><ele>281.0</ele><time>2026-03-29T15:47:06.213Z</time></trkpt><trkpt lat="43.0510015" lon="12.2328018"><ele>280.0</ele><time>2026-03-29T15:47:07.212Z</time></trkpt><trkpt lat="43.0508646" lon="12.2330034"><ele>279.0</ele><time>2026-03-29T15:47:08.21Z</time></trkpt><trkpt lat="43.0507375" lon="12.2332008"><ele>274.6666666666667</ele><time>2026-03-29T15:47:09.212Z</time></trkpt><trkpt lat="43.0506188" lon="12.2333854"><ele>270.33333333333337</ele><time>2026-03-29T15:47:10.198Z</time></trkpt><trkpt lat="43.0505243" lon="12.233569"><ele>266.0</ele><time>2026-03-29T15:47:11.208Z</time></trkpt><trkpt lat="43.0504413" lon="12.2337623"><ele>266.0</ele><time>2026-03-29T15:47:12.225Z</time></trkpt><trkpt lat="43.0504232" lon="12.2338777"><ele>266.0</ele><time>2026-03-29T15:47:13.249Z</time></trkpt><trkpt lat="43.0503931" lon="12.2340862"><ele>266.0</ele><time>2026-03-29T15:47:14.213Z</time></trkpt><trkpt lat="43.0503713" lon="12.2343038"><ele>266.0</ele><time>2026-03-29T15:47:15.22Z</time></trkpt><trkpt lat="43.0503569" lon="12.2344975"><ele>266.2</ele><time>2026-03-29T15:47:16.197Z</time></trkpt><trkpt lat="43.0503241" lon="12.234668"><ele>266.40000000000003</ele><time>2026-03-29T15:47:17.191Z</time></trkpt><trkpt lat="43.0502684" lon="12.234805"><ele>266.6</ele><time>2026-03-29T15:47:18.208Z</time></trkpt><trkpt lat="43.0502048" lon="12.234916"><ele>266.8</ele><time>2026-03-29T15:47:19.204Z</time></trkpt><trkpt lat="43.0501424" lon="12.2349683"><ele>267.0</ele><time>2026-03-29T15:47:21.21Z</time></trkpt><trkpt lat="43.0500638" lon="12.2350347"><ele>269.0</ele><time>2026-03-29T15:47:22.204Z</time></trkpt><trkpt lat="43.0495448" lon="12.2353963"><ele>269.0</ele><time>2026-03-29T15:47:24.245Z</time></trkpt><trkpt lat="43.0493705" lon="12.235358"><ele>269.0</ele><time>2026-03-29T15:47:25.197Z</time></trkpt><trkpt lat="43.0492049" lon="12.2353562"><ele>269.0</ele><time>2026-03-29T15:47:26.226Z</time></trkpt><trkpt lat="43.0490358" lon="12.2354007"><ele>267.6666666666667</ele><time>2026-03-29T15:47:27.191Z</time></trkpt><trkpt lat="43.0488901" lon="12.2354903"><ele>266.3333333333333</ele><time>2026-03-29T15:47:28.202Z</time></trkpt><trkpt lat="43.0487863" lon="12.2355989"><ele>265.0</ele><time>2026-03-29T15:47:29.22Z</time></trkpt><trkpt lat="43.0486434" lon="12.23574"><ele>267.0</ele><time>2026-03-29T15:47:30.206Z</time></trkpt><trkpt lat="43.0484861" lon="12.235886"><ele>269.0</ele><time>2026-03-29T15:47:31.222Z</time></trkpt><trkpt lat="43.0483323" lon="12.2360378"><ele>271.0</ele><time>2026-03-29T15:47:32.202Z</time></trkpt><trkpt lat="43.0481651" lon="12.236217"><ele>271.0</ele><time>2026-03-29T15:47:33.224Z</time></trkpt><trkpt lat="43.0480577" lon="12.2362915"><ele>271.0</ele><time>2026-03-29T15:47:34.206Z</time></trkpt><trkpt lat="43.0478778" lon="12.2364055"><ele>271.0</ele><time>2026-03-29T15:47:35.209Z</time></trkpt><trkpt lat="43.0477127" lon="12.2365034"><ele>270.25</ele><time>2026-03-29T15:47:36.212Z</time></trkpt><trkpt lat="43.0475582" lon="12.2365893"><ele>269.5</ele><time>2026-03-29T15:47:37.212Z</time></trkpt><trkpt lat="43.0474276" lon="12.2366163"><ele>268.75</ele><time>2026-03-29T15:47:38.211Z</time></trkpt><trkpt lat="43.0473344" lon="12.2366291"><ele>268.0</ele><time>2026-03-29T15:47:39.222Z</time></trkpt><trkpt lat="43.047192" lon="12.2365604"><ele>268.0</ele><time>2026-03-29T15:47:41.212Z</time></trkpt><trkpt lat="43.0470965" lon="12.2365321"><ele>268.0</ele><time>2026-03-29T15:47:42.202Z</time></trkpt><trkpt lat="43.0469752" lon="12.2365106"><ele>268.0</ele><time>2026-03-29T15:47:43.212Z</time></trkpt><trkpt lat="43.0468043" lon="12.2365431"><ele>268.0</ele><time>2026-03-29T15:47:44.258Z</time></trkpt><trkpt lat="43.0466734" lon="12.2366257"><ele>264.5</ele><time>2026-03-29T15:47:45.205Z</time></trkpt><trkpt lat="43.0464442" lon="12.2366434"><ele>261.0</ele><time>2026-03-29T15:47:46.216Z</time></trkpt><trkpt lat="43.0462203" lon="12.2366537"><ele>268.0</ele><time>2026-03-29T15:47:47.2Z</time></trkpt><trkpt lat="43.0469975" lon="12.2372485"><ele>268.0</ele><time>2026-03-29T15:47:48.208Z</time></trkpt><trkpt lat="43.0469382" lon="12.2374175"><ele>268.0</ele><time>2026-03-29T15:47:49.218Z</time></trkpt><trkpt lat="43.0468733" lon="12.2376022"><ele>268.0</ele><time>2026-03-29T15:47:50.189Z</time></trkpt><trkpt lat="43.046803" lon="12.2377816"><ele>268.0</ele><time>2026-03-29T15:47:51.209Z</time></trkpt><trkpt lat="43.0467407" lon="12.237951"><ele>268.0</ele><time>2026-03-29T15:47:52.214Z</time></trkpt><trkpt lat="43.0466881" lon="12.2381053"><ele>268.0</ele><time>2026-03-29T15:47:53.21Z</time></trkpt><trkpt lat="43.0466369" lon="12.2382558"><ele>268.0</ele><time>2026-03-29T15:47:54.2Z</time></trkpt><trkpt lat="43.0465704" lon="12.2383983"><ele>268.0</ele><time>2026-03-29T15:47:55.24Z</time></trkpt><trkpt lat="43.0465165" lon="12.2384927"><ele>267.25</ele><time>2026-03-29T15:47:56.215Z</time></trkpt><trkpt lat="43.0464208" lon="12.2385673"><ele>266.5</ele><time>2026-03-29T15:47:57.215Z</time></trkpt><trkpt lat="43.0462965" lon="12.2386129"><ele>265.75</ele><time>2026-03-29T15:47:58.205Z</time></trkpt><trkpt lat="43.0461619" lon="12.2386287"><ele>265.0</ele><time>2026-03-29T15:47:59.238Z</time></trkpt><trkpt lat="43.0460283" lon="12.2386035"><ele>265.0</ele><time>2026-03-29T15:48:00.202Z</time></trkpt><trkpt lat="43.0459256" lon="12.2385308"><ele>265.0</ele><time>2026-03-29T15:48:01.216Z</time></trkpt><trkpt lat="43.0457971" lon="12.2384146"><ele>265.0</ele><time>2026-03-29T15:48:02.231Z</time></trkpt><trkpt lat="43.0456834" lon="12.2383094"><ele>265.0</ele><time>2026-03-29T15:48:03.2Z</time></trkpt><trkpt lat="43.0455815" lon="12.2382075"><ele>263.25</ele><time>2026-03-29T15:48:04.194Z</time></trkpt><trkpt lat="43.0454936" lon="12.2380905"><ele>261.5</ele><time>2026-03-29T15:48:05.217Z</time></trkpt><trkpt lat="43.0454365" lon="12.2379712"><ele>259.75</ele><time>2026-03-29T15:48:06.198Z</time></trkpt><trkpt lat="43.0454369" lon="12.2378365"><ele>258.0</ele><time>2026-03-29T15:48:08.22Z</time></trkpt><trkpt lat="43.0455526" lon="12.2375975"><ele>258.0</ele><time>2026-03-29T15:48:10.242Z</time></trkpt><trkpt lat="43.045643" lon="12.23754"><ele>258.0</ele><time>2026-03-29T15:48:11.203Z</time></trkpt><trkpt lat="43.0457549" lon="12.2375163"><ele>258.0</ele><time>2026-03-29T15:48:12.203Z</time></trkpt><trkpt lat="43.0459338" lon="12.2375251"><ele>258.0</ele><time>2026-03-29T15:48:13.218Z</time></trkpt><trkpt lat="43.0461269" lon="12.23758"><ele>259.0</ele><time>2026-03-29T15:48:14.216Z</time></trkpt><trkpt lat="43.0461985" lon="12.2375688"><ele>260.0</ele><time>2026-03-29T15:48:15.21Z</time></trkpt><trkpt lat="43.0464164" lon="12.2376448"><ele>261.0</ele><time>2026-03-29T15:48:16.22Z</time></trkpt><trkpt lat="43.0466235" lon="12.2377319"><ele>263.3333333333333</ele><time>2026-03-29T15:48:17.207Z</time></trkpt><trkpt lat="43.0468104" lon="12.2378085"><ele>265.66666666666663</ele><time>2026-03-29T15:48:18.211Z</time></trkpt><trkpt lat="43.0470038" lon="12.2378943"><ele>268.0</ele><time>2026-03-29T15:48:19.255Z</time></trkpt><trkpt lat="43.0471517" lon="12.2380222"><ele>268.3333333333333</ele><time>2026-03-29T15:48:20.2Z</time></trkpt><trkpt lat="43.0473439" lon="12.2381495"><ele>268.6666666666667</ele><time>2026-03-29T15:48:21.224Z</time></trkpt><trkpt lat="43.0474863" lon="12.2382866"><ele>269.0</ele><time>2026-03-29T15:48:22.216Z</time></trkpt><trkpt lat="43.0476315" lon="12.2384472"><ele>270.33333333333337</ele><time>2026-03-29T15:48:23.199Z</time></trkpt><trkpt lat="43.0477417" lon="12.2385695"><ele>271.6666666666667</ele><time>2026-03-29T15:48:24.198Z</time></trkpt><trkpt lat="43.0479178" lon="12.2387537"><ele>273.0</ele><time>2026-03-29T15:48:25.229Z</time></trkpt><trkpt lat="43.0480826" lon="12.2389248"><ele>273.0</ele><time>2026-03-29T15:48:26.195Z</time></trkpt><trkpt lat="43.0482494" lon="12.2390742"><ele>273.0</ele><time>2026-03-29T15:48:27.21Z</time></trkpt><trkpt lat="43.04844" lon="12.2392265"><ele>273.0</ele><time>2026-03-29T15:48:28.214Z</time></trkpt><trkpt lat="43.0486128" lon="12.2393412"><ele>272.0</ele><time>2026-03-29T15:48:29.217Z</time></trkpt><trkpt lat="43.0487913" lon="12.2394565"><ele>271.0</ele><time>2026-03-29T15:48:30.206Z</time></trkpt><trkpt lat="43.048974" lon="12.2395719"><ele>270.0</ele><time>2026-03-29T15:48:31.203Z</time></trkpt><trkpt lat="43.0491415" lon="12.2396513"><ele>270.0</ele><time>2026-03-29T15:48:32.202Z</time></trkpt><trkpt lat="43.0493153" lon="12.2397498"><ele>270.0</ele><time>2026-03-29T15:48:33.192Z</time></trkpt><trkpt lat="43.0495051" lon="12.2398763"><ele>270.0</ele><time>2026-03-29T15:48:34.24Z</time></trkpt><trkpt lat="43.0496794" lon="12.2400062"><ele>267.6666666666667</ele><time>2026-03-29T15:48:35.215Z</time></trkpt><trkpt lat="43.0498451" lon="12.2401395"><ele>265.33333333333337</ele><time>2026-03-29T15:48:36.201Z</time></trkpt><trkpt lat="43.0500091" lon="12.2402748"><ele>263.0</ele><time>2026-03-29T15:48:37.217Z</time></trkpt><trkpt lat="43.0501661" lon="12.2403995"><ele>262.33333333333337</ele><time>2026-03-29T15:48:38.203Z</time></trkpt><trkpt lat="43.050334" lon="12.2405232"><ele>261.6666666666667</ele><time>2026-03-29T15:48:39.209Z</time></trkpt><trkpt lat="43.0505086" lon="12.2406325"><ele>261.0</ele><time>2026-03-29T15:48:40.201Z</time></trkpt><trkpt lat="43.0506934" lon="12.240706"><ele>257.3333333333333</ele><time>2026-03-29T15:48:41.215Z</time></trkpt><trkpt lat="43.0508856" lon="12.2407628"><ele>253.66666666666666</ele><time>2026-03-29T15:48:42.205Z</time></trkpt><trkpt lat="43.0510736" lon="12.2408124"><ele>250.0</ele><time>2026-03-29T15:48:43.209Z</time></trkpt><trkpt lat="43.051259" lon="12.2408453"><ele>250.0</ele><time>2026-03-29T15:48:44.215Z</time></trkpt><trkpt lat="43.0514264" lon="12.2408707"><ele>250.0</ele><time>2026-03-29T15:48:45.206Z</time></trkpt><trkpt lat="43.0515209" lon="12.2408846"><ele>250.0</ele><time>2026-03-29T15:48:46.193Z</time></trkpt><trkpt lat="43.0516445" lon="12.2409191"><ele>250.0</ele><time>2026-03-29T15:48:47.222Z</time></trkpt><trkpt lat="43.0517287" lon="12.2409651"><ele>250.0</ele><time>2026-03-29T15:48:48.215Z</time></trkpt><trkpt lat="43.0518947" lon="12.2410951"><ele>250.0</ele><time>2026-03-29T15:48:49.207Z</time></trkpt><trkpt lat="43.0519417" lon="12.2412034"><ele>250.0</ele><time>2026-03-29T15:48:51.209Z</time></trkpt><trkpt lat="43.0519452" lon="12.2415289"><ele>247.33333333333331</ele><time>2026-03-29T15:48:52.192Z</time></trkpt><trkpt lat="43.0519325" lon="12.24175"><ele>244.66666666666669</ele><time>2026-03-29T15:48:53.248Z</time></trkpt><trkpt lat="43.0518734" lon="12.2420085"><ele>242.0</ele><time>2026-03-29T15:48:54.228Z</time></trkpt><trkpt lat="43.0517802" lon="12.2423443"><ele>240.0</ele><time>2026-03-29T15:48:55.2Z</time></trkpt><trkpt lat="43.0516692" lon="12.2426784"><ele>238.0</ele><time>2026-03-29T15:48:56.255Z</time></trkpt><trkpt lat="43.0515921" lon="12.2429808"><ele>238.0</ele><time>2026-03-29T15:48:57.194Z</time></trkpt><trkpt lat="43.0515816" lon="12.2431306"><ele>238.0</ele><time>2026-03-29T15:48:58.271Z</time></trkpt><trkpt lat="43.0515551" lon="12.2434195"><ele>238.0</ele><time>2026-03-29T15:48:59.262Z</time></trkpt><trkpt lat="43.0515554" lon="12.2436952"><ele>237.33333333333331</ele><time>2026-03-29T15:49:00.21Z</time></trkpt><trkpt lat="43.0515812" lon="12.2438489"><ele>236.66666666666669</ele><time>2026-03-29T15:49:01.244Z</time></trkpt><trkpt lat="43.0516092" lon="12.2440728"><ele>236.0</ele><time>2026-03-29T15:49:02.218Z</time></trkpt><trkpt lat="43.0516316" lon="12.2443054"><ele>236.0</ele><time>2026-03-29T15:49:03.207Z</time></trkpt><trkpt lat="43.0516739" lon="12.2445757"><ele>236.0</ele><time>2026-03-29T15:49:04.225Z</time></trkpt><trkpt lat="43.0517169" lon="12.2448444"><ele>236.0</ele><time>2026-03-29T15:49:05.213Z</time></trkpt><trkpt lat="43.0517724" lon="12.2451087"><ele>235.0</ele><time>2026-03-29T15:49:06.19Z</time></trkpt><trkpt lat="43.0518437" lon="12.2453713"><ele>234.0</ele><time>2026-03-29T15:49:07.192Z</time></trkpt><trkpt lat="43.0519089" lon="12.2456564"><ele>233.0</ele><time>2026-03-29T15:49:08.209Z</time></trkpt><trkpt lat="43.0519676" lon="12.2459352"><ele>232.66666666666669</ele><time>2026-03-29T15:49:09.208Z</time></trkpt><trkpt lat="43.0520214" lon="12.2462303"><ele>232.33333333333331</ele><time>2026-03-29T15:49:10.222Z</time></trkpt><trkpt lat="43.0520709" lon="12.2465323"><ele>232.0</ele><time>2026-03-29T15:49:11.195Z</time></trkpt><trkpt lat="43.0521233" lon="12.246877"><ele>231.5</ele><time>2026-03-29T15:49:12.23Z</time></trkpt><trkpt lat="43.0521694" lon="12.2471989"><ele>231.0</ele><time>2026-03-29T15:49:13.193Z</time></trkpt><trkpt lat="43.0522194" lon="12.2475353"><ele>232.5</ele><time>2026-03-29T15:49:14.214Z</time></trkpt><trkpt lat="43.0522748" lon="12.2478482"><ele>234.0</ele><time>2026-03-29T15:49:15.211Z</time></trkpt><trkpt lat="43.0523435" lon="12.2481626"><ele>236.0</ele><time>2026-03-29T15:49:16.199Z</time></trkpt><trkpt lat="43.0524119" lon="12.2484721"><ele>238.0</ele><time>2026-03-29T15:49:17.215Z</time></trkpt><trkpt lat="43.0524791" lon="12.2487624"><ele>231.5</ele><time>2026-03-29T15:49:18.21Z</time></trkpt><trkpt lat="43.0525533" lon="12.2490624"><ele>225.0</ele><time>2026-03-29T15:49:19.204Z</time></trkpt><trkpt lat="43.0526232" lon="12.2493686"><ele>225.0</ele><time>2026-03-29T15:49:20.224Z</time></trkpt><trkpt lat="43.0526866" lon="12.2496688"><ele>225.0</ele><time>2026-03-29T15:49:21.213Z</time></trkpt><trkpt lat="43.0527552" lon="12.2499722"><ele>224.66666666666669</ele><time>2026-03-29T15:49:22.218Z</time></trkpt><trkpt lat="43.0528125" lon="12.2502661"><ele>224.33333333333334</ele><time>2026-03-29T15:49:23.216Z</time></trkpt><trkpt lat="43.0528749" lon="12.2505634"><ele>224.0</ele><time>2026-03-29T15:49:24.227Z</time></trkpt><trkpt lat="43.0529366" lon="12.2508511"><ele>223.0</ele><time>2026-03-29T15:49:25.206Z</time></trkpt><trkpt lat="43.0530019" lon="12.2511578"><ele>222.0</ele><time>2026-03-29T15:49:26.213Z</time></trkpt><trkpt lat="43.0530623" lon="12.2514651"><ele>221.5</ele><time>2026-03-29T15:49:27.206Z</time></trkpt><trkpt lat="43.053127" lon="12.2517779"><ele>221.0</ele><time>2026-03-29T15:49:28.213Z</time></trkpt><trkpt lat="43.0531893" lon="12.2520808"><ele>220.0</ele><time>2026-03-29T15:49:29.206Z</time></trkpt><trkpt lat="43.0532553" lon="12.2523867"><ele>219.0</ele><time>2026-03-29T15:49:30.22Z</time></trkpt><trkpt lat="43.053321" lon="12.2526831"><ele>219.0</ele><time>2026-03-29T15:49:31.212Z</time></trkpt><trkpt lat="43.0533975" lon="12.2529863"><ele>219.0</ele><time>2026-03-29T15:49:32.207Z</time></trkpt><trkpt lat="43.0534658" lon="12.2533161"><ele>218.5</ele><time>2026-03-29T15:49:33.222Z</time></trkpt><trkpt lat="43.0535364" lon="12.2536453"><ele>218.0</ele><time>2026-03-29T15:49:34.206Z</time></trkpt><trkpt lat="43.0536056" lon="12.2539824"><ele>217.0</ele><time>2026-03-29T15:49:35.2Z</time></trkpt><trkpt lat="43.0536762" lon="12.2543151"><ele>216.0</ele><time>2026-03-29T15:49:36.201Z</time></trkpt><trkpt lat="43.0537477" lon="12.2546502"><ele>216.0</ele><time>2026-03-29T15:49:37.198Z</time></trkpt><trkpt lat="43.0538105" lon="12.254989"><ele>216.0</ele><time>2026-03-29T15:49:38.205Z</time></trkpt><trkpt lat="43.0538754" lon="12.2553205"><ele>216.5</ele><time>2026-03-29T15:49:39.212Z</time></trkpt><trkpt lat="43.0539384" lon="12.2556417"><ele>217.0</ele><time>2026-03-29T15:49:40.223Z</time></trkpt><trkpt lat="43.0540053" lon="12.2559598"><ele>217.0</ele><time>2026-03-29T15:49:41.223Z</time></trkpt><trkpt lat="43.0540692" lon="12.2562623"><ele>217.0</ele><time>2026-03-29T15:49:42.202Z</time></trkpt><trkpt lat="43.0541288" lon="12.2565716"><ele>217.0</ele><time>2026-03-29T15:49:43.218Z</time></trkpt><trkpt lat="43.0541876" lon="12.2568667"><ele>217.0</ele><time>2026-03-29T15:49:44.222Z</time></trkpt><trkpt lat="43.0542431" lon="12.2571512"><ele>217.0</ele><time>2026-03-29T15:49:45.21Z</time></trkpt><trkpt lat="43.0543004" lon="12.2574372"><ele>216.66666666666666</ele><time>2026-03-29T15:49:46.208Z</time></trkpt><trkpt lat="43.0543574" lon="12.2577208"><ele>216.33333333333331</ele><time>2026-03-29T15:49:47.243Z</time></trkpt><trkpt lat="43.0544085" lon="12.2579675"><ele>216.0</ele><time>2026-03-29T15:49:48.203Z</time></trkpt><trkpt lat="43.0544624" lon="12.2582185"><ele>215.66666666666669</ele><time>2026-03-29T15:49:49.223Z</time></trkpt><trkpt lat="43.0545034" lon="12.2584436"><ele>215.33333333333334</ele><time>2026-03-29T15:49:50.198Z</time></trkpt><trkpt lat="43.0545346" lon="12.2586561"><ele>215.0</ele><time>2026-03-29T15:49:51.21Z</time></trkpt><trkpt lat="43.0545507" lon="12.2588446"><ele>214.75</ele><time>2026-03-29T15:49:52.2Z</time></trkpt><trkpt lat="43.0545486" lon="12.2590105"><ele>214.5</ele><time>2026-03-29T15:49:53.203Z</time></trkpt><trkpt lat="43.0545252" lon="12.2591766"><ele>214.25</ele><time>2026-03-29T15:49:55.202Z</time></trkpt><trkpt lat="43.0545178" lon="12.2593064"><ele>214.0</ele><time>2026-03-29T15:49:56.216Z</time></trkpt><trkpt lat="43.0544876" lon="12.2594736"><ele>214.0</ele><time>2026-03-29T15:49:57.21Z</time></trkpt><trkpt lat="43.0545142" lon="12.2596064"><ele>213.99999999999997</ele><time>2026-03-29T15:49:58.216Z</time></trkpt><trkpt lat="43.0545589" lon="12.2597478"><ele>213.99999999999997</ele><time>2026-03-29T15:49:59.211Z</time></trkpt><trkpt lat="43.0546074" lon="12.2598879"><ele>214.0</ele><time>2026-03-29T15:50:00.208Z</time></trkpt><trkpt lat="43.0546073" lon="12.2600228"><ele>214.0</ele><time>2026-03-29T15:50:01.2Z</time></trkpt><trkpt lat="43.0545835" lon="12.2601872"><ele>214.25</ele><time>2026-03-29T15:50:02.226Z</time></trkpt><trkpt lat="43.0545511" lon="12.2604121"><ele>214.5</ele><time>2026-03-29T15:50:03.206Z</time></trkpt><trkpt lat="43.054518" lon="12.2605474"><ele>214.75</ele><time>2026-03-29T15:50:04.207Z</time></trkpt><trkpt lat="43.0544906" lon="12.2606847"><ele>215.0</ele><time>2026-03-29T15:50:05.197Z</time></trkpt><trkpt lat="43.0549908" lon="12.2607468"><ele>215.0</ele><time>2026-03-29T15:50:06.206Z</time></trkpt><trkpt lat="43.0550378" lon="12.2609759"><ele>215.0</ele><time>2026-03-29T15:50:07.209Z</time></trkpt><trkpt lat="43.0550894" lon="12.2612078"><ele>215.0</ele><time>2026-03-29T15:50:08.198Z</time></trkpt><trkpt lat="43.0551476" lon="12.261459"><ele>215.0</ele><time>2026-03-29T15:50:09.207Z</time></trkpt><trkpt lat="43.0551996" lon="12.2617228"><ele>215.0</ele><time>2026-03-29T15:50:10.218Z</time></trkpt><trkpt lat="43.0552633" lon="12.2620033"><ele>215.0</ele><time>2026-03-29T15:50:11.197Z</time></trkpt><trkpt lat="43.0553299" lon="12.2623069"><ele>215.0</ele><time>2026-03-29T15:50:12.217Z</time></trkpt><trkpt lat="43.0553914" lon="12.2625917"><ele>215.0</ele><time>2026-03-29T15:50:13.198Z</time></trkpt><trkpt lat="43.0554594" lon="12.2628887"><ele>215.0</ele><time>2026-03-29T15:50:14.206Z</time></trkpt><trkpt lat="43.0555201" lon="12.2631767"><ele>215.0</ele><time>2026-03-29T15:50:15.209Z</time></trkpt><trkpt lat="43.0555818" lon="12.2634641"><ele>215.0</ele><time>2026-03-29T15:50:16.213Z</time></trkpt><trkpt lat="43.0556468" lon="12.263753"><ele>215.0</ele><time>2026-03-29T15:50:17.212Z</time></trkpt><trkpt lat="43.0557032" lon="12.2640362"><ele>215.33333333333334</ele><time>2026-03-29T15:50:18.211Z</time></trkpt><trkpt lat="43.0557572" lon="12.2643234"><ele>215.66666666666669</ele><time>2026-03-29T15:50:19.221Z</time></trkpt><trkpt lat="43.0558178" lon="12.2646129"><ele>216.0</ele><time>2026-03-29T15:50:20.215Z</time></trkpt><trkpt lat="43.0558784" lon="12.2649036"><ele>216.0</ele><time>2026-03-29T15:50:21.228Z</time></trkpt><trkpt lat="43.0559392" lon="12.2651734"><ele>216.0</ele><time>2026-03-29T15:50:22.226Z</time></trkpt><trkpt lat="43.055996" lon="12.2654355"><ele>216.0</ele><time>2026-03-29T15:50:23.207Z</time></trkpt><trkpt lat="43.0560521" lon="12.2657053"><ele>216.0</ele><time>2026-03-29T15:50:24.223Z</time></trkpt><trkpt lat="43.0561167" lon="12.2659687"><ele>216.0</ele><time>2026-03-29T15:50:25.214Z</time></trkpt><trkpt lat="43.0561711" lon="12.2662387"><ele>216.0</ele><time>2026-03-29T15:50:26.229Z</time></trkpt><trkpt lat="43.0562273" lon="12.2665089"><ele>215.66666666666669</ele><time>2026-03-29T15:50:27.224Z</time></trkpt><trkpt lat="43.0562863" lon="12.2667887"><ele>215.33333333333334</ele><time>2026-03-29T15:50:28.217Z</time></trkpt><trkpt lat="43.0563468" lon="12.2670709"><ele>215.0</ele><time>2026-03-29T15:50:29.209Z</time></trkpt><trkpt lat="43.0564103" lon="12.267354"><ele>215.0</ele><time>2026-03-29T15:50:30.228Z</time></trkpt><trkpt lat="43.0564674" lon="12.2676314"><ele>215.0</ele><time>2026-03-29T15:50:31.206Z</time></trkpt><trkpt lat="43.0565237" lon="12.2679014"><ele>215.0</ele><time>2026-03-29T15:50:32.203Z</time></trkpt><trkpt lat="43.0565828" lon="12.268172"><ele>215.0</ele><time>2026-03-29T15:50:33.211Z</time></trkpt><trkpt lat="43.056645" lon="12.2684267"><ele>215.0</ele><time>2026-03-29T15:50:34.206Z</time></trkpt><trkpt lat="43.056715" lon="12.2686868"><ele>215.0</ele><time>2026-03-29T15:50:35.216Z</time></trkpt><trkpt lat="43.0567895" lon="12.26894"><ele>214.33333333333334</ele><time>2026-03-29T15:50:36.211Z</time></trkpt><trkpt lat="43.056882" lon="12.2691783"><ele>213.66666666666669</ele><time>2026-03-29T15:50:37.211Z</time></trkpt><trkpt lat="43.0569852" lon="12.2694137"><ele>213.0</ele><time>2026-03-29T15:50:38.234Z</time></trkpt><trkpt lat="43.0570843" lon="12.269645"><ele>212.33333333333331</ele><time>2026-03-29T15:50:39.24Z</time></trkpt><trkpt lat="43.0571981" lon="12.269856"><ele>211.66666666666666</ele><time>2026-03-29T15:50:40.222Z</time></trkpt><trkpt lat="43.0573096" lon="12.2700654"><ele>211.0</ele><time>2026-03-29T15:50:41.211Z</time></trkpt><trkpt lat="43.0574235" lon="12.2702611"><ele>211.33333333333331</ele><time>2026-03-29T15:50:42.223Z</time></trkpt><trkpt lat="43.0575467" lon="12.2704401"><ele>211.66666666666669</ele><time>2026-03-29T15:50:43.204Z</time></trkpt><trkpt lat="43.0576834" lon="12.2706316"><ele>212.0</ele><time>2026-03-29T15:50:44.258Z</time></trkpt><trkpt lat="43.0578138" lon="12.270808"><ele>212.0</ele><time>2026-03-29T15:50:45.211Z</time></trkpt><trkpt lat="43.0579672" lon="12.2710087"><ele>212.0</ele><time>2026-03-29T15:50:46.219Z</time></trkpt><trkpt lat="43.0581233" lon="12.2712227"><ele>212.0</ele><time>2026-03-29T15:50:47.204Z</time></trkpt><trkpt lat="43.0582752" lon="12.271449"><ele>213.0</ele><time>2026-03-29T15:50:48.189Z</time></trkpt><trkpt lat="43.0584324" lon="12.2716851"><ele>214.0</ele><time>2026-03-29T15:50:49.227Z</time></trkpt><trkpt lat="43.0586028" lon="12.2719169"><ele>214.0</ele><time>2026-03-29T15:50:50.253Z</time></trkpt><trkpt lat="43.058764" lon="12.2721347"><ele>214.0</ele><time>2026-03-29T15:50:51.237Z</time></trkpt><trkpt lat="43.0589057" lon="12.2723424"><ele>214.0</ele><time>2026-03-29T15:50:52.203Z</time></trkpt><trkpt lat="43.0590593" lon="12.2725604"><ele>213.66666666666666</ele><time>2026-03-29T15:50:53.234Z</time></trkpt><trkpt lat="43.0592032" lon="12.2727657"><ele>213.33333333333331</ele><time>2026-03-29T15:50:54.23Z</time></trkpt><trkpt lat="43.0593408" lon="12.2729629"><ele>213.0</ele><time>2026-03-29T15:50:55.217Z</time></trkpt><trkpt lat="43.0594685" lon="12.2731622"><ele>213.0</ele><time>2026-03-29T15:50:56.234Z</time></trkpt><trkpt lat="43.0595829" lon="12.2733533"><ele>213.0</ele><time>2026-03-29T15:50:57.217Z</time></trkpt><trkpt lat="43.0596909" lon="12.2735471"><ele>213.0</ele><time>2026-03-29T15:50:58.222Z</time></trkpt><trkpt lat="43.0597875" lon="12.2737439"><ele>212.66666666666669</ele><time>2026-03-29T15:50:59.21Z</time></trkpt><trkpt lat="43.0598786" lon="12.2739511"><ele>212.33333333333334</ele><time>2026-03-29T15:51:00.205Z</time></trkpt><trkpt lat="43.059961" lon="12.274162"><ele>212.0</ele><time>2026-03-29T15:51:01.203Z</time></trkpt><trkpt lat="43.0600308" lon="12.2743742"><ele>212.0</ele><time>2026-03-29T15:51:02.228Z</time></trkpt><trkpt lat="43.0600808" lon="12.2745568"><ele>212.0</ele><time>2026-03-29T15:51:03.212Z</time></trkpt><trkpt lat="43.0601239" lon="12.2747423"><ele>212.0</ele><time>2026-03-29T15:51:04.23Z</time></trkpt><trkpt lat="43.0601629" lon="12.2749198"><ele>212.0</ele><time>2026-03-29T15:51:05.22Z</time></trkpt><trkpt lat="43.0602077" lon="12.2750878"><ele>212.0</ele><time>2026-03-29T15:51:06.228Z</time></trkpt><trkpt lat="43.060247" lon="12.2752445"><ele>212.0</ele><time>2026-03-29T15:51:07.209Z</time></trkpt><trkpt lat="43.0602896" lon="12.2753864"><ele>212.0</ele><time>2026-03-29T15:51:08.208Z</time></trkpt><trkpt lat="43.0603364" lon="12.2756442"><ele>212.0</ele><time>2026-03-29T15:51:10.204Z</time></trkpt><trkpt lat="43.0603312" lon="12.2757707"><ele>212.0</ele><time>2026-03-29T15:51:11.216Z</time></trkpt><trkpt lat="43.0603236" lon="12.2759029"><ele>212.0</ele><time>2026-03-29T15:51:12.218Z</time></trkpt><trkpt lat="43.0603261" lon="12.2760482"><ele>212.0</ele><time>2026-03-29T15:51:13.206Z</time></trkpt><trkpt lat="43.0603307" lon="12.2762091"><ele>212.0</ele><time>2026-03-29T15:51:14.236Z</time></trkpt><trkpt lat="43.0603237" lon="12.2763731"><ele>212.0</ele><time>2026-03-29T15:51:15.2Z</time></trkpt><trkpt lat="43.0602961" lon="12.2765657"><ele>212.0</ele><time>2026-03-29T15:51:16.207Z</time></trkpt><trkpt lat="43.0602616" lon="12.2767768"><ele>212.0</ele><time>2026-03-29T15:51:17.214Z</time></trkpt><trkpt lat="43.0602236" lon="12.2770071"><ele>212.0</ele><time>2026-03-29T15:51:18.214Z</time></trkpt><trkpt lat="43.0601753" lon="12.277262"><ele>211.66666666666669</ele><time>2026-03-29T15:51:19.202Z</time></trkpt><trkpt lat="43.0601256" lon="12.2775287"><ele>211.33333333333331</ele><time>2026-03-29T15:51:20.213Z</time></trkpt><trkpt lat="43.060078" lon="12.2777992"><ele>211.0</ele><time>2026-03-29T15:51:21.206Z</time></trkpt><trkpt lat="43.0600262" lon="12.278083"><ele>211.0</ele><time>2026-03-29T15:51:22.225Z</time></trkpt><trkpt lat="43.0599773" lon="12.2783723"><ele>211.0</ele><time>2026-03-29T15:51:23.207Z</time></trkpt><trkpt lat="43.0599242" lon="12.2786919"><ele>211.0</ele><time>2026-03-29T15:51:24.211Z</time></trkpt><trkpt lat="43.059857" lon="12.2790138"><ele>211.0</ele><time>2026-03-29T15:51:25.217Z</time></trkpt><trkpt lat="43.0597887" lon="12.279331"><ele>211.0</ele><time>2026-03-29T15:51:26.213Z</time></trkpt><trkpt lat="43.0597215" lon="12.2796522"><ele>211.0</ele><time>2026-03-29T15:51:27.208Z</time></trkpt><trkpt lat="43.0596493" lon="12.2799769"><ele>211.5</ele><time>2026-03-29T15:51:28.21Z</time></trkpt><trkpt lat="43.0595863" lon="12.2802886"><ele>212.0</ele><time>2026-03-29T15:51:29.197Z</time></trkpt><trkpt lat="43.0595165" lon="12.2806165"><ele>212.0</ele><time>2026-03-29T15:51:30.223Z</time></trkpt><trkpt lat="43.0594429" lon="12.280942"><ele>212.0</ele><time>2026-03-29T15:51:31.212Z</time></trkpt><trkpt lat="43.0593661" lon="12.2812614"><ele>212.0</ele><time>2026-03-29T15:51:32.207Z</time></trkpt><trkpt lat="43.0592879" lon="12.2815817"><ele>212.0</ele><time>2026-03-29T15:51:33.193Z</time></trkpt><trkpt lat="43.0592101" lon="12.2819104"><ele>212.0</ele><time>2026-03-29T15:51:34.232Z</time></trkpt><trkpt lat="43.0591377" lon="12.2822125"><ele>212.0</ele><time>2026-03-29T15:51:35.206Z</time></trkpt><trkpt lat="43.0590611" lon="12.2825285"><ele>212.5</ele><time>2026-03-29T15:51:36.225Z</time></trkpt><trkpt lat="43.0589862" lon="12.2828389"><ele>213.0</ele><time>2026-03-29T15:51:37.206Z</time></trkpt><trkpt lat="43.0589129" lon="12.2831475"><ele>213.0</ele><time>2026-03-29T15:51:38.194Z</time></trkpt><trkpt lat="43.0588394" lon="12.2834714"><ele>213.0</ele><time>2026-03-29T15:51:39.243Z</time></trkpt><trkpt lat="43.0587708" lon="12.2837671"><ele>213.0</ele><time>2026-03-29T15:51:40.211Z</time></trkpt><trkpt lat="43.0587078" lon="12.2840664"><ele>213.0</ele><time>2026-03-29T15:51:41.209Z</time></trkpt><trkpt lat="43.0586608" lon="12.284363"><ele>213.0</ele><time>2026-03-29T15:51:42.201Z</time></trkpt><trkpt lat="43.0586256" lon="12.2846688"><ele>213.5</ele><time>2026-03-29T15:51:43.201Z</time></trkpt><trkpt lat="43.0586037" lon="12.284988"><ele>214.0</ele><time>2026-03-29T15:51:44.222Z</time></trkpt><trkpt lat="43.0585982" lon="12.2852986"><ele>214.0</ele><time>2026-03-29T15:51:45.222Z</time></trkpt><trkpt lat="43.0586109" lon="12.2856195"><ele>214.0</ele><time>2026-03-29T15:51:46.211Z</time></trkpt><trkpt lat="43.0586412" lon="12.2859481"><ele>214.0</ele><time>2026-03-29T15:51:47.21Z</time></trkpt><trkpt lat="43.0586893" lon="12.2862694"><ele>214.0</ele><time>2026-03-29T15:51:48.197Z</time></trkpt><trkpt lat="43.0587521" lon="12.2866016"><ele>214.5</ele><time>2026-03-29T15:51:49.222Z</time></trkpt><trkpt lat="43.0588225" lon="12.286926"><ele>215.0</ele><time>2026-03-29T15:51:50.22Z</time></trkpt><trkpt lat="43.0588938" lon="12.2872465"><ele>216.5</ele><time>2026-03-29T15:51:51.213Z</time></trkpt><trkpt lat="43.0589674" lon="12.287553"><ele>218.0</ele><time>2026-03-29T15:51:52.204Z</time></trkpt><trkpt lat="43.0590433" lon="12.2878561"><ele>218.0</ele><time>2026-03-29T15:51:53.196Z</time></trkpt><trkpt lat="43.0591223" lon="12.2881692"><ele>218.0</ele><time>2026-03-29T15:51:54.22Z</time></trkpt><trkpt lat="43.0591961" lon="12.2884787"><ele>218.0</ele><time>2026-03-29T15:51:55.205Z</time></trkpt><trkpt lat="43.0592723" lon="12.2887953"><ele>218.0</ele><time>2026-03-29T15:51:56.194Z</time></trkpt><trkpt lat="43.0593474" lon="12.2891104"><ele>218.5</ele><time>2026-03-29T15:51:57.199Z</time></trkpt><trkpt lat="43.0594245" lon="12.2894278"><ele>219.0</ele><time>2026-03-29T15:51:58.215Z</time></trkpt><trkpt lat="43.059501" lon="12.2897253"><ele>220.0</ele><time>2026-03-29T15:51:59.202Z</time></trkpt><trkpt lat="43.0595755" lon="12.2900166"><ele>221.0</ele><time>2026-03-29T15:52:00.203Z</time></trkpt><trkpt lat="43.0596488" lon="12.2903037"><ele>222.0</ele><time>2026-03-29T15:52:01.226Z</time></trkpt><trkpt lat="43.0597185" lon="12.2905699"><ele>222.33333333333331</ele><time>2026-03-29T15:52:02.212Z</time></trkpt><trkpt lat="43.0597887" lon="12.2908476"><ele>222.66666666666666</ele><time>2026-03-29T15:52:03.221Z</time></trkpt><trkpt lat="43.059857" lon="12.2911267"><ele>223.0</ele><time>2026-03-29T15:52:04.217Z</time></trkpt><trkpt lat="43.0599235" lon="12.2914034"><ele>223.66666666666666</ele><time>2026-03-29T15:52:05.223Z</time></trkpt><trkpt lat="43.0599826" lon="12.2916584"><ele>224.33333333333331</ele><time>2026-03-29T15:52:06.211Z</time></trkpt><trkpt lat="43.0600428" lon="12.2919053"><ele>225.0</ele><time>2026-03-29T15:52:07.211Z</time></trkpt><trkpt lat="43.0601066" lon="12.2921478"><ele>225.0</ele><time>2026-03-29T15:52:08.22Z</time></trkpt><trkpt lat="43.0601818" lon="12.2923859"><ele>225.0</ele><time>2026-03-29T15:52:09.212Z</time></trkpt><trkpt lat="43.0602652" lon="12.2926179"><ele>225.0</ele><time>2026-03-29T15:52:10.211Z</time></trkpt><trkpt lat="43.0603593" lon="12.2928565"><ele>225.33333333333331</ele><time>2026-03-29T15:52:11.224Z</time></trkpt><trkpt lat="43.0604695" lon="12.2930989"><ele>225.66666666666666</ele><time>2026-03-29T15:52:12.22Z</time></trkpt><trkpt lat="43.0605806" lon="12.2933426"><ele>226.0</ele><time>2026-03-29T15:52:13.196Z</time></trkpt><trkpt lat="43.0606961" lon="12.2936064"><ele>226.66666666666666</ele><time>2026-03-29T15:52:14.212Z</time></trkpt><trkpt lat="43.0608139" lon="12.2938586"><ele>227.33333333333331</ele><time>2026-03-29T15:52:15.206Z</time></trkpt><trkpt lat="43.0609324" lon="12.2941072"><ele>228.0</ele><time>2026-03-29T15:52:16.218Z</time></trkpt><trkpt lat="43.0610388" lon="12.2943409"><ele>228.0</ele><time>2026-03-29T15:52:17.201Z</time></trkpt><trkpt lat="43.0611342" lon="12.2945663"><ele>228.0</ele><time>2026-03-29T15:52:18.202Z</time></trkpt><trkpt lat="43.0612177" lon="12.2947747"><ele>228.0</ele><time>2026-03-29T15:52:19.202Z</time></trkpt><trkpt lat="43.0613005" lon="12.2949853"><ele>229.0</ele><time>2026-03-29T15:52:20.213Z</time></trkpt><trkpt lat="43.06138" lon="12.2951821"><ele>230.0</ele><time>2026-03-29T15:52:21.216Z</time></trkpt><trkpt lat="43.061451" lon="12.2953548"><ele>231.0</ele><time>2026-03-29T15:52:22.199Z</time></trkpt><trkpt lat="43.0615239" lon="12.2955412"><ele>231.33333333333331</ele><time>2026-03-29T15:52:23.208Z</time></trkpt><trkpt lat="43.0616057" lon="12.2957257"><ele>231.66666666666666</ele><time>2026-03-29T15:52:24.219Z</time></trkpt><trkpt lat="43.0616871" lon="12.295901"><ele>232.0</ele><time>2026-03-29T15:52:25.208Z</time></trkpt><trkpt lat="43.0617664" lon="12.2960745"><ele>233.0</ele><time>2026-03-29T15:52:26.225Z</time></trkpt><trkpt lat="43.0618419" lon="12.2962385"><ele>234.0</ele><time>2026-03-29T15:52:27.215Z</time></trkpt><trkpt lat="43.0619182" lon="12.2963983"><ele>235.0</ele><time>2026-03-29T15:52:28.205Z</time></trkpt><trkpt lat="43.0619895" lon="12.2965623"><ele>236.0</ele><time>2026-03-29T15:52:29.216Z</time></trkpt><trkpt lat="43.0620595" lon="12.2967213"><ele>236.25</ele><time>2026-03-29T15:52:30.207Z</time></trkpt><trkpt lat="43.0621232" lon="12.2968694"><ele>236.5</ele><time>2026-03-29T15:52:31.216Z</time></trkpt><trkpt lat="43.0621876" lon="12.2970206"><ele>236.75</ele><time>2026-03-29T15:52:32.212Z</time></trkpt><trkpt lat="43.0622482" lon="12.2971582"><ele>237.0</ele><time>2026-03-29T15:52:33.211Z</time></trkpt><trkpt lat="43.0623138" lon="12.2973115"><ele>237.25</ele><time>2026-03-29T15:52:34.213Z</time></trkpt><trkpt lat="43.0623768" lon="12.2974588"><ele>237.5</ele><time>2026-03-29T15:52:35.226Z</time></trkpt><trkpt lat="43.0624325" lon="12.2975974"><ele>237.75</ele><time>2026-03-29T15:52:36.202Z</time></trkpt><trkpt lat="43.062493" lon="12.2977407"><ele>238.0</ele><time>2026-03-29T15:52:37.221Z</time></trkpt><trkpt lat="43.0625526" lon="12.2978871"><ele>238.0</ele><time>2026-03-29T15:52:38.219Z</time></trkpt><trkpt lat="43.062617" lon="12.2980389"><ele>238.0</ele><time>2026-03-29T15:52:39.212Z</time></trkpt><trkpt lat="43.0626973" lon="12.2982072"><ele>238.0</ele><time>2026-03-29T15:52:40.228Z</time></trkpt><trkpt lat="43.0627799" lon="12.2983834"><ele>238.0</ele><time>2026-03-29T15:52:41.212Z</time></trkpt><trkpt lat="43.0628563" lon="12.2985661"><ele>238.0</ele><time>2026-03-29T15:52:42.21Z</time></trkpt><trkpt lat="43.0629404" lon="12.2987605"><ele>238.0</ele><time>2026-03-29T15:52:43.207Z</time></trkpt><trkpt lat="43.063026" lon="12.2989605"><ele>238.0</ele><time>2026-03-29T15:52:44.215Z</time></trkpt><trkpt lat="43.0631065" lon="12.299156"><ele>237.66666666666666</ele><time>2026-03-29T15:52:45.207Z</time></trkpt><trkpt lat="43.0631885" lon="12.2993459"><ele>237.33333333333331</ele><time>2026-03-29T15:52:46.238Z</time></trkpt><trkpt lat="43.0632652" lon="12.2995176"><ele>237.0</ele><time>2026-03-29T15:52:47.213Z</time></trkpt><trkpt lat="43.0633416" lon="12.2996906"><ele>236.75</ele><time>2026-03-29T15:52:48.213Z</time></trkpt><trkpt lat="43.0634195" lon="12.2998589"><ele>236.5</ele><time>2026-03-29T15:52:49.214Z</time></trkpt><trkpt lat="43.0634907" lon="12.3000307"><ele>236.25</ele><time>2026-03-29T15:52:50.2Z</time></trkpt><trkpt lat="43.0635637" lon="12.3002154"><ele>236.0</ele><time>2026-03-29T15:52:51.231Z</time></trkpt><trkpt lat="43.0636505" lon="12.3004065"><ele>236.33333333333334</ele><time>2026-03-29T15:52:52.224Z</time></trkpt><trkpt lat="43.0637374" lon="12.3006062"><ele>236.66666666666669</ele><time>2026-03-29T15:52:53.204Z</time></trkpt><trkpt lat="43.0638264" lon="12.3008162"><ele>237.0</ele><time>2026-03-29T15:52:54.221Z</time></trkpt><trkpt lat="43.0639174" lon="12.3010165"><ele>237.0</ele><time>2026-03-29T15:52:55.226Z</time></trkpt><trkpt lat="43.0640058" lon="12.3012081"><ele>237.0</ele><time>2026-03-29T15:52:56.206Z</time></trkpt><trkpt lat="43.0640915" lon="12.3013899"><ele>237.0</ele><time>2026-03-29T15:52:57.212Z</time></trkpt><trkpt lat="43.064174" lon="12.3015704"><ele>237.75</ele><time>2026-03-29T15:52:58.228Z</time></trkpt><trkpt lat="43.0642552" lon="12.3017383"><ele>238.5</ele><time>2026-03-29T15:52:59.214Z</time></trkpt><trkpt lat="43.0643362" lon="12.3019051"><ele>239.25</ele><time>2026-03-29T15:53:00.218Z</time></trkpt><trkpt lat="43.0644105" lon="12.3020623"><ele>240.0</ele><time>2026-03-29T15:53:01.197Z</time></trkpt><trkpt lat="43.0644802" lon="12.3022118"><ele>239.8</ele><time>2026-03-29T15:53:02.21Z</time></trkpt><trkpt lat="43.0645447" lon="12.3023488"><ele>239.6</ele><time>2026-03-29T15:53:03.205Z</time></trkpt><trkpt lat="43.0646054" lon="12.3024822"><ele>239.39999999999998</ele><time>2026-03-29T15:53:04.211Z</time></trkpt><trkpt lat="43.0646601" lon="12.3026033"><ele>239.2</ele><time>2026-03-29T15:53:05.213Z</time></trkpt><trkpt lat="43.0647108" lon="12.3027195"><ele>239.0</ele><time>2026-03-29T15:53:06.224Z</time></trkpt><trkpt lat="43.0647642" lon="12.3028359"><ele>239.00000000000003</ele><time>2026-03-29T15:53:07.212Z</time></trkpt><trkpt lat="43.0648153" lon="12.3029457"><ele>239.0</ele><time>2026-03-29T15:53:08.202Z</time></trkpt><trkpt lat="43.0648599" lon="12.3030513"><ele>239.0</ele><time>2026-03-29T15:53:09.21Z</time></trkpt><trkpt lat="43.0649049" lon="12.303152"><ele>239.0</ele><time>2026-03-29T15:53:10.21Z</time></trkpt><trkpt lat="43.0649479" lon="12.3032514"><ele>239.00000000000003</ele><time>2026-03-29T15:53:11.217Z</time></trkpt><trkpt lat="43.0649916" lon="12.3033543"><ele>239.0</ele><time>2026-03-29T15:53:12.202Z</time></trkpt><trkpt lat="43.0650378" lon="12.3034582"><ele>239.0</ele><time>2026-03-29T15:53:13.222Z</time></trkpt><trkpt lat="43.0650808" lon="12.3035677"><ele>238.99999999999997</ele><time>2026-03-29T15:53:14.208Z</time></trkpt><trkpt lat="43.0651299" lon="12.3036939"><ele>238.99999999999997</ele><time>2026-03-29T15:53:15.21Z</time></trkpt><trkpt lat="43.0651853" lon="12.3038346"><ele>239.0</ele><time>2026-03-29T15:53:16.245Z</time></trkpt><trkpt lat="43.0652563" lon="12.3039859"><ele>239.0</ele><time>2026-03-29T15:53:17.21Z</time></trkpt><trkpt lat="43.0653399" lon="12.3041545"><ele>238.33333333333334</ele><time>2026-03-29T15:53:18.208Z</time></trkpt><trkpt lat="43.0654196" lon="12.3043315"><ele>237.66666666666669</ele><time>2026-03-29T15:53:19.222Z</time></trkpt><trkpt lat="43.0654983" lon="12.3045155"><ele>237.0</ele><time>2026-03-29T15:53:20.204Z</time></trkpt><trkpt lat="43.0655824" lon="12.304719"><ele>237.0</ele><time>2026-03-29T15:53:21.234Z</time></trkpt><trkpt lat="43.0656461" lon="12.3048588"><ele>237.0</ele><time>2026-03-29T15:53:22.199Z</time></trkpt><trkpt lat="43.0657435" lon="12.3050697"><ele>237.0</ele><time>2026-03-29T15:53:23.198Z</time></trkpt><trkpt lat="43.0658458" lon="12.3052849"><ele>237.0</ele><time>2026-03-29T15:53:24.207Z</time></trkpt><trkpt lat="43.0659452" lon="12.3055038"><ele>237.0</ele><time>2026-03-29T15:53:25.219Z</time></trkpt><trkpt lat="43.0660409" lon="12.3057145"><ele>237.0</ele><time>2026-03-29T15:53:26.206Z</time></trkpt><trkpt lat="43.0661373" lon="12.3059284"><ele>237.66666666666669</ele><time>2026-03-29T15:53:27.241Z</time></trkpt><trkpt lat="43.0662295" lon="12.3061315"><ele>238.33333333333334</ele><time>2026-03-29T15:53:28.224Z</time></trkpt><trkpt lat="43.0663205" lon="12.3063323"><ele>239.0</ele><time>2026-03-29T15:53:29.2Z</time></trkpt><trkpt lat="43.066413" lon="12.3065335"><ele>240.0</ele><time>2026-03-29T15:53:30.21Z</time></trkpt><trkpt lat="43.0665047" lon="12.3067321"><ele>241.0</ele><time>2026-03-29T15:53:31.207Z</time></trkpt><trkpt lat="43.0665905" lon="12.3069273"><ele>242.0</ele><time>2026-03-29T15:53:32.204Z</time></trkpt><trkpt lat="43.0666671" lon="12.3071184"><ele>242.5</ele><time>2026-03-29T15:53:33.205Z</time></trkpt><trkpt lat="43.0667435" lon="12.3072981"><ele>243.0</ele><time>2026-03-29T15:53:34.223Z</time></trkpt><trkpt lat="43.0668185" lon="12.3074634"><ele>243.5</ele><time>2026-03-29T15:53:35.217Z</time></trkpt><trkpt lat="43.0668874" lon="12.307626"><ele>244.0</ele><time>2026-03-29T15:53:36.23Z</time></trkpt><trkpt lat="43.0669546" lon="12.3077811"><ele>244.0</ele><time>2026-03-29T15:53:37.215Z</time></trkpt><trkpt lat="43.0670244" lon="12.3079379"><ele>244.0</ele><time>2026-03-29T15:53:38.212Z</time></trkpt><trkpt lat="43.0670973" lon="12.3080979"><ele>244.0</ele><time>2026-03-29T15:53:39.219Z</time></trkpt><trkpt lat="43.0671675" lon="12.3082644"><ele>244.0</ele><time>2026-03-29T15:53:40.201Z</time></trkpt><trkpt lat="43.0671926" lon="12.3083928"><ele>244.66666666666666</ele><time>2026-03-29T15:53:42.207Z</time></trkpt><trkpt lat="43.0672353" lon="12.3085176"><ele>245.33333333333331</ele><time>2026-03-29T15:53:43.214Z</time></trkpt><trkpt lat="43.0672892" lon="12.3086971"><ele>246.0</ele><time>2026-03-29T15:53:45.198Z</time></trkpt><trkpt lat="43.0677991" lon="12.309601"><ele>244.0</ele><time>2026-03-29T15:53:46.218Z</time></trkpt><trkpt lat="43.067918" lon="12.3098484"><ele>242.0</ele><time>2026-03-29T15:53:47.223Z</time></trkpt><trkpt lat="43.068029" lon="12.3100769"><ele>240.0</ele><time>2026-03-29T15:53:48.209Z</time></trkpt><trkpt lat="43.0681306" lon="12.3103096"><ele>240.0</ele><time>2026-03-29T15:53:49.234Z</time></trkpt><trkpt lat="43.0682203" lon="12.3105268"><ele>240.0</ele><time>2026-03-29T15:53:50.239Z</time></trkpt><trkpt lat="43.0682959" lon="12.3107204"><ele>240.0</ele><time>2026-03-29T15:53:51.217Z</time></trkpt><trkpt lat="43.0683722" lon="12.3108943"><ele>240.0</ele><time>2026-03-29T15:53:52.203Z</time></trkpt><trkpt lat="43.0684388" lon="12.3110618"><ele>240.0</ele><time>2026-03-29T15:53:53.221Z</time></trkpt><trkpt lat="43.068485" lon="12.3112166"><ele>240.0</ele><time>2026-03-29T15:53:54.209Z</time></trkpt><trkpt lat="43.0685099" lon="12.3113523"><ele>240.0</ele><time>2026-03-29T15:53:55.21Z</time></trkpt><trkpt lat="43.0685178" lon="12.3114588"><ele>240.0</ele><time>2026-03-29T15:53:56.238Z</time></trkpt><trkpt lat="43.0685101" lon="12.3115803"><ele>239.83333333333334</ele><time>2026-03-29T15:53:58.21Z</time></trkpt><trkpt lat="43.0684964" lon="12.3117343"><ele>239.66666666666669</ele><time>2026-03-29T15:54:00.229Z</time></trkpt><trkpt lat="43.0684885" lon="12.3118526"><ele>239.5</ele><time>2026-03-29T15:54:01.206Z</time></trkpt><trkpt lat="43.0685099" lon="12.3119543"><ele>239.33333333333334</ele><time>2026-03-29T15:54:02.22Z</time></trkpt><trkpt lat="43.0685557" lon="12.3120364"><ele>239.16666666666669</ele><time>2026-03-29T15:54:03.206Z</time></trkpt><trkpt lat="43.0686253" lon="12.3120839"><ele>239.0</ele><time>2026-03-29T15:54:04.243Z</time></trkpt><trkpt lat="43.0687103" lon="12.3121183"><ele>239.0</ele><time>2026-03-29T15:54:05.218Z</time></trkpt><trkpt lat="43.0688198" lon="12.3121563"><ele>239.0</ele><time>2026-03-29T15:54:06.202Z</time></trkpt><trkpt lat="43.0689343" lon="12.3122376"><ele>239.0</ele><time>2026-03-29T15:54:07.207Z</time></trkpt><trkpt lat="43.0690452" lon="12.3123641"><ele>239.0</ele><time>2026-03-29T15:54:08.209Z</time></trkpt><trkpt lat="43.0691462" lon="12.3125223"><ele>239.0</ele><time>2026-03-29T15:54:09.21Z</time></trkpt><trkpt lat="43.06924" lon="12.3126944"><ele>239.0</ele><time>2026-03-29T15:54:10.203Z</time></trkpt><trkpt lat="43.0693348" lon="12.3128972"><ele>239.0</ele><time>2026-03-29T15:54:11.24Z</time></trkpt><trkpt lat="43.0694194" lon="12.3130915"><ele>237.0</ele><time>2026-03-29T15:54:12.208Z</time></trkpt><trkpt lat="43.0695079" lon="12.3132954"><ele>235.0</ele><time>2026-03-29T15:54:13.208Z</time></trkpt><trkpt lat="43.0696022" lon="12.3134978"><ele>233.0</ele><time>2026-03-29T15:54:14.213Z</time></trkpt><trkpt lat="43.0696941" lon="12.3137021"><ele>233.0</ele><time>2026-03-29T15:54:15.22Z</time></trkpt><trkpt lat="43.0697844" lon="12.3138947"><ele>233.0</ele><time>2026-03-29T15:54:16.218Z</time></trkpt><trkpt lat="43.0698727" lon="12.3140809"><ele>233.0</ele><time>2026-03-29T15:54:17.215Z</time></trkpt><trkpt lat="43.0699604" lon="12.3142666"><ele>233.25</ele><time>2026-03-29T15:54:18.214Z</time></trkpt><trkpt lat="43.0700388" lon="12.3144374"><ele>233.5</ele><time>2026-03-29T15:54:19.209Z</time></trkpt><trkpt lat="43.07011" lon="12.314603"><ele>233.75</ele><time>2026-03-29T15:54:20.218Z</time></trkpt><trkpt lat="43.0701796" lon="12.3147551"><ele>234.0</ele><time>2026-03-29T15:54:21.204Z</time></trkpt><trkpt lat="43.0702525" lon="12.3149064"><ele>234.75</ele><time>2026-03-29T15:54:22.232Z</time></trkpt><trkpt lat="43.0703188" lon="12.3150458"><ele>235.5</ele><time>2026-03-29T15:54:23.209Z</time></trkpt><trkpt lat="43.0703842" lon="12.3151886"><ele>236.25</ele><time>2026-03-29T15:54:24.207Z</time></trkpt><trkpt lat="43.0704475" lon="12.3153316"><ele>237.0</ele><time>2026-03-29T15:54:25.201Z</time></trkpt><trkpt lat="43.0705075" lon="12.3154693"><ele>237.75</ele><time>2026-03-29T15:54:26.208Z</time></trkpt><trkpt lat="43.0705649" lon="12.3156027"><ele>238.5</ele><time>2026-03-29T15:54:27.205Z</time></trkpt><trkpt lat="43.0706234" lon="12.3157406"><ele>239.25</ele><time>2026-03-29T15:54:28.233Z</time></trkpt><trkpt lat="43.0706837" lon="12.3158752"><ele>240.0</ele><time>2026-03-29T15:54:29.214Z</time></trkpt><trkpt lat="43.070748" lon="12.3160068"><ele>239.8</ele><time>2026-03-29T15:54:30.201Z</time></trkpt><trkpt lat="43.0708064" lon="12.3161332"><ele>239.6</ele><time>2026-03-29T15:54:31.207Z</time></trkpt><trkpt lat="43.0708638" lon="12.3162577"><ele>239.39999999999998</ele><time>2026-03-29T15:54:32.217Z</time></trkpt><trkpt lat="43.0709148" lon="12.3163733"><ele>239.2</ele><time>2026-03-29T15:54:33.212Z</time></trkpt><trkpt lat="43.0709687" lon="12.3164931"><ele>239.0</ele><time>2026-03-29T15:54:34.237Z</time></trkpt><trkpt lat="43.0710207" lon="12.3166059"><ele>239.00000000000003</ele><time>2026-03-29T15:54:35.206Z</time></trkpt><trkpt lat="43.0710766" lon="12.3167163"><ele>239.0</ele><time>2026-03-29T15:54:36.201Z</time></trkpt><trkpt lat="43.0711301" lon="12.3168178"><ele>239.0</ele><time>2026-03-29T15:54:37.204Z</time></trkpt><trkpt lat="43.0711784" lon="12.3169149"><ele>239.0</ele><time>2026-03-29T15:54:38.219Z</time></trkpt><trkpt lat="43.0712093" lon="12.3169917"><ele>239.00000000000003</ele><time>2026-03-29T15:54:39.209Z</time></trkpt><trkpt lat="43.0712319" lon="12.3170835"><ele>239.0</ele><time>2026-03-29T15:54:41.219Z</time></trkpt><trkpt lat="43.0712409" lon="12.3171909"><ele>239.16666666666669</ele><time>2026-03-29T15:54:43.217Z</time></trkpt><trkpt lat="43.0712597" lon="12.3172871"><ele>239.33333333333334</ele><time>2026-03-29T15:54:44.212Z</time></trkpt><trkpt lat="43.0712941" lon="12.3173899"><ele>239.5</ele><time>2026-03-29T15:54:45.213Z</time></trkpt><trkpt lat="43.0713497" lon="12.3175114"><ele>239.66666666666669</ele><time>2026-03-29T15:54:46.215Z</time></trkpt><trkpt lat="43.0714153" lon="12.3175968"><ele>239.83333333333334</ele><time>2026-03-29T15:54:47.221Z</time></trkpt><trkpt lat="43.0714764" lon="12.3176707"><ele>240.0</ele><time>2026-03-29T15:54:48.224Z</time></trkpt><trkpt lat="43.0715437" lon="12.3177401"><ele>240.0</ele><time>2026-03-29T15:54:49.213Z</time></trkpt><trkpt lat="43.0716045" lon="12.3178162"><ele>240.0</ele><time>2026-03-29T15:54:50.205Z</time></trkpt><trkpt lat="43.0716615" lon="12.3179092"><ele>240.0</ele><time>2026-03-29T15:54:51.227Z</time></trkpt><trkpt lat="43.0717076" lon="12.3180064"><ele>240.0</ele><time>2026-03-29T15:54:52.221Z</time></trkpt><trkpt lat="43.0717539" lon="12.3181152"><ele>240.0</ele><time>2026-03-29T15:54:53.209Z</time></trkpt><trkpt lat="43.0718001" lon="12.3182329"><ele>240.0</ele><time>2026-03-29T15:54:54.214Z</time></trkpt><trkpt lat="43.0718552" lon="12.3183468"><ele>240.25</ele><time>2026-03-29T15:54:55.213Z</time></trkpt><trkpt lat="43.0719067" lon="12.3184833"><ele>240.5</ele><time>2026-03-29T15:54:56.212Z</time></trkpt><trkpt lat="43.0719712" lon="12.318633"><ele>240.75</ele><time>2026-03-29T15:54:57.222Z</time></trkpt><trkpt lat="43.0720374" lon="12.3188183"><ele>241.0</ele><time>2026-03-29T15:54:58.216Z</time></trkpt><trkpt lat="43.072118" lon="12.3190142"><ele>241.33333333333331</ele><time>2026-03-29T15:54:59.221Z</time></trkpt><trkpt lat="43.0722094" lon="12.3192167"><ele>241.66666666666669</ele><time>2026-03-29T15:55:00.215Z</time></trkpt><trkpt lat="43.0723117" lon="12.3194337"><ele>242.0</ele><time>2026-03-29T15:55:01.215Z</time></trkpt><trkpt lat="43.0724266" lon="12.3196593"><ele>242.33333333333334</ele><time>2026-03-29T15:55:02.214Z</time></trkpt><trkpt lat="43.0725418" lon="12.3198877"><ele>242.66666666666669</ele><time>2026-03-29T15:55:03.223Z</time></trkpt><trkpt lat="43.0726521" lon="12.3201176"><ele>243.0</ele><time>2026-03-29T15:55:04.206Z</time></trkpt><trkpt lat="43.072765" lon="12.3203493"><ele>243.66666666666669</ele><time>2026-03-29T15:55:05.208Z</time></trkpt><trkpt lat="43.0728739" lon="12.320579"><ele>244.33333333333334</ele><time>2026-03-29T15:55:06.203Z</time></trkpt><trkpt lat="43.0729851" lon="12.3208058"><ele>245.0</ele><time>2026-03-29T15:55:07.208Z</time></trkpt><trkpt lat="43.0730929" lon="12.3210384"><ele>245.0</ele><time>2026-03-29T15:55:08.218Z</time></trkpt><trkpt lat="43.0731954" lon="12.3212606"><ele>245.0</ele><time>2026-03-29T15:55:09.225Z</time></trkpt><trkpt lat="43.0732958" lon="12.3214904"><ele>245.0</ele><time>2026-03-29T15:55:10.211Z</time></trkpt><trkpt lat="43.0734008" lon="12.3217262"><ele>246.33333333333334</ele><time>2026-03-29T15:55:11.206Z</time></trkpt><trkpt lat="43.0735143" lon="12.321977"><ele>247.66666666666669</ele><time>2026-03-29T15:55:12.216Z</time></trkpt><trkpt lat="43.0736319" lon="12.3222388"><ele>249.0</ele><time>2026-03-29T15:55:13.221Z</time></trkpt><trkpt lat="43.0737494" lon="12.3224957"><ele>249.0</ele><time>2026-03-29T15:55:14.208Z</time></trkpt><trkpt lat="43.0738729" lon="12.3227624"><ele>249.0</ele><time>2026-03-29T15:55:15.222Z</time></trkpt><trkpt lat="43.0739934" lon="12.3230199"><ele>250.5</ele><time>2026-03-29T15:55:16.202Z</time></trkpt><trkpt lat="43.0741147" lon="12.3232825"><ele>252.0</ele><time>2026-03-29T15:55:17.216Z</time></trkpt><trkpt lat="43.0742427" lon="12.3235584"><ele>252.0</ele><time>2026-03-29T15:55:18.235Z</time></trkpt><trkpt lat="43.0743731" lon="12.3238291"><ele>252.0</ele><time>2026-03-29T15:55:19.231Z</time></trkpt><trkpt lat="43.0745084" lon="12.32411"><ele>251.5</ele><time>2026-03-29T15:55:20.25Z</time></trkpt><trkpt lat="43.0746348" lon="12.324373"><ele>251.0</ele><time>2026-03-29T15:55:21.214Z</time></trkpt><trkpt lat="43.0747661" lon="12.3246445"><ele>251.5</ele><time>2026-03-29T15:55:22.222Z</time></trkpt><trkpt lat="43.0748915" lon="12.3249121"><ele>252.0</ele><time>2026-03-29T15:55:23.21Z</time></trkpt><trkpt lat="43.0750147" lon="12.3251854"><ele>250.5</ele><time>2026-03-29T15:55:24.212Z</time></trkpt><trkpt lat="43.0751402" lon="12.3254555"><ele>249.0</ele><time>2026-03-29T15:55:25.21Z</time></trkpt><trkpt lat="43.0752695" lon="12.3257329"><ele>248.5</ele><time>2026-03-29T15:55:26.226Z</time></trkpt><trkpt lat="43.0753917" lon="12.3260023"><ele>248.0</ele><time>2026-03-29T15:55:27.213Z</time></trkpt><trkpt lat="43.0755177" lon="12.326273"><ele>248.0</ele><time>2026-03-29T15:55:28.216Z</time></trkpt><trkpt lat="43.0756403" lon="12.3265425"><ele>248.0</ele><time>2026-03-29T15:55:29.211Z</time></trkpt><trkpt lat="43.0757688" lon="12.3268161"><ele>247.5</ele><time>2026-03-29T15:55:30.21Z</time></trkpt><trkpt lat="43.0758961" lon="12.3270914"><ele>247.0</ele><time>2026-03-29T15:55:31.228Z</time></trkpt><trkpt lat="43.0760204" lon="12.3273615"><ele>247.0</ele><time>2026-03-29T15:55:32.219Z</time></trkpt><trkpt lat="43.076143" lon="12.3276311"><ele>247.0</ele><time>2026-03-29T15:55:33.218Z</time></trkpt><trkpt lat="43.0762662" lon="12.3279018"><ele>247.5</ele><time>2026-03-29T15:55:34.222Z</time></trkpt><trkpt lat="43.0763918" lon="12.3281625"><ele>248.0</ele><time>2026-03-29T15:55:35.209Z</time></trkpt><trkpt lat="43.0765111" lon="12.3284194"><ele>246.66666666666669</ele><time>2026-03-29T15:55:36.205Z</time></trkpt><trkpt lat="43.0766318" lon="12.3286685"><ele>245.33333333333331</ele><time>2026-03-29T15:55:37.198Z</time></trkpt><trkpt lat="43.0767506" lon="12.3289178"><ele>244.0</ele><time>2026-03-29T15:55:38.222Z</time></trkpt><trkpt lat="43.0768576" lon="12.3291525"><ele>244.0</ele><time>2026-03-29T15:55:39.22Z</time></trkpt><trkpt lat="43.0769566" lon="12.3293751"><ele>244.0</ele><time>2026-03-29T15:55:40.22Z</time></trkpt><trkpt lat="43.0770523" lon="12.3295849"><ele>244.0</ele><time>2026-03-29T15:55:41.228Z</time></trkpt><trkpt lat="43.0771403" lon="12.3297794"><ele>244.33333333333331</ele><time>2026-03-29T15:55:42.204Z</time></trkpt><trkpt lat="43.0772298" lon="12.3299623"><ele>244.66666666666669</ele><time>2026-03-29T15:55:43.233Z</time></trkpt><trkpt lat="43.0773175" lon="12.3301269"><ele>245.0</ele><time>2026-03-29T15:55:44.221Z</time></trkpt><trkpt lat="43.0774087" lon="12.3302765"><ele>244.25</ele><time>2026-03-29T15:55:45.222Z</time></trkpt><trkpt lat="43.0775092" lon="12.3303913"><ele>243.5</ele><time>2026-03-29T15:55:46.224Z</time></trkpt><trkpt lat="43.0776228" lon="12.3304758"><ele>242.75</ele><time>2026-03-29T15:55:47.216Z</time></trkpt><trkpt lat="43.0777395" lon="12.3305694"><ele>242.0</ele><time>2026-03-29T15:55:48.22Z</time></trkpt><trkpt lat="43.0778491" lon="12.3306797"><ele>241.75</ele><time>2026-03-29T15:55:49.218Z</time></trkpt><trkpt lat="43.0779528" lon="12.330829"><ele>241.5</ele><time>2026-03-29T15:55:50.211Z</time></trkpt><trkpt lat="43.0780541" lon="12.3309813"><ele>241.25</ele><time>2026-03-29T15:55:51.208Z</time></trkpt><trkpt lat="43.0781459" lon="12.3311329"><ele>241.0</ele><time>2026-03-29T15:55:52.219Z</time></trkpt><trkpt lat="43.0782191" lon="12.3312877"><ele>241.75</ele><time>2026-03-29T15:55:53.207Z</time></trkpt><trkpt lat="43.078261" lon="12.3314694"><ele>242.5</ele><time>2026-03-29T15:55:54.209Z</time></trkpt><trkpt lat="43.0782839" lon="12.3316419"><ele>243.25</ele><time>2026-03-29T15:55:55.213Z</time></trkpt><trkpt lat="43.0783002" lon="12.3318104"><ele>244.0</ele><time>2026-03-29T15:55:56.23Z</time></trkpt><trkpt lat="43.0782954" lon="12.3319957"><ele>244.75</ele><time>2026-03-29T15:55:57.211Z</time></trkpt><trkpt lat="43.078317" lon="12.3321792"><ele>245.5</ele><time>2026-03-29T15:55:58.213Z</time></trkpt><trkpt lat="43.0783657" lon="12.3323457"><ele>246.25</ele><time>2026-03-29T15:55:59.212Z</time></trkpt><trkpt lat="43.078424" lon="12.3325005"><ele>247.0</ele><time>2026-03-29T15:56:00.223Z</time></trkpt><trkpt lat="43.0784863" lon="12.3326465"><ele>247.5</ele><time>2026-03-29T15:56:01.222Z</time></trkpt><trkpt lat="43.07855" lon="12.3327937"><ele>248.0</ele><time>2026-03-29T15:56:02.22Z</time></trkpt><trkpt lat="43.0786104" lon="12.3329288"><ele>248.5</ele><time>2026-03-29T15:56:03.214Z</time></trkpt><trkpt lat="43.0786665" lon="12.3330637"><ele>249.0</ele><time>2026-03-29T15:56:04.209Z</time></trkpt><trkpt lat="43.0787204" lon="12.3331929"><ele>249.39999999999998</ele><time>2026-03-29T15:56:05.218Z</time></trkpt><trkpt lat="43.0787699" lon="12.3333203"><ele>249.79999999999998</ele><time>2026-03-29T15:56:06.202Z</time></trkpt><trkpt lat="43.0788189" lon="12.3334567"><ele>250.20000000000002</ele><time>2026-03-29T15:56:07.212Z</time></trkpt><trkpt lat="43.0788615" lon="12.3336114"><ele>250.60000000000002</ele><time>2026-03-29T15:56:08.236Z</time></trkpt><trkpt lat="43.0788857" lon="12.3337598"><ele>251.0</ele><time>2026-03-29T15:56:09.212Z</time></trkpt><trkpt lat="43.078889" lon="12.3339218"><ele>251.0</ele><time>2026-03-29T15:56:10.213Z</time></trkpt><trkpt lat="43.0788849" lon="12.3340848"><ele>251.0</ele><time>2026-03-29T15:56:11.221Z</time></trkpt><trkpt lat="43.0788667" lon="12.334258"><ele>251.0</ele><time>2026-03-29T15:56:12.231Z</time></trkpt><trkpt lat="43.0788547" lon="12.3344373"><ele>251.0</ele><time>2026-03-29T15:56:13.209Z</time></trkpt><trkpt lat="43.0788646" lon="12.3346346"><ele>250.33333333333334</ele><time>2026-03-29T15:56:14.211Z</time></trkpt><trkpt lat="43.0788867" lon="12.3348605"><ele>249.66666666666669</ele><time>2026-03-29T15:56:15.221Z</time></trkpt><trkpt lat="43.0789058" lon="12.3350945"><ele>249.0</ele><time>2026-03-29T15:56:16.219Z</time></trkpt><trkpt lat="43.0789289" lon="12.3353394"><ele>249.0</ele><time>2026-03-29T15:56:17.23Z</time></trkpt><trkpt lat="43.0789476" lon="12.3355743"><ele>249.0</ele><time>2026-03-29T15:56:18.225Z</time></trkpt><trkpt lat="43.0789599" lon="12.33581"><ele>249.0</ele><time>2026-03-29T15:56:19.22Z</time></trkpt><trkpt lat="43.0789655" lon="12.3360428"><ele>249.0</ele><time>2026-03-29T15:56:20.204Z</time></trkpt><trkpt lat="43.0789727" lon="12.3362626"><ele>249.0</ele><time>2026-03-29T15:56:21.216Z</time></trkpt><trkpt lat="43.0789728" lon="12.3364756"><ele>249.0</ele><time>2026-03-29T15:56:22.213Z</time></trkpt><trkpt lat="43.0789704" lon="12.3366764"><ele>250.33333333333331</ele><time>2026-03-29T15:56:23.222Z</time></trkpt><trkpt lat="43.0789601" lon="12.3368842"><ele>251.66666666666666</ele><time>2026-03-29T15:56:24.202Z</time></trkpt><trkpt lat="43.0789287" lon="12.3371059"><ele>253.0</ele><time>2026-03-29T15:56:25.207Z</time></trkpt><trkpt lat="43.0788884" lon="12.3373714"><ele>253.0</ele><time>2026-03-29T15:56:26.211Z</time></trkpt><trkpt lat="43.0788426" lon="12.3376444"><ele>253.0</ele><time>2026-03-29T15:56:27.213Z</time></trkpt><trkpt lat="43.0787968" lon="12.3379118"><ele>253.0</ele><time>2026-03-29T15:56:28.219Z</time></trkpt><trkpt lat="43.0787462" lon="12.3381642"><ele>253.0</ele><time>2026-03-29T15:56:29.22Z</time></trkpt><trkpt lat="43.0787026" lon="12.3384091"><ele>253.0</ele><time>2026-03-29T15:56:30.214Z</time></trkpt><trkpt lat="43.0786668" lon="12.3386382"><ele>253.0</ele><time>2026-03-29T15:56:31.216Z</time></trkpt><trkpt lat="43.0786332" lon="12.3388611"><ele>252.66666666666666</ele><time>2026-03-29T15:56:32.206Z</time></trkpt><trkpt lat="43.0786052" lon="12.3390826"><ele>252.33333333333331</ele><time>2026-03-29T15:56:33.218Z</time></trkpt><trkpt lat="43.0785785" lon="12.3392901"><ele>252.0</ele><time>2026-03-29T15:56:34.214Z</time></trkpt><trkpt lat="43.078547" lon="12.3394983"><ele>252.0</ele><time>2026-03-29T15:56:35.21Z</time></trkpt><trkpt lat="43.0785168" lon="12.33971"><ele>252.0</ele><time>2026-03-29T15:56:36.222Z</time></trkpt><trkpt lat="43.0784926" lon="12.3399168"><ele>252.0</ele><time>2026-03-29T15:56:37.226Z</time></trkpt><trkpt lat="43.0784706" lon="12.3401234"><ele>252.33333333333331</ele><time>2026-03-29T15:56:38.201Z</time></trkpt><trkpt lat="43.0784462" lon="12.3403425"><ele>252.66666666666666</ele><time>2026-03-29T15:56:39.238Z</time></trkpt><trkpt lat="43.078426" lon="12.3405373"><ele>253.0</ele><time>2026-03-29T15:56:40.2Z</time></trkpt><trkpt lat="43.0784111" lon="12.3407438"><ele>253.5</ele><time>2026-03-29T15:56:41.207Z</time></trkpt><trkpt lat="43.0784252" lon="12.3408706"><ele>254.0</ele><time>2026-03-29T15:56:44.217Z</time></trkpt><trkpt lat="43.0784357" lon="12.3419794"><ele>254.66666666666669</ele><time>2026-03-29T15:56:46.264Z</time></trkpt><trkpt lat="43.078456" lon="12.342236"><ele>255.33333333333331</ele><time>2026-03-29T15:56:47.219Z</time></trkpt><trkpt lat="43.0784837" lon="12.3424853"><ele>256.0</ele><time>2026-03-29T15:56:48.223Z</time></trkpt><trkpt lat="43.0785126" lon="12.3427033"><ele>256.0</ele><time>2026-03-29T15:56:49.223Z</time></trkpt><trkpt lat="43.078546" lon="12.3428983"><ele>256.0</ele><time>2026-03-29T15:56:50.247Z</time></trkpt><trkpt lat="43.0785708" lon="12.343078"><ele>256.0</ele><time>2026-03-29T15:56:51.231Z</time></trkpt><trkpt lat="43.0785989" lon="12.343251"><ele>256.0</ele><time>2026-03-29T15:56:52.218Z</time></trkpt><trkpt lat="43.0786358" lon="12.3434506"><ele>256.0</ele><time>2026-03-29T15:56:53.211Z</time></trkpt><trkpt lat="43.0786589" lon="12.3436569"><ele>256.0</ele><time>2026-03-29T15:56:54.229Z</time></trkpt><trkpt lat="43.0786837" lon="12.3438528"><ele>256.0</ele><time>2026-03-29T15:56:55.216Z</time></trkpt><trkpt lat="43.0787036" lon="12.3440461"><ele>256.0</ele><time>2026-03-29T15:56:56.211Z</time></trkpt><trkpt lat="43.0787239" lon="12.3442384"><ele>256.3333333333333</ele><time>2026-03-29T15:56:57.212Z</time></trkpt><trkpt lat="43.0787513" lon="12.3444393"><ele>256.6666666666667</ele><time>2026-03-29T15:56:58.212Z</time></trkpt><trkpt lat="43.0787757" lon="12.344651"><ele>257.0</ele><time>2026-03-29T15:56:59.208Z</time></trkpt><trkpt lat="43.0787941" lon="12.3448627"><ele>257.5</ele><time>2026-03-29T15:57:00.214Z</time></trkpt><trkpt lat="43.0788121" lon="12.3450572"><ele>258.0</ele><time>2026-03-29T15:57:01.221Z</time></trkpt><trkpt lat="43.0788255" lon="12.3452354"><ele>258.5</ele><time>2026-03-29T15:57:02.214Z</time></trkpt><trkpt lat="43.0788329" lon="12.3454067"><ele>259.0</ele><time>2026-03-29T15:57:03.208Z</time></trkpt><trkpt lat="43.0788345" lon="12.3455734"><ele>259.0</ele><time>2026-03-29T15:57:04.236Z</time></trkpt><trkpt lat="43.0788266" lon="12.3457152"><ele>259.0</ele><time>2026-03-29T15:57:05.212Z</time></trkpt><trkpt lat="43.078796" lon="12.3458659"><ele>259.0</ele><time>2026-03-29T15:57:06.222Z</time></trkpt><trkpt lat="43.0787675" lon="12.3460016"><ele>259.0</ele><time>2026-03-29T15:57:07.224Z</time></trkpt><trkpt lat="43.0787274" lon="12.3461327"><ele>259.0</ele><time>2026-03-29T15:57:08.22Z</time></trkpt><trkpt lat="43.0786686" lon="12.3462434"><ele>259.0</ele><time>2026-03-29T15:57:09.211Z</time></trkpt><trkpt lat="43.0785899" lon="12.3463339"><ele>259.0</ele><time>2026-03-29T15:57:10.214Z</time></trkpt><trkpt lat="43.0785223" lon="12.3464298"><ele>259.0</ele><time>2026-03-29T15:57:11.221Z</time></trkpt><trkpt lat="43.0784803" lon="12.3465374"><ele>259.0</ele><time>2026-03-29T15:57:12.214Z</time></trkpt><trkpt lat="43.0784728" lon="12.3466617"><ele>259.0</ele><time>2026-03-29T15:57:13.207Z</time></trkpt><trkpt lat="43.0784943" lon="12.3467913"><ele>259.4</ele><time>2026-03-29T15:57:14.222Z</time></trkpt><trkpt lat="43.0785438" lon="12.3468953"><ele>259.79999999999995</ele><time>2026-03-29T15:57:15.229Z</time></trkpt><trkpt lat="43.0786171" lon="12.3469759"><ele>260.20000000000005</ele><time>2026-03-29T15:57:16.21Z</time></trkpt><trkpt lat="43.0787134" lon="12.3470253"><ele>260.6</ele><time>2026-03-29T15:57:17.217Z</time></trkpt><trkpt lat="43.0788082" lon="12.3470644"><ele>261.0</ele><time>2026-03-29T15:57:18.229Z</time></trkpt><trkpt lat="43.0788983" lon="12.3471213"><ele>261.0</ele><time>2026-03-29T15:57:19.212Z</time></trkpt><trkpt lat="43.0789787" lon="12.3472075"><ele>261.0</ele><time>2026-03-29T15:57:20.22Z</time></trkpt><trkpt lat="43.0790487" lon="12.3473403"><ele>261.0</ele><time>2026-03-29T15:57:21.211Z</time></trkpt><trkpt lat="43.0791013" lon="12.3474909"><ele>261.0</ele><time>2026-03-29T15:57:22.211Z</time></trkpt><trkpt lat="43.079131" lon="12.3476269"><ele>261.0</ele><time>2026-03-29T15:57:23.224Z</time></trkpt><trkpt lat="43.0791643" lon="12.3477949"><ele>261.3333333333333</ele><time>2026-03-29T15:57:24.203Z</time></trkpt><trkpt lat="43.079215" lon="12.3479318"><ele>261.66666666666663</ele><time>2026-03-29T15:57:25.218Z</time></trkpt><trkpt lat="43.0792657" lon="12.3481288"><ele>262.0</ele><time>2026-03-29T15:57:26.215Z</time></trkpt><trkpt lat="43.0793302" lon="12.3483697"><ele>264.0</ele><time>2026-03-29T15:57:27.206Z</time></trkpt><trkpt lat="43.0794047" lon="12.348672"><ele>266.0</ele><time>2026-03-29T15:57:28.221Z</time></trkpt><trkpt lat="43.0794862" lon="12.3489811"><ele>266.0</ele><time>2026-03-29T15:57:29.216Z</time></trkpt><trkpt lat="43.0795732" lon="12.349297"><ele>266.0</ele><time>2026-03-29T15:57:30.215Z</time></trkpt><trkpt lat="43.0796692" lon="12.3495838"><ele>266.6666666666667</ele><time>2026-03-29T15:57:31.222Z</time></trkpt><trkpt lat="43.0797675" lon="12.3498558"><ele>267.3333333333333</ele><time>2026-03-29T15:57:32.212Z</time></trkpt><trkpt lat="43.0798795" lon="12.3501197"><ele>268.0</ele><time>2026-03-29T15:57:33.228Z</time></trkpt><trkpt lat="43.0799868" lon="12.3503649"><ele>269.0</ele><time>2026-03-29T15:57:34.213Z</time></trkpt><trkpt lat="43.080095" lon="12.3505851"><ele>270.0</ele><time>2026-03-29T15:57:35.209Z</time></trkpt><trkpt lat="43.0802079" lon="12.3508097"><ele>271.0</ele><time>2026-03-29T15:57:36.232Z</time></trkpt><trkpt lat="43.08033" lon="12.3510418"><ele>271.0</ele><time>2026-03-29T15:57:37.246Z</time></trkpt><trkpt lat="43.0804491" lon="12.3512589"><ele>271.0</ele><time>2026-03-29T15:57:38.212Z</time></trkpt><trkpt lat="43.0805784" lon="12.3514884"><ele>271.0</ele><time>2026-03-29T15:57:39.24Z</time></trkpt><trkpt lat="43.0806951" lon="12.3517052"><ele>272.0</ele><time>2026-03-29T15:57:40.213Z</time></trkpt><trkpt lat="43.0808148" lon="12.3519272"><ele>273.0</ele><time>2026-03-29T15:57:41.217Z</time></trkpt><trkpt lat="43.0809371" lon="12.3521421"><ele>274.0</ele><time>2026-03-29T15:57:42.217Z</time></trkpt><trkpt lat="43.0810689" lon="12.3523611"><ele>275.5</ele><time>2026-03-29T15:57:43.263Z</time></trkpt><trkpt lat="43.0812461" lon="12.3526272"><ele>277.0</ele><time>2026-03-29T15:57:44.576Z</time></trkpt><trkpt lat="43.0814544" lon="12.3529666"><ele>277.3333333333333</ele><time>2026-03-29T15:57:46.272Z</time></trkpt><trkpt lat="43.0815845" lon="12.3531572"><ele>277.6666666666667</ele><time>2026-03-29T15:57:47.269Z</time></trkpt><trkpt lat="43.0817181" lon="12.3533442"><ele>278.0</ele><time>2026-03-29T15:57:48.267Z</time></trkpt><trkpt lat="43.081852" lon="12.3535398"><ele>278.0</ele><time>2026-03-29T15:57:49.27Z</time></trkpt><trkpt lat="43.0819771" lon="12.3537117"><ele>278.0</ele><time>2026-03-29T15:57:50.213Z</time></trkpt><trkpt lat="43.0820961" lon="12.3538847"><ele>278.0</ele><time>2026-03-29T15:57:51.209Z</time></trkpt><trkpt lat="43.0821823" lon="12.354063"><ele>278.33333333333337</ele><time>2026-03-29T15:57:52.214Z</time></trkpt><trkpt lat="43.0822814" lon="12.3542398"><ele>278.6666666666667</ele><time>2026-03-29T15:57:53.214Z</time></trkpt><trkpt lat="43.0823996" lon="12.3544308"><ele>279.0</ele><time>2026-03-29T15:57:54.264Z</time></trkpt><trkpt lat="43.0825158" lon="12.3546055"><ele>279.0</ele><time>2026-03-29T15:57:55.202Z</time></trkpt><trkpt lat="43.0826431" lon="12.3547939"><ele>279.0</ele><time>2026-03-29T15:57:56.23Z</time></trkpt><trkpt lat="43.0827596" lon="12.3549855"><ele>279.0</ele><time>2026-03-29T15:57:57.226Z</time></trkpt><trkpt lat="43.0828672" lon="12.3551772"><ele>279.0</ele><time>2026-03-29T15:57:58.207Z</time></trkpt><trkpt lat="43.0829796" lon="12.3553716"><ele>279.0</ele><time>2026-03-29T15:57:59.237Z</time></trkpt><trkpt lat="43.0830799" lon="12.3555584"><ele>279.0</ele><time>2026-03-29T15:58:00.228Z</time></trkpt><trkpt lat="43.0831707" lon="12.3557393"><ele>279.0</ele><time>2026-03-29T15:58:01.215Z</time></trkpt><trkpt lat="43.0832581" lon="12.3559334"><ele>279.0</ele><time>2026-03-29T15:58:02.233Z</time></trkpt><trkpt lat="43.0833524" lon="12.3561185"><ele>279.0</ele><time>2026-03-29T15:58:03.216Z</time></trkpt><trkpt lat="43.083449" lon="12.3563198"><ele>275.3333333333333</ele><time>2026-03-29T15:58:04.208Z</time></trkpt><trkpt lat="43.083555" lon="12.3565549"><ele>271.66666666666663</ele><time>2026-03-29T15:58:05.224Z</time></trkpt><trkpt lat="43.0836574" lon="12.3567905"><ele>268.0</ele><time>2026-03-29T15:58:06.219Z</time></trkpt><trkpt lat="43.0837617" lon="12.3570238"><ele>266.3333333333333</ele><time>2026-03-29T15:58:07.221Z</time></trkpt><trkpt lat="43.0838684" lon="12.35727"><ele>264.6666666666667</ele><time>2026-03-29T15:58:08.243Z</time></trkpt><trkpt lat="43.0839674" lon="12.357506"><ele>263.0</ele><time>2026-03-29T15:58:09.212Z</time></trkpt><trkpt lat="43.0840729" lon="12.3577552"><ele>261.33333333333337</ele><time>2026-03-29T15:58:10.22Z</time></trkpt><trkpt lat="43.0841744" lon="12.3580006"><ele>259.6666666666667</ele><time>2026-03-29T15:58:11.222Z</time></trkpt><trkpt lat="43.0842677" lon="12.3582313"><ele>258.0</ele><time>2026-03-29T15:58:12.213Z</time></trkpt><trkpt lat="43.0843541" lon="12.3584586"><ele>256.6666666666667</ele><time>2026-03-29T15:58:13.224Z</time></trkpt><trkpt lat="43.0844373" lon="12.3586855"><ele>255.33333333333334</ele><time>2026-03-29T15:58:14.219Z</time></trkpt><trkpt lat="43.0845181" lon="12.3589017"><ele>254.0</ele><time>2026-03-29T15:58:15.221Z</time></trkpt><trkpt lat="43.0845957" lon="12.3591115"><ele>252.33333333333334</ele><time>2026-03-29T15:58:16.227Z</time></trkpt><trkpt lat="43.0846714" lon="12.3593147"><ele>250.66666666666669</ele><time>2026-03-29T15:58:17.228Z</time></trkpt><trkpt lat="43.0847433" lon="12.3594985"><ele>249.0</ele><time>2026-03-29T15:58:18.226Z</time></trkpt><trkpt lat="43.0848097" lon="12.3596726"><ele>248.5</ele><time>2026-03-29T15:58:19.223Z</time></trkpt><trkpt lat="43.0848573" lon="12.3598435"><ele>248.0</ele><time>2026-03-29T15:58:20.222Z</time></trkpt><trkpt lat="43.0848908" lon="12.360012"><ele>247.5</ele><time>2026-03-29T15:58:21.209Z</time></trkpt><trkpt lat="43.0849008" lon="12.3601749"><ele>247.0</ele><time>2026-03-29T15:58:22.217Z</time></trkpt><trkpt lat="43.0848964" lon="12.3603417"><ele>247.0</ele><time>2026-03-29T15:58:23.218Z</time></trkpt><trkpt lat="43.0848914" lon="12.360496"><ele>247.0</ele><time>2026-03-29T15:58:24.226Z</time></trkpt><trkpt lat="43.0848962" lon="12.3606326"><ele>247.0</ele><time>2026-03-29T15:58:25.222Z</time></trkpt><trkpt lat="43.0849239" lon="12.3607446"><ele>247.0</ele><time>2026-03-29T15:58:26.244Z</time></trkpt><trkpt lat="43.0849693" lon="12.3608167"><ele>247.0</ele><time>2026-03-29T15:58:27.22Z</time></trkpt><trkpt lat="43.0850444" lon="12.3608815"><ele>247.39999999999998</ele><time>2026-03-29T15:58:28.209Z</time></trkpt><trkpt lat="43.0851323" lon="12.3609024"><ele>247.79999999999998</ele><time>2026-03-29T15:58:29.216Z</time></trkpt><trkpt lat="43.0852203" lon="12.3608818"><ele>248.2</ele><time>2026-03-29T15:58:30.253Z</time></trkpt><trkpt lat="43.0852917" lon="12.360833"><ele>248.6</ele><time>2026-03-29T15:58:31.206Z</time></trkpt><trkpt lat="43.0853692" lon="12.3607395"><ele>249.0</ele><time>2026-03-29T15:58:32.234Z</time></trkpt><trkpt lat="43.0854473" lon="12.3606156"><ele>248.75</ele><time>2026-03-29T15:58:33.199Z</time></trkpt><trkpt lat="43.0855248" lon="12.3604484"><ele>248.5</ele><time>2026-03-29T15:58:34.22Z</time></trkpt><trkpt lat="43.0856008" lon="12.3602833"><ele>248.25</ele><time>2026-03-29T15:58:35.214Z</time></trkpt><trkpt lat="43.0857062" lon="12.3601321"><ele>248.0</ele><time>2026-03-29T15:58:36.206Z</time></trkpt><trkpt lat="43.0858252" lon="12.3600231"><ele>248.5</ele><time>2026-03-29T15:58:37.209Z</time></trkpt><trkpt lat="43.085948" lon="12.3599585"><ele>249.0</ele><time>2026-03-29T15:58:38.215Z</time></trkpt><trkpt lat="43.0860781" lon="12.3599072"><ele>249.5</ele><time>2026-03-29T15:58:39.239Z</time></trkpt><trkpt lat="43.0861857" lon="12.3598659"><ele>250.0</ele><time>2026-03-29T15:58:40.221Z</time></trkpt><trkpt lat="43.0862961" lon="12.3598317"><ele>250.0</ele><time>2026-03-29T15:58:41.223Z</time></trkpt><trkpt lat="43.0864219" lon="12.3597969"><ele>250.0</ele><time>2026-03-29T15:58:42.233Z</time></trkpt><trkpt lat="43.0865607" lon="12.3597694"><ele>250.0</ele><time>2026-03-29T15:58:43.217Z</time></trkpt><trkpt lat="43.0867312" lon="12.3597362"><ele>250.0</ele><time>2026-03-29T15:58:44.22Z</time></trkpt><trkpt lat="43.0869063" lon="12.3597153"><ele>249.66666666666666</ele><time>2026-03-29T15:58:45.213Z</time></trkpt><trkpt lat="43.0870922" lon="12.3596837"><ele>249.33333333333331</ele><time>2026-03-29T15:58:46.228Z</time></trkpt><trkpt lat="43.0872801" lon="12.3596481"><ele>249.0</ele><time>2026-03-29T15:58:47.222Z</time></trkpt><trkpt lat="43.0874727" lon="12.3596068"><ele>249.0</ele><time>2026-03-29T15:58:48.21Z</time></trkpt><trkpt lat="43.0876852" lon="12.3595613"><ele>249.0</ele><time>2026-03-29T15:58:49.22Z</time></trkpt><trkpt lat="43.0878885" lon="12.3595166"><ele>249.0</ele><time>2026-03-29T15:58:50.222Z</time></trkpt><trkpt lat="43.0880772" lon="12.3594716"><ele>249.0</ele><time>2026-03-29T15:58:51.217Z</time></trkpt><trkpt lat="43.0882573" lon="12.35943"><ele>249.0</ele><time>2026-03-29T15:58:52.2Z</time></trkpt><trkpt lat="43.0884425" lon="12.3593875"><ele>249.0</ele><time>2026-03-29T15:58:53.212Z</time></trkpt><trkpt lat="43.0886208" lon="12.3593466"><ele>250.0</ele><time>2026-03-29T15:58:54.218Z</time></trkpt><trkpt lat="43.0887869" lon="12.3593062"><ele>251.0</ele><time>2026-03-29T15:58:55.222Z</time></trkpt><trkpt lat="43.0889529" lon="12.3592621"><ele>252.0</ele><time>2026-03-29T15:58:56.211Z</time></trkpt><trkpt lat="43.0891187" lon="12.3592106"><ele>254.0</ele><time>2026-03-29T15:58:57.24Z</time></trkpt><trkpt lat="43.0892746" lon="12.3591668"><ele>256.0</ele><time>2026-03-29T15:58:58.223Z</time></trkpt><trkpt lat="43.0893822" lon="12.3591178"><ele>258.0</ele><time>2026-03-29T15:58:59.223Z</time></trkpt><trkpt lat="43.0895776" lon="12.3590552"><ele>258.0</ele><time>2026-03-29T15:59:00.207Z</time></trkpt><trkpt lat="43.0897949" lon="12.3589873"><ele>258.0</ele><time>2026-03-29T15:59:01.25Z</time></trkpt><trkpt lat="43.0900064" lon="12.3589236"><ele>258.0</ele><time>2026-03-29T15:59:02.211Z</time></trkpt><trkpt lat="43.0902253" lon="12.3588563"><ele>256.6666666666667</ele><time>2026-03-29T15:59:03.235Z</time></trkpt><trkpt lat="43.0904323" lon="12.3588004"><ele>255.33333333333334</ele><time>2026-03-29T15:59:04.217Z</time></trkpt><trkpt lat="43.0906384" lon="12.3587281"><ele>254.0</ele><time>2026-03-29T15:59:05.232Z</time></trkpt><trkpt lat="43.0908353" lon="12.3586401"><ele>254.0</ele><time>2026-03-29T15:59:06.23Z</time></trkpt><trkpt lat="43.0910228" lon="12.3585464"><ele>254.0</ele><time>2026-03-29T15:59:07.215Z</time></trkpt><trkpt lat="43.0911931" lon="12.3584537"><ele>254.0</ele><time>2026-03-29T15:59:08.212Z</time></trkpt><trkpt lat="43.0913696" lon="12.3583687"><ele>254.0</ele><time>2026-03-29T15:59:09.221Z</time></trkpt><trkpt lat="43.091543" lon="12.3582693"><ele>254.0</ele><time>2026-03-29T15:59:10.24Z</time></trkpt><trkpt lat="43.0917127" lon="12.3581696"><ele>254.0</ele><time>2026-03-29T15:59:11.216Z</time></trkpt><trkpt lat="43.0918899" lon="12.3580683"><ele>254.0</ele><time>2026-03-29T15:59:12.224Z</time></trkpt><trkpt lat="43.0920527" lon="12.3579726"><ele>254.0</ele><time>2026-03-29T15:59:13.209Z</time></trkpt><trkpt lat="43.0922131" lon="12.3578753"><ele>254.0</ele><time>2026-03-29T15:59:14.216Z</time></trkpt><trkpt lat="43.0923642" lon="12.3577812"><ele>254.25</ele><time>2026-03-29T15:59:15.222Z</time></trkpt><trkpt lat="43.0925054" lon="12.3576886"><ele>254.5</ele><time>2026-03-29T15:59:16.238Z</time></trkpt><trkpt lat="43.0926354" lon="12.3576059"><ele>254.75</ele><time>2026-03-29T15:59:17.206Z</time></trkpt><trkpt lat="43.0927663" lon="12.3575253"><ele>255.0</ele><time>2026-03-29T15:59:18.222Z</time></trkpt><trkpt lat="43.0928906" lon="12.3574551"><ele>255.0</ele><time>2026-03-29T15:59:19.218Z</time></trkpt><trkpt lat="43.0930101" lon="12.3573841"><ele>255.0</ele><time>2026-03-29T15:59:20.221Z</time></trkpt><trkpt lat="43.0931198" lon="12.3573129"><ele>255.0</ele><time>2026-03-29T15:59:21.236Z</time></trkpt><trkpt lat="43.0932266" lon="12.3572403"><ele>255.0</ele><time>2026-03-29T15:59:22.223Z</time></trkpt><trkpt lat="43.0933269" lon="12.3571783"><ele>255.0</ele><time>2026-03-29T15:59:23.219Z</time></trkpt><trkpt lat="43.093417" lon="12.3571253"><ele>255.0</ele><time>2026-03-29T15:59:24.231Z</time></trkpt><trkpt lat="43.093499" lon="12.3570796"><ele>255.0</ele><time>2026-03-29T15:59:25.215Z</time></trkpt><trkpt lat="43.093572" lon="12.3570473"><ele>255.0</ele><time>2026-03-29T15:59:26.217Z</time></trkpt><trkpt lat="43.0936545" lon="12.3570325"><ele>255.0</ele><time>2026-03-29T15:59:27.214Z</time></trkpt><trkpt lat="43.0937328" lon="12.3570488"><ele>255.0</ele><time>2026-03-29T15:59:28.213Z</time></trkpt><trkpt lat="43.093808" lon="12.3570929"><ele>255.0</ele><time>2026-03-29T15:59:29.213Z</time></trkpt><trkpt lat="43.0938849" lon="12.357164"><ele>255.0</ele><time>2026-03-29T15:59:30.278Z</time></trkpt><trkpt lat="43.0939716" lon="12.3572292"><ele>255.0</ele><time>2026-03-29T15:59:31.223Z</time></trkpt><trkpt lat="43.0940728" lon="12.3573056"><ele>255.0</ele><time>2026-03-29T15:59:32.211Z</time></trkpt><trkpt lat="43.0942084" lon="12.3573794"><ele>256.75</ele><time>2026-03-29T15:59:33.217Z</time></trkpt><trkpt lat="43.0943471" lon="12.3574401"><ele>258.5</ele><time>2026-03-29T15:59:34.217Z</time></trkpt><trkpt lat="43.0944867" lon="12.3574909"><ele>260.25</ele><time>2026-03-29T15:59:35.226Z</time></trkpt><trkpt lat="43.094598" lon="12.3575442"><ele>262.0</ele><time>2026-03-29T15:59:36.208Z</time></trkpt><trkpt lat="43.0947179" lon="12.3576034"><ele>262.0</ele><time>2026-03-29T15:59:37.229Z</time></trkpt><trkpt lat="43.0948188" lon="12.3576715"><ele>262.0</ele><time>2026-03-29T15:59:38.211Z</time></trkpt><trkpt lat="43.094877" lon="12.3577464"><ele>262.0</ele><time>2026-03-29T15:59:39.217Z</time></trkpt><trkpt lat="43.0949029" lon="12.3578439"><ele>262.0</ele><time>2026-03-29T15:59:40.218Z</time></trkpt><trkpt lat="43.0948473" lon="12.3579807"><ele>262.0</ele><time>2026-03-29T15:59:42.217Z</time></trkpt><trkpt lat="43.0947705" lon="12.35802"><ele>264.5</ele><time>2026-03-29T15:59:43.217Z</time></trkpt><trkpt lat="43.0946854" lon="12.3580499"><ele>267.0</ele><time>2026-03-29T15:59:44.245Z</time></trkpt><trkpt lat="43.0945563" lon="12.3580859"><ele>269.5</ele><time>2026-03-29T15:59:45.238Z</time></trkpt><trkpt lat="43.0944042" lon="12.3581212"><ele>272.0</ele><time>2026-03-29T15:59:46.222Z</time></trkpt><trkpt lat="43.0942794" lon="12.3581585"><ele>272.0</ele><time>2026-03-29T15:59:47.257Z</time></trkpt><trkpt lat="43.0941336" lon="12.3581873"><ele>272.0</ele><time>2026-03-29T15:59:48.222Z</time></trkpt><trkpt lat="43.093991" lon="12.3582133"><ele>272.0</ele><time>2026-03-29T15:59:49.216Z</time></trkpt><trkpt lat="43.0938456" lon="12.3582539"><ele>272.0</ele><time>2026-03-29T15:59:50.245Z</time></trkpt><trkpt lat="43.0936949" lon="12.3583125"><ele>270.25</ele><time>2026-03-29T15:59:51.268Z</time></trkpt><trkpt lat="43.0935655" lon="12.3584242"><ele>268.5</ele><time>2026-03-29T15:59:52.253Z</time></trkpt><trkpt lat="43.0934902" lon="12.3585457"><ele>266.75</ele><time>2026-03-29T15:59:53.265Z</time></trkpt><trkpt lat="43.0934218" lon="12.3586912"><ele>265.0</ele><time>2026-03-29T15:59:54.25Z</time></trkpt><trkpt lat="43.0933889" lon="12.3588265"><ele>267.75</ele><time>2026-03-29T15:59:55.209Z</time></trkpt><trkpt lat="43.0933765" lon="12.3590293"><ele>270.5</ele><time>2026-03-29T15:59:56.282Z</time></trkpt><trkpt lat="43.0934064" lon="12.3592374"><ele>273.25</ele><time>2026-03-29T15:59:57.265Z</time></trkpt><trkpt lat="43.0934527" lon="12.3594237"><ele>276.0</ele><time>2026-03-29T15:59:58.259Z</time></trkpt><trkpt lat="43.0935188" lon="12.3595911"><ele>277.0</ele><time>2026-03-29T15:59:59.24Z</time></trkpt><trkpt lat="43.0935987" lon="12.3597397"><ele>278.0</ele><time>2026-03-29T16:00:00.214Z</time></trkpt><trkpt lat="43.0936784" lon="12.3598575"><ele>279.0</ele><time>2026-03-29T16:00:01.269Z</time></trkpt><trkpt lat="43.093797" lon="12.3599906"><ele>280.0</ele><time>2026-03-29T16:00:02.244Z</time></trkpt><trkpt lat="43.0939345" lon="12.3601354"><ele>281.3333333333333</ele><time>2026-03-29T16:00:03.253Z</time></trkpt><trkpt lat="43.0941173" lon="12.3603073"><ele>282.6666666666667</ele><time>2026-03-29T16:00:04.217Z</time></trkpt><trkpt lat="43.0942906" lon="12.3604611"><ele>284.0</ele><time>2026-03-29T16:00:05.217Z</time></trkpt><trkpt lat="43.0944614" lon="12.3606051"><ele>284.33333333333337</ele><time>2026-03-29T16:00:06.214Z</time></trkpt><trkpt lat="43.0946327" lon="12.3607524"><ele>284.6666666666667</ele><time>2026-03-29T16:00:07.205Z</time></trkpt><trkpt lat="43.0948185" lon="12.3609232"><ele>285.0</ele><time>2026-03-29T16:00:08.225Z</time></trkpt><trkpt lat="43.094996" lon="12.3611232"><ele>286.5</ele><time>2026-03-29T16:00:09.242Z</time></trkpt><trkpt lat="43.0951683" lon="12.3613513"><ele>288.0</ele><time>2026-03-29T16:00:10.264Z</time></trkpt><trkpt lat="43.095309" lon="12.3615907"><ele>288.0</ele><time>2026-03-29T16:00:11.225Z</time></trkpt><trkpt lat="43.0954371" lon="12.3618333"><ele>288.0</ele><time>2026-03-29T16:00:12.222Z</time></trkpt><trkpt lat="43.0955561" lon="12.3620812"><ele>288.0</ele><time>2026-03-29T16:00:13.216Z</time></trkpt><trkpt lat="43.0956704" lon="12.3623467"><ele>291.3333333333333</ele><time>2026-03-29T16:00:14.217Z</time></trkpt><trkpt lat="43.095761" lon="12.3625545"><ele>294.66666666666663</ele><time>2026-03-29T16:00:15.219Z</time></trkpt><trkpt lat="43.0958838" lon="12.3627735"><ele>298.0</ele><time>2026-03-29T16:00:16.217Z</time></trkpt><trkpt lat="43.0960312" lon="12.3629955"><ele>299.3333333333333</ele><time>2026-03-29T16:00:17.225Z</time></trkpt><trkpt lat="43.096197" lon="12.363196"><ele>300.6666666666667</ele><time>2026-03-29T16:00:18.214Z</time></trkpt><trkpt lat="43.0963657" lon="12.3633755"><ele>302.0</ele><time>2026-03-29T16:00:19.218Z</time></trkpt><trkpt lat="43.0965418" lon="12.3635345"><ele>304.0</ele><time>2026-03-29T16:00:20.229Z</time></trkpt><trkpt lat="43.0967299" lon="12.3636882"><ele>306.0</ele><time>2026-03-29T16:00:21.25Z</time></trkpt><trkpt lat="43.0969018" lon="12.3638017"><ele>308.0</ele><time>2026-03-29T16:00:22.216Z</time></trkpt><trkpt lat="43.0970807" lon="12.3639022"><ele>309.0</ele><time>2026-03-29T16:00:23.223Z</time></trkpt><trkpt lat="43.0972426" lon="12.3639936"><ele>310.0</ele><time>2026-03-29T16:00:24.239Z</time></trkpt><trkpt lat="43.0974037" lon="12.3640806"><ele>311.0</ele><time>2026-03-29T16:00:25.224Z</time></trkpt><trkpt lat="43.0975597" lon="12.3641726"><ele>312.33333333333337</ele><time>2026-03-29T16:00:26.223Z</time></trkpt><trkpt lat="43.0977247" lon="12.3642634"><ele>313.6666666666667</ele><time>2026-03-29T16:00:27.256Z</time></trkpt><trkpt lat="43.0978752" lon="12.3643414"><ele>315.0</ele><time>2026-03-29T16:00:28.213Z</time></trkpt><trkpt lat="43.0980267" lon="12.3644243"><ele>315.0</ele><time>2026-03-29T16:00:29.212Z</time></trkpt><trkpt lat="43.0981769" lon="12.3644959"><ele>315.0</ele><time>2026-03-29T16:00:30.217Z</time></trkpt><trkpt lat="43.0983172" lon="12.3645619"><ele>315.0</ele><time>2026-03-29T16:00:31.215Z</time></trkpt><trkpt lat="43.098448" lon="12.3646256"><ele>315.0</ele><time>2026-03-29T16:00:32.22Z</time></trkpt><trkpt lat="43.0985627" lon="12.3646826"><ele>313.8</ele><time>2026-03-29T16:00:33.258Z</time></trkpt><trkpt lat="43.0986675" lon="12.3647312"><ele>312.6</ele><time>2026-03-29T16:00:34.222Z</time></trkpt><trkpt lat="43.0987782" lon="12.3647988"><ele>311.4</ele><time>2026-03-29T16:00:35.226Z</time></trkpt><trkpt lat="43.0988286" lon="12.3648562"><ele>310.2</ele><time>2026-03-29T16:00:36.234Z</time></trkpt><trkpt lat="43.098897" lon="12.3650053"><ele>309.0</ele><time>2026-03-29T16:00:38.208Z</time></trkpt><trkpt lat="43.0989482" lon="12.3650913"><ele>309.0</ele><time>2026-03-29T16:00:39.232Z</time></trkpt><trkpt lat="43.0990188" lon="12.3651563"><ele>309.0</ele><time>2026-03-29T16:00:40.222Z</time></trkpt><trkpt lat="43.0991637" lon="12.3652002"><ele>309.0</ele><time>2026-03-29T16:00:42.245Z</time></trkpt><trkpt lat="43.099258" lon="12.3652257"><ele>309.0</ele><time>2026-03-29T16:00:43.266Z</time></trkpt><trkpt lat="43.0993622" lon="12.365263"><ele>309.0</ele><time>2026-03-29T16:00:44.248Z</time></trkpt><trkpt lat="43.0994691" lon="12.3653323"><ele>309.25</ele><time>2026-03-29T16:00:45.275Z</time></trkpt><trkpt lat="43.0995755" lon="12.3654288"><ele>309.5</ele><time>2026-03-29T16:00:46.265Z</time></trkpt><trkpt lat="43.0997025" lon="12.3655315"><ele>309.75</ele><time>2026-03-29T16:00:47.259Z</time></trkpt><trkpt lat="43.0998333" lon="12.3656444"><ele>310.0</ele><time>2026-03-29T16:00:48.259Z</time></trkpt><trkpt lat="43.0999696" lon="12.3657641"><ele>310.25</ele><time>2026-03-29T16:00:49.258Z</time></trkpt><trkpt lat="43.1000979" lon="12.3658741"><ele>310.5</ele><time>2026-03-29T16:00:50.259Z</time></trkpt><trkpt lat="43.1002216" lon="12.3659745"><ele>310.75</ele><time>2026-03-29T16:00:51.263Z</time></trkpt><trkpt lat="43.1003376" lon="12.3660702"><ele>311.0</ele><time>2026-03-29T16:00:52.262Z</time></trkpt><trkpt lat="43.1004422" lon="12.366165"><ele>311.0</ele><time>2026-03-29T16:00:53.216Z</time></trkpt><trkpt lat="43.1005572" lon="12.3662731"><ele>311.0</ele><time>2026-03-29T16:00:54.272Z</time></trkpt><trkpt lat="43.1006594" lon="12.3663647"><ele>311.0</ele><time>2026-03-29T16:00:55.259Z</time></trkpt><trkpt lat="43.1007819" lon="12.3664819"><ele>311.0</ele><time>2026-03-29T16:00:56.259Z</time></trkpt><trkpt lat="43.1009063" lon="12.3666082"><ele>309.5</ele><time>2026-03-29T16:00:57.254Z</time></trkpt><trkpt lat="43.1010213" lon="12.3667296"><ele>308.0</ele><time>2026-03-29T16:00:58.269Z</time></trkpt><trkpt lat="43.1011302" lon="12.3668651"><ele>306.5</ele><time>2026-03-29T16:00:59.264Z</time></trkpt><trkpt lat="43.1012308" lon="12.3669885"><ele>305.0</ele><time>2026-03-29T16:01:00.271Z</time></trkpt><trkpt lat="43.1013149" lon="12.3670987"><ele>305.0</ele><time>2026-03-29T16:01:01.281Z</time></trkpt><trkpt lat="43.1013811" lon="12.3672023"><ele>305.0</ele><time>2026-03-29T16:01:02.229Z</time></trkpt><trkpt lat="43.1014462" lon="12.3673066"><ele>305.0</ele><time>2026-03-29T16:01:03.225Z</time></trkpt><trkpt lat="43.101528" lon="12.3674282"><ele>305.0</ele><time>2026-03-29T16:01:04.211Z</time></trkpt><trkpt lat="43.1016077" lon="12.3675805"><ele>304.6666666666667</ele><time>2026-03-29T16:01:05.223Z</time></trkpt><trkpt lat="43.1016959" lon="12.3677459"><ele>304.3333333333333</ele><time>2026-03-29T16:01:06.255Z</time></trkpt><trkpt lat="43.1017882" lon="12.3679113"><ele>304.0</ele><time>2026-03-29T16:01:07.258Z</time></trkpt><trkpt lat="43.1018656" lon="12.368094"><ele>302.66666666666663</ele><time>2026-03-29T16:01:08.273Z</time></trkpt><trkpt lat="43.1019465" lon="12.3682678"><ele>301.3333333333333</ele><time>2026-03-29T16:01:09.213Z</time></trkpt><trkpt lat="43.102034" lon="12.3684619"><ele>300.0</ele><time>2026-03-29T16:01:10.231Z</time></trkpt><trkpt lat="43.1021146" lon="12.36864"><ele>300.0</ele><time>2026-03-29T16:01:11.231Z</time></trkpt><trkpt lat="43.1021891" lon="12.3688036"><ele>300.0</ele><time>2026-03-29T16:01:12.236Z</time></trkpt><trkpt lat="43.1022593" lon="12.3689601"><ele>300.0</ele><time>2026-03-29T16:01:13.219Z</time></trkpt><trkpt lat="43.1023294" lon="12.3691074"><ele>300.0</ele><time>2026-03-29T16:01:14.225Z</time></trkpt><trkpt lat="43.1023877" lon="12.3692303"><ele>299.8333333333333</ele><time>2026-03-29T16:01:15.217Z</time></trkpt><trkpt lat="43.102437" lon="12.3693388"><ele>299.6666666666667</ele><time>2026-03-29T16:01:16.235Z</time></trkpt><trkpt lat="43.1024742" lon="12.3694198"><ele>299.5</ele><time>2026-03-29T16:01:17.232Z</time></trkpt><trkpt lat="43.1025089" lon="12.3695008"><ele>299.33333333333337</ele><time>2026-03-29T16:01:18.22Z</time></trkpt><trkpt lat="43.1025441" lon="12.3696448"><ele>299.1666666666667</ele><time>2026-03-29T16:01:20.219Z</time></trkpt><trkpt lat="43.1025448" lon="12.3697791"><ele>299.0</ele><time>2026-03-29T16:01:22.218Z</time></trkpt><trkpt lat="43.1025506" lon="12.369885"><ele>299.33333333333337</ele><time>2026-03-29T16:01:24.221Z</time></trkpt><trkpt lat="43.1025957" lon="12.3699526"><ele>299.6666666666667</ele><time>2026-03-29T16:01:26.234Z</time></trkpt><trkpt lat="43.1026804" lon="12.3700073"><ele>300.0</ele><time>2026-03-29T16:01:28.232Z</time></trkpt><trkpt lat="43.1027477" lon="12.3700797"><ele>300.3333333333333</ele><time>2026-03-29T16:01:29.217Z</time></trkpt><trkpt lat="43.1027966" lon="12.3701702"><ele>300.66666666666663</ele><time>2026-03-29T16:01:30.272Z</time></trkpt><trkpt lat="43.1028538" lon="12.3702754"><ele>301.0</ele><time>2026-03-29T16:01:31.255Z</time></trkpt><trkpt lat="43.1029107" lon="12.3703921"><ele>300.0</ele><time>2026-03-29T16:01:32.235Z</time></trkpt><trkpt lat="43.1029775" lon="12.3705415"><ele>299.0</ele><time>2026-03-29T16:01:33.238Z</time></trkpt><trkpt lat="43.103059" lon="12.3707375"><ele>298.0</ele><time>2026-03-29T16:01:34.255Z</time></trkpt><trkpt lat="43.1031583" lon="12.370945"><ele>297.66666666666663</ele><time>2026-03-29T16:01:35.232Z</time></trkpt><trkpt lat="43.1032595" lon="12.3711589"><ele>297.3333333333333</ele><time>2026-03-29T16:01:36.224Z</time></trkpt><trkpt lat="43.1033582" lon="12.3713845"><ele>297.0</ele><time>2026-03-29T16:01:37.244Z</time></trkpt><trkpt lat="43.1034414" lon="12.3715984"><ele>297.3333333333333</ele><time>2026-03-29T16:01:38.214Z</time></trkpt><trkpt lat="43.1035203" lon="12.3718193"><ele>297.66666666666663</ele><time>2026-03-29T16:01:39.221Z</time></trkpt><trkpt lat="43.1035851" lon="12.372036"><ele>298.0</ele><time>2026-03-29T16:01:40.223Z</time></trkpt><trkpt lat="43.1036379" lon="12.372241"><ele>298.0</ele><time>2026-03-29T16:01:41.289Z</time></trkpt><trkpt lat="43.1037021" lon="12.3724421"><ele>298.0</ele><time>2026-03-29T16:01:42.262Z</time></trkpt><trkpt lat="43.1037655" lon="12.3726558"><ele>298.0</ele><time>2026-03-29T16:01:43.27Z</time></trkpt><trkpt lat="43.1038004" lon="12.3728518"><ele>298.25</ele><time>2026-03-29T16:01:44.272Z</time></trkpt><trkpt lat="43.1038486" lon="12.3730438"><ele>298.5</ele><time>2026-03-29T16:01:45.216Z</time></trkpt><trkpt lat="43.1038975" lon="12.3732319"><ele>298.75</ele><time>2026-03-29T16:01:46.21Z</time></trkpt><trkpt lat="43.1039432" lon="12.3734049"><ele>299.0</ele><time>2026-03-29T16:01:47.235Z</time></trkpt><trkpt lat="43.1039746" lon="12.3735625"><ele>299.0</ele><time>2026-03-29T16:01:48.238Z</time></trkpt><trkpt lat="43.1040056" lon="12.373693"><ele>299.0</ele><time>2026-03-29T16:01:49.256Z</time></trkpt><trkpt lat="43.104028" lon="12.3738026"><ele>299.0</ele><time>2026-03-29T16:01:50.233Z</time></trkpt><trkpt lat="43.1040476" lon="12.3739059"><ele>299.0</ele><time>2026-03-29T16:01:51.22Z</time></trkpt><trkpt lat="43.1040699" lon="12.3740049"><ele>299.0</ele><time>2026-03-29T16:01:52.229Z</time></trkpt><trkpt lat="43.1040928" lon="12.374096"><ele>299.0</ele><time>2026-03-29T16:01:53.215Z</time></trkpt><trkpt lat="43.1041169" lon="12.3741879"><ele>299.33333333333337</ele><time>2026-03-29T16:01:54.217Z</time></trkpt><trkpt lat="43.104105" lon="12.3743165"><ele>299.6666666666667</ele><time>2026-03-29T16:01:57.224Z</time></trkpt><trkpt lat="43.1040608" lon="12.3744083"><ele>300.0</ele><time>2026-03-29T16:01:58.228Z</time></trkpt><trkpt lat="43.1039962" lon="12.3744779"><ele>300.3333333333333</ele><time>2026-03-29T16:01:59.262Z</time></trkpt><trkpt lat="43.1039278" lon="12.3745267"><ele>300.66666666666663</ele><time>2026-03-29T16:02:00.24Z</time></trkpt><trkpt lat="43.1038371" lon="12.3745867"><ele>301.0</ele><time>2026-03-29T16:02:01.22Z</time></trkpt><trkpt lat="43.1037642" lon="12.3746446"><ele>302.3333333333333</ele><time>2026-03-29T16:02:02.238Z</time></trkpt><trkpt lat="43.1039467" lon="12.374913"><ele>303.6666666666667</ele><time>2026-03-29T16:02:03.222Z</time></trkpt><trkpt lat="43.1038348" lon="12.3749914"><ele>305.0</ele><time>2026-03-29T16:02:04.231Z</time></trkpt><trkpt lat="43.1036992" lon="12.37506"><ele>305.0</ele><time>2026-03-29T16:02:05.227Z</time></trkpt><trkpt lat="43.1035693" lon="12.3751116"><ele>305.0</ele><time>2026-03-29T16:02:06.232Z</time></trkpt><trkpt lat="43.1034851" lon="12.3751946"><ele>305.0</ele><time>2026-03-29T16:02:07.233Z</time></trkpt><trkpt lat="43.1034002" lon="12.3752574"><ele>305.0</ele><time>2026-03-29T16:02:08.214Z</time></trkpt><trkpt lat="43.1033349" lon="12.3753151"><ele>305.0</ele><time>2026-03-29T16:02:09.214Z</time></trkpt><trkpt lat="43.1032466" lon="12.3754041"><ele>304.25</ele><time>2026-03-29T16:02:10.242Z</time></trkpt><trkpt lat="43.1031634" lon="12.3754973"><ele>303.5</ele><time>2026-03-29T16:02:11.228Z</time></trkpt><trkpt lat="43.1030703" lon="12.3756026"><ele>302.75</ele><time>2026-03-29T16:02:12.235Z</time></trkpt><trkpt lat="43.1029795" lon="12.375701"><ele>302.0</ele><time>2026-03-29T16:02:13.228Z</time></trkpt><trkpt lat="43.1028789" lon="12.3758119"><ele>302.0</ele><time>2026-03-29T16:02:14.215Z</time></trkpt><trkpt lat="43.1027588" lon="12.3759875"><ele>302.0</ele><time>2026-03-29T16:02:15.224Z</time></trkpt><trkpt lat="43.102637" lon="12.3761491"><ele>302.0</ele><time>2026-03-29T16:02:16.222Z</time></trkpt><trkpt lat="43.1025218" lon="12.3763241"><ele>300.6666666666667</ele><time>2026-03-29T16:02:17.22Z</time></trkpt><trkpt lat="43.1024136" lon="12.3764607"><ele>299.3333333333333</ele><time>2026-03-29T16:02:18.264Z</time></trkpt><trkpt lat="43.1023146" lon="12.3765888"><ele>298.0</ele><time>2026-03-29T16:02:19.205Z</time></trkpt><trkpt lat="43.1021821" lon="12.3767566"><ele>298.0</ele><time>2026-03-29T16:02:20.511Z</time></trkpt><trkpt lat="43.1020732" lon="12.377"><ele>298.0</ele><time>2026-03-29T16:02:22.271Z</time></trkpt><trkpt lat="43.102033" lon="12.3771161"><ele>298.0</ele><time>2026-03-29T16:02:23.272Z</time></trkpt><trkpt lat="43.1020292" lon="12.3772671"><ele>298.0</ele><time>2026-03-29T16:02:24.285Z</time></trkpt><trkpt lat="43.1020291" lon="12.3774378"><ele>298.0</ele><time>2026-03-29T16:02:25.27Z</time></trkpt><trkpt lat="43.1020172" lon="12.3776035"><ele>298.0</ele><time>2026-03-29T16:02:26.303Z</time></trkpt><trkpt lat="43.1020427" lon="12.3777516"><ele>298.0</ele><time>2026-03-29T16:02:27.269Z</time></trkpt><trkpt lat="43.1021104" lon="12.3778118"><ele>298.0</ele><time>2026-03-29T16:02:28.27Z</time></trkpt><trkpt lat="43.1022222" lon="12.3778916"><ele>298.0</ele><time>2026-03-29T16:02:29.283Z</time></trkpt><trkpt lat="43.10238" lon="12.3779904"><ele>298.75</ele><time>2026-03-29T16:02:30.274Z</time></trkpt><trkpt lat="43.1025123" lon="12.378042"><ele>299.5</ele><time>2026-03-29T16:02:31.277Z</time></trkpt><trkpt lat="43.1026394" lon="12.3780582"><ele>300.25</ele><time>2026-03-29T16:02:32.278Z</time></trkpt><trkpt lat="43.1027295" lon="12.3780504"><ele>301.0</ele><time>2026-03-29T16:02:33.27Z</time></trkpt><trkpt lat="43.1028753" lon="12.3779206"><ele>301.0</ele><time>2026-03-29T16:02:34.282Z</time></trkpt><trkpt lat="43.1030278" lon="12.3778261"><ele>301.0</ele><time>2026-03-29T16:02:35.282Z</time></trkpt><trkpt lat="43.1031599" lon="12.3777061"><ele>301.0</ele><time>2026-03-29T16:02:36.302Z</time></trkpt><trkpt lat="43.1033045" lon="12.3775116"><ele>301.5</ele><time>2026-03-29T16:02:37.276Z</time></trkpt><trkpt lat="43.103506" lon="12.3772744"><ele>302.0</ele><time>2026-03-29T16:02:38.263Z</time></trkpt><trkpt lat="43.1036824" lon="12.3770334"><ele>302.0</ele><time>2026-03-29T16:02:39.295Z</time></trkpt><trkpt lat="43.1037566" lon="12.3769306"><ele>302.0</ele><time>2026-03-29T16:02:40.263Z</time></trkpt><trkpt lat="43.1038561" lon="12.3768077"><ele>302.0</ele><time>2026-03-29T16:02:41.274Z</time></trkpt><trkpt lat="43.1039481" lon="12.3767071"><ele>302.0</ele><time>2026-03-29T16:02:42.296Z</time></trkpt><trkpt lat="43.1040359" lon="12.3766165"><ele>303.2</ele><time>2026-03-29T16:02:43.282Z</time></trkpt><trkpt lat="43.1041247" lon="12.3765346"><ele>304.4</ele><time>2026-03-29T16:02:44.291Z</time></trkpt><trkpt lat="43.1042151" lon="12.3764895"><ele>305.6</ele><time>2026-03-29T16:02:45.271Z</time></trkpt><trkpt lat="43.1043142" lon="12.3764731"><ele>306.8</ele><time>2026-03-29T16:02:46.296Z</time></trkpt><trkpt lat="43.1043983" lon="12.3764577"><ele>308.0</ele><time>2026-03-29T16:02:47.279Z</time></trkpt><trkpt lat="43.1044844" lon="12.3764839"><ele>308.0</ele><time>2026-03-29T16:02:48.279Z</time></trkpt><trkpt lat="43.1045704" lon="12.3765592"><ele>308.0</ele><time>2026-03-29T16:02:49.269Z</time></trkpt><trkpt lat="43.1046573" lon="12.3766734"><ele>308.0</ele><time>2026-03-29T16:02:50.276Z</time></trkpt><trkpt lat="43.1047389" lon="12.3768138"><ele>308.0</ele><time>2026-03-29T16:02:51.301Z</time></trkpt><trkpt lat="43.1048217" lon="12.3769548"><ele>308.0</ele><time>2026-03-29T16:02:52.277Z</time></trkpt><trkpt lat="43.1049077" lon="12.3771202"><ele>308.0</ele><time>2026-03-29T16:02:53.275Z</time></trkpt><trkpt lat="43.1050033" lon="12.3773146"><ele>308.0</ele><time>2026-03-29T16:02:54.285Z</time></trkpt><trkpt lat="43.1051137" lon="12.3774752"><ele>311.0</ele><time>2026-03-29T16:02:55.281Z</time></trkpt><trkpt lat="43.105221" lon="12.3776244"><ele>314.0</ele><time>2026-03-29T16:02:56.279Z</time></trkpt><trkpt lat="43.1053343" lon="12.3777985"><ele>317.0</ele><time>2026-03-29T16:02:57.272Z</time></trkpt><trkpt lat="43.1054258" lon="12.3779572"><ele>318.33333333333337</ele><time>2026-03-29T16:02:58.282Z</time></trkpt><trkpt lat="43.1055357" lon="12.3781189"><ele>319.6666666666667</ele><time>2026-03-29T16:02:59.269Z</time></trkpt><trkpt lat="43.1056558" lon="12.3782865"><ele>321.0</ele><time>2026-03-29T16:03:00.273Z</time></trkpt><trkpt lat="43.1057853" lon="12.3784463"><ele>321.0</ele><time>2026-03-29T16:03:01.285Z</time></trkpt><trkpt lat="43.1059095" lon="12.3785694"><ele>321.0</ele><time>2026-03-29T16:03:02.267Z</time></trkpt><trkpt lat="43.1060309" lon="12.3786612"><ele>321.0</ele><time>2026-03-29T16:03:03.286Z</time></trkpt><trkpt lat="43.1061557" lon="12.3787226"><ele>321.0</ele><time>2026-03-29T16:03:04.286Z</time></trkpt><trkpt lat="43.1062791" lon="12.3787784"><ele>321.0</ele><time>2026-03-29T16:03:05.278Z</time></trkpt><trkpt lat="43.1064064" lon="12.3788402"><ele>321.0</ele><time>2026-03-29T16:03:06.274Z</time></trkpt><trkpt lat="43.106549" lon="12.3789126"><ele>321.0</ele><time>2026-03-29T16:03:07.275Z</time></trkpt><trkpt lat="43.1066964" lon="12.378977"><ele>321.0</ele><time>2026-03-29T16:03:08.29Z</time></trkpt><trkpt lat="43.1068451" lon="12.3790334"><ele>324.3333333333333</ele><time>2026-03-29T16:03:09.27Z</time></trkpt><trkpt lat="43.1070091" lon="12.379053"><ele>327.66666666666663</ele><time>2026-03-29T16:03:10.282Z</time></trkpt><trkpt lat="43.1071835" lon="12.3790136"><ele>331.0</ele><time>2026-03-29T16:03:11.268Z</time></trkpt><trkpt lat="43.1073681" lon="12.3789906"><ele>332.0</ele><time>2026-03-29T16:03:12.331Z</time></trkpt><trkpt lat="43.1075175" lon="12.3789543"><ele>333.0</ele><time>2026-03-29T16:03:13.303Z</time></trkpt><trkpt lat="43.1076701" lon="12.3789149"><ele>334.0</ele><time>2026-03-29T16:03:14.277Z</time></trkpt><trkpt lat="43.1078084" lon="12.3788628"><ele>333.25</ele><time>2026-03-29T16:03:15.277Z</time></trkpt><trkpt lat="43.1079219" lon="12.3787789"><ele>332.5</ele><time>2026-03-29T16:03:16.275Z</time></trkpt><trkpt lat="43.1080473" lon="12.3787277"><ele>331.75</ele><time>2026-03-29T16:03:17.275Z</time></trkpt><trkpt lat="43.108169" lon="12.3786748"><ele>331.0</ele><time>2026-03-29T16:03:18.283Z</time></trkpt><trkpt lat="43.1082769" lon="12.3786125"><ele>331.0</ele><time>2026-03-29T16:03:19.277Z</time></trkpt><trkpt lat="43.1083859" lon="12.3785491"><ele>331.0</ele><time>2026-03-29T16:03:20.288Z</time></trkpt><trkpt lat="43.1084807" lon="12.3785121"><ele>331.0</ele><time>2026-03-29T16:03:21.279Z</time></trkpt><trkpt lat="43.1085643" lon="12.3785707"><ele>331.0</ele><time>2026-03-29T16:03:22.283Z</time></trkpt><trkpt lat="43.108624" lon="12.3786318"><ele>331.0</ele><time>2026-03-29T16:03:23.284Z</time></trkpt><trkpt lat="43.1086723" lon="12.3787123"><ele>333.0</ele><time>2026-03-29T16:03:24.271Z</time></trkpt><trkpt lat="43.1086682" lon="12.3788674"><ele>335.0</ele><time>2026-03-29T16:03:25.27Z</time></trkpt><trkpt lat="43.1086478" lon="12.3790061"><ele>337.0</ele><time>2026-03-29T16:03:26.281Z</time></trkpt><trkpt lat="43.1086282" lon="12.3791439"><ele>339.0</ele><time>2026-03-29T16:03:27.285Z</time></trkpt><trkpt lat="43.1085921" lon="12.3792863"><ele>341.0</ele><time>2026-03-29T16:03:28.288Z</time></trkpt><trkpt lat="43.1085339" lon="12.3794273"><ele>341.0</ele><time>2026-03-29T16:03:29.286Z</time></trkpt><trkpt lat="43.1084458" lon="12.3795512"><ele>341.0</ele><time>2026-03-29T16:03:30.272Z</time></trkpt><trkpt lat="43.1083146" lon="12.3796103"><ele>341.0</ele><time>2026-03-29T16:03:31.268Z</time></trkpt><trkpt lat="43.1082154" lon="12.3797078"><ele>341.0</ele><time>2026-03-29T16:03:32.281Z</time></trkpt><trkpt lat="43.1080815" lon="12.3797678"><ele>342.5</ele><time>2026-03-29T16:03:33.262Z</time></trkpt><trkpt lat="43.1079586" lon="12.3798426"><ele>344.0</ele><time>2026-03-29T16:03:34.28Z</time></trkpt><trkpt lat="43.1078152" lon="12.3798844"><ele>345.5</ele><time>2026-03-29T16:03:35.273Z</time></trkpt><trkpt lat="43.1076758" lon="12.3799302"><ele>347.0</ele><time>2026-03-29T16:03:36.275Z</time></trkpt><trkpt lat="43.1075504" lon="12.3799888"><ele>347.0</ele><time>2026-03-29T16:03:37.285Z</time></trkpt><trkpt lat="43.1074381" lon="12.3800558"><ele>347.0</ele><time>2026-03-29T16:03:38.279Z</time></trkpt><trkpt lat="43.1073211" lon="12.380116"><ele>347.0</ele><time>2026-03-29T16:03:39.307Z</time></trkpt><trkpt lat="43.1072148" lon="12.38017"><ele>347.0</ele><time>2026-03-29T16:03:40.282Z</time></trkpt><trkpt lat="43.107094" lon="12.3802381"><ele>346.0</ele><time>2026-03-29T16:03:41.282Z</time></trkpt><trkpt lat="43.1069664" lon="12.380306"><ele>345.0</ele><time>2026-03-29T16:03:42.303Z</time></trkpt><trkpt lat="43.10685" lon="12.3803763"><ele>344.0</ele><time>2026-03-29T16:03:43.275Z</time></trkpt><trkpt lat="43.1067349" lon="12.38043"><ele>343.0</ele><time>2026-03-29T16:03:44.276Z</time></trkpt><trkpt lat="43.1066175" lon="12.3804765"><ele>342.4</ele><time>2026-03-29T16:03:45.273Z</time></trkpt><trkpt lat="43.1065351" lon="12.3805119"><ele>341.79999999999995</ele><time>2026-03-29T16:03:46.281Z</time></trkpt><trkpt lat="43.1064564" lon="12.3805355"><ele>341.2</ele><time>2026-03-29T16:03:47.275Z</time></trkpt><trkpt lat="43.1063866" lon="12.3806327"><ele>340.6</ele><time>2026-03-29T16:03:49.283Z</time></trkpt><trkpt lat="43.1063758" lon="12.3807902"><ele>340.0</ele><time>2026-03-29T16:03:51.28Z</time></trkpt><trkpt lat="43.1063867" lon="12.3809081"><ele>342.2</ele><time>2026-03-29T16:03:52.268Z</time></trkpt><trkpt lat="43.1063661" lon="12.3810166"><ele>344.4</ele><time>2026-03-29T16:03:53.306Z</time></trkpt><trkpt lat="43.1063594" lon="12.3811311"><ele>346.6</ele><time>2026-03-29T16:03:54.268Z</time></trkpt><trkpt lat="43.1064002" lon="12.3812705"><ele>348.8</ele><time>2026-03-29T16:03:55.279Z</time></trkpt><trkpt lat="43.1064445" lon="12.3814048"><ele>351.0</ele><time>2026-03-29T16:03:56.315Z</time></trkpt><trkpt lat="43.1065546" lon="12.3815639"><ele>353.4</ele><time>2026-03-29T16:03:57.276Z</time></trkpt><trkpt lat="43.1066066" lon="12.3816826"><ele>355.8</ele><time>2026-03-29T16:03:58.272Z</time></trkpt><trkpt lat="43.1066595" lon="12.3818004"><ele>358.2</ele><time>2026-03-29T16:03:59.277Z</time></trkpt><trkpt lat="43.1067168" lon="12.3819194"><ele>360.59999999999997</ele><time>2026-03-29T16:04:00.277Z</time></trkpt><trkpt lat="43.1067832" lon="12.3820547"><ele>363.0</ele><time>2026-03-29T16:04:01.281Z</time></trkpt><trkpt lat="43.1068728" lon="12.3821924"><ele>366.0</ele><time>2026-03-29T16:04:02.29Z</time></trkpt><trkpt lat="43.1069415" lon="12.3823391"><ele>369.0</ele><time>2026-03-29T16:04:03.277Z</time></trkpt><trkpt lat="43.10703" lon="12.3825334"><ele>372.0</ele><time>2026-03-29T16:04:04.272Z</time></trkpt><trkpt lat="43.1070916" lon="12.382698"><ele>375.0</ele><time>2026-03-29T16:04:05.29Z</time></trkpt><trkpt lat="43.1071962" lon="12.3828985"><ele>378.5</ele><time>2026-03-29T16:04:06.283Z</time></trkpt><trkpt lat="43.1072908" lon="12.3830789"><ele>382.0</ele><time>2026-03-29T16:04:07.291Z</time></trkpt><trkpt lat="43.1073619" lon="12.38324"><ele>385.5</ele><time>2026-03-29T16:04:08.295Z</time></trkpt><trkpt lat="43.1074283" lon="12.3834226"><ele>389.0</ele><time>2026-03-29T16:04:09.273Z</time></trkpt><trkpt lat="43.1074806" lon="12.3836114"><ele>390.0</ele><time>2026-03-29T16:04:10.276Z</time></trkpt><trkpt lat="43.1075401" lon="12.3837699"><ele>391.0</ele><time>2026-03-29T16:04:11.294Z</time></trkpt><trkpt lat="43.1076086" lon="12.3839235"><ele>392.0</ele><time>2026-03-29T16:04:12.285Z</time></trkpt><trkpt lat="43.1077078" lon="12.3840943"><ele>393.0</ele><time>2026-03-29T16:04:13.287Z</time></trkpt><trkpt lat="43.1077691" lon="12.3842489"><ele>395.2</ele><time>2026-03-29T16:04:14.312Z</time></trkpt><trkpt lat="43.1078124" lon="12.3843523"><ele>397.4</ele><time>2026-03-29T16:04:15.28Z</time></trkpt><trkpt lat="43.1078629" lon="12.3844746"><ele>399.59999999999997</ele><time>2026-03-29T16:04:16.279Z</time></trkpt><trkpt lat="43.1078957" lon="12.3846085"><ele>401.79999999999995</ele><time>2026-03-29T16:04:17.281Z</time></trkpt><trkpt lat="43.107911" lon="12.3847073"><ele>404.0</ele><time>2026-03-29T16:04:18.296Z</time></trkpt><trkpt lat="43.1079671" lon="12.3848456"><ele>406.49999999999994</ele><time>2026-03-29T16:04:20.286Z</time></trkpt><trkpt lat="43.1079896" lon="12.3849389"><ele>409.0</ele><time>2026-03-29T16:04:21.265Z</time></trkpt><trkpt lat="43.1079874" lon="12.3850677"><ele>411.5</ele><time>2026-03-29T16:04:23.294Z</time></trkpt><trkpt lat="43.107986" lon="12.385164"><ele>414.0</ele><time>2026-03-29T16:04:24.279Z</time></trkpt><trkpt lat="43.1079411" lon="12.3852574"><ele>416.49999999999994</ele><time>2026-03-29T16:04:26.276Z</time></trkpt><trkpt lat="43.1078415" lon="12.385268"><ele>419.0</ele><time>2026-03-29T16:04:28.291Z</time></trkpt><trkpt lat="43.1077774" lon="12.3852678"><ele>419.0</ele><time>2026-03-29T16:04:29.276Z</time></trkpt><trkpt lat="43.107661" lon="12.3852701"><ele>419.0</ele><time>2026-03-29T16:04:34.277Z</time></trkpt><trkpt lat="43.1075864" lon="12.3853054"><ele>419.0</ele><time>2026-03-29T16:04:36.275Z</time></trkpt><trkpt lat="43.1074956" lon="12.3853151"><ele>419.0</ele><time>2026-03-29T16:04:38.27Z</time></trkpt><trkpt lat="43.1073565" lon="12.3853586"><ele>419.0</ele><time>2026-03-29T16:04:39.276Z</time></trkpt><trkpt lat="43.1072507" lon="12.3853879"><ele>418.49999999999994</ele><time>2026-03-29T16:04:40.301Z</time></trkpt><trkpt lat="43.107172" lon="12.3853939"><ele>418.0</ele><time>2026-03-29T16:04:41.279Z</time></trkpt><trkpt lat="43.1071044" lon="12.3853472"><ele>417.5</ele><time>2026-03-29T16:04:42.277Z</time></trkpt><trkpt lat="43.1070372" lon="12.3852527"><ele>417.0</ele><time>2026-03-29T16:04:44.273Z</time></trkpt><trkpt lat="43.1069657" lon="12.3851617"><ele>416.49999999999994</ele><time>2026-03-29T16:04:46.293Z</time></trkpt><trkpt lat="43.1069088" lon="12.3851054"><ele>416.0</ele><time>2026-03-29T16:04:47.279Z</time></trkpt><trkpt lat="43.1068519" lon="12.3850409"><ele>415.99999999999994</ele><time>2026-03-29T16:04:49.29Z</time></trkpt><trkpt lat="43.1067925" lon="12.3849701"><ele>416.0</ele><time>2026-03-29T16:04:52.276Z</time></trkpt><trkpt lat="43.1067842" lon="12.3848512"><ele>416.0</ele><time>2026-03-29T16:04:55.285Z</time></trkpt><trkpt lat="43.10678" lon="12.3847299"><ele>416.0</ele><time>2026-03-29T16:05:03.27Z</time></trkpt><trkpt lat="43.1068343" lon="12.3846333"><ele>415.99999999999994</ele><time>2026-03-29T16:05:06.279Z</time></trkpt><trkpt lat="43.106896" lon="12.3845816"><ele>416.0</ele><time>2026-03-29T16:05:09.267Z</time></trkpt><trkpt lat="43.1070119" lon="12.3843978"><ele>413.0</ele><time>2026-03-29T16:05:40.288Z</time></trkpt><trkpt lat="43.1071337" lon="12.3843919"><ele>410.0</ele><time>2026-03-29T16:05:41.28Z</time></trkpt><trkpt lat="43.1072749" lon="12.3844299"><ele>407.0</ele><time>2026-03-29T16:05:42.266Z</time></trkpt><trkpt lat="43.107418" lon="12.384584"><ele>404.0</ele><time>2026-03-29T16:05:43.269Z</time></trkpt><trkpt lat="43.1069101" lon="12.3845001"><ele>403.85714285714283</ele><time>2026-03-29T16:05:46.277Z</time></trkpt><trkpt lat="43.1069758" lon="12.3844963"><ele>403.71428571428567</ele><time>2026-03-29T16:07:51.311Z</time></trkpt><trkpt lat="43.1070411" lon="12.3844812"><ele>403.57142857142856</ele><time>2026-03-29T16:07:57.316Z</time></trkpt><trkpt lat="43.1069593" lon="12.3844721"><ele>403.42857142857144</ele><time>2026-03-29T16:08:40.314Z</time></trkpt><trkpt lat="43.1070263" lon="12.384433"><ele>403.2857142857143</ele><time>2026-03-29T16:08:52.312Z</time></trkpt><trkpt lat="43.1069389" lon="12.3844529"><ele>403.14285714285717</ele><time>2026-03-29T16:09:09.307Z</time></trkpt><trkpt lat="43.1068782" lon="12.3844803"><ele>403.0</ele><time>2026-03-29T16:09:11.3Z</time></trkpt><trkpt lat="43.1068207" lon="12.3844211"><ele>403.0</ele><time>2026-03-29T16:09:32.299Z</time></trkpt><trkpt lat="43.1068091" lon="12.3845477"><ele>403.0</ele><time>2026-03-29T16:09:36.315Z</time></trkpt><trkpt lat="43.1068068" lon="12.3844471"><ele>403.0</ele><time>2026-03-29T16:12:31.27Z</time></trkpt><trkpt lat="43.1068063" lon="12.3843571"><ele>403.0</ele><time>2026-03-29T16:12:59.316Z</time></trkpt><trkpt lat="43.1067924" lon="12.3842726"><ele>403.0</ele><time>2026-03-29T16:14:10.306Z</time></trkpt><trkpt lat="43.106863" lon="12.3843177"><ele>403.0</ele><time>2026-03-29T16:16:15.285Z</time></trkpt><trkpt lat="43.1068601" lon="12.3844136"><ele>403.0</ele><time>2026-03-29T16:17:00.328Z</time></trkpt><trkpt lat="43.1068095" lon="12.3843453"><ele>403.0</ele><time>2026-03-29T16:20:05.313Z</time></trkpt><trkpt lat="43.1067441" lon="12.3843427"><ele>403.0</ele><time>2026-03-29T16:20:08.286Z</time></trkpt></trkseg></trk></gpx>